<?xml version="1.0" encoding="UTF-8"?>
<gpx version="1.1" creator="https://www.youtrack.es" xsi:schemaLocation="http://www.topografix.com/GPX/1/1 http://www.topografix.com/GPX/1/1/gpx.xsd http://www.garmin.com/xmlschemas/GpxExtensions/v3 http://www.garmin.com/xmlschemas/GpxExtensionsv3.xsd http://www.garmin.com/xmlschemas/TrackPointExtension/v1 http://www.garmin.com/xmlschemas/TrackPointExtensionv1.xsd" xmlns:gpxtpx="http://www.garmin.com/xmlschemas/TrackPointExtension/v1" xmlns:gpxx="http://www.garmin.com/xmlschemas/GpxExtensions/v3" xmlns:xsi="http://www.w3.org/2001/XMLSchema-instance">
  <metadata>
    <link href="https://www.youtrack.es">
      <text>YouTrack.es</text>
    </link>
    <time>2026-05-08T06:58:35Z</time>
  </metadata>
  <trk>
    <src>https://www.youtrack.es</src>
    <link href="https://www.youtrack.es/ruta/11435-bici-prueba-con-tato-por-el-oeste">
      <text>YouTrack.es</text>
    </link>
    <trkseg>
      <trkpt lat="-34.62484463118017" lon="-58.46435649320483">
        <ele>30.708576202392578</ele>
        <time>2020-02-28T12:14:46.000Z</time>
      </trkpt>
      <trkpt lat="-34.625258445739746" lon="-58.46417427062988">
        <ele>31.910295486450195</ele>
        <time>2020-02-28T12:14:46.007Z</time>
      </trkpt>
      <trkpt lat="-34.62641716003418" lon="-58.46370220184326">
        <ele>31.922183990478516</ele>
        <time>2020-02-28T12:14:46.034Z</time>
      </trkpt>
      <trkpt lat="-34.62710372172296" lon="-58.463401794433594">
        <ele>30.40958595275879</ele>
        <time>2020-02-28T12:14:46.072Z</time>
      </trkpt>
      <trkpt lat="-34.62710380554199" lon="-58.463401794433594">
        <ele>30.409889221191406</ele>
        <time>2020-02-28T12:14:46.110Z</time>
      </trkpt>
      <trkpt lat="-34.62761870585382" lon="-58.463144302368164">
        <ele>32.57215881347656</ele>
        <time>2020-02-28T12:14:46.157Z</time>
      </trkpt>
      <trkpt lat="-34.628219520673156" lon="-58.46292972564697">
        <ele>35.6384162902832</ele>
        <time>2020-02-28T12:14:46.214Z</time>
      </trkpt>
      <trkpt lat="-34.62821960449219" lon="-58.46292972564697">
        <ele>35.63871765136719</ele>
        <time>2020-02-28T12:14:46.271Z</time>
      </trkpt>
      <trkpt lat="-34.62830535136163" lon="-58.46292972564697">
        <ele>35.94735336303711</ele>
        <time>2020-02-28T12:14:46.330Z</time>
      </trkpt>
      <trkpt lat="-34.628305435180664" lon="-58.46292972564697">
        <ele>35.947654724121094</ele>
        <time>2020-02-28T12:14:46.389Z</time>
      </trkpt>
      <trkpt lat="-34.62886325083673" lon="-58.46271514892578">
        <ele>36.28821563720703</ele>
        <time>2020-02-28T12:14:46.457Z</time>
      </trkpt>
      <trkpt lat="-34.62886333465576" lon="-58.46271514892578">
        <ele>36.287811279296875</ele>
        <time>2020-02-28T12:14:46.525Z</time>
      </trkpt>
      <trkpt lat="-34.628991996869445" lon="-58.46323013305664">
        <ele>36.58779525756836</ele>
        <time>2020-02-28T12:14:46.600Z</time>
      </trkpt>
      <trkpt lat="-34.62903491221368" lon="-58.463401794433594">
        <ele>36.639286041259766</ele>
        <time>2020-02-28T12:14:46.677Z</time>
      </trkpt>
      <trkpt lat="-34.62907791137695" lon="-58.46353054046631">
        <ele>36.37513732910156</ele>
        <time>2020-02-28T12:14:46.756Z</time>
      </trkpt>
      <trkpt lat="-34.6291636582464" lon="-58.464131355285645">
        <ele>33.0430793762207</ele>
        <time>2020-02-28T12:14:46.843Z</time>
      </trkpt>
      <trkpt lat="-34.62954989634454" lon="-58.46554756164551">
        <ele>37.930763244628906</ele>
        <time>2020-02-28T12:14:46.950Z</time>
      </trkpt>
      <trkpt lat="-34.629549980163574" lon="-58.46554756164551">
        <ele>37.930564880371094</ele>
        <time>2020-02-28T12:14:47.057Z</time>
      </trkpt>
      <trkpt lat="-34.62993613444269" lon="-58.46692085266113">
        <ele>36.44559097290039</ele>
        <time>2020-02-28T12:14:47.183Z</time>
      </trkpt>
      <trkpt lat="-34.6300648804754" lon="-58.46747875213623">
        <ele>33.175445556640625</ele>
        <time>2020-02-28T12:14:47.317Z</time>
      </trkpt>
      <trkpt lat="-34.63027945719659" lon="-58.468337059020996">
        <ele>31.450275421142578</ele>
        <time>2020-02-28T12:14:47.463Z</time>
      </trkpt>
      <trkpt lat="-34.63057994842529" lon="-58.46945285797119">
        <ele>30.772417068481445</ele>
        <time>2020-02-28T12:14:47.624Z</time>
      </trkpt>
      <trkpt lat="-34.63070869445801" lon="-58.469624519348145">
        <ele>31.905193328857422</ele>
        <time>2020-02-28T12:14:47.788Z</time>
      </trkpt>
      <trkpt lat="-34.63109484873712" lon="-58.47116947174072">
        <ele>27.349576950073242</ele>
        <time>2020-02-28T12:14:47.973Z</time>
      </trkpt>
      <trkpt lat="-34.63143817149103" lon="-58.472371101379395">
        <ele>27.001588821411133</ele>
        <time>2020-02-28T12:14:48.175Z</time>
      </trkpt>
      <trkpt lat="-34.63178149424493" lon="-58.47348690032959">
        <ele>26.141260147094727</ele>
        <time>2020-02-28T12:14:48.393Z</time>
      </trkpt>
      <trkpt lat="-34.631781578063965" lon="-58.47348690032959">
        <ele>26.140857696533203</ele>
        <time>2020-02-28T12:14:48.611Z</time>
      </trkpt>
      <trkpt lat="-34.63203898631036" lon="-58.47455978393555">
        <ele>25.2768611907959</ele>
        <time>2020-02-28T12:14:48.844Z</time>
      </trkpt>
      <trkpt lat="-34.63233939372003" lon="-58.475632667541504">
        <ele>26.779069900512695</ele>
        <time>2020-02-28T12:14:49.092Z</time>
      </trkpt>
      <trkpt lat="-34.63259688578546" lon="-58.47670555114746">
        <ele>26.92254066467285</ele>
        <time>2020-02-28T12:14:49.354Z</time>
      </trkpt>
      <trkpt lat="-34.63289729319513" lon="-58.477821350097656">
        <ele>28.619823455810547</ele>
        <time>2020-02-28T12:14:49.632Z</time>
      </trkpt>
      <trkpt lat="-34.63315478526056" lon="-58.47889423370361">
        <ele>26.882429122924805</ele>
        <time>2020-02-28T12:14:49.925Z</time>
      </trkpt>
      <trkpt lat="-34.633498108014464" lon="-58.480353355407715">
        <ele>27.315046310424805</ele>
        <time>2020-02-28T12:14:50.238Z</time>
      </trkpt>
      <trkpt lat="-34.63379851542413" lon="-58.4816837310791">
        <ele>27.175827026367188</ele>
        <time>2020-02-28T12:14:50.569Z</time>
      </trkpt>
      <trkpt lat="-34.633798599243164" lon="-58.4816837310791">
        <ele>27.175827026367188</ele>
        <time>2020-02-28T12:14:50.900Z</time>
      </trkpt>
      <trkpt lat="-34.633970176801085" lon="-58.482327461242676">
        <ele>27.178831100463867</ele>
        <time>2020-02-28T12:14:51.240Z</time>
      </trkpt>
      <trkpt lat="-34.6340989228338" lon="-58.48292827606201">
        <ele>28.791894912719727</ele>
        <time>2020-02-28T12:14:51.588Z</time>
      </trkpt>
      <trkpt lat="-34.63418483734131" lon="-58.48327159881592">
        <ele>29.99665069580078</ele>
        <time>2020-02-28T12:14:51.941Z</time>
      </trkpt>
      <trkpt lat="-34.63418483734131" lon="-58.48344326019287">
        <ele>30.61452865600586</ele>
        <time>2020-02-28T12:14:52.296Z</time>
      </trkpt>
      <trkpt lat="-34.63435641489923" lon="-58.48421573638916">
        <ele>30.397043228149414</ele>
        <time>2020-02-28T12:14:52.662Z</time>
      </trkpt>
      <trkpt lat="-34.63435649871826" lon="-58.48421573638916">
        <ele>30.396841049194336</ele>
        <time>2020-02-28T12:14:53.028Z</time>
      </trkpt>
      <trkpt lat="-34.634485160931945" lon="-58.484859466552734">
        <ele>29.45368194580078</ele>
        <time>2020-02-28T12:14:53.402Z</time>
      </trkpt>
      <trkpt lat="-34.6346568223089" lon="-58.48550319671631">
        <ele>27.451881408691406</ele>
        <time>2020-02-28T12:14:53.785Z</time>
      </trkpt>
      <trkpt lat="-34.63491431437433" lon="-58.48670482635498">
        <ele>26.261022567749023</ele>
        <time>2020-02-28T12:14:54.185Z</time>
      </trkpt>
      <trkpt lat="-34.63517180643976" lon="-58.48769187927246">
        <ele>27.592321395874023</ele>
        <time>2020-02-28T12:14:54.598Z</time>
      </trkpt>
      <trkpt lat="-34.63517189025879" lon="-58.48769187927246">
        <ele>27.59252166748047</ele>
        <time>2020-02-28T12:14:55.011Z</time>
      </trkpt>
      <trkpt lat="-34.6355580445379" lon="-58.48945140838623">
        <ele>26.243194580078125</ele>
        <time>2020-02-28T12:14:55.448Z</time>
      </trkpt>
      <trkpt lat="-34.63594436645508" lon="-58.49095344543457">
        <ele>26.35938262939453</ele>
        <time>2020-02-28T12:14:55.906Z</time>
      </trkpt>
      <trkpt lat="-34.636030197143555" lon="-58.491082191467285">
        <ele>26.418472290039062</ele>
        <time>2020-02-28T12:14:56.366Z</time>
      </trkpt>
      <trkpt lat="-34.636201774701476" lon="-58.4917688369751">
        <ele>25.120349884033203</ele>
        <time>2020-02-28T12:14:56.836Z</time>
      </trkpt>
      <trkpt lat="-34.63620185852051" lon="-58.4917688369751">
        <ele>25.120147705078125</ele>
        <time>2020-02-28T12:14:57.306Z</time>
      </trkpt>
      <trkpt lat="-34.63628760538995" lon="-58.49215507507324">
        <ele>25.118520736694336</ele>
        <time>2020-02-28T12:14:57.781Z</time>
      </trkpt>
      <trkpt lat="-34.636502182111144" lon="-58.493099212646484">
        <ele>25.809465408325195</ele>
        <time>2020-02-28T12:14:58.269Z</time>
      </trkpt>
      <trkpt lat="-34.63663092814386" lon="-58.49365711212158">
        <ele>26.749284744262695</ele>
        <time>2020-02-28T12:14:58.765Z</time>
      </trkpt>
      <trkpt lat="-34.63680258952081" lon="-58.495073318481445">
        <ele>27.765199661254883</ele>
        <time>2020-02-28T12:14:59.280Z</time>
      </trkpt>
      <trkpt lat="-34.63693133555353" lon="-58.495845794677734">
        <ele>27.856788635253906</ele>
        <time>2020-02-28T12:14:59.805Z</time>
      </trkpt>
      <trkpt lat="-34.637017166242" lon="-58.496575355529785">
        <ele>23.83467674255371</ele>
        <time>2020-02-28T12:15:00.340Z</time>
      </trkpt>
      <trkpt lat="-34.637231742963195" lon="-58.49803447723389">
        <ele>22.19569206237793</ele>
        <time>2020-02-28T12:15:00.894Z</time>
      </trkpt>
      <trkpt lat="-34.63740340434015" lon="-58.49945068359375">
        <ele>24.512733459472656</ele>
        <time>2020-02-28T12:15:01.467Z</time>
      </trkpt>
      <trkpt lat="-34.63740348815918" lon="-58.49945068359375">
        <ele>24.51303482055664</ele>
        <time>2020-02-28T12:15:02.040Z</time>
      </trkpt>
      <trkpt lat="-34.63761798106134" lon="-58.50090980529785">
        <ele>25.039852142333984</ele>
        <time>2020-02-28T12:15:02.633Z</time>
      </trkpt>
      <trkpt lat="-34.63778964243829" lon="-58.502068519592285">
        <ele>20.80169105529785</ele>
        <time>2020-02-28T12:15:03.241Z</time>
      </trkpt>
      <trkpt lat="-34.638004219159484" lon="-58.50344181060791">
        <ele>23.424915313720703</ele>
        <time>2020-02-28T12:15:03.868Z</time>
      </trkpt>
      <trkpt lat="-34.63804713450372" lon="-58.50391387939453">
        <ele>22.42251205444336</ele>
        <time>2020-02-28T12:15:04.501Z</time>
      </trkpt>
      <trkpt lat="-34.63817588053644" lon="-58.50451469421387">
        <ele>22.96982192993164</ele>
        <time>2020-02-28T12:15:05.142Z</time>
      </trkpt>
      <trkpt lat="-34.63839045725763" lon="-58.50593090057373">
        <ele>22.336288452148438</ele>
        <time>2020-02-28T12:15:05.802Z</time>
      </trkpt>
      <trkpt lat="-34.63839054107666" lon="-58.50593090057373">
        <ele>22.336288452148438</ele>
        <time>2020-02-28T12:15:06.462Z</time>
      </trkpt>
      <trkpt lat="-34.63864794932306" lon="-58.507347106933594">
        <ele>25.89481544494629</ele>
        <time>2020-02-28T12:15:07.141Z</time>
      </trkpt>
      <trkpt lat="-34.63886252604425" lon="-58.50872039794922">
        <ele>26.466890335083008</ele>
        <time>2020-02-28T12:15:07.839Z</time>
      </trkpt>
      <trkpt lat="-34.638991272076964" lon="-58.509321212768555">
        <ele>29.659259796142578</ele>
        <time>2020-02-28T12:15:08.545Z</time>
      </trkpt>
      <trkpt lat="-34.638991355895996" lon="-58.509321212768555">
        <ele>29.659461975097656</ele>
        <time>2020-02-28T12:15:09.251Z</time>
      </trkpt>
      <trkpt lat="-34.638991272076964" lon="-58.50944995880127">
        <ele>29.448572158813477</ele>
        <time>2020-02-28T12:15:09.959Z</time>
      </trkpt>
      <trkpt lat="-34.63912001810968" lon="-58.510050773620605">
        <ele>29.0</ele>
        <time>2020-02-28T12:15:10.675Z</time>
      </trkpt>
      <trkpt lat="-34.63933459483087" lon="-58.51142406463623">
        <ele>28.63254165649414</ele>
        <time>2020-02-28T12:15:11.409Z</time>
      </trkpt>
      <trkpt lat="-34.63929167948663" lon="-58.51301193237305">
        <ele>25.79861831665039</ele>
        <time>2020-02-28T12:15:12.164Z</time>
      </trkpt>
      <trkpt lat="-34.639291763305664" lon="-58.51301193237305">
        <ele>25.798818588256836</ele>
        <time>2020-02-28T12:15:12.919Z</time>
      </trkpt>
      <trkpt lat="-34.639248764142394" lon="-58.514299392700195">
        <ele>25.08711051940918</ele>
        <time>2020-02-28T12:15:13.691Z</time>
      </trkpt>
      <trkpt lat="-34.639205848798156" lon="-58.51614475250244">
        <ele>23.101356506347656</ele>
        <time>2020-02-28T12:15:14.488Z</time>
      </trkpt>
      <trkpt lat="-34.63912001810968" lon="-58.51738929748535">
        <ele>24.948577880859375</ele>
        <time>2020-02-28T12:15:15.301Z</time>
      </trkpt>
      <trkpt lat="-34.63907710276544" lon="-58.51876258850098">
        <ele>27.74247932434082</ele>
        <time>2020-02-28T12:15:16.132Z</time>
      </trkpt>
      <trkpt lat="-34.6390341874212" lon="-58.51974964141846">
        <ele>21.74595832824707</ele>
        <time>2020-02-28T12:15:16.976Z</time>
      </trkpt>
      <trkpt lat="-34.638991272076964" lon="-58.520522117614746">
        <ele>20.36054039001465</ele>
        <time>2020-02-28T12:15:17.831Z</time>
      </trkpt>
      <trkpt lat="-34.638948356732726" lon="-58.52120876312256">
        <ele>25.119888305664062</ele>
        <time>2020-02-28T12:15:18.695Z</time>
      </trkpt>
      <trkpt lat="-34.63886252604425" lon="-58.52245330810547">
        <ele>24.142314910888672</ele>
        <time>2020-02-28T12:15:19.575Z</time>
      </trkpt>
      <trkpt lat="-34.63886252604425" lon="-58.522539138793945">
        <ele>24.34827423095703</ele>
        <time>2020-02-28T12:15:20.456Z</time>
      </trkpt>
      <trkpt lat="-34.63886260986328" lon="-58.522539138793945">
        <ele>24.349079132080078</ele>
        <time>2020-02-28T12:15:21.337Z</time>
      </trkpt>
      <trkpt lat="-34.638948356732726" lon="-58.52369785308838">
        <ele>22.023488998413086</ele>
        <time>2020-02-28T12:15:22.234Z</time>
      </trkpt>
      <trkpt lat="-34.6390341874212" lon="-58.52511405944824">
        <ele>26.659414291381836</ele>
        <time>2020-02-28T12:15:23.149Z</time>
      </trkpt>
      <trkpt lat="-34.6390341874212" lon="-58.52519989013672">
        <ele>27.069725036621094</ele>
        <time>2020-02-28T12:15:24.066Z</time>
      </trkpt>
      <trkpt lat="-34.63916293345392" lon="-58.52644443511963">
        <ele>24.63302230834961</ele>
        <time>2020-02-28T12:15:24.999Z</time>
      </trkpt>
      <trkpt lat="-34.63916293345392" lon="-58.52695941925049">
        <ele>25.447101593017578</ele>
        <time>2020-02-28T12:15:25.939Z</time>
      </trkpt>
      <trkpt lat="-34.639248764142394" lon="-58.52773189544678">
        <ele>27.488162994384766</ele>
        <time>2020-02-28T12:15:26.889Z</time>
      </trkpt>
      <trkpt lat="-34.639248847961426" lon="-58.52773189544678">
        <ele>27.488365173339844</ele>
        <time>2020-02-28T12:15:27.839Z</time>
      </trkpt>
      <trkpt lat="-34.639291763305664" lon="-58.52867603302002">
        <ele>29.106294631958008</ele>
        <time>2020-02-28T12:15:28.802Z</time>
      </trkpt>
      <trkpt lat="-34.63929167948663" lon="-58.529062271118164">
        <ele>27.715967178344727</ele>
        <time>2020-02-28T12:15:29.770Z</time>
      </trkpt>
      <trkpt lat="-34.63933459483087" lon="-58.529319763183594">
        <ele>27.044227600097656</ele>
        <time>2020-02-28T12:15:30.741Z</time>
      </trkpt>
      <trkpt lat="-34.6393346786499" lon="-58.529791831970215">
        <ele>27.0</ele>
        <time>2020-02-28T12:15:31.718Z</time>
      </trkpt>
      <trkpt lat="-34.6393346786499" lon="-58.52996349334717">
        <ele>27.0</ele>
        <time>2020-02-28T12:15:32.698Z</time>
      </trkpt>
      <trkpt lat="-34.63937751017511" lon="-58.530049324035645">
        <ele>27.027423858642578</ele>
        <time>2020-02-28T12:15:33.679Z</time>
      </trkpt>
      <trkpt lat="-34.63937759399414" lon="-58.53034973144531">
        <ele>26.533184051513672</ele>
        <time>2020-02-28T12:15:34.664Z</time>
      </trkpt>
      <trkpt lat="-34.63946342468262" lon="-58.5311222076416">
        <ele>24.567243576049805</ele>
        <time>2020-02-28T12:15:35.659Z</time>
      </trkpt>
      <trkpt lat="-34.63954917155206" lon="-58.53219509124756">
        <ele>21.27764892578125</ele>
        <time>2020-02-28T12:15:36.669Z</time>
      </trkpt>
      <trkpt lat="-34.63959217071533" lon="-58.532538414001465">
        <ele>17.776742935180664</ele>
        <time>2020-02-28T12:15:37.683Z</time>
      </trkpt>
      <trkpt lat="-34.6395920868963" lon="-58.532538414001465">
        <ele>17.77634048461914</ele>
        <time>2020-02-28T12:15:38.697Z</time>
      </trkpt>
      <trkpt lat="-34.63963500224054" lon="-58.533267974853516">
        <ele>22.393245697021484</ele>
        <time>2020-02-28T12:15:39.721Z</time>
      </trkpt>
      <trkpt lat="-34.63972091674805" lon="-58.534297943115234">
        <ele>25.42632293701172</ele>
        <time>2020-02-28T12:15:40.758Z</time>
      </trkpt>
      <trkpt lat="-34.639763832092285" lon="-58.535027503967285">
        <ele>27.18880271911621</ele>
        <time>2020-02-28T12:15:41.805Z</time>
      </trkpt>
      <trkpt lat="-34.63976374827325" lon="-58.535799980163574">
        <ele>27.536346435546875</ele>
        <time>2020-02-28T12:15:42.862Z</time>
      </trkpt>
      <trkpt lat="-34.639892578125" lon="-58.53708744049072">
        <ele>24.67890167236328</ele>
        <time>2020-02-28T12:15:43.936Z</time>
      </trkpt>
      <trkpt lat="-34.63993549346924" lon="-58.53721618652344">
        <ele>25.245288848876953</ele>
        <time>2020-02-28T12:15:45.012Z</time>
      </trkpt>
      <trkpt lat="-34.64006415568292" lon="-58.5386323928833">
        <ele>25.900863647460938</ele>
        <time>2020-02-28T12:15:46.107Z</time>
      </trkpt>
      <trkpt lat="-34.64010715484619" lon="-58.539276123046875">
        <ele>27.651920318603516</ele>
        <time>2020-02-28T12:15:47.211Z</time>
      </trkpt>
      <trkpt lat="-34.64010707102716" lon="-58.539276123046875">
        <ele>27.651519775390625</ele>
        <time>2020-02-28T12:15:48.315Z</time>
      </trkpt>
      <trkpt lat="-34.640192901715636" lon="-58.540005683898926">
        <ele>29.01523780822754</ele>
        <time>2020-02-28T12:15:49.428Z</time>
      </trkpt>
      <trkpt lat="-34.640235817059875" lon="-58.54142189025879">
        <ele>28.70720863342285</ele>
        <time>2020-02-28T12:15:50.560Z</time>
      </trkpt>
      <trkpt lat="-34.640235817059875" lon="-58.541550636291504">
        <ele>29.01614761352539</ele>
        <time>2020-02-28T12:15:51.694Z</time>
      </trkpt>
      <trkpt lat="-34.640235817059875" lon="-58.54283809661865">
        <ele>26.722070693969727</ele>
        <time>2020-02-28T12:15:52.845Z</time>
      </trkpt>
      <trkpt lat="-34.64019298553467" lon="-58.543524742126465">
        <ele>25.587371826171875</ele>
        <time>2020-02-28T12:15:54.005Z</time>
      </trkpt>
      <trkpt lat="-34.64015007019043" lon="-58.54382514953613">
        <ele>25.123964309692383</ele>
        <time>2020-02-28T12:15:55.169Z</time>
      </trkpt>
      <trkpt lat="-34.64010707102716" lon="-58.5446834564209">
        <ele>23.80446434020996</ele>
        <time>2020-02-28T12:15:56.344Z</time>
      </trkpt>
      <trkpt lat="-34.64010715484619" lon="-58.5446834564209">
        <ele>23.804866790771484</ele>
        <time>2020-02-28T12:15:57.519Z</time>
      </trkpt>
      <trkpt lat="-34.63997840881348" lon="-58.549017906188965">
        <ele>23.030071258544922</ele>
        <time>2020-02-28T12:15:58.751Z</time>
      </trkpt>
      <trkpt lat="-34.639978324994445" lon="-58.549489974975586">
        <ele>25.36005973815918</ele>
        <time>2020-02-28T12:15:59.990Z</time>
      </trkpt>
      <trkpt lat="-34.639978324994445" lon="-58.5496187210083">
        <ele>25.36005973815918</ele>
        <time>2020-02-28T12:16:01.230Z</time>
      </trkpt>
      <trkpt lat="-34.63993540965021" lon="-58.55266571044922">
        <ele>25.021331787109375</ele>
        <time>2020-02-28T12:16:02.511Z</time>
      </trkpt>
      <trkpt lat="-34.63989249430597" lon="-58.553223609924316">
        <ele>25.78594398498535</ele>
        <time>2020-02-28T12:16:03.799Z</time>
      </trkpt>
      <trkpt lat="-34.63989249430597" lon="-58.554253578186035">
        <ele>26.324857711791992</ele>
        <time>2020-02-28T12:16:05.101Z</time>
      </trkpt>
      <trkpt lat="-34.63989249430597" lon="-58.555970191955566">
        <ele>26.53752326965332</ele>
        <time>2020-02-28T12:16:06.425Z</time>
      </trkpt>
      <trkpt lat="-34.639892578125" lon="-58.555970191955566">
        <ele>26.53762435913086</ele>
        <time>2020-02-28T12:16:07.749Z</time>
      </trkpt>
      <trkpt lat="-34.63984957896173" lon="-58.55704307556152">
        <ele>26.494693756103516</ele>
        <time>2020-02-28T12:16:09.087Z</time>
      </trkpt>
      <trkpt lat="-34.63984957896173" lon="-58.557257652282715">
        <ele>25.82793617248535</ele>
        <time>2020-02-28T12:16:10.428Z</time>
      </trkpt>
      <trkpt lat="-34.639892578125" lon="-58.558244705200195">
        <ele>27.60232925415039</ele>
        <time>2020-02-28T12:16:11.782Z</time>
      </trkpt>
      <trkpt lat="-34.63989249430597" lon="-58.558759689331055">
        <ele>28.856243133544922</ele>
        <time>2020-02-28T12:16:13.143Z</time>
      </trkpt>
      <trkpt lat="-34.64002124033868" lon="-58.56017589569092">
        <ele>27.812118530273438</ele>
        <time>2020-02-28T12:16:14.523Z</time>
      </trkpt>
      <trkpt lat="-34.64010707102716" lon="-58.561034202575684">
        <ele>27.414369583129883</ele>
        <time>2020-02-28T12:16:15.914Z</time>
      </trkpt>
      <trkpt lat="-34.640192901715636" lon="-58.56163501739502">
        <ele>30.194820404052734</ele>
        <time>2020-02-28T12:16:17.313Z</time>
      </trkpt>
      <trkpt lat="-34.64040756225586" lon="-58.56287956237793">
        <ele>31.75489044189453</ele>
        <time>2020-02-28T12:16:18.729Z</time>
      </trkpt>
      <trkpt lat="-34.640450393781066" lon="-58.56313705444336">
        <ele>34.17561721801758</ele>
        <time>2020-02-28T12:16:20.149Z</time>
      </trkpt>
      <trkpt lat="-34.64053622446954" lon="-58.56339454650879">
        <ele>36.23521041870117</ele>
        <time>2020-02-28T12:16:21.572Z</time>
      </trkpt>
      <trkpt lat="-34.640536308288574" lon="-58.56339454650879">
        <ele>36.23450469970703</ele>
        <time>2020-02-28T12:16:22.995Z</time>
      </trkpt>
      <trkpt lat="-34.64057913981378" lon="-58.563737869262695">
        <ele>35.480628967285156</ele>
        <time>2020-02-28T12:16:24.423Z</time>
      </trkpt>
      <trkpt lat="-34.64057922363281" lon="-58.563737869262695">
        <ele>35.48012924194336</ele>
        <time>2020-02-28T12:16:25.851Z</time>
      </trkpt>
      <trkpt lat="-34.64066497050226" lon="-58.56416702270508">
        <ele>30.846546173095703</ele>
        <time>2020-02-28T12:16:27.285Z</time>
      </trkpt>
      <trkpt lat="-34.64066505432129" lon="-58.56416702270508">
        <ele>30.84604263305664</ele>
        <time>2020-02-28T12:16:28.719Z</time>
      </trkpt>
      <trkpt lat="-34.640707885846496" lon="-58.56429576873779">
        <ele>29.35334014892578</ele>
        <time>2020-02-28T12:16:30.155Z</time>
      </trkpt>
      <trkpt lat="-34.640750801190734" lon="-58.564510345458984">
        <ele>30.428613662719727</ele>
        <time>2020-02-28T12:16:31.594Z</time>
      </trkpt>
      <trkpt lat="-34.64087954722345" lon="-58.56541156768799">
        <ele>34.25586700439453</ele>
        <time>2020-02-28T12:16:33.045Z</time>
      </trkpt>
      <trkpt lat="-34.64083663187921" lon="-58.56584072113037">
        <ele>33.71430969238281</ele>
        <time>2020-02-28T12:16:34.501Z</time>
      </trkpt>
      <trkpt lat="-34.64087954722345" lon="-58.565969467163086">
        <ele>33.611328125</ele>
        <time>2020-02-28T12:16:35.959Z</time>
      </trkpt>
      <trkpt lat="-34.64087963104248" lon="-58.5660982131958">
        <ele>32.88410568237305</ele>
        <time>2020-02-28T12:16:37.419Z</time>
      </trkpt>
      <trkpt lat="-34.6410512086004" lon="-58.567214012145996">
        <ele>28.722700119018555</ele>
        <time>2020-02-28T12:16:38.894Z</time>
      </trkpt>
      <trkpt lat="-34.64109420776367" lon="-58.56734275817871">
        <ele>28.516639709472656</ele>
        <time>2020-02-28T12:16:40.371Z</time>
      </trkpt>
      <trkpt lat="-34.64109412394464" lon="-58.56734275817871">
        <ele>28.516740798950195</ele>
        <time>2020-02-28T12:16:41.848Z</time>
      </trkpt>
      <trkpt lat="-34.64130870066583" lon="-58.56880187988281">
        <ele>29.0170955657959</ele>
        <time>2020-02-28T12:16:43.344Z</time>
      </trkpt>
      <trkpt lat="-34.641437446698546" lon="-58.5695743560791">
        <ele>27.935808181762695</ele>
        <time>2020-02-28T12:16:44.851Z</time>
      </trkpt>
      <trkpt lat="-34.641523361206055" lon="-58.570261001586914">
        <ele>26.80353546142578</ele>
        <time>2020-02-28T12:16:46.367Z</time>
      </trkpt>
      <trkpt lat="-34.64152327738702" lon="-58.570261001586914">
        <ele>26.80303192138672</ele>
        <time>2020-02-28T12:16:47.883Z</time>
      </trkpt>
      <trkpt lat="-34.64156619273126" lon="-58.57038974761963">
        <ele>26.751543045043945</ele>
        <time>2020-02-28T12:16:49.401Z</time>
      </trkpt>
      <trkpt lat="-34.64178076945245" lon="-58.571720123291016">
        <ele>25.15015983581543</ele>
        <time>2020-02-28T12:16:50.937Z</time>
      </trkpt>
      <trkpt lat="-34.64186668395996" lon="-58.57232093811035">
        <ele>27.28278923034668</ele>
        <time>2020-02-28T12:16:52.481Z</time>
      </trkpt>
      <trkpt lat="-34.64186660014093" lon="-58.57232093811035">
        <ele>27.28278923034668</ele>
        <time>2020-02-28T12:16:54.025Z</time>
      </trkpt>
      <trkpt lat="-34.64190951548517" lon="-58.57262134552002">
        <ele>28.522193908691406</ele>
        <time>2020-02-28T12:16:55.573Z</time>
      </trkpt>
      <trkpt lat="-34.641995346173644" lon="-58.57317924499512">
        <ele>27.09852409362793</ele>
        <time>2020-02-28T12:16:57.128Z</time>
      </trkpt>
      <trkpt lat="-34.642252838239074" lon="-58.57463836669922">
        <ele>25.524324417114258</ele>
        <time>2020-02-28T12:16:58.703Z</time>
      </trkpt>
      <trkpt lat="-34.64238166809082" lon="-58.57566833496094">
        <ele>26.569822311401367</ele>
        <time>2020-02-28T12:17:00.292Z</time>
      </trkpt>
      <trkpt lat="-34.642467414960265" lon="-58.57609748840332">
        <ele>26.670547485351562</ele>
        <time>2020-02-28T12:17:01.886Z</time>
      </trkpt>
      <trkpt lat="-34.64268207550049" lon="-58.577513694763184">
        <ele>24.43950653076172</ele>
        <time>2020-02-28T12:17:03.499Z</time>
      </trkpt>
      <trkpt lat="-34.64268199168146" lon="-58.57768535614014">
        <ele>24.858755111694336</ele>
        <time>2020-02-28T12:17:05.115Z</time>
      </trkpt>
      <trkpt lat="-34.64268207550049" lon="-58.57768535614014">
        <ele>24.858352661132812</ele>
        <time>2020-02-28T12:17:06.731Z</time>
      </trkpt>
      <trkpt lat="-34.642982399091125" lon="-58.57953071594238">
        <ele>28.350271224975586</ele>
        <time>2020-02-28T12:17:08.371Z</time>
      </trkpt>
      <trkpt lat="-34.64336863718927" lon="-58.58189105987549">
        <ele>26.001819610595703</ele>
        <time>2020-02-28T12:17:10.043Z</time>
      </trkpt>
      <trkpt lat="-34.6433687210083" lon="-58.58189105987549">
        <ele>26.002120971679688</ele>
        <time>2020-02-28T12:17:11.715Z</time>
      </trkpt>
      <trkpt lat="-34.64358321391046" lon="-58.58335018157959">
        <ele>29.1964168548584</ele>
        <time>2020-02-28T12:17:13.407Z</time>
      </trkpt>
      <trkpt lat="-34.64358329772949" lon="-58.58335018157959">
        <ele>29.1964168548584</ele>
        <time>2020-02-28T12:17:15.099Z</time>
      </trkpt>
      <trkpt lat="-34.643711959943175" lon="-58.58412265777588">
        <ele>29.026262283325195</ele>
        <time>2020-02-28T12:17:16.801Z</time>
      </trkpt>
      <trkpt lat="-34.64384070597589" lon="-58.5851526260376">
        <ele>29.966156005859375</ele>
        <time>2020-02-28T12:17:18.517Z</time>
      </trkpt>
      <trkpt lat="-34.64384070597589" lon="-58.585238456726074">
        <ele>29.861726760864258</ele>
        <time>2020-02-28T12:17:20.234Z</time>
      </trkpt>
      <trkpt lat="-34.64409819804132" lon="-58.5871696472168">
        <ele>30.227642059326172</ele>
        <time>2020-02-28T12:17:21.977Z</time>
      </trkpt>
      <trkpt lat="-34.64409828186035" lon="-58.5871696472168">
        <ele>30.227642059326172</ele>
        <time>2020-02-28T12:17:23.720Z</time>
      </trkpt>
      <trkpt lat="-34.644227027893066" lon="-58.58811378479004">
        <ele>31.594776153564453</ele>
        <time>2020-02-28T12:17:25.476Z</time>
      </trkpt>
      <trkpt lat="-34.644269943237305" lon="-58.588242530822754">
        <ele>32.367122650146484</ele>
        <time>2020-02-28T12:17:27.233Z</time>
      </trkpt>
      <trkpt lat="-34.644441520795226" lon="-58.58935832977295">
        <ele>29.134891510009766</ele>
        <time>2020-02-28T12:17:29.005Z</time>
      </trkpt>
      <trkpt lat="-34.6445273514837" lon="-58.59004497528076">
        <ele>31.507993698120117</ele>
        <time>2020-02-28T12:17:30.787Z</time>
      </trkpt>
      <trkpt lat="-34.64461326599121" lon="-58.59017372131348">
        <ele>31.97140121459961</ele>
        <time>2020-02-28T12:17:32.571Z</time>
      </trkpt>
      <trkpt lat="-34.64465618133545" lon="-58.59030246734619">
        <ele>31.85506248474121</ele>
        <time>2020-02-28T12:17:34.357Z</time>
      </trkpt>
      <trkpt lat="-34.64478484354913" lon="-58.59038829803467">
        <ele>31.75208282470703</ele>
        <time>2020-02-28T12:17:36.145Z</time>
      </trkpt>
      <trkpt lat="-34.64517116546631" lon="-58.59055995941162">
        <ele>31.546123504638672</ele>
        <time>2020-02-28T12:17:37.939Z</time>
      </trkpt>
      <trkpt lat="-34.645256996154785" lon="-58.59055995941162">
        <ele>31.546123504638672</ele>
        <time>2020-02-28T12:17:39.735Z</time>
      </trkpt>
      <trkpt lat="-34.64547157287598" lon="-58.590688705444336">
        <ele>31.666545867919922</ele>
        <time>2020-02-28T12:17:41.535Z</time>
      </trkpt>
      <trkpt lat="-34.645729064941406" lon="-58.59086036682129">
        <ele>32.07846450805664</ele>
        <time>2020-02-28T12:17:43.339Z</time>
      </trkpt>
      <trkpt lat="-34.64577189646661" lon="-58.59090328216553">
        <ele>32.12975311279297</ele>
        <time>2020-02-28T12:17:45.144Z</time>
      </trkpt>
      <trkpt lat="-34.64585772715509" lon="-58.59158992767334">
        <ele>31.51187515258789</ele>
        <time>2020-02-28T12:17:46.958Z</time>
      </trkpt>
      <trkpt lat="-34.64585781097412" lon="-58.59158992767334">
        <ele>31.51207733154297</ele>
        <time>2020-02-28T12:17:48.772Z</time>
      </trkpt>
      <trkpt lat="-34.64585772715509" lon="-58.591718673706055">
        <ele>31.357406616210938</ele>
        <time>2020-02-28T12:17:50.588Z</time>
      </trkpt>
      <trkpt lat="-34.645943557843566" lon="-58.592491149902344">
        <ele>30.703733444213867</ele>
        <time>2020-02-28T12:17:52.414Z</time>
      </trkpt>
      <trkpt lat="-34.645986557006836" lon="-58.59253406524658">
        <ele>30.75532341003418</ele>
        <time>2020-02-28T12:17:54.241Z</time>
      </trkpt>
      <trkpt lat="-34.645986473187804" lon="-58.5926628112793">
        <ele>30.75522232055664</ele>
        <time>2020-02-28T12:17:56.070Z</time>
      </trkpt>
      <trkpt lat="-34.64602938853204" lon="-58.593220710754395">
        <ele>31.452957153320312</ele>
        <time>2020-02-28T12:17:57.906Z</time>
      </trkpt>
      <trkpt lat="-34.64615813456476" lon="-58.593993186950684">
        <ele>32.038818359375</ele>
        <time>2020-02-28T12:17:59.753Z</time>
      </trkpt>
      <trkpt lat="-34.646201049908996" lon="-58.594722747802734">
        <ele>31.12856674194336</ele>
        <time>2020-02-28T12:18:01.609Z</time>
      </trkpt>
      <trkpt lat="-34.64620113372803" lon="-58.594722747802734">
        <ele>31.128767013549805</ele>
        <time>2020-02-28T12:18:03.465Z</time>
      </trkpt>
      <trkpt lat="-34.646501457318664" lon="-58.596954345703125">
        <ele>32.12793731689453</ele>
        <time>2020-02-28T12:18:05.351Z</time>
      </trkpt>
      <trkpt lat="-34.646501541137695" lon="-58.596954345703125">
        <ele>32.12773513793945</ele>
        <time>2020-02-28T12:18:07.237Z</time>
      </trkpt>
      <trkpt lat="-34.64667311869562" lon="-58.59854221343994">
        <ele>30.517091751098633</ele>
        <time>2020-02-28T12:18:09.144Z</time>
      </trkpt>
      <trkpt lat="-34.64684478007257" lon="-58.599958419799805">
        <ele>30.030336380004883</ele>
        <time>2020-02-28T12:18:11.070Z</time>
      </trkpt>
      <trkpt lat="-34.646930610761046" lon="-58.600687980651855">
        <ele>30.28252410888672</ele>
        <time>2020-02-28T12:18:13.006Z</time>
      </trkpt>
      <trkpt lat="-34.647102272138" lon="-58.601975440979004">
        <ele>27.506725311279297</ele>
        <time>2020-02-28T12:18:14.959Z</time>
      </trkpt>
      <trkpt lat="-34.647231018170714" lon="-58.60339164733887">
        <ele>29.694135665893555</ele>
        <time>2020-02-28T12:18:16.931Z</time>
      </trkpt>
      <trkpt lat="-34.64735976420343" lon="-58.604421615600586">
        <ele>30.402896881103516</ele>
        <time>2020-02-28T12:18:18.917Z</time>
      </trkpt>
      <trkpt lat="-34.64753142558038" lon="-58.605666160583496">
        <ele>30.796010971069336</ele>
        <time>2020-02-28T12:18:20.920Z</time>
      </trkpt>
      <trkpt lat="-34.647531509399414" lon="-58.605666160583496">
        <ele>30.79621124267578</ele>
        <time>2020-02-28T12:18:22.923Z</time>
      </trkpt>
      <trkpt lat="-34.647703086957335" lon="-58.60703945159912">
        <ele>30.403661727905273</ele>
        <time>2020-02-28T12:18:24.944Z</time>
      </trkpt>
      <trkpt lat="-34.64778891764581" lon="-58.60789775848389">
        <ele>30.420175552368164</ele>
        <time>2020-02-28T12:18:26.976Z</time>
      </trkpt>
      <trkpt lat="-34.64817515574396" lon="-58.6094856262207">
        <ele>28.839109420776367</ele>
        <time>2020-02-28T12:18:29.030Z</time>
      </trkpt>
      <trkpt lat="-34.648218071088195" lon="-58.60952854156494">
        <ele>28.78761863708496</ele>
        <time>2020-02-28T12:18:31.085Z</time>
      </trkpt>
      <trkpt lat="-34.64838973246515" lon="-58.610215187072754">
        <ele>26.91596031188965</ele>
        <time>2020-02-28T12:18:33.150Z</time>
      </trkpt>
      <trkpt lat="-34.648432647809386" lon="-58.610472679138184">
        <ele>27.070430755615234</ele>
        <time>2020-02-28T12:18:35.218Z</time>
      </trkpt>
      <trkpt lat="-34.6485613938421" lon="-58.61098766326904">
        <ele>27.88910675048828</ele>
        <time>2020-02-28T12:18:37.293Z</time>
      </trkpt>
      <trkpt lat="-34.64860430918634" lon="-58.611202239990234">
        <ele>28.220483779907227</ele>
        <time>2020-02-28T12:18:39.371Z</time>
      </trkpt>
      <trkpt lat="-34.64881888590753" lon="-58.61201763153076">
        <ele>28.539344787597656</ele>
        <time>2020-02-28T12:18:41.460Z</time>
      </trkpt>
      <trkpt lat="-34.648947631940246" lon="-58.61248970031738">
        <ele>28.07593536376953</ele>
        <time>2020-02-28T12:18:43.556Z</time>
      </trkpt>
      <trkpt lat="-34.649291038513184" lon="-58.61399173736572">
        <ele>26.992595672607422</ele>
        <time>2020-02-28T12:18:45.672Z</time>
      </trkpt>
      <trkpt lat="-34.64929095469415" lon="-58.61502170562744">
        <ele>23.984601974487305</ele>
        <time>2020-02-28T12:18:47.802Z</time>
      </trkpt>
      <trkpt lat="-34.64929095469415" lon="-58.61613750457764">
        <ele>25.719940185546875</ele>
        <time>2020-02-28T12:18:49.947Z</time>
      </trkpt>
      <trkpt lat="-34.649291038513184" lon="-58.61733913421631">
        <ele>24.57659149169922</ele>
        <time>2020-02-28T12:18:52.108Z</time>
      </trkpt>
      <trkpt lat="-34.649248039349914" lon="-58.61849784851074">
        <ele>26.952861785888672</ele>
        <time>2020-02-28T12:18:54.284Z</time>
      </trkpt>
      <trkpt lat="-34.649248039349914" lon="-58.619141578674316">
        <ele>26.85004425048828</ele>
        <time>2020-02-28T12:18:56.468Z</time>
      </trkpt>
      <trkpt lat="-34.649248123168945" lon="-58.619141578674316">
        <ele>26.850547790527344</ele>
        <time>2020-02-28T12:18:58.652Z</time>
      </trkpt>
      <trkpt lat="-34.649248123168945" lon="-58.61982822418213">
        <ele>25.77281379699707</ele>
        <time>2020-02-28T12:19:00.845Z</time>
      </trkpt>
      <trkpt lat="-34.649205124005675" lon="-58.62107276916504">
        <ele>28.955516815185547</ele>
        <time>2020-02-28T12:19:03.055Z</time>
      </trkpt>
      <trkpt lat="-34.649205124005675" lon="-58.62261772155762">
        <ele>29.100542068481445</ele>
        <time>2020-02-28T12:19:05.285Z</time>
      </trkpt>
      <trkpt lat="-34.64920520782471" lon="-58.62261772155762">
        <ele>29.10084342956543</ele>
        <time>2020-02-28T12:19:07.515Z</time>
      </trkpt>
      <trkpt lat="-34.65040675364435" lon="-58.622660636901855">
        <ele>33.765296936035156</ele>
        <time>2020-02-28T12:19:09.765Z</time>
      </trkpt>
      <trkpt lat="-34.65040683746338" lon="-58.622660636901855">
        <ele>33.764896392822266</ele>
        <time>2020-02-28T12:19:12.015Z</time>
      </trkpt>
      <trkpt lat="-34.65083590708673" lon="-58.622660636901855">
        <ele>31.705703735351562</ele>
        <time>2020-02-28T12:19:14.271Z</time>
      </trkpt>
      <trkpt lat="-34.65100756846368" lon="-58.622660636901855">
        <ele>30.881866455078125</ele>
        <time>2020-02-28T12:19:16.530Z</time>
      </trkpt>
      <trkpt lat="-34.65160838328302" lon="-58.622703552246094">
        <ele>29.980239868164062</ele>
        <time>2020-02-28T12:19:18.799Z</time>
      </trkpt>
      <trkpt lat="-34.65160838328302" lon="-58.624205589294434">
        <ele>26.82033920288086</ele>
        <time>2020-02-28T12:19:21.088Z</time>
      </trkpt>
      <trkpt lat="-34.65160846710205" lon="-58.624205589294434">
        <ele>26.819936752319336</ele>
        <time>2020-02-28T12:19:23.377Z</time>
      </trkpt>
      <trkpt lat="-34.65160838328302" lon="-58.62532138824463">
        <ele>27.676376342773438</ele>
        <time>2020-02-28T12:19:25.680Z</time>
      </trkpt>
      <trkpt lat="-34.65160846710205" lon="-58.62532138824463">
        <ele>27.675771713256836</ele>
        <time>2020-02-28T12:19:27.983Z</time>
      </trkpt>
      <trkpt lat="-34.65156546793878" lon="-58.626437187194824">
        <ele>22.705020904541016</ele>
        <time>2020-02-28T12:19:30.301Z</time>
      </trkpt>
      <trkpt lat="-34.65156546793878" lon="-58.62759590148926">
        <ele>23.118602752685547</ele>
        <time>2020-02-28T12:19:32.634Z</time>
      </trkpt>
      <trkpt lat="-34.651522636413574" lon="-58.62871170043945">
        <ele>21.96419906616211</ele>
        <time>2020-02-28T12:19:34.982Z</time>
      </trkpt>
      <trkpt lat="-34.65152255259454" lon="-58.62935543060303">
        <ele>21.79345703125</ele>
        <time>2020-02-28T12:19:37.339Z</time>
      </trkpt>
      <trkpt lat="-34.651522636413574" lon="-58.62935543060303">
        <ele>21.793657302856445</ele>
        <time>2020-02-28T12:19:39.696Z</time>
      </trkpt>
      <trkpt lat="-34.65014934539795" lon="-58.62896919250488">
        <ele>26.850900650024414</ele>
        <time>2020-02-28T12:19:42.075Z</time>
      </trkpt>
      <trkpt lat="-34.65010634623468" lon="-58.62901210784912">
        <ele>26.644941329956055</ele>
        <time>2020-02-28T12:19:44.455Z</time>
      </trkpt>
      <trkpt lat="-34.65014926157892" lon="-58.63004207611084">
        <ele>21.64904022216797</ele>
        <time>2020-02-28T12:19:46.849Z</time>
      </trkpt>
      <trkpt lat="-34.65014934539795" lon="-58.63107204437256">
        <ele>21.440048217773438</ele>
        <time>2020-02-28T12:19:49.256Z</time>
      </trkpt>
      <trkpt lat="-34.65014926157892" lon="-58.63107204437256">
        <ele>21.440250396728516</ele>
        <time>2020-02-28T12:19:51.663Z</time>
      </trkpt>
      <trkpt lat="-34.650192176923156" lon="-58.63261699676514">
        <ele>23.715137481689453</ele>
        <time>2020-02-28T12:19:54.091Z</time>
      </trkpt>
      <trkpt lat="-34.65105048380792" lon="-58.63278865814209">
        <ele>24.95089340209961</ele>
        <time>2020-02-28T12:19:56.533Z</time>
      </trkpt>
      <trkpt lat="-34.65087882243097" lon="-58.634033203125">
        <ele>24.87519073486328</ele>
        <time>2020-02-28T12:19:58.991Z</time>
      </trkpt>
      <trkpt lat="-34.65066424570978" lon="-58.63523483276367">
        <ele>24.945209503173828</ele>
        <time>2020-02-28T12:20:01.465Z</time>
      </trkpt>
      <trkpt lat="-34.65066432952881" lon="-58.63523483276367">
        <ele>24.945209503173828</ele>
        <time>2020-02-28T12:20:03.939Z</time>
      </trkpt>
      <trkpt lat="-34.650492668151855" lon="-58.636393547058105">
        <ele>26.44501495361328</ele>
        <time>2020-02-28T12:20:06.429Z</time>
      </trkpt>
      <trkpt lat="-34.65079307556152" lon="-58.63755226135254">
        <ele>28.148298263549805</ele>
        <time>2020-02-28T12:20:08.935Z</time>
      </trkpt>
      <trkpt lat="-34.651007652282715" lon="-58.63832473754883">
        <ele>28.220365524291992</ele>
        <time>2020-02-28T12:20:11.452Z</time>
      </trkpt>
      <trkpt lat="-34.65178004465997" lon="-58.64047050476074">
        <ele>26.673099517822266</ele>
        <time>2020-02-28T12:20:14.000Z</time>
      </trkpt>
      <trkpt lat="-34.65190879069269" lon="-58.64072799682617">
        <ele>27.290977478027344</ele>
        <time>2020-02-28T12:20:16.552Z</time>
      </trkpt>
      <trkpt lat="-34.65190887451172" lon="-58.64072799682617">
        <ele>27.290977478027344</ele>
        <time>2020-02-28T12:20:19.104Z</time>
      </trkpt>
      <trkpt lat="-34.651994621381164" lon="-58.64094257354736">
        <ele>27.805875778198242</ele>
        <time>2020-02-28T12:20:21.659Z</time>
      </trkpt>
      <trkpt lat="-34.65225211344659" lon="-58.64184379577637">
        <ele>29.695709228515625</ele>
        <time>2020-02-28T12:20:24.226Z</time>
      </trkpt>
      <trkpt lat="-34.652509689331055" lon="-58.642616271972656">
        <ele>27.266876220703125</ele>
        <time>2020-02-28T12:20:26.804Z</time>
      </trkpt>
      <trkpt lat="-34.65281001292169" lon="-58.64270210266113">
        <ele>26.985979080200195</ele>
        <time>2020-02-28T12:20:29.387Z</time>
      </trkpt>
      <trkpt lat="-34.65388298034668" lon="-58.64295959472656">
        <ele>30.26057243347168</ele>
        <time>2020-02-28T12:20:31.988Z</time>
      </trkpt>
      <trkpt lat="-34.65414038859308" lon="-58.64381790161133">
        <ele>28.185535430908203</ele>
        <time>2020-02-28T12:20:34.601Z</time>
      </trkpt>
      <trkpt lat="-34.65439788065851" lon="-58.64459037780762">
        <ele>27.87319564819336</ele>
        <time>2020-02-28T12:20:37.225Z</time>
      </trkpt>
      <trkpt lat="-34.654698288068175" lon="-58.645663261413574">
        <ele>27.0</ele>
        <time>2020-02-28T12:20:39.864Z</time>
      </trkpt>
      <trkpt lat="-34.65469837188721" lon="-58.645663261413574">
        <ele>27.0</ele>
        <time>2020-02-28T12:20:42.503Z</time>
      </trkpt>
      <trkpt lat="-34.65508452616632" lon="-58.64682197570801">
        <ele>27.770179748535156</ele>
        <time>2020-02-28T12:20:45.158Z</time>
      </trkpt>
      <trkpt lat="-34.65538493357599" lon="-58.647637367248535">
        <ele>29.903854370117188</ele>
        <time>2020-02-28T12:20:47.825Z</time>
      </trkpt>
      <trkpt lat="-34.65564242564142" lon="-58.6484956741333">
        <ele>29.03485107421875</ele>
        <time>2020-02-28T12:20:50.504Z</time>
      </trkpt>
      <trkpt lat="-34.65564250946045" lon="-58.6484956741333">
        <ele>29.03485107421875</ele>
        <time>2020-02-28T12:20:53.183Z</time>
      </trkpt>
      <trkpt lat="-34.65585700236261" lon="-58.64926815032959">
        <ele>28.402114868164062</ele>
        <time>2020-02-28T12:20:55.873Z</time>
      </trkpt>
      <trkpt lat="-34.65624324046075" lon="-58.65029811859131">
        <ele>27.127721786499023</ele>
        <time>2020-02-28T12:20:58.578Z</time>
      </trkpt>
      <trkpt lat="-34.655771255493164" lon="-58.652615547180176">
        <ele>26.6068115234375</ele>
        <time>2020-02-28T12:21:01.314Z</time>
      </trkpt>
      <trkpt lat="-34.655728256329894" lon="-58.652873039245605">
        <ele>26.669755935668945</ele>
        <time>2020-02-28T12:21:04.054Z</time>
      </trkpt>
      <trkpt lat="-34.655728340148926" lon="-58.65317344665527">
        <ele>26.401405334472656</ele>
        <time>2020-02-28T12:21:06.798Z</time>
      </trkpt>
      <trkpt lat="-34.656243324279785" lon="-58.654847145080566">
        <ele>29.866823196411133</ele>
        <time>2020-02-28T12:21:09.565Z</time>
      </trkpt>
      <trkpt lat="-34.65628615580499" lon="-58.655104637145996">
        <ele>31.36012840270996</ele>
        <time>2020-02-28T12:21:12.336Z</time>
      </trkpt>
      <trkpt lat="-34.65632907114923" lon="-58.655147552490234">
        <ele>31.56608772277832</ele>
        <time>2020-02-28T12:21:15.108Z</time>
      </trkpt>
      <trkpt lat="-34.65654364787042" lon="-58.65579128265381">
        <ele>30.43813705444336</ele>
        <time>2020-02-28T12:21:17.889Z</time>
      </trkpt>
      <trkpt lat="-34.656672393903136" lon="-58.65622043609619">
        <ele>30.080936431884766</ele>
        <time>2020-02-28T12:21:20.676Z</time>
      </trkpt>
      <trkpt lat="-34.65735912322998" lon="-58.658409118652344">
        <ele>28.459169387817383</ele>
        <time>2020-02-28T12:21:23.494Z</time>
      </trkpt>
      <trkpt lat="-34.65735903941095" lon="-58.658409118652344">
        <ele>28.459270477294922</ele>
        <time>2020-02-28T12:21:26.312Z</time>
      </trkpt>
      <trkpt lat="-34.65770244598389" lon="-58.6594820022583">
        <ele>30.518957138061523</ele>
        <time>2020-02-28T12:21:29.145Z</time>
      </trkpt>
      <trkpt lat="-34.657702362164855" lon="-58.6594820022583">
        <ele>30.518857955932617</ele>
        <time>2020-02-28T12:21:31.978Z</time>
      </trkpt>
      <trkpt lat="-34.658002853393555" lon="-58.66042613983154">
        <ele>29.131263732910156</ele>
        <time>2020-02-28T12:21:34.824Z</time>
      </trkpt>
      <trkpt lat="-34.65830317698419" lon="-58.66145610809326">
        <ele>28.101064682006836</ele>
        <time>2020-02-28T12:21:37.685Z</time>
      </trkpt>
      <trkpt lat="-34.65877524577081" lon="-58.662872314453125">
        <ele>29.2300968170166</ele>
        <time>2020-02-28T12:21:40.566Z</time>
      </trkpt>
      <trkpt lat="-34.659204399213195" lon="-58.66424560546875">
        <ele>29.52399253845215</ele>
        <time>2020-02-28T12:21:43.466Z</time>
      </trkpt>
      <trkpt lat="-34.659204399213195" lon="-58.66433143615723">
        <ele>29.42101287841797</ele>
        <time>2020-02-28T12:21:46.367Z</time>
      </trkpt>
      <trkpt lat="-34.659504890441895" lon="-58.66518974304199">
        <ele>30.020071029663086</ele>
        <time>2020-02-28T12:21:49.281Z</time>
      </trkpt>
      <trkpt lat="-34.65976229868829" lon="-58.665618896484375">
        <ele>30.226131439208984</ele>
        <time>2020-02-28T12:21:52.202Z</time>
      </trkpt>
      <trkpt lat="-34.660234367474914" lon="-58.66703510284424">
        <ele>29.476112365722656</ele>
        <time>2020-02-28T12:21:55.143Z</time>
      </trkpt>
      <trkpt lat="-34.660234367474914" lon="-58.667120933532715">
        <ele>29.785051345825195</ele>
        <time>2020-02-28T12:21:58.085Z</time>
      </trkpt>
      <trkpt lat="-34.660277366638184" lon="-58.667593002319336">
        <ele>31.53580665588379</ele>
        <time>2020-02-28T12:22:01.033Z</time>
      </trkpt>
      <trkpt lat="-34.66057769022882" lon="-58.668580055236816">
        <ele>31.0</ele>
        <time>2020-02-28T12:22:03.995Z</time>
      </trkpt>
      <trkpt lat="-34.660663520917296" lon="-58.66896629333496">
        <ele>30.838947296142578</ele>
        <time>2020-02-28T12:22:06.962Z</time>
      </trkpt>
      <trkpt lat="-34.661006927490234" lon="-58.66999626159668">
        <ele>31.538318634033203</ele>
        <time>2020-02-28T12:22:09.944Z</time>
      </trkpt>
      <trkpt lat="-34.6610068436712" lon="-58.66999626159668">
        <ele>31.538217544555664</ele>
        <time>2020-02-28T12:22:12.926Z</time>
      </trkpt>
      <trkpt lat="-34.66126433573663" lon="-58.670854568481445">
        <ele>30.588504791259766</ele>
        <time>2020-02-28T12:22:15.920Z</time>
      </trkpt>
      <trkpt lat="-34.661435997113585" lon="-58.67141246795654">
        <ele>30.629873275756836</ele>
        <time>2020-02-28T12:22:18.922Z</time>
      </trkpt>
      <trkpt lat="-34.66165057383478" lon="-58.672142028808594">
        <ele>31.45098876953125</ele>
        <time>2020-02-28T12:22:21.934Z</time>
      </trkpt>
      <trkpt lat="-34.66190806590021" lon="-58.672828674316406">
        <ele>30.822284698486328</ele>
        <time>2020-02-28T12:22:24.956Z</time>
      </trkpt>
      <trkpt lat="-34.66229430399835" lon="-58.67428779602051">
        <ele>29.58917808532715</ele>
        <time>2020-02-28T12:22:27.998Z</time>
      </trkpt>
      <trkpt lat="-34.66255179606378" lon="-58.67514610290527">
        <ele>30.630298614501953</ele>
        <time>2020-02-28T12:22:31.052Z</time>
      </trkpt>
      <trkpt lat="-34.662766456604004" lon="-58.67604732513428">
        <ele>30.866228103637695</ele>
        <time>2020-02-28T12:22:34.119Z</time>
      </trkpt>
      <trkpt lat="-34.66289520263672" lon="-58.67669105529785">
        <ele>30.12139892578125</ele>
        <time>2020-02-28T12:22:37.195Z</time>
      </trkpt>
      <trkpt lat="-34.66289511881769" lon="-58.67669105529785">
        <ele>30.121599197387695</ele>
        <time>2020-02-28T12:22:40.271Z</time>
      </trkpt>
      <trkpt lat="-34.663195526227355" lon="-58.67827892303467">
        <ele>28.097434997558594</ele>
        <time>2020-02-28T12:22:43.368Z</time>
      </trkpt>
      <trkpt lat="-34.66323844157159" lon="-58.67866516113281">
        <ele>27.254228591918945</ele>
        <time>2020-02-28T12:22:46.470Z</time>
      </trkpt>
      <trkpt lat="-34.66341018676758" lon="-58.67990970611572">
        <ele>27.363710403442383</ele>
        <time>2020-02-28T12:22:49.589Z</time>
      </trkpt>
      <trkpt lat="-34.663410102948546" lon="-58.67990970611572">
        <ele>27.364011764526367</ele>
        <time>2020-02-28T12:22:52.708Z</time>
      </trkpt>
      <trkpt lat="-34.6635817643255" lon="-58.68141174316406">
        <ele>26.507492065429688</ele>
        <time>2020-02-28T12:22:55.847Z</time>
      </trkpt>
      <trkpt lat="-34.66362467966974" lon="-58.68166923522949">
        <ele>27.38282012939453</ele>
        <time>2020-02-28T12:22:58.989Z</time>
      </trkpt>
      <trkpt lat="-34.66379634104669" lon="-58.68295669555664">
        <ele>25.0</ele>
        <time>2020-02-28T12:23:02.149Z</time>
      </trkpt>
      <trkpt lat="-34.663968002423644" lon="-58.684372901916504">
        <ele>24.98935317993164</ele>
        <time>2020-02-28T12:23:05.327Z</time>
      </trkpt>
      <trkpt lat="-34.6641396638006" lon="-58.685832023620605">
        <ele>24.477397918701172</ele>
        <time>2020-02-28T12:23:08.525Z</time>
      </trkpt>
      <trkpt lat="-34.66439715586603" lon="-58.6875057220459">
        <ele>24.9193172454834</ele>
        <time>2020-02-28T12:23:11.745Z</time>
      </trkpt>
      <trkpt lat="-34.66439715586603" lon="-58.68763446807861">
        <ele>24.8443603515625</ele>
        <time>2020-02-28T12:23:14.967Z</time>
      </trkpt>
      <trkpt lat="-34.66461173258722" lon="-58.68913650512695">
        <ele>23.68122100830078</ele>
        <time>2020-02-28T12:23:18.209Z</time>
      </trkpt>
      <trkpt lat="-34.66482639312744" lon="-58.690853118896484">
        <ele>25.28994369506836</ele>
        <time>2020-02-28T12:23:21.474Z</time>
      </trkpt>
      <trkpt lat="-34.66482630930841" lon="-58.690853118896484">
        <ele>25.28974151611328</ele>
        <time>2020-02-28T12:23:24.739Z</time>
      </trkpt>
      <trkpt lat="-34.6650408860296" lon="-58.69252681732178">
        <ele>24.412569046020508</ele>
        <time>2020-02-28T12:23:28.026Z</time>
      </trkpt>
      <trkpt lat="-34.6647834777832" lon="-58.692827224731445">
        <ele>24.0</ele>
        <time>2020-02-28T12:23:31.319Z</time>
      </trkpt>
      <trkpt lat="-34.66478339396417" lon="-58.692827224731445">
        <ele>24.0</ele>
        <time>2020-02-28T12:23:34.612Z</time>
      </trkpt>
      <trkpt lat="-34.66469764709473" lon="-58.69295597076416">
        <ele>24.103723526000977</ele>
        <time>2020-02-28T12:23:37.907Z</time>
      </trkpt>
      <trkpt lat="-34.664955055341125" lon="-58.695359230041504">
        <ele>24.643369674682617</ele>
        <time>2020-02-28T12:23:41.234Z</time>
      </trkpt>
      <trkpt lat="-34.6650408860296" lon="-58.69673252105713">
        <ele>24.296146392822266</ele>
        <time>2020-02-28T12:23:44.579Z</time>
      </trkpt>
      <trkpt lat="-34.66512671671808" lon="-58.69724750518799">
        <ele>25.177284240722656</ele>
        <time>2020-02-28T12:23:47.931Z</time>
      </trkpt>
      <trkpt lat="-34.66529837809503" lon="-58.69840621948242">
        <ele>28.394760131835938</ele>
        <time>2020-02-28T12:23:51.299Z</time>
      </trkpt>
      <trkpt lat="-34.66555595397949" lon="-58.70046615600586">
        <ele>23.150039672851562</ele>
        <time>2020-02-28T12:23:54.694Z</time>
      </trkpt>
      <trkpt lat="-34.66555587016046" lon="-58.70046615600586">
        <ele>23.149839401245117</ele>
        <time>2020-02-28T12:23:58.089Z</time>
      </trkpt>
      <trkpt lat="-34.66564170084894" lon="-58.701066970825195">
        <ele>22.63494110107422</ele>
        <time>2020-02-28T12:24:01.493Z</time>
      </trkpt>
      <trkpt lat="-34.66589919291437" lon="-58.702569007873535">
        <ele>23.135345458984375</ele>
        <time>2020-02-28T12:24:04.917Z</time>
      </trkpt>
      <trkpt lat="-34.66611376963556" lon="-58.70411396026611">
        <ele>23.096046447753906</ele>
        <time>2020-02-28T12:24:08.361Z</time>
      </trkpt>
      <trkpt lat="-34.66632834635675" lon="-58.70565891265869">
        <ele>20.484209060668945</ele>
        <time>2020-02-28T12:24:11.826Z</time>
      </trkpt>
      <trkpt lat="-34.666414177045226" lon="-58.70651721954346">
        <ele>20.213748931884766</ele>
        <time>2020-02-28T12:24:15.303Z</time>
      </trkpt>
      <trkpt lat="-34.66654300689697" lon="-58.70724678039551">
        <ele>19.3831787109375</ele>
        <time>2020-02-28T12:24:18.789Z</time>
      </trkpt>
      <trkpt lat="-34.66632834635675" lon="-58.70866298675537">
        <ele>20.307783126831055</ele>
        <time>2020-02-28T12:24:22.294Z</time>
      </trkpt>
      <trkpt lat="-34.66607085429132" lon="-58.71012210845947">
        <ele>19.104164123535156</ele>
        <time>2020-02-28T12:24:25.819Z</time>
      </trkpt>
      <trkpt lat="-34.66585627757013" lon="-58.711538314819336">
        <ele>18.603710174560547</ele>
        <time>2020-02-28T12:24:29.363Z</time>
      </trkpt>
      <trkpt lat="-34.66564170084894" lon="-58.71299743652344">
        <ele>20.949604034423828</ele>
        <time>2020-02-28T12:24:32.927Z</time>
      </trkpt>
      <trkpt lat="-34.66564178466797" lon="-58.71299743652344">
        <ele>20.949905395507812</ele>
        <time>2020-02-28T12:24:36.491Z</time>
      </trkpt>
      <trkpt lat="-34.665427124127746" lon="-58.71445655822754">
        <ele>18.080116271972656</ele>
        <time>2020-02-28T12:24:40.074Z</time>
      </trkpt>
      <trkpt lat="-34.665212547406554" lon="-58.71591567993164">
        <ele>17.678340911865234</ele>
        <time>2020-02-28T12:24:43.677Z</time>
      </trkpt>
      <trkpt lat="-34.66499797068536" lon="-58.71737480163574">
        <ele>17.565217971801758</ele>
        <time>2020-02-28T12:24:47.299Z</time>
      </trkpt>
      <trkpt lat="-34.66478339396417" lon="-58.718833923339844">
        <ele>16.692230224609375</ele>
        <time>2020-02-28T12:24:50.941Z</time>
      </trkpt>
      <trkpt lat="-34.6647834777832" lon="-58.71909141540527">
        <ele>16.69213104248047</ele>
        <time>2020-02-28T12:24:54.586Z</time>
      </trkpt>
      <trkpt lat="-34.66461173258722" lon="-58.72025012969971">
        <ele>17.0561466217041</ele>
        <time>2020-02-28T12:24:58.247Z</time>
      </trkpt>
      <trkpt lat="-34.66435432434082" lon="-58.72175216674805">
        <ele>17.14171028137207</ele>
        <time>2020-02-28T12:25:01.928Z</time>
      </trkpt>
      <trkpt lat="-34.6641396638006" lon="-58.72325420379639">
        <ele>17.410409927368164</ele>
        <time>2020-02-28T12:25:05.629Z</time>
      </trkpt>
      <trkpt lat="-34.66413974761963" lon="-58.72325420379639">
        <ele>17.41061019897461</ele>
        <time>2020-02-28T12:25:09.330Z</time>
      </trkpt>
      <trkpt lat="-34.663925087079406" lon="-58.72462749481201">
        <ele>15.894190788269043</ele>
        <time>2020-02-28T12:25:13.050Z</time>
      </trkpt>
      <trkpt lat="-34.663925087079406" lon="-58.72475624084473">
        <ele>16.2031307220459</ele>
        <time>2020-02-28T12:25:16.771Z</time>
      </trkpt>
      <trkpt lat="-34.663710510358214" lon="-58.72608661651611">
        <ele>18.020523071289062</ele>
        <time>2020-02-28T12:25:20.510Z</time>
      </trkpt>
      <trkpt lat="-34.663667595013976" lon="-58.72621536254883">
        <ele>17.907100677490234</ele>
        <time>2020-02-28T12:25:24.251Z</time>
      </trkpt>
      <trkpt lat="-34.6635817643255" lon="-58.726773262023926">
        <ele>17.614707946777344</ele>
        <time>2020-02-28T12:25:28.000Z</time>
      </trkpt>
      <trkpt lat="-34.66349593363702" lon="-58.727545738220215">
        <ele>18.289222717285156</ele>
        <time>2020-02-28T12:25:31.759Z</time>
      </trkpt>
      <trkpt lat="-34.66328144073486" lon="-58.72883319854736">
        <ele>19.0</ele>
        <time>2020-02-28T12:25:35.535Z</time>
      </trkpt>
      <trkpt lat="-34.663968086242676" lon="-58.730506896972656">
        <ele>17.637784957885742</ele>
        <time>2020-02-28T12:25:39.336Z</time>
      </trkpt>
      <trkpt lat="-34.663710510358214" lon="-58.732051849365234">
        <ele>17.588823318481445</ele>
        <time>2020-02-28T12:25:43.158Z</time>
      </trkpt>
      <trkpt lat="-34.66349593363702" lon="-58.733510971069336">
        <ele>16.933008193969727</ele>
        <time>2020-02-28T12:25:46.999Z</time>
      </trkpt>
      <trkpt lat="-34.66336727142334" lon="-58.7343692779541">
        <ele>18.605005264282227</ele>
        <time>2020-02-28T12:25:50.852Z</time>
      </trkpt>
      <trkpt lat="-34.66328135691583" lon="-58.73497009277344">
        <ele>17.071308135986328</ele>
        <time>2020-02-28T12:25:54.713Z</time>
      </trkpt>
      <trkpt lat="-34.66328144073486" lon="-58.73497009277344">
        <ele>17.071409225463867</ele>
        <time>2020-02-28T12:25:58.574Z</time>
      </trkpt>
      <trkpt lat="-34.6630238648504" lon="-58.73647212982178">
        <ele>17.0</ele>
        <time>2020-02-28T12:26:02.455Z</time>
      </trkpt>
      <trkpt lat="-34.66280937194824" lon="-58.73797416687012">
        <ele>19.557228088378906</ele>
        <time>2020-02-28T12:26:06.356Z</time>
      </trkpt>
      <trkpt lat="-34.66280928812921" lon="-58.73810291290283">
        <ele>19.402557373046875</ele>
        <time>2020-02-28T12:26:10.259Z</time>
      </trkpt>
      <trkpt lat="-34.66276637278497" lon="-58.738274574279785">
        <ele>19.093618392944336</ele>
        <time>2020-02-28T12:26:14.164Z</time>
      </trkpt>
      <trkpt lat="-34.66263771057129" lon="-58.73917579650879">
        <ele>16.443891525268555</ele>
        <time>2020-02-28T12:26:18.081Z</time>
      </trkpt>
      <trkpt lat="-34.66263762675226" lon="-58.73917579650879">
        <ele>16.44379234313965</ele>
        <time>2020-02-28T12:26:21.998Z</time>
      </trkpt>
      <trkpt lat="-34.66190814971924" lon="-58.74256610870361">
        <ele>14.0543851852417</ele>
        <time>2020-02-28T12:26:25.962Z</time>
      </trkpt>
      <trkpt lat="-34.66160774230957" lon="-58.74458312988281">
        <ele>15.991105079650879</ele>
        <time>2020-02-28T12:26:29.953Z</time>
      </trkpt>
      <trkpt lat="-34.66160765849054" lon="-58.74458312988281">
        <ele>15.990803718566895</ele>
        <time>2020-02-28T12:26:33.944Z</time>
      </trkpt>
      <trkpt lat="-34.6615647431463" lon="-58.74488353729248">
        <ele>15.280754089355469</ele>
        <time>2020-02-28T12:26:37.939Z</time>
      </trkpt>
      <trkpt lat="-34.66152182780206" lon="-58.74509811401367">
        <ele>14.92032527923584</ele>
        <time>2020-02-28T12:26:41.937Z</time>
      </trkpt>
      <trkpt lat="-34.661478996276855" lon="-58.74539852142334">
        <ele>14.457118034362793</ele>
        <time>2020-02-28T12:26:45.939Z</time>
      </trkpt>
      <trkpt lat="-34.661478912457824" lon="-58.74539852142334">
        <ele>14.456916809082031</ele>
        <time>2020-02-28T12:26:49.941Z</time>
      </trkpt>
      <trkpt lat="-34.66130725108087" lon="-58.74660015106201">
        <ele>12.615991592407227</ele>
        <time>2020-02-28T12:26:53.959Z</time>
      </trkpt>
      <trkpt lat="-34.661221420392394" lon="-58.747243881225586">
        <ele>16.750459671020508</ele>
        <time>2020-02-28T12:26:57.985Z</time>
      </trkpt>
      <trkpt lat="-34.6610068436712" lon="-58.74861717224121">
        <ele>16.17389678955078</ele>
        <time>2020-02-28T12:27:02.030Z</time>
      </trkpt>
      <trkpt lat="-34.66092109680176" lon="-58.749260902404785">
        <ele>14.252099990844727</ele>
        <time>2020-02-28T12:27:06.083Z</time>
      </trkpt>
      <trkpt lat="-34.66079226695001" lon="-58.749990463256836">
        <ele>11.487957000732422</ele>
        <time>2020-02-28T12:27:10.146Z</time>
      </trkpt>
      <trkpt lat="-34.66057769022882" lon="-58.751277923583984">
        <ele>13.0</ele>
        <time>2020-02-28T12:27:14.226Z</time>
      </trkpt>
      <trkpt lat="-34.66014853678644" lon="-58.753981590270996">
        <ele>15.72597885131836</ele>
        <time>2020-02-28T12:27:18.343Z</time>
      </trkpt>
      <trkpt lat="-34.66006270609796" lon="-58.75441074371338">
        <ele>16.34034538269043</ele>
        <time>2020-02-28T12:27:22.466Z</time>
      </trkpt>
      <trkpt lat="-34.65980529785156" lon="-58.75518321990967">
        <ele>14.454424858093262</ele>
        <time>2020-02-28T12:27:26.600Z</time>
      </trkpt>
      <trkpt lat="-34.659461975097656" lon="-58.75565528869629">
        <ele>13.394227981567383</ele>
        <time>2020-02-28T12:27:30.742Z</time>
      </trkpt>
      <trkpt lat="-34.65916156768799" lon="-58.755998611450195">
        <ele>13.696368217468262</ele>
        <time>2020-02-28T12:27:34.891Z</time>
      </trkpt>
      <trkpt lat="-34.65886116027832" lon="-58.75638484954834">
        <ele>16.208311080932617</ele>
        <time>2020-02-28T12:27:39.047Z</time>
      </trkpt>
      <trkpt lat="-34.65886107645929" lon="-58.75638484954834">
        <ele>16.208412170410156</ele>
        <time>2020-02-28T12:27:43.203Z</time>
      </trkpt>
      <trkpt lat="-34.658517837524414" lon="-58.75681400299072">
        <ele>16.80426025390625</ele>
        <time>2020-02-28T12:27:47.366Z</time>
      </trkpt>
      <trkpt lat="-34.65834609232843" lon="-58.75715732574463">
        <ele>16.168588638305664</ele>
        <time>2020-02-28T12:27:51.535Z</time>
      </trkpt>
      <trkpt lat="-34.65830317698419" lon="-58.75720024108887">
        <ele>16.065608978271484</ele>
        <time>2020-02-28T12:27:55.705Z</time>
      </trkpt>
      <trkpt lat="-34.657916938886046" lon="-58.75840187072754">
        <ele>17.76120948791504</ele>
        <time>2020-02-28T12:27:59.892Z</time>
      </trkpt>
      <trkpt lat="-34.6575307007879" lon="-58.75964641571045">
        <ele>16.817962646484375</ele>
        <time>2020-02-28T12:28:04.096Z</time>
      </trkpt>
      <trkpt lat="-34.657230293378234" lon="-58.76063346862793">
        <ele>16.244754791259766</ele>
        <time>2020-02-28T12:28:08.314Z</time>
      </trkpt>
      <trkpt lat="-34.656972801312804" lon="-58.76170635223389">
        <ele>16.731943130493164</ele>
        <time>2020-02-28T12:28:12.547Z</time>
      </trkpt>
      <trkpt lat="-34.656672393903136" lon="-58.762736320495605">
        <ele>16.96891975402832</ele>
        <time>2020-02-28T12:28:16.794Z</time>
      </trkpt>
      <trkpt lat="-34.6563720703125" lon="-58.7638521194458">
        <ele>15.784136772155762</ele>
        <time>2020-02-28T12:28:21.057Z</time>
      </trkpt>
      <trkpt lat="-34.65637198649347" lon="-58.7638521194458">
        <ele>15.7842378616333</ele>
        <time>2020-02-28T12:28:25.320Z</time>
      </trkpt>
      <trkpt lat="-34.65589991770685" lon="-58.76543998718262">
        <ele>16.374435424804688</ele>
        <time>2020-02-28T12:28:29.605Z</time>
      </trkpt>
      <trkpt lat="-34.65559951029718" lon="-58.76659870147705">
        <ele>16.0</ele>
        <time>2020-02-28T12:28:33.906Z</time>
      </trkpt>
      <trkpt lat="-34.65555659495294" lon="-58.766727447509766">
        <ele>16.0</ele>
        <time>2020-02-28T12:28:38.209Z</time>
      </trkpt>
      <trkpt lat="-34.655427848920226" lon="-58.76715660095215">
        <ele>16.586078643798828</ele>
        <time>2020-02-28T12:28:42.518Z</time>
      </trkpt>
      <trkpt lat="-34.655213356018066" lon="-58.76792907714844">
        <ele>18.958799362182617</ele>
        <time>2020-02-28T12:28:46.838Z</time>
      </trkpt>
      <trkpt lat="-34.655213272199035" lon="-58.76792907714844">
        <ele>18.95920181274414</ele>
        <time>2020-02-28T12:28:51.158Z</time>
      </trkpt>
      <trkpt lat="-34.654955780133605" lon="-58.76887321472168">
        <ele>23.7447452545166</ele>
        <time>2020-02-28T12:28:55.491Z</time>
      </trkpt>
      <trkpt lat="-34.65486994944513" lon="-58.76917362213135">
        <ele>23.66824722290039</ele>
        <time>2020-02-28T12:28:59.828Z</time>
      </trkpt>
      <trkpt lat="-34.654698288068175" lon="-58.76986026763916">
        <ele>23.01258087158203</ele>
        <time>2020-02-28T12:29:04.174Z</time>
      </trkpt>
      <trkpt lat="-34.65452662669122" lon="-58.770461082458496">
        <ele>24.48094940185547</ele>
        <time>2020-02-28T12:29:08.529Z</time>
      </trkpt>
      <trkpt lat="-34.65439788065851" lon="-58.77093315124512">
        <ele>26.319530487060547</ele>
        <time>2020-02-28T12:29:12.890Z</time>
      </trkpt>
      <trkpt lat="-34.6540545579046" lon="-58.77213478088379">
        <ele>18.823442459106445</ele>
        <time>2020-02-28T12:29:17.268Z</time>
      </trkpt>
      <trkpt lat="-34.65371131896973" lon="-58.77333641052246">
        <ele>18.521629333496094</ele>
        <time>2020-02-28T12:29:21.663Z</time>
      </trkpt>
      <trkpt lat="-34.653711235150695" lon="-58.77333641052246">
        <ele>18.521528244018555</ele>
        <time>2020-02-28T12:29:26.058Z</time>
      </trkpt>
      <trkpt lat="-34.65319633483887" lon="-58.775010108947754">
        <ele>23.511640548706055</ele>
        <time>2020-02-28T12:29:30.477Z</time>
      </trkpt>
      <trkpt lat="-34.653196251019835" lon="-58.775010108947754">
        <ele>23.51194190979004</ele>
        <time>2020-02-28T12:29:34.896Z</time>
      </trkpt>
      <trkpt lat="-34.65285292826593" lon="-58.776254653930664">
        <ele>22.768835067749023</ele>
        <time>2020-02-28T12:29:39.332Z</time>
      </trkpt>
      <trkpt lat="-34.6525954362005" lon="-58.77702713012695">
        <ele>21.783763885498047</ele>
        <time>2020-02-28T12:29:43.779Z</time>
      </trkpt>
      <trkpt lat="-34.65250960551202" lon="-58.77737045288086">
        <ele>20.65842056274414</ele>
        <time>2020-02-28T12:29:48.231Z</time>
      </trkpt>
      <trkpt lat="-34.651994705200195" lon="-58.77908706665039">
        <ele>19.738689422607422</ele>
        <time>2020-02-28T12:29:52.707Z</time>
      </trkpt>
      <trkpt lat="-34.651994621381164" lon="-58.77908706665039">
        <ele>19.73879051208496</ele>
        <time>2020-02-28T12:29:57.183Z</time>
      </trkpt>
      <trkpt lat="-34.65165129862726" lon="-58.78041744232178">
        <ele>19.244890213012695</ele>
        <time>2020-02-28T12:30:01.677Z</time>
      </trkpt>
      <trkpt lat="-34.65126506052911" lon="-58.781747817993164">
        <ele>18.583267211914062</ele>
        <time>2020-02-28T12:30:06.190Z</time>
      </trkpt>
      <trkpt lat="-34.65092173777521" lon="-58.78307819366455">
        <ele>20.197965621948242</ele>
        <time>2020-02-28T12:30:10.721Z</time>
      </trkpt>
      <trkpt lat="-34.65053549967706" lon="-58.784451484680176">
        <ele>22.5112247467041</ele>
        <time>2020-02-28T12:30:15.271Z</time>
      </trkpt>
      <trkpt lat="-34.65014926157892" lon="-58.78578186035156">
        <ele>23.568090438842773</ele>
        <time>2020-02-28T12:30:19.840Z</time>
      </trkpt>
      <trkpt lat="-34.64980593882501" lon="-58.78715515136719">
        <ele>25.32419776916504</ele>
        <time>2020-02-28T12:30:24.428Z</time>
      </trkpt>
      <trkpt lat="-34.6494197845459" lon="-58.788485527038574">
        <ele>26.899063110351562</ele>
        <time>2020-02-28T12:30:29.034Z</time>
      </trkpt>
      <trkpt lat="-34.64941970072687" lon="-58.788485527038574">
        <ele>26.898862838745117</ele>
        <time>2020-02-28T12:30:33.640Z</time>
      </trkpt>
      <trkpt lat="-34.64937678538263" lon="-58.78865718841553">
        <ele>26.64583969116211</ele>
        <time>2020-02-28T12:30:38.249Z</time>
      </trkpt>
      <trkpt lat="-34.64907637797296" lon="-58.789730072021484">
        <ele>26.46249008178711</ele>
        <time>2020-02-28T12:30:42.873Z</time>
      </trkpt>
      <trkpt lat="-34.64903346262872" lon="-58.78981590270996">
        <ele>26.521163940429688</ele>
        <time>2020-02-28T12:30:47.498Z</time>
      </trkpt>
      <trkpt lat="-34.64903346262872" lon="-58.789944648742676">
        <ele>26.67563247680664</ele>
        <time>2020-02-28T12:30:52.125Z</time>
      </trkpt>
      <trkpt lat="-34.64886180125177" lon="-58.79058837890625">
        <ele>27.242938995361328</ele>
        <time>2020-02-28T12:30:56.761Z</time>
      </trkpt>
      <trkpt lat="-34.648690139874816" lon="-58.79110336303711">
        <ele>27.934141159057617</ele>
        <time>2020-02-28T12:31:01.404Z</time>
      </trkpt>
      <trkpt lat="-34.648690139874816" lon="-58.791189193725586">
        <ele>27.831161499023438</ele>
        <time>2020-02-28T12:31:06.048Z</time>
      </trkpt>
      <trkpt lat="-34.6483039855957" lon="-58.79251956939697">
        <ele>28.0</ele>
        <time>2020-02-28T12:31:10.711Z</time>
      </trkpt>
      <trkpt lat="-34.64830390177667" lon="-58.79251956939697">
        <ele>28.0</ele>
        <time>2020-02-28T12:31:15.374Z</time>
      </trkpt>
      <trkpt lat="-34.64791774749756" lon="-58.7938928604126">
        <ele>26.340330123901367</ele>
        <time>2020-02-28T12:31:20.056Z</time>
      </trkpt>
      <trkpt lat="-34.64791766367853" lon="-58.7938928604126">
        <ele>26.340431213378906</ele>
        <time>2020-02-28T12:31:24.738Z</time>
      </trkpt>
      <trkpt lat="-34.64757434092462" lon="-58.79526615142822">
        <ele>26.5999755859375</ele>
        <time>2020-02-28T12:31:29.439Z</time>
      </trkpt>
      <trkpt lat="-34.64731684885919" lon="-58.79612445831299">
        <ele>25.909832000732422</ele>
        <time>2020-02-28T12:31:34.152Z</time>
      </trkpt>
      <trkpt lat="-34.647188102826476" lon="-58.79655361175537">
        <ele>26.21118927001953</ele>
        <time>2020-02-28T12:31:38.871Z</time>
      </trkpt>
      <trkpt lat="-34.64714527130127" lon="-58.79663944244385">
        <ele>26.416948318481445</ele>
        <time>2020-02-28T12:31:43.591Z</time>
      </trkpt>
      <trkpt lat="-34.64680194854736" lon="-58.797926902770996">
        <ele>26.51911163330078</ele>
        <time>2020-02-28T12:31:48.329Z</time>
      </trkpt>
      <trkpt lat="-34.64645862579346" lon="-58.79925727844238">
        <ele>26.0</ele>
        <time>2020-02-28T12:31:53.086Z</time>
      </trkpt>
      <trkpt lat="-34.647531509399414" lon="-58.799729347229004">
        <ele>26.415313720703125</ele>
        <time>2020-02-28T12:31:57.861Z</time>
      </trkpt>
      <trkpt lat="-34.647488594055176" lon="-58.79985809326172">
        <ele>26.5328369140625</ele>
        <time>2020-02-28T12:32:02.638Z</time>
      </trkpt>
      <trkpt lat="-34.64645862579346" lon="-58.80354881286621">
        <ele>30.713151931762695</ele>
        <time>2020-02-28T12:32:07.466Z</time>
      </trkpt>
      <trkpt lat="-34.64628688059747" lon="-58.80414962768555">
        <ele>29.72804832458496</ele>
        <time>2020-02-28T12:32:12.302Z</time>
      </trkpt>
      <trkpt lat="-34.64607238769531" lon="-58.804922103881836">
        <ele>28.63780975341797</ele>
        <time>2020-02-28T12:32:17.149Z</time>
      </trkpt>
      <trkpt lat="-34.64512816630304" lon="-58.808441162109375">
        <ele>27.406824111938477</ele>
        <time>2020-02-28T12:32:22.045Z</time>
      </trkpt>
      <trkpt lat="-34.644999420270324" lon="-58.80882740020752">
        <ele>26.766725540161133</ele>
        <time>2020-02-28T12:32:26.947Z</time>
      </trkpt>
      <trkpt lat="-34.64457026682794" lon="-58.810415267944336">
        <ele>28.124164581298828</ele>
        <time>2020-02-28T12:32:31.871Z</time>
      </trkpt>
      <trkpt lat="-34.64392653666437" lon="-58.81264686584473">
        <ele>33.606414794921875</ele>
        <time>2020-02-28T12:32:36.826Z</time>
      </trkpt>
      <trkpt lat="-34.64392653666437" lon="-58.812689781188965">
        <ele>33.76088333129883</ele>
        <time>2020-02-28T12:32:41.781Z</time>
      </trkpt>
      <trkpt lat="-34.6436261292547" lon="-58.8138484954834">
        <ele>33.78015899658203</ele>
        <time>2020-02-28T12:32:46.752Z</time>
      </trkpt>
      <trkpt lat="-34.64311114512384" lon="-58.815650939941406">
        <ele>31.212636947631836</ele>
        <time>2020-02-28T12:32:51.749Z</time>
      </trkpt>
      <trkpt lat="-34.642939483746886" lon="-58.81629467010498">
        <ele>31.51072120666504</ele>
        <time>2020-02-28T12:32:56.754Z</time>
      </trkpt>
      <trkpt lat="-34.64293956756592" lon="-58.81629467010498">
        <ele>31.51051902770996</ele>
        <time>2020-02-28T12:33:01.759Z</time>
      </trkpt>
      <trkpt lat="-34.642724907025695" lon="-58.81698131561279">
        <ele>30.411762237548828</ele>
        <time>2020-02-28T12:33:06.774Z</time>
      </trkpt>
      <trkpt lat="-34.64238166809082" lon="-58.81814002990723">
        <ele>29.72727394104004</ele>
        <time>2020-02-28T12:33:11.805Z</time>
      </trkpt>
      <trkpt lat="-34.64195251464844" lon="-58.81977081298828">
        <ele>33.73898696899414</ele>
        <time>2020-02-28T12:33:16.859Z</time>
      </trkpt>
      <trkpt lat="-34.641952430829406" lon="-58.81977081298828">
        <ele>33.73858642578125</ele>
        <time>2020-02-28T12:33:21.913Z</time>
      </trkpt>
      <trkpt lat="-34.64152327738702" lon="-58.82127285003662">
        <ele>29.462648391723633</ele>
        <time>2020-02-28T12:33:26.988Z</time>
      </trkpt>
      <trkpt lat="-34.641222869977355" lon="-58.82230281829834">
        <ele>31.041921615600586</ele>
        <time>2020-02-28T12:33:32.077Z</time>
      </trkpt>
      <trkpt lat="-34.64036456309259" lon="-58.82534980773926">
        <ele>29.164798736572266</ele>
        <time>2020-02-28T12:33:37.209Z</time>
      </trkpt>
      <trkpt lat="-34.63963508605957" lon="-58.82805347442627">
        <ele>30.607280731201172</ele>
        <time>2020-02-28T12:33:42.378Z</time>
      </trkpt>
      <trkpt lat="-34.63963500224054" lon="-58.82805347442627">
        <ele>30.606977462768555</ele>
        <time>2020-02-28T12:33:47.547Z</time>
      </trkpt>
      <trkpt lat="-34.6395920868963" lon="-58.828182220458984">
        <ele>30.143569946289062</ele>
        <time>2020-02-28T12:33:52.718Z</time>
      </trkpt>
      <trkpt lat="-34.63942042551935" lon="-58.82856845855713">
        <ele>29.139202117919922</ele>
        <time>2020-02-28T12:33:57.895Z</time>
      </trkpt>
      <trkpt lat="-34.63937759399414" lon="-58.82874011993408">
        <ele>29.39655113220215</ele>
        <time>2020-02-28T12:34:03.074Z</time>
      </trkpt>
      <trkpt lat="-34.63937751017511" lon="-58.82874011993408">
        <ele>29.396650314331055</ele>
        <time>2020-02-28T12:34:08.253Z</time>
      </trkpt>
      <trkpt lat="-34.63929167948663" lon="-58.82899761199951">
        <ele>29.808568954467773</ele>
        <time>2020-02-28T12:34:13.436Z</time>
      </trkpt>
      <trkpt lat="-34.63894844055176" lon="-58.829941749572754">
        <ele>30.681474685668945</ele>
        <time>2020-02-28T12:34:18.633Z</time>
      </trkpt>
      <trkpt lat="-34.63864794932306" lon="-58.83101463317871">
        <ele>31.097196578979492</ele>
        <time>2020-02-28T12:34:23.845Z</time>
      </trkpt>
      <trkpt lat="-34.638261711224914" lon="-58.832387924194336">
        <ele>31.48705291748047</ele>
        <time>2020-02-28T12:34:29.076Z</time>
      </trkpt>
      <trkpt lat="-34.6378755569458" lon="-58.8338041305542">
        <ele>31.643972396850586</ele>
        <time>2020-02-28T12:34:34.327Z</time>
      </trkpt>
      <trkpt lat="-34.63787547312677" lon="-58.8338041305542">
        <ele>31.643770217895508</ele>
        <time>2020-02-28T12:34:39.578Z</time>
      </trkpt>
      <trkpt lat="-34.63723182678223" lon="-58.83603572845459">
        <ele>31.0</ele>
        <time>2020-02-28T12:34:44.860Z</time>
      </trkpt>
      <trkpt lat="-34.63684550486505" lon="-58.83749485015869">
        <ele>30.39668083190918</ele>
        <time>2020-02-28T12:34:50.162Z</time>
      </trkpt>
      <trkpt lat="-34.63633060455322" lon="-58.83925437927246">
        <ele>30.82988929748535</ele>
        <time>2020-02-28T12:34:55.489Z</time>
      </trkpt>
      <trkpt lat="-34.63633052073419" lon="-58.83925437927246">
        <ele>30.829988479614258</ele>
        <time>2020-02-28T12:35:00.816Z</time>
      </trkpt>
      <trkpt lat="-34.636244690045714" lon="-58.83959770202637">
        <ele>30.865938186645508</ele>
        <time>2020-02-28T12:35:06.147Z</time>
      </trkpt>
      <trkpt lat="-34.63590136729181" lon="-58.840885162353516">
        <ele>30.521137237548828</ele>
        <time>2020-02-28T12:35:11.496Z</time>
      </trkpt>
      <trkpt lat="-34.63568679057062" lon="-58.841614723205566">
        <ele>32.689239501953125</ele>
        <time>2020-02-28T12:35:16.855Z</time>
      </trkpt>
      <trkpt lat="-34.63384143076837" lon="-58.84822368621826">
        <ele>28.564847946166992</ele>
        <time>2020-02-28T12:35:22.307Z</time>
      </trkpt>
      <trkpt lat="-34.63379851542413" lon="-58.84830951690674">
        <ele>28.667827606201172</ele>
        <time>2020-02-28T12:35:27.760Z</time>
      </trkpt>
      <trkpt lat="-34.6335410233587" lon="-58.84933948516846">
        <ele>29.656837463378906</ele>
        <time>2020-02-28T12:35:33.227Z</time>
      </trkpt>
      <trkpt lat="-34.633197700604796" lon="-58.85032653808594">
        <ele>31.654903411865234</ele>
        <time>2020-02-28T12:35:38.708Z</time>
      </trkpt>
      <trkpt lat="-34.63216781616211" lon="-58.8523006439209">
        <ele>33.843685150146484</ele>
        <time>2020-02-28T12:35:44.220Z</time>
      </trkpt>
      <trkpt lat="-34.63208198547363" lon="-58.85255813598633">
        <ele>33.32878875732422</ele>
        <time>2020-02-28T12:35:49.736Z</time>
      </trkpt>
      <trkpt lat="-34.6320819016546" lon="-58.85255813598633">
        <ele>33.328887939453125</ele>
        <time>2020-02-28T12:35:55.252Z</time>
      </trkpt>
      <trkpt lat="-34.63156691752374" lon="-58.854360580444336">
        <ele>33.50722885131836</ele>
        <time>2020-02-28T12:36:00.793Z</time>
      </trkpt>
      <trkpt lat="-34.631481086835265" lon="-58.854660987854004">
        <ele>33.00374221801758</ele>
        <time>2020-02-28T12:36:06.338Z</time>
      </trkpt>
      <trkpt lat="-34.63139525614679" lon="-58.85500431060791">
        <ele>32.28288650512695</ele>
        <time>2020-02-28T12:36:11.888Z</time>
      </trkpt>
      <trkpt lat="-34.63088027201593" lon="-58.85676383972168">
        <ele>33.21449661254883</ele>
        <time>2020-02-28T12:36:17.463Z</time>
      </trkpt>
      <trkpt lat="-34.63045120239258" lon="-58.85830879211426">
        <ele>33.281864166259766</ele>
        <time>2020-02-28T12:36:23.059Z</time>
      </trkpt>
      <trkpt lat="-34.630451118573546" lon="-58.85830879211426">
        <ele>33.28196334838867</ele>
        <time>2020-02-28T12:36:28.655Z</time>
      </trkpt>
      <trkpt lat="-34.62993613444269" lon="-58.86019706726074">
        <ele>32.49802780151367</ele>
        <time>2020-02-28T12:36:34.277Z</time>
      </trkpt>
      <trkpt lat="-34.629464065656066" lon="-58.861870765686035">
        <ele>31.177675247192383</ele>
        <time>2020-02-28T12:36:39.923Z</time>
      </trkpt>
      <trkpt lat="-34.629206573590636" lon="-58.86281490325928">
        <ele>31.377300262451172</ele>
        <time>2020-02-28T12:36:45.582Z</time>
      </trkpt>
      <trkpt lat="-34.62907791137695" lon="-58.86354446411133">
        <ele>31.53166961669922</ele>
        <time>2020-02-28T12:36:51.251Z</time>
      </trkpt>
      <trkpt lat="-34.62907782755792" lon="-58.86354446411133">
        <ele>31.531770706176758</ele>
        <time>2020-02-28T12:36:56.920Z</time>
      </trkpt>
      <trkpt lat="-34.62899208068848" lon="-58.865089416503906">
        <ele>31.531023025512695</ele>
        <time>2020-02-28T12:37:02.609Z</time>
      </trkpt>
      <trkpt lat="-34.62894908152521" lon="-58.865604400634766">
        <ele>31.276891708374023</ele>
        <time>2020-02-28T12:37:08.305Z</time>
      </trkpt>
      <trkpt lat="-34.62864867411554" lon="-58.866848945617676">
        <ele>31.961252212524414</ele>
        <time>2020-02-28T12:37:14.018Z</time>
      </trkpt>
      <trkpt lat="-34.6283483505249" lon="-58.86826515197754">
        <ele>31.169418334960938</ele>
        <time>2020-02-28T12:37:19.750Z</time>
      </trkpt>
      <trkpt lat="-34.62834826670587" lon="-58.86826515197754">
        <ele>31.169620513916016</ele>
        <time>2020-02-28T12:37:25.482Z</time>
      </trkpt>
      <trkpt lat="-34.627747451886535" lon="-58.87075424194336">
        <ele>37.047882080078125</ele>
        <time>2020-02-28T12:37:31.249Z</time>
      </trkpt>
      <trkpt lat="-34.62757579050958" lon="-58.87156963348389">
        <ele>40.66782760620117</ele>
        <time>2020-02-28T12:37:37.027Z</time>
      </trkpt>
      <trkpt lat="-34.62736121378839" lon="-58.872385025024414">
        <ele>42.91740417480469</ele>
        <time>2020-02-28T12:37:42.816Z</time>
      </trkpt>
      <trkpt lat="-34.62663165293634" lon="-58.875603675842285">
        <ele>35.536109924316406</ele>
        <time>2020-02-28T12:37:48.649Z</time>
      </trkpt>
      <trkpt lat="-34.62538719177246" lon="-58.88092517852783">
        <ele>34.45756912231445</ele>
        <time>2020-02-28T12:37:54.555Z</time>
      </trkpt>
      <trkpt lat="-34.62512969970703" lon="-58.88204097747803">
        <ele>33.095924377441406</ele>
        <time>2020-02-28T12:38:00.476Z</time>
      </trkpt>
      <trkpt lat="-34.624957954511046" lon="-58.88272762298584">
        <ele>32.949588775634766</ele>
        <time>2020-02-28T12:38:06.407Z</time>
      </trkpt>
      <trkpt lat="-34.62465763092041" lon="-58.88401508331299">
        <ele>33.34048843383789</ele>
        <time>2020-02-28T12:38:12.356Z</time>
      </trkpt>
      <trkpt lat="-34.62465754710138" lon="-58.88401508331299">
        <ele>33.34089279174805</ele>
        <time>2020-02-28T12:38:18.305Z</time>
      </trkpt>
      <trkpt lat="-34.62435713969171" lon="-58.885345458984375">
        <ele>33.39176559448242</ele>
        <time>2020-02-28T12:38:24.272Z</time>
      </trkpt>
      <trkpt lat="-34.62405673228204" lon="-58.88671875">
        <ele>31.976150512695312</ele>
        <time>2020-02-28T12:38:30.257Z</time>
      </trkpt>
      <trkpt lat="-34.623756324872375" lon="-58.888092041015625">
        <ele>31.516366958618164</ele>
        <time>2020-02-28T12:38:36.261Z</time>
      </trkpt>
      <trkpt lat="-34.62341300211847" lon="-58.88942241668701">
        <ele>35.35749053955078</ele>
        <time>2020-02-28T12:38:42.284Z</time>
      </trkpt>
      <trkpt lat="-34.622769271954894" lon="-58.89225482940674">
        <ele>35.85478210449219</ele>
        <time>2020-02-28T12:38:48.345Z</time>
      </trkpt>
      <trkpt lat="-34.62268344126642" lon="-58.892598152160645">
        <ele>36.721683502197266</ele>
        <time>2020-02-28T12:38:54.411Z</time>
      </trkpt>
      <trkpt lat="-34.62259761057794" lon="-58.893070220947266">
        <ele>35.27824783325195</ele>
        <time>2020-02-28T12:39:00.484Z</time>
      </trkpt>
      <trkpt lat="-34.62238303385675" lon="-58.89392852783203">
        <ele>32.99967956542969</ele>
        <time>2020-02-28T12:39:06.568Z</time>
      </trkpt>
      <trkpt lat="-34.6219539642334" lon="-58.89564514160156">
        <ele>33.77288055419922</ele>
        <time>2020-02-28T12:39:12.676Z</time>
      </trkpt>
      <trkpt lat="-34.62195388041437" lon="-58.89564514160156">
        <ele>33.772579193115234</ele>
        <time>2020-02-28T12:39:18.784Z</time>
      </trkpt>
      <trkpt lat="-34.62135306559503" lon="-58.8982629776001">
        <ele>33.23584747314453</ele>
        <time>2020-02-28T12:39:24.928Z</time>
      </trkpt>
      <trkpt lat="-34.62118140421808" lon="-58.899078369140625">
        <ele>33.391624450683594</ele>
        <time>2020-02-28T12:39:31.083Z</time>
      </trkpt>
      <trkpt lat="-34.621009742841125" lon="-58.899850845336914">
        <ele>33.4237174987793</ele>
        <time>2020-02-28T12:39:37.249Z</time>
      </trkpt>
      <trkpt lat="-34.620795249938965" lon="-58.9006233215332">
        <ele>33.93711471557617</ele>
        <time>2020-02-28T12:39:43.425Z</time>
      </trkpt>
      <trkpt lat="-34.62079516611993" lon="-58.9006233215332">
        <ele>33.937217712402344</ele>
        <time>2020-02-28T12:39:49.601Z</time>
      </trkpt>
      <trkpt lat="-34.62062350474298" lon="-58.90139579772949">
        <ele>34.67526626586914</ele>
        <time>2020-02-28T12:39:55.788Z</time>
      </trkpt>
      <trkpt lat="-34.62045184336603" lon="-58.90221118927002">
        <ele>34.643680572509766</ele>
        <time>2020-02-28T12:40:01.986Z</time>
      </trkpt>
      <trkpt lat="-34.620280181989074" lon="-58.90298366546631">
        <ele>34.225929260253906</ele>
        <time>2020-02-28T12:40:08.195Z</time>
      </trkpt>
      <trkpt lat="-34.62006560526788" lon="-58.9037561416626">
        <ele>33.344635009765625</ele>
        <time>2020-02-28T12:40:14.414Z</time>
      </trkpt>
      <trkpt lat="-34.61989394389093" lon="-58.904571533203125">
        <ele>32.039459228515625</ele>
        <time>2020-02-28T12:40:20.645Z</time>
      </trkpt>
      <trkpt lat="-34.61959353648126" lon="-58.9057731628418">
        <ele>37.168312072753906</ele>
        <time>2020-02-28T12:40:26.892Z</time>
      </trkpt>
      <trkpt lat="-34.61929312907159" lon="-58.907103538513184">
        <ele>36.51425552368164</ele>
        <time>2020-02-28T12:40:33.157Z</time>
      </trkpt>
      <trkpt lat="-34.618992721661925" lon="-58.908348083496094">
        <ele>34.89580154418945</ele>
        <time>2020-02-28T12:40:39.439Z</time>
      </trkpt>
      <trkpt lat="-34.61873531341553" lon="-58.90950679779053">
        <ele>33.94071960449219</ele>
        <time>2020-02-28T12:40:45.737Z</time>
      </trkpt>
      <trkpt lat="-34.618735229596496" lon="-58.90950679779053">
        <ele>33.940818786621094</ele>
        <time>2020-02-28T12:40:52.035Z</time>
      </trkpt>
      <trkpt lat="-34.61864939890802" lon="-58.90993595123291">
        <ele>33.956199645996094</ele>
        <time>2020-02-28T12:40:58.339Z</time>
      </trkpt>
      <trkpt lat="-34.618477737531066" lon="-58.9107084274292">
        <ele>34.318260192871094</ele>
        <time>2020-02-28T12:41:04.654Z</time>
      </trkpt>
      <trkpt lat="-34.61830607615411" lon="-58.91148090362549">
        <ele>34.04944610595703</ele>
        <time>2020-02-28T12:41:10.979Z</time>
      </trkpt>
      <trkpt lat="-34.61804858408868" lon="-58.91251087188721">
        <ele>35.02456283569336</ele>
        <time>2020-02-28T12:41:17.318Z</time>
      </trkpt>
      <trkpt lat="-34.61779109202325" lon="-58.913540840148926">
        <ele>35.0</ele>
        <time>2020-02-28T12:41:23.672Z</time>
      </trkpt>
      <trkpt lat="-34.61757651530206" lon="-58.91461372375488">
        <ele>33.24608612060547</ele>
        <time>2020-02-28T12:41:30.040Z</time>
      </trkpt>
      <trkpt lat="-34.61731902323663" lon="-58.91568660736084">
        <ele>31.27996826171875</ele>
        <time>2020-02-28T12:41:36.423Z</time>
      </trkpt>
      <trkpt lat="-34.6170615311712" lon="-58.91671657562256">
        <ele>32.05107498168945</ele>
        <time>2020-02-28T12:41:42.820Z</time>
      </trkpt>
      <trkpt lat="-34.61693278513849" lon="-58.91740322113037">
        <ele>32.0</ele>
        <time>2020-02-28T12:41:49.226Z</time>
      </trkpt>
      <trkpt lat="-34.616074562072754" lon="-58.92109394073486">
        <ele>32.53235626220703</ele>
        <time>2020-02-28T12:41:55.683Z</time>
      </trkpt>
      <trkpt lat="-34.61607447825372" lon="-58.92109394073486">
        <ele>32.53275680541992</ele>
        <time>2020-02-28T12:42:02.140Z</time>
      </trkpt>
      <trkpt lat="-34.61555949412286" lon="-58.92323970794678">
        <ele>34.70823287963867</ele>
        <time>2020-02-28T12:42:08.627Z</time>
      </trkpt>
      <trkpt lat="-34.61534491740167" lon="-58.924269676208496">
        <ele>35.16119384765625</ele>
        <time>2020-02-28T12:42:15.128Z</time>
      </trkpt>
      <trkpt lat="-34.615044509992" lon="-58.92542839050293">
        <ele>36.77096939086914</ele>
        <time>2020-02-28T12:42:21.645Z</time>
      </trkpt>
      <trkpt lat="-34.614143287763" lon="-58.92924785614014">
        <ele>33.450233459472656</ele>
        <time>2020-02-28T12:42:28.214Z</time>
      </trkpt>
      <trkpt lat="-34.613971626386046" lon="-58.930063247680664">
        <ele>32.76394271850586</ele>
        <time>2020-02-28T12:42:34.794Z</time>
      </trkpt>
      <trkpt lat="-34.613757049664855" lon="-58.931007385253906">
        <ele>30.327302932739258</ele>
        <time>2020-02-28T12:42:41.387Z</time>
      </trkpt>
      <trkpt lat="-34.61367121897638" lon="-58.931264877319336">
        <ele>30.248268127441406</ele>
        <time>2020-02-28T12:42:47.984Z</time>
      </trkpt>
      <trkpt lat="-34.6135853882879" lon="-58.93169403076172">
        <ele>30.866146087646484</ele>
        <time>2020-02-28T12:42:54.587Z</time>
      </trkpt>
      <trkpt lat="-34.61319915018976" lon="-58.93332481384277">
        <ele>31.87984848022461</ele>
        <time>2020-02-28T12:43:01.212Z</time>
      </trkpt>
      <trkpt lat="-34.612984573468566" lon="-58.93461227416992">
        <ele>33.85753631591797</ele>
        <time>2020-02-28T12:43:07.854Z</time>
      </trkpt>
      <trkpt lat="-34.61242667399347" lon="-58.93697261810303">
        <ele>31.21973419189453</ele>
        <time>2020-02-28T12:43:14.529Z</time>
      </trkpt>
      <trkpt lat="-34.61169719696045" lon="-58.94014835357666">
        <ele>32.38505172729492</ele>
        <time>2020-02-28T12:43:21.247Z</time>
      </trkpt>
      <trkpt lat="-34.61139670573175" lon="-58.941049575805664">
        <ele>36.37648010253906</ele>
        <time>2020-02-28T12:43:27.978Z</time>
      </trkpt>
      <trkpt lat="-34.61139678955078" lon="-58.941049575805664">
        <ele>36.376277923583984</ele>
        <time>2020-02-28T12:43:34.709Z</time>
      </trkpt>
      <trkpt lat="-34.61131087504327" lon="-58.94134998321533">
        <ele>36.51680374145508</ele>
        <time>2020-02-28T12:43:41.444Z</time>
      </trkpt>
      <trkpt lat="-34.61118212901056" lon="-58.94160747528076">
        <ele>36.353240966796875</ele>
        <time>2020-02-28T12:43:48.183Z</time>
      </trkpt>
      <trkpt lat="-34.61096755228937" lon="-58.94216537475586">
        <ele>34.85891342163086</ele>
        <time>2020-02-28T12:43:54.931Z</time>
      </trkpt>
      <trkpt lat="-34.610495483502746" lon="-58.944268226623535">
        <ele>33.659934997558594</ele>
        <time>2020-02-28T12:44:01.707Z</time>
      </trkpt>
      <trkpt lat="-34.61019507609308" lon="-58.94564151763916">
        <ele>33.370479583740234</ele>
        <time>2020-02-28T12:44:08.502Z</time>
      </trkpt>
      <trkpt lat="-34.60985175333917" lon="-58.947014808654785">
        <ele>31.98446273803711</ele>
        <time>2020-02-28T12:44:15.316Z</time>
      </trkpt>
      <trkpt lat="-34.6095513459295" lon="-58.94847393035889">
        <ele>33.080711364746094</ele>
        <time>2020-02-28T12:44:22.150Z</time>
      </trkpt>
      <trkpt lat="-34.609551429748535" lon="-58.94847393035889">
        <ele>33.08091354370117</ele>
        <time>2020-02-28T12:44:28.984Z</time>
      </trkpt>
      <trkpt lat="-34.6092080231756" lon="-58.94993305206299">
        <ele>33.25816345214844</ele>
        <time>2020-02-28T12:44:35.838Z</time>
      </trkpt>
      <trkpt lat="-34.60886470042169" lon="-58.95130634307861">
        <ele>33.78348159790039</ele>
        <time>2020-02-28T12:44:42.711Z</time>
      </trkpt>
      <trkpt lat="-34.60882178507745" lon="-58.95143508911133">
        <ele>33.8349723815918</ele>
        <time>2020-02-28T12:44:49.586Z</time>
      </trkpt>
      <trkpt lat="-34.608521377667785" lon="-58.95280838012695">
        <ele>34.27494430541992</ele>
        <time>2020-02-28T12:44:56.479Z</time>
      </trkpt>
      <trkpt lat="-34.60817805491388" lon="-58.954224586486816">
        <ele>36.34943389892578</ele>
        <time>2020-02-28T12:45:03.392Z</time>
      </trkpt>
      <trkpt lat="-34.60813513956964" lon="-58.95435333251953">
        <ele>36.297943115234375</ele>
        <time>2020-02-28T12:45:10.307Z</time>
      </trkpt>
      <trkpt lat="-34.60813522338867" lon="-58.95435333251953">
        <ele>36.29834747314453</ele>
        <time>2020-02-28T12:45:17.222Z</time>
      </trkpt>
      <trkpt lat="-34.60783473215997" lon="-58.955726623535156">
        <ele>33.39990997314453</ele>
        <time>2020-02-28T12:45:24.156Z</time>
      </trkpt>
      <trkpt lat="-34.607491409406066" lon="-58.95718574523926">
        <ele>33.431156158447266</ele>
        <time>2020-02-28T12:45:31.110Z</time>
      </trkpt>
      <trkpt lat="-34.6071910019964" lon="-58.95864486694336">
        <ele>32.12625503540039</ele>
        <time>2020-02-28T12:45:38.083Z</time>
      </trkpt>
      <trkpt lat="-34.60714817047119" lon="-58.95915985107422">
        <ele>31.456987380981445</ele>
        <time>2020-02-28T12:45:45.063Z</time>
      </trkpt>
      <trkpt lat="-34.60697642527521" lon="-58.960018157958984">
        <ele>31.098068237304688</ele>
        <time>2020-02-28T12:45:52.055Z</time>
      </trkpt>
      <trkpt lat="-34.6066331025213" lon="-58.961477279663086">
        <ele>33.863346099853516</ele>
        <time>2020-02-28T12:45:59.067Z</time>
      </trkpt>
      <trkpt lat="-34.606289779767394" lon="-58.96293640136719">
        <ele>33.0</ele>
        <time>2020-02-28T12:46:06.099Z</time>
      </trkpt>
      <trkpt lat="-34.60590354166925" lon="-58.96461009979248">
        <ele>33.0</ele>
        <time>2020-02-28T12:46:13.154Z</time>
      </trkpt>
      <trkpt lat="-34.60581771098077" lon="-58.96503925323486">
        <ele>33.19340515136719</ele>
        <time>2020-02-28T12:46:20.215Z</time>
      </trkpt>
      <trkpt lat="-34.605731880292296" lon="-58.96538257598877">
        <ele>33.70830154418945</ele>
        <time>2020-02-28T12:46:27.281Z</time>
      </trkpt>
      <trkpt lat="-34.60573196411133" lon="-58.96538257598877">
        <ele>33.70820236206055</ele>
        <time>2020-02-28T12:46:34.347Z</time>
      </trkpt>
      <trkpt lat="-34.60556021891534" lon="-58.96611213684082">
        <ele>34.20695495605469</ele>
        <time>2020-02-28T12:46:41.423Z</time>
      </trkpt>
      <trkpt lat="-34.60495940409601" lon="-58.96864414215088">
        <ele>35.92070770263672</ele>
        <time>2020-02-28T12:46:48.533Z</time>
      </trkpt>
      <trkpt lat="-34.60440150462091" lon="-58.9711332321167">
        <ele>33.204124450683594</ele>
        <time>2020-02-28T12:46:55.677Z</time>
      </trkpt>
      <trkpt lat="-34.60392943583429" lon="-58.972978591918945">
        <ele>38.0990104675293</ele>
        <time>2020-02-28T12:47:02.847Z</time>
      </trkpt>
      <trkpt lat="-34.60341445170343" lon="-58.97542476654053">
        <ele>36.93613815307617</ele>
        <time>2020-02-28T12:47:10.050Z</time>
      </trkpt>
      <trkpt lat="-34.60294238291681" lon="-58.97727012634277">
        <ele>41.65229034423828</ele>
        <time>2020-02-28T12:47:17.279Z</time>
      </trkpt>
      <trkpt lat="-34.60294246673584" lon="-58.97727012634277">
        <ele>41.651588439941406</ele>
        <time>2020-02-28T12:47:24.508Z</time>
      </trkpt>
      <trkpt lat="-34.60156909190118" lon="-58.9830207824707">
        <ele>36.134864807128906</ele>
        <time>2020-02-28T12:47:31.816Z</time>
      </trkpt>
      <trkpt lat="-34.601569175720215" lon="-58.9830207824707">
        <ele>36.13496398925781</ele>
        <time>2020-02-28T12:47:39.124Z</time>
      </trkpt>
      <trkpt lat="-34.60071078501642" lon="-58.986754417419434">
        <ele>38.15784454345703</ele>
        <time>2020-02-28T12:47:46.483Z</time>
      </trkpt>
      <trkpt lat="-34.60071086883545" lon="-58.986754417419434">
        <ele>38.15713882446289</ele>
        <time>2020-02-28T12:47:53.842Z</time>
      </trkpt>
      <trkpt lat="-34.600582122802734" lon="-58.98739814758301">
        <ele>38.74516296386719</ele>
        <time>2020-02-28T12:48:01.210Z</time>
      </trkpt>
      <trkpt lat="-34.5996808167547" lon="-58.991432189941406">
        <ele>39.234222412109375</ele>
        <time>2020-02-28T12:48:08.633Z</time>
      </trkpt>
      <trkpt lat="-34.59963790141046" lon="-58.99160385131836">
        <ele>39.74911880493164</ele>
        <time>2020-02-28T12:48:16.058Z</time>
      </trkpt>
      <trkpt lat="-34.599595069885254" lon="-58.99177551269531">
        <ele>40.2634162902832</ele>
        <time>2020-02-28T12:48:23.486Z</time>
      </trkpt>
      <trkpt lat="-34.59877967834473" lon="-58.99516582489014">
        <ele>46.73491668701172</ele>
        <time>2020-02-28T12:48:30.960Z</time>
      </trkpt>
      <trkpt lat="-34.598050033673644" lon="-58.99825572967529">
        <ele>38.58004379272461</ele>
        <time>2020-02-28T12:48:38.477Z</time>
      </trkpt>
      <trkpt lat="-34.598050117492676" lon="-58.99825572967529">
        <ele>38.57954025268555</ele>
        <time>2020-02-28T12:48:45.994Z</time>
      </trkpt>
      <trkpt lat="-34.59800720214844" lon="-58.99855613708496">
        <ele>38.11613464355469</ele>
        <time>2020-02-28T12:48:53.515Z</time>
      </trkpt>
      <trkpt lat="-34.597277557477355" lon="-59.00156021118164">
        <ele>35.742942810058594</ele>
        <time>2020-02-28T12:49:01.077Z</time>
      </trkpt>
      <trkpt lat="-34.597062980756164" lon="-59.002418518066406">
        <ele>35.6259765625</ele>
        <time>2020-02-28T12:49:08.651Z</time>
      </trkpt>
      <trkpt lat="-34.59684840403497" lon="-59.003448486328125">
        <ele>36.91389846801758</ele>
        <time>2020-02-28T12:49:16.239Z</time>
      </trkpt>
      <trkpt lat="-34.59663382731378" lon="-59.00439262390137">
        <ele>35.43360900878906</ele>
        <time>2020-02-28T12:49:23.840Z</time>
      </trkpt>
      <trkpt lat="-34.59641925059259" lon="-59.00529384613037">
        <ele>36.24980926513672</ele>
        <time>2020-02-28T12:49:31.453Z</time>
      </trkpt>
      <trkpt lat="-34.59641933441162" lon="-59.00529384613037">
        <ele>36.249507904052734</ele>
        <time>2020-02-28T12:49:39.066Z</time>
      </trkpt>
      <trkpt lat="-34.59633341990411" lon="-59.00559425354004">
        <ele>36.818511962890625</ele>
        <time>2020-02-28T12:49:46.684Z</time>
      </trkpt>
      <trkpt lat="-34.59624767303467" lon="-59.00606632232666">
        <ele>36.921390533447266</ele>
        <time>2020-02-28T12:49:54.308Z</time>
      </trkpt>
      <trkpt lat="-34.59538928233087" lon="-59.006710052490234">
        <ele>35.0974235534668</ele>
        <time>2020-02-28T12:50:01.948Z</time>
      </trkpt>
      <trkpt lat="-34.59487429820001" lon="-59.00709629058838">
        <ele>34.64501190185547</ele>
        <time>2020-02-28T12:50:09.598Z</time>
      </trkpt>
      <trkpt lat="-34.59470263682306" lon="-59.00726795196533">
        <ele>35.42607116699219</ele>
        <time>2020-02-28T12:50:17.251Z</time>
      </trkpt>
      <trkpt lat="-34.59393016062677" lon="-59.00786876678467">
        <ele>38.01606369018555</ele>
        <time>2020-02-28T12:50:24.919Z</time>
      </trkpt>
      <trkpt lat="-34.59367275238037" lon="-59.00808334350586">
        <ele>38.02156066894531</ele>
        <time>2020-02-28T12:50:32.592Z</time>
      </trkpt>
      <trkpt lat="-34.59311476908624" lon="-59.008469581604004">
        <ele>38.27629089355469</ele>
        <time>2020-02-28T12:50:40.275Z</time>
      </trkpt>
      <trkpt lat="-34.59234229288995" lon="-59.0090274810791">
        <ele>36.924156188964844</ele>
        <time>2020-02-28T12:50:47.973Z</time>
      </trkpt>
      <trkpt lat="-34.59195613861084" lon="-59.00932788848877">
        <ele>36.89165115356445</ele>
        <time>2020-02-28T12:50:55.678Z</time>
      </trkpt>
      <trkpt lat="-34.59169864654541" lon="-59.0095853805542">
        <ele>36.06264877319336</ele>
        <time>2020-02-28T12:51:03.388Z</time>
      </trkpt>
      <trkpt lat="-34.59109774790704" lon="-59.01001453399658">
        <ele>34.815757751464844</ele>
        <time>2020-02-28T12:51:11.109Z</time>
      </trkpt>
      <trkpt lat="-34.590539848431945" lon="-59.010443687438965">
        <ele>35.69110870361328</ele>
        <time>2020-02-28T12:51:18.841Z</time>
      </trkpt>
      <trkpt lat="-34.59015369415283" lon="-59.01074409484863">
        <ele>35.590816497802734</ele>
        <time>2020-02-28T12:51:26.580Z</time>
      </trkpt>
      <trkpt lat="-34.59019660949707" lon="-59.01082992553711">
        <ele>35.69379425048828</ele>
        <time>2020-02-28T12:51:34.321Z</time>
      </trkpt>
      <trkpt lat="-34.59002695977688" lon="-59.01152721606195">
        <ele>37.20621109008789</ele>
        <time>2020-02-28T12:51:42.071Z</time>
      </trkpt>
      <trkpt lat="-34.58981213159859180450439453125" lon="-59.0113336779177188873291015625">
        <ele>43</ele>
        <time>2020-02-24T13:58:27.000Z</time>
      </trkpt>
      <trkpt lat="-34.589801318943500518798828125" lon="-59.01135371066629886627197265625">
        <ele>42.59999847412109375</ele>
        <time>2020-02-24T13:58:42.000Z</time>
      </trkpt>
      <trkpt lat="-34.589755721390247344970703125" lon="-59.01135572232306003570556640625">
        <ele>42.59999847412109375</ele>
        <time>2020-02-24T13:58:55.000Z</time>
      </trkpt>
      <trkpt lat="-34.58974264562129974365234375" lon="-59.01139008812606334686279296875">
        <ele>42.59999847412109375</ele>
        <time>2020-02-24T13:59:10.000Z</time>
      </trkpt>
      <trkpt lat="-34.5897746644914150238037109375" lon="-59.011390842497348785400390625">
        <ele>42.59999847412109375</ele>
        <time>2020-02-24T13:59:20.000Z</time>
      </trkpt>
      <trkpt lat="-34.58983811549842357635498046875" lon="-59.01140517555177211761474609375">
        <ele>42.40000152587890625</ele>
        <time>2020-02-24T13:59:29.000Z</time>
      </trkpt>
      <trkpt lat="-34.58984859287738800048828125" lon="-59.011402241885662078857421875">
        <ele>42.40000152587890625</ele>
        <time>2020-02-24T13:59:30.000Z</time>
      </trkpt>
      <trkpt lat="-34.589934758841991424560546875" lon="-59.01135454885661602020263671875">
        <ele>42.799999237060546875</ele>
        <time>2020-02-24T13:59:40.000Z</time>
      </trkpt>
      <trkpt lat="-34.58996602334082126617431640625" lon="-59.01134482584893703460693359375">
        <ele>43</ele>
        <time>2020-02-24T13:59:48.000Z</time>
      </trkpt>
      <trkpt lat="-34.58998940885066986083984375" lon="-59.01133627630770206451416015625">
        <ele>42.59999847412109375</ele>
        <time>2020-02-24T13:59:58.000Z</time>
      </trkpt>
      <trkpt lat="-34.58998999558389186859130859375" lon="-59.01133761741220951080322265625">
        <ele>42.40000152587890625</ele>
        <time>2020-02-24T14:00:16.000Z</time>
      </trkpt>
      <trkpt lat="-34.58999745547771453857421875" lon="-59.01133577339351177215576171875">
        <ele>42.59999847412109375</ele>
        <time>2020-02-24T14:00:35.000Z</time>
      </trkpt>
      <trkpt lat="-34.590049088001251220703125" lon="-59.01129319332540035247802734375">
        <ele>42.59999847412109375</ele>
        <time>2020-02-24T14:00:40.000Z</time>
      </trkpt>
      <trkpt lat="-34.59005956538021564483642578125" lon="-59.011256061494350433349609375">
        <ele>42.59999847412109375</ele>
        <time>2020-02-24T14:00:42.000Z</time>
      </trkpt>
      <trkpt lat="-34.59007884375751018524169921875" lon="-59.01114885695278644561767578125">
        <ele>42.59999847412109375</ele>
        <time>2020-02-24T14:00:47.000Z</time>
      </trkpt>
      <trkpt lat="-34.5900888182222843170166015625" lon="-59.01110543869435787200927734375">
        <ele>42.59999847412109375</ele>
        <time>2020-02-24T14:00:49.000Z</time>
      </trkpt>
      <trkpt lat="-34.59013801999390125274658203125" lon="-59.010929167270660400390625">
        <ele>42.40000152587890625</ele>
        <time>2020-02-24T14:00:57.000Z</time>
      </trkpt>
      <trkpt lat="-34.59021027199923992156982421875" lon="-59.0108381398022174835205078125">
        <ele>42.200000762939453125</ele>
        <time>2020-02-24T14:01:02.000Z</time>
      </trkpt>
      <trkpt lat="-34.5902286283671855926513671875" lon="-59.010836295783519744873046875">
        <ele>42.200000762939453125</ele>
        <time>2020-02-24T14:01:03.000Z</time>
      </trkpt>
      <trkpt lat="-34.59036097861826419830322265625" lon="-59.01087258942425251007080078125">
        <ele>42.59999847412109375</ele>
        <time>2020-02-24T14:01:10.000Z</time>
      </trkpt>
      <trkpt lat="-34.5905240066349506378173828125" lon="-59.010913409292697906494140625">
        <ele>42.799999237060546875</ele>
        <time>2020-02-24T14:01:17.000Z</time>
      </trkpt>
      <trkpt lat="-34.59070564247667789459228515625" lon="-59.01097543537616729736328125">
        <ele>42.799999237060546875</ele>
        <time>2020-02-24T14:01:23.000Z</time>
      </trkpt>
      <trkpt lat="-34.59093220531940460205078125" lon="-59.0110413171350955963134765625">
        <ele>42.799999237060546875</ele>
        <time>2020-02-24T14:01:30.000Z</time>
      </trkpt>
      <trkpt lat="-34.59119363687932491302490234375" lon="-59.011119939386844635009765625">
        <ele>42.59999847412109375</ele>
        <time>2020-02-24T14:01:39.000Z</time>
      </trkpt>
      <trkpt lat="-34.59139916114509105682373046875" lon="-59.011172242462635040283203125">
        <ele>43</ele>
        <time>2020-02-24T14:01:46.000Z</time>
      </trkpt>
      <trkpt lat="-34.59162429906427860260009765625" lon="-59.0112515352666378021240234375">
        <ele>43</ele>
        <time>2020-02-24T14:01:54.000Z</time>
      </trkpt>
      <trkpt lat="-34.5918014086782932281494140625" lon="-59.0113199315965175628662109375">
        <ele>43.200000762939453125</ele>
        <time>2020-02-24T14:02:00.000Z</time>
      </trkpt>
      <trkpt lat="-34.592145569622516632080078125" lon="-59.01143945753574371337890625">
        <ele>43</ele>
        <time>2020-02-24T14:02:10.000Z</time>
      </trkpt>
      <trkpt lat="-34.59236995317041873931884765625" lon="-59.01153190992772579193115234375">
        <ele>43.40000152587890625</ele>
        <time>2020-02-24T14:02:17.000Z</time>
      </trkpt>
      <trkpt lat="-34.5925447158515453338623046875" lon="-59.0115814469754695892333984375">
        <ele>43.200000762939453125</ele>
        <time>2020-02-24T14:02:23.000Z</time>
      </trkpt>
      <trkpt lat="-34.59274680353701114654541015625" lon="-59.011659063398838043212890625">
        <ele>43.59999847412109375</ele>
        <time>2020-02-24T14:02:30.000Z</time>
      </trkpt>
      <trkpt lat="-34.59290019236505031585693359375" lon="-59.01171840727329254150390625">
        <ele>43.799999237060546875</ele>
        <time>2020-02-24T14:02:36.000Z</time>
      </trkpt>
      <trkpt lat="-34.59302893839776515960693359375" lon="-59.0117487497627735137939453125">
        <ele>43.799999237060546875</ele>
        <time>2020-02-24T14:02:41.000Z</time>
      </trkpt>
      <trkpt lat="-34.59326782263815402984619140625" lon="-59.0118426270782947540283203125">
        <ele>43.40000152587890625</ele>
        <time>2020-02-24T14:02:49.000Z</time>
      </trkpt>
      <trkpt lat="-34.5935153402388095855712890625" lon="-59.0119244344532489776611328125">
        <ele>43.40000152587890625</ele>
        <time>2020-02-24T14:02:57.000Z</time>
      </trkpt>
      <trkpt lat="-34.59372480399906635284423828125" lon="-59.0119926631450653076171875">
        <ele>43.40000152587890625</ele>
        <time>2020-02-24T14:03:04.000Z</time>
      </trkpt>
      <trkpt lat="-34.59390350617468357086181640625" lon="-59.01204002089798450469970703125">
        <ele>43.200000762939453125</ele>
        <time>2020-02-24T14:03:10.000Z</time>
      </trkpt>
      <trkpt lat="-34.59414691664278507232666015625" lon="-59.01213339529931545257568359375">
        <ele>43.200000762939453125</ele>
        <time>2020-02-24T14:03:18.000Z</time>
      </trkpt>
      <trkpt lat="-34.59430818445980548858642578125" lon="-59.0121698565781116485595703125">
        <ele>43.40000152587890625</ele>
        <time>2020-02-24T14:03:24.000Z</time>
      </trkpt>
      <trkpt lat="-34.59452644921839237213134765625" lon="-59.01224546134471893310546875">
        <ele>43.59999847412109375</ele>
        <time>2020-02-24T14:03:31.000Z</time>
      </trkpt>
      <trkpt lat="-34.59464631043374538421630859375" lon="-59.0123401768505573272705078125">
        <ele>43.40000152587890625</ele>
        <time>2020-02-24T14:03:36.000Z</time>
      </trkpt>
      <trkpt lat="-34.59465620107948780059814453125" lon="-59.0124920569360256195068359375">
        <ele>43.59999847412109375</ele>
        <time>2020-02-24T14:03:41.000Z</time>
      </trkpt>
      <trkpt lat="-34.594588391482830047607421875" lon="-59.01282825507223606109619140625">
        <ele>43.799999237060546875</ele>
        <time>2020-02-24T14:03:51.000Z</time>
      </trkpt>
      <trkpt lat="-34.59452661685645580291748046875" lon="-59.01313603855669498443603515625">
        <ele>43.40000152587890625</ele>
        <time>2020-02-24T14:04:00.000Z</time>
      </trkpt>
      <trkpt lat="-34.59444900043308734893798828125" lon="-59.01353032328188419342041015625">
        <ele>43.59999847412109375</ele>
        <time>2020-02-24T14:04:12.000Z</time>
      </trkpt>
      <trkpt lat="-34.59437549114227294921875" lon="-59.01385118253529071807861328125">
        <ele>43.59999847412109375</ele>
        <time>2020-02-24T14:04:21.000Z</time>
      </trkpt>
      <trkpt lat="-34.59427163936197757720947265625" lon="-59.0143122710287570953369140625">
        <ele>43.799999237060546875</ele>
        <time>2020-02-24T14:04:34.000Z</time>
      </trkpt>
      <trkpt lat="-34.59424163214862346649169921875" lon="-59.0144564397633075714111328125">
        <ele>44</ele>
        <time>2020-02-24T14:04:38.000Z</time>
      </trkpt>
      <trkpt lat="-34.5941986329853534698486328125" lon="-59.01462969370186328887939453125">
        <ele>44</ele>
        <time>2020-02-24T14:04:43.000Z</time>
      </trkpt>
      <trkpt lat="-34.59418346174061298370361328125" lon="-59.01469373144209384918212890625">
        <ele>44</ele>
        <time>2020-02-24T14:04:45.000Z</time>
      </trkpt>
      <trkpt lat="-34.59412964992225170135498046875" lon="-59.01492138393223285675048828125">
        <ele>44</ele>
        <time>2020-02-24T14:04:51.000Z</time>
      </trkpt>
      <trkpt lat="-34.59401942789554595947265625" lon="-59.01541340164840221405029296875">
        <ele>44</ele>
        <time>2020-02-24T14:05:03.000Z</time>
      </trkpt>
      <trkpt lat="-34.5938911847770214080810546875" lon="-59.015966691076755523681640625">
        <ele>43.59999847412109375</ele>
        <time>2020-02-24T14:05:17.000Z</time>
      </trkpt>
      <trkpt lat="-34.593802504241466522216796875" lon="-59.0163685195147991180419921875">
        <ele>43.59999847412109375</ele>
        <time>2020-02-24T14:05:27.000Z</time>
      </trkpt>
      <trkpt lat="-34.5937331020832061767578125" lon="-59.0166535042226314544677734375">
        <ele>44</ele>
        <time>2020-02-24T14:05:34.000Z</time>
      </trkpt>
      <trkpt lat="-34.593670070171356201171875" lon="-59.0169700048863887786865234375">
        <ele>43.799999237060546875</ele>
        <time>2020-02-24T14:05:42.000Z</time>
      </trkpt>
      <trkpt lat="-34.593608044087886810302734375" lon="-59.0172529779374599456787109375">
        <ele>43.59999847412109375</ele>
        <time>2020-02-24T14:05:49.000Z</time>
      </trkpt>
      <trkpt lat="-34.59353663027286529541015625" lon="-59.01757107116281986236572265625">
        <ele>43.200000762939453125</ele>
        <time>2020-02-24T14:05:57.000Z</time>
      </trkpt>
      <trkpt lat="-34.59340629167854785919189453125" lon="-59.018136598169803619384765625">
        <ele>43.40000152587890625</ele>
        <time>2020-02-24T14:06:11.000Z</time>
      </trkpt>
      <trkpt lat="-34.59329833276569843292236328125" lon="-59.018603302538394927978515625">
        <ele>43.40000152587890625</ele>
        <time>2020-02-24T14:06:23.000Z</time>
      </trkpt>
      <trkpt lat="-34.5932065509259700775146484375" lon="-59.01899700053036212921142578125">
        <ele>43.40000152587890625</ele>
        <time>2020-02-24T14:06:34.000Z</time>
      </trkpt>
      <trkpt lat="-34.59310487844049930572509765625" lon="-59.01942749507725238800048828125">
        <ele>43</ele>
        <time>2020-02-24T14:06:46.000Z</time>
      </trkpt>
      <trkpt lat="-34.59298945963382720947265625" lon="-59.0198999829590320587158203125">
        <ele>43.40000152587890625</ele>
        <time>2020-02-24T14:06:59.000Z</time>
      </trkpt>
      <trkpt lat="-34.5928826741874217987060546875" lon="-59.020344056189060211181640625">
        <ele>43.40000152587890625</ele>
        <time>2020-02-24T14:07:11.000Z</time>
      </trkpt>
      <trkpt lat="-34.59278753958642482757568359375" lon="-59.02077614329755306243896484375">
        <ele>43.59999847412109375</ele>
        <time>2020-02-24T14:07:23.000Z</time>
      </trkpt>
      <trkpt lat="-34.59268360398709774017333984375" lon="-59.021218121051788330078125">
        <ele>43.799999237060546875</ele>
        <time>2020-02-24T14:07:35.000Z</time>
      </trkpt>
      <trkpt lat="-34.59257028065621852874755859375" lon="-59.0217034332454204559326171875">
        <ele>44</ele>
        <time>2020-02-24T14:07:48.000Z</time>
      </trkpt>
      <trkpt lat="-34.59244622848927974700927734375" lon="-59.0222440659999847412109375">
        <ele>43.59999847412109375</ele>
        <time>2020-02-24T14:08:02.000Z</time>
      </trkpt>
      <trkpt lat="-34.59238286130130290985107421875" lon="-59.02251253835856914520263671875">
        <ele>43.59999847412109375</ele>
        <time>2020-02-24T14:08:09.000Z</time>
      </trkpt>
      <trkpt lat="-34.59234078414738178253173828125" lon="-59.02271169237792491912841796875">
        <ele>43.59999847412109375</ele>
        <time>2020-02-24T14:08:14.000Z</time>
      </trkpt>
      <trkpt lat="-34.5922469906508922576904296875" lon="-59.0231095813214778900146484375">
        <ele>43.799999237060546875</ele>
        <time>2020-02-24T14:08:24.000Z</time>
      </trkpt>
      <trkpt lat="-34.5921202562749385833740234375" lon="-59.023636467754840850830078125">
        <ele>44</ele>
        <time>2020-02-24T14:08:37.000Z</time>
      </trkpt>
      <trkpt lat="-34.591977261006832122802734375" lon="-59.02416645549237728118896484375">
        <ele>43.59999847412109375</ele>
        <time>2020-02-24T14:08:50.000Z</time>
      </trkpt>
      <trkpt lat="-34.5917992293834686279296875" lon="-59.02476525865495204925537109375">
        <ele>43.40000152587890625</ele>
        <time>2020-02-24T14:09:05.000Z</time>
      </trkpt>
      <trkpt lat="-34.59167492575943470001220703125" lon="-59.0251903049647808074951171875">
        <ele>43.40000152587890625</ele>
        <time>2020-02-24T14:09:16.000Z</time>
      </trkpt>
      <trkpt lat="-34.59153025411069393157958984375" lon="-59.0256858430802822113037109375">
        <ele>43.40000152587890625</ele>
        <time>2020-02-24T14:09:29.000Z</time>
      </trkpt>
      <trkpt lat="-34.591410644352436065673828125" lon="-59.02615648694336414337158203125">
        <ele>43.200000762939453125</ele>
        <time>2020-02-24T14:09:41.000Z</time>
      </trkpt>
      <trkpt lat="-34.5912869274616241455078125" lon="-59.02667884714901447296142578125">
        <ele>43.200000762939453125</ele>
        <time>2020-02-24T14:09:54.000Z</time>
      </trkpt>
      <trkpt lat="-34.591161198914051055908203125" lon="-59.0272053144872188568115234375">
        <ele>43.40000152587890625</ele>
        <time>2020-02-24T14:10:07.000Z</time>
      </trkpt>
      <trkpt lat="-34.5910584367811679840087890625" lon="-59.02764134109020233154296875">
        <ele>43.200000762939453125</ele>
        <time>2020-02-24T14:10:18.000Z</time>
      </trkpt>
      <trkpt lat="-34.59094083867967128753662109375" lon="-59.0281395614147186279296875">
        <ele>43.200000762939453125</ele>
        <time>2020-02-24T14:10:31.000Z</time>
      </trkpt>
      <trkpt lat="-34.59087579511106014251708984375" lon="-59.0284133143723011016845703125">
        <ele>43</ele>
        <time>2020-02-24T14:10:38.000Z</time>
      </trkpt>
      <trkpt lat="-34.59082935936748981475830078125" lon="-59.02860333211719989776611328125">
        <ele>43.200000762939453125</ele>
        <time>2020-02-24T14:10:43.000Z</time>
      </trkpt>
      <trkpt lat="-34.5907788164913654327392578125" lon="-59.02882629074156284332275390625">
        <ele>43</ele>
        <time>2020-02-24T14:10:49.000Z</time>
      </trkpt>
      <trkpt lat="-34.59071452729403972625732421875" lon="-59.02909669093787670135498046875">
        <ele>43</ele>
        <time>2020-02-24T14:10:56.000Z</time>
      </trkpt>
      <trkpt lat="-34.59058762528002262115478515625" lon="-59.0296370722353458404541015625">
        <ele>42.799999237060546875</ele>
        <time>2020-02-24T14:11:10.000Z</time>
      </trkpt>
      <trkpt lat="-34.59045301191508769989013671875" lon="-59.03019136749207973480224609375">
        <ele>42.799999237060546875</ele>
        <time>2020-02-24T14:11:25.000Z</time>
      </trkpt>
      <trkpt lat="-34.59032275713980197906494140625" lon="-59.0306858159601688385009765625">
        <ele>42.799999237060546875</ele>
        <time>2020-02-24T14:11:38.000Z</time>
      </trkpt>
      <trkpt lat="-34.590202309191226959228515625" lon="-59.0311253629624843597412109375">
        <ele>42.799999237060546875</ele>
        <time>2020-02-24T14:11:50.000Z</time>
      </trkpt>
      <trkpt lat="-34.5900837890803813934326171875" lon="-59.0315488167107105255126953125">
        <ele>42.799999237060546875</ele>
        <time>2020-02-24T14:12:03.000Z</time>
      </trkpt>
      <trkpt lat="-34.58994942717254161834716796875" lon="-59.03202566318213939666748046875">
        <ele>42.799999237060546875</ele>
        <time>2020-02-24T14:12:15.000Z</time>
      </trkpt>
      <trkpt lat="-34.58981649018824100494384765625" lon="-59.03251357376575469970703125">
        <ele>43.200000762939453125</ele>
        <time>2020-02-24T14:12:28.000Z</time>
      </trkpt>
      <trkpt lat="-34.58968271501362323760986328125" lon="-59.0330045856535434722900390625">
        <ele>43.40000152587890625</ele>
        <time>2020-02-24T14:12:42.000Z</time>
      </trkpt>
      <trkpt lat="-34.58954818546772003173828125" lon="-59.03352820314466953277587890625">
        <ele>43.200000762939453125</ele>
        <time>2020-02-24T14:12:57.000Z</time>
      </trkpt>
      <trkpt lat="-34.58944198675453662872314453125" lon="-59.0340100787580013275146484375">
        <ele>43.40000152587890625</ele>
        <time>2020-02-24T14:13:10.000Z</time>
      </trkpt>
      <trkpt lat="-34.5893237181007862091064453125" lon="-59.0345257334411144256591796875">
        <ele>43.40000152587890625</ele>
        <time>2020-02-24T14:13:24.000Z</time>
      </trkpt>
      <trkpt lat="-34.5892127417027950286865234375" lon="-59.03501163236796855926513671875">
        <ele>43.200000762939453125</ele>
        <time>2020-02-24T14:13:37.000Z</time>
      </trkpt>
      <trkpt lat="-34.58908709697425365447998046875" lon="-59.0355424582958221435546875">
        <ele>43.40000152587890625</ele>
        <time>2020-02-24T14:13:51.000Z</time>
      </trkpt>
      <trkpt lat="-34.5889777131378650665283203125" lon="-59.03600488789379596710205078125">
        <ele>43.40000152587890625</ele>
        <time>2020-02-24T14:14:03.000Z</time>
      </trkpt>
      <trkpt lat="-34.58887704648077487945556640625" lon="-59.03642616234719753265380859375">
        <ele>43.59999847412109375</ele>
        <time>2020-02-24T14:14:15.000Z</time>
      </trkpt>
      <trkpt lat="-34.5887522399425506591796875" lon="-59.03695103712379932403564453125">
        <ele>43.200000762939453125</ele>
        <time>2020-02-24T14:14:29.000Z</time>
      </trkpt>
      <trkpt lat="-34.5886293612420558929443359375" lon="-59.03739360161125659942626953125">
        <ele>43.40000152587890625</ele>
        <time>2020-02-24T14:14:41.000Z</time>
      </trkpt>
      <trkpt lat="-34.5885639823973178863525390625" lon="-59.03762477450072765350341796875">
        <ele>43.59999847412109375</ele>
        <time>2020-02-24T14:14:48.000Z</time>
      </trkpt>
      <trkpt lat="-34.5885133557021617889404296875" lon="-59.03783616609871387481689453125">
        <ele>43.59999847412109375</ele>
        <time>2020-02-24T14:14:55.000Z</time>
      </trkpt>
      <trkpt lat="-34.588446803390979766845703125" lon="-59.038121066987514495849609375">
        <ele>43.59999847412109375</ele>
        <time>2020-02-24T14:15:03.000Z</time>
      </trkpt>
      <trkpt lat="-34.58834077231585979461669921875" lon="-59.03840965591371059417724609375">
        <ele>43.40000152587890625</ele>
        <time>2020-02-24T14:15:11.000Z</time>
      </trkpt>
      <trkpt lat="-34.58814396522939205169677734375" lon="-59.03866924345493316650390625">
        <ele>43.40000152587890625</ele>
        <time>2020-02-24T14:15:20.000Z</time>
      </trkpt>
      <trkpt lat="-34.58795453421771526336669921875" lon="-59.0387941338121891021728515625">
        <ele>43.799999237060546875</ele>
        <time>2020-02-24T14:15:27.000Z</time>
      </trkpt>
      <trkpt lat="-34.58775102160871028900146484375" lon="-59.03879857622087001800537109375">
        <ele>44</ele>
        <time>2020-02-24T14:15:34.000Z</time>
      </trkpt>
      <trkpt lat="-34.5877237804234027862548828125" lon="-59.0387901104986667633056640625">
        <ele>44</ele>
        <time>2020-02-24T14:15:35.000Z</time>
      </trkpt>
      <trkpt lat="-34.587581455707550048828125" lon="-59.0386982448399066925048828125">
        <ele>45</ele>
        <time>2020-02-24T14:15:41.000Z</time>
      </trkpt>
      <trkpt lat="-34.5875452458858489990234375" lon="-59.0386570058763027191162109375">
        <ele>45</ele>
        <time>2020-02-24T14:15:43.000Z</time>
      </trkpt>
      <trkpt lat="-34.5874790288507938385009765625" lon="-59.03854024596512317657470703125">
        <ele>45.40000152587890625</ele>
        <time>2020-02-24T14:15:48.000Z</time>
      </trkpt>
      <trkpt lat="-34.5874438248574733734130859375" lon="-59.0383921377360820770263671875">
        <ele>46</ele>
        <time>2020-02-24T14:15:53.000Z</time>
      </trkpt>
      <trkpt lat="-34.5874379575252532958984375" lon="-59.03830203227698802947998046875">
        <ele>46.40000152587890625</ele>
        <time>2020-02-24T14:15:56.000Z</time>
      </trkpt>
      <trkpt lat="-34.5874679647386074066162109375" lon="-59.038111679255962371826171875">
        <ele>47.200000762939453125</ele>
        <time>2020-02-24T14:16:03.000Z</time>
      </trkpt>
      <trkpt lat="-34.58747743628919124603271484375" lon="-59.03808644972741603851318359375">
        <ele>47.200000762939453125</ele>
        <time>2020-02-24T14:16:04.000Z</time>
      </trkpt>
      <trkpt lat="-34.5875873230397701263427734375" lon="-59.03792283497750759124755859375">
        <ele>48.200000762939453125</ele>
        <time>2020-02-24T14:16:12.000Z</time>
      </trkpt>
      <trkpt lat="-34.58760417066514492034912109375" lon="-59.03790657408535480499267578125">
        <ele>48.200000762939453125</ele>
        <time>2020-02-24T14:16:13.000Z</time>
      </trkpt>
      <trkpt lat="-34.5877787657082080841064453125" lon="-59.0377702005207538604736328125">
        <ele>48.799999237060546875</ele>
        <time>2020-02-24T14:16:23.000Z</time>
      </trkpt>
      <trkpt lat="-34.58793492056429386138916015625" lon="-59.03770633041858673095703125">
        <ele>49.200000762939453125</ele>
        <time>2020-02-24T14:16:31.000Z</time>
      </trkpt>
      <trkpt lat="-34.58797909319400787353515625" lon="-59.03769560158252716064453125">
        <ele>49.200000762939453125</ele>
        <time>2020-02-24T14:16:33.000Z</time>
      </trkpt>
      <trkpt lat="-34.588179253041744232177734375" lon="-59.03767657466232776641845703125">
        <ele>49.799999237060546875</ele>
        <time>2020-02-24T14:16:42.000Z</time>
      </trkpt>
      <trkpt lat="-34.58820498548448085784912109375" lon="-59.0376766584813594818115234375">
        <ele>49.799999237060546875</ele>
        <time>2020-02-24T14:16:43.000Z</time>
      </trkpt>
      <trkpt lat="-34.5884114317595958709716796875" lon="-59.03769199736416339874267578125">
        <ele>50</ele>
        <time>2020-02-24T14:16:51.000Z</time>
      </trkpt>
      <trkpt lat="-34.5885690115392208099365234375" lon="-59.03769618831574916839599609375">
        <ele>50.200000762939453125</ele>
        <time>2020-02-24T14:16:57.000Z</time>
      </trkpt>
      <trkpt lat="-34.58868124522268772125244140625" lon="-59.03770188800990581512451171875">
        <ele>50.200000762939453125</ele>
        <time>2020-02-24T14:17:01.000Z</time>
      </trkpt>
      <trkpt lat="-34.5891047827899456024169921875" lon="-59.03772032819688320159912109375">
        <ele>50.200000762939453125</ele>
        <time>2020-02-24T14:17:15.000Z</time>
      </trkpt>
      <trkpt lat="-34.5893704891204833984375" lon="-59.03772518970072269439697265625">
        <ele>50.59999847412109375</ele>
        <time>2020-02-24T14:17:23.000Z</time>
      </trkpt>
      <trkpt lat="-34.58977692760527133941650390625" lon="-59.037738852202892303466796875">
        <ele>50.200000762939453125</ele>
        <time>2020-02-24T14:17:34.000Z</time>
      </trkpt>
      <trkpt lat="-34.5901833660900592803955078125" lon="-59.0377544425427913665771484375">
        <ele>49.799999237060546875</ele>
        <time>2020-02-24T14:17:45.000Z</time>
      </trkpt>
      <trkpt lat="-34.59048888646066188812255859375" lon="-59.0377691946923732757568359375">
        <ele>49.200000762939453125</ele>
        <time>2020-02-24T14:17:54.000Z</time>
      </trkpt>
      <trkpt lat="-34.59052694030106067657470703125" lon="-59.0377713739871978759765625">
        <ele>49.200000762939453125</ele>
        <time>2020-02-24T14:17:55.000Z</time>
      </trkpt>
      <trkpt lat="-34.59083153866231441497802734375" lon="-59.03777799569070339202880859375">
        <ele>48.59999847412109375</ele>
        <time>2020-02-24T14:18:03.000Z</time>
      </trkpt>
      <trkpt lat="-34.5910674892365932464599609375" lon="-59.03778679668903350830078125">
        <ele>48</ele>
        <time>2020-02-24T14:18:09.000Z</time>
      </trkpt>
      <trkpt lat="-34.5911070518195629119873046875" lon="-59.0377923287451267242431640625">
        <ele>48</ele>
        <time>2020-02-24T14:18:10.000Z</time>
      </trkpt>
      <trkpt lat="-34.5911868475377559661865234375" lon="-59.037795178592205047607421875">
        <ele>47.799999237060546875</ele>
        <time>2020-02-24T14:18:12.000Z</time>
      </trkpt>
      <trkpt lat="-34.59143218584358692169189453125" lon="-59.03780213557183742523193359375">
        <ele>47</ele>
        <time>2020-02-24T14:18:18.000Z</time>
      </trkpt>
      <trkpt lat="-34.591552130877971649169921875" lon="-59.0378087572753429412841796875">
        <ele>46.799999237060546875</ele>
        <time>2020-02-24T14:18:21.000Z</time>
      </trkpt>
      <trkpt lat="-34.591786824166774749755859375" lon="-59.03782208450138568878173828125">
        <ele>46</ele>
        <time>2020-02-24T14:18:27.000Z</time>
      </trkpt>
      <trkpt lat="-34.59182663820683956146240234375" lon="-59.0378235094249248504638671875">
        <ele>45.799999237060546875</ele>
        <time>2020-02-24T14:18:28.000Z</time>
      </trkpt>
      <trkpt lat="-34.59214858710765838623046875" lon="-59.0378493256866931915283203125">
        <ele>45</ele>
        <time>2020-02-24T14:18:36.000Z</time>
      </trkpt>
      <trkpt lat="-34.59223014302551746368408203125" lon="-59.037853181362152099609375">
        <ele>44.799999237060546875</ele>
        <time>2020-02-24T14:18:38.000Z</time>
      </trkpt>
      <trkpt lat="-34.59258251823484897613525390625" lon="-59.03788578696548938751220703125">
        <ele>44</ele>
        <time>2020-02-24T14:18:47.000Z</time>
      </trkpt>
      <trkpt lat="-34.592657871544361114501953125" lon="-59.0378922410309314727783203125">
        <ele>43.799999237060546875</ele>
        <time>2020-02-24T14:18:49.000Z</time>
      </trkpt>
      <trkpt lat="-34.59292240440845489501953125" lon="-59.037915877997875213623046875">
        <ele>43.799999237060546875</ele>
        <time>2020-02-24T14:18:56.000Z</time>
      </trkpt>
      <trkpt lat="-34.59315776824951171875" lon="-59.037957452237606048583984375">
        <ele>43.59999847412109375</ele>
        <time>2020-02-24T14:19:03.000Z</time>
      </trkpt>
      <trkpt lat="-34.59330285899341106414794921875" lon="-59.03797513805329799652099609375">
        <ele>43.40000152587890625</ele>
        <time>2020-02-24T14:19:09.000Z</time>
      </trkpt>
      <trkpt lat="-34.593306295573711395263671875" lon="-59.037973545491695404052734375">
        <ele>43.40000152587890625</ele>
        <time>2020-02-24T14:19:18.000Z</time>
      </trkpt>
      <trkpt lat="-34.59330570884048938751220703125" lon="-59.03797295875847339630126953125">
        <ele>43</ele>
        <time>2020-02-24T14:19:34.000Z</time>
      </trkpt>
      <trkpt lat="-34.5933057926595211029052734375" lon="-59.03797279112040996551513671875">
        <ele>43</ele>
        <time>2020-02-24T14:19:40.000Z</time>
      </trkpt>
      <trkpt lat="-34.59330604411661624908447265625" lon="-59.037970192730426788330078125">
        <ele>43.40000152587890625</ele>
        <time>2020-02-24T14:19:56.000Z</time>
      </trkpt>
      <trkpt lat="-34.59330721758306026458740234375" lon="-59.037974216043949127197265625">
        <ele>43.200000762939453125</ele>
        <time>2020-02-24T14:20:08.000Z</time>
      </trkpt>
      <trkpt lat="-34.5933066308498382568359375" lon="-59.03797346167266368865966796875">
        <ele>43.200000762939453125</ele>
        <time>2020-02-24T14:20:28.000Z</time>
      </trkpt>
      <trkpt lat="-34.593307636678218841552734375" lon="-59.0379737131297588348388671875">
        <ele>43.200000762939453125</ele>
        <time>2020-02-24T14:20:45.000Z</time>
      </trkpt>
      <trkpt lat="-34.59331224672496318817138671875" lon="-59.03797362931072711944580078125">
        <ele>43.40000152587890625</ele>
        <time>2020-02-24T14:21:12.000Z</time>
      </trkpt>
      <trkpt lat="-34.5933889411389827728271484375" lon="-59.037981592118740081787109375">
        <ele>43.40000152587890625</ele>
        <time>2020-02-24T14:21:18.000Z</time>
      </trkpt>
      <trkpt lat="-34.59351785480976104736328125" lon="-59.0379975177347660064697265625">
        <ele>43.200000762939453125</ele>
        <time>2020-02-24T14:21:24.000Z</time>
      </trkpt>
      <trkpt lat="-34.593740142881870269775390625" lon="-59.0380166284739971160888671875">
        <ele>43.200000762939453125</ele>
        <time>2020-02-24T14:21:32.000Z</time>
      </trkpt>
      <trkpt lat="-34.59403686225414276123046875" lon="-59.03804822824895381927490234375">
        <ele>43.200000762939453125</ele>
        <time>2020-02-24T14:21:41.000Z</time>
      </trkpt>
      <trkpt lat="-34.59444413892924785614013671875" lon="-59.03808427043259143829345703125">
        <ele>43.200000762939453125</ele>
        <time>2020-02-24T14:21:52.000Z</time>
      </trkpt>
      <trkpt lat="-34.59491637535393238067626953125" lon="-59.03811310417950153350830078125">
        <ele>43.59999847412109375</ele>
        <time>2020-02-24T14:22:04.000Z</time>
      </trkpt>
      <trkpt lat="-34.59545399062335491180419921875" lon="-59.03812936507165431976318359375">
        <ele>43.59999847412109375</ele>
        <time>2020-02-24T14:22:17.000Z</time>
      </trkpt>
      <trkpt lat="-34.59591918624937534332275390625" lon="-59.0381393395364284515380859375">
        <ele>43.40000152587890625</ele>
        <time>2020-02-24T14:22:28.000Z</time>
      </trkpt>
      <trkpt lat="-34.59636275656521320343017578125" lon="-59.03815702535212039947509765625">
        <ele>43.59999847412109375</ele>
        <time>2020-02-24T14:22:38.000Z</time>
      </trkpt>
      <trkpt lat="-34.596853516995906829833984375" lon="-59.038170017302036285400390625">
        <ele>43.59999847412109375</ele>
        <time>2020-02-24T14:22:49.000Z</time>
      </trkpt>
      <trkpt lat="-34.597390629351139068603515625" lon="-59.03818686492741107940673828125">
        <ele>43.799999237060546875</ele>
        <time>2020-02-24T14:23:02.000Z</time>
      </trkpt>
      <trkpt lat="-34.59793553687632083892822265625" lon="-59.03820253908634185791015625">
        <ele>43.799999237060546875</ele>
        <time>2020-02-24T14:23:13.000Z</time>
      </trkpt>
      <trkpt lat="-34.59798239171504974365234375" lon="-59.0382057242095470428466796875">
        <ele>43.799999237060546875</ele>
        <time>2020-02-24T14:23:14.000Z</time>
      </trkpt>
      <trkpt lat="-34.5983974635601043701171875" lon="-59.0382184647023677825927734375">
        <ele>43.59999847412109375</ele>
        <time>2020-02-24T14:23:23.000Z</time>
      </trkpt>
      <trkpt lat="-34.598864503204822540283203125" lon="-59.03823346830904483795166015625">
        <ele>43.799999237060546875</ele>
        <time>2020-02-24T14:23:33.000Z</time>
      </trkpt>
      <trkpt lat="-34.599370770156383514404296875" lon="-59.038250483572483062744140625">
        <ele>44</ele>
        <time>2020-02-24T14:23:44.000Z</time>
      </trkpt>
      <trkpt lat="-34.59992892108857631683349609375" lon="-59.0382700972259044647216796875">
        <ele>43.799999237060546875</ele>
        <time>2020-02-24T14:23:56.000Z</time>
      </trkpt>
      <trkpt lat="-34.5999764464795589447021484375" lon="-59.038271605968475341796875">
        <ele>43.799999237060546875</ele>
        <time>2020-02-24T14:23:57.000Z</time>
      </trkpt>
      <trkpt lat="-34.600434601306915283203125" lon="-59.03828166425228118896484375">
        <ele>43.799999237060546875</ele>
        <time>2020-02-24T14:24:07.000Z</time>
      </trkpt>
      <trkpt lat="-34.60083902813494205474853515625" lon="-59.0383093245327472686767578125">
        <ele>43.799999237060546875</ele>
        <time>2020-02-24T14:24:16.000Z</time>
      </trkpt>
      <trkpt lat="-34.60118922404944896697998046875" lon="-59.0383123420178890228271484375">
        <ele>43.799999237060546875</ele>
        <time>2020-02-24T14:24:24.000Z</time>
      </trkpt>
      <trkpt lat="-34.601546712219715118408203125" lon="-59.03832399286329746246337890625">
        <ele>43.59999847412109375</ele>
        <time>2020-02-24T14:24:32.000Z</time>
      </trkpt>
      <trkpt lat="-34.60204971022903919219970703125" lon="-59.038336984813213348388671875">
        <ele>44</ele>
        <time>2020-02-24T14:24:43.000Z</time>
      </trkpt>
      <trkpt lat="-34.60250887088477611541748046875" lon="-59.03835215605795383453369140625">
        <ele>43.799999237060546875</ele>
        <time>2020-02-24T14:24:53.000Z</time>
      </trkpt>
      <trkpt lat="-34.60305042564868927001953125" lon="-59.03836925514042377471923828125">
        <ele>43.799999237060546875</ele>
        <time>2020-02-24T14:25:05.000Z</time>
      </trkpt>
      <trkpt lat="-34.6035548485815525054931640625" lon="-59.0383837558329105377197265625">
        <ele>44.200000762939453125</ele>
        <time>2020-02-24T14:25:16.000Z</time>
      </trkpt>
      <trkpt lat="-34.604098498821258544921875" lon="-59.03840496204793453216552734375">
        <ele>44.200000762939453125</ele>
        <time>2020-02-24T14:25:28.000Z</time>
      </trkpt>
      <trkpt lat="-34.6045023389160633087158203125" lon="-59.03841921128332614898681640625">
        <ele>44.200000762939453125</ele>
        <time>2020-02-24T14:25:37.000Z</time>
      </trkpt>
      <trkpt lat="-34.60508647374808788299560546875" lon="-59.03843882493674755096435546875">
        <ele>44.40000152587890625</ele>
        <time>2020-02-24T14:25:50.000Z</time>
      </trkpt>
      <trkpt lat="-34.60512955673038959503173828125" lon="-59.03843857347965240478515625">
        <ele>44.40000152587890625</ele>
        <time>2020-02-24T14:25:51.000Z</time>
      </trkpt>
      <trkpt lat="-34.6053455583751201629638671875" lon="-59.0384472906589508056640625">
        <ele>44.59999847412109375</ele>
        <time>2020-02-24T14:25:56.000Z</time>
      </trkpt>
      <trkpt lat="-34.605740346014499664306640625" lon="-59.03845525346696376800537109375">
        <ele>44.40000152587890625</ele>
        <time>2020-02-24T14:26:05.000Z</time>
      </trkpt>
      <trkpt lat="-34.6063208766281604766845703125" lon="-59.0384739451110363006591796875">
        <ele>44.59999847412109375</ele>
        <time>2020-02-24T14:26:18.000Z</time>
      </trkpt>
      <trkpt lat="-34.60636639036238193511962890625" lon="-59.03847746551036834716796875">
        <ele>44.799999237060546875</ele>
        <time>2020-02-24T14:26:19.000Z</time>
      </trkpt>
      <trkpt lat="-34.6067738346755504608154296875" lon="-59.03849246911704540252685546875">
        <ele>44.59999847412109375</ele>
        <time>2020-02-24T14:26:28.000Z</time>
      </trkpt>
      <trkpt lat="-34.60721866227686405181884765625" lon="-59.038502275943756103515625">
        <ele>44.799999237060546875</ele>
        <time>2020-02-24T14:26:38.000Z</time>
      </trkpt>
      <trkpt lat="-34.6072630025446414947509765625" lon="-59.0385047905147075653076171875">
        <ele>44.799999237060546875</ele>
        <time>2020-02-24T14:26:39.000Z</time>
      </trkpt>
      <trkpt lat="-34.60760540328919887542724609375" lon="-59.038517363369464874267578125">
        <ele>45</ele>
        <time>2020-02-24T14:26:47.000Z</time>
      </trkpt>
      <trkpt lat="-34.607775472104549407958984375" lon="-59.03853605501353740692138671875">
        <ele>45</ele>
        <time>2020-02-24T14:26:53.000Z</time>
      </trkpt>
      <trkpt lat="-34.60781595669686794281005859375" lon="-59.03853722847998142242431640625">
        <ele>45</ele>
        <time>2020-02-24T14:26:58.000Z</time>
      </trkpt>
      <trkpt lat="-34.60781243629753589630126953125" lon="-59.038535468280315399169921875">
        <ele>44.59999847412109375</ele>
        <time>2020-02-24T14:27:22.000Z</time>
      </trkpt>
      <trkpt lat="-34.60781210102140903472900390625" lon="-59.03853488154709339141845703125">
        <ele>44.200000762939453125</ele>
        <time>2020-02-24T14:27:49.000Z</time>
      </trkpt>
      <trkpt lat="-34.607848227024078369140625" lon="-59.03852750547230243682861328125">
        <ele>44</ele>
        <time>2020-02-24T14:28:03.000Z</time>
      </trkpt>
      <trkpt lat="-34.6079595386981964111328125" lon="-59.03852566145360469818115234375">
        <ele>44.59999847412109375</ele>
        <time>2020-02-24T14:28:11.000Z</time>
      </trkpt>
      <trkpt lat="-34.60809976793825626373291015625" lon="-59.03852817602455615997314453125">
        <ele>44.59999847412109375</ele>
        <time>2020-02-24T14:28:17.000Z</time>
      </trkpt>
      <trkpt lat="-34.60835516452789306640625" lon="-59.03854829259216785430908203125">
        <ele>44.40000152587890625</ele>
        <time>2020-02-24T14:28:25.000Z</time>
      </trkpt>
      <trkpt lat="-34.60869387723505496978759765625" lon="-59.038556255400180816650390625">
        <ele>44.200000762939453125</ele>
        <time>2020-02-24T14:28:34.000Z</time>
      </trkpt>
      <trkpt lat="-34.60906368680298328399658203125" lon="-59.03856455348432064056396484375">
        <ele>44.40000152587890625</ele>
        <time>2020-02-24T14:28:43.000Z</time>
      </trkpt>
      <trkpt lat="-34.60910526104271411895751953125" lon="-59.0385626256465911865234375">
        <ele>44.40000152587890625</ele>
        <time>2020-02-24T14:28:44.000Z</time>
      </trkpt>
      <trkpt lat="-34.6094419620931148529052734375" lon="-59.03857268393039703369140625">
        <ele>44.59999847412109375</ele>
        <time>2020-02-24T14:28:52.000Z</time>
      </trkpt>
      <trkpt lat="-34.60987321101129055023193359375" lon="-59.0385902859270572662353515625">
        <ele>44.40000152587890625</ele>
        <time>2020-02-24T14:29:02.000Z</time>
      </trkpt>
      <trkpt lat="-34.6101669967174530029296875" lon="-59.03859774582087993621826171875">
        <ele>44.40000152587890625</ele>
        <time>2020-02-24T14:29:09.000Z</time>
      </trkpt>
      <trkpt lat="-34.610547535121440887451171875" lon="-59.0385986678302288055419921875">
        <ele>44.200000762939453125</ele>
        <time>2020-02-24T14:29:18.000Z</time>
      </trkpt>
      <trkpt lat="-34.6109916083514690399169921875" lon="-59.03857779689133167266845703125">
        <ele>44.40000152587890625</ele>
        <time>2020-02-24T14:29:28.000Z</time>
      </trkpt>
      <trkpt lat="-34.61144062690436840057373046875" lon="-59.0385433472692966461181640625">
        <ele>44.200000762939453125</ele>
        <time>2020-02-24T14:29:38.000Z</time>
      </trkpt>
      <trkpt lat="-34.61180121637880802154541015625" lon="-59.0385151840746402740478515625">
        <ele>44</ele>
        <time>2020-02-24T14:29:46.000Z</time>
      </trkpt>
      <trkpt lat="-34.6122123487293720245361328125" lon="-59.0384756214916706085205078125">
        <ele>44</ele>
        <time>2020-02-24T14:29:55.000Z</time>
      </trkpt>
      <trkpt lat="-34.61239633150398731231689453125" lon="-59.03846061788499355316162109375">
        <ele>43.799999237060546875</ele>
        <time>2020-02-24T14:29:59.000Z</time>
      </trkpt>
      <trkpt lat="-34.61258165538311004638671875" lon="-59.03844385407865047454833984375">
        <ele>43.799999237060546875</ele>
        <time>2020-02-24T14:30:03.000Z</time>
      </trkpt>
      <trkpt lat="-34.61313846521079540252685546875" lon="-59.038394987583160400390625">
        <ele>43.59999847412109375</ele>
        <time>2020-02-24T14:30:15.000Z</time>
      </trkpt>
      <trkpt lat="-34.61327659897506237030029296875" lon="-59.03838300146162509918212890625">
        <ele>43.59999847412109375</ele>
        <time>2020-02-24T14:30:18.000Z</time>
      </trkpt>
      <trkpt lat="-34.61383349262177944183349609375" lon="-59.03833572752773761749267578125">
        <ele>43.59999847412109375</ele>
        <time>2020-02-24T14:30:30.000Z</time>
      </trkpt>
      <trkpt lat="-34.61437177844345569610595703125" lon="-59.0382888726890087127685546875">
        <ele>43.40000152587890625</ele>
        <time>2020-02-24T14:30:42.000Z</time>
      </trkpt>
      <trkpt lat="-34.61490872316062450408935546875" lon="-59.0382385812699794769287109375">
        <ele>43</ele>
        <time>2020-02-24T14:30:54.000Z</time>
      </trkpt>
      <trkpt lat="-34.6154484339058399200439453125" lon="-59.03818837366998195648193359375">
        <ele>43.200000762939453125</ele>
        <time>2020-02-24T14:31:06.000Z</time>
      </trkpt>
      <trkpt lat="-34.61553837172687053680419921875" lon="-59.03818032704293727874755859375">
        <ele>43.200000762939453125</ele>
        <time>2020-02-24T14:31:08.000Z</time>
      </trkpt>
      <trkpt lat="-34.6159795112907886505126953125" lon="-59.03814143501222133636474609375">
        <ele>43.200000762939453125</ele>
        <time>2020-02-24T14:31:18.000Z</time>
      </trkpt>
      <trkpt lat="-34.6160230971872806549072265625" lon="-59.038134478032588958740234375">
        <ele>43.200000762939453125</ele>
        <time>2020-02-24T14:31:19.000Z</time>
      </trkpt>
      <trkpt lat="-34.616198278963565826416015625" lon="-59.0381145291030406951904296875">
        <ele>43.200000762939453125</ele>
        <time>2020-02-24T14:31:23.000Z</time>
      </trkpt>
      <trkpt lat="-34.6163734607398509979248046875" lon="-59.03810597956180572509765625">
        <ele>43</ele>
        <time>2020-02-24T14:31:27.000Z</time>
      </trkpt>
      <trkpt lat="-34.6168089844286441802978515625" lon="-59.038067422807216644287109375">
        <ele>43.200000762939453125</ele>
        <time>2020-02-24T14:31:37.000Z</time>
      </trkpt>
      <trkpt lat="-34.61720285005867481231689453125" lon="-59.03803397901356220245361328125">
        <ele>43</ele>
        <time>2020-02-24T14:31:46.000Z</time>
      </trkpt>
      <trkpt lat="-34.617639295756816864013671875" lon="-59.03798871673643589019775390625">
        <ele>43.40000152587890625</ele>
        <time>2020-02-24T14:31:56.000Z</time>
      </trkpt>
      <trkpt lat="-34.6180312335491180419921875" lon="-59.037958122789859771728515625">
        <ele>43.200000762939453125</ele>
        <time>2020-02-24T14:32:05.000Z</time>
      </trkpt>
      <trkpt lat="-34.61842727847397327423095703125" lon="-59.03792400844395160675048828125">
        <ele>43.200000762939453125</ele>
        <time>2020-02-24T14:32:14.000Z</time>
      </trkpt>
      <trkpt lat="-34.6188716031610965728759765625" lon="-59.03788779862225055694580078125">
        <ele>43.200000762939453125</ele>
        <time>2020-02-24T14:32:24.000Z</time>
      </trkpt>
      <trkpt lat="-34.61931265890598297119140625" lon="-59.03784387744963169097900390625">
        <ele>43.40000152587890625</ele>
        <time>2020-02-24T14:32:34.000Z</time>
      </trkpt>
      <trkpt lat="-34.61971105076372623443603515625" lon="-59.0378121100366115570068359375">
        <ele>43</ele>
        <time>2020-02-24T14:32:43.000Z</time>
      </trkpt>
      <trkpt lat="-34.6200725622475147247314453125" lon="-59.03778319247066974639892578125">
        <ele>43</ele>
        <time>2020-02-24T14:32:51.000Z</time>
      </trkpt>
      <trkpt lat="-34.620492495596408843994140625" lon="-59.0377470664680004119873046875">
        <ele>43.200000762939453125</ele>
        <time>2020-02-24T14:33:00.000Z</time>
      </trkpt>
      <trkpt lat="-34.62102583609521389007568359375" lon="-59.0376957692205905914306640625">
        <ele>43</ele>
        <time>2020-02-24T14:33:11.000Z</time>
      </trkpt>
      <trkpt lat="-34.62141643278300762176513671875" lon="-59.0376666001975536346435546875">
        <ele>43</ele>
        <time>2020-02-24T14:33:19.000Z</time>
      </trkpt>
      <trkpt lat="-34.62191951461136341094970703125" lon="-59.03761915862560272216796875">
        <ele>43</ele>
        <time>2020-02-24T14:33:29.000Z</time>
      </trkpt>
      <trkpt lat="-34.62232771329581737518310546875" lon="-59.03758420608937740325927734375">
        <ele>42.799999237060546875</ele>
        <time>2020-02-24T14:33:37.000Z</time>
      </trkpt>
      <trkpt lat="-34.622378759086132049560546875" lon="-59.03758118860423564910888671875">
        <ele>42.799999237060546875</ele>
        <time>2020-02-24T14:33:38.000Z</time>
      </trkpt>
      <trkpt lat="-34.6229358203709125518798828125" lon="-59.037528969347476959228515625">
        <ele>42.59999847412109375</ele>
        <time>2020-02-24T14:33:49.000Z</time>
      </trkpt>
      <trkpt lat="-34.62298787198960781097412109375" lon="-59.03752720914781093597412109375">
        <ele>42.59999847412109375</ele>
        <time>2020-02-24T14:33:50.000Z</time>
      </trkpt>
      <trkpt lat="-34.6233948133885860443115234375" lon="-59.03748798184096813201904296875">
        <ele>42.799999237060546875</ele>
        <time>2020-02-24T14:33:58.000Z</time>
      </trkpt>
      <trkpt lat="-34.6238926984369754791259765625" lon="-59.0374423004686832427978515625">
        <ele>42.59999847412109375</ele>
        <time>2020-02-24T14:34:08.000Z</time>
      </trkpt>
      <trkpt lat="-34.6243210136890411376953125" lon="-59.03740860521793365478515625">
        <ele>43</ele>
        <time>2020-02-24T14:34:17.000Z</time>
      </trkpt>
      <trkpt lat="-34.62446786463260650634765625" lon="-59.0374067611992359161376953125">
        <ele>42.799999237060546875</ele>
        <time>2020-02-24T14:34:22.000Z</time>
      </trkpt>
      <trkpt lat="-34.6245034039020538330078125" lon="-59.03750541619956493377685546875">
        <ele>42.799999237060546875</ele>
        <time>2020-02-24T14:34:27.000Z</time>
      </trkpt>
      <trkpt lat="-34.62450214661657810211181640625" lon="-59.03753911145031452178955078125">
        <ele>42.799999237060546875</ele>
        <time>2020-02-24T14:34:31.000Z</time>
      </trkpt>
      <trkpt lat="-34.62449871003627777099609375" lon="-59.03753994964063167572021484375">
        <ele>43</ele>
        <time>2020-02-24T14:34:53.000Z</time>
      </trkpt>
      <trkpt lat="-34.62449871003627777099609375" lon="-59.037541039288043975830078125">
        <ele>43</ele>
        <time>2020-02-24T14:35:05.000Z</time>
      </trkpt>
      <trkpt lat="-34.62449527345597743988037109375" lon="-59.0375398658215999603271484375">
        <ele>43</ele>
        <time>2020-02-24T14:35:15.000Z</time>
      </trkpt>
      <trkpt lat="-34.62449393235146999359130859375" lon="-59.03754179365932941436767578125">
        <ele>43</ele>
        <time>2020-02-24T14:35:32.000Z</time>
      </trkpt>
      <trkpt lat="-34.62449342943727970123291015625" lon="-59.037541039288043975830078125">
        <ele>43</ele>
        <time>2020-02-24T14:36:13.000Z</time>
      </trkpt>
      <trkpt lat="-34.62449393235146999359130859375" lon="-59.0375415422022342681884765625">
        <ele>43</ele>
        <time>2020-02-24T14:36:48.000Z</time>
      </trkpt>
      <trkpt lat="-34.62449393235146999359130859375" lon="-59.037543050944805145263671875">
        <ele>43</ele>
        <time>2020-02-24T14:37:06.000Z</time>
      </trkpt>
      <trkpt lat="-34.6244941838085651397705078125" lon="-59.03754296712577342987060546875">
        <ele>43</ele>
        <time>2020-02-24T14:37:15.000Z</time>
      </trkpt>
      <trkpt lat="-34.6244847960770130157470703125" lon="-59.03755612671375274658203125">
        <ele>43</ele>
        <time>2020-02-24T14:37:33.000Z</time>
      </trkpt>
      <trkpt lat="-34.62447180412709712982177734375" lon="-59.03755067847669124603271484375">
        <ele>43</ele>
        <time>2020-02-24T14:37:35.000Z</time>
      </trkpt>
      <trkpt lat="-34.62446308694779872894287109375" lon="-59.03751580975949764251708984375">
        <ele>43</ele>
        <time>2020-02-24T14:37:38.000Z</time>
      </trkpt>
      <trkpt lat="-34.6244041621685028076171875" lon="-59.03745328076183795928955078125">
        <ele>43.59999847412109375</ele>
        <time>2020-02-24T14:37:45.000Z</time>
      </trkpt>
      <trkpt lat="-34.6242839656770229339599609375" lon="-59.0374580584466457366943359375">
        <ele>43.200000762939453125</ele>
        <time>2020-02-24T14:37:55.000Z</time>
      </trkpt>
      <trkpt lat="-34.62418531067669391632080078125" lon="-59.03746099211275577545166015625">
        <ele>43.200000762939453125</ele>
        <time>2020-02-24T14:38:03.000Z</time>
      </trkpt>
      <trkpt lat="-34.6241723187267780303955078125" lon="-59.0374620817601680755615234375">
        <ele>43.40000152587890625</ele>
        <time>2020-02-24T14:38:04.000Z</time>
      </trkpt>
      <trkpt lat="-34.62407148443162441253662109375" lon="-59.03747406788170337677001953125">
        <ele>43.200000762939453125</ele>
        <time>2020-02-24T14:38:12.000Z</time>
      </trkpt>
      <trkpt lat="-34.6239533834159374237060546875" lon="-59.03747322969138622283935546875">
        <ele>43.200000762939453125</ele>
        <time>2020-02-24T14:38:22.000Z</time>
      </trkpt>
      <trkpt lat="-34.62382589466869831085205078125" lon="-59.0374754928052425384521484375">
        <ele>43.799999237060546875</ele>
        <time>2020-02-24T14:38:32.000Z</time>
      </trkpt>
      <trkpt lat="-34.62381131015717983245849609375" lon="-59.0374768339097499847412109375">
        <ele>43.799999237060546875</ele>
        <time>2020-02-24T14:38:33.000Z</time>
      </trkpt>
      <trkpt lat="-34.6236573345959186553955078125" lon="-59.03749116696417331695556640625">
        <ele>43.40000152587890625</ele>
        <time>2020-02-24T14:38:44.000Z</time>
      </trkpt>
      <trkpt lat="-34.6235249005258083343505859375" lon="-59.03750407509505748748779296875">
        <ele>43.40000152587890625</ele>
        <time>2020-02-24T14:38:54.000Z</time>
      </trkpt>
      <trkpt lat="-34.6233760379254817962646484375" lon="-59.03752335347235202789306640625">
        <ele>43.59999847412109375</ele>
        <time>2020-02-24T14:39:05.000Z</time>
      </trkpt>
      <trkpt lat="-34.623295404016971588134765625" lon="-59.0375284664332866668701171875">
        <ele>43.40000152587890625</ele>
        <time>2020-02-24T14:39:12.000Z</time>
      </trkpt>
      <trkpt lat="-34.6231805719435214996337890625" lon="-59.0375460684299468994140625">
        <ele>43.59999847412109375</ele>
        <time>2020-02-24T14:39:20.000Z</time>
      </trkpt>
      <trkpt lat="-34.6230199746787548065185546875" lon="-59.03755906037986278533935546875">
        <ele>43.40000152587890625</ele>
        <time>2020-02-24T14:39:32.000Z</time>
      </trkpt>
      <trkpt lat="-34.622907154262065887451171875" lon="-59.0375606529414653778076171875">
        <ele>43.59999847412109375</ele>
        <time>2020-02-24T14:39:41.000Z</time>
      </trkpt>
      <trkpt lat="-34.622755609452724456787109375" lon="-59.037563167512416839599609375">
        <ele>43.59999847412109375</ele>
        <time>2020-02-24T14:39:52.000Z</time>
      </trkpt>
      <trkpt lat="-34.6226414479315280914306640625" lon="-59.03757280670106410980224609375">
        <ele>44</ele>
        <time>2020-02-24T14:40:01.000Z</time>
      </trkpt>
      <trkpt lat="-34.62254069745540618896484375" lon="-59.0375857986509799957275390625">
        <ele>43.799999237060546875</ele>
        <time>2020-02-24T14:40:09.000Z</time>
      </trkpt>
      <trkpt lat="-34.62240633554756641387939453125" lon="-59.03759409673511981964111328125">
        <ele>43.59999847412109375</ele>
        <time>2020-02-24T14:40:19.000Z</time>
      </trkpt>
      <trkpt lat="-34.622235596179962158203125" lon="-59.03760884888470172882080078125">
        <ele>43.799999237060546875</ele>
        <time>2020-02-24T14:40:31.000Z</time>
      </trkpt>
      <trkpt lat="-34.62206334806978702545166015625" lon="-59.037633240222930908203125">
        <ele>43.799999237060546875</ele>
        <time>2020-02-24T14:40:43.000Z</time>
      </trkpt>
      <trkpt lat="-34.62193594314157962799072265625" lon="-59.0376709587872028350830078125">
        <ele>43.59999847412109375</ele>
        <time>2020-02-24T14:40:53.000Z</time>
      </trkpt>
      <trkpt lat="-34.62189738638699054718017578125" lon="-59.0377950109541416168212890625">
        <ele>43.200000762939453125</ele>
        <time>2020-02-24T14:41:01.000Z</time>
      </trkpt>
      <trkpt lat="-34.6218951232731342315673828125" lon="-59.03782862238585948944091796875">
        <ele>43.200000762939453125</ele>
        <time>2020-02-24T14:41:07.000Z</time>
      </trkpt>
      <trkpt lat="-34.621893949806690216064453125" lon="-59.03783314861357212066650390625">
        <ele>43.200000762939453125</ele>
        <time>2020-02-24T14:41:16.000Z</time>
      </trkpt>
      <trkpt lat="-34.62189269252121448516845703125" lon="-59.0378560312092304229736328125">
        <ele>43.200000762939453125</ele>
        <time>2020-02-24T14:41:19.000Z</time>
      </trkpt>
      <trkpt lat="-34.62189554236829280853271484375" lon="-59.037916548550128936767578125">
        <ele>43</ele>
        <time>2020-02-24T14:41:22.000Z</time>
      </trkpt>
      <trkpt lat="-34.62189956568181514739990234375" lon="-59.03801050968468189239501953125">
        <ele>42.799999237060546875</ele>
        <time>2020-02-24T14:41:26.000Z</time>
      </trkpt>
      <trkpt lat="-34.6219014935195446014404296875" lon="-59.03801939450204372406005859375">
        <ele>42.799999237060546875</ele>
        <time>2020-02-24T14:41:28.000Z</time>
      </trkpt>
      <trkpt lat="-34.62190627120435237884521484375" lon="-59.03803532011806964874267578125">
        <ele>42.40000152587890625</ele>
        <time>2020-02-24T14:41:46.000Z</time>
      </trkpt>
      <trkpt lat="-34.6219055168330669403076171875" lon="-59.03816674835979938507080078125">
        <ele>42.200000762939453125</ele>
        <time>2020-02-24T14:41:52.000Z</time>
      </trkpt>
      <trkpt lat="-34.62191264145076274871826171875" lon="-59.0383009426295757293701171875">
        <ele>42.200000762939453125</ele>
        <time>2020-02-24T14:41:58.000Z</time>
      </trkpt>
      <trkpt lat="-34.62191306054592132568359375" lon="-59.0383104979991912841796875">
        <ele>42</ele>
        <time>2020-02-24T14:42:07.000Z</time>
      </trkpt>
      <trkpt lat="-34.62191171944141387939453125" lon="-59.038330279290676116943359375">
        <ele>41.799999237060546875</ele>
        <time>2020-02-24T14:42:18.000Z</time>
      </trkpt>
      <trkpt lat="-34.62191280908882617950439453125" lon="-59.03834561817348003387451171875">
        <ele>41.799999237060546875</ele>
        <time>2020-02-24T14:42:19.000Z</time>
      </trkpt>
      <trkpt lat="-34.62192513048648834228515625" lon="-59.0384863503277301788330078125">
        <ele>42</ele>
        <time>2020-02-24T14:42:24.000Z</time>
      </trkpt>
      <trkpt lat="-34.621938206255435943603515625" lon="-59.038813412189483642578125">
        <ele>41.40000152587890625</ele>
        <time>2020-02-24T14:42:32.000Z</time>
      </trkpt>
      <trkpt lat="-34.6219606697559356689453125" lon="-59.03910837136209011077880859375">
        <ele>41.59999847412109375</ele>
        <time>2020-02-24T14:42:39.000Z</time>
      </trkpt>
      <trkpt lat="-34.62197114713490009307861328125" lon="-59.03937290422618389129638671875">
        <ele>41.59999847412109375</ele>
        <time>2020-02-24T14:42:45.000Z</time>
      </trkpt>
      <trkpt lat="-34.6219906769692897796630859375" lon="-59.03964716009795665740966796875">
        <ele>42</ele>
        <time>2020-02-24T14:42:52.000Z</time>
      </trkpt>
      <trkpt lat="-34.6219849772751331329345703125" lon="-59.03989945538341999053955078125">
        <ele>41.799999237060546875</ele>
        <time>2020-02-24T14:42:59.000Z</time>
      </trkpt>
      <trkpt lat="-34.62199210189282894134521484375" lon="-59.040121994912624359130859375">
        <ele>41.40000152587890625</ele>
        <time>2020-02-24T14:43:06.000Z</time>
      </trkpt>
      <trkpt lat="-34.6220077760517597198486328125" lon="-59.04038317501544952392578125">
        <ele>41.59999847412109375</ele>
        <time>2020-02-24T14:43:14.000Z</time>
      </trkpt>
      <trkpt lat="-34.6220171637833118438720703125" lon="-59.04045383445918560028076171875">
        <ele>41.59999847412109375</ele>
        <time>2020-02-24T14:43:18.000Z</time>
      </trkpt>
      <trkpt lat="-34.62201900780200958251953125" lon="-59.0404643118381500244140625">
        <ele>41.59999847412109375</ele>
        <time>2020-02-24T14:43:34.000Z</time>
      </trkpt>
      <trkpt lat="-34.62201892398297786712646484375" lon="-59.04047445394098758697509765625">
        <ele>41.59999847412109375</ele>
        <time>2020-02-24T14:43:35.000Z</time>
      </trkpt>
      <trkpt lat="-34.62201423011720180511474609375" lon="-59.040584675967693328857421875">
        <ele>41.59999847412109375</ele>
        <time>2020-02-24T14:43:41.000Z</time>
      </trkpt>
      <trkpt lat="-34.622013308107852935791015625" lon="-59.04065432958304882049560546875">
        <ele>41.40000152587890625</ele>
        <time>2020-02-24T14:43:44.000Z</time>
      </trkpt>
      <trkpt lat="-34.622012637555599212646484375" lon="-59.040729515254497528076171875">
        <ele>41.40000152587890625</ele>
        <time>2020-02-24T14:43:47.000Z</time>
      </trkpt>
      <trkpt lat="-34.62202646769583225250244140625" lon="-59.04097535647451877593994140625">
        <ele>41.40000152587890625</ele>
        <time>2020-02-24T14:43:54.000Z</time>
      </trkpt>
      <trkpt lat="-34.622050859034061431884765625" lon="-59.04131314717233180999755859375">
        <ele>41.59999847412109375</ele>
        <time>2020-02-24T14:44:02.000Z</time>
      </trkpt>
      <trkpt lat="-34.62205412797629833221435546875" lon="-59.0416605770587921142578125">
        <ele>41.200000762939453125</ele>
        <time>2020-02-24T14:44:10.000Z</time>
      </trkpt>
      <trkpt lat="-34.6220711432397365570068359375" lon="-59.04211529530584812164306640625">
        <ele>41.40000152587890625</ele>
        <time>2020-02-24T14:44:20.000Z</time>
      </trkpt>
      <trkpt lat="-34.6221060119569301605224609375" lon="-59.042419306933879852294921875">
        <ele>41.59999847412109375</ele>
        <time>2020-02-24T14:44:27.000Z</time>
      </trkpt>
      <trkpt lat="-34.62213979102671146392822265625" lon="-59.042635224759578704833984375">
        <ele>41.799999237060546875</ele>
        <time>2020-02-24T14:44:33.000Z</time>
      </trkpt>
      <trkpt lat="-34.62212554179131984710693359375" lon="-59.04278643429279327392578125">
        <ele>41.59999847412109375</ele>
        <time>2020-02-24T14:44:38.000Z</time>
      </trkpt>
      <trkpt lat="-34.62210291065275669097900390625" lon="-59.04303797520697116851806640625">
        <ele>41.200000762939453125</ele>
        <time>2020-02-24T14:44:46.000Z</time>
      </trkpt>
      <trkpt lat="-34.62210576049983501434326171875" lon="-59.043208546936511993408203125">
        <ele>40.799999237060546875</ele>
        <time>2020-02-24T14:44:52.000Z</time>
      </trkpt>
      <trkpt lat="-34.62209821678698062896728515625" lon="-59.043423794209957122802734375">
        <ele>41.40000152587890625</ele>
        <time>2020-02-24T14:44:59.000Z</time>
      </trkpt>
      <trkpt lat="-34.622090756893157958984375" lon="-59.04364868067204952239990234375">
        <ele>41.59999847412109375</ele>
        <time>2020-02-24T14:45:06.000Z</time>
      </trkpt>
      <trkpt lat="-34.62207265198230743408203125" lon="-59.043883793056011199951171875">
        <ele>41.59999847412109375</ele>
        <time>2020-02-24T14:45:12.000Z</time>
      </trkpt>
      <trkpt lat="-34.6220677904784679412841796875" lon="-59.04414522461593151092529296875">
        <ele>41.59999847412109375</ele>
        <time>2020-02-24T14:45:19.000Z</time>
      </trkpt>
      <trkpt lat="-34.62207223288714885711669921875" lon="-59.0443885512650012969970703125">
        <ele>41.59999847412109375</ele>
        <time>2020-02-24T14:45:27.000Z</time>
      </trkpt>
      <trkpt lat="-34.62206854484975337982177734375" lon="-59.0446172095835208892822265625">
        <ele>41.40000152587890625</ele>
        <time>2020-02-24T14:45:34.000Z</time>
      </trkpt>
      <trkpt lat="-34.6220719814300537109375" lon="-59.0447962470352649688720703125">
        <ele>41.40000152587890625</ele>
        <time>2020-02-24T14:45:40.000Z</time>
      </trkpt>
      <trkpt lat="-34.6220684610307216644287109375" lon="-59.04504217207431793212890625">
        <ele>41.59999847412109375</ele>
        <time>2020-02-24T14:45:47.000Z</time>
      </trkpt>
      <trkpt lat="-34.62206988595426082611083984375" lon="-59.04527091421186923980712890625">
        <ele>41.59999847412109375</ele>
        <time>2020-02-24T14:45:53.000Z</time>
      </trkpt>
      <trkpt lat="-34.62207005359232425689697265625" lon="-59.04551113955676555633544921875">
        <ele>41.40000152587890625</ele>
        <time>2020-02-24T14:46:00.000Z</time>
      </trkpt>
      <trkpt lat="-34.6220530383288860321044921875" lon="-59.04571465216577053070068359375">
        <ele>41.40000152587890625</ele>
        <time>2020-02-24T14:46:07.000Z</time>
      </trkpt>
      <trkpt lat="-34.6220466680824756622314453125" lon="-59.04593677259981632232666015625">
        <ele>41.59999847412109375</ele>
        <time>2020-02-24T14:46:14.000Z</time>
      </trkpt>
      <trkpt lat="-34.62205764837563037872314453125" lon="-59.0461806021630764007568359375">
        <ele>42</ele>
        <time>2020-02-24T14:46:21.000Z</time>
      </trkpt>
      <trkpt lat="-34.6220604144036769866943359375" lon="-59.0464327298104763031005859375">
        <ele>42</ele>
        <time>2020-02-24T14:46:28.000Z</time>
      </trkpt>
      <trkpt lat="-34.62206552736461162567138671875" lon="-59.04664269648492336273193359375">
        <ele>41.59999847412109375</ele>
        <time>2020-02-24T14:46:34.000Z</time>
      </trkpt>
      <trkpt lat="-34.62203778326511383056640625" lon="-59.0469688363373279571533203125">
        <ele>41.799999237060546875</ele>
        <time>2020-02-24T14:46:42.000Z</time>
      </trkpt>
      <trkpt lat="-34.6220171637833118438720703125" lon="-59.04721233062446117401123046875">
        <ele>41.799999237060546875</ele>
        <time>2020-02-24T14:46:48.000Z</time>
      </trkpt>
      <trkpt lat="-34.62198673747479915618896484375" lon="-59.0474643744528293609619140625">
        <ele>41.799999237060546875</ele>
        <time>2020-02-24T14:46:55.000Z</time>
      </trkpt>
      <trkpt lat="-34.62198958732187747955322265625" lon="-59.0477158315479755401611328125">
        <ele>42</ele>
        <time>2020-02-24T14:47:02.000Z</time>
      </trkpt>
      <trkpt lat="-34.62195857428014278411865234375" lon="-59.04796443879604339599609375">
        <ele>42.200000762939453125</ele>
        <time>2020-02-24T14:47:09.000Z</time>
      </trkpt>
      <trkpt lat="-34.62197667919099330902099609375" lon="-59.0482113696634769439697265625">
        <ele>42</ele>
        <time>2020-02-24T14:47:16.000Z</time>
      </trkpt>
      <trkpt lat="-34.62198807857930660247802734375" lon="-59.04850297607481479644775390625">
        <ele>42.200000762939453125</ele>
        <time>2020-02-24T14:47:24.000Z</time>
      </trkpt>
      <trkpt lat="-34.621997885406017303466796875" lon="-59.04874588362872600555419921875">
        <ele>42</ele>
        <time>2020-02-24T14:47:31.000Z</time>
      </trkpt>
      <trkpt lat="-34.62201221846044063568115234375" lon="-59.049041680991649627685546875">
        <ele>42.200000762939453125</ele>
        <time>2020-02-24T14:47:40.000Z</time>
      </trkpt>
      <trkpt lat="-34.62200333364307880401611328125" lon="-59.04932306148111820220947265625">
        <ele>42.200000762939453125</ele>
        <time>2020-02-24T14:47:48.000Z</time>
      </trkpt>
      <trkpt lat="-34.62202998809516429901123046875" lon="-59.0496071241796016693115234375">
        <ele>42.200000762939453125</ele>
        <time>2020-02-24T14:47:56.000Z</time>
      </trkpt>
      <trkpt lat="-34.62202839553356170654296875" lon="-59.0498384647071361541748046875">
        <ele>42.59999847412109375</ele>
        <time>2020-02-24T14:48:03.000Z</time>
      </trkpt>
      <trkpt lat="-34.622001238167285919189453125" lon="-59.0501241199672222137451171875">
        <ele>42.59999847412109375</ele>
        <time>2020-02-24T14:48:12.000Z</time>
      </trkpt>
      <trkpt lat="-34.6220047585666179656982421875" lon="-59.0505344979465007781982421875">
        <ele>42.799999237060546875</ele>
        <time>2020-02-24T14:48:24.000Z</time>
      </trkpt>
      <trkpt lat="-34.62200383655726909637451171875" lon="-59.0509291179478168487548828125">
        <ele>42.799999237060546875</ele>
        <time>2020-02-24T14:48:35.000Z</time>
      </trkpt>
      <trkpt lat="-34.622003249824047088623046875" lon="-59.051258526742458343505859375">
        <ele>43</ele>
        <time>2020-02-24T14:48:44.000Z</time>
      </trkpt>
      <trkpt lat="-34.6220024116337299346923828125" lon="-59.0516214631497859954833984375">
        <ele>43.200000762939453125</ele>
        <time>2020-02-24T14:48:54.000Z</time>
      </trkpt>
      <trkpt lat="-34.62199595756828784942626953125" lon="-59.0518977306783199310302734375">
        <ele>43</ele>
        <time>2020-02-24T14:49:02.000Z</time>
      </trkpt>
      <trkpt lat="-34.6219977177679538726806640625" lon="-59.0522229485213756561279296875">
        <ele>43.200000762939453125</ele>
        <time>2020-02-24T14:49:11.000Z</time>
      </trkpt>
      <trkpt lat="-34.62199847213923931121826171875" lon="-59.05251522548496723175048828125">
        <ele>43.40000152587890625</ele>
        <time>2020-02-24T14:49:19.000Z</time>
      </trkpt>
      <trkpt lat="-34.6219953708350658416748046875" lon="-59.0528411976993083953857421875">
        <ele>43.59999847412109375</ele>
        <time>2020-02-24T14:49:28.000Z</time>
      </trkpt>
      <trkpt lat="-34.62199763394892215728759765625" lon="-59.05295359902083873748779296875">
        <ele>43.59999847412109375</ele>
        <time>2020-02-24T14:49:31.000Z</time>
      </trkpt>
      <trkpt lat="-34.6219950355589389801025390625" lon="-59.05331955291330814361572265625">
        <ele>43.59999847412109375</ele>
        <time>2020-02-24T14:49:41.000Z</time>
      </trkpt>
      <trkpt lat="-34.62198656983673572540283203125" lon="-59.05361945740878582000732421875">
        <ele>43.59999847412109375</ele>
        <time>2020-02-24T14:49:50.000Z</time>
      </trkpt>
      <trkpt lat="-34.6219846419990062713623046875" lon="-59.05384979210793972015380859375">
        <ele>43.40000152587890625</ele>
        <time>2020-02-24T14:49:58.000Z</time>
      </trkpt>
      <trkpt lat="-34.62198757566511631011962890625" lon="-59.05412740074098110198974609375">
        <ele>43.59999847412109375</ele>
        <time>2020-02-24T14:50:08.000Z</time>
      </trkpt>
      <trkpt lat="-34.62199243716895580291748046875" lon="-59.0543499402701854705810546875">
        <ele>43.40000152587890625</ele>
        <time>2020-02-24T14:50:17.000Z</time>
      </trkpt>
      <trkpt lat="-34.62199780158698558807373046875" lon="-59.05458102934062480926513671875">
        <ele>43.40000152587890625</ele>
        <time>2020-02-24T14:50:26.000Z</time>
      </trkpt>
      <trkpt lat="-34.62199696339666843414306640625" lon="-59.05481882393360137939453125">
        <ele>43.59999847412109375</ele>
        <time>2020-02-24T14:50:35.000Z</time>
      </trkpt>
      <trkpt lat="-34.62199914269149303436279296875" lon="-59.05512593686580657958984375">
        <ele>43.799999237060546875</ele>
        <time>2020-02-24T14:50:46.000Z</time>
      </trkpt>
      <trkpt lat="-34.6219983883202075958251953125" lon="-59.05520774424076080322265625">
        <ele>44</ele>
        <time>2020-02-24T14:50:49.000Z</time>
      </trkpt>
      <trkpt lat="-34.6220000647008419036865234375" lon="-59.0553249232470989227294921875">
        <ele>44</ele>
        <time>2020-02-24T14:50:53.000Z</time>
      </trkpt>
      <trkpt lat="-34.622007943689823150634765625" lon="-59.05559607781469821929931640625">
        <ele>43.40000152587890625</ele>
        <time>2020-02-24T14:51:02.000Z</time>
      </trkpt>
      <trkpt lat="-34.62201138027012348175048828125" lon="-59.05591928400099277496337890625">
        <ele>43.59999847412109375</ele>
        <time>2020-02-24T14:51:12.000Z</time>
      </trkpt>
      <trkpt lat="-34.6220138110220432281494140625" lon="-59.0561337769031524658203125">
        <ele>43.59999847412109375</ele>
        <time>2020-02-24T14:51:19.000Z</time>
      </trkpt>
      <trkpt lat="-34.6220225282013416290283203125" lon="-59.05654708854854106903076171875">
        <ele>43.59999847412109375</ele>
        <time>2020-02-24T14:51:32.000Z</time>
      </trkpt>
      <trkpt lat="-34.62202982045710086822509765625" lon="-59.05684523284435272216796875">
        <ele>43.40000152587890625</ele>
        <time>2020-02-24T14:51:42.000Z</time>
      </trkpt>
      <trkpt lat="-34.62204926647245883941650390625" lon="-59.05724756419658660888671875">
        <ele>43.59999847412109375</ele>
        <time>2020-02-24T14:51:55.000Z</time>
      </trkpt>
      <trkpt lat="-34.62206804193556308746337890625" lon="-59.0575679205358028411865234375">
        <ele>43.799999237060546875</ele>
        <time>2020-02-24T14:52:05.000Z</time>
      </trkpt>
      <trkpt lat="-34.6220922656357288360595703125" lon="-59.0580181963741779327392578125">
        <ele>44.200000762939453125</ele>
        <time>2020-02-24T14:52:19.000Z</time>
      </trkpt>
      <trkpt lat="-34.6221083588898181915283203125" lon="-59.058429412543773651123046875">
        <ele>44.200000762939453125</ele>
        <time>2020-02-24T14:52:32.000Z</time>
      </trkpt>
      <trkpt lat="-34.62212118320167064666748046875" lon="-59.05880752019584178924560546875">
        <ele>44</ele>
        <time>2020-02-24T14:52:44.000Z</time>
      </trkpt>
      <trkpt lat="-34.62214213795959949493408203125" lon="-59.05921907164156436920166015625">
        <ele>43.799999237060546875</ele>
        <time>2020-02-24T14:52:57.000Z</time>
      </trkpt>
      <trkpt lat="-34.62216921150684356689453125" lon="-59.05959877185523509979248046875">
        <ele>44</ele>
        <time>2020-02-24T14:53:09.000Z</time>
      </trkpt>
      <trkpt lat="-34.62218488566577434539794921875" lon="-59.05982315540313720703125">
        <ele>44</ele>
        <time>2020-02-24T14:53:16.000Z</time>
      </trkpt>
      <trkpt lat="-34.62219259701669216156005859375" lon="-59.0600137598812580108642578125">
        <ele>44</ele>
        <time>2020-02-24T14:53:22.000Z</time>
      </trkpt>
      <trkpt lat="-34.62220718152821063995361328125" lon="-59.06026664189994335174560546875">
        <ele>44.200000762939453125</ele>
        <time>2020-02-24T14:53:30.000Z</time>
      </trkpt>
      <trkpt lat="-34.6222179941833019256591796875" lon="-59.0605213679373264312744140625">
        <ele>44.40000152587890625</ele>
        <time>2020-02-24T14:53:38.000Z</time>
      </trkpt>
      <trkpt lat="-34.62223065085709095001220703125" lon="-59.06088505871593952178955078125">
        <ele>44.59999847412109375</ele>
        <time>2020-02-24T14:53:49.000Z</time>
      </trkpt>
      <trkpt lat="-34.62224699556827545166015625" lon="-59.0612004697322845458984375">
        <ele>44.59999847412109375</ele>
        <time>2020-02-24T14:53:59.000Z</time>
      </trkpt>
      <trkpt lat="-34.622256048023700714111328125" lon="-59.0614593029022216796875">
        <ele>44.59999847412109375</ele>
        <time>2020-02-24T14:54:07.000Z</time>
      </trkpt>
      <trkpt lat="-34.62226719595491886138916015625" lon="-59.061827100813388824462890625">
        <ele>44.59999847412109375</ele>
        <time>2020-02-24T14:54:18.000Z</time>
      </trkpt>
      <trkpt lat="-34.6222733147442340850830078125" lon="-59.06216564588248729705810546875">
        <ele>44.799999237060546875</ele>
        <time>2020-02-24T14:54:28.000Z</time>
      </trkpt>
      <trkpt lat="-34.62226711213588714599609375" lon="-59.06242766417562961578369140625">
        <ele>44.799999237060546875</ele>
        <time>2020-02-24T14:54:36.000Z</time>
      </trkpt>
      <trkpt lat="-34.62226568721234798431396484375" lon="-59.062493629753589630126953125">
        <ele>45</ele>
        <time>2020-02-24T14:54:38.000Z</time>
      </trkpt>
      <trkpt lat="-34.6222763322293758392333984375" lon="-59.0627113915979862213134765625">
        <ele>45</ele>
        <time>2020-02-24T14:54:45.000Z</time>
      </trkpt>
      <trkpt lat="-34.6222910843789577484130859375" lon="-59.06300894916057586669921875">
        <ele>45.40000152587890625</ele>
        <time>2020-02-24T14:54:55.000Z</time>
      </trkpt>
      <trkpt lat="-34.62232033722102642059326171875" lon="-59.06323970295488834381103515625">
        <ele>45.200000762939453125</ele>
        <time>2020-02-24T14:55:03.000Z</time>
      </trkpt>
      <trkpt lat="-34.62236174382269382476806640625" lon="-59.0635152161121368408203125">
        <ele>45.200000762939453125</ele>
        <time>2020-02-24T14:55:12.000Z</time>
      </trkpt>
      <trkpt lat="-34.62238403968513011932373046875" lon="-59.06373373232781887054443359375">
        <ele>45</ele>
        <time>2020-02-24T14:55:19.000Z</time>
      </trkpt>
      <trkpt lat="-34.62241035886108875274658203125" lon="-59.06405107118189334869384765625">
        <ele>45</ele>
        <time>2020-02-24T14:55:29.000Z</time>
      </trkpt>
      <trkpt lat="-34.622425697743892669677734375" lon="-59.0644003450870513916015625">
        <ele>45.59999847412109375</ele>
        <time>2020-02-24T14:55:40.000Z</time>
      </trkpt>
      <trkpt lat="-34.62248931638896465301513671875" lon="-59.06475213356316089630126953125">
        <ele>45.200000762939453125</ele>
        <time>2020-02-24T14:55:51.000Z</time>
      </trkpt>
      <trkpt lat="-34.62255134247243404388427734375" lon="-59.0650911815464496612548828125">
        <ele>45.200000762939453125</ele>
        <time>2020-02-24T14:56:02.000Z</time>
      </trkpt>
      <trkpt lat="-34.622598700225353240966796875" lon="-59.0653909184038639068603515625">
        <ele>45</ele>
        <time>2020-02-24T14:56:12.000Z</time>
      </trkpt>
      <trkpt lat="-34.6226505003869533538818359375" lon="-59.0657225064933300018310546875">
        <ele>44.799999237060546875</ele>
        <time>2020-02-24T14:56:22.000Z</time>
      </trkpt>
      <trkpt lat="-34.62270724587142467498779296875" lon="-59.0661090798676013946533203125">
        <ele>45</ele>
        <time>2020-02-24T14:56:33.000Z</time>
      </trkpt>
      <trkpt lat="-34.62275267578661441802978515625" lon="-59.066412337124347686767578125">
        <ele>44.59999847412109375</ele>
        <time>2020-02-24T14:56:42.000Z</time>
      </trkpt>
      <trkpt lat="-34.6228007040917873382568359375" lon="-59.06668416224420070648193359375">
        <ele>44.799999237060546875</ele>
        <time>2020-02-24T14:56:50.000Z</time>
      </trkpt>
      <trkpt lat="-34.622839428484439849853515625" lon="-59.0669395588338375091552734375">
        <ele>44.40000152587890625</ele>
        <time>2020-02-24T14:56:58.000Z</time>
      </trkpt>
      <trkpt lat="-34.62289332412183284759521484375" lon="-59.06724038533866405487060546875">
        <ele>44.40000152587890625</ele>
        <time>2020-02-24T14:57:08.000Z</time>
      </trkpt>
      <trkpt lat="-34.6229525841772556304931640625" lon="-59.0675611607730388641357421875">
        <ele>44.40000152587890625</ele>
        <time>2020-02-24T14:57:18.000Z</time>
      </trkpt>
      <trkpt lat="-34.62301008403301239013671875" lon="-59.06792585738003253936767578125">
        <ele>44.200000762939453125</ele>
        <time>2020-02-24T14:57:29.000Z</time>
      </trkpt>
      <trkpt lat="-34.623041935265064239501953125" lon="-59.06808360479772090911865234375">
        <ele>44</ele>
        <time>2020-02-24T14:57:34.000Z</time>
      </trkpt>
      <trkpt lat="-34.6230538375675678253173828125" lon="-59.0681485645473003387451171875">
        <ele>44</ele>
        <time>2020-02-24T14:57:36.000Z</time>
      </trkpt>
      <trkpt lat="-34.62310706265270709991455078125" lon="-59.0684352256357669830322265625">
        <ele>43.799999237060546875</ele>
        <time>2020-02-24T14:57:45.000Z</time>
      </trkpt>
      <trkpt lat="-34.62314947508275508880615234375" lon="-59.06866480596363544464111328125">
        <ele>43.799999237060546875</ele>
        <time>2020-02-24T14:57:53.000Z</time>
      </trkpt>
      <trkpt lat="-34.6232094056904315948486328125" lon="-59.06893822364509105682373046875">
        <ele>43.799999237060546875</ele>
        <time>2020-02-24T14:58:02.000Z</time>
      </trkpt>
      <trkpt lat="-34.6233180351555347442626953125" lon="-59.06923494301736354827880859375">
        <ele>43.200000762939453125</ele>
        <time>2020-02-24T14:58:12.000Z</time>
      </trkpt>
      <trkpt lat="-34.623430855572223663330078125" lon="-59.06944893300533294677734375">
        <ele>43.40000152587890625</ele>
        <time>2020-02-24T14:58:20.000Z</time>
      </trkpt>
      <trkpt lat="-34.62350226938724517822265625" lon="-59.0696053393185138702392578125">
        <ele>43.40000152587890625</ele>
        <time>2020-02-24T14:58:26.000Z</time>
      </trkpt>
      <trkpt lat="-34.6235681511461734771728515625" lon="-59.069757722318172454833984375">
        <ele>43.200000762939453125</ele>
        <time>2020-02-24T14:58:33.000Z</time>
      </trkpt>
      <trkpt lat="-34.62364668957889080047607421875" lon="-59.069954864680767059326171875">
        <ele>43.40000152587890625</ele>
        <time>2020-02-24T14:58:41.000Z</time>
      </trkpt>
      <trkpt lat="-34.6237362921237945556640625" lon="-59.07014119438827037811279296875">
        <ele>43.40000152587890625</ele>
        <time>2020-02-24T14:58:50.000Z</time>
      </trkpt>
      <trkpt lat="-34.62383360601961612701416015625" lon="-59.07032257877290248870849609375">
        <ele>43.40000152587890625</ele>
        <time>2020-02-24T14:58:59.000Z</time>
      </trkpt>
      <trkpt lat="-34.62394843809306621551513671875" lon="-59.070485942065715789794921875">
        <ele>43.40000152587890625</ele>
        <time>2020-02-24T14:59:08.000Z</time>
      </trkpt>
      <trkpt lat="-34.6240221150219440460205078125" lon="-59.07064494676887989044189453125">
        <ele>43.40000152587890625</ele>
        <time>2020-02-24T14:59:16.000Z</time>
      </trkpt>
      <trkpt lat="-34.624098725616931915283203125" lon="-59.07079447992146015167236328125">
        <ele>43.40000152587890625</ele>
        <time>2020-02-24T14:59:23.000Z</time>
      </trkpt>
      <trkpt lat="-34.624157734215259552001953125" lon="-59.0709102340042591094970703125">
        <ele>43.40000152587890625</ele>
        <time>2020-02-24T14:59:29.000Z</time>
      </trkpt>
      <trkpt lat="-34.62424390017986297607421875" lon="-59.07109136693179607391357421875">
        <ele>43.40000152587890625</ele>
        <time>2020-02-24T14:59:37.000Z</time>
      </trkpt>
      <trkpt lat="-34.624323360621929168701171875" lon="-59.0712418220937252044677734375">
        <ele>43.40000152587890625</ele>
        <time>2020-02-24T14:59:45.000Z</time>
      </trkpt>
      <trkpt lat="-34.62440642528235912322998046875" lon="-59.0714071132242679595947265625">
        <ele>43.40000152587890625</ele>
        <time>2020-02-24T14:59:53.000Z</time>
      </trkpt>
      <trkpt lat="-34.62449602782726287841796875" lon="-59.07157919369637966156005859375">
        <ele>44</ele>
        <time>2020-02-24T15:00:01.000Z</time>
      </trkpt>
      <trkpt lat="-34.624587558209896087646484375" lon="-59.07175152562558650970458984375">
        <ele>43.59999847412109375</ele>
        <time>2020-02-24T15:00:10.000Z</time>
      </trkpt>
      <trkpt lat="-34.6246527694165706634521484375" lon="-59.0718877315521240234375">
        <ele>43.799999237060546875</ele>
        <time>2020-02-24T15:00:17.000Z</time>
      </trkpt>
      <trkpt lat="-34.62474589236080646514892578125" lon="-59.0720676071941852569580078125">
        <ele>44</ele>
        <time>2020-02-24T15:00:26.000Z</time>
      </trkpt>
      <trkpt lat="-34.6248720400035381317138671875" lon="-59.072277657687664031982421875">
        <ele>44</ele>
        <time>2020-02-24T15:00:36.000Z</time>
      </trkpt>
      <trkpt lat="-34.62497077882289886474609375" lon="-59.072463400661945343017578125">
        <ele>44</ele>
        <time>2020-02-24T15:00:44.000Z</time>
      </trkpt>
      <trkpt lat="-34.6250908076763153076171875" lon="-59.07269013114273548126220703125">
        <ele>44.200000762939453125</ele>
        <time>2020-02-24T15:00:54.000Z</time>
      </trkpt>
      <trkpt lat="-34.62520840577781200408935546875" lon="-59.07293069176375865936279296875">
        <ele>44.40000152587890625</ele>
        <time>2020-02-24T15:01:04.000Z</time>
      </trkpt>
      <trkpt lat="-34.62528451345860958099365234375" lon="-59.0730824880301952362060546875">
        <ele>44.40000152587890625</ele>
        <time>2020-02-24T15:01:11.000Z</time>
      </trkpt>
      <trkpt lat="-34.62541728280484676361083984375" lon="-59.073365963995456695556640625">
        <ele>44.200000762939453125</ele>
        <time>2020-02-24T15:01:23.000Z</time>
      </trkpt>
      <trkpt lat="-34.62552599608898162841796875" lon="-59.0735763497650623321533203125">
        <ele>43.799999237060546875</ele>
        <time>2020-02-24T15:01:32.000Z</time>
      </trkpt>
      <trkpt lat="-34.62561660446226596832275390625" lon="-59.0737597458064556121826171875">
        <ele>43.799999237060546875</ele>
        <time>2020-02-24T15:01:40.000Z</time>
      </trkpt>
      <trkpt lat="-34.62576110847294330596923828125" lon="-59.07403877936303615570068359375">
        <ele>43.59999847412109375</ele>
        <time>2020-02-24T15:01:51.000Z</time>
      </trkpt>
      <trkpt lat="-34.625925309956073760986328125" lon="-59.0743290446698665618896484375">
        <ele>43.799999237060546875</ele>
        <time>2020-02-24T15:02:03.000Z</time>
      </trkpt>
      <trkpt lat="-34.62607794441282749176025390625" lon="-59.07459550537168979644775390625">
        <ele>43.59999847412109375</ele>
        <time>2020-02-24T15:02:14.000Z</time>
      </trkpt>
      <trkpt lat="-34.626237116754055023193359375" lon="-59.07488317228853702545166015625">
        <ele>43.59999847412109375</ele>
        <time>2020-02-24T15:02:25.000Z</time>
      </trkpt>
      <trkpt lat="-34.626355469226837158203125" lon="-59.07509230077266693115234375">
        <ele>43.799999237060546875</ele>
        <time>2020-02-24T15:02:34.000Z</time>
      </trkpt>
      <trkpt lat="-34.62650693021714687347412109375" lon="-59.0753673948347568511962890625">
        <ele>43.799999237060546875</ele>
        <time>2020-02-24T15:02:45.000Z</time>
      </trkpt>
      <trkpt lat="-34.62664338760077953338623046875" lon="-59.07561801373958587646484375">
        <ele>44</ele>
        <time>2020-02-24T15:02:55.000Z</time>
      </trkpt>
      <trkpt lat="-34.6267415396869182586669921875" lon="-59.0758024156093597412109375">
        <ele>44.200000762939453125</ele>
        <time>2020-02-24T15:03:03.000Z</time>
      </trkpt>
      <trkpt lat="-34.626873470842838287353515625" lon="-59.07605093903839588165283203125">
        <ele>44.40000152587890625</ele>
        <time>2020-02-24T15:03:14.000Z</time>
      </trkpt>
      <trkpt lat="-34.62700716219842433929443359375" lon="-59.076319746673107147216796875">
        <ele>44.40000152587890625</ele>
        <time>2020-02-24T15:03:26.000Z</time>
      </trkpt>
      <trkpt lat="-34.62710942141711711883544921875" lon="-59.076498448848724365234375">
        <ele>44.40000152587890625</ele>
        <time>2020-02-24T15:03:34.000Z</time>
      </trkpt>
      <trkpt lat="-34.62724939920008182525634765625" lon="-59.0767438709735870361328125">
        <ele>44.40000152587890625</ele>
        <time>2020-02-24T15:03:45.000Z</time>
      </trkpt>
      <trkpt lat="-34.62738183327019214630126953125" lon="-59.07696523703634738922119140625">
        <ele>44.40000152587890625</ele>
        <time>2020-02-24T15:03:55.000Z</time>
      </trkpt>
      <trkpt lat="-34.62750680744647979736328125" lon="-59.07718576490879058837890625">
        <ele>44.40000152587890625</ele>
        <time>2020-02-24T15:04:05.000Z</time>
      </trkpt>
      <trkpt lat="-34.62765944190323352813720703125" lon="-59.07744417898356914520263671875">
        <ele>44.59999847412109375</ele>
        <time>2020-02-24T15:04:16.000Z</time>
      </trkpt>
      <trkpt lat="-34.62782070972025394439697265625" lon="-59.07772086560726165771484375">
        <ele>44.799999237060546875</ele>
        <time>2020-02-24T15:04:27.000Z</time>
      </trkpt>
      <trkpt lat="-34.627949707210063934326171875" lon="-59.07795011065900325775146484375">
        <ele>44.799999237060546875</ele>
        <time>2020-02-24T15:04:36.000Z</time>
      </trkpt>
      <trkpt lat="-34.62811835110187530517578125" lon="-59.0782531164586544036865234375">
        <ele>44.799999237060546875</ele>
        <time>2020-02-24T15:04:48.000Z</time>
      </trkpt>
      <trkpt lat="-34.62818917818367481231689453125" lon="-59.0783825330436229705810546875">
        <ele>45</ele>
        <time>2020-02-24T15:04:53.000Z</time>
      </trkpt>
      <trkpt lat="-34.628261514008045196533203125" lon="-59.0785153023898601531982421875">
        <ele>45.200000762939453125</ele>
        <time>2020-02-24T15:04:58.000Z</time>
      </trkpt>
      <trkpt lat="-34.6284031681716442108154296875" lon="-59.07877623103559017181396484375">
        <ele>45</ele>
        <time>2020-02-24T15:05:08.000Z</time>
      </trkpt>
      <trkpt lat="-34.62848941795527935028076171875" lon="-59.07894353382289409637451171875">
        <ele>45</ele>
        <time>2020-02-24T15:05:15.000Z</time>
      </trkpt>
      <trkpt lat="-34.6285278908908367156982421875" lon="-59.07901796512305736541748046875">
        <ele>45.200000762939453125</ele>
        <time>2020-02-24T15:05:18.000Z</time>
      </trkpt>
      <trkpt lat="-34.62865554727613925933837890625" lon="-59.079271517693996429443359375">
        <ele>45.40000152587890625</ele>
        <time>2020-02-24T15:05:28.000Z</time>
      </trkpt>
      <trkpt lat="-34.6288058348000049591064453125" lon="-59.0795543231070041656494140625">
        <ele>45.799999237060546875</ele>
        <time>2020-02-24T15:05:39.000Z</time>
      </trkpt>
      <trkpt lat="-34.62892225943505764007568359375" lon="-59.07977183349430561065673828125">
        <ele>45.59999847412109375</ele>
        <time>2020-02-24T15:05:48.000Z</time>
      </trkpt>
      <trkpt lat="-34.6290180645883083343505859375" lon="-59.07994014210999011993408203125">
        <ele>45.59999847412109375</ele>
        <time>2020-02-24T15:05:55.000Z</time>
      </trkpt>
      <trkpt lat="-34.62911085225641727447509765625" lon="-59.080121107399463653564453125">
        <ele>45.799999237060546875</ele>
        <time>2020-02-24T15:06:03.000Z</time>
      </trkpt>
      <trkpt lat="-34.6292316354811191558837890625" lon="-59.08034968189895153045654296875">
        <ele>45.799999237060546875</ele>
        <time>2020-02-24T15:06:12.000Z</time>
      </trkpt>
      <trkpt lat="-34.62937488220632076263427734375" lon="-59.0806295536458492279052734375">
        <ele>45.799999237060546875</ele>
        <time>2020-02-24T15:06:22.000Z</time>
      </trkpt>
      <trkpt lat="-34.6294991858303546905517578125" lon="-59.08086567185819149017333984375">
        <ele>45.59999847412109375</ele>
        <time>2020-02-24T15:06:31.000Z</time>
      </trkpt>
      <trkpt lat="-34.62961762212216854095458984375" lon="-59.0810952521860599517822265625">
        <ele>45.40000152587890625</ele>
        <time>2020-02-24T15:06:41.000Z</time>
      </trkpt>
      <trkpt lat="-34.6297037042677402496337890625" lon="-59.08125090412795543670654296875">
        <ele>45.799999237060546875</ele>
        <time>2020-02-24T15:06:48.000Z</time>
      </trkpt>
      <trkpt lat="-34.62982297874987125396728515625" lon="-59.081476293504238128662109375">
        <ele>45.59999847412109375</ele>
        <time>2020-02-24T15:06:58.000Z</time>
      </trkpt>
      <trkpt lat="-34.62988986633718013763427734375" lon="-59.08161006867885589599609375">
        <ele>45.59999847412109375</ele>
        <time>2020-02-24T15:07:04.000Z</time>
      </trkpt>
      <trkpt lat="-34.6299608610570430755615234375" lon="-59.08175515942275524139404296875">
        <ele>45.799999237060546875</ele>
        <time>2020-02-24T15:07:12.000Z</time>
      </trkpt>
      <trkpt lat="-34.630030095577239990234375" lon="-59.0818724222481250762939453125">
        <ele>45.59999847412109375</ele>
        <time>2020-02-24T15:07:18.000Z</time>
      </trkpt>
      <trkpt lat="-34.6300926245748996734619140625" lon="-59.081996642053127288818359375">
        <ele>45.59999847412109375</ele>
        <time>2020-02-24T15:07:24.000Z</time>
      </trkpt>
      <trkpt lat="-34.630166552960872650146484375" lon="-59.08213184215128421783447265625">
        <ele>45.40000152587890625</ele>
        <time>2020-02-24T15:07:30.000Z</time>
      </trkpt>
      <trkpt lat="-34.63025950826704502105712890625" lon="-59.08230341970920562744140625">
        <ele>45.40000152587890625</ele>
        <time>2020-02-24T15:07:38.000Z</time>
      </trkpt>
      <trkpt lat="-34.63034768588840961456298828125" lon="-59.08245203085243701934814453125">
        <ele>45.59999847412109375</ele>
        <time>2020-02-24T15:07:45.000Z</time>
      </trkpt>
      <trkpt lat="-34.63045564480125904083251953125" lon="-59.08266342245042324066162109375">
        <ele>45.40000152587890625</ele>
        <time>2020-02-24T15:07:54.000Z</time>
      </trkpt>
      <trkpt lat="-34.63055153377354145050048828125" lon="-59.08285637386143207550048828125">
        <ele>45.59999847412109375</ele>
        <time>2020-02-24T15:08:03.000Z</time>
      </trkpt>
      <trkpt lat="-34.63061842136085033416748046875" lon="-59.08304035663604736328125">
        <ele>45.40000152587890625</ele>
        <time>2020-02-24T15:08:12.000Z</time>
      </trkpt>
      <trkpt lat="-34.630625210702419281005859375" lon="-59.08308184705674648284912109375">
        <ele>45.59999847412109375</ele>
        <time>2020-02-24T15:08:20.000Z</time>
      </trkpt>
      <trkpt lat="-34.6306253783404827117919921875" lon="-59.08308419398963451385498046875">
        <ele>45.59999847412109375</ele>
        <time>2020-02-24T15:08:27.000Z</time>
      </trkpt>
      <trkpt lat="-34.63062529452145099639892578125" lon="-59.083085618913173675537109375">
        <ele>45.59999847412109375</ele>
        <time>2020-02-24T15:08:32.000Z</time>
      </trkpt>
      <trkpt lat="-34.6306253783404827117919921875" lon="-59.08308536745607852935791015625">
        <ele>45.40000152587890625</ele>
        <time>2020-02-24T15:08:45.000Z</time>
      </trkpt>
      <trkpt lat="-34.63062495924532413482666015625" lon="-59.08308654092252254486083984375">
        <ele>45.40000152587890625</ele>
        <time>2020-02-24T15:09:07.000Z</time>
      </trkpt>
      <trkpt lat="-34.63062294758856296539306640625" lon="-59.08308796584606170654296875">
        <ele>45.40000152587890625</ele>
        <time>2020-02-24T15:09:25.000Z</time>
      </trkpt>
      <trkpt lat="-34.6306215226650238037109375" lon="-59.08308905549347400665283203125">
        <ele>45.40000152587890625</ele>
        <time>2020-02-24T15:09:35.000Z</time>
      </trkpt>
      <trkpt lat="-34.63062261231243610382080078125" lon="-59.08308905549347400665283203125">
        <ele>45.200000762939453125</ele>
        <time>2020-02-24T15:09:50.000Z</time>
      </trkpt>
      <trkpt lat="-34.630620181560516357421875" lon="-59.08309022895991802215576171875">
        <ele>45.40000152587890625</ele>
        <time>2020-02-24T15:10:05.000Z</time>
      </trkpt>
      <trkpt lat="-34.63061942718923091888427734375" lon="-59.08309257589280605316162109375">
        <ele>45.799999237060546875</ele>
        <time>2020-02-24T15:10:17.000Z</time>
      </trkpt>
      <trkpt lat="-34.63061708025634288787841796875" lon="-59.08309123478829860687255859375">
        <ele>45.799999237060546875</ele>
        <time>2020-02-24T15:10:43.000Z</time>
      </trkpt>
      <trkpt lat="-34.630616493523120880126953125" lon="-59.0830898098647594451904296875">
        <ele>45.799999237060546875</ele>
        <time>2020-02-24T15:10:56.000Z</time>
      </trkpt>
      <trkpt lat="-34.63061523623764514923095703125" lon="-59.08309039659798145294189453125">
        <ele>45.799999237060546875</ele>
        <time>2020-02-24T15:11:06.000Z</time>
      </trkpt>
      <trkpt lat="-34.63061490096151828765869140625" lon="-59.083088971674442291259765625">
        <ele>45.799999237060546875</ele>
        <time>2020-02-24T15:11:15.000Z</time>
      </trkpt>
      <trkpt lat="-34.6306166611611843109130859375" lon="-59.083089642226696014404296875">
        <ele>45.799999237060546875</ele>
        <time>2020-02-24T15:11:38.000Z</time>
      </trkpt>
      <trkpt lat="-34.630617164075374603271484375" lon="-59.08309022895991802215576171875">
        <ele>45.799999237060546875</ele>
        <time>2020-02-24T15:11:58.000Z</time>
      </trkpt>
      <trkpt lat="-34.63061708025634288787841796875" lon="-59.083090312778949737548828125">
        <ele>45.799999237060546875</ele>
        <time>2020-02-24T15:12:24.000Z</time>
      </trkpt>
      <trkpt lat="-34.63061775080859661102294921875" lon="-59.0830908156931400299072265625">
        <ele>45.799999237060546875</ele>
        <time>2020-02-24T15:12:57.000Z</time>
      </trkpt>
      <trkpt lat="-34.6306193433701992034912109375" lon="-59.08309123478829860687255859375">
        <ele>45.799999237060546875</ele>
        <time>2020-02-24T15:13:42.000Z</time>
      </trkpt>
      <trkpt lat="-34.630619846284389495849609375" lon="-59.08309307880699634552001953125">
        <ele>45.799999237060546875</ele>
        <time>2020-02-24T15:14:24.000Z</time>
      </trkpt>
      <trkpt lat="-34.6306213550269603729248046875" lon="-59.0830941684544086456298828125">
        <ele>45.799999237060546875</ele>
        <time>2020-02-24T15:14:54.000Z</time>
      </trkpt>
      <trkpt lat="-34.630620181560516357421875" lon="-59.0830951742827892303466796875">
        <ele>45.799999237060546875</ele>
        <time>2020-02-24T15:15:10.000Z</time>
      </trkpt>
      <trkpt lat="-34.6306176669895648956298828125" lon="-59.0830951742827892303466796875">
        <ele>45.799999237060546875</ele>
        <time>2020-02-24T15:15:22.000Z</time>
      </trkpt>
      <trkpt lat="-34.630615152418613433837890625" lon="-59.0830978564918041229248046875">
        <ele>45.799999237060546875</ele>
        <time>2020-02-24T15:15:28.000Z</time>
      </trkpt>
      <trkpt lat="-34.630614481866359710693359375" lon="-59.08310540020465850830078125">
        <ele>45.799999237060546875</ele>
        <time>2020-02-24T15:15:50.000Z</time>
      </trkpt>
      <trkpt lat="-34.63061540387570858001708984375" lon="-59.083105735480785369873046875">
        <ele>45.799999237060546875</ele>
        <time>2020-02-24T15:15:55.000Z</time>
      </trkpt>
      <trkpt lat="-34.63061691261827945709228515625" lon="-59.08310271799564361572265625">
        <ele>45.799999237060546875</ele>
        <time>2020-02-24T15:16:11.000Z</time>
      </trkpt>
      <trkpt lat="-34.63061523623764514923095703125" lon="-59.08310129307210445404052734375">
        <ele>45.799999237060546875</ele>
        <time>2020-02-24T15:16:23.000Z</time>
      </trkpt>
      <trkpt lat="-34.63061749935150146484375" lon="-59.08309928141534328460693359375">
        <ele>45.799999237060546875</ele>
        <time>2020-02-24T15:16:29.000Z</time>
      </trkpt>
      <trkpt lat="-34.63067474775016307830810546875" lon="-59.0830948390066623687744140625">
        <ele>45.799999237060546875</ele>
        <time>2020-02-24T15:17:07.000Z</time>
      </trkpt>
      <trkpt lat="-34.6306676231324672698974609375" lon="-59.08309844322502613067626953125">
        <ele>46</ele>
        <time>2020-02-24T15:17:12.000Z</time>
      </trkpt>
      <trkpt lat="-34.63066577911376953125" lon="-59.083100371062755584716796875">
        <ele>46</ele>
        <time>2020-02-24T15:17:13.000Z</time>
      </trkpt>
      <trkpt lat="-34.63066167198121547698974609375" lon="-59.08309760503470897674560546875">
        <ele>46.200000762939453125</ele>
        <time>2020-02-24T15:17:17.000Z</time>
      </trkpt>
      <trkpt lat="-34.63062915019690990447998046875" lon="-59.08313691616058349609375">
        <ele>35.40000152587890625</ele>
        <time>2020-02-24T15:44:14.000Z</time>
      </trkpt>
      <trkpt lat="-34.63065044023096561431884765625" lon="-59.0831236727535724639892578125">
        <ele>35</ele>
        <time>2020-02-24T15:44:30.000Z</time>
      </trkpt>
      <trkpt lat="-34.63064859621226787567138671875" lon="-59.08311503939330577850341796875">
        <ele>34.799999237060546875</ele>
        <time>2020-02-24T15:44:46.000Z</time>
      </trkpt>
      <trkpt lat="-34.63065127842128276824951171875" lon="-59.08310213126242160797119140625">
        <ele>34.799999237060546875</ele>
        <time>2020-02-24T15:45:20.000Z</time>
      </trkpt>
      <trkpt lat="-34.63064901530742645263671875" lon="-59.0831018798053264617919921875">
        <ele>34.799999237060546875</ele>
        <time>2020-02-24T15:45:50.000Z</time>
      </trkpt>
      <trkpt lat="-34.63066485710442066192626953125" lon="-59.083117134869098663330078125">
        <ele>34.799999237060546875</ele>
        <time>2020-02-24T15:45:59.000Z</time>
      </trkpt>
      <trkpt lat="-34.630664773285388946533203125" lon="-59.0831176377832889556884765625">
        <ele>34.799999237060546875</ele>
        <time>2020-02-24T15:46:12.000Z</time>
      </trkpt>
      <trkpt lat="-34.63067055679857730865478515625" lon="-59.08312643878161907196044921875">
        <ele>34.799999237060546875</ele>
        <time>2020-02-24T15:46:19.000Z</time>
      </trkpt>
      <trkpt lat="-34.6306858956813812255859375" lon="-59.083150327205657958984375">
        <ele>34.799999237060546875</ele>
        <time>2020-02-24T15:46:21.000Z</time>
      </trkpt>
      <trkpt lat="-34.63076242245733737945556640625" lon="-59.08328318037092685699462890625">
        <ele>35.40000152587890625</ele>
        <time>2020-02-24T15:46:28.000Z</time>
      </trkpt>
      <trkpt lat="-34.63086401112377643585205078125" lon="-59.083489961922168731689453125">
        <ele>35.200000762939453125</ele>
        <time>2020-02-24T15:46:36.000Z</time>
      </trkpt>
      <trkpt lat="-34.631004072725772857666015625" lon="-59.08376262523233890533447265625">
        <ele>35.200000762939453125</ele>
        <time>2020-02-24T15:46:46.000Z</time>
      </trkpt>
      <trkpt lat="-34.63118537329137325286865234375" lon="-59.0840896032750606536865234375">
        <ele>35.40000152587890625</ele>
        <time>2020-02-24T15:46:58.000Z</time>
      </trkpt>
      <trkpt lat="-34.6313556097447872161865234375" lon="-59.08440518192946910858154296875">
        <ele>35.59999847412109375</ele>
        <time>2020-02-24T15:47:09.000Z</time>
      </trkpt>
      <trkpt lat="-34.6314669214189052581787109375" lon="-59.08461506478488445281982421875">
        <ele>35.59999847412109375</ele>
        <time>2020-02-24T15:47:16.000Z</time>
      </trkpt>
      <trkpt lat="-34.63149684481322765350341796875" lon="-59.084676839411258697509765625">
        <ele>35.799999237060546875</ele>
        <time>2020-02-24T15:47:18.000Z</time>
      </trkpt>
      <trkpt lat="-34.6316892094910144805908203125" lon="-59.085038602352142333984375">
        <ele>35.40000152587890625</ele>
        <time>2020-02-24T15:47:30.000Z</time>
      </trkpt>
      <trkpt lat="-34.631839580833911895751953125" lon="-59.08534127287566661834716796875">
        <ele>35.59999847412109375</ele>
        <time>2020-02-24T15:47:40.000Z</time>
      </trkpt>
      <trkpt lat="-34.63200394995510578155517578125" lon="-59.0856648981571197509765625">
        <ele>36</ele>
        <time>2020-02-24T15:47:51.000Z</time>
      </trkpt>
      <trkpt lat="-34.6321703307330608367919921875" lon="-59.0859787166118621826171875">
        <ele>36.200000762939453125</ele>
        <time>2020-02-24T15:48:02.000Z</time>
      </trkpt>
      <trkpt lat="-34.63231265544891357421875" lon="-59.08624090254306793212890625">
        <ele>35.799999237060546875</ele>
        <time>2020-02-24T15:48:11.000Z</time>
      </trkpt>
      <trkpt lat="-34.63244341313838958740234375" lon="-59.0864764340221881866455078125">
        <ele>35.40000152587890625</ele>
        <time>2020-02-24T15:48:19.000Z</time>
      </trkpt>
      <trkpt lat="-34.632490016520023345947265625" lon="-59.0865682996809482574462890625">
        <ele>35.40000152587890625</ele>
        <time>2020-02-24T15:48:22.000Z</time>
      </trkpt>
      <trkpt lat="-34.63262622244656085968017578125" lon="-59.086808860301971435546875">
        <ele>35.40000152587890625</ele>
        <time>2020-02-24T15:48:30.000Z</time>
      </trkpt>
      <trkpt lat="-34.6327989734709262847900390625" lon="-59.08715553581714630126953125">
        <ele>35</ele>
        <time>2020-02-24T15:48:41.000Z</time>
      </trkpt>
      <trkpt lat="-34.63287147693336009979248046875" lon="-59.08744798041880130767822265625">
        <ele>35.200000762939453125</ele>
        <time>2020-02-24T15:48:50.000Z</time>
      </trkpt>
      <trkpt lat="-34.6328237839043140411376953125" lon="-59.08769172616302967071533203125">
        <ele>34.799999237060546875</ele>
        <time>2020-02-24T15:48:58.000Z</time>
      </trkpt>
      <trkpt lat="-34.6326977200806140899658203125" lon="-59.0878591127693653106689453125">
        <ele>35.40000152587890625</ele>
        <time>2020-02-24T15:49:05.000Z</time>
      </trkpt>
      <trkpt lat="-34.63249362073838710784912109375" lon="-59.08811182714998722076416015625">
        <ele>35</ele>
        <time>2020-02-24T15:49:16.000Z</time>
      </trkpt>
      <trkpt lat="-34.6323054470121860504150390625" lon="-59.08834601752460002899169921875">
        <ele>35</ele>
        <time>2020-02-24T15:49:26.000Z</time>
      </trkpt>
      <trkpt lat="-34.63214878924190998077392578125" lon="-59.0885491110384464263916015625">
        <ele>34.59999847412109375</ele>
        <time>2020-02-24T15:49:35.000Z</time>
      </trkpt>
      <trkpt lat="-34.63202222250401973724365234375" lon="-59.0886984765529632568359375">
        <ele>34.59999847412109375</ele>
        <time>2020-02-24T15:49:42.000Z</time>
      </trkpt>
      <trkpt lat="-34.6318541653454303741455078125" lon="-59.08891296945512294769287109375">
        <ele>34.59999847412109375</ele>
        <time>2020-02-24T15:49:51.000Z</time>
      </trkpt>
      <trkpt lat="-34.63169348426163196563720703125" lon="-59.08911782316863536834716796875">
        <ele>34.40000152587890625</ele>
        <time>2020-02-24T15:50:00.000Z</time>
      </trkpt>
      <trkpt lat="-34.6316556818783283233642578125" lon="-59.0891624987125396728515625">
        <ele>34.40000152587890625</ele>
        <time>2020-02-24T15:50:02.000Z</time>
      </trkpt>
      <trkpt lat="-34.63158267550170421600341796875" lon="-59.08925972878932952880859375">
        <ele>34.40000152587890625</ele>
        <time>2020-02-24T15:50:06.000Z</time>
      </trkpt>
      <trkpt lat="-34.63142744265496730804443359375" lon="-59.08945075236260890960693359375">
        <ele>34.59999847412109375</ele>
        <time>2020-02-24T15:50:14.000Z</time>
      </trkpt>
      <trkpt lat="-34.631232731044292449951171875" lon="-59.08969852142035961151123046875">
        <ele>34.59999847412109375</ele>
        <time>2020-02-24T15:50:24.000Z</time>
      </trkpt>
      <trkpt lat="-34.63103332556784152984619140625" lon="-59.089950732886791229248046875">
        <ele>34.59999847412109375</ele>
        <time>2020-02-24T15:50:34.000Z</time>
      </trkpt>
      <trkpt lat="-34.630834758281707763671875" lon="-59.09019506536424160003662109375">
        <ele>34.40000152587890625</ele>
        <time>2020-02-24T15:50:44.000Z</time>
      </trkpt>
      <trkpt lat="-34.63066418655216693878173828125" lon="-59.09041198901832103729248046875">
        <ele>34.200000762939453125</ele>
        <time>2020-02-24T15:50:53.000Z</time>
      </trkpt>
      <trkpt lat="-34.6304242126643657684326171875" lon="-59.090720526874065399169921875">
        <ele>35</ele>
        <time>2020-02-24T15:51:06.000Z</time>
      </trkpt>
      <trkpt lat="-34.6302136592566967010498046875" lon="-59.09098128788173198699951171875">
        <ele>34.799999237060546875</ele>
        <time>2020-02-24T15:51:17.000Z</time>
      </trkpt>
      <trkpt lat="-34.63001626543700695037841796875" lon="-59.0912224352359771728515625">
        <ele>34.799999237060546875</ele>
        <time>2020-02-24T15:51:27.000Z</time>
      </trkpt>
      <trkpt lat="-34.6299169398844242095947265625" lon="-59.09134623594582080841064453125">
        <ele>34.59999847412109375</ele>
        <time>2020-02-24T15:51:32.000Z</time>
      </trkpt>
      <trkpt lat="-34.6298114955425262451171875" lon="-59.0914814360439777374267578125">
        <ele>34.799999237060546875</ele>
        <time>2020-02-24T15:51:38.000Z</time>
      </trkpt>
      <trkpt lat="-34.62963044643402099609375" lon="-59.0916933305561542510986328125">
        <ele>34.59999847412109375</ele>
        <time>2020-02-24T15:51:48.000Z</time>
      </trkpt>
      <trkpt lat="-34.62947948835790157318115234375" lon="-59.09188837744295597076416015625">
        <ele>34.799999237060546875</ele>
        <time>2020-02-24T15:51:57.000Z</time>
      </trkpt>
      <trkpt lat="-34.62932408787310123443603515625" lon="-59.092096500098705291748046875">
        <ele>34.799999237060546875</ele>
        <time>2020-02-24T15:52:06.000Z</time>
      </trkpt>
      <trkpt lat="-34.62918193079531192779541015625" lon="-59.09227176569402217864990234375">
        <ele>34.40000152587890625</ele>
        <time>2020-02-24T15:52:14.000Z</time>
      </trkpt>
      <trkpt lat="-34.6290053240954875946044921875" lon="-59.09249304793775081634521484375">
        <ele>34.40000152587890625</ele>
        <time>2020-02-24T15:52:24.000Z</time>
      </trkpt>
      <trkpt lat="-34.628843553364276885986328125" lon="-59.09267560578882694244384765625">
        <ele>34.40000152587890625</ele>
        <time>2020-02-24T15:52:33.000Z</time>
      </trkpt>
      <trkpt lat="-34.62861984036862850189208984375" lon="-59.09294432960450649261474609375">
        <ele>34.59999847412109375</ele>
        <time>2020-02-24T15:52:44.000Z</time>
      </trkpt>
      <trkpt lat="-34.628474079072475433349609375" lon="-59.09312345087528228759765625">
        <ele>34.59999847412109375</ele>
        <time>2020-02-24T15:52:52.000Z</time>
      </trkpt>
      <trkpt lat="-34.62831742130219936370849609375" lon="-59.09332486800849437713623046875">
        <ele>35</ele>
        <time>2020-02-24T15:53:01.000Z</time>
      </trkpt>
      <trkpt lat="-34.6281966380774974822998046875" lon="-59.0934699587523937225341796875">
        <ele>34.799999237060546875</ele>
        <time>2020-02-24T15:53:08.000Z</time>
      </trkpt>
      <trkpt lat="-34.6280464343726634979248046875" lon="-59.0936583839356899261474609375">
        <ele>35.200000762939453125</ele>
        <time>2020-02-24T15:53:17.000Z</time>
      </trkpt>
      <trkpt lat="-34.6279502101242542266845703125" lon="-59.09378193318843841552734375">
        <ele>35.40000152587890625</ele>
        <time>2020-02-24T15:53:23.000Z</time>
      </trkpt>
      <trkpt lat="-34.62789765559136867523193359375" lon="-59.09384286962449550628662109375">
        <ele>35.40000152587890625</ele>
        <time>2020-02-24T15:53:26.000Z</time>
      </trkpt>
      <trkpt lat="-34.62773957289755344390869140625" lon="-59.09404470585286617279052734375">
        <ele>35.59999847412109375</ele>
        <time>2020-02-24T15:53:35.000Z</time>
      </trkpt>
      <trkpt lat="-34.627557098865509033203125" lon="-59.09426582045853137969970703125">
        <ele>35.59999847412109375</ele>
        <time>2020-02-24T15:53:45.000Z</time>
      </trkpt>
      <trkpt lat="-34.6273983456194400787353515625" lon="-59.094491042196750640869140625">
        <ele>35.40000152587890625</ele>
        <time>2020-02-24T15:53:55.000Z</time>
      </trkpt>
      <trkpt lat="-34.6272766403853893280029296875" lon="-59.094727747142314910888671875">
        <ele>35.59999847412109375</ele>
        <time>2020-02-24T15:54:04.000Z</time>
      </trkpt>
      <trkpt lat="-34.62723481468856334686279296875" lon="-59.09496285952627658843994140625">
        <ele>35.799999237060546875</ele>
        <time>2020-02-24T15:54:12.000Z</time>
      </trkpt>
      <trkpt lat="-34.62723967619240283966064453125" lon="-59.09520828165113925933837890625">
        <ele>35.799999237060546875</ele>
        <time>2020-02-24T15:54:20.000Z</time>
      </trkpt>
      <trkpt lat="-34.62728929705917835235595703125" lon="-59.09545940347015857696533203125">
        <ele>36</ele>
        <time>2020-02-24T15:54:29.000Z</time>
      </trkpt>
      <trkpt lat="-34.62738401256501674652099609375" lon="-59.09575880505144596099853515625">
        <ele>36</ele>
        <time>2020-02-24T15:54:39.000Z</time>
      </trkpt>
      <trkpt lat="-34.62747462093830108642578125" lon="-59.096068851649761199951171875">
        <ele>36.200000762939453125</ele>
        <time>2020-02-24T15:54:49.000Z</time>
      </trkpt>
      <trkpt lat="-34.62753471918404102325439453125" lon="-59.09629507921636104583740234375">
        <ele>36.200000762939453125</ele>
        <time>2020-02-24T15:54:56.000Z</time>
      </trkpt>
      <trkpt lat="-34.62759825401008129119873046875" lon="-59.09649590961635112762451171875">
        <ele>36</ele>
        <time>2020-02-24T15:55:03.000Z</time>
      </trkpt>
      <trkpt lat="-34.62765642441809177398681640625" lon="-59.096704535186290740966796875">
        <ele>35.799999237060546875</ele>
        <time>2020-02-24T15:55:10.000Z</time>
      </trkpt>
      <trkpt lat="-34.62772674858570098876953125" lon="-59.096958003938198089599609375">
        <ele>35.799999237060546875</ele>
        <time>2020-02-24T15:55:19.000Z</time>
      </trkpt>
      <trkpt lat="-34.6277845837175846099853515625" lon="-59.09715506248176097869873046875">
        <ele>35.799999237060546875</ele>
        <time>2020-02-24T15:55:26.000Z</time>
      </trkpt>
      <trkpt lat="-34.62783177383244037628173828125" lon="-59.097328484058380126953125">
        <ele>35.799999237060546875</ele>
        <time>2020-02-24T15:55:32.000Z</time>
      </trkpt>
      <trkpt lat="-34.62791190482676029205322265625" lon="-59.09755286760628223419189453125">
        <ele>35.59999847412109375</ele>
        <time>2020-02-24T15:55:41.000Z</time>
      </trkpt>
      <trkpt lat="-34.62792850099503993988037109375" lon="-59.09763484261929988861083984375">
        <ele>35.59999847412109375</ele>
        <time>2020-02-24T15:55:46.000Z</time>
      </trkpt>
      <trkpt lat="-34.62793705053627490997314453125" lon="-59.0976686216890811920166015625">
        <ele>36</ele>
        <time>2020-02-24T15:55:53.000Z</time>
      </trkpt>
      <trkpt lat="-34.627938307821750640869140625" lon="-59.0976699627935886383056640625">
        <ele>35.799999237060546875</ele>
        <time>2020-02-24T15:56:12.000Z</time>
      </trkpt>
      <trkpt lat="-34.62793822400271892547607421875" lon="-59.09767591394484043121337890625">
        <ele>36</ele>
        <time>2020-02-24T15:56:27.000Z</time>
      </trkpt>
      <trkpt lat="-34.62793403305113315582275390625" lon="-59.09767373465001583099365234375">
        <ele>36</ele>
        <time>2020-02-24T15:56:34.000Z</time>
      </trkpt>
      <trkpt lat="-34.62793327867984771728515625" lon="-59.09766552038490772247314453125">
        <ele>36.200000762939453125</ele>
        <time>2020-02-24T15:56:42.000Z</time>
      </trkpt>
      <trkpt lat="-34.62793520651757717132568359375" lon="-59.09766384400427341461181640625">
        <ele>35.799999237060546875</ele>
        <time>2020-02-24T15:56:53.000Z</time>
      </trkpt>
      <trkpt lat="-34.62793990038335323333740234375" lon="-59.09767172299325466156005859375">
        <ele>35.799999237060546875</ele>
        <time>2020-02-24T15:57:01.000Z</time>
      </trkpt>
      <trkpt lat="-34.62795264087617397308349609375" lon="-59.0976930968463420867919921875">
        <ele>36</ele>
        <time>2020-02-24T15:57:03.000Z</time>
      </trkpt>
      <trkpt lat="-34.62795968167483806610107421875" lon="-59.09770441241562366485595703125">
        <ele>36</ele>
        <time>2020-02-24T15:57:07.000Z</time>
      </trkpt>
      <trkpt lat="-34.62795532308518886566162109375" lon="-59.09770198166370391845703125">
        <ele>36.200000762939453125</ele>
        <time>2020-02-24T15:57:14.000Z</time>
      </trkpt>
      <trkpt lat="-34.62795632891356945037841796875" lon="-59.09770592115819454193115234375">
        <ele>36.200000762939453125</ele>
        <time>2020-02-24T15:57:26.000Z</time>
      </trkpt>
      <trkpt lat="-34.62795683182775974273681640625" lon="-59.09770592115819454193115234375">
        <ele>35.799999237060546875</ele>
        <time>2020-02-24T15:57:45.000Z</time>
      </trkpt>
      <trkpt lat="-34.62795649655163288116455078125" lon="-59.09770675934851169586181640625">
        <ele>35.59999847412109375</ele>
        <time>2020-02-24T15:57:59.000Z</time>
      </trkpt>
      <trkpt lat="-34.62795565836131572723388671875" lon="-59.097708351910114288330078125">
        <ele>36</ele>
        <time>2020-02-24T15:58:15.000Z</time>
      </trkpt>
      <trkpt lat="-34.62795381434261798858642578125" lon="-59.0977095253765583038330078125">
        <ele>36</ele>
        <time>2020-02-24T15:58:17.000Z</time>
      </trkpt>
      <trkpt lat="-34.62794912047684192657470703125" lon="-59.09771539270877838134765625">
        <ele>36</ele>
        <time>2020-02-24T15:58:26.000Z</time>
      </trkpt>
      <trkpt lat="-34.6279528923332691192626953125" lon="-59.097717069089412689208984375">
        <ele>36</ele>
        <time>2020-02-24T15:58:37.000Z</time>
      </trkpt>
      <trkpt lat="-34.62795339524745941162109375" lon="-59.097715057432651519775390625">
        <ele>36</ele>
        <time>2020-02-24T15:58:49.000Z</time>
      </trkpt>
      <trkpt lat="-34.62795398198068141937255859375" lon="-59.0977133810520172119140625">
        <ele>36</ele>
        <time>2020-02-24T15:58:58.000Z</time>
      </trkpt>
      <trkpt lat="-34.6279549039900302886962890625" lon="-59.097714722156524658203125">
        <ele>36</ele>
        <time>2020-02-24T15:59:08.000Z</time>
      </trkpt>
      <trkpt lat="-34.62795716710388660430908203125" lon="-59.0977158956229686737060546875">
        <ele>36</ele>
        <time>2020-02-24T15:59:12.000Z</time>
      </trkpt>
      <trkpt lat="-34.62793864309787750244140625" lon="-59.09768563695251941680908203125">
        <ele>36</ele>
        <time>2020-02-24T15:59:20.000Z</time>
      </trkpt>
      <trkpt lat="-34.62792933918535709381103515625" lon="-59.097670130431652069091796875">
        <ele>36</ele>
        <time>2020-02-24T15:59:22.000Z</time>
      </trkpt>
      <trkpt lat="-34.6278979070484638214111328125" lon="-59.09760483540594577789306640625">
        <ele>35.799999237060546875</ele>
        <time>2020-02-24T15:59:31.000Z</time>
      </trkpt>
      <trkpt lat="-34.6278928779065608978271484375" lon="-59.09760081209242343902587890625">
        <ele>35.59999847412109375</ele>
        <time>2020-02-24T15:59:41.000Z</time>
      </trkpt>
      <trkpt lat="-34.627891369163990020751953125" lon="-59.09760097973048686981201171875">
        <ele>35.799999237060546875</ele>
        <time>2020-02-24T15:59:55.000Z</time>
      </trkpt>
      <trkpt lat="-34.6278910338878631591796875" lon="-59.09759947098791599273681640625">
        <ele>35.59999847412109375</ele>
        <time>2020-02-24T16:00:08.000Z</time>
      </trkpt>
      <trkpt lat="-34.62789128534495830535888671875" lon="-59.09759930334985256195068359375">
        <ele>35.59999847412109375</ele>
        <time>2020-02-24T16:00:27.000Z</time>
      </trkpt>
      <trkpt lat="-34.62789346463978290557861328125" lon="-59.09759880043566226959228515625">
        <ele>35.59999847412109375</ele>
        <time>2020-02-24T16:00:58.000Z</time>
      </trkpt>
      <trkpt lat="-34.6278937160968780517578125" lon="-59.09759796224534511566162109375">
        <ele>35.59999847412109375</ele>
        <time>2020-02-24T16:01:09.000Z</time>
      </trkpt>
      <trkpt lat="-34.6278938837349414825439453125" lon="-59.0976007282733917236328125">
        <ele>35.59999847412109375</ele>
        <time>2020-02-24T16:01:20.000Z</time>
      </trkpt>
      <trkpt lat="-34.62789648212492465972900390625" lon="-59.0976022370159626007080078125">
        <ele>35.59999847412109375</ele>
        <time>2020-02-24T16:01:36.000Z</time>
      </trkpt>
      <trkpt lat="-34.62790335528552532196044921875" lon="-59.09760718233883380889892578125">
        <ele>35.59999847412109375</ele>
        <time>2020-02-24T16:01:53.000Z</time>
      </trkpt>
      <trkpt lat="-34.627901427447795867919921875" lon="-59.0976086072623729705810546875">
        <ele>35.59999847412109375</ele>
        <time>2020-02-24T16:02:09.000Z</time>
      </trkpt>
      <trkpt lat="-34.627897404134273529052734375" lon="-59.09761422313749790191650390625">
        <ele>35.59999847412109375</ele>
        <time>2020-02-24T16:02:22.000Z</time>
      </trkpt>
      <trkpt lat="-34.62789706885814666748046875" lon="-59.0976122952997684478759765625">
        <ele>35.59999847412109375</ele>
        <time>2020-02-24T16:02:54.000Z</time>
      </trkpt>
      <trkpt lat="-34.6278948895633220672607421875" lon="-59.097610451281070709228515625">
        <ele>35.59999847412109375</ele>
        <time>2020-02-24T16:03:12.000Z</time>
      </trkpt>
      <trkpt lat="-34.62789237499237060546875" lon="-59.0976079367101192474365234375">
        <ele>35.59999847412109375</ele>
        <time>2020-02-24T16:03:34.000Z</time>
      </trkpt>
      <trkpt lat="-34.62789237499237060546875" lon="-59.0976079367101192474365234375">
        <ele>35.59999847412109375</ele>
        <time>2020-02-24T16:03:35.000Z</time>
      </trkpt>
      <trkpt lat="-34.62789379991590976715087890625" lon="-59.09760667942464351654052734375">
        <ele>35.59999847412109375</ele>
        <time>2020-02-24T16:03:59.000Z</time>
      </trkpt>
      <trkpt lat="-34.62789430283010005950927734375" lon="-59.09760600887238979339599609375">
        <ele>35.59999847412109375</ele>
        <time>2020-02-24T16:04:28.000Z</time>
      </trkpt>
      <trkpt lat="-34.62789379991590976715087890625" lon="-59.09760517068207263946533203125">
        <ele>35.59999847412109375</ele>
        <time>2020-02-24T16:04:43.000Z</time>
      </trkpt>
      <trkpt lat="-34.6278935484588146209716796875" lon="-59.0976029075682163238525390625">
        <ele>35.59999847412109375</ele>
        <time>2020-02-24T16:05:07.000Z</time>
      </trkpt>
      <trkpt lat="-34.62789262644946575164794921875" lon="-59.0976065956056118011474609375">
        <ele>35.59999847412109375</ele>
        <time>2020-02-24T16:05:16.000Z</time>
      </trkpt>
      <trkpt lat="-34.6278910338878631591796875" lon="-59.0976055897772312164306640625">
        <ele>35.59999847412109375</ele>
        <time>2020-02-24T16:05:32.000Z</time>
      </trkpt>
      <trkpt lat="-34.6278908662497997283935546875" lon="-59.09760550595819950103759765625">
        <ele>35.59999847412109375</ele>
        <time>2020-02-24T16:05:33.000Z</time>
      </trkpt>
      <trkpt lat="-34.62788877077400684356689453125" lon="-59.09760366193950176239013671875">
        <ele>35.59999847412109375</ele>
        <time>2020-02-24T16:05:45.000Z</time>
      </trkpt>
      <trkpt lat="-34.627889357507228851318359375" lon="-59.0976022370159626007080078125">
        <ele>35.59999847412109375</ele>
        <time>2020-02-24T16:06:15.000Z</time>
      </trkpt>
      <trkpt lat="-34.62789044715464115142822265625" lon="-59.09759880043566226959228515625">
        <ele>35.59999847412109375</ele>
        <time>2020-02-24T16:06:27.000Z</time>
      </trkpt>
      <trkpt lat="-34.6278910338878631591796875" lon="-59.09759762696921825408935546875">
        <ele>35.59999847412109375</ele>
        <time>2020-02-24T16:06:37.000Z</time>
      </trkpt>
      <trkpt lat="-34.627893380820751190185546875" lon="-59.0975982137024402618408203125">
        <ele>35.59999847412109375</ele>
        <time>2020-02-24T16:06:51.000Z</time>
      </trkpt>
      <trkpt lat="-34.62789379991590976715087890625" lon="-59.097596704959869384765625">
        <ele>35.59999847412109375</ele>
        <time>2020-02-24T16:07:04.000Z</time>
      </trkpt>
      <trkpt lat="-34.62789346463978290557861328125" lon="-59.09759678877890110015869140625">
        <ele>35.59999847412109375</ele>
        <time>2020-02-24T16:07:20.000Z</time>
      </trkpt>
      <trkpt lat="-34.6278945542871952056884765625" lon="-59.097600392997264862060546875">
        <ele>35.59999847412109375</ele>
        <time>2020-02-24T16:07:32.000Z</time>
      </trkpt>
      <trkpt lat="-34.62789237499237060546875" lon="-59.097598381340503692626953125">
        <ele>35.59999847412109375</ele>
        <time>2020-02-24T16:07:43.000Z</time>
      </trkpt>
      <trkpt lat="-34.62789279408752918243408203125" lon="-59.0975980460643768310546875">
        <ele>35.59999847412109375</ele>
        <time>2020-02-24T16:07:45.000Z</time>
      </trkpt>
      <trkpt lat="-34.627889692783355712890625" lon="-59.09759871661663055419921875">
        <ele>35.59999847412109375</ele>
        <time>2020-02-24T16:07:56.000Z</time>
      </trkpt>
      <trkpt lat="-34.6278885193169116973876953125" lon="-59.09759863279759883880615234375">
        <ele>35.59999847412109375</ele>
        <time>2020-02-24T16:08:07.000Z</time>
      </trkpt>
      <trkpt lat="-34.62789229117333889007568359375" lon="-59.097605757415294647216796875">
        <ele>35.59999847412109375</ele>
        <time>2020-02-24T16:08:21.000Z</time>
      </trkpt>
      <trkpt lat="-34.62789329700171947479248046875" lon="-59.0976087749004364013671875">
        <ele>35.59999847412109375</ele>
        <time>2020-02-24T16:08:34.000Z</time>
      </trkpt>
      <trkpt lat="-34.62789379991590976715087890625" lon="-59.09760952927172183990478515625">
        <ele>35.59999847412109375</ele>
        <time>2020-02-24T16:08:49.000Z</time>
      </trkpt>
      <trkpt lat="-34.62789304554462432861328125" lon="-59.09760734997689723968505859375">
        <ele>35.59999847412109375</ele>
        <time>2020-02-24T16:09:22.000Z</time>
      </trkpt>
      <trkpt lat="-34.6278918720781803131103515625" lon="-59.0976062603294849395751953125">
        <ele>35.59999847412109375</ele>
        <time>2020-02-24T16:10:00.000Z</time>
      </trkpt>
      <trkpt lat="-34.62789212353527545928955078125" lon="-59.09760634414851665496826171875">
        <ele>35.59999847412109375</ele>
        <time>2020-02-24T16:10:18.000Z</time>
      </trkpt>
      <trkpt lat="-34.6278928779065608978271484375" lon="-59.09760651178658008575439453125">
        <ele>35.59999847412109375</ele>
        <time>2020-02-24T16:10:42.000Z</time>
      </trkpt>
      <trkpt lat="-34.6278925426304340362548828125" lon="-59.0976069308817386627197265625">
        <ele>35.59999847412109375</ele>
        <time>2020-02-24T16:10:56.000Z</time>
      </trkpt>
      <trkpt lat="-34.62789237499237060546875" lon="-59.09760600887238979339599609375">
        <ele>35.59999847412109375</ele>
        <time>2020-02-24T16:11:03.000Z</time>
      </trkpt>
      <trkpt lat="-34.627892710268497467041015625" lon="-59.09760198555886745452880859375">
        <ele>35.59999847412109375</ele>
        <time>2020-02-24T16:11:14.000Z</time>
      </trkpt>
      <trkpt lat="-34.62789363227784633636474609375" lon="-59.097605086863040924072265625">
        <ele>35.59999847412109375</ele>
        <time>2020-02-24T16:11:28.000Z</time>
      </trkpt>
      <trkpt lat="-34.62789497338235378265380859375" lon="-59.09760500304400920867919921875">
        <ele>35.59999847412109375</ele>
        <time>2020-02-24T16:11:56.000Z</time>
      </trkpt>
      <trkpt lat="-34.62789514102041721343994140625" lon="-59.0976052545011043548583984375">
        <ele>35.59999847412109375</ele>
        <time>2020-02-24T16:12:22.000Z</time>
      </trkpt>
      <trkpt lat="-34.62789631448686122894287109375" lon="-59.09760542213916778564453125">
        <ele>35.59999847412109375</ele>
        <time>2020-02-24T16:12:45.000Z</time>
      </trkpt>
      <trkpt lat="-34.6278962306678295135498046875" lon="-59.0976049192249774932861328125">
        <ele>35.59999847412109375</ele>
        <time>2020-02-24T16:13:11.000Z</time>
      </trkpt>
      <trkpt lat="-34.62789597921073436737060546875" lon="-59.0976052545011043548583984375">
        <ele>35.59999847412109375</ele>
        <time>2020-02-24T16:13:31.000Z</time>
      </trkpt>
      <trkpt lat="-34.62789572775363922119140625" lon="-59.09760584123432636260986328125">
        <ele>35.59999847412109375</ele>
        <time>2020-02-24T16:13:57.000Z</time>
      </trkpt>
      <trkpt lat="-34.6278958953917026519775390625" lon="-59.09760533832013607025146484375">
        <ele>35.59999847412109375</ele>
        <time>2020-02-24T16:14:24.000Z</time>
      </trkpt>
      <trkpt lat="-34.6278962306678295135498046875" lon="-59.097605086863040924072265625">
        <ele>35.59999847412109375</ele>
        <time>2020-02-24T16:14:42.000Z</time>
      </trkpt>
      <trkpt lat="-34.62789715267717838287353515625" lon="-59.09760542213916778564453125">
        <ele>35.59999847412109375</ele>
        <time>2020-02-24T16:15:16.000Z</time>
      </trkpt>
      <trkpt lat="-34.627897739410400390625" lon="-59.09760416485369205474853515625">
        <ele>35.59999847412109375</ele>
        <time>2020-02-24T16:15:45.000Z</time>
      </trkpt>
      <trkpt lat="-34.627898074686527252197265625" lon="-59.09760399721562862396240234375">
        <ele>35.59999847412109375</ele>
        <time>2020-02-24T16:16:15.000Z</time>
      </trkpt>
      <trkpt lat="-34.62789840996265411376953125" lon="-59.09760684706270694732666015625">
        <ele>35.59999847412109375</ele>
        <time>2020-02-24T16:16:34.000Z</time>
      </trkpt>
      <trkpt lat="-34.627899415791034698486328125" lon="-59.09760676324367523193359375">
        <ele>35.59999847412109375</ele>
        <time>2020-02-24T16:16:55.000Z</time>
      </trkpt>
      <trkpt lat="-34.6279005892574787139892578125" lon="-59.09760634414851665496826171875">
        <ele>35.59999847412109375</ele>
        <time>2020-02-24T16:17:23.000Z</time>
      </trkpt>
      <trkpt lat="-34.62790050543844699859619140625" lon="-59.09760701470077037811279296875">
        <ele>35.59999847412109375</ele>
        <time>2020-02-24T16:17:43.000Z</time>
      </trkpt>
      <trkpt lat="-34.62790017016232013702392578125" lon="-59.09760718233883380889892578125">
        <ele>35.59999847412109375</ele>
        <time>2020-02-24T16:18:09.000Z</time>
      </trkpt>
      <trkpt lat="-34.627900421619415283203125" lon="-59.09760718233883380889892578125">
        <ele>35.59999847412109375</ele>
        <time>2020-02-24T16:18:33.000Z</time>
      </trkpt>
      <trkpt lat="-34.62790117599070072174072265625" lon="-59.09760634414851665496826171875">
        <ele>35.59999847412109375</ele>
        <time>2020-02-24T16:18:57.000Z</time>
      </trkpt>
      <trkpt lat="-34.627900756895542144775390625" lon="-59.097605757415294647216796875">
        <ele>35.59999847412109375</ele>
        <time>2020-02-24T16:19:26.000Z</time>
      </trkpt>
      <trkpt lat="-34.6279015950858592987060546875" lon="-59.0976032428443431854248046875">
        <ele>35.59999847412109375</ele>
        <time>2020-02-24T16:19:46.000Z</time>
      </trkpt>
      <trkpt lat="-34.6279009245336055755615234375" lon="-59.09760466776788234710693359375">
        <ele>35.59999847412109375</ele>
        <time>2020-02-24T16:20:04.000Z</time>
      </trkpt>
      <trkpt lat="-34.62790100835263729095458984375" lon="-59.0976029075682163238525390625">
        <ele>35.59999847412109375</ele>
        <time>2020-02-24T16:20:15.000Z</time>
      </trkpt>
      <trkpt lat="-34.62790084071457386016845703125" lon="-59.09760273993015289306640625">
        <ele>35.59999847412109375</ele>
        <time>2020-02-24T16:20:16.000Z</time>
      </trkpt>
      <trkpt lat="-34.6279022656381130218505859375" lon="-59.09760273993015289306640625">
        <ele>35.59999847412109375</ele>
        <time>2020-02-24T16:20:37.000Z</time>
      </trkpt>
      <trkpt lat="-34.62790310382843017578125" lon="-59.0976015664637088775634765625">
        <ele>35.59999847412109375</ele>
        <time>2020-02-24T16:21:07.000Z</time>
      </trkpt>
      <trkpt lat="-34.6279044449329376220703125" lon="-59.0976019017398357391357421875">
        <ele>35.59999847412109375</ele>
        <time>2020-02-24T16:21:27.000Z</time>
      </trkpt>
      <trkpt lat="-34.62790285237133502960205078125" lon="-59.09760273993015289306640625">
        <ele>35.59999847412109375</ele>
        <time>2020-02-24T16:21:42.000Z</time>
      </trkpt>
      <trkpt lat="-34.62790268473327159881591796875" lon="-59.09760181792080402374267578125">
        <ele>35.59999847412109375</ele>
        <time>2020-02-24T16:21:57.000Z</time>
      </trkpt>
      <trkpt lat="-34.62790084071457386016845703125" lon="-59.0976012311875820159912109375">
        <ele>35.59999847412109375</ele>
        <time>2020-02-24T16:22:10.000Z</time>
      </trkpt>
      <trkpt lat="-34.6279012598097324371337890625" lon="-59.0976025722920894622802734375">
        <ele>35.59999847412109375</ele>
        <time>2020-02-24T16:22:41.000Z</time>
      </trkpt>
      <trkpt lat="-34.6279015950858592987060546875" lon="-59.0976012311875820159912109375">
        <ele>35.59999847412109375</ele>
        <time>2020-02-24T16:23:32.000Z</time>
      </trkpt>
      <trkpt lat="-34.6279019303619861602783203125" lon="-59.0976007282733917236328125">
        <ele>35.59999847412109375</ele>
        <time>2020-02-24T16:24:01.000Z</time>
      </trkpt>
      <trkpt lat="-34.62790243327617645263671875" lon="-59.09760114736855030059814453125">
        <ele>35.59999847412109375</ele>
        <time>2020-02-24T16:24:19.000Z</time>
      </trkpt>
      <trkpt lat="-34.62790134362876415252685546875" lon="-59.09760181792080402374267578125">
        <ele>35.59999847412109375</ele>
        <time>2020-02-24T16:24:34.000Z</time>
      </trkpt>
      <trkpt lat="-34.6279022656381130218505859375" lon="-59.097603075206279754638671875">
        <ele>35.59999847412109375</ele>
        <time>2020-02-24T16:24:49.000Z</time>
      </trkpt>
      <trkpt lat="-34.627902768552303314208984375" lon="-59.09760265611112117767333984375">
        <ele>35.59999847412109375</ele>
        <time>2020-02-24T16:25:12.000Z</time>
      </trkpt>
      <trkpt lat="-34.62790352292358875274658203125" lon="-59.097602069377899169921875">
        <ele>35.59999847412109375</ele>
        <time>2020-02-24T16:25:35.000Z</time>
      </trkpt>
      <trkpt lat="-34.6279039420187473297119140625" lon="-59.0976007282733917236328125">
        <ele>35.59999847412109375</ele>
        <time>2020-02-24T16:26:01.000Z</time>
      </trkpt>
      <trkpt lat="-34.627903439104557037353515625" lon="-59.09760349430143833160400390625">
        <ele>35.59999847412109375</ele>
        <time>2020-02-24T16:26:23.000Z</time>
      </trkpt>
      <trkpt lat="-34.627905786037445068359375" lon="-59.09760248847305774688720703125">
        <ele>35.59999847412109375</ele>
        <time>2020-02-24T16:26:40.000Z</time>
      </trkpt>
      <trkpt lat="-34.62790586985647678375244140625" lon="-59.09760399721562862396240234375">
        <ele>35.59999847412109375</ele>
        <time>2020-02-24T16:27:02.000Z</time>
      </trkpt>
      <trkpt lat="-34.62790511548519134521484375" lon="-59.09760131500661373138427734375">
        <ele>35.59999847412109375</ele>
        <time>2020-02-24T16:27:15.000Z</time>
      </trkpt>
      <trkpt lat="-34.62790553458034992218017578125" lon="-59.09760081209242343902587890625">
        <ele>35.59999847412109375</ele>
        <time>2020-02-24T16:27:46.000Z</time>
      </trkpt>
      <trkpt lat="-34.62790586985647678375244140625" lon="-59.097600392997264862060546875">
        <ele>35.59999847412109375</ele>
        <time>2020-02-24T16:28:03.000Z</time>
      </trkpt>
      <trkpt lat="-34.62790603749454021453857421875" lon="-59.0975998900830745697021484375">
        <ele>35.59999847412109375</ele>
        <time>2020-02-24T16:28:26.000Z</time>
      </trkpt>
      <trkpt lat="-34.62790536694228649139404296875" lon="-59.09759930334985256195068359375">
        <ele>35.59999847412109375</ele>
        <time>2020-02-24T16:28:45.000Z</time>
      </trkpt>
      <trkpt lat="-34.6279062889516353607177734375" lon="-59.09759896807372570037841796875">
        <ele>35.59999847412109375</ele>
        <time>2020-02-24T16:29:29.000Z</time>
      </trkpt>
      <trkpt lat="-34.62790637277066707611083984375" lon="-59.097599722445011138916015625">
        <ele>35.59999847412109375</ele>
        <time>2020-02-24T16:29:48.000Z</time>
      </trkpt>
      <trkpt lat="-34.62790637277066707611083984375" lon="-59.09759997390210628509521484375">
        <ele>35.59999847412109375</ele>
        <time>2020-02-24T16:29:59.000Z</time>
      </trkpt>
      <trkpt lat="-34.6279056183993816375732421875" lon="-59.09759997390210628509521484375">
        <ele>35.59999847412109375</ele>
        <time>2020-02-24T16:30:08.000Z</time>
      </trkpt>
      <trkpt lat="-34.62790519930422306060791015625" lon="-59.09760047681629657745361328125">
        <ele>35.59999847412109375</ele>
        <time>2020-02-24T16:30:30.000Z</time>
      </trkpt>
      <trkpt lat="-34.6279052831232547760009765625" lon="-59.097600392997264862060546875">
        <ele>35.59999847412109375</ele>
        <time>2020-02-24T16:30:45.000Z</time>
      </trkpt>
      <trkpt lat="-34.62790737859904766082763671875" lon="-59.09760265611112117767333984375">
        <ele>35.59999847412109375</ele>
        <time>2020-02-24T16:30:59.000Z</time>
      </trkpt>
      <trkpt lat="-34.62790855206549167633056640625" lon="-59.09760416485369205474853515625">
        <ele>35.59999847412109375</ele>
        <time>2020-02-24T16:31:14.000Z</time>
      </trkpt>
      <trkpt lat="-34.62790804915130138397216796875" lon="-59.0976042486727237701416015625">
        <ele>35.59999847412109375</ele>
        <time>2020-02-24T16:31:33.000Z</time>
      </trkpt>
      <trkpt lat="-34.627908132970333099365234375" lon="-59.09760349430143833160400390625">
        <ele>35.59999847412109375</ele>
        <time>2020-02-24T16:31:47.000Z</time>
      </trkpt>
      <trkpt lat="-34.62790838442742824554443359375" lon="-59.09760332666337490081787109375">
        <ele>35.59999847412109375</ele>
        <time>2020-02-24T16:32:05.000Z</time>
      </trkpt>
      <trkpt lat="-34.62790913879871368408203125" lon="-59.09760315902531147003173828125">
        <ele>35.59999847412109375</ele>
        <time>2020-02-24T16:32:28.000Z</time>
      </trkpt>
      <trkpt lat="-34.6279089711606502532958984375" lon="-59.09760349430143833160400390625">
        <ele>35.59999847412109375</ele>
        <time>2020-02-24T16:32:51.000Z</time>
      </trkpt>
      <trkpt lat="-34.6279076300561428070068359375" lon="-59.0976042486727237701416015625">
        <ele>35.59999847412109375</ele>
        <time>2020-02-24T16:33:09.000Z</time>
      </trkpt>
      <trkpt lat="-34.6279086358845233917236328125" lon="-59.097604416310787200927734375">
        <ele>35.59999847412109375</ele>
        <time>2020-02-24T16:33:33.000Z</time>
      </trkpt>
      <trkpt lat="-34.6279083006083965301513671875" lon="-59.09760399721562862396240234375">
        <ele>35.59999847412109375</ele>
        <time>2020-02-24T16:33:47.000Z</time>
      </trkpt>
      <trkpt lat="-34.62790922261774539947509765625" lon="-59.0976035781204700469970703125">
        <ele>35.59999847412109375</ele>
        <time>2020-02-24T16:34:00.000Z</time>
      </trkpt>
      <trkpt lat="-34.62790905497968196868896484375" lon="-59.09760273993015289306640625">
        <ele>35.59999847412109375</ele>
        <time>2020-02-24T16:34:13.000Z</time>
      </trkpt>
      <trkpt lat="-34.62791022844612598419189453125" lon="-59.0976039133965969085693359375">
        <ele>35.59999847412109375</ele>
        <time>2020-02-24T16:34:30.000Z</time>
      </trkpt>
      <trkpt lat="-34.62790905497968196868896484375" lon="-59.09760433249175548553466796875">
        <ele>35.59999847412109375</ele>
        <time>2020-02-24T16:34:46.000Z</time>
      </trkpt>
      <trkpt lat="-34.627908132970333099365234375" lon="-59.09760466776788234710693359375">
        <ele>35.59999847412109375</ele>
        <time>2020-02-24T16:35:08.000Z</time>
      </trkpt>
      <trkpt lat="-34.6279083006083965301513671875" lon="-59.09760165028274059295654296875">
        <ele>35.59999847412109375</ele>
        <time>2020-02-24T16:35:33.000Z</time>
      </trkpt>
      <trkpt lat="-34.62790452875196933746337890625" lon="-59.09761204384267330169677734375">
        <ele>35.59999847412109375</ele>
        <time>2020-02-24T16:35:48.000Z</time>
      </trkpt>
      <trkpt lat="-34.6279039420187473297119140625" lon="-59.09761212766170501708984375">
        <ele>35.59999847412109375</ele>
        <time>2020-02-24T16:36:08.000Z</time>
      </trkpt>
      <trkpt lat="-34.6279032714664936065673828125" lon="-59.097612462937831878662109375">
        <ele>35.59999847412109375</ele>
        <time>2020-02-24T16:36:35.000Z</time>
      </trkpt>
      <trkpt lat="-34.6279036067426204681396484375" lon="-59.09761237911880016326904296875">
        <ele>35.59999847412109375</ele>
        <time>2020-02-24T16:36:55.000Z</time>
      </trkpt>
      <trkpt lat="-34.6279026009142398834228515625" lon="-59.097613133490085601806640625">
        <ele>35.59999847412109375</ele>
        <time>2020-02-24T16:37:16.000Z</time>
      </trkpt>
      <trkpt lat="-34.62790377438068389892578125" lon="-59.0976102836430072784423828125">
        <ele>35.59999847412109375</ele>
        <time>2020-02-24T16:37:31.000Z</time>
      </trkpt>
      <trkpt lat="-34.6279029361903667449951171875" lon="-59.0976089425384998321533203125">
        <ele>35.59999847412109375</ele>
        <time>2020-02-24T16:37:50.000Z</time>
      </trkpt>
      <trkpt lat="-34.62790167890489101409912109375" lon="-59.09760944545269012451171875">
        <ele>35.59999847412109375</ele>
        <time>2020-02-24T16:38:11.000Z</time>
      </trkpt>
      <trkpt lat="-34.6279015950858592987060546875" lon="-59.0976102836430072784423828125">
        <ele>35.59999847412109375</ele>
        <time>2020-02-24T16:38:43.000Z</time>
      </trkpt>
      <trkpt lat="-34.62790184654295444488525390625" lon="-59.09760768525302410125732421875">
        <ele>35.59999847412109375</ele>
        <time>2020-02-24T16:39:06.000Z</time>
      </trkpt>
      <trkpt lat="-34.62790268473327159881591796875" lon="-59.09760684706270694732666015625">
        <ele>35.59999847412109375</ele>
        <time>2020-02-24T16:39:25.000Z</time>
      </trkpt>
      <trkpt lat="-34.627900421619415283203125" lon="-59.09759729169309139251708984375">
        <ele>35.59999847412109375</ele>
        <time>2020-02-24T16:39:52.000Z</time>
      </trkpt>
      <trkpt lat="-34.62789245881140232086181640625" lon="-59.0975874848663806915283203125">
        <ele>35.59999847412109375</ele>
        <time>2020-02-24T16:40:05.000Z</time>
      </trkpt>
      <trkpt lat="-34.62789966724812984466552734375" lon="-59.09760114736855030059814453125">
        <ele>35.59999847412109375</ele>
        <time>2020-02-24T16:40:09.000Z</time>
      </trkpt>
      <trkpt lat="-34.6279136650264263153076171875" lon="-59.0976126305758953094482421875">
        <ele>35.59999847412109375</ele>
        <time>2020-02-24T16:40:12.000Z</time>
      </trkpt>
      <trkpt lat="-34.62792011909186840057373046875" lon="-59.0976247005164623260498046875">
        <ele>35.59999847412109375</ele>
        <time>2020-02-24T16:40:18.000Z</time>
      </trkpt>
      <trkpt lat="-34.62791894562542438507080078125" lon="-59.097619839012622833251953125">
        <ele>35.59999847412109375</ele>
        <time>2020-02-24T16:40:29.000Z</time>
      </trkpt>
      <trkpt lat="-34.6279200352728366851806640625" lon="-59.0976260416209697723388671875">
        <ele>35.59999847412109375</ele>
        <time>2020-02-24T16:40:46.000Z</time>
      </trkpt>
      <trkpt lat="-34.62792481295764446258544921875" lon="-59.09764221869409084320068359375">
        <ele>35.59999847412109375</ele>
        <time>2020-02-24T16:40:48.000Z</time>
      </trkpt>
      <trkpt lat="-34.6279527246952056884765625" lon="-59.09773089922964572906494140625">
        <ele>36</ele>
        <time>2020-02-24T16:40:57.000Z</time>
      </trkpt>
      <trkpt lat="-34.62795951403677463531494140625" lon="-59.09774431027472019195556640625">
        <ele>36.200000762939453125</ele>
        <time>2020-02-24T16:41:04.000Z</time>
      </trkpt>
      <trkpt lat="-34.62795767001807689666748046875" lon="-59.09774598665535449981689453125">
        <ele>36</ele>
        <time>2020-02-24T16:41:29.000Z</time>
      </trkpt>
      <trkpt lat="-34.62797963060438632965087890625" lon="-59.09780147485435009002685546875">
        <ele>35.799999237060546875</ele>
        <time>2020-02-24T16:41:35.000Z</time>
      </trkpt>
      <trkpt lat="-34.6280005015432834625244140625" lon="-59.0978684462606906890869140625">
        <ele>35.799999237060546875</ele>
        <time>2020-02-24T16:41:38.000Z</time>
      </trkpt>
      <trkpt lat="-34.628049619495868682861328125" lon="-59.098047316074371337890625">
        <ele>35.59999847412109375</ele>
        <time>2020-02-24T16:41:45.000Z</time>
      </trkpt>
      <trkpt lat="-34.6281074546277523040771484375" lon="-59.0982369147241115570068359375">
        <ele>36</ele>
        <time>2020-02-24T16:41:54.000Z</time>
      </trkpt>
      <trkpt lat="-34.62815430946648120880126953125" lon="-59.09842609427869319915771484375">
        <ele>35.799999237060546875</ele>
        <time>2020-02-24T16:42:03.000Z</time>
      </trkpt>
      <trkpt lat="-34.6282020024955272674560546875" lon="-59.09855869598686695098876953125">
        <ele>35.59999847412109375</ele>
        <time>2020-02-24T16:42:12.000Z</time>
      </trkpt>
      <trkpt lat="-34.62821298278868198394775390625" lon="-59.098594151437282562255859375">
        <ele>36</ele>
        <time>2020-02-24T16:42:18.000Z</time>
      </trkpt>
      <trkpt lat="-34.62824047543108463287353515625" lon="-59.09871024079620838165283203125">
        <ele>35.799999237060546875</ele>
        <time>2020-02-24T16:42:26.000Z</time>
      </trkpt>
      <trkpt lat="-34.62824332527816295623779296875" lon="-59.09871661104261875152587890625">
        <ele>35.799999237060546875</ele>
        <time>2020-02-24T16:42:27.000Z</time>
      </trkpt>
      <trkpt lat="-34.62824516929686069488525390625" lon="-59.098720885813236236572265625">
        <ele>35.799999237060546875</ele>
        <time>2020-02-24T16:42:32.000Z</time>
      </trkpt>
      <trkpt lat="-34.6282450854778289794921875" lon="-59.09872113727033138275146484375">
        <ele>35.59999847412109375</ele>
        <time>2020-02-24T16:42:53.000Z</time>
      </trkpt>
      <trkpt lat="-34.6282522939145565032958984375" lon="-59.09873706288635730743408203125">
        <ele>35.59999847412109375</ele>
        <time>2020-02-24T16:43:07.000Z</time>
      </trkpt>
      <trkpt lat="-34.62826042436063289642333984375" lon="-59.09876304678618907928466796875">
        <ele>35.59999847412109375</ele>
        <time>2020-02-24T16:43:09.000Z</time>
      </trkpt>
      <trkpt lat="-34.628297723829746246337890625" lon="-59.098875112831592559814453125">
        <ele>35.799999237060546875</ele>
        <time>2020-02-24T16:43:16.000Z</time>
      </trkpt>
      <trkpt lat="-34.62834709323942661285400390625" lon="-59.09898810088634490966796875">
        <ele>36</ele>
        <time>2020-02-24T16:43:23.000Z</time>
      </trkpt>
      <trkpt lat="-34.62836771272122859954833984375" lon="-59.099109135568141937255859375">
        <ele>35.799999237060546875</ele>
        <time>2020-02-24T16:43:30.000Z</time>
      </trkpt>
      <trkpt lat="-34.62837810628116130828857421875" lon="-59.09920477308332920074462890625">
        <ele>36</ele>
        <time>2020-02-24T16:43:35.000Z</time>
      </trkpt>
      <trkpt lat="-34.628383219242095947265625" lon="-59.0992229618132114410400390625">
        <ele>36</ele>
        <time>2020-02-24T16:43:36.000Z</time>
      </trkpt>
      <trkpt lat="-34.62842990644276142120361328125" lon="-59.09938037395477294921875">
        <ele>36</ele>
        <time>2020-02-24T16:43:45.000Z</time>
      </trkpt>
      <trkpt lat="-34.62843242101371288299560546875" lon="-59.099390096962451934814453125">
        <ele>36.200000762939453125</ele>
        <time>2020-02-24T16:43:50.000Z</time>
      </trkpt>
      <trkpt lat="-34.62843107990920543670654296875" lon="-59.09938833676278591156005859375">
        <ele>36.200000762939453125</ele>
        <time>2020-02-24T16:44:00.000Z</time>
      </trkpt>
      <trkpt lat="-34.6284316666424274444580078125" lon="-59.0993882529437541961669921875">
        <ele>36.200000762939453125</ele>
        <time>2020-02-24T16:44:16.000Z</time>
      </trkpt>
      <trkpt lat="-34.62843158282339572906494140625" lon="-59.09938816912472248077392578125">
        <ele>36.200000762939453125</ele>
        <time>2020-02-24T16:44:20.000Z</time>
      </trkpt>
      <trkpt lat="-34.62843594141304492950439453125" lon="-59.09939755685627460479736328125">
        <ele>36.200000762939453125</ele>
        <time>2020-02-24T16:44:34.000Z</time>
      </trkpt>
      <trkpt lat="-34.62844298221170902252197265625" lon="-59.0994187630712985992431640625">
        <ele>36.200000762939453125</ele>
        <time>2020-02-24T16:44:36.000Z</time>
      </trkpt>
      <trkpt lat="-34.6284772641956806182861328125" lon="-59.0995112992823123931884765625">
        <ele>36</ele>
        <time>2020-02-24T16:44:43.000Z</time>
      </trkpt>
      <trkpt lat="-34.6285208500921726226806640625" lon="-59.09962872974574565887451171875">
        <ele>35.59999847412109375</ele>
        <time>2020-02-24T16:44:50.000Z</time>
      </trkpt>
      <trkpt lat="-34.62852478958666324615478515625" lon="-59.09965639002621173858642578125">
        <ele>35.59999847412109375</ele>
        <time>2020-02-24T16:44:55.000Z</time>
      </trkpt>
      <trkpt lat="-34.62852529250085353851318359375" lon="-59.09965555183589458465576171875">
        <ele>36</ele>
        <time>2020-02-24T16:45:16.000Z</time>
      </trkpt>
      <trkpt lat="-34.62853199802339076995849609375" lon="-59.0996779315173625946044921875">
        <ele>36</ele>
        <time>2020-02-24T16:45:20.000Z</time>
      </trkpt>
      <trkpt lat="-34.6285409666597843170166015625" lon="-59.09970332868397235870361328125">
        <ele>36</ele>
        <time>2020-02-24T16:45:22.000Z</time>
      </trkpt>
      <trkpt lat="-34.62857566773891448974609375" lon="-59.09982972778379917144775390625">
        <ele>36</ele>
        <time>2020-02-24T16:45:30.000Z</time>
      </trkpt>
      <trkpt lat="-34.62862193584442138671875" lon="-59.09998185932636260986328125">
        <ele>35.799999237060546875</ele>
        <time>2020-02-24T16:45:39.000Z</time>
      </trkpt>
      <trkpt lat="-34.62867490947246551513671875" lon="-59.100123681128025054931640625">
        <ele>35.799999237060546875</ele>
        <time>2020-02-24T16:45:47.000Z</time>
      </trkpt>
      <trkpt lat="-34.6286821179091930389404296875" lon="-59.10019576549530029296875">
        <ele>36</ele>
        <time>2020-02-24T16:45:51.000Z</time>
      </trkpt>
      <trkpt lat="-34.628694690763950347900390625" lon="-59.10024614073336124420166015625">
        <ele>36</ele>
        <time>2020-02-24T16:45:54.000Z</time>
      </trkpt>
      <trkpt lat="-34.6287464909255504608154296875" lon="-59.10040187649428844451904296875">
        <ele>35.799999237060546875</ele>
        <time>2020-02-24T16:46:03.000Z</time>
      </trkpt>
      <trkpt lat="-34.62878798134624958038330078125" lon="-59.10052006132900714874267578125">
        <ele>35.799999237060546875</ele>
        <time>2020-02-24T16:46:10.000Z</time>
      </trkpt>
      <trkpt lat="-34.6287907473742961883544921875" lon="-59.100539423525333404541015625">
        <ele>35.799999237060546875</ele>
        <time>2020-02-24T16:46:11.000Z</time>
      </trkpt>
      <trkpt lat="-34.6288204193115234375" lon="-59.10064511932432651519775390625">
        <ele>35.59999847412109375</ele>
        <time>2020-02-24T16:46:19.000Z</time>
      </trkpt>
      <trkpt lat="-34.6288244426250457763671875" lon="-59.10065249539911746978759765625">
        <ele>35.799999237060546875</ele>
        <time>2020-02-24T16:46:26.000Z</time>
      </trkpt>
      <trkpt lat="-34.6288336627185344696044921875" lon="-59.100691638886928558349609375">
        <ele>35.799999237060546875</ele>
        <time>2020-02-24T16:46:29.000Z</time>
      </trkpt>
      <trkpt lat="-34.62889024056494235992431640625" lon="-59.10087662748992443084716796875">
        <ele>35.799999237060546875</ele>
        <time>2020-02-24T16:46:39.000Z</time>
      </trkpt>
      <trkpt lat="-34.62894137017428874969482421875" lon="-59.1010341234505176544189453125">
        <ele>35.799999237060546875</ele>
        <time>2020-02-24T16:46:47.000Z</time>
      </trkpt>
      <trkpt lat="-34.6289801783859729766845703125" lon="-59.10119279287755489349365234375">
        <ele>35.59999847412109375</ele>
        <time>2020-02-24T16:46:56.000Z</time>
      </trkpt>
      <trkpt lat="-34.628989398479461669921875" lon="-59.1012108139693737030029296875">
        <ele>35.59999847412109375</ele>
        <time>2020-02-24T16:47:01.000Z</time>
      </trkpt>
      <trkpt lat="-34.62899350561201572418212890625" lon="-59.10121642984449863433837890625">
        <ele>35.59999847412109375</ele>
        <time>2020-02-24T16:47:04.000Z</time>
      </trkpt>
      <trkpt lat="-34.6290113590657711029052734375" lon="-59.10125590860843658447265625">
        <ele>35.59999847412109375</ele>
        <time>2020-02-24T16:47:07.000Z</time>
      </trkpt>
      <trkpt lat="-34.62904195301234722137451171875" lon="-59.10137753002345561981201171875">
        <ele>35.40000152587890625</ele>
        <time>2020-02-24T16:47:14.000Z</time>
      </trkpt>
      <trkpt lat="-34.62907464243471622467041015625" lon="-59.101566374301910400390625">
        <ele>35.200000762939453125</ele>
        <time>2020-02-24T16:47:23.000Z</time>
      </trkpt>
      <trkpt lat="-34.62910347618162631988525390625" lon="-59.10166419111192226409912109375">
        <ele>35.40000152587890625</ele>
        <time>2020-02-24T16:47:30.000Z</time>
      </trkpt>
      <trkpt lat="-34.629103727638721466064453125" lon="-59.10167341120541095733642578125">
        <ele>35.59999847412109375</ele>
        <time>2020-02-24T16:47:40.000Z</time>
      </trkpt>
      <trkpt lat="-34.629108421504497528076171875" lon="-59.10168212838470935821533203125">
        <ele>35.40000152587890625</ele>
        <time>2020-02-24T16:47:46.000Z</time>
      </trkpt>
      <trkpt lat="-34.62911956943571567535400390625" lon="-59.1017053462564945220947265625">
        <ele>35.40000152587890625</ele>
        <time>2020-02-24T16:47:48.000Z</time>
      </trkpt>
      <trkpt lat="-34.6291541866958141326904296875" lon="-59.10181473009288311004638671875">
        <ele>35.40000152587890625</ele>
        <time>2020-02-24T16:47:54.000Z</time>
      </trkpt>
      <trkpt lat="-34.629211015999317169189453125" lon="-59.101998545229434967041015625">
        <ele>35.200000762939453125</ele>
        <time>2020-02-24T16:48:04.000Z</time>
      </trkpt>
      <trkpt lat="-34.62926072068512439727783203125" lon="-59.10219392739236354827880859375">
        <ele>35</ele>
        <time>2020-02-24T16:48:12.000Z</time>
      </trkpt>
      <trkpt lat="-34.62932308204472064971923828125" lon="-59.1023842804133892059326171875">
        <ele>35</ele>
        <time>2020-02-24T16:48:21.000Z</time>
      </trkpt>
      <trkpt lat="-34.629323668777942657470703125" lon="-59.10238520242273807525634765625">
        <ele>35</ele>
        <time>2020-02-24T16:48:29.000Z</time>
      </trkpt>
      <trkpt lat="-34.6293268539011478424072265625" lon="-59.10239584743976593017578125">
        <ele>35</ele>
        <time>2020-02-24T16:48:31.000Z</time>
      </trkpt>
      <trkpt lat="-34.629343450069427490234375" lon="-59.10243884660303592681884765625">
        <ele>35</ele>
        <time>2020-02-24T16:48:34.000Z</time>
      </trkpt>
      <trkpt lat="-34.629377312958240509033203125" lon="-59.102595336735248565673828125">
        <ele>35</ele>
        <time>2020-02-24T16:48:42.000Z</time>
      </trkpt>
      <trkpt lat="-34.6294260956346988677978515625" lon="-59.10278317518532276153564453125">
        <ele>35</ele>
        <time>2020-02-24T16:48:51.000Z</time>
      </trkpt>
      <trkpt lat="-34.62945518083870410919189453125" lon="-59.1028846800327301025390625">
        <ele>35.200000762939453125</ele>
        <time>2020-02-24T16:48:58.000Z</time>
      </trkpt>
      <trkpt lat="-34.62946616113185882568359375" lon="-59.10290756262838840484619140625">
        <ele>35</ele>
        <time>2020-02-24T16:49:07.000Z</time>
      </trkpt>
      <trkpt lat="-34.6294740401208400726318359375" lon="-59.1029302775859832763671875">
        <ele>35</ele>
        <time>2020-02-24T16:49:08.000Z</time>
      </trkpt>
      <trkpt lat="-34.62952315807342529296875" lon="-59.1031292639672756195068359375">
        <ele>35</ele>
        <time>2020-02-24T16:49:14.000Z</time>
      </trkpt>
      <trkpt lat="-34.62957655079662799835205078125" lon="-59.103298746049404144287109375">
        <ele>34.799999237060546875</ele>
        <time>2020-02-24T16:49:20.000Z</time>
      </trkpt>
      <trkpt lat="-34.6296416781842708587646484375" lon="-59.103518687188625335693359375">
        <ele>35</ele>
        <time>2020-02-24T16:49:28.000Z</time>
      </trkpt>
      <trkpt lat="-34.6297147683799266815185546875" lon="-59.103766791522502899169921875">
        <ele>35</ele>
        <time>2020-02-24T16:49:37.000Z</time>
      </trkpt>
      <trkpt lat="-34.62976698763668537139892578125" lon="-59.10400383174419403076171875">
        <ele>35.200000762939453125</ele>
        <time>2020-02-24T16:49:45.000Z</time>
      </trkpt>
      <trkpt lat="-34.6297697536647319793701171875" lon="-59.10429376177489757537841796875">
        <ele>35.59999847412109375</ele>
        <time>2020-02-24T16:49:54.000Z</time>
      </trkpt>
      <trkpt lat="-34.629697836935520172119140625" lon="-59.1044807620346546173095703125">
        <ele>35.200000762939453125</ele>
        <time>2020-02-24T16:50:01.000Z</time>
      </trkpt>
      <trkpt lat="-34.62956364266574382781982421875" lon="-59.1046782396733760833740234375">
        <ele>35.200000762939453125</ele>
        <time>2020-02-24T16:50:09.000Z</time>
      </trkpt>
      <trkpt lat="-34.629403464496135711669921875" lon="-59.10486876033246517181396484375">
        <ele>35.200000762939453125</ele>
        <time>2020-02-24T16:50:18.000Z</time>
      </trkpt>
      <trkpt lat="-34.62922669015824794769287109375" lon="-59.10507177002727985382080078125">
        <ele>35.40000152587890625</ele>
        <time>2020-02-24T16:50:27.000Z</time>
      </trkpt>
      <trkpt lat="-34.6291007101535797119140625" lon="-59.1052311100065708160400390625">
        <ele>35.200000762939453125</ele>
        <time>2020-02-24T16:50:34.000Z</time>
      </trkpt>
      <trkpt lat="-34.62897799909114837646484375" lon="-59.105389527976512908935546875">
        <ele>35.200000762939453125</ele>
        <time>2020-02-24T16:50:41.000Z</time>
      </trkpt>
      <trkpt lat="-34.6288474090397357940673828125" lon="-59.1055653803050518035888671875">
        <ele>35.59999847412109375</ele>
        <time>2020-02-24T16:50:49.000Z</time>
      </trkpt>
      <trkpt lat="-34.628782533109188079833984375" lon="-59.105737209320068359375">
        <ele>35.799999237060546875</ele>
        <time>2020-02-24T16:50:56.000Z</time>
      </trkpt>
      <trkpt lat="-34.628781862556934356689453125" lon="-59.10594918765127658843994140625">
        <ele>35.59999847412109375</ele>
        <time>2020-02-24T16:51:03.000Z</time>
      </trkpt>
      <trkpt lat="-34.6288205869495868682861328125" lon="-59.1061983816325664520263671875">
        <ele>35.799999237060546875</ele>
        <time>2020-02-24T16:51:12.000Z</time>
      </trkpt>
      <trkpt lat="-34.62885755114257335662841796875" lon="-59.10644304938614368438720703125">
        <ele>35.799999237060546875</ele>
        <time>2020-02-24T16:51:21.000Z</time>
      </trkpt>
      <trkpt lat="-34.62890834547579288482666015625" lon="-59.10673792473971843719482421875">
        <ele>35.799999237060546875</ele>
        <time>2020-02-24T16:51:31.000Z</time>
      </trkpt>
      <trkpt lat="-34.62896668352186679840087890625" lon="-59.10709532909095287322998046875">
        <ele>36.200000762939453125</ele>
        <time>2020-02-24T16:51:42.000Z</time>
      </trkpt>
      <trkpt lat="-34.62902300991117954254150390625" lon="-59.10740797407925128936767578125">
        <ele>36.200000762939453125</ele>
        <time>2020-02-24T16:51:52.000Z</time>
      </trkpt>
      <trkpt lat="-34.629072882235050201416015625" lon="-59.1076457686722278594970703125">
        <ele>36</ele>
        <time>2020-02-24T16:52:00.000Z</time>
      </trkpt>
      <trkpt lat="-34.629132561385631561279296875" lon="-59.10797241143882274627685546875">
        <ele>36</ele>
        <time>2020-02-24T16:52:11.000Z</time>
      </trkpt>
      <trkpt lat="-34.629202969372272491455078125" lon="-59.108312129974365234375">
        <ele>36.40000152587890625</ele>
        <time>2020-02-24T16:52:22.000Z</time>
      </trkpt>
      <trkpt lat="-34.629219062626361846923828125" lon="-59.10844380967319011688232421875">
        <ele>36.200000762939453125</ele>
        <time>2020-02-24T16:52:28.000Z</time>
      </trkpt>
      <trkpt lat="-34.62921797297894954681396484375" lon="-59.10844481550157070159912109375">
        <ele>36.200000762939453125</ele>
        <time>2020-02-24T16:52:39.000Z</time>
      </trkpt>
      <trkpt lat="-34.62921805679798126220703125" lon="-59.10844481550157070159912109375">
        <ele>36.200000762939453125</ele>
        <time>2020-02-24T16:52:58.000Z</time>
      </trkpt>
      <trkpt lat="-34.6292172186076641082763671875" lon="-59.10844380967319011688232421875">
        <ele>36.200000762939453125</ele>
        <time>2020-02-24T16:53:16.000Z</time>
      </trkpt>
      <trkpt lat="-34.62921763770282268524169921875" lon="-59.10844364203512668609619140625">
        <ele>36.200000762939453125</ele>
        <time>2020-02-24T16:53:41.000Z</time>
      </trkpt>
      <trkpt lat="-34.62921696715056896209716796875" lon="-59.1084413789212703704833984375">
        <ele>36.200000762939453125</ele>
        <time>2020-02-24T16:54:05.000Z</time>
      </trkpt>
      <trkpt lat="-34.6292162127792835235595703125" lon="-59.1084383614361286163330078125">
        <ele>36.200000762939453125</ele>
        <time>2020-02-24T16:54:25.000Z</time>
      </trkpt>
      <trkpt lat="-34.6292158775031566619873046875" lon="-59.10843727178871631622314453125">
        <ele>36.200000762939453125</ele>
        <time>2020-02-24T16:54:44.000Z</time>
      </trkpt>
      <trkpt lat="-34.6292219124734401702880859375" lon="-59.10845906473696231842041015625">
        <ele>36.200000762939453125</ele>
        <time>2020-02-24T16:54:52.000Z</time>
      </trkpt>
      <trkpt lat="-34.62922635488212108612060546875" lon="-59.10848387517035007476806640625">
        <ele>36.200000762939453125</ele>
        <time>2020-02-24T16:55:04.000Z</time>
      </trkpt>
      <trkpt lat="-34.6292289532721042633056640625" lon="-59.1084993816912174224853515625">
        <ele>36.200000762939453125</ele>
        <time>2020-02-24T16:55:05.000Z</time>
      </trkpt>
      <trkpt lat="-34.62924764491617679595947265625" lon="-59.10867297090590000152587890625">
        <ele>36.200000762939453125</ele>
        <time>2020-02-24T16:55:13.000Z</time>
      </trkpt>
      <trkpt lat="-34.629251919686794281005859375" lon="-59.10882510244846343994140625">
        <ele>36.40000152587890625</ele>
        <time>2020-02-24T16:55:19.000Z</time>
      </trkpt>
      <trkpt lat="-34.62925493717193603515625" lon="-59.108868353068828582763671875">
        <ele>36.40000152587890625</ele>
        <time>2020-02-24T16:55:21.000Z</time>
      </trkpt>
      <trkpt lat="-34.62928603403270244598388671875" lon="-59.108953177928924560546875">
        <ele>36.59999847412109375</ele>
        <time>2020-02-24T16:55:26.000Z</time>
      </trkpt>
      <trkpt lat="-34.62941645644605159759521484375" lon="-59.10900556482374668121337890625">
        <ele>37.200000762939453125</ele>
        <time>2020-02-24T16:55:32.000Z</time>
      </trkpt>
      <trkpt lat="-34.62947395630180835723876953125" lon="-59.10900925286114215850830078125">
        <ele>37.40000152587890625</ele>
        <time>2020-02-24T16:55:34.000Z</time>
      </trkpt>
      <trkpt lat="-34.6296691708266735076904296875" lon="-59.10900908522307872772216796875">
        <ele>37.40000152587890625</ele>
        <time>2020-02-24T16:55:40.000Z</time>
      </trkpt>
      <trkpt lat="-34.63008717633783817291259765625" lon="-59.1089862026274204254150390625">
        <ele>37.40000152587890625</ele>
        <time>2020-02-24T16:55:51.000Z</time>
      </trkpt>
      <trkpt lat="-34.63016898371279239654541015625" lon="-59.10898008383810520172119140625">
        <ele>37.59999847412109375</ele>
        <time>2020-02-24T16:55:53.000Z</time>
      </trkpt>
      <trkpt lat="-34.6305036731064319610595703125" lon="-59.1089384257793426513671875">
        <ele>37.59999847412109375</ele>
        <time>2020-02-24T16:56:01.000Z</time>
      </trkpt>
      <trkpt lat="-34.63107456453144550323486328125" lon="-59.1088313050568103790283203125">
        <ele>37.59999847412109375</ele>
        <time>2020-02-24T16:56:14.000Z</time>
      </trkpt>
      <trkpt lat="-34.631120078265666961669921875" lon="-59.10882099531590938568115234375">
        <ele>37.59999847412109375</ele>
        <time>2020-02-24T16:56:15.000Z</time>
      </trkpt>
      <trkpt lat="-34.63161461055278778076171875" lon="-59.10869861952960491180419921875">
        <ele>37.799999237060546875</ele>
        <time>2020-02-24T16:56:26.000Z</time>
      </trkpt>
      <trkpt lat="-34.63211861439049243927001953125" lon="-59.1085630841553211212158203125">
        <ele>38</ele>
        <time>2020-02-24T16:56:37.000Z</time>
      </trkpt>
      <trkpt lat="-34.63267215527594089508056640625" lon="-59.10841665230691432952880859375">
        <ele>38.200000762939453125</ele>
        <time>2020-02-24T16:56:49.000Z</time>
      </trkpt>
      <trkpt lat="-34.63271892629563808441162109375" lon="-59.10840424709022045135498046875">
        <ele>38.200000762939453125</ele>
        <time>2020-02-24T16:56:50.000Z</time>
      </trkpt>
      <trkpt lat="-34.63328738696873188018798828125" lon="-59.10825404338538646697998046875">
        <ele>38.200000762939453125</ele>
        <time>2020-02-24T16:57:02.000Z</time>
      </trkpt>
      <trkpt lat="-34.63338277302682399749755859375" lon="-59.10822805948555469512939453125">
        <ele>38.200000762939453125</ele>
        <time>2020-02-24T16:57:04.000Z</time>
      </trkpt>
      <trkpt lat="-34.63392759673297405242919921875" lon="-59.10808305256068706512451171875">
        <ele>38</ele>
        <time>2020-02-24T16:57:15.000Z</time>
      </trkpt>
      <trkpt lat="-34.6340279281139373779296875" lon="-59.108057320117950439453125">
        <ele>38</ele>
        <time>2020-02-24T16:57:17.000Z</time>
      </trkpt>
      <trkpt lat="-34.63427343405783176422119140625" lon="-59.10798850469291210174560546875">
        <ele>37.799999237060546875</ele>
        <time>2020-02-24T16:57:22.000Z</time>
      </trkpt>
      <trkpt lat="-34.63446579873561859130859375" lon="-59.1079371236264705657958984375">
        <ele>37.799999237060546875</ele>
        <time>2020-02-24T16:57:26.000Z</time>
      </trkpt>
      <trkpt lat="-34.63499461300671100616455078125" lon="-59.10779320634901523590087890625">
        <ele>37.799999237060546875</ele>
        <time>2020-02-24T16:57:37.000Z</time>
      </trkpt>
      <trkpt lat="-34.63513643480837345123291015625" lon="-59.10775247029960155487060546875">
        <ele>37.799999237060546875</ele>
        <time>2020-02-24T16:57:40.000Z</time>
      </trkpt>
      <trkpt lat="-34.63566499762237071990966796875" lon="-59.107611067593097686767578125">
        <ele>38.40000152587890625</ele>
        <time>2020-02-24T16:57:51.000Z</time>
      </trkpt>
      <trkpt lat="-34.63621283881366252899169921875" lon="-59.10746522247791290283203125">
        <ele>38</ele>
        <time>2020-02-24T16:58:02.000Z</time>
      </trkpt>
      <trkpt lat="-34.6362630464136600494384765625" lon="-59.10745172761380672454833984375">
        <ele>38</ele>
        <time>2020-02-24T16:58:03.000Z</time>
      </trkpt>
      <trkpt lat="-34.6368128992617130279541015625" lon="-59.1073076426982879638671875">
        <ele>37.799999237060546875</ele>
        <time>2020-02-24T16:58:14.000Z</time>
      </trkpt>
      <trkpt lat="-34.6369607560336589813232421875" lon="-59.10726548172533512115478515625">
        <ele>37.799999237060546875</ele>
        <time>2020-02-24T16:58:17.000Z</time>
      </trkpt>
      <trkpt lat="-34.6375099383294582366943359375" lon="-59.10711963661015033721923828125">
        <ele>37.59999847412109375</ele>
        <time>2020-02-24T16:58:28.000Z</time>
      </trkpt>
      <trkpt lat="-34.63761077262461185455322265625" lon="-59.10709331743419170379638671875">
        <ele>37.799999237060546875</ele>
        <time>2020-02-24T16:58:30.000Z</time>
      </trkpt>
      <trkpt lat="-34.6381664089858531951904296875" lon="-59.1069423593580722808837890625">
        <ele>37.40000152587890625</ele>
        <time>2020-02-24T16:58:41.000Z</time>
      </trkpt>
      <trkpt lat="-34.63837251998484134674072265625" lon="-59.1068865358829498291015625">
        <ele>37.200000762939453125</ele>
        <time>2020-02-24T16:58:45.000Z</time>
      </trkpt>
      <trkpt lat="-34.63847595266997814178466796875" lon="-59.1068588756024837493896484375">
        <ele>37.200000762939453125</ele>
        <time>2020-02-24T16:58:47.000Z</time>
      </trkpt>
      <trkpt lat="-34.63899873197078704833984375" lon="-59.106721244752407073974609375">
        <ele>37.40000152587890625</ele>
        <time>2020-02-24T16:58:57.000Z</time>
      </trkpt>
      <trkpt lat="-34.63957683183252811431884765625" lon="-59.10656391642987728118896484375">
        <ele>37.200000762939453125</ele>
        <time>2020-02-24T16:59:08.000Z</time>
      </trkpt>
      <trkpt lat="-34.63978704996407032012939453125" lon="-59.1065056622028350830078125">
        <ele>37.200000762939453125</ele>
        <time>2020-02-24T16:59:12.000Z</time>
      </trkpt>
      <trkpt lat="-34.6403594501316547393798828125" lon="-59.10635436885058879852294921875">
        <ele>37.200000762939453125</ele>
        <time>2020-02-24T16:59:23.000Z</time>
      </trkpt>
      <trkpt lat="-34.64046313427388668060302734375" lon="-59.1063277982175350189208984375">
        <ele>37.200000762939453125</ele>
        <time>2020-02-24T16:59:25.000Z</time>
      </trkpt>
      <trkpt lat="-34.64103721082210540771484375" lon="-59.1061755828559398651123046875">
        <ele>37.40000152587890625</ele>
        <time>2020-02-24T16:59:36.000Z</time>
      </trkpt>
      <trkpt lat="-34.64119688607752323150634765625" lon="-59.10613224841654300689697265625">
        <ele>37.40000152587890625</ele>
        <time>2020-02-24T16:59:39.000Z</time>
      </trkpt>
      <trkpt lat="-34.64173885993659496307373046875" lon="-59.10598321817815303802490234375">
        <ele>37.200000762939453125</ele>
        <time>2020-02-24T16:59:49.000Z</time>
      </trkpt>
      <trkpt lat="-34.6421203203499317169189453125" lon="-59.1058822162449359893798828125">
        <ele>37</ele>
        <time>2020-02-24T16:59:56.000Z</time>
      </trkpt>
      <trkpt lat="-34.6426624618470668792724609375" lon="-59.10573746077716350555419921875">
        <ele>36.799999237060546875</ele>
        <time>2020-02-24T17:00:06.000Z</time>
      </trkpt>
      <trkpt lat="-34.64309169910848140716552734375" lon="-59.105622880160808563232421875">
        <ele>36.799999237060546875</ele>
        <time>2020-02-24T17:00:14.000Z</time>
      </trkpt>
      <trkpt lat="-34.64362747035920619964599609375" lon="-59.10547946579754352569580078125">
        <ele>36.799999237060546875</ele>
        <time>2020-02-24T17:00:24.000Z</time>
      </trkpt>
      <trkpt lat="-34.64390189386904239654541015625" lon="-59.1054027713835239410400390625">
        <ele>36.799999237060546875</ele>
        <time>2020-02-24T17:00:29.000Z</time>
      </trkpt>
      <trkpt lat="-34.64423415251076221466064453125" lon="-59.1053135879337787628173828125">
        <ele>36.59999847412109375</ele>
        <time>2020-02-24T17:00:35.000Z</time>
      </trkpt>
      <trkpt lat="-34.644451998174190521240234375" lon="-59.10525650717318058013916015625">
        <ele>36.40000152587890625</ele>
        <time>2020-02-24T17:00:39.000Z</time>
      </trkpt>
      <trkpt lat="-34.6445596218109130859375" lon="-59.1052260808646678924560546875">
        <ele>36.40000152587890625</ele>
        <time>2020-02-24T17:00:41.000Z</time>
      </trkpt>
      <trkpt lat="-34.6450947225093841552734375" lon="-59.1050876118242740631103515625">
        <ele>36.40000152587890625</ele>
        <time>2020-02-24T17:00:51.000Z</time>
      </trkpt>
      <trkpt lat="-34.64536202140152454376220703125" lon="-59.10501611419022083282470703125">
        <ele>36</ele>
        <time>2020-02-24T17:00:56.000Z</time>
      </trkpt>
      <trkpt lat="-34.64589175768196582794189453125" lon="-59.104877896606922149658203125">
        <ele>36.200000762939453125</ele>
        <time>2020-02-24T17:01:06.000Z</time>
      </trkpt>
      <trkpt lat="-34.64594406075775623321533203125" lon="-59.10486356355249881744384765625">
        <ele>36.200000762939453125</ele>
        <time>2020-02-24T17:01:07.000Z</time>
      </trkpt>
      <trkpt lat="-34.64650950394570827484130859375" lon="-59.10471319220960140228271484375">
        <ele>36</ele>
        <time>2020-02-24T17:01:18.000Z</time>
      </trkpt>
      <trkpt lat="-34.64656163938343524932861328125" lon="-59.10470011644065380096435546875">
        <ele>36</ele>
        <time>2020-02-24T17:01:19.000Z</time>
      </trkpt>
      <trkpt lat="-34.64712087996304035186767578125" lon="-59.1045511700212955474853515625">
        <ele>36.200000762939453125</ele>
        <time>2020-02-24T17:01:30.000Z</time>
      </trkpt>
      <trkpt lat="-34.64727141894400119781494140625" lon="-59.1045106016099452972412109375">
        <ele>36.200000762939453125</ele>
        <time>2020-02-24T17:01:33.000Z</time>
      </trkpt>
      <trkpt lat="-34.6478233672678470611572265625" lon="-59.10436232574284076690673828125">
        <ele>36.200000762939453125</ele>
        <time>2020-02-24T17:01:44.000Z</time>
      </trkpt>
      <trkpt lat="-34.6479249559342861175537109375" lon="-59.1043359227478504180908203125">
        <ele>36</ele>
        <time>2020-02-24T17:01:46.000Z</time>
      </trkpt>
      <trkpt lat="-34.6484798379242420196533203125" lon="-59.1041828691959381103515625">
        <ele>36.200000762939453125</ele>
        <time>2020-02-24T17:01:57.000Z</time>
      </trkpt>
      <trkpt lat="-34.6485810913145542144775390625" lon="-59.10415646620094776153564453125">
        <ele>36.200000762939453125</ele>
        <time>2020-02-24T17:01:59.000Z</time>
      </trkpt>
      <trkpt lat="-34.6491306088864803314208984375" lon="-59.10401280038058757781982421875">
        <ele>36.200000762939453125</ele>
        <time>2020-02-24T17:02:10.000Z</time>
      </trkpt>
      <trkpt lat="-34.64927771128714084625244140625" lon="-59.10397223196923732757568359375">
        <ele>36</ele>
        <time>2020-02-24T17:02:13.000Z</time>
      </trkpt>
      <trkpt lat="-34.649829827249050140380859375" lon="-59.1038249619305133819580078125">
        <ele>36.59999847412109375</ele>
        <time>2020-02-24T17:02:24.000Z</time>
      </trkpt>
      <trkpt lat="-34.64992881752550601959228515625" lon="-59.103798307478427886962890625">
        <ele>36.59999847412109375</ele>
        <time>2020-02-24T17:02:26.000Z</time>
      </trkpt>
      <trkpt lat="-34.65047263540327548980712890625" lon="-59.10365237854421138763427734375">
        <ele>36.59999847412109375</ele>
        <time>2020-02-24T17:02:37.000Z</time>
      </trkpt>
      <trkpt lat="-34.6506225876510143280029296875" lon="-59.10361197777092456817626953125">
        <ele>36.59999847412109375</ele>
        <time>2020-02-24T17:02:40.000Z</time>
      </trkpt>
      <trkpt lat="-34.65118375606834888458251953125" lon="-59.1034588403999805450439453125">
        <ele>36.59999847412109375</ele>
        <time>2020-02-24T17:02:51.000Z</time>
      </trkpt>
      <trkpt lat="-34.65133815072476863861083984375" lon="-59.1034165956079959869384765625">
        <ele>36.59999847412109375</ele>
        <time>2020-02-24T17:02:54.000Z</time>
      </trkpt>
      <trkpt lat="-34.65190493501722812652587890625" lon="-59.103263206779956817626953125">
        <ele>36.59999847412109375</ele>
        <time>2020-02-24T17:03:05.000Z</time>
      </trkpt>
      <trkpt lat="-34.65195673517882823944091796875" lon="-59.10324987955391407012939453125">
        <ele>36.799999237060546875</ele>
        <time>2020-02-24T17:03:06.000Z</time>
      </trkpt>
      <trkpt lat="-34.65251706540584564208984375" lon="-59.1030990891158580780029296875">
        <ele>36.59999847412109375</ele>
        <time>2020-02-24T17:03:17.000Z</time>
      </trkpt>
      <trkpt lat="-34.6527187339961528778076171875" lon="-59.10304586403071880340576171875">
        <ele>36.799999237060546875</ele>
        <time>2020-02-24T17:03:21.000Z</time>
      </trkpt>
      <trkpt lat="-34.6532773040235042572021484375" lon="-59.10289113409817218780517578125">
        <ele>36.799999237060546875</ele>
        <time>2020-02-24T17:03:32.000Z</time>
      </trkpt>
      <trkpt lat="-34.653483331203460693359375" lon="-59.1028372384607791900634765625">
        <ele>37</ele>
        <time>2020-02-24T17:03:36.000Z</time>
      </trkpt>
      <trkpt lat="-34.65404726564884185791015625" lon="-59.10268879495561122894287109375">
        <ele>37</ele>
        <time>2020-02-24T17:03:47.000Z</time>
      </trkpt>
      <trkpt lat="-34.6546190790832042694091796875" lon="-59.10253574140369892120361328125">
        <ele>37.200000762939453125</ele>
        <time>2020-02-24T17:03:58.000Z</time>
      </trkpt>
      <trkpt lat="-34.65467062778770923614501953125" lon="-59.10252216272056102752685546875">
        <ele>37.200000762939453125</ele>
        <time>2020-02-24T17:03:59.000Z</time>
      </trkpt>
      <trkpt lat="-34.65522886253893375396728515625" lon="-59.10237313248217105865478515625">
        <ele>37.200000762939453125</ele>
        <time>2020-02-24T17:04:10.000Z</time>
      </trkpt>
      <trkpt lat="-34.65538023971021175384521484375" lon="-59.10233356989920139312744140625">
        <ele>37.200000762939453125</ele>
        <time>2020-02-24T17:04:13.000Z</time>
      </trkpt>
      <trkpt lat="-34.65593696571886539459228515625" lon="-59.1021800972521305084228515625">
        <ele>37.40000152587890625</ele>
        <time>2020-02-24T17:04:24.000Z</time>
      </trkpt>
      <trkpt lat="-34.65603939257562160491943359375" lon="-59.102154783904552459716796875">
        <ele>37.40000152587890625</ele>
        <time>2020-02-24T17:04:26.000Z</time>
      </trkpt>
      <trkpt lat="-34.65660248883068561553955078125" lon="-59.10200600512325763702392578125">
        <ele>37.59999847412109375</ele>
        <time>2020-02-24T17:04:37.000Z</time>
      </trkpt>
      <trkpt lat="-34.65665345080196857452392578125" lon="-59.1019915044307708740234375">
        <ele>37.59999847412109375</ele>
        <time>2020-02-24T17:04:38.000Z</time>
      </trkpt>
      <trkpt lat="-34.6571802534162998199462890625" lon="-59.101849012076854705810546875">
        <ele>37.799999237060546875</ele>
        <time>2020-02-24T17:04:48.000Z</time>
      </trkpt>
      <trkpt lat="-34.65771996416151523590087890625" lon="-59.101704843342304229736328125">
        <ele>38</ele>
        <time>2020-02-24T17:04:58.000Z</time>
      </trkpt>
      <trkpt lat="-34.65788416564464569091796875" lon="-59.10166385583579540252685546875">
        <ele>38</ele>
        <time>2020-02-24T17:05:01.000Z</time>
      </trkpt>
      <trkpt lat="-34.6584231220185756683349609375" lon="-59.1015192680060863494873046875">
        <ele>38.200000762939453125</ele>
        <time>2020-02-24T17:05:11.000Z</time>
      </trkpt>
      <trkpt lat="-34.65858363546431064605712890625" lon="-59.10147760994732379913330078125">
        <ele>38.40000152587890625</ele>
        <time>2020-02-24T17:05:14.000Z</time>
      </trkpt>
      <trkpt lat="-34.6591231785714626312255859375" lon="-59.10132640041410923004150390625">
        <ele>38.200000762939453125</ele>
        <time>2020-02-24T17:05:24.000Z</time>
      </trkpt>
      <trkpt lat="-34.6596529148519039154052734375" lon="-59.1011816449463367462158203125">
        <ele>38.200000762939453125</ele>
        <time>2020-02-24T17:05:34.000Z</time>
      </trkpt>
      <trkpt lat="-34.65975902974605560302734375" lon="-59.10115473903715610504150390625">
        <ele>38.200000762939453125</ele>
        <time>2020-02-24T17:05:36.000Z</time>
      </trkpt>
      <trkpt lat="-34.6602896042168140411376953125" lon="-59.10101442597806453704833984375">
        <ele>38.40000152587890625</ele>
        <time>2020-02-24T17:05:46.000Z</time>
      </trkpt>
      <trkpt lat="-34.6604476869106292724609375" lon="-59.100971259176731109619140625">
        <ele>38.40000152587890625</ele>
        <time>2020-02-24T17:05:49.000Z</time>
      </trkpt>
      <trkpt lat="-34.66102142818272113800048828125" lon="-59.1008128412067890167236328125">
        <ele>38.40000152587890625</ele>
        <time>2020-02-24T17:06:00.000Z</time>
      </trkpt>
      <trkpt lat="-34.66107239015400409698486328125" lon="-59.1007990948855876922607421875">
        <ele>38.59999847412109375</ele>
        <time>2020-02-24T17:06:01.000Z</time>
      </trkpt>
      <trkpt lat="-34.66162911616265773773193359375" lon="-59.10064863972365856170654296875">
        <ele>38.59999847412109375</ele>
        <time>2020-02-24T17:06:12.000Z</time>
      </trkpt>
      <trkpt lat="-34.66173238120973110198974609375" lon="-59.10062424838542938232421875">
        <ele>38.40000152587890625</ele>
        <time>2020-02-24T17:06:14.000Z</time>
      </trkpt>
      <trkpt lat="-34.6623042784631252288818359375" lon="-59.10047077573835849761962890625">
        <ele>39</ele>
        <time>2020-02-24T17:06:25.000Z</time>
      </trkpt>
      <trkpt lat="-34.66288254596292972564697265625" lon="-59.10031587816774845123291015625">
        <ele>39</ele>
        <time>2020-02-24T17:06:36.000Z</time>
      </trkpt>
      <trkpt lat="-34.66293535195291042327880859375" lon="-59.10030229948461055755615234375">
        <ele>38.799999237060546875</ele>
        <time>2020-02-24T17:06:37.000Z</time>
      </trkpt>
      <trkpt lat="-34.6634730510413646697998046875" lon="-59.1001717932522296905517578125">
        <ele>39.200000762939453125</ele>
        <time>2020-02-24T17:06:47.000Z</time>
      </trkpt>
      <trkpt lat="-34.66352694667875766754150390625" lon="-59.10016064532101154327392578125">
        <ele>39.200000762939453125</ele>
        <time>2020-02-24T17:06:48.000Z</time>
      </trkpt>
      <trkpt lat="-34.66407042928040027618408203125" lon="-59.10006760619580745697021484375">
        <ele>39.200000762939453125</ele>
        <time>2020-02-24T17:06:58.000Z</time>
      </trkpt>
      <trkpt lat="-34.66417956165969371795654296875" lon="-59.10005419515073299407958984375">
        <ele>39.200000762939453125</ele>
        <time>2020-02-24T17:07:00.000Z</time>
      </trkpt>
      <trkpt lat="-34.66471667401492595672607421875" lon="-59.10001681186258792877197265625">
        <ele>39.200000762939453125</ele>
        <time>2020-02-24T17:07:10.000Z</time>
      </trkpt>
      <trkpt lat="-34.66525948606431484222412109375" lon="-59.1000313125550746917724609375">
        <ele>39.40000152587890625</ele>
        <time>2020-02-24T17:07:20.000Z</time>
      </trkpt>
      <trkpt lat="-34.66536811552941799163818359375" lon="-59.10004329867660999298095703125">
        <ele>39.40000152587890625</ele>
        <time>2020-02-24T17:07:22.000Z</time>
      </trkpt>
      <trkpt lat="-34.66590891592204570770263671875" lon="-59.10011638887226581573486328125">
        <ele>39.59999847412109375</ele>
        <time>2020-02-24T17:07:32.000Z</time>
      </trkpt>
      <trkpt lat="-34.6660707704722881317138671875" lon="-59.1001469828188419342041015625">
        <ele>39.59999847412109375</ele>
        <time>2020-02-24T17:07:35.000Z</time>
      </trkpt>
      <trkpt lat="-34.66648198664188385009765625" lon="-59.1002401895821094512939453125">
        <ele>39.40000152587890625</ele>
        <time>2020-02-24T17:07:43.000Z</time>
      </trkpt>
      <trkpt lat="-34.6668818034231662750244140625" lon="-59.10035996697843074798583984375">
        <ele>39.40000152587890625</ele>
        <time>2020-02-24T17:07:52.000Z</time>
      </trkpt>
      <trkpt lat="-34.66707517392933368682861328125" lon="-59.100427441298961639404296875">
        <ele>39.40000152587890625</ele>
        <time>2020-02-24T17:07:58.000Z</time>
      </trkpt>
      <trkpt lat="-34.66717894189059734344482421875" lon="-59.1004470549523830413818359375">
        <ele>39.40000152587890625</ele>
        <time>2020-02-24T17:08:04.000Z</time>
      </trkpt>
      <trkpt lat="-34.6671842224895954132080078125" lon="-59.10044412128627300262451171875">
        <ele>40</ele>
        <time>2020-02-24T17:08:11.000Z</time>
      </trkpt>
      <trkpt lat="-34.66719134710729122161865234375" lon="-59.1004359908401966094970703125">
        <ele>40</ele>
        <time>2020-02-24T17:08:34.000Z</time>
      </trkpt>
      <trkpt lat="-34.66719738207757472991943359375" lon="-59.10042601637542247772216796875">
        <ele>39.799999237060546875</ele>
        <time>2020-02-24T17:08:35.000Z</time>
      </trkpt>
      <trkpt lat="-34.66721397824585437774658203125" lon="-59.1002891398966312408447265625">
        <ele>40</ele>
        <time>2020-02-24T17:08:42.000Z</time>
      </trkpt>
      <trkpt lat="-34.667264185845851898193359375" lon="-59.10001195035874843597412109375">
        <ele>39.799999237060546875</ele>
        <time>2020-02-24T17:08:50.000Z</time>
      </trkpt>
      <trkpt lat="-34.66735244728624820709228515625" lon="-59.0996150672435760498046875">
        <ele>39.59999847412109375</ele>
        <time>2020-02-24T17:09:00.000Z</time>
      </trkpt>
      <trkpt lat="-34.66744263656437397003173828125" lon="-59.09909714944660663604736328125">
        <ele>39.799999237060546875</ele>
        <time>2020-02-24T17:09:12.000Z</time>
      </trkpt>
      <trkpt lat="-34.66755562461912631988525390625" lon="-59.0985825844109058380126953125">
        <ele>39.59999847412109375</ele>
        <time>2020-02-24T17:09:23.000Z</time>
      </trkpt>
      <trkpt lat="-34.667667187750339508056640625" lon="-59.09820430912077426910400390625">
        <ele>39.59999847412109375</ele>
        <time>2020-02-24T17:09:31.000Z</time>
      </trkpt>
      <trkpt lat="-34.6676948480308055877685546875" lon="-59.09810808487236499786376953125">
        <ele>39.40000152587890625</ele>
        <time>2020-02-24T17:09:33.000Z</time>
      </trkpt>
      <trkpt lat="-34.66779300011694431304931640625" lon="-59.09781991504132747650146484375">
        <ele>39.200000762939453125</ele>
        <time>2020-02-24T17:09:39.000Z</time>
      </trkpt>
      <trkpt lat="-34.6680302917957305908203125" lon="-59.097255058586597442626953125">
        <ele>39.200000762939453125</ele>
        <time>2020-02-24T17:09:51.000Z</time>
      </trkpt>
      <trkpt lat="-34.6682591177523136138916015625" lon="-59.09684895537793636322021484375">
        <ele>39.200000762939453125</ele>
        <time>2020-02-24T17:10:00.000Z</time>
      </trkpt>
      <trkpt lat="-34.66860495507717132568359375" lon="-59.09631284885108470916748046875">
        <ele>39.200000762939453125</ele>
        <time>2020-02-24T17:10:12.000Z</time>
      </trkpt>
      <trkpt lat="-34.6686349622905254364013671875" lon="-59.0962676703929901123046875">
        <ele>39.200000762939453125</ele>
        <time>2020-02-24T17:10:13.000Z</time>
      </trkpt>
      <trkpt lat="-34.6688864193856716156005859375" lon="-59.09594169817864894866943359375">
        <ele>39</ele>
        <time>2020-02-24T17:10:21.000Z</time>
      </trkpt>
      <trkpt lat="-34.669192694127559661865234375" lon="-59.09560055471956729888916015625">
        <ele>39</ele>
        <time>2020-02-24T17:10:30.000Z</time>
      </trkpt>
      <trkpt lat="-34.66940559446811676025390625" lon="-59.0954115428030490875244140625">
        <ele>39.200000762939453125</ele>
        <time>2020-02-24T17:10:37.000Z</time>
      </trkpt>
      <trkpt lat="-34.66948111541569232940673828125" lon="-59.09534155391156673431396484375">
        <ele>39</ele>
        <time>2020-02-24T17:10:42.000Z</time>
      </trkpt>
      <trkpt lat="-34.66948128305375576019287109375" lon="-59.09534306265413761138916015625">
        <ele>39.40000152587890625</ele>
        <time>2020-02-24T17:10:54.000Z</time>
      </trkpt>
      <trkpt lat="-34.66948094777762889862060546875" lon="-59.09534323029220104217529296875">
        <ele>39.40000152587890625</ele>
        <time>2020-02-24T17:11:01.000Z</time>
      </trkpt>
      <trkpt lat="-34.669485390186309814453125" lon="-59.09533769823610782623291015625">
        <ele>39.40000152587890625</ele>
        <time>2020-02-24T17:11:18.000Z</time>
      </trkpt>
      <trkpt lat="-34.66956920921802520751953125" lon="-59.095263518393039703369140625">
        <ele>39.200000762939453125</ele>
        <time>2020-02-24T17:11:25.000Z</time>
      </trkpt>
      <trkpt lat="-34.66973441652953624725341796875" lon="-59.09512915648519992828369140625">
        <ele>38.799999237060546875</ele>
        <time>2020-02-24T17:11:33.000Z</time>
      </trkpt>
      <trkpt lat="-34.66994932852685451507568359375" lon="-59.09495942294597625732421875">
        <ele>39</ele>
        <time>2020-02-24T17:11:41.000Z</time>
      </trkpt>
      <trkpt lat="-34.6702543459832668304443359375" lon="-59.0947218798100948333740234375">
        <ele>39.200000762939453125</ele>
        <time>2020-02-24T17:11:51.000Z</time>
      </trkpt>
      <trkpt lat="-34.670622311532497406005859375" lon="-59.0944261662662029266357421875">
        <ele>39.40000152587890625</ele>
        <time>2020-02-24T17:12:02.000Z</time>
      </trkpt>
      <trkpt lat="-34.67098281718790531158447265625" lon="-59.09415543079376220703125">
        <ele>39.200000762939453125</ele>
        <time>2020-02-24T17:12:12.000Z</time>
      </trkpt>
      <trkpt lat="-34.671192280948162078857421875" lon="-59.09399785101413726806640625">
        <ele>39.40000152587890625</ele>
        <time>2020-02-24T17:12:19.000Z</time>
      </trkpt>
      <trkpt lat="-34.6714573167264461517333984375" lon="-59.09379576332867145538330078125">
        <ele>39.59999847412109375</ele>
        <time>2020-02-24T17:12:28.000Z</time>
      </trkpt>
      <trkpt lat="-34.67184950597584247589111328125" lon="-59.0934917517006397247314453125">
        <ele>40</ele>
        <time>2020-02-24T17:12:40.000Z</time>
      </trkpt>
      <trkpt lat="-34.67216751538217067718505859375" lon="-59.09325077198445796966552734375">
        <ele>40</ele>
        <time>2020-02-24T17:12:49.000Z</time>
      </trkpt>
      <trkpt lat="-34.6725694276392459869384765625" lon="-59.09294533543288707733154296875">
        <ele>40.200000762939453125</ele>
        <time>2020-02-24T17:13:00.000Z</time>
      </trkpt>
      <trkpt lat="-34.67288978397846221923828125" lon="-59.09269220195710659027099609375">
        <ele>40.40000152587890625</ele>
        <time>2020-02-24T17:13:09.000Z</time>
      </trkpt>
      <trkpt lat="-34.6732429973781108856201171875" lon="-59.0924181975424289703369140625">
        <ele>40.40000152587890625</ele>
        <time>2020-02-24T17:13:19.000Z</time>
      </trkpt>
      <trkpt lat="-34.6734820492565631866455078125" lon="-59.092261791229248046875">
        <ele>40.40000152587890625</ele>
        <time>2020-02-24T17:13:27.000Z</time>
      </trkpt>
      <trkpt lat="-34.6736128069460391998291015625" lon="-59.0923001803457736968994140625">
        <ele>40.59999847412109375</ele>
        <time>2020-02-24T17:13:32.000Z</time>
      </trkpt>
      <trkpt lat="-34.673751108348369598388671875" lon="-59.09231635741889476776123046875">
        <ele>40.59999847412109375</ele>
        <time>2020-02-24T17:13:38.000Z</time>
      </trkpt>
      <trkpt lat="-34.67388547025620937347412109375" lon="-59.09221686422824859619140625">
        <ele>40</ele>
        <time>2020-02-24T17:13:44.000Z</time>
      </trkpt>
      <trkpt lat="-34.67411781661212444305419921875" lon="-59.09204025752842426300048828125">
        <ele>40</ele>
        <time>2020-02-24T17:13:53.000Z</time>
      </trkpt>
      <trkpt lat="-34.6743898093700408935546875" lon="-59.09183272160589694976806640625">
        <ele>40</ele>
        <time>2020-02-24T17:14:02.000Z</time>
      </trkpt>
      <trkpt lat="-34.67481116764247417449951171875" lon="-59.0915069170296192169189453125">
        <ele>40</ele>
        <time>2020-02-24T17:14:15.000Z</time>
      </trkpt>
      <trkpt lat="-34.6751886047422885894775390625" lon="-59.09121531061828136444091796875">
        <ele>39.799999237060546875</ele>
        <time>2020-02-24T17:14:26.000Z</time>
      </trkpt>
      <trkpt lat="-34.67565271072089672088623046875" lon="-59.09085472114384174346923828125">
        <ele>40.40000152587890625</ele>
        <time>2020-02-24T17:14:39.000Z</time>
      </trkpt>
      <trkpt lat="-34.6761360950767993927001953125" lon="-59.09048474393784999847412109375">
        <ele>40.40000152587890625</ele>
        <time>2020-02-24T17:14:52.000Z</time>
      </trkpt>
      <trkpt lat="-34.67617414891719818115234375" lon="-59.090455658733844757080078125">
        <ele>40.40000152587890625</ele>
        <time>2020-02-24T17:14:53.000Z</time>
      </trkpt>
      <trkpt lat="-34.67666566371917724609375" lon="-59.09007688052952289581298828125">
        <ele>40.40000152587890625</ele>
        <time>2020-02-24T17:15:06.000Z</time>
      </trkpt>
      <trkpt lat="-34.6770534105598926544189453125" lon="-59.08978410065174102783203125">
        <ele>40.40000152587890625</ele>
        <time>2020-02-24T17:15:16.000Z</time>
      </trkpt>
      <trkpt lat="-34.67742028646171092987060546875" lon="-59.089494757354259490966796875">
        <ele>40.40000152587890625</ele>
        <time>2020-02-24T17:15:26.000Z</time>
      </trkpt>
      <trkpt lat="-34.67775053344666957855224609375" lon="-59.08925863914191722869873046875">
        <ele>40.799999237060546875</ele>
        <time>2020-02-24T17:15:35.000Z</time>
      </trkpt>
      <trkpt lat="-34.6778443269431591033935546875" lon="-59.08917699940502643585205078125">
        <ele>40.799999237060546875</ele>
        <time>2020-02-24T17:15:39.000Z</time>
      </trkpt>
      <trkpt lat="-34.67795605771243572235107421875" lon="-59.08909519203007221221923828125">
        <ele>40.59999847412109375</ele>
        <time>2020-02-24T17:15:45.000Z</time>
      </trkpt>
      <trkpt lat="-34.67811548151075839996337890625" lon="-59.08897139132022857666015625">
        <ele>40.799999237060546875</ele>
        <time>2020-02-24T17:15:52.000Z</time>
      </trkpt>
      <trkpt lat="-34.67838965356349945068359375" lon="-59.0887472592294216156005859375">
        <ele>40.799999237060546875</ele>
        <time>2020-02-24T17:16:03.000Z</time>
      </trkpt>
      <trkpt lat="-34.67866726219654083251953125" lon="-59.0885400585830211639404296875">
        <ele>40.799999237060546875</ele>
        <time>2020-02-24T17:16:13.000Z</time>
      </trkpt>
      <trkpt lat="-34.679003544151782989501953125" lon="-59.08827996812760829925537109375">
        <ele>40.799999237060546875</ele>
        <time>2020-02-24T17:16:24.000Z</time>
      </trkpt>
      <trkpt lat="-34.679360948503017425537109375" lon="-59.088005460798740386962890625">
        <ele>40.799999237060546875</ele>
        <time>2020-02-24T17:16:35.000Z</time>
      </trkpt>
      <trkpt lat="-34.67976889573037624359130859375" lon="-59.0876884572207927703857421875">
        <ele>41</ele>
        <time>2020-02-24T17:16:47.000Z</time>
      </trkpt>
      <trkpt lat="-34.6801510266959667205810546875" lon="-59.0873860381543636322021484375">
        <ele>41</ele>
        <time>2020-02-24T17:16:58.000Z</time>
      </trkpt>
      <trkpt lat="-34.68061379157006740570068359375" lon="-59.0870256163179874420166015625">
        <ele>41.200000762939453125</ele>
        <time>2020-02-24T17:17:11.000Z</time>
      </trkpt>
      <trkpt lat="-34.6809037216007709503173828125" lon="-59.08680022694170475006103515625">
        <ele>41</ele>
        <time>2020-02-24T17:17:19.000Z</time>
      </trkpt>
      <trkpt lat="-34.68122902326285839080810546875" lon="-59.0865471772849559783935546875">
        <ele>41.200000762939453125</ele>
        <time>2020-02-24T17:17:28.000Z</time>
      </trkpt>
      <trkpt lat="-34.681585840880870819091796875" lon="-59.08626914955675601959228515625">
        <ele>41</ele>
        <time>2020-02-24T17:17:38.000Z</time>
      </trkpt>
      <trkpt lat="-34.681939221918582916259765625" lon="-59.08599548041820526123046875">
        <ele>41</ele>
        <time>2020-02-24T17:17:48.000Z</time>
      </trkpt>
      <trkpt lat="-34.682228900492191314697265625" lon="-59.0857750363647937774658203125">
        <ele>41</ele>
        <time>2020-02-24T17:17:57.000Z</time>
      </trkpt>
      <trkpt lat="-34.682472310960292816162109375" lon="-59.0855892933905124664306640625">
        <ele>41.200000762939453125</ele>
        <time>2020-02-24T17:18:05.000Z</time>
      </trkpt>
      <trkpt lat="-34.6827591396868228912353515625" lon="-59.08536524511873722076416015625">
        <ele>41.200000762939453125</ele>
        <time>2020-02-24T17:18:14.000Z</time>
      </trkpt>
      <trkpt lat="-34.6830867044627666473388671875" lon="-59.08511680550873279571533203125">
        <ele>41</ele>
        <time>2020-02-24T17:18:24.000Z</time>
      </trkpt>
      <trkpt lat="-34.68341066502034664154052734375" lon="-59.084874652326107025146484375">
        <ele>41.200000762939453125</ele>
        <time>2020-02-24T17:18:34.000Z</time>
      </trkpt>
      <trkpt lat="-34.6837361343204975128173828125" lon="-59.08462277613580226898193359375">
        <ele>41.200000762939453125</ele>
        <time>2020-02-24T17:18:44.000Z</time>
      </trkpt>
      <trkpt lat="-34.68414257280528545379638671875" lon="-59.08431247808039188385009765625">
        <ele>41</ele>
        <time>2020-02-24T17:18:56.000Z</time>
      </trkpt>
      <trkpt lat="-34.6844910085201263427734375" lon="-59.0840429998934268951416015625">
        <ele>41</ele>
        <time>2020-02-24T17:19:06.000Z</time>
      </trkpt>
      <trkpt lat="-34.684841372072696685791015625" lon="-59.0837727673351764678955078125">
        <ele>40.799999237060546875</ele>
        <time>2020-02-24T17:19:16.000Z</time>
      </trkpt>
      <trkpt lat="-34.685279242694377899169921875" lon="-59.08343589864671230316162109375">
        <ele>40.799999237060546875</ele>
        <time>2020-02-24T17:19:28.000Z</time>
      </trkpt>
      <trkpt lat="-34.68564930371940135955810546875" lon="-59.08315259031951427459716796875">
        <ele>40.799999237060546875</ele>
        <time>2020-02-24T17:19:38.000Z</time>
      </trkpt>
      <trkpt lat="-34.686066806316375732421875" lon="-59.08282754011452198028564453125">
        <ele>40.799999237060546875</ele>
        <time>2020-02-24T17:19:49.000Z</time>
      </trkpt>
      <trkpt lat="-34.6864149905741214752197265625" lon="-59.0825589001178741455078125">
        <ele>40.799999237060546875</ele>
        <time>2020-02-24T17:19:58.000Z</time>
      </trkpt>
      <trkpt lat="-34.68672989867627620697021484375" lon="-59.0823014080524444580078125">
        <ele>40.40000152587890625</ele>
        <time>2020-02-24T17:20:07.000Z</time>
      </trkpt>
      <trkpt lat="-34.686818160116672515869140625" lon="-59.082234017550945281982421875">
        <ele>40.59999847412109375</ele>
        <time>2020-02-24T17:20:10.000Z</time>
      </trkpt>
      <trkpt lat="-34.68693089671432971954345703125" lon="-59.08215698786079883575439453125">
        <ele>40.59999847412109375</ele>
        <time>2020-02-24T17:20:14.000Z</time>
      </trkpt>
      <trkpt lat="-34.6873128600418567657470703125" lon="-59.0818616934120655059814453125">
        <ele>40.59999847412109375</ele>
        <time>2020-02-24T17:20:27.000Z</time>
      </trkpt>
      <trkpt lat="-34.6876290254294872283935546875" lon="-59.08162054605782032012939453125">
        <ele>40.200000762939453125</ele>
        <time>2020-02-24T17:20:37.000Z</time>
      </trkpt>
      <trkpt lat="-34.68799154274165630340576171875" lon="-59.08133908174932003021240234375">
        <ele>40.200000762939453125</ele>
        <time>2020-02-24T17:20:48.000Z</time>
      </trkpt>
      <trkpt lat="-34.6884155832231044769287109375" lon="-59.081010930240154266357421875">
        <ele>40.40000152587890625</ele>
        <time>2020-02-24T17:21:01.000Z</time>
      </trkpt>
      <trkpt lat="-34.6887112967669963836669921875" lon="-59.080780260264873504638671875">
        <ele>40</ele>
        <time>2020-02-24T17:21:10.000Z</time>
      </trkpt>
      <trkpt lat="-34.6888155676424503326416015625" lon="-59.0807001292705535888671875">
        <ele>40.200000762939453125</ele>
        <time>2020-02-24T17:21:15.000Z</time>
      </trkpt>
      <trkpt lat="-34.6888169087469577789306640625" lon="-59.080704487860202789306640625">
        <ele>40.40000152587890625</ele>
        <time>2020-02-24T17:21:24.000Z</time>
      </trkpt>
      <trkpt lat="-34.68881682492792606353759765625" lon="-59.08070540986955165863037109375">
        <ele>40.40000152587890625</ele>
        <time>2020-02-24T17:21:38.000Z</time>
      </trkpt>
      <trkpt lat="-34.68881682492792606353759765625" lon="-59.080705828964710235595703125">
        <ele>40.200000762939453125</ele>
        <time>2020-02-24T17:21:52.000Z</time>
      </trkpt>
      <trkpt lat="-34.6888175792992115020751953125" lon="-59.0807053260505199432373046875">
        <ele>40.200000762939453125</ele>
        <time>2020-02-24T17:22:10.000Z</time>
      </trkpt>
      <trkpt lat="-34.6888169087469577789306640625" lon="-59.08070574514567852020263671875">
        <ele>40</ele>
        <time>2020-02-24T17:22:34.000Z</time>
      </trkpt>
      <trkpt lat="-34.68881699256598949432373046875" lon="-59.08070675097405910491943359375">
        <ele>40.200000762939453125</ele>
        <time>2020-02-24T17:23:03.000Z</time>
      </trkpt>
      <trkpt lat="-34.6888142265379428863525390625" lon="-59.08070624805986881256103515625">
        <ele>39.799999237060546875</ele>
        <time>2020-02-24T17:23:23.000Z</time>
      </trkpt>
      <trkpt lat="-34.68881363980472087860107421875" lon="-59.0807068347930908203125">
        <ele>39.799999237060546875</ele>
        <time>2020-02-24T17:23:56.000Z</time>
      </trkpt>
      <trkpt lat="-34.6888135559856891632080078125" lon="-59.08070658333599567413330078125">
        <ele>39.799999237060546875</ele>
        <time>2020-02-24T17:24:02.000Z</time>
      </trkpt>
      <trkpt lat="-34.6888128854334354400634765625" lon="-59.08070641569793224334716796875">
        <ele>39.799999237060546875</ele>
        <time>2020-02-24T17:24:35.000Z</time>
      </trkpt>
      <trkpt lat="-34.688813053071498870849609375" lon="-59.080706499516963958740234375">
        <ele>39.799999237060546875</ele>
        <time>2020-02-24T17:25:02.000Z</time>
      </trkpt>
      <trkpt lat="-34.6888128854334354400634765625" lon="-59.080706499516963958740234375">
        <ele>39.799999237060546875</ele>
        <time>2020-02-24T17:25:20.000Z</time>
      </trkpt>
      <trkpt lat="-34.68881280161440372467041015625" lon="-59.08070742152631282806396484375">
        <ele>39.799999237060546875</ele>
        <time>2020-02-24T17:26:12.000Z</time>
      </trkpt>
      <trkpt lat="-34.68881280161440372467041015625" lon="-59.08070742152631282806396484375">
        <ele>39.799999237060546875</ele>
        <time>2020-02-24T17:26:14.000Z</time>
      </trkpt>
      <trkpt lat="-34.68881196342408657073974609375" lon="-59.08070691861212253570556640625">
        <ele>39.799999237060546875</ele>
        <time>2020-02-24T17:27:18.000Z</time>
      </trkpt>
      <trkpt lat="-34.6888120472431182861328125" lon="-59.08070658333599567413330078125">
        <ele>39.799999237060546875</ele>
        <time>2020-02-24T17:27:26.000Z</time>
      </trkpt>
      <trkpt lat="-34.6888122148811817169189453125" lon="-59.08070608042180538177490234375">
        <ele>39.799999237060546875</ele>
        <time>2020-02-24T17:28:01.000Z</time>
      </trkpt>
      <trkpt lat="-34.68881162814795970916748046875" lon="-59.08070616424083709716796875">
        <ele>39.799999237060546875</ele>
        <time>2020-02-24T17:28:40.000Z</time>
      </trkpt>
      <trkpt lat="-34.68881196342408657073974609375" lon="-59.08070675097405910491943359375">
        <ele>39.799999237060546875</ele>
        <time>2020-02-24T17:29:05.000Z</time>
      </trkpt>
      <trkpt lat="-34.6888120472431182861328125" lon="-59.08070658333599567413330078125">
        <ele>39.799999237060546875</ele>
        <time>2020-02-24T17:29:12.000Z</time>
      </trkpt>
      <trkpt lat="-34.6888118796050548553466796875" lon="-59.08070624805986881256103515625">
        <ele>39.799999237060546875</ele>
        <time>2020-02-24T17:29:35.000Z</time>
      </trkpt>
      <trkpt lat="-34.68881213106215000152587890625" lon="-59.0807068347930908203125">
        <ele>39.799999237060546875</ele>
        <time>2020-02-24T17:30:04.000Z</time>
      </trkpt>
      <trkpt lat="-34.688812382519245147705078125" lon="-59.0807086788117885589599609375">
        <ele>39.799999237060546875</ele>
        <time>2020-02-24T17:30:30.000Z</time>
      </trkpt>
      <trkpt lat="-34.688845574855804443359375" lon="-59.080684371292591094970703125">
        <ele>39.799999237060546875</ele>
        <time>2020-02-24T17:30:38.000Z</time>
      </trkpt>
      <trkpt lat="-34.6888844668865203857421875" lon="-59.08064254559576511383056640625">
        <ele>39.40000152587890625</ele>
        <time>2020-02-24T17:30:42.000Z</time>
      </trkpt>
      <trkpt lat="-34.68894389458000659942626953125" lon="-59.08061228692531585693359375">
        <ele>38.799999237060546875</ele>
        <time>2020-02-24T17:30:46.000Z</time>
      </trkpt>
      <trkpt lat="-34.68909929506480693817138671875" lon="-59.08049502409994602203369140625">
        <ele>38.799999237060546875</ele>
        <time>2020-02-24T17:30:54.000Z</time>
      </trkpt>
      <trkpt lat="-34.6893493272364139556884765625" lon="-59.08029989339411258697509765625">
        <ele>39</ele>
        <time>2020-02-24T17:31:05.000Z</time>
      </trkpt>
      <trkpt lat="-34.68960531055927276611328125" lon="-59.08009889535605907440185546875">
        <ele>38.59999847412109375</ele>
        <time>2020-02-24T17:31:15.000Z</time>
      </trkpt>
      <trkpt lat="-34.68986707739531993865966796875" lon="-59.0798959694802761077880859375">
        <ele>38.799999237060546875</ele>
        <time>2020-02-24T17:31:25.000Z</time>
      </trkpt>
      <trkpt lat="-34.69014518894255161285400390625" lon="-59.079681895673274993896484375">
        <ele>39</ele>
        <time>2020-02-24T17:31:35.000Z</time>
      </trkpt>
      <trkpt lat="-34.69045816920697689056396484375" lon="-59.07942431978881359100341796875">
        <ele>38.799999237060546875</ele>
        <time>2020-02-24T17:31:46.000Z</time>
      </trkpt>
      <trkpt lat="-34.6907276473939418792724609375" lon="-59.079229272902011871337890625">
        <ele>39</ele>
        <time>2020-02-24T17:31:55.000Z</time>
      </trkpt>
      <trkpt lat="-34.69096963293850421905517578125" lon="-59.07904981635510921478271484375">
        <ele>39.200000762939453125</ele>
        <time>2020-02-24T17:32:03.000Z</time>
      </trkpt>
      <trkpt lat="-34.691323600709438323974609375" lon="-59.07877891324460506439208984375">
        <ele>38.799999237060546875</ele>
        <time>2020-02-24T17:32:14.000Z</time>
      </trkpt>
      <trkpt lat="-34.691666923463344573974609375" lon="-59.07851069234311580657958984375">
        <ele>39.200000762939453125</ele>
        <time>2020-02-24T17:32:25.000Z</time>
      </trkpt>
      <trkpt lat="-34.691870100796222686767578125" lon="-59.07835696823894977569580078125">
        <ele>39.200000762939453125</ele>
        <time>2020-02-24T17:32:32.000Z</time>
      </trkpt>
      <trkpt lat="-34.69196272082626819610595703125" lon="-59.07828505150973796844482421875">
        <ele>39.200000762939453125</ele>
        <time>2020-02-24T17:32:35.000Z</time>
      </trkpt>
      <trkpt lat="-34.69235784374177455902099609375" lon="-59.07798196189105510711669921875">
        <ele>38.799999237060546875</ele>
        <time>2020-02-24T17:32:47.000Z</time>
      </trkpt>
      <trkpt lat="-34.6926655434072017669677734375" lon="-59.07774743624031543731689453125">
        <ele>38.40000152587890625</ele>
        <time>2020-02-24T17:32:56.000Z</time>
      </trkpt>
      <trkpt lat="-34.69276755116879940032958984375" lon="-59.077667891979217529296875">
        <ele>38.200000762939453125</ele>
        <time>2020-02-24T17:32:59.000Z</time>
      </trkpt>
      <trkpt lat="-34.69314909540116786956787109375" lon="-59.07737695612013339996337890625">
        <ele>38.40000152587890625</ele>
        <time>2020-02-24T17:33:10.000Z</time>
      </trkpt>
      <trkpt lat="-34.69345872290432453155517578125" lon="-59.0771381556987762451171875">
        <ele>38.200000762939453125</ele>
        <time>2020-02-24T17:33:19.000Z</time>
      </trkpt>
      <trkpt lat="-34.693912602961063385009765625" lon="-59.07678871415555477142333984375">
        <ele>38.200000762939453125</ele>
        <time>2020-02-24T17:33:32.000Z</time>
      </trkpt>
      <trkpt lat="-34.694269336760044097900390625" lon="-59.0765116922557353973388671875">
        <ele>38</ele>
        <time>2020-02-24T17:33:42.000Z</time>
      </trkpt>
      <trkpt lat="-34.69437830150127410888671875" lon="-59.0764272026717662811279296875">
        <ele>37.799999237060546875</ele>
        <time>2020-02-24T17:33:45.000Z</time>
      </trkpt>
      <trkpt lat="-34.69485933892428874969482421875" lon="-59.07605923712253570556640625">
        <ele>38.200000762939453125</ele>
        <time>2020-02-24T17:33:58.000Z</time>
      </trkpt>
      <trkpt lat="-34.69493092037737369537353515625" lon="-59.076001904904842376708984375">
        <ele>38</ele>
        <time>2020-02-24T17:34:00.000Z</time>
      </trkpt>
      <trkpt lat="-34.69536828808486461639404296875" lon="-59.07565883360803127288818359375">
        <ele>38</ele>
        <time>2020-02-24T17:34:12.000Z</time>
      </trkpt>
      <trkpt lat="-34.6957789175212383270263671875" lon="-59.075338728725910186767578125">
        <ele>37.59999847412109375</ele>
        <time>2020-02-24T17:34:23.000Z</time>
      </trkpt>
      <trkpt lat="-34.69601604156196117401123046875" lon="-59.07515524886548519134521484375">
        <ele>37.59999847412109375</ele>
        <time>2020-02-24T17:34:30.000Z</time>
      </trkpt>
      <trkpt lat="-34.696358107030391693115234375" lon="-59.074897505342960357666015625">
        <ele>37.799999237060546875</ele>
        <time>2020-02-24T17:34:40.000Z</time>
      </trkpt>
      <trkpt lat="-34.69663730822503566741943359375" lon="-59.07468569464981555938720703125">
        <ele>37.59999847412109375</ele>
        <time>2020-02-24T17:34:48.000Z</time>
      </trkpt>
      <trkpt lat="-34.69697979278862476348876953125" lon="-59.0744155459105968475341796875">
        <ele>37.40000152587890625</ele>
        <time>2020-02-24T17:34:58.000Z</time>
      </trkpt>
      <trkpt lat="-34.69701415859162807464599609375" lon="-59.074386544525623321533203125">
        <ele>37.59999847412109375</ele>
        <time>2020-02-24T17:34:59.000Z</time>
      </trkpt>
      <trkpt lat="-34.69729788601398468017578125" lon="-59.07415595836937427520751953125">
        <ele>37.59999847412109375</ele>
        <time>2020-02-24T17:35:08.000Z</time>
      </trkpt>
      <trkpt lat="-34.697511456906795501708984375" lon="-59.074005670845508575439453125">
        <ele>37.59999847412109375</ele>
        <time>2020-02-24T17:35:16.000Z</time>
      </trkpt>
      <trkpt lat="-34.69771689735352993011474609375" lon="-59.07384951598942279815673828125">
        <ele>37.200000762939453125</ele>
        <time>2020-02-24T17:35:23.000Z</time>
      </trkpt>
      <trkpt lat="-34.69777666032314300537109375" lon="-59.0738016553223133087158203125">
        <ele>37.200000762939453125</ele>
        <time>2020-02-24T17:35:25.000Z</time>
      </trkpt>
      <trkpt lat="-34.69808653928339481353759765625" lon="-59.0735629387199878692626953125">
        <ele>37</ele>
        <time>2020-02-24T17:35:35.000Z</time>
      </trkpt>
      <trkpt lat="-34.69845182262361049652099609375" lon="-59.07327753491699695587158203125">
        <ele>36.799999237060546875</ele>
        <time>2020-02-24T17:35:46.000Z</time>
      </trkpt>
      <trkpt lat="-34.6989090554416179656982421875" lon="-59.0729349665343761444091796875">
        <ele>36.59999847412109375</ele>
        <time>2020-02-24T17:35:59.000Z</time>
      </trkpt>
      <trkpt lat="-34.69914215616881847381591796875" lon="-59.07274830155074596405029296875">
        <ele>36.59999847412109375</ele>
        <time>2020-02-24T17:36:07.000Z</time>
      </trkpt>
      <trkpt lat="-34.69941825605928897857666015625" lon="-59.07262424938380718231201171875">
        <ele>36.59999847412109375</ele>
        <time>2020-02-24T17:36:16.000Z</time>
      </trkpt>
      <trkpt lat="-34.699633084237575531005859375" lon="-59.072596170008182525634765625">
        <ele>36.59999847412109375</ele>
        <time>2020-02-24T17:36:23.000Z</time>
      </trkpt>
      <trkpt lat="-34.69977314583957195281982421875" lon="-59.07257177866995334625244140625">
        <ele>37</ele>
        <time>2020-02-24T17:36:29.000Z</time>
      </trkpt>
      <trkpt lat="-34.6998702920973300933837890625" lon="-59.07254420220851898193359375">
        <ele>37.799999237060546875</ele>
        <time>2020-02-24T17:36:35.000Z</time>
      </trkpt>
      <trkpt lat="-34.69998671673238277435302734375" lon="-59.07251427881419658660888671875">
        <ele>37.799999237060546875</ele>
        <time>2020-02-24T17:36:40.000Z</time>
      </trkpt>
      <trkpt lat="-34.70009266398847103118896484375" lon="-59.07259809784591197967529296875">
        <ele>36.799999237060546875</ele>
        <time>2020-02-24T17:36:45.000Z</time>
      </trkpt>
      <trkpt lat="-34.70022325403988361358642578125" lon="-59.07281368039548397064208984375">
        <ele>36.200000762939453125</ele>
        <time>2020-02-24T17:36:52.000Z</time>
      </trkpt>
      <trkpt lat="-34.7003993578255176544189453125" lon="-59.07309941947460174560546875">
        <ele>36.200000762939453125</ele>
        <time>2020-02-24T17:37:01.000Z</time>
      </trkpt>
      <trkpt lat="-34.7006105817854404449462890625" lon="-59.0734888426959514617919921875">
        <ele>36.200000762939453125</ele>
        <time>2020-02-24T17:37:13.000Z</time>
      </trkpt>
      <trkpt lat="-34.7008149325847625732421875" lon="-59.0738921798765659332275390625">
        <ele>36.799999237060546875</ele>
        <time>2020-02-24T17:37:25.000Z</time>
      </trkpt>
      <trkpt lat="-34.7009854204952716827392578125" lon="-59.07424363307654857635498046875">
        <ele>36.799999237060546875</ele>
        <time>2020-02-24T17:37:35.000Z</time>
      </trkpt>
      <trkpt lat="-34.7011413238942623138427734375" lon="-59.07457002438604831695556640625">
        <ele>36.59999847412109375</ele>
        <time>2020-02-24T17:37:44.000Z</time>
      </trkpt>
      <trkpt lat="-34.701339639723300933837890625" lon="-59.07496891915798187255859375">
        <ele>36.59999847412109375</ele>
        <time>2020-02-24T17:37:55.000Z</time>
      </trkpt>
      <trkpt lat="-34.70153736881911754608154296875" lon="-59.0753694064915180206298828125">
        <ele>36.799999237060546875</ele>
        <time>2020-02-24T17:38:06.000Z</time>
      </trkpt>
      <trkpt lat="-34.70175974071025848388671875" lon="-59.0758156590163707733154296875">
        <ele>36.40000152587890625</ele>
        <time>2020-02-24T17:38:18.000Z</time>
      </trkpt>
      <trkpt lat="-34.70196082256734371185302734375" lon="-59.076224528253078460693359375">
        <ele>36.40000152587890625</ele>
        <time>2020-02-24T17:38:29.000Z</time>
      </trkpt>
      <trkpt lat="-34.70208671875298023223876953125" lon="-59.0764756500720977783203125">
        <ele>36.799999237060546875</ele>
        <time>2020-02-24T17:38:36.000Z</time>
      </trkpt>
      <trkpt lat="-34.7022990323603153228759765625" lon="-59.0769063122570514678955078125">
        <ele>36.59999847412109375</ele>
        <time>2020-02-24T17:38:48.000Z</time>
      </trkpt>
      <trkpt lat="-34.7024710290133953094482421875" lon="-59.077256508171558380126953125">
        <ele>36.59999847412109375</ele>
        <time>2020-02-24T17:38:58.000Z</time>
      </trkpt>
      <trkpt lat="-34.70266322605311870574951171875" lon="-59.0776512958109378814697265625">
        <ele>36.799999237060546875</ele>
        <time>2020-02-24T17:39:09.000Z</time>
      </trkpt>
      <trkpt lat="-34.70278677530586719512939453125" lon="-59.0779037587344646453857421875">
        <ele>36.799999237060546875</ele>
        <time>2020-02-24T17:39:17.000Z</time>
      </trkpt>
      <trkpt lat="-34.70281611196696758270263671875" lon="-59.077955223619937896728515625">
        <ele>37</ele>
        <time>2020-02-24T17:39:21.000Z</time>
      </trkpt>
      <trkpt lat="-34.7028153575956821441650390625" lon="-59.07795547507703304290771484375">
        <ele>37.40000152587890625</ele>
        <time>2020-02-24T17:39:37.000Z</time>
      </trkpt>
      <trkpt lat="-34.70281527377665042877197265625" lon="-59.07795547507703304290771484375">
        <ele>37.200000762939453125</ele>
        <time>2020-02-24T17:39:39.000Z</time>
      </trkpt>
      <trkpt lat="-34.70281577669084072113037109375" lon="-59.077955223619937896728515625">
        <ele>36.799999237060546875</ele>
        <time>2020-02-24T17:40:02.000Z</time>
      </trkpt>
      <trkpt lat="-34.70281527377665042877197265625" lon="-59.07795581035315990447998046875">
        <ele>36.799999237060546875</ele>
        <time>2020-02-24T17:40:28.000Z</time>
      </trkpt>
      <trkpt lat="-34.70281912945210933685302734375" lon="-59.07796435989439487457275390625">
        <ele>36.799999237060546875</ele>
        <time>2020-02-24T17:40:38.000Z</time>
      </trkpt>
      <trkpt lat="-34.70282457768917083740234375" lon="-59.077974669635295867919921875">
        <ele>36.799999237060546875</ele>
        <time>2020-02-24T17:40:39.000Z</time>
      </trkpt>
      <trkpt lat="-34.70286875031888484954833984375" lon="-59.0780787728726863861083984375">
        <ele>36.799999237060546875</ele>
        <time>2020-02-24T17:40:45.000Z</time>
      </trkpt>
      <trkpt lat="-34.70297318883240222930908203125" lon="-59.07828815281391143798828125">
        <ele>36.799999237060546875</ele>
        <time>2020-02-24T17:40:53.000Z</time>
      </trkpt>
      <trkpt lat="-34.70308148302137851715087890625" lon="-59.07843994908034801483154296875">
        <ele>36.799999237060546875</ele>
        <time>2020-02-24T17:41:00.000Z</time>
      </trkpt>
      <trkpt lat="-34.70320570282638072967529296875" lon="-59.07843835651874542236328125">
        <ele>36.799999237060546875</ele>
        <time>2020-02-24T17:41:05.000Z</time>
      </trkpt>
      <trkpt lat="-34.70335523597896099090576171875" lon="-59.07826191745698451995849609375">
        <ele>36.799999237060546875</ele>
        <time>2020-02-24T17:41:12.000Z</time>
      </trkpt>
      <trkpt lat="-34.70362731255590915679931640625" lon="-59.07790954224765300750732421875">
        <ele>37.200000762939453125</ele>
        <time>2020-02-24T17:41:24.000Z</time>
      </trkpt>
      <trkpt lat="-34.70389653928577899932861328125" lon="-59.07756772823631763458251953125">
        <ele>37.40000152587890625</ele>
        <time>2020-02-24T17:41:35.000Z</time>
      </trkpt>
      <trkpt lat="-34.7041702084243297576904296875" lon="-59.0772159397602081298828125">
        <ele>37.40000152587890625</ele>
        <time>2020-02-24T17:41:46.000Z</time>
      </trkpt>
      <trkpt lat="-34.70445410348474979400634765625" lon="-59.07684789039194583892822265625">
        <ele>37.40000152587890625</ele>
        <time>2020-02-24T17:41:57.000Z</time>
      </trkpt>
      <trkpt lat="-34.70470690168440341949462890625" lon="-59.07655335031449794769287109375">
        <ele>37.40000152587890625</ele>
        <time>2020-02-24T17:42:06.000Z</time>
      </trkpt>
      <trkpt lat="-34.70500395633280277252197265625" lon="-59.07617532648146152496337890625">
        <ele>37.40000152587890625</ele>
        <time>2020-02-24T17:42:17.000Z</time>
      </trkpt>
      <trkpt lat="-34.7053302638232707977294921875" lon="-59.07576712779700756072998046875">
        <ele>37.40000152587890625</ele>
        <time>2020-02-24T17:42:29.000Z</time>
      </trkpt>
      <trkpt lat="-34.7056018374860286712646484375" lon="-59.07543051056563854217529296875">
        <ele>37.40000152587890625</ele>
        <time>2020-02-24T17:42:39.000Z</time>
      </trkpt>
      <trkpt lat="-34.7059513628482818603515625" lon="-59.07499565742909908294677734375">
        <ele>37.200000762939453125</ele>
        <time>2020-02-24T17:42:52.000Z</time>
      </trkpt>
      <trkpt lat="-34.70627062954008579254150390625" lon="-59.07459131442010402679443359375">
        <ele>37.799999237060546875</ele>
        <time>2020-02-24T17:43:04.000Z</time>
      </trkpt>
      <trkpt lat="-34.7065707854926586151123046875" lon="-59.07422318123281002044677734375">
        <ele>37.799999237060546875</ele>
        <time>2020-02-24T17:43:15.000Z</time>
      </trkpt>
      <trkpt lat="-34.706833474338054656982421875" lon="-59.07389712519943714141845703125">
        <ele>38</ele>
        <time>2020-02-24T17:43:25.000Z</time>
      </trkpt>
      <trkpt lat="-34.707152657210826873779296875" lon="-59.0734978951513767242431640625">
        <ele>38</ele>
        <time>2020-02-24T17:43:37.000Z</time>
      </trkpt>
      <trkpt lat="-34.707459770143032073974609375" lon="-59.073119200766086578369140625">
        <ele>38.200000762939453125</ele>
        <time>2020-02-24T17:43:48.000Z</time>
      </trkpt>
      <trkpt lat="-34.70780686475336551666259765625" lon="-59.07269482500851154327392578125">
        <ele>38.200000762939453125</ele>
        <time>2020-02-24T17:44:00.000Z</time>
      </trkpt>
      <trkpt lat="-34.70786671154201030731201171875" lon="-59.0726261772215366363525390625">
        <ele>38.40000152587890625</ele>
        <time>2020-02-24T17:44:02.000Z</time>
      </trkpt>
      <trkpt lat="-34.707893617451190948486328125" lon="-59.07258921302855014801025390625">
        <ele>38.40000152587890625</ele>
        <time>2020-02-24T17:44:03.000Z</time>
      </trkpt>
      <trkpt lat="-34.708001576364040374755859375" lon="-59.07244035042822360992431640625">
        <ele>38.40000152587890625</ele>
        <time>2020-02-24T17:44:07.000Z</time>
      </trkpt>
      <trkpt lat="-34.70833542756736278533935546875" lon="-59.0720049105584621429443359375">
        <ele>38.799999237060546875</ele>
        <time>2020-02-24T17:44:19.000Z</time>
      </trkpt>
      <trkpt lat="-34.70860046334564685821533203125" lon="-59.071691595017910003662109375">
        <ele>38.59999847412109375</ele>
        <time>2020-02-24T17:44:28.000Z</time>
      </trkpt>
      <trkpt lat="-34.7089180536568164825439453125" lon="-59.0713008306920528411865234375">
        <ele>38.799999237060546875</ele>
        <time>2020-02-24T17:44:39.000Z</time>
      </trkpt>
      <trkpt lat="-34.709203876554965972900390625" lon="-59.07095457427203655242919921875">
        <ele>39</ele>
        <time>2020-02-24T17:44:49.000Z</time>
      </trkpt>
      <trkpt lat="-34.709523729979991912841796875" lon="-59.07055266201496124267578125">
        <ele>39</ele>
        <time>2020-02-24T17:45:00.000Z</time>
      </trkpt>
      <trkpt lat="-34.70981449820101261138916015625" lon="-59.07020254991948604583740234375">
        <ele>39.200000762939453125</ele>
        <time>2020-02-24T17:45:10.000Z</time>
      </trkpt>
      <trkpt lat="-34.71001298166811466217041015625" lon="-59.06992980279028415679931640625">
        <ele>39.200000762939453125</ele>
        <time>2020-02-24T17:45:18.000Z</time>
      </trkpt>
      <trkpt lat="-34.71018514595925807952880859375" lon="-59.069814048707485198974609375">
        <ele>39</ele>
        <time>2020-02-24T17:45:24.000Z</time>
      </trkpt>
      <trkpt lat="-34.71031942404806613922119140625" lon="-59.0698936767876148223876953125">
        <ele>38.799999237060546875</ele>
        <time>2020-02-24T17:45:29.000Z</time>
      </trkpt>
      <trkpt lat="-34.71056920476257801055908203125" lon="-59.0701893903315067291259765625">
        <ele>39</ele>
        <time>2020-02-24T17:45:40.000Z</time>
      </trkpt>
      <trkpt lat="-34.7107761539518833160400390625" lon="-59.07043372280895709991455078125">
        <ele>39.200000762939453125</ele>
        <time>2020-02-24T17:45:49.000Z</time>
      </trkpt>
      <trkpt lat="-34.7110319696366786956787109375" lon="-59.07074737362563610076904296875">
        <ele>39</ele>
        <time>2020-02-24T17:46:00.000Z</time>
      </trkpt>
      <trkpt lat="-34.71126951277256011962890625" lon="-59.07103420235216617584228515625">
        <ele>39.40000152587890625</ele>
        <time>2020-02-24T17:46:10.000Z</time>
      </trkpt>
      <trkpt lat="-34.7114849276840686798095703125" lon="-59.07128767110407352447509765625">
        <ele>39.200000762939453125</ele>
        <time>2020-02-24T17:46:19.000Z</time>
      </trkpt>
      <trkpt lat="-34.71177569590508937835693359375" lon="-59.0716342628002166748046875">
        <ele>39</ele>
        <time>2020-02-24T17:46:31.000Z</time>
      </trkpt>
      <trkpt lat="-34.7120123170316219329833984375" lon="-59.0719163976609706878662109375">
        <ele>39.59999847412109375</ele>
        <time>2020-02-24T17:46:41.000Z</time>
      </trkpt>
      <trkpt lat="-34.712218679487705230712890625" lon="-59.07216810621321201324462890625">
        <ele>39.799999237060546875</ele>
        <time>2020-02-24T17:46:50.000Z</time>
      </trkpt>
      <trkpt lat="-34.71242059953510761260986328125" lon="-59.07239508815109729766845703125">
        <ele>39.40000152587890625</ele>
        <time>2020-02-24T17:46:58.000Z</time>
      </trkpt>
      <trkpt lat="-34.71257977187633514404296875" lon="-59.07243800349533557891845703125">
        <ele>39.59999847412109375</ele>
        <time>2020-02-24T17:47:03.000Z</time>
      </trkpt>
      <trkpt lat="-34.71269904635846614837646484375" lon="-59.07234840095043182373046875">
        <ele>39.59999847412109375</ele>
        <time>2020-02-24T17:47:07.000Z</time>
      </trkpt>
      <trkpt lat="-34.7129269503057003021240234375" lon="-59.07204723916947841644287109375">
        <ele>40</ele>
        <time>2020-02-24T17:47:16.000Z</time>
      </trkpt>
      <trkpt lat="-34.713200032711029052734375" lon="-59.07168849371373653411865234375">
        <ele>40</ele>
        <time>2020-02-24T17:47:26.000Z</time>
      </trkpt>
      <trkpt lat="-34.7134776413440704345703125" lon="-59.0713373757898807525634765625">
        <ele>40</ele>
        <time>2020-02-24T17:47:36.000Z</time>
      </trkpt>
      <trkpt lat="-34.71376908011734485626220703125" lon="-59.07097770832479000091552734375">
        <ele>39.799999237060546875</ele>
        <time>2020-02-24T17:47:46.000Z</time>
      </trkpt>
      <trkpt lat="-34.71397544257342815399169921875" lon="-59.0707169473171234130859375">
        <ele>39.40000152587890625</ele>
        <time>2020-02-24T17:47:54.000Z</time>
      </trkpt>
      <trkpt lat="-34.71426210366189479827880859375" lon="-59.07036666758358478546142578125">
        <ele>39.59999847412109375</ele>
        <time>2020-02-24T17:48:04.000Z</time>
      </trkpt>
      <trkpt lat="-34.7145255468785762786865234375" lon="-59.070027284324169158935546875">
        <ele>39.59999847412109375</ele>
        <time>2020-02-24T17:48:14.000Z</time>
      </trkpt>
      <trkpt lat="-34.71469477750360965728759765625" lon="-59.06981614418327808380126953125">
        <ele>39.59999847412109375</ele>
        <time>2020-02-24T17:48:22.000Z</time>
      </trkpt>
      <trkpt lat="-34.7147773392498493194580078125" lon="-59.0698041580617427825927734375">
        <ele>40</ele>
        <time>2020-02-24T17:48:26.000Z</time>
      </trkpt>
      <trkpt lat="-34.71479251049458980560302734375" lon="-59.0698185749351978302001953125">
        <ele>40</ele>
        <time>2020-02-24T17:48:27.000Z</time>
      </trkpt>
      <trkpt lat="-34.71489191986620426177978515625" lon="-59.06996970064938068389892578125">
        <ele>40</ele>
        <time>2020-02-24T17:48:34.000Z</time>
      </trkpt>
      <trkpt lat="-34.715061821043491363525390625" lon="-59.07017505727708339691162109375">
        <ele>39.799999237060546875</ele>
        <time>2020-02-24T17:48:42.000Z</time>
      </trkpt>
      <trkpt lat="-34.7153074108064174652099609375" lon="-59.0704669989645481109619140625">
        <ele>40</ele>
        <time>2020-02-24T17:48:53.000Z</time>
      </trkpt>
      <trkpt lat="-34.7153969295322895050048828125" lon="-59.070572443306446075439453125">
        <ele>40</ele>
        <time>2020-02-24T17:48:57.000Z</time>
      </trkpt>
      <trkpt lat="-34.7155509889125823974609375" lon="-59.070753157138824462890625">
        <ele>40</ele>
        <time>2020-02-24T17:49:04.000Z</time>
      </trkpt>
      <trkpt lat="-34.7157439403235912322998046875" lon="-59.07098240219056606292724609375">
        <ele>39.799999237060546875</ele>
        <time>2020-02-24T17:49:13.000Z</time>
      </trkpt>
      <trkpt lat="-34.71597871743142604827880859375" lon="-59.07125665806233882904052734375">
        <ele>40.200000762939453125</ele>
        <time>2020-02-24T17:49:24.000Z</time>
      </trkpt>
      <trkpt lat="-34.716187678277492523193359375" lon="-59.07150576822459697723388671875">
        <ele>40</ele>
        <time>2020-02-24T17:49:34.000Z</time>
      </trkpt>
      <trkpt lat="-34.71638674847781658172607421875" lon="-59.0717380307614803314208984375">
        <ele>40.40000152587890625</ele>
        <time>2020-02-24T17:49:43.000Z</time>
      </trkpt>
      <trkpt lat="-34.71643184311687946319580078125" lon="-59.0717898309230804443359375">
        <ele>40.40000152587890625</ele>
        <time>2020-02-24T17:49:45.000Z</time>
      </trkpt>
      <trkpt lat="-34.71663451753556728363037109375" lon="-59.072019495069980621337890625">
        <ele>40.200000762939453125</ele>
        <time>2020-02-24T17:49:54.000Z</time>
      </trkpt>
      <trkpt lat="-34.71686217002570629119873046875" lon="-59.07228671014308929443359375">
        <ele>40.200000762939453125</ele>
        <time>2020-02-24T17:50:04.000Z</time>
      </trkpt>
      <trkpt lat="-34.71703550778329372406005859375" lon="-59.07249860465526580810546875">
        <ele>40.40000152587890625</ele>
        <time>2020-02-24T17:50:12.000Z</time>
      </trkpt>
      <trkpt lat="-34.71727766096591949462890625" lon="-59.07278216443955898284912109375">
        <ele>40.40000152587890625</ele>
        <time>2020-02-24T17:50:23.000Z</time>
      </trkpt>
      <trkpt lat="-34.71749131567776203155517578125" lon="-59.07302943058311939239501953125">
        <ele>40.200000762939453125</ele>
        <time>2020-02-24T17:50:33.000Z</time>
      </trkpt>
      <trkpt lat="-34.717725925147533416748046875" lon="-59.0733071230351924896240234375">
        <ele>40.40000152587890625</ele>
        <time>2020-02-24T17:50:44.000Z</time>
      </trkpt>
      <trkpt lat="-34.71793957985937595367431640625" lon="-59.07355816103518009185791015625">
        <ele>40.200000762939453125</ele>
        <time>2020-02-24T17:50:54.000Z</time>
      </trkpt>
      <trkpt lat="-34.71813119016587734222412109375" lon="-59.07378874719142913818359375">
        <ele>40.59999847412109375</ele>
        <time>2020-02-24T17:51:03.000Z</time>
      </trkpt>
      <trkpt lat="-34.71834995783865451812744140625" lon="-59.07404649071395397186279296875">
        <ele>40.59999847412109375</ele>
        <time>2020-02-24T17:51:14.000Z</time>
      </trkpt>
      <trkpt lat="-34.71858699806034564971923828125" lon="-59.07432879321277141571044921875">
        <ele>40.40000152587890625</ele>
        <time>2020-02-24T17:51:26.000Z</time>
      </trkpt>
      <trkpt lat="-34.71886821091175079345703125" lon="-59.074658118188381195068359375">
        <ele>40.799999237060546875</ele>
        <time>2020-02-24T17:51:40.000Z</time>
      </trkpt>
      <trkpt lat="-34.71901028417050838470458984375" lon="-59.0748260915279388427734375">
        <ele>40.799999237060546875</ele>
        <time>2020-02-24T17:51:47.000Z</time>
      </trkpt>
      <trkpt lat="-34.71920910291373729705810546875" lon="-59.0750602819025516510009765625">
        <ele>41</ele>
        <time>2020-02-24T17:51:57.000Z</time>
      </trkpt>
      <trkpt lat="-34.71943709068000316619873046875" lon="-59.07532825134694576263427734375">
        <ele>40.799999237060546875</ele>
        <time>2020-02-24T17:52:08.000Z</time>
      </trkpt>
      <trkpt lat="-34.719599783420562744140625" lon="-59.07551919110119342803955078125">
        <ele>41</ele>
        <time>2020-02-24T17:52:16.000Z</time>
      </trkpt>
      <trkpt lat="-34.71986674703657627105712890625" lon="-59.07583124935626983642578125">
        <ele>41</ele>
        <time>2020-02-24T17:52:29.000Z</time>
      </trkpt>
      <trkpt lat="-34.720060117542743682861328125" lon="-59.07605730928480625152587890625">
        <ele>41.200000762939453125</ele>
        <time>2020-02-24T17:52:39.000Z</time>
      </trkpt>
      <trkpt lat="-34.7202218882739543914794921875" lon="-59.07623131759464740753173828125">
        <ele>41.40000152587890625</ele>
        <time>2020-02-24T17:52:47.000Z</time>
      </trkpt>
      <trkpt lat="-34.72036278806626796722412109375" lon="-59.076396524906158447265625">
        <ele>41.40000152587890625</ele>
        <time>2020-02-24T17:52:54.000Z</time>
      </trkpt>
      <trkpt lat="-34.72038357518613338470458984375" lon="-59.07642158679664134979248046875">
        <ele>41.40000152587890625</ele>
        <time>2020-02-24T17:52:55.000Z</time>
      </trkpt>
      <trkpt lat="-34.720511734485626220703125" lon="-59.07659240998327732086181640625">
        <ele>41.40000152587890625</ele>
        <time>2020-02-24T17:53:02.000Z</time>
      </trkpt>
      <trkpt lat="-34.7205290012061595916748046875" lon="-59.07660079188644886016845703125">
        <ele>41.40000152587890625</ele>
        <time>2020-02-24T17:53:03.000Z</time>
      </trkpt>
      <trkpt lat="-34.720545597374439239501953125" lon="-59.0765978582203388214111328125">
        <ele>41.59999847412109375</ele>
        <time>2020-02-24T17:53:04.000Z</time>
      </trkpt>
      <trkpt lat="-34.72057183273136615753173828125" lon="-59.07657447271049022674560546875">
        <ele>41.799999237060546875</ele>
        <time>2020-02-24T17:53:06.000Z</time>
      </trkpt>
      <trkpt lat="-34.7206986509263515472412109375" lon="-59.0764483250677585601806640625">
        <ele>41.799999237060546875</ele>
        <time>2020-02-24T17:53:14.000Z</time>
      </trkpt>
      <trkpt lat="-34.72082396037876605987548828125" lon="-59.076290242373943328857421875">
        <ele>41.799999237060546875</ele>
        <time>2020-02-24T17:53:22.000Z</time>
      </trkpt>
      <trkpt lat="-34.72094918601214885711669921875" lon="-59.0761244483292102813720703125">
        <ele>41.59999847412109375</ele>
        <time>2020-02-24T17:53:30.000Z</time>
      </trkpt>
      <trkpt lat="-34.7210924327373504638671875" lon="-59.075935520231723785400390625">
        <ele>41.40000152587890625</ele>
        <time>2020-02-24T17:53:39.000Z</time>
      </trkpt>
      <trkpt lat="-34.72125596366822719573974609375" lon="-59.0757278166711330413818359375">
        <ele>41.40000152587890625</ele>
        <time>2020-02-24T17:53:49.000Z</time>
      </trkpt>
      <trkpt lat="-34.721486382186412811279296875" lon="-59.075437299907207489013671875">
        <ele>41.40000152587890625</ele>
        <time>2020-02-24T17:54:02.000Z</time>
      </trkpt>
      <trkpt lat="-34.72165946848690509796142578125" lon="-59.0752215497195720672607421875">
        <ele>41.59999847412109375</ele>
        <time>2020-02-24T17:54:12.000Z</time>
      </trkpt>
      <trkpt lat="-34.721853174269199371337890625" lon="-59.0749875269830226898193359375">
        <ele>41.799999237060546875</ele>
        <time>2020-02-24T17:54:23.000Z</time>
      </trkpt>
      <trkpt lat="-34.722000025212764739990234375" lon="-59.07480890862643718719482421875">
        <ele>41.59999847412109375</ele>
        <time>2020-02-24T17:54:32.000Z</time>
      </trkpt>
      <trkpt lat="-34.72216389141976833343505859375" lon="-59.07460707239806652069091796875">
        <ele>41.59999847412109375</ele>
        <time>2020-02-24T17:54:42.000Z</time>
      </trkpt>
      <trkpt lat="-34.722315855324268341064453125" lon="-59.0744209103286266326904296875">
        <ele>41.59999847412109375</ele>
        <time>2020-02-24T17:54:51.000Z</time>
      </trkpt>
      <trkpt lat="-34.7224952280521392822265625" lon="-59.0741892345249652862548828125">
        <ele>41.40000152587890625</ele>
        <time>2020-02-24T17:55:02.000Z</time>
      </trkpt>
      <trkpt lat="-34.7226107306778430938720703125" lon="-59.0740460716187953948974609375">
        <ele>41.40000152587890625</ele>
        <time>2020-02-24T17:55:10.000Z</time>
      </trkpt>
      <trkpt lat="-34.7227287478744983673095703125" lon="-59.0738935209810733795166015625">
        <ele>41.59999847412109375</ele>
        <time>2020-02-24T17:55:19.000Z</time>
      </trkpt>
      <trkpt lat="-34.7228018380701541900634765625" lon="-59.073809199035167694091796875">
        <ele>41.799999237060546875</ele>
        <time>2020-02-24T17:55:26.000Z</time>
      </trkpt>
      <trkpt lat="-34.72287232987582683563232421875" lon="-59.0737129747867584228515625">
        <ele>41.799999237060546875</ele>
        <time>2020-02-24T17:55:34.000Z</time>
      </trkpt>
      <trkpt lat="-34.7229584120213985443115234375" lon="-59.07360040582716464996337890625">
        <ele>42</ele>
        <time>2020-02-24T17:55:41.000Z</time>
      </trkpt>
      <trkpt lat="-34.72306762821972370147705078125" lon="-59.07354122959077358245849609375">
        <ele>41.799999237060546875</ele>
        <time>2020-02-24T17:55:47.000Z</time>
      </trkpt>
      <trkpt lat="-34.723181538283824920654296875" lon="-59.07359420321881771087646484375">
        <ele>41.59999847412109375</ele>
        <time>2020-02-24T17:55:54.000Z</time>
      </trkpt>
      <trkpt lat="-34.72322881221771240234375" lon="-59.07364600338041782379150390625">
        <ele>41.59999847412109375</ele>
        <time>2020-02-24T17:56:01.000Z</time>
      </trkpt>
      <trkpt lat="-34.72324431873857975006103515625" lon="-59.0736658684909343719482421875">
        <ele>41.799999237060546875</ele>
        <time>2020-02-24T17:56:07.000Z</time>
      </trkpt>
      <trkpt lat="-34.7232558019459247589111328125" lon="-59.0736802853643894195556640625">
        <ele>41.799999237060546875</ele>
        <time>2020-02-24T17:56:09.000Z</time>
      </trkpt>
      <trkpt lat="-34.7233060933649539947509765625" lon="-59.073748178780078887939453125">
        <ele>41.799999237060546875</ele>
        <time>2020-02-24T17:56:14.000Z</time>
      </trkpt>
      <trkpt lat="-34.7234499268233776092529296875" lon="-59.0739247016608715057373046875">
        <ele>41.40000152587890625</ele>
        <time>2020-02-24T17:56:24.000Z</time>
      </trkpt>
      <trkpt lat="-34.72357925958931446075439453125" lon="-59.07408018596470355987548828125">
        <ele>41.799999237060546875</ele>
        <time>2020-02-24T17:56:32.000Z</time>
      </trkpt>
      <trkpt lat="-34.72374186851084232330322265625" lon="-59.07426416873931884765625">
        <ele>41.799999237060546875</ele>
        <time>2020-02-24T17:56:42.000Z</time>
      </trkpt>
      <trkpt lat="-34.7238304652273654937744140625" lon="-59.0743950940668582916259765625">
        <ele>41.799999237060546875</ele>
        <time>2020-02-24T17:56:49.000Z</time>
      </trkpt>
      <trkpt lat="-34.723968766629695892333984375" lon="-59.0745768137276172637939453125">
        <ele>42</ele>
        <time>2020-02-24T17:56:59.000Z</time>
      </trkpt>
      <trkpt lat="-34.7241000272333621978759765625" lon="-59.07474017702043056488037109375">
        <ele>42.200000762939453125</ele>
        <time>2020-02-24T17:57:08.000Z</time>
      </trkpt>
      <trkpt lat="-34.72423707135021686553955078125" lon="-59.074895493686199188232421875">
        <ele>42.200000762939453125</ele>
        <time>2020-02-24T17:57:17.000Z</time>
      </trkpt>
      <trkpt lat="-34.7244088165462017059326171875" lon="-59.07509506680071353912353515625">
        <ele>42.40000152587890625</ele>
        <time>2020-02-24T17:57:28.000Z</time>
      </trkpt>
      <trkpt lat="-34.72458089701831340789794921875" lon="-59.0752986632287502288818359375">
        <ele>42.40000152587890625</ele>
        <time>2020-02-24T17:57:39.000Z</time>
      </trkpt>
      <trkpt lat="-34.7246713377535343170166015625" lon="-59.075389690697193145751953125">
        <ele>42.40000152587890625</ele>
        <time>2020-02-24T17:57:45.000Z</time>
      </trkpt>
      <trkpt lat="-34.724805615842342376708984375" lon="-59.07553478144109249114990234375">
        <ele>42.200000762939453125</ele>
        <time>2020-02-24T17:57:53.000Z</time>
      </trkpt>
      <trkpt lat="-34.72495104186236858367919921875" lon="-59.07574273645877838134765625">
        <ele>42.200000762939453125</ele>
        <time>2020-02-24T17:58:03.000Z</time>
      </trkpt>
      <trkpt lat="-34.7250890918076038360595703125" lon="-59.0759055130183696746826171875">
        <ele>42.59999847412109375</ele>
        <time>2020-02-24T17:58:11.000Z</time>
      </trkpt>
      <trkpt lat="-34.7251425683498382568359375" lon="-59.07596846111118793487548828125">
        <ele>42.59999847412109375</ele>
        <time>2020-02-24T17:58:14.000Z</time>
      </trkpt>
      <trkpt lat="-34.72531196661293506622314453125" lon="-59.07617214135825634002685546875">
        <ele>42.40000152587890625</ele>
        <time>2020-02-24T17:58:24.000Z</time>
      </trkpt>
      <trkpt lat="-34.7254542075097560882568359375" lon="-59.076344557106494903564453125">
        <ele>42.799999237060546875</ele>
        <time>2020-02-24T17:58:33.000Z</time>
      </trkpt>
      <trkpt lat="-34.72561606205999851226806640625" lon="-59.0765361674129962921142578125">
        <ele>42.59999847412109375</ele>
        <time>2020-02-24T17:58:43.000Z</time>
      </trkpt>
      <trkpt lat="-34.72579476423561573028564453125" lon="-59.0767494030296802520751953125">
        <ele>43</ele>
        <time>2020-02-24T17:58:54.000Z</time>
      </trkpt>
      <trkpt lat="-34.72592786885797977447509765625" lon="-59.076909162104129791259765625">
        <ele>42.799999237060546875</ele>
        <time>2020-02-24T17:59:02.000Z</time>
      </trkpt>
      <trkpt lat="-34.72608947195112705230712890625" lon="-59.077106975018978118896484375">
        <ele>42.799999237060546875</ele>
        <time>2020-02-24T17:59:12.000Z</time>
      </trkpt>
      <trkpt lat="-34.726270772516727447509765625" lon="-59.077320881187915802001953125">
        <ele>43</ele>
        <time>2020-02-24T17:59:23.000Z</time>
      </trkpt>
      <trkpt lat="-34.7264657355844974517822265625" lon="-59.07754878513514995574951171875">
        <ele>43.200000762939453125</ele>
        <time>2020-02-24T17:59:35.000Z</time>
      </trkpt>
      <trkpt lat="-34.72658065147697925567626953125" lon="-59.077664874494075775146484375">
        <ele>43.40000152587890625</ele>
        <time>2020-02-24T17:59:42.000Z</time>
      </trkpt>
      <trkpt lat="-34.7266675718128681182861328125" lon="-59.07776822336018085479736328125">
        <ele>43.59999847412109375</ele>
        <time>2020-02-24T17:59:48.000Z</time>
      </trkpt>
      <trkpt lat="-34.72681157290935516357421875" lon="-59.07777425833046436309814453125">
        <ele>43.200000762939453125</ele>
        <time>2020-02-24T17:59:55.000Z</time>
      </trkpt>
      <trkpt lat="-34.72687133587896823883056640625" lon="-59.0776727534830570220947265625">
        <ele>43.200000762939453125</ele>
        <time>2020-02-24T18:00:00.000Z</time>
      </trkpt>
      <trkpt lat="-34.726981222629547119140625" lon="-59.0775195322930812835693359375">
        <ele>43.200000762939453125</ele>
        <time>2020-02-24T18:00:08.000Z</time>
      </trkpt>
      <trkpt lat="-34.7271466813981533050537109375" lon="-59.07736471854150295257568359375">
        <ele>43.200000762939453125</ele>
        <time>2020-02-24T18:00:17.000Z</time>
      </trkpt>
      <trkpt lat="-34.72728054039180278778076171875" lon="-59.0772023610770702362060546875">
        <ele>43</ele>
        <time>2020-02-24T18:00:25.000Z</time>
      </trkpt>
      <trkpt lat="-34.72739788703620433807373046875" lon="-59.07705827616155147552490234375">
        <ele>43.200000762939453125</ele>
        <time>2020-02-24T18:00:32.000Z</time>
      </trkpt>
      <trkpt lat="-34.72752881236374378204345703125" lon="-59.0769006125628948211669921875">
        <ele>43</ele>
        <time>2020-02-24T18:00:40.000Z</time>
      </trkpt>
      <trkpt lat="-34.727646410465240478515625" lon="-59.0767517499625682830810546875">
        <ele>43</ele>
        <time>2020-02-24T18:00:48.000Z</time>
      </trkpt>
      <trkpt lat="-34.72780273295938968658447265625" lon="-59.07655620016157627105712890625">
        <ele>43.40000152587890625</ele>
        <time>2020-02-24T18:00:58.000Z</time>
      </trkpt>
      <trkpt lat="-34.72797255031764507293701171875" lon="-59.07635251991450786590576171875">
        <ele>43.200000762939453125</ele>
        <time>2020-02-24T18:01:08.000Z</time>
      </trkpt>
      <trkpt lat="-34.7281055711209774017333984375" lon="-59.0761874802410602569580078125">
        <ele>43.200000762939453125</ele>
        <time>2020-02-24T18:01:16.000Z</time>
      </trkpt>
      <trkpt lat="-34.72827346064150333404541015625" lon="-59.0759725682437419891357421875">
        <ele>43.40000152587890625</ele>
        <time>2020-02-24T18:01:26.000Z</time>
      </trkpt>
      <trkpt lat="-34.72846356220543384552001953125" lon="-59.07573242671787738800048828125">
        <ele>43.59999847412109375</ele>
        <time>2020-02-24T18:01:37.000Z</time>
      </trkpt>
      <trkpt lat="-34.728641174733638763427734375" lon="-59.07551784999668598175048828125">
        <ele>44</ele>
        <time>2020-02-24T18:01:47.000Z</time>
      </trkpt>
      <trkpt lat="-34.72877922467887401580810546875" lon="-59.07535054720938205718994140625">
        <ele>43.40000152587890625</ele>
        <time>2020-02-24T18:01:55.000Z</time>
      </trkpt>
      <trkpt lat="-34.72888014279305934906005859375" lon="-59.0752292610704898834228515625">
        <ele>43.799999237060546875</ele>
        <time>2020-02-24T18:02:01.000Z</time>
      </trkpt>
      <trkpt lat="-34.72903378307819366455078125" lon="-59.07504410482943058013916015625">
        <ele>43.799999237060546875</ele>
        <time>2020-02-24T18:02:10.000Z</time>
      </trkpt>
      <trkpt lat="-34.72915071062743663787841796875" lon="-59.07489138655364513397216796875">
        <ele>43.799999237060546875</ele>
        <time>2020-02-24T18:02:18.000Z</time>
      </trkpt>
      <trkpt lat="-34.7292240522801876068115234375" lon="-59.0747796557843685150146484375">
        <ele>44</ele>
        <time>2020-02-24T18:02:25.000Z</time>
      </trkpt>
      <trkpt lat="-34.72939361818134784698486328125" lon="-59.07456968910992145538330078125">
        <ele>43.59999847412109375</ele>
        <time>2020-02-24T18:02:36.000Z</time>
      </trkpt>
      <trkpt lat="-34.7295601665973663330078125" lon="-59.07436005771160125732421875">
        <ele>44</ele>
        <time>2020-02-24T18:02:46.000Z</time>
      </trkpt>
      <trkpt lat="-34.72971464507281780242919921875" lon="-59.0741570480167865753173828125">
        <ele>44.200000762939453125</ele>
        <time>2020-02-24T18:02:55.000Z</time>
      </trkpt>
      <trkpt lat="-34.729853533208370208740234375" lon="-59.0739407949149608612060546875">
        <ele>44.200000762939453125</ele>
        <time>2020-02-24T18:03:04.000Z</time>
      </trkpt>
      <trkpt lat="-34.73000247962772846221923828125" lon="-59.07378874719142913818359375">
        <ele>44.200000762939453125</ele>
        <time>2020-02-24T18:03:12.000Z</time>
      </trkpt>
      <trkpt lat="-34.7300937585532665252685546875" lon="-59.07368657179176807403564453125">
        <ele>44.59999847412109375</ele>
        <time>2020-02-24T18:03:17.000Z</time>
      </trkpt>
      <trkpt lat="-34.730183780193328857421875" lon="-59.07357878051698207855224609375">
        <ele>44.200000762939453125</ele>
        <time>2020-02-24T18:03:22.000Z</time>
      </trkpt>
      <trkpt lat="-34.7303264401853084564208984375" lon="-59.07339957542717456817626953125">
        <ele>44.40000152587890625</ele>
        <time>2020-02-24T18:03:31.000Z</time>
      </trkpt>
      <trkpt lat="-34.73045409657061100006103515625" lon="-59.07324316911399364471435546875">
        <ele>44.200000762939453125</ele>
        <time>2020-02-24T18:03:39.000Z</time>
      </trkpt>
      <trkpt lat="-34.7306422702968120574951171875" lon="-59.073001854121685028076171875">
        <ele>44</ele>
        <time>2020-02-24T18:03:50.000Z</time>
      </trkpt>
      <trkpt lat="-34.730778895318508148193359375" lon="-59.07283782027661800384521484375">
        <ele>44.40000152587890625</ele>
        <time>2020-02-24T18:03:58.000Z</time>
      </trkpt>
      <trkpt lat="-34.7309088148176670074462890625" lon="-59.07267202623188495635986328125">
        <ele>44.59999847412109375</ele>
        <time>2020-02-24T18:04:06.000Z</time>
      </trkpt>
      <trkpt lat="-34.73110310733318328857421875" lon="-59.072434566915035247802734375">
        <ele>44.40000152587890625</ele>
        <time>2020-02-24T18:04:17.000Z</time>
      </trkpt>
      <trkpt lat="-34.731256328523159027099609375" lon="-59.07224119640886783599853515625">
        <ele>44.200000762939453125</ele>
        <time>2020-02-24T18:04:26.000Z</time>
      </trkpt>
      <trkpt lat="-34.731434024870395660400390625" lon="-59.072020836174488067626953125">
        <ele>44.799999237060546875</ele>
        <time>2020-02-24T18:04:37.000Z</time>
      </trkpt>
      <trkpt lat="-34.7316361963748931884765625" lon="-59.0717671997845172882080078125">
        <ele>44.799999237060546875</ele>
        <time>2020-02-24T18:04:49.000Z</time>
      </trkpt>
      <trkpt lat="-34.73184247501194477081298828125" lon="-59.071511887013912200927734375">
        <ele>44.799999237060546875</ele>
        <time>2020-02-24T18:05:00.000Z</time>
      </trkpt>
      <trkpt lat="-34.732017405331134796142578125" lon="-59.07128163613379001617431640625">
        <ele>44.200000762939453125</ele>
        <time>2020-02-24T18:05:10.000Z</time>
      </trkpt>
      <trkpt lat="-34.73216232843697071075439453125" lon="-59.07103923149406909942626953125">
        <ele>44.799999237060546875</ele>
        <time>2020-02-24T18:05:20.000Z</time>
      </trkpt>
      <trkpt lat="-34.73226726986467838287353515625" lon="-59.0709058754146099090576171875">
        <ele>44.799999237060546875</ele>
        <time>2020-02-24T18:05:27.000Z</time>
      </trkpt>
      <trkpt lat="-34.73236919380724430084228515625" lon="-59.0708113275468349456787109375">
        <ele>45.200000762939453125</ele>
        <time>2020-02-24T18:05:33.000Z</time>
      </trkpt>
      <trkpt lat="-34.7324551083147525787353515625" lon="-59.07072566449642181396484375">
        <ele>45.40000152587890625</ele>
        <time>2020-02-24T18:05:39.000Z</time>
      </trkpt>
      <trkpt lat="-34.732553847134113311767578125" lon="-59.07061636447906494140625">
        <ele>45.40000152587890625</ele>
        <time>2020-02-24T18:05:46.000Z</time>
      </trkpt>
      <trkpt lat="-34.73267043940722942352294921875" lon="-59.07045903615653514862060546875">
        <ele>45.200000762939453125</ele>
        <time>2020-02-24T18:05:54.000Z</time>
      </trkpt>
      <trkpt lat="-34.73273523151874542236328125" lon="-59.070375300943851470947265625">
        <ele>45.200000762939453125</ele>
        <time>2020-02-24T18:05:58.000Z</time>
      </trkpt>
      <trkpt lat="-34.7328775562345981597900390625" lon="-59.07020070590078830718994140625">
        <ele>45.40000152587890625</ele>
        <time>2020-02-24T18:06:06.000Z</time>
      </trkpt>
      <trkpt lat="-34.73305039107799530029296875" lon="-59.07000222243368625640869140625">
        <ele>45.40000152587890625</ele>
        <time>2020-02-24T18:06:15.000Z</time>
      </trkpt>
      <trkpt lat="-34.73325046710669994354248046875" lon="-59.06974858604371547698974609375">
        <ele>45.200000762939453125</ele>
        <time>2020-02-24T18:06:26.000Z</time>
      </trkpt>
      <trkpt lat="-34.73338826559484004974365234375" lon="-59.0695703029632568359375">
        <ele>45.200000762939453125</ele>
        <time>2020-02-24T18:06:34.000Z</time>
      </trkpt>
      <trkpt lat="-34.73358641378581523895263671875" lon="-59.06933066435158252716064453125">
        <ele>45</ele>
        <time>2020-02-24T18:06:44.000Z</time>
      </trkpt>
      <trkpt lat="-34.7337980568408966064453125" lon="-59.06907484866678714752197265625">
        <ele>45.40000152587890625</ele>
        <time>2020-02-24T18:06:54.000Z</time>
      </trkpt>
      <trkpt lat="-34.73403300158679485321044921875" lon="-59.06878374516963958740234375">
        <ele>45.40000152587890625</ele>
        <time>2020-02-24T18:07:05.000Z</time>
      </trkpt>
      <trkpt lat="-34.7341935150325298309326171875" lon="-59.06858601607382297515869140625">
        <ele>45.40000152587890625</ele>
        <time>2020-02-24T18:07:13.000Z</time>
      </trkpt>
      <trkpt lat="-34.734306000173091888427734375" lon="-59.06843371689319610595703125">
        <ele>45.59999847412109375</ele>
        <time>2020-02-24T18:07:19.000Z</time>
      </trkpt>
      <trkpt lat="-34.73433651030063629150390625" lon="-59.0683902986347675323486328125">
        <ele>45.799999237060546875</ele>
        <time>2020-02-24T18:07:21.000Z</time>
      </trkpt>
      <trkpt lat="-34.73441136069595813751220703125" lon="-59.06830304302275180816650390625">
        <ele>45.799999237060546875</ele>
        <time>2020-02-24T18:07:27.000Z</time>
      </trkpt>
      <trkpt lat="-34.734493754804134368896484375" lon="-59.06833472661674022674560546875">
        <ele>45.799999237060546875</ele>
        <time>2020-02-24T18:07:32.000Z</time>
      </trkpt>
      <trkpt lat="-34.73454329185187816619873046875" lon="-59.0683544240891933441162109375">
        <ele>46</ele>
        <time>2020-02-24T18:07:37.000Z</time>
      </trkpt>
      <trkpt lat="-34.7345435433089733123779296875" lon="-59.06835584901273250579833984375">
        <ele>46.200000762939453125</ele>
        <time>2020-02-24T18:07:51.000Z</time>
      </trkpt>
      <trkpt lat="-34.73454345948994159698486328125" lon="-59.06835568137466907501220703125">
        <ele>46.200000762939453125</ele>
        <time>2020-02-24T18:08:12.000Z</time>
      </trkpt>
      <trkpt lat="-34.73454295657575130462646484375" lon="-59.0683566033840179443359375">
        <ele>46.200000762939453125</ele>
        <time>2020-02-24T18:08:42.000Z</time>
      </trkpt>
      <trkpt lat="-34.73454329185187816619873046875" lon="-59.0683581121265888214111328125">
        <ele>46.200000762939453125</ele>
        <time>2020-02-24T18:09:02.000Z</time>
      </trkpt>
      <trkpt lat="-34.73454128019511699676513671875" lon="-59.06835769303143024444580078125">
        <ele>46.200000762939453125</ele>
        <time>2020-02-24T18:09:21.000Z</time>
      </trkpt>
      <trkpt lat="-34.73454010672867298126220703125" lon="-59.0683571062982082366943359375">
        <ele>46.200000762939453125</ele>
        <time>2020-02-24T18:09:46.000Z</time>
      </trkpt>
      <trkpt lat="-34.7345395199954509735107421875" lon="-59.06835702247917652130126953125">
        <ele>46.200000762939453125</ele>
        <time>2020-02-24T18:10:21.000Z</time>
      </trkpt>
      <trkpt lat="-34.734539687633514404296875" lon="-59.0683567710220813751220703125">
        <ele>46.200000762939453125</ele>
        <time>2020-02-24T18:10:34.000Z</time>
      </trkpt>
      <trkpt lat="-34.734539687633514404296875" lon="-59.068356938660144805908203125">
        <ele>46.200000762939453125</ele>
        <time>2020-02-24T18:10:39.000Z</time>
      </trkpt>
      <trkpt lat="-34.73458520136773586273193359375" lon="-59.0683483891189098358154296875">
        <ele>46.200000762939453125</ele>
        <time>2020-02-24T18:10:45.000Z</time>
      </trkpt>
      <trkpt lat="-34.7346652485430240631103515625" lon="-59.0682779811322689056396484375">
        <ele>46</ele>
        <time>2020-02-24T18:10:49.000Z</time>
      </trkpt>
      <trkpt lat="-34.734835065901279449462890625" lon="-59.06804722733795642852783203125">
        <ele>45.799999237060546875</ele>
        <time>2020-02-24T18:10:56.000Z</time>
      </trkpt>
      <trkpt lat="-34.73507571034133434295654296875" lon="-59.06776207499206066131591796875">
        <ele>45.200000762939453125</ele>
        <time>2020-02-24T18:11:05.000Z</time>
      </trkpt>
      <trkpt lat="-34.7352714277803897857666015625" lon="-59.06751899980008602142333984375">
        <ele>45.40000152587890625</ele>
        <time>2020-02-24T18:11:14.000Z</time>
      </trkpt>
      <trkpt lat="-34.7354380600154399871826171875" lon="-59.067312888801097869873046875">
        <ele>45.59999847412109375</ele>
        <time>2020-02-24T18:11:21.000Z</time>
      </trkpt>
      <trkpt lat="-34.73558767698705196380615234375" lon="-59.067132174968719482421875">
        <ele>45.40000152587890625</ele>
        <time>2020-02-24T18:11:28.000Z</time>
      </trkpt>
      <trkpt lat="-34.735765121877193450927734375" lon="-59.0669100545346736907958984375">
        <ele>45.59999847412109375</ele>
        <time>2020-02-24T18:11:36.000Z</time>
      </trkpt>
      <trkpt lat="-34.73589487373828887939453125" lon="-59.06677032820880413055419921875">
        <ele>45.799999237060546875</ele>
        <time>2020-02-24T18:11:42.000Z</time>
      </trkpt>
      <trkpt lat="-34.73604097031056880950927734375" lon="-59.06657234765589237213134765625">
        <ele>45.59999847412109375</ele>
        <time>2020-02-24T18:11:49.000Z</time>
      </trkpt>
      <trkpt lat="-34.7361599095165729522705078125" lon="-59.066427759826183319091796875">
        <ele>45.59999847412109375</ele>
        <time>2020-02-24T18:11:54.000Z</time>
      </trkpt>
      <trkpt lat="-34.73639166913926601409912109375" lon="-59.0661553479731082916259765625">
        <ele>45.40000152587890625</ele>
        <time>2020-02-24T18:12:04.000Z</time>
      </trkpt>
      <trkpt lat="-34.7365967743098735809326171875" lon="-59.06589861027896404266357421875">
        <ele>45.799999237060546875</ele>
        <time>2020-02-24T18:12:13.000Z</time>
      </trkpt>
      <trkpt lat="-34.73679609596729278564453125" lon="-59.06565033830702304840087890625">
        <ele>45.799999237060546875</ele>
        <time>2020-02-24T18:12:21.000Z</time>
      </trkpt>
      <trkpt lat="-34.73701293580234050750732421875" lon="-59.0653775073587894439697265625">
        <ele>45.799999237060546875</ele>
        <time>2020-02-24T18:12:30.000Z</time>
      </trkpt>
      <trkpt lat="-34.737233631312847137451171875" lon="-59.0651052631437778472900390625">
        <ele>45.799999237060546875</ele>
        <time>2020-02-24T18:12:39.000Z</time>
      </trkpt>
      <trkpt lat="-34.73746530711650848388671875" lon="-59.0648160874843597412109375">
        <ele>46</ele>
        <time>2020-02-24T18:12:49.000Z</time>
      </trkpt>
      <trkpt lat="-34.737686924636363983154296875" lon="-59.06454359181225299835205078125">
        <ele>46</ele>
        <time>2020-02-24T18:12:58.000Z</time>
      </trkpt>
      <trkpt lat="-34.73781877197325229644775390625" lon="-59.06437645666301250457763671875">
        <ele>46</ele>
        <time>2020-02-24T18:13:04.000Z</time>
      </trkpt>
      <trkpt lat="-34.7380279004573822021484375" lon="-59.06411326490342617034912109375">
        <ele>46.200000762939453125</ele>
        <time>2020-02-24T18:13:13.000Z</time>
      </trkpt>
      <trkpt lat="-34.7383013181388378143310546875" lon="-59.06378083862364292144775390625">
        <ele>46</ele>
        <time>2020-02-24T18:13:24.000Z</time>
      </trkpt>
      <trkpt lat="-34.738523773849010467529296875" lon="-59.063503481447696685791015625">
        <ele>46.200000762939453125</ele>
        <time>2020-02-24T18:13:33.000Z</time>
      </trkpt>
      <trkpt lat="-34.738702140748500823974609375" lon="-59.06322176568210124969482421875">
        <ele>46.40000152587890625</ele>
        <time>2020-02-24T18:13:41.000Z</time>
      </trkpt>
      <trkpt lat="-34.7387971915304660797119140625" lon="-59.06292848289012908935546875">
        <ele>46.200000762939453125</ele>
        <time>2020-02-24T18:13:48.000Z</time>
      </trkpt>
      <trkpt lat="-34.738908000290393829345703125" lon="-59.0626775287091732025146484375">
        <ele>46.200000762939453125</ele>
        <time>2020-02-24T18:13:55.000Z</time>
      </trkpt>
      <trkpt lat="-34.73910489119589328765869140625" lon="-59.06241777352988719940185546875">
        <ele>46.40000152587890625</ele>
        <time>2020-02-24T18:14:04.000Z</time>
      </trkpt>
      <trkpt lat="-34.73936288617551326751708984375" lon="-59.06211099587380886077880859375">
        <ele>46.200000762939453125</ele>
        <time>2020-02-24T18:14:14.000Z</time>
      </trkpt>
      <trkpt lat="-34.73957545123994350433349609375" lon="-59.0618413500487804412841796875">
        <ele>46.200000762939453125</ele>
        <time>2020-02-24T18:14:23.000Z</time>
      </trkpt>
      <trkpt lat="-34.73982657305896282196044921875" lon="-59.06152979470789432525634765625">
        <ele>46.200000762939453125</ele>
        <time>2020-02-24T18:14:33.000Z</time>
      </trkpt>
      <trkpt lat="-34.73996956832706928253173828125" lon="-59.0613474883139133453369140625">
        <ele>46.200000762939453125</ele>
        <time>2020-02-24T18:14:39.000Z</time>
      </trkpt>
      <trkpt lat="-34.74025120027363300323486328125" lon="-59.06099335290491580963134765625">
        <ele>46.40000152587890625</ele>
        <time>2020-02-24T18:14:50.000Z</time>
      </trkpt>
      <trkpt lat="-34.740414060652256011962890625" lon="-59.06079637818038463592529296875">
        <ele>46.59999847412109375</ele>
        <time>2020-02-24T18:14:57.000Z</time>
      </trkpt>
      <trkpt lat="-34.74044255912303924560546875" lon="-59.060762934386730194091796875">
        <ele>46.59999847412109375</ele>
        <time>2020-02-24T18:15:01.000Z</time>
      </trkpt>
      <trkpt lat="-34.74044163711369037628173828125" lon="-59.06076385639607906341552734375">
        <ele>46.59999847412109375</ele>
        <time>2020-02-24T18:15:02.000Z</time>
      </trkpt>
      <trkpt lat="-34.74044096656143665313720703125" lon="-59.06076469458639621734619140625">
        <ele>46.799999237060546875</ele>
        <time>2020-02-24T18:15:03.000Z</time>
      </trkpt>
      <trkpt lat="-34.74046996794641017913818359375" lon="-59.06073401682078838348388671875">
        <ele>46.799999237060546875</ele>
        <time>2020-02-24T18:15:09.000Z</time>
      </trkpt>
      <trkpt lat="-34.74055144004523754119873046875" lon="-59.06062069348990917205810546875">
        <ele>46.799999237060546875</ele>
        <time>2020-02-24T18:15:16.000Z</time>
      </trkpt>
      <trkpt lat="-34.74061396904289722442626953125" lon="-59.06054223887622356414794921875">
        <ele>47</ele>
        <time>2020-02-24T18:15:22.000Z</time>
      </trkpt>
      <trkpt lat="-34.7407049126923084259033203125" lon="-59.060418270528316497802734375">
        <ele>46.799999237060546875</ele>
        <time>2020-02-24T18:15:29.000Z</time>
      </trkpt>
      <trkpt lat="-34.74084028042852878570556640625" lon="-59.0602447651326656341552734375">
        <ele>46.799999237060546875</ele>
        <time>2020-02-24T18:15:37.000Z</time>
      </trkpt>
      <trkpt lat="-34.74099576473236083984375" lon="-59.06005541794002056121826171875">
        <ele>46.799999237060546875</ele>
        <time>2020-02-24T18:15:45.000Z</time>
      </trkpt>
      <trkpt lat="-34.741176478564739227294921875" lon="-59.059831537306308746337890625">
        <ele>46.799999237060546875</ele>
        <time>2020-02-24T18:15:54.000Z</time>
      </trkpt>
      <trkpt lat="-34.741389714181423187255859375" lon="-59.05956809408962726593017578125">
        <ele>46.59999847412109375</ele>
        <time>2020-02-24T18:16:04.000Z</time>
      </trkpt>
      <trkpt lat="-34.74162482656538486480712890625" lon="-59.05927254818379878997802734375">
        <ele>47</ele>
        <time>2020-02-24T18:16:14.000Z</time>
      </trkpt>
      <trkpt lat="-34.7418176941573619842529296875" lon="-59.05902947299182415008544921875">
        <ele>47</ele>
        <time>2020-02-24T18:16:22.000Z</time>
      </trkpt>
      <trkpt lat="-34.74204962141811847686767578125" lon="-59.05873510055243968963623046875">
        <ele>47</ele>
        <time>2020-02-24T18:16:32.000Z</time>
      </trkpt>
      <trkpt lat="-34.74238808266818523406982421875" lon="-59.05831106007099151611328125">
        <ele>47</ele>
        <time>2020-02-24T18:16:46.000Z</time>
      </trkpt>
      <trkpt lat="-34.74257365800440311431884765625" lon="-59.058086089789867401123046875">
        <ele>47.200000762939453125</ele>
        <time>2020-02-24T18:16:54.000Z</time>
      </trkpt>
      <trkpt lat="-34.742811955511569976806640625" lon="-59.05778274871408939361572265625">
        <ele>47</ele>
        <time>2020-02-24T18:17:04.000Z</time>
      </trkpt>
      <trkpt lat="-34.742982275784015655517578125" lon="-59.057637155055999755859375">
        <ele>47.40000152587890625</ele>
        <time>2020-02-24T18:17:11.000Z</time>
      </trkpt>
      <trkpt lat="-34.7430954314768314361572265625" lon="-59.057669341564178466796875">
        <ele>47.59999847412109375</ele>
        <time>2020-02-24T18:17:16.000Z</time>
      </trkpt>
      <trkpt lat="-34.74320598877966403961181640625" lon="-59.0578074753284454345703125">
        <ele>47</ele>
        <time>2020-02-24T18:17:22.000Z</time>
      </trkpt>
      <trkpt lat="-34.7434099204838275909423828125" lon="-59.05806639231741428375244140625">
        <ele>47.40000152587890625</ele>
        <time>2020-02-24T18:17:32.000Z</time>
      </trkpt>
      <trkpt lat="-34.74365911446511745452880859375" lon="-59.05836361460387706756591796875">
        <ele>46.799999237060546875</ele>
        <time>2020-02-24T18:17:44.000Z</time>
      </trkpt>
      <trkpt lat="-34.74384360015392303466796875" lon="-59.0585828013718128204345703125">
        <ele>47.40000152587890625</ele>
        <time>2020-02-24T18:17:53.000Z</time>
      </trkpt>
      <trkpt lat="-34.74404619075357913970947265625" lon="-59.05882679857313632965087890625">
        <ele>47.40000152587890625</ele>
        <time>2020-02-24T18:18:03.000Z</time>
      </trkpt>
      <trkpt lat="-34.74428826011717319488525390625" lon="-59.05911966226994991302490234375">
        <ele>47.40000152587890625</ele>
        <time>2020-02-24T18:18:14.000Z</time>
      </trkpt>
      <trkpt lat="-34.744469560682773590087890625" lon="-59.059337675571441650390625">
        <ele>47.40000152587890625</ele>
        <time>2020-02-24T18:18:23.000Z</time>
      </trkpt>
      <trkpt lat="-34.74467500112950801849365234375" lon="-59.05958510935306549072265625">
        <ele>47.200000762939453125</ele>
        <time>2020-02-24T18:18:33.000Z</time>
      </trkpt>
      <trkpt lat="-34.74496476352214813232421875" lon="-59.05991409905254840850830078125">
        <ele>47.59999847412109375</ele>
        <time>2020-02-24T18:18:46.000Z</time>
      </trkpt>
      <trkpt lat="-34.7452183999121189117431640625" lon="-59.06021702103316783905029296875">
        <ele>47.59999847412109375</ele>
        <time>2020-02-24T18:18:57.000Z</time>
      </trkpt>
      <trkpt lat="-34.74544680677354335784912109375" lon="-59.06049395911395549774169921875">
        <ele>47.40000152587890625</ele>
        <time>2020-02-24T18:19:08.000Z</time>
      </trkpt>
      <trkpt lat="-34.7456522472202777862548828125" lon="-59.0607392974197864532470703125">
        <ele>47.40000152587890625</ele>
        <time>2020-02-24T18:19:18.000Z</time>
      </trkpt>
      <trkpt lat="-34.74584394134581089019775390625" lon="-59.06096803955733776092529296875">
        <ele>47.200000762939453125</ele>
        <time>2020-02-24T18:19:27.000Z</time>
      </trkpt>
      <trkpt lat="-34.74604929797351360321044921875" lon="-59.06121111474931240081787109375">
        <ele>47.200000762939453125</ele>
        <time>2020-02-24T18:19:37.000Z</time>
      </trkpt>
      <trkpt lat="-34.7461937181651592254638671875" lon="-59.06138394959270954132080078125">
        <ele>47.40000152587890625</ele>
        <time>2020-02-24T18:19:44.000Z</time>
      </trkpt>
      <trkpt lat="-34.746404103934764862060546875" lon="-59.0616309642791748046875">
        <ele>47.200000762939453125</ele>
        <time>2020-02-24T18:19:54.000Z</time>
      </trkpt>
      <trkpt lat="-34.74664357490837574005126953125" lon="-59.0619120933115482330322265625">
        <ele>47.40000152587890625</ele>
        <time>2020-02-24T18:20:06.000Z</time>
      </trkpt>
      <trkpt lat="-34.746822528541088104248046875" lon="-59.0621186234056949615478515625">
        <ele>47.40000152587890625</ele>
        <time>2020-02-24T18:20:16.000Z</time>
      </trkpt>
      <trkpt lat="-34.7468676231801509857177734375" lon="-59.06217101030051708221435546875">
        <ele>47.799999237060546875</ele>
        <time>2020-02-24T18:20:21.000Z</time>
      </trkpt>
      <trkpt lat="-34.7468672879040241241455078125" lon="-59.06217000447213649749755859375">
        <ele>48.200000762939453125</ele>
        <time>2020-02-24T18:20:32.000Z</time>
      </trkpt>
      <trkpt lat="-34.74686737172305583953857421875" lon="-59.06216916628181934356689453125">
        <ele>48.200000762939453125</ele>
        <time>2020-02-24T18:20:56.000Z</time>
      </trkpt>
      <trkpt lat="-34.74686753936111927032470703125" lon="-59.062169082462787628173828125">
        <ele>48.200000762939453125</ele>
        <time>2020-02-24T18:21:26.000Z</time>
      </trkpt>
      <trkpt lat="-34.746867455542087554931640625" lon="-59.06216832809150218963623046875">
        <ele>48.200000762939453125</ele>
        <time>2020-02-24T18:21:43.000Z</time>
      </trkpt>
      <trkpt lat="-34.7468669526278972625732421875" lon="-59.0621682442724704742431640625">
        <ele>48.200000762939453125</ele>
        <time>2020-02-24T18:22:15.000Z</time>
      </trkpt>
      <trkpt lat="-34.74686670117080211639404296875" lon="-59.06216748990118503570556640625">
        <ele>48.200000762939453125</ele>
        <time>2020-02-24T18:22:45.000Z</time>
      </trkpt>
      <trkpt lat="-34.74686653353273868560791015625" lon="-59.06216732226312160491943359375">
        <ele>48.200000762939453125</ele>
        <time>2020-02-24T18:22:56.000Z</time>
      </trkpt>
      <trkpt lat="-34.746867120265960693359375" lon="-59.0621672384440898895263671875">
        <ele>48.200000762939453125</ele>
        <time>2020-02-24T18:23:35.000Z</time>
      </trkpt>
      <trkpt lat="-34.74686720408499240875244140625" lon="-59.0621674060821533203125">
        <ele>48.200000762939453125</ele>
        <time>2020-02-24T18:23:57.000Z</time>
      </trkpt>
      <trkpt lat="-34.7468676231801509857177734375" lon="-59.062167741358280181884765625">
        <ele>48.200000762939453125</ele>
        <time>2020-02-24T18:24:36.000Z</time>
      </trkpt>
      <trkpt lat="-34.7468676231801509857177734375" lon="-59.062167741358280181884765625">
        <ele>48.200000762939453125</ele>
        <time>2020-02-24T18:24:50.000Z</time>
      </trkpt>
      <trkpt lat="-34.74686653353273868560791015625" lon="-59.06216849572956562042236328125">
        <ele>48.200000762939453125</ele>
        <time>2020-02-24T18:25:17.000Z</time>
      </trkpt>
      <trkpt lat="-34.746865443885326385498046875" lon="-59.06216799281537532806396484375">
        <ele>48.200000762939453125</ele>
        <time>2020-02-24T18:25:39.000Z</time>
      </trkpt>
      <trkpt lat="-34.74686779081821441650390625" lon="-59.06217209994792938232421875">
        <ele>48.200000762939453125</ele>
        <time>2020-02-24T18:25:50.000Z</time>
      </trkpt>
      <trkpt lat="-34.74686586298048496246337890625" lon="-59.06218073330819606781005859375">
        <ele>48.200000762939453125</ele>
        <time>2020-02-24T18:26:01.000Z</time>
      </trkpt>
      <trkpt lat="-34.7468652762472629547119140625" lon="-59.06218349933624267578125">
        <ele>48.200000762939453125</ele>
        <time>2020-02-24T18:26:17.000Z</time>
      </trkpt>
      <trkpt lat="-34.746862761676311492919921875" lon="-59.0621846728026866912841796875">
        <ele>48.200000762939453125</ele>
        <time>2020-02-24T18:26:44.000Z</time>
      </trkpt>
      <trkpt lat="-34.74686267785727977752685546875" lon="-59.0621846728026866912841796875">
        <ele>48.200000762939453125</ele>
        <time>2020-02-24T18:26:51.000Z</time>
      </trkpt>
      <trkpt lat="-34.74686301313340663909912109375" lon="-59.0621876902878284454345703125">
        <ele>48.200000762939453125</ele>
        <time>2020-02-24T18:27:02.000Z</time>
      </trkpt>
      <trkpt lat="-34.746861420571804046630859375" lon="-59.06218819320201873779296875">
        <ele>48.200000762939453125</ele>
        <time>2020-02-24T18:27:24.000Z</time>
      </trkpt>
      <trkpt lat="-34.7468612529337406158447265625" lon="-59.06218810938298702239990234375">
        <ele>48.200000762939453125</ele>
        <time>2020-02-24T18:27:57.000Z</time>
      </trkpt>
      <trkpt lat="-34.746860750019550323486328125" lon="-59.0621883608400821685791015625">
        <ele>48.200000762939453125</ele>
        <time>2020-02-24T18:28:47.000Z</time>
      </trkpt>
      <trkpt lat="-34.7468615882098674774169921875" lon="-59.06218911521136760711669921875">
        <ele>48.200000762939453125</ele>
        <time>2020-02-24T18:29:10.000Z</time>
      </trkpt>
      <trkpt lat="-34.746882878243923187255859375" lon="-59.06216028146445751190185546875">
        <ele>48.200000762939453125</ele>
        <time>2020-02-24T19:58:53.000Z</time>
      </trkpt>
      <trkpt lat="-34.74687877111136913299560546875" lon="-59.06216179020702838897705078125">
        <ele>49.200000762939453125</ele>
        <time>2020-02-24T19:58:56.000Z</time>
      </trkpt>
      <trkpt lat="-34.74687793292105197906494140625" lon="-59.062160365283489227294921875">
        <ele>51.59999847412109375</ele>
        <time>2020-02-24T19:58:57.000Z</time>
      </trkpt>
      <trkpt lat="-34.74688128568232059478759765625" lon="-59.06216271221637725830078125">
        <ele>53.799999237060546875</ele>
        <time>2020-02-24T19:58:58.000Z</time>
      </trkpt>
      <trkpt lat="-34.74688061513006687164306640625" lon="-59.06216279603540897369384765625">
        <ele>55</ele>
        <time>2020-02-24T19:58:59.000Z</time>
      </trkpt>
      <trkpt lat="-34.746889583766460418701171875" lon="-59.0621695853769779205322265625">
        <ele>56.200000762939453125</ele>
        <time>2020-02-24T19:59:02.000Z</time>
      </trkpt>
      <trkpt lat="-34.74689151160418987274169921875" lon="-59.0621699206531047821044921875">
        <ele>56.40000152587890625</ele>
        <time>2020-02-24T19:59:08.000Z</time>
      </trkpt>
      <trkpt lat="-34.7468912601470947265625" lon="-59.0621553361415863037109375">
        <ele>56.59999847412109375</ele>
        <time>2020-02-24T19:59:14.000Z</time>
      </trkpt>
      <trkpt lat="-34.74691028706729412078857421875" lon="-59.06216799281537532806396484375">
        <ele>56.40000152587890625</ele>
        <time>2020-02-24T19:59:21.000Z</time>
      </trkpt>
      <trkpt lat="-34.74689905531704425811767578125" lon="-59.06216028146445751190185546875">
        <ele>56.40000152587890625</ele>
        <time>2020-02-24T19:59:28.000Z</time>
      </trkpt>
      <trkpt lat="-34.74688949994742870330810546875" lon="-59.06214837916195392608642578125">
        <ele>56.59999847412109375</ele>
        <time>2020-02-24T19:59:30.000Z</time>
      </trkpt>
      <trkpt lat="-34.7468910925090312957763671875" lon="-59.0621494688093662261962890625">
        <ele>56.59999847412109375</ele>
        <time>2020-02-24T19:59:37.000Z</time>
      </trkpt>
      <trkpt lat="-34.7468890808522701263427734375" lon="-59.0621551685035228729248046875">
        <ele>56.40000152587890625</ele>
        <time>2020-02-24T19:59:50.000Z</time>
      </trkpt>
      <trkpt lat="-34.74688564427196979522705078125" lon="-59.06215474940836429595947265625">
        <ele>56.59999847412109375</ele>
        <time>2020-02-24T20:00:02.000Z</time>
      </trkpt>
      <trkpt lat="-34.74690609611570835113525390625" lon="-59.062174446880817413330078125">
        <ele>56.59999847412109375</ele>
        <time>2020-02-24T20:00:05.000Z</time>
      </trkpt>
      <trkpt lat="-34.74693761207163333892822265625" lon="-59.06221501529216766357421875">
        <ele>56.59999847412109375</ele>
        <time>2020-02-24T20:00:09.000Z</time>
      </trkpt>
      <trkpt lat="-34.74703484214842319488525390625" lon="-59.062337391078472137451171875">
        <ele>56.40000152587890625</ele>
        <time>2020-02-24T20:00:18.000Z</time>
      </trkpt>
      <trkpt lat="-34.74715746939182281494140625" lon="-59.06249069608747959136962890625">
        <ele>56.59999847412109375</ele>
        <time>2020-02-24T20:00:29.000Z</time>
      </trkpt>
      <trkpt lat="-34.747155793011188507080078125" lon="-59.06249463558197021484375">
        <ele>56.40000152587890625</ele>
        <time>2020-02-24T20:00:41.000Z</time>
      </trkpt>
      <trkpt lat="-34.747155793011188507080078125" lon="-59.0624944679439067840576171875">
        <ele>56.40000152587890625</ele>
        <time>2020-02-24T20:00:43.000Z</time>
      </trkpt>
      <trkpt lat="-34.74715470336377620697021484375" lon="-59.0624954737722873687744140625">
        <ele>55.40000152587890625</ele>
        <time>2020-02-24T20:01:16.000Z</time>
      </trkpt>
      <trkpt lat="-34.7471542842686176300048828125" lon="-59.062494970858097076416015625">
        <ele>55.799999237060546875</ele>
        <time>2020-02-24T20:01:30.000Z</time>
      </trkpt>
      <trkpt lat="-34.7471532784402370452880859375" lon="-59.06249505467712879180908203125">
        <ele>55.59999847412109375</ele>
        <time>2020-02-24T20:02:02.000Z</time>
      </trkpt>
      <trkpt lat="-34.74715319462120532989501953125" lon="-59.062494970858097076416015625">
        <ele>55.40000152587890625</ele>
        <time>2020-02-24T20:02:25.000Z</time>
      </trkpt>
      <trkpt lat="-34.74715319462120532989501953125" lon="-59.062494970858097076416015625">
        <ele>55.40000152587890625</ele>
        <time>2020-02-24T20:02:26.000Z</time>
      </trkpt>
      <trkpt lat="-34.74718437530100345611572265625" lon="-59.06253143213689327239990234375">
        <ele>55.200000762939453125</ele>
        <time>2020-02-24T20:02:30.000Z</time>
      </trkpt>
      <trkpt lat="-34.74722125567495822906494140625" lon="-59.06257015652954578399658203125">
        <ele>55.200000762939453125</ele>
        <time>2020-02-24T20:02:33.000Z</time>
      </trkpt>
      <trkpt lat="-34.7472815215587615966796875" lon="-59.06264391727745532989501953125">
        <ele>55.200000762939453125</ele>
        <time>2020-02-24T20:02:37.000Z</time>
      </trkpt>
      <trkpt lat="-34.74747656844556331634521484375" lon="-59.0628776885569095611572265625">
        <ele>55.59999847412109375</ele>
        <time>2020-02-24T20:02:48.000Z</time>
      </trkpt>
      <trkpt lat="-34.74762408994138240814208984375" lon="-59.06305027194321155548095703125">
        <ele>55.59999847412109375</ele>
        <time>2020-02-24T20:02:56.000Z</time>
      </trkpt>
      <trkpt lat="-34.74776230752468109130859375" lon="-59.06321472488343715667724609375">
        <ele>55</ele>
        <time>2020-02-24T20:03:04.000Z</time>
      </trkpt>
      <trkpt lat="-34.7479643113911151885986328125" lon="-59.06344656832516193389892578125">
        <ele>55.59999847412109375</ele>
        <time>2020-02-24T20:03:14.000Z</time>
      </trkpt>
      <trkpt lat="-34.74822406657040119171142578125" lon="-59.0637420304119586944580078125">
        <ele>55.59999847412109375</ele>
        <time>2020-02-24T20:03:27.000Z</time>
      </trkpt>
      <trkpt lat="-34.74833269603550434112548828125" lon="-59.06386918388307094573974609375">
        <ele>55.59999847412109375</ele>
        <time>2020-02-24T20:03:33.000Z</time>
      </trkpt>
      <trkpt lat="-34.7485339455306529998779296875" lon="-59.06410287134349346160888671875">
        <ele>55.799999237060546875</ele>
        <time>2020-02-24T20:03:44.000Z</time>
      </trkpt>
      <trkpt lat="-34.7487683035433292388916015625" lon="-59.06438089907169342041015625">
        <ele>56.200000762939453125</ele>
        <time>2020-02-24T20:03:56.000Z</time>
      </trkpt>
      <trkpt lat="-34.74898732267320156097412109375" lon="-59.06463864259421825408935546875">
        <ele>56</ele>
        <time>2020-02-24T20:04:07.000Z</time>
      </trkpt>
      <trkpt lat="-34.74913836456835269927978515625" lon="-59.06482371501624584197998046875">
        <ele>55.799999237060546875</ele>
        <time>2020-02-24T20:04:15.000Z</time>
      </trkpt>
      <trkpt lat="-34.7492395341396331787109375" lon="-59.064943492412567138671875">
        <ele>56</ele>
        <time>2020-02-24T20:04:21.000Z</time>
      </trkpt>
      <trkpt lat="-34.74941446445882320404052734375" lon="-59.0651498548686504364013671875">
        <ele>56</ele>
        <time>2020-02-24T20:04:30.000Z</time>
      </trkpt>
      <trkpt lat="-34.74961227737367153167724609375" lon="-59.06537658534944057464599609375">
        <ele>56.200000762939453125</ele>
        <time>2020-02-24T20:04:40.000Z</time>
      </trkpt>
      <trkpt lat="-34.74980321712791919708251953125" lon="-59.06558596529066562652587890625">
        <ele>56.200000762939453125</ele>
        <time>2020-02-24T20:04:49.000Z</time>
      </trkpt>
      <trkpt lat="-34.749842025339603424072265625" lon="-59.06563483178615570068359375">
        <ele>56.200000762939453125</ele>
        <time>2020-02-24T20:04:51.000Z</time>
      </trkpt>
      <trkpt lat="-34.7500312887132167816162109375" lon="-59.065837673842906951904296875">
        <ele>56</ele>
        <time>2020-02-24T20:05:00.000Z</time>
      </trkpt>
      <trkpt lat="-34.75022030062973499298095703125" lon="-59.06597924418747425079345703125">
        <ele>56</ele>
        <time>2020-02-24T20:05:08.000Z</time>
      </trkpt>
      <trkpt lat="-34.7504658065736293792724609375" lon="-59.06603707931935787200927734375">
        <ele>56</ele>
        <time>2020-02-24T20:05:17.000Z</time>
      </trkpt>
      <trkpt lat="-34.75073025561869144439697265625" lon="-59.06606021337211132049560546875">
        <ele>56</ele>
        <time>2020-02-24T20:05:26.000Z</time>
      </trkpt>
      <trkpt lat="-34.75098573602735996246337890625" lon="-59.0660795755684375762939453125">
        <ele>56</ele>
        <time>2020-02-24T20:05:35.000Z</time>
      </trkpt>
      <trkpt lat="-34.7513643465936183929443359375" lon="-59.0661114268004894256591796875">
        <ele>56.200000762939453125</ele>
        <time>2020-02-24T20:05:48.000Z</time>
      </trkpt>
      <trkpt lat="-34.75178738124668598175048828125" lon="-59.0661543421447277069091796875">
        <ele>56.200000762939453125</ele>
        <time>2020-02-24T20:06:02.000Z</time>
      </trkpt>
      <trkpt lat="-34.7520892135798931121826171875" lon="-59.06618476845324039459228515625">
        <ele>56.200000762939453125</ele>
        <time>2020-02-24T20:06:12.000Z</time>
      </trkpt>
      <trkpt lat="-34.75217730738222599029541015625" lon="-59.066191725432872772216796875">
        <ele>56.200000762939453125</ele>
        <time>2020-02-24T20:06:15.000Z</time>
      </trkpt>
      <trkpt lat="-34.75243069231510162353515625" lon="-59.0662163682281970977783203125">
        <ele>56.40000152587890625</ele>
        <time>2020-02-24T20:06:24.000Z</time>
      </trkpt>
      <trkpt lat="-34.7526833228766918182373046875" lon="-59.0662485547363758087158203125">
        <ele>56.59999847412109375</ele>
        <time>2020-02-24T20:06:33.000Z</time>
      </trkpt>
      <trkpt lat="-34.75297358818352222442626953125" lon="-59.06627856194972991943359375">
        <ele>56.40000152587890625</ele>
        <time>2020-02-24T20:06:43.000Z</time>
      </trkpt>
      <trkpt lat="-34.75327768363058567047119140625" lon="-59.0663085691630840301513671875">
        <ele>56.59999847412109375</ele>
        <time>2020-02-24T20:06:53.000Z</time>
      </trkpt>
      <trkpt lat="-34.753526709973812103271484375" lon="-59.06633161939680576324462890625">
        <ele>56.200000762939453125</ele>
        <time>2020-02-24T20:07:01.000Z</time>
      </trkpt>
      <trkpt lat="-34.7538282908499240875244140625" lon="-59.0663642250001430511474609375">
        <ele>56.40000152587890625</ele>
        <time>2020-02-24T20:07:11.000Z</time>
      </trkpt>
      <trkpt lat="-34.754098691046237945556640625" lon="-59.0663870237767696380615234375">
        <ele>56.59999847412109375</ele>
        <time>2020-02-24T20:07:20.000Z</time>
      </trkpt>
      <trkpt lat="-34.75442399270832538604736328125" lon="-59.06641929410398006439208984375">
        <ele>56.59999847412109375</ele>
        <time>2020-02-24T20:07:31.000Z</time>
      </trkpt>
      <trkpt lat="-34.7547975741326808929443359375" lon="-59.066456258296966552734375">
        <ele>56.59999847412109375</ele>
        <time>2020-02-24T20:07:44.000Z</time>
      </trkpt>
      <trkpt lat="-34.7551194392144680023193359375" lon="-59.066485427320003509521484375">
        <ele>56.40000152587890625</ele>
        <time>2020-02-24T20:07:55.000Z</time>
      </trkpt>
      <trkpt lat="-34.75544842891395092010498046875" lon="-59.06651518307626247406005859375">
        <ele>56.40000152587890625</ele>
        <time>2020-02-24T20:08:06.000Z</time>
      </trkpt>
      <trkpt lat="-34.755726121366024017333984375" lon="-59.0665447711944580078125">
        <ele>56.59999847412109375</ele>
        <time>2020-02-24T20:08:16.000Z</time>
      </trkpt>
      <trkpt lat="-34.7560588829219341278076171875" lon="-59.0665824897587299346923828125">
        <ele>56.200000762939453125</ele>
        <time>2020-02-24T20:08:28.000Z</time>
      </trkpt>
      <trkpt lat="-34.75630053319036960601806640625" lon="-59.06659640371799468994140625">
        <ele>56.40000152587890625</ele>
        <time>2020-02-24T20:08:37.000Z</time>
      </trkpt>
      <trkpt lat="-34.756481163203716278076171875" lon="-59.066612161695957183837890625">
        <ele>56.40000152587890625</ele>
        <time>2020-02-24T20:08:44.000Z</time>
      </trkpt>
      <trkpt lat="-34.7565899603068828582763671875" lon="-59.06662213616073131561279296875">
        <ele>56.40000152587890625</ele>
        <time>2020-02-24T20:08:48.000Z</time>
      </trkpt>
      <trkpt lat="-34.75681048817932605743408203125" lon="-59.06664929352700710296630859375">
        <ele>56.40000152587890625</ele>
        <time>2020-02-24T20:08:56.000Z</time>
      </trkpt>
      <trkpt lat="-34.7571118175983428955078125" lon="-59.06668265350162982940673828125">
        <ele>56.59999847412109375</ele>
        <time>2020-02-24T20:09:07.000Z</time>
      </trkpt>
      <trkpt lat="-34.75738615728914737701416015625" lon="-59.0667098946869373321533203125">
        <ele>56.59999847412109375</ele>
        <time>2020-02-24T20:09:17.000Z</time>
      </trkpt>
      <trkpt lat="-34.757573492825031280517578125" lon="-59.06672917306423187255859375">
        <ele>56.59999847412109375</ele>
        <time>2020-02-24T20:09:24.000Z</time>
      </trkpt>
      <trkpt lat="-34.75779242813587188720703125" lon="-59.0667511336505413055419921875">
        <ele>56.40000152587890625</ele>
        <time>2020-02-24T20:09:33.000Z</time>
      </trkpt>
      <trkpt lat="-34.75801496766507625579833984375" lon="-59.06677049584686756134033203125">
        <ele>56.799999237060546875</ele>
        <time>2020-02-24T20:09:43.000Z</time>
      </trkpt>
      <trkpt lat="-34.7582209110260009765625" lon="-59.0667906962335109710693359375">
        <ele>56.799999237060546875</ele>
        <time>2020-02-24T20:09:52.000Z</time>
      </trkpt>
      <trkpt lat="-34.75849516689777374267578125" lon="-59.06681391410529613494873046875">
        <ele>57</ele>
        <time>2020-02-24T20:10:03.000Z</time>
      </trkpt>
      <trkpt lat="-34.7587749548256397247314453125" lon="-59.0668456815183162689208984375">
        <ele>56.40000152587890625</ele>
        <time>2020-02-24T20:10:14.000Z</time>
      </trkpt>
      <trkpt lat="-34.75898022763431072235107421875" lon="-59.0668728388845920562744140625">
        <ele>56.40000152587890625</ele>
        <time>2020-02-24T20:10:22.000Z</time>
      </trkpt>
      <trkpt lat="-34.75928616710007190704345703125" lon="-59.066903181374073028564453125">
        <ele>56.40000152587890625</ele>
        <time>2020-02-24T20:10:34.000Z</time>
      </trkpt>
      <trkpt lat="-34.7594855725765228271484375" lon="-59.06692556105554103851318359375">
        <ele>56.59999847412109375</ele>
        <time>2020-02-24T20:10:42.000Z</time>
      </trkpt>
      <trkpt lat="-34.7597532905638217926025390625" lon="-59.06695850193500518798828125">
        <ele>56.799999237060546875</ele>
        <time>2020-02-24T20:10:53.000Z</time>
      </trkpt>
      <trkpt lat="-34.760031737387180328369140625" lon="-59.06698339618742465972900390625">
        <ele>56.59999847412109375</ele>
        <time>2020-02-24T20:11:04.000Z</time>
      </trkpt>
      <trkpt lat="-34.76026115007698535919189453125" lon="-59.06700141727924346923828125">
        <ele>56.40000152587890625</ele>
        <time>2020-02-24T20:11:13.000Z</time>
      </trkpt>
      <trkpt lat="-34.7605247609317302703857421875" lon="-59.06701625324785709381103515625">
        <ele>56.40000152587890625</ele>
        <time>2020-02-24T20:11:23.000Z</time>
      </trkpt>
      <trkpt lat="-34.76079910062253475189208984375" lon="-59.067042656242847442626953125">
        <ele>56.200000762939453125</ele>
        <time>2020-02-24T20:11:33.000Z</time>
      </trkpt>
      <trkpt lat="-34.761014766991138458251953125" lon="-59.06706042587757110595703125">
        <ele>56.200000762939453125</ele>
        <time>2020-02-24T20:11:41.000Z</time>
      </trkpt>
      <trkpt lat="-34.7612368874251842498779296875" lon="-59.0670870803296566009521484375">
        <ele>56.40000152587890625</ele>
        <time>2020-02-24T20:11:49.000Z</time>
      </trkpt>
      <trkpt lat="-34.76153000257909297943115234375" lon="-59.0671162493526935577392578125">
        <ele>56.200000762939453125</ele>
        <time>2020-02-24T20:11:58.000Z</time>
      </trkpt>
      <trkpt lat="-34.76192277856171131134033203125" lon="-59.06715505756437778472900390625">
        <ele>55.40000152587890625</ele>
        <time>2020-02-24T20:12:08.000Z</time>
      </trkpt>
      <trkpt lat="-34.7622697055339813232421875" lon="-59.0671883337199687957763671875">
        <ele>55.40000152587890625</ele>
        <time>2020-02-24T20:12:17.000Z</time>
      </trkpt>
      <trkpt lat="-34.76260565221309661865234375" lon="-59.06722194515168666839599609375">
        <ele>55.799999237060546875</ele>
        <time>2020-02-24T20:12:26.000Z</time>
      </trkpt>
      <trkpt lat="-34.7629940696060657501220703125" lon="-59.0672654472291469573974609375">
        <ele>55.799999237060546875</ele>
        <time>2020-02-24T20:12:37.000Z</time>
      </trkpt>
      <trkpt lat="-34.763174951076507568359375" lon="-59.06728078611195087432861328125">
        <ele>55.200000762939453125</ele>
        <time>2020-02-24T20:12:42.000Z</time>
      </trkpt>
      <trkpt lat="-34.76338391192257404327392578125" lon="-59.0673060156404972076416015625">
        <ele>55.59999847412109375</ele>
        <time>2020-02-24T20:12:48.000Z</time>
      </trkpt>
      <trkpt lat="-34.76376227103173732757568359375" lon="-59.0673405490815639495849609375">
        <ele>55.799999237060546875</ele>
        <time>2020-02-24T20:12:59.000Z</time>
      </trkpt>
      <trkpt lat="-34.76415756158530712127685546875" lon="-59.0673774294555187225341796875">
        <ele>55.40000152587890625</ele>
        <time>2020-02-24T20:13:11.000Z</time>
      </trkpt>
      <trkpt lat="-34.76444556377828121185302734375" lon="-59.0674082748591899871826171875">
        <ele>55.799999237060546875</ele>
        <time>2020-02-24T20:13:20.000Z</time>
      </trkpt>
      <trkpt lat="-34.76470305584371089935302734375" lon="-59.06742964871227741241455078125">
        <ele>55.40000152587890625</ele>
        <time>2020-02-24T20:13:27.000Z</time>
      </trkpt>
      <trkpt lat="-34.7649510763585567474365234375" lon="-59.06745127402245998382568359375">
        <ele>55.200000762939453125</ele>
        <time>2020-02-24T20:13:35.000Z</time>
      </trkpt>
      <trkpt lat="-34.765199683606624603271484375" lon="-59.06747222878038883209228515625">
        <ele>55.59999847412109375</ele>
        <time>2020-02-24T20:13:44.000Z</time>
      </trkpt>
      <trkpt lat="-34.76537042297422885894775390625" lon="-59.06748647801578044891357421875">
        <ele>55.40000152587890625</ele>
        <time>2020-02-24T20:13:51.000Z</time>
      </trkpt>
      <trkpt lat="-34.76568055339157581329345703125" lon="-59.067511372268199920654296875">
        <ele>55.799999237060546875</ele>
        <time>2020-02-24T20:14:01.000Z</time>
      </trkpt>
      <trkpt lat="-34.76594123058021068572998046875" lon="-59.06753224320709705352783203125">
        <ele>56</ele>
        <time>2020-02-24T20:14:10.000Z</time>
      </trkpt>
      <trkpt lat="-34.7662536241114139556884765625" lon="-59.0675665251910686492919921875">
        <ele>55.799999237060546875</ele>
        <time>2020-02-24T20:14:21.000Z</time>
      </trkpt>
      <trkpt lat="-34.76644313894212245941162109375" lon="-59.06758924014866352081298828125">
        <ele>55.59999847412109375</ele>
        <time>2020-02-24T20:14:27.000Z</time>
      </trkpt>
      <trkpt lat="-34.76670566014945507049560546875" lon="-59.0676094405353069305419921875">
        <ele>55.799999237060546875</ele>
        <time>2020-02-24T20:14:36.000Z</time>
      </trkpt>
      <trkpt lat="-34.76703003980219364166259765625" lon="-59.06763148494064807891845703125">
        <ele>56</ele>
        <time>2020-02-24T20:14:45.000Z</time>
      </trkpt>
      <trkpt lat="-34.76742021739482879638671875" lon="-59.06764875166118144989013671875">
        <ele>56</ele>
        <time>2020-02-24T20:14:56.000Z</time>
      </trkpt>
      <trkpt lat="-34.76749372668564319610595703125" lon="-59.067652523517608642578125">
        <ele>56.200000762939453125</ele>
        <time>2020-02-24T20:14:58.000Z</time>
      </trkpt>
      <trkpt lat="-34.767690114676952362060546875" lon="-59.06765696592628955841064453125">
        <ele>56.200000762939453125</ele>
        <time>2020-02-24T20:15:04.000Z</time>
      </trkpt>
      <trkpt lat="-34.768018685281276702880859375" lon="-59.06768001616001129150390625">
        <ele>56.200000762939453125</ele>
        <time>2020-02-24T20:15:14.000Z</time>
      </trkpt>
      <trkpt lat="-34.768337868154048919677734375" lon="-59.06771865673363208770751953125">
        <ele>55.799999237060546875</ele>
        <time>2020-02-24T20:15:24.000Z</time>
      </trkpt>
      <trkpt lat="-34.76855554617941379547119140625" lon="-59.0677472390234470367431640625">
        <ele>56</ele>
        <time>2020-02-24T20:15:31.000Z</time>
      </trkpt>
      <trkpt lat="-34.7687635011970996856689453125" lon="-59.0677700378000736236572265625">
        <ele>56.200000762939453125</ele>
        <time>2020-02-24T20:15:38.000Z</time>
      </trkpt>
      <trkpt lat="-34.76884807460010051727294921875" lon="-59.06778051517903804779052734375">
        <ele>56.40000152587890625</ele>
        <time>2020-02-24T20:15:41.000Z</time>
      </trkpt>
      <trkpt lat="-34.76897832937538623809814453125" lon="-59.067797698080539703369140625">
        <ele>56.200000762939453125</ele>
        <time>2020-02-24T20:15:46.000Z</time>
      </trkpt>
      <trkpt lat="-34.76919592358171939849853515625" lon="-59.0678334049880504608154296875">
        <ele>56.59999847412109375</ele>
        <time>2020-02-24T20:15:55.000Z</time>
      </trkpt>
      <trkpt lat="-34.7694038785994052886962890625" lon="-59.0678528510034084320068359375">
        <ele>56.40000152587890625</ele>
        <time>2020-02-24T20:16:03.000Z</time>
      </trkpt>
      <trkpt lat="-34.76959339343011379241943359375" lon="-59.06785746105015277862548828125">
        <ele>56.799999237060546875</ele>
        <time>2020-02-24T20:16:10.000Z</time>
      </trkpt>
      <trkpt lat="-34.76978056132793426513671875" lon="-59.06787858344614505767822265625">
        <ele>56.799999237060546875</ele>
        <time>2020-02-24T20:16:17.000Z</time>
      </trkpt>
      <trkpt lat="-34.7700479440391063690185546875" lon="-59.06790607608854770660400390625">
        <ele>57</ele>
        <time>2020-02-24T20:16:27.000Z</time>
      </trkpt>
      <trkpt lat="-34.7701310925185680389404296875" lon="-59.06791546382009983062744140625">
        <ele>57.200000762939453125</ele>
        <time>2020-02-24T20:16:30.000Z</time>
      </trkpt>
      <trkpt lat="-34.77024500258266925811767578125" lon="-59.06793172471225261688232421875">
        <ele>57.40000152587890625</ele>
        <time>2020-02-24T20:16:34.000Z</time>
      </trkpt>
      <trkpt lat="-34.7703352756798267364501953125" lon="-59.0679416991770267486572265625">
        <ele>57.40000152587890625</ele>
        <time>2020-02-24T20:16:37.000Z</time>
      </trkpt>
      <trkpt lat="-34.77054205723106861114501953125" lon="-59.0679732151329517364501953125">
        <ele>57.59999847412109375</ele>
        <time>2020-02-24T20:16:44.000Z</time>
      </trkpt>
      <trkpt lat="-34.77077390067279338836669921875" lon="-59.06800590455532073974609375">
        <ele>57.40000152587890625</ele>
        <time>2020-02-24T20:16:51.000Z</time>
      </trkpt>
      <trkpt lat="-34.77101647295057773590087890625" lon="-59.06803733669221401214599609375">
        <ele>57.40000152587890625</ele>
        <time>2020-02-24T20:16:59.000Z</time>
      </trkpt>
      <trkpt lat="-34.77123389951884746551513671875" lon="-59.068067930638790130615234375">
        <ele>57.200000762939453125</ele>
        <time>2020-02-24T20:17:07.000Z</time>
      </trkpt>
      <trkpt lat="-34.77146624587476253509521484375" lon="-59.0681049786508083343505859375">
        <ele>57</ele>
        <time>2020-02-24T20:17:15.000Z</time>
      </trkpt>
      <trkpt lat="-34.771676547825336456298828125" lon="-59.06813892535865306854248046875">
        <ele>57</ele>
        <time>2020-02-24T20:17:23.000Z</time>
      </trkpt>
      <trkpt lat="-34.77189841680228710174560546875" lon="-59.0681666694581508636474609375">
        <ele>56.59999847412109375</ele>
        <time>2020-02-24T20:17:31.000Z</time>
      </trkpt>
      <trkpt lat="-34.77212774567306041717529296875" lon="-59.06819407828152179718017578125">
        <ele>56.59999847412109375</ele>
        <time>2020-02-24T20:17:39.000Z</time>
      </trkpt>
      <trkpt lat="-34.77241314947605133056640625" lon="-59.068229198455810546875">
        <ele>56.59999847412109375</ele>
        <time>2020-02-24T20:17:48.000Z</time>
      </trkpt>
      <trkpt lat="-34.772608615458011627197265625" lon="-59.0682531706988811492919921875">
        <ele>56.200000762939453125</ele>
        <time>2020-02-24T20:17:54.000Z</time>
      </trkpt>
      <trkpt lat="-34.772664606571197509765625" lon="-59.06825937330722808837890625">
        <ele>56.200000762939453125</ele>
        <time>2020-02-24T20:17:56.000Z</time>
      </trkpt>
      <trkpt lat="-34.77290038950741291046142578125" lon="-59.0682836808264255523681640625">
        <ele>56.200000762939453125</ele>
        <time>2020-02-24T20:18:05.000Z</time>
      </trkpt>
      <trkpt lat="-34.7731116972863674163818359375" lon="-59.06830136664211750030517578125">
        <ele>56.200000762939453125</ele>
        <time>2020-02-24T20:18:13.000Z</time>
      </trkpt>
      <trkpt lat="-34.773328118026256561279296875" lon="-59.068319387733936309814453125">
        <ele>56.200000762939453125</ele>
        <time>2020-02-24T20:18:21.000Z</time>
      </trkpt>
      <trkpt lat="-34.77357446216046810150146484375" lon="-59.0683405101299285888671875">
        <ele>56.40000152587890625</ele>
        <time>2020-02-24T20:18:30.000Z</time>
      </trkpt>
      <trkpt lat="-34.77382323704659938812255859375" lon="-59.0683594532310962677001953125">
        <ele>56.200000762939453125</ele>
        <time>2020-02-24T20:18:39.000Z</time>
      </trkpt>
      <trkpt lat="-34.774068407714366912841796875" lon="-59.0683852694928646087646484375">
        <ele>56.200000762939453125</ele>
        <time>2020-02-24T20:18:48.000Z</time>
      </trkpt>
      <trkpt lat="-34.7743022628128528594970703125" lon="-59.06840664334595203399658203125">
        <ele>56.200000762939453125</ele>
        <time>2020-02-24T20:18:56.000Z</time>
      </trkpt>
      <trkpt lat="-34.77460895664989948272705078125" lon="-59.06844117678701877593994140625">
        <ele>56.40000152587890625</ele>
        <time>2020-02-24T20:19:06.000Z</time>
      </trkpt>
      <trkpt lat="-34.77486359886825084686279296875" lon="-59.0684694238007068634033203125">
        <ele>56.200000762939453125</ele>
        <time>2020-02-24T20:19:14.000Z</time>
      </trkpt>
      <trkpt lat="-34.77515780366957187652587890625" lon="-59.0684992633759975433349609375">
        <ele>56</ele>
        <time>2020-02-24T20:19:23.000Z</time>
      </trkpt>
      <trkpt lat="-34.77552761323750019073486328125" lon="-59.06854460947215557098388671875">
        <ele>56</ele>
        <time>2020-02-24T20:19:34.000Z</time>
      </trkpt>
      <trkpt lat="-34.775856770575046539306640625" lon="-59.068585596978664398193359375">
        <ele>55.799999237060546875</ele>
        <time>2020-02-24T20:19:44.000Z</time>
      </trkpt>
      <trkpt lat="-34.77619246579706668853759765625" lon="-59.0686202980577945709228515625">
        <ele>55.59999847412109375</ele>
        <time>2020-02-24T20:19:54.000Z</time>
      </trkpt>
      <trkpt lat="-34.77654031477868556976318359375" lon="-59.06867553479969501495361328125">
        <ele>55.59999847412109375</ele>
        <time>2020-02-24T20:20:04.000Z</time>
      </trkpt>
      <trkpt lat="-34.77692638523876667022705078125" lon="-59.0686970762908458709716796875">
        <ele>55.799999237060546875</ele>
        <time>2020-02-24T20:20:15.000Z</time>
      </trkpt>
      <trkpt lat="-34.777314551174640655517578125" lon="-59.06873772852122783660888671875">
        <ele>55.59999847412109375</ele>
        <time>2020-02-24T20:20:26.000Z</time>
      </trkpt>
      <trkpt lat="-34.777556620538234710693359375" lon="-59.0687641315162181854248046875">
        <ele>55.59999847412109375</ele>
        <time>2020-02-24T20:20:34.000Z</time>
      </trkpt>
      <trkpt lat="-34.77789600379765033721923828125" lon="-59.06879874877631664276123046875">
        <ele>55.799999237060546875</ele>
        <time>2020-02-24T20:20:44.000Z</time>
      </trkpt>
      <trkpt lat="-34.778158776462078094482421875" lon="-59.0688313543796539306640625">
        <ele>56</ele>
        <time>2020-02-24T20:20:52.000Z</time>
      </trkpt>
      <trkpt lat="-34.778429679572582244873046875" lon="-59.068866558372974395751953125">
        <ele>55.59999847412109375</ele>
        <time>2020-02-24T20:21:00.000Z</time>
      </trkpt>
      <trkpt lat="-34.7787440009415149688720703125" lon="-59.06890369020402431488037109375">
        <ele>55.59999847412109375</ele>
        <time>2020-02-24T20:21:09.000Z</time>
      </trkpt>
      <trkpt lat="-34.77901943027973175048828125" lon="-59.06892883591353893280029296875">
        <ele>55.799999237060546875</ele>
        <time>2020-02-24T20:21:17.000Z</time>
      </trkpt>
      <trkpt lat="-34.7794735617935657501220703125" lon="-59.0689673088490962982177734375">
        <ele>55.59999847412109375</ele>
        <time>2020-02-24T20:21:30.000Z</time>
      </trkpt>
      <trkpt lat="-34.77971135638654232025146484375" lon="-59.068998657166957855224609375">
        <ele>56</ele>
        <time>2020-02-24T20:21:38.000Z</time>
      </trkpt>
      <trkpt lat="-34.77991956286132335662841796875" lon="-59.06902438960969448089599609375">
        <ele>55.799999237060546875</ele>
        <time>2020-02-24T20:21:45.000Z</time>
      </trkpt>
      <trkpt lat="-34.7802715189754962921142578125" lon="-59.06906177289783954620361328125">
        <ele>55.200000762939453125</ele>
        <time>2020-02-24T20:21:55.000Z</time>
      </trkpt>
      <trkpt lat="-34.78057703934609889984130859375" lon="-59.0690937079489231109619140625">
        <ele>55.40000152587890625</ele>
        <time>2020-02-24T20:22:04.000Z</time>
      </trkpt>
      <trkpt lat="-34.7809001617133617401123046875" lon="-59.06912514008581638336181640625">
        <ele>55.59999847412109375</ele>
        <time>2020-02-24T20:22:14.000Z</time>
      </trkpt>
      <trkpt lat="-34.78119713254272937774658203125" lon="-59.0691580809652805328369140625">
        <ele>55.40000152587890625</ele>
        <time>2020-02-24T20:22:23.000Z</time>
      </trkpt>
      <trkpt lat="-34.78155906312167644500732421875" lon="-59.06919403932988643646240234375">
        <ele>55.40000152587890625</ele>
        <time>2020-02-24T20:22:34.000Z</time>
      </trkpt>
      <trkpt lat="-34.7818942554295063018798828125" lon="-59.0692341886460781097412109375">
        <ele>55.40000152587890625</ele>
        <time>2020-02-24T20:22:44.000Z</time>
      </trkpt>
      <trkpt lat="-34.78217094205319881439208984375" lon="-59.0692633576691150665283203125">
        <ele>55.40000152587890625</ele>
        <time>2020-02-24T20:22:53.000Z</time>
      </trkpt>
      <trkpt lat="-34.7824840061366558074951171875" lon="-59.069293700158596038818359375">
        <ele>55.40000152587890625</ele>
        <time>2020-02-24T20:23:02.000Z</time>
      </trkpt>
      <trkpt lat="-34.7828313522040843963623046875" lon="-59.069327898323535919189453125">
        <ele>55.40000152587890625</ele>
        <time>2020-02-24T20:23:12.000Z</time>
      </trkpt>
      <trkpt lat="-34.78300787508487701416015625" lon="-59.0693347714841365814208984375">
        <ele>55.200000762939453125</ele>
        <time>2020-02-24T20:23:19.000Z</time>
      </trkpt>
      <trkpt lat="-34.78320426307618618011474609375" lon="-59.069360084831714630126953125">
        <ele>55.59999847412109375</ele>
        <time>2020-02-24T20:23:27.000Z</time>
      </trkpt>
      <trkpt lat="-34.7834626771509647369384765625" lon="-59.069382213056087493896484375">
        <ele>55.59999847412109375</ele>
        <time>2020-02-24T20:23:37.000Z</time>
      </trkpt>
      <trkpt lat="-34.78361271321773529052734375" lon="-59.06937542371451854705810546875">
        <ele>55.59999847412109375</ele>
        <time>2020-02-24T20:23:43.000Z</time>
      </trkpt>
      <trkpt lat="-34.78372645564377307891845703125" lon="-59.069382213056087493896484375">
        <ele>55.799999237060546875</ele>
        <time>2020-02-24T20:23:49.000Z</time>
      </trkpt>
      <trkpt lat="-34.7837835364043712615966796875" lon="-59.0693384595215320587158203125">
        <ele>55.59999847412109375</ele>
        <time>2020-02-24T20:23:52.000Z</time>
      </trkpt>
      <trkpt lat="-34.78378831408917903900146484375" lon="-59.069310463964939117431640625">
        <ele>55.59999847412109375</ele>
        <time>2020-02-24T20:23:53.000Z</time>
      </trkpt>
      <trkpt lat="-34.78382234461605548858642578125" lon="-59.06899270601570606231689453125">
        <ele>55.200000762939453125</ele>
        <time>2020-02-24T20:24:02.000Z</time>
      </trkpt>
      <trkpt lat="-34.783837683498859405517578125" lon="-59.06871266663074493408203125">
        <ele>55.40000152587890625</ele>
        <time>2020-02-24T20:24:10.000Z</time>
      </trkpt>
      <trkpt lat="-34.78385687805712223052978515625" lon="-59.0684429369866847991943359375">
        <ele>55</ele>
        <time>2020-02-24T20:24:18.000Z</time>
      </trkpt>
      <trkpt lat="-34.78388185612857341766357421875" lon="-59.068085364997386932373046875">
        <ele>55</ele>
        <time>2020-02-24T20:24:29.000Z</time>
      </trkpt>
      <trkpt lat="-34.78389677591621875762939453125" lon="-59.0678308904170989990234375">
        <ele>54.799999237060546875</ele>
        <time>2020-02-24T20:24:37.000Z</time>
      </trkpt>
      <trkpt lat="-34.783909432590007781982421875" lon="-59.0675787627696990966796875">
        <ele>54.59999847412109375</ele>
        <time>2020-02-24T20:24:46.000Z</time>
      </trkpt>
      <trkpt lat="-34.78392259217798709869384765625" lon="-59.0673717297613620758056640625">
        <ele>54.59999847412109375</ele>
        <time>2020-02-24T20:24:54.000Z</time>
      </trkpt>
      <trkpt lat="-34.7839374281466007232666015625" lon="-59.067183472216129302978515625">
        <ele>54.59999847412109375</ele>
        <time>2020-02-24T20:25:02.000Z</time>
      </trkpt>
      <trkpt lat="-34.78395243175327777862548828125" lon="-59.0669985674321651458740234375">
        <ele>55</ele>
        <time>2020-02-24T20:25:11.000Z</time>
      </trkpt>
      <trkpt lat="-34.78397573344409465789794921875" lon="-59.0667794644832611083984375">
        <ele>54.40000152587890625</ele>
        <time>2020-02-24T20:25:21.000Z</time>
      </trkpt>
      <trkpt lat="-34.7839914076030254364013671875" lon="-59.06659179367125034332275390625">
        <ele>54.40000152587890625</ele>
        <time>2020-02-24T20:25:29.000Z</time>
      </trkpt>
      <trkpt lat="-34.7840023040771484375" lon="-59.06639532186090946197509765625">
        <ele>54.59999847412109375</ele>
        <time>2020-02-24T20:25:37.000Z</time>
      </trkpt>
      <trkpt lat="-34.7840121947228908538818359375" lon="-59.0662510693073272705078125">
        <ele>54.40000152587890625</ele>
        <time>2020-02-24T20:25:43.000Z</time>
      </trkpt>
      <trkpt lat="-34.7840252704918384552001953125" lon="-59.0660758875310420989990234375">
        <ele>54.200000762939453125</ele>
        <time>2020-02-24T20:25:50.000Z</time>
      </trkpt>
      <trkpt lat="-34.7840282879769802093505859375" lon="-59.0660520829260349273681640625">
        <ele>54.200000762939453125</ele>
        <time>2020-02-24T20:25:51.000Z</time>
      </trkpt>
      <trkpt lat="-34.784047566354274749755859375" lon="-59.0658163838088512420654296875">
        <ele>54.200000762939453125</ele>
        <time>2020-02-24T20:26:00.000Z</time>
      </trkpt>
      <trkpt lat="-34.7840554453432559967041015625" lon="-59.0656556189060211181640625">
        <ele>54.200000762939453125</ele>
        <time>2020-02-24T20:26:06.000Z</time>
      </trkpt>
      <trkpt lat="-34.78407044894993305206298828125" lon="-59.0654599852859973907470703125">
        <ele>54.200000762939453125</ele>
        <time>2020-02-24T20:26:13.000Z</time>
      </trkpt>
      <trkpt lat="-34.784088470041751861572265625" lon="-59.0652755834162235260009765625">
        <ele>54</ele>
        <time>2020-02-24T20:26:20.000Z</time>
      </trkpt>
      <trkpt lat="-34.7841131128370761871337890625" lon="-59.06506410799920558929443359375">
        <ele>53.59999847412109375</ele>
        <time>2020-02-24T20:26:27.000Z</time>
      </trkpt>
      <trkpt lat="-34.784105233848094940185546875" lon="-59.06491273082792758941650390625">
        <ele>54</ele>
        <time>2020-02-24T20:26:33.000Z</time>
      </trkpt>
      <trkpt lat="-34.784121997654438018798828125" lon="-59.06461668200790882110595703125">
        <ele>54</ele>
        <time>2020-02-24T20:26:42.000Z</time>
      </trkpt>
      <trkpt lat="-34.78414135985076427459716796875" lon="-59.064330942928791046142578125">
        <ele>54</ele>
        <time>2020-02-24T20:26:51.000Z</time>
      </trkpt>
      <trkpt lat="-34.78416013531386852264404296875" lon="-59.06402592547237873077392578125">
        <ele>54</ele>
        <time>2020-02-24T20:27:01.000Z</time>
      </trkpt>
      <trkpt lat="-34.78418041951954364776611328125" lon="-59.06374714337289333343505859375">
        <ele>54</ele>
        <time>2020-02-24T20:27:10.000Z</time>
      </trkpt>
      <trkpt lat="-34.78419768624007701873779296875" lon="-59.06343114562332630157470703125">
        <ele>54</ele>
        <time>2020-02-24T20:27:20.000Z</time>
      </trkpt>
      <trkpt lat="-34.7842076607048511505126953125" lon="-59.0632163174450397491455078125">
        <ele>54</ele>
        <time>2020-02-24T20:27:28.000Z</time>
      </trkpt>
      <trkpt lat="-34.78422828018665313720703125" lon="-59.06298874877393245697021484375">
        <ele>53.799999237060546875</ele>
        <time>2020-02-24T20:27:36.000Z</time>
      </trkpt>
      <trkpt lat="-34.784252084791660308837890625" lon="-59.0627539716660976409912109375">
        <ele>53.799999237060546875</ele>
        <time>2020-02-24T20:27:44.000Z</time>
      </trkpt>
      <trkpt lat="-34.78425786830484867095947265625" lon="-59.06249530613422393798828125">
        <ele>53.799999237060546875</ele>
        <time>2020-02-24T20:27:52.000Z</time>
      </trkpt>
      <trkpt lat="-34.78426557965576648712158203125" lon="-59.06226706691086292266845703125">
        <ele>53.799999237060546875</ele>
        <time>2020-02-24T20:27:59.000Z</time>
      </trkpt>
      <trkpt lat="-34.78428318165242671966552734375" lon="-59.062013514339923858642578125">
        <ele>53.799999237060546875</ele>
        <time>2020-02-24T20:28:07.000Z</time>
      </trkpt>
      <trkpt lat="-34.78429877199232578277587890625" lon="-59.061760716140270233154296875">
        <ele>54</ele>
        <time>2020-02-24T20:28:15.000Z</time>
      </trkpt>
      <trkpt lat="-34.78430162183940410614013671875" lon="-59.06172861345112323760986328125">
        <ele>54</ele>
        <time>2020-02-24T20:28:16.000Z</time>
      </trkpt>
      <trkpt lat="-34.784326516091823577880859375" lon="-59.0613997913897037506103515625">
        <ele>53.799999237060546875</ele>
        <time>2020-02-24T20:28:26.000Z</time>
      </trkpt>
      <trkpt lat="-34.784343950450420379638671875" lon="-59.06115529127418994903564453125">
        <ele>54</ele>
        <time>2020-02-24T20:28:34.000Z</time>
      </trkpt>
      <trkpt lat="-34.78435509838163852691650390625" lon="-59.0609706379473209381103515625">
        <ele>53.799999237060546875</ele>
        <time>2020-02-24T20:28:40.000Z</time>
      </trkpt>
      <trkpt lat="-34.78437714278697967529296875" lon="-59.06064349226653575897216796875">
        <ele>53.799999237060546875</ele>
        <time>2020-02-24T20:28:50.000Z</time>
      </trkpt>
      <trkpt lat="-34.7843930684030055999755859375" lon="-59.0603399835526943206787109375">
        <ele>53.59999847412109375</ele>
        <time>2020-02-24T20:28:59.000Z</time>
      </trkpt>
      <trkpt lat="-34.7844165377318859100341796875" lon="-59.0599762089550495147705078125">
        <ele>54.200000762939453125</ele>
        <time>2020-02-24T20:29:10.000Z</time>
      </trkpt>
      <trkpt lat="-34.7844319604337215423583984375" lon="-59.05971117317676544189453125">
        <ele>53.59999847412109375</ele>
        <time>2020-02-24T20:29:18.000Z</time>
      </trkpt>
      <trkpt lat="-34.7844420187175273895263671875" lon="-59.05949198640882968902587890625">
        <ele>53.799999237060546875</ele>
        <time>2020-02-24T20:29:26.000Z</time>
      </trkpt>
      <trkpt lat="-34.7844577766954898834228515625" lon="-59.05927657149732112884521484375">
        <ele>53.799999237060546875</ele>
        <time>2020-02-24T20:29:34.000Z</time>
      </trkpt>
      <trkpt lat="-34.78447378613054752349853515625" lon="-59.05905294232070446014404296875">
        <ele>53.59999847412109375</ele>
        <time>2020-02-24T20:29:42.000Z</time>
      </trkpt>
      <trkpt lat="-34.784493148326873779296875" lon="-59.0587276406586170196533203125">
        <ele>53.799999237060546875</ele>
        <time>2020-02-24T20:29:53.000Z</time>
      </trkpt>
      <trkpt lat="-34.78450647555291652679443359375" lon="-59.0585147403180599212646484375">
        <ele>53.59999847412109375</ele>
        <time>2020-02-24T20:30:01.000Z</time>
      </trkpt>
      <trkpt lat="-34.78452206589281558990478515625" lon="-59.05829974450170993804931640625">
        <ele>53.59999847412109375</ele>
        <time>2020-02-24T20:30:09.000Z</time>
      </trkpt>
      <trkpt lat="-34.7845405898988246917724609375" lon="-59.0580591000616550445556640625">
        <ele>53.799999237060546875</ele>
        <time>2020-02-24T20:30:18.000Z</time>
      </trkpt>
      <trkpt lat="-34.78455877862870693206787109375" lon="-59.0577734448015689849853515625">
        <ele>53.59999847412109375</ele>
        <time>2020-02-24T20:30:28.000Z</time>
      </trkpt>
      <trkpt lat="-34.78457696735858917236328125" lon="-59.05751016922295093536376953125">
        <ele>53.59999847412109375</ele>
        <time>2020-02-24T20:30:37.000Z</time>
      </trkpt>
      <trkpt lat="-34.7845883667469024658203125" lon="-59.05727145262062549591064453125">
        <ele>53.40000152587890625</ele>
        <time>2020-02-24T20:30:45.000Z</time>
      </trkpt>
      <trkpt lat="-34.78460772894322872161865234375" lon="-59.056967608630657196044921875">
        <ele>53.799999237060546875</ele>
        <time>2020-02-24T20:30:55.000Z</time>
      </trkpt>
      <trkpt lat="-34.784627594053745269775390625" lon="-59.05665957368910312652587890625">
        <ele>53.59999847412109375</ele>
        <time>2020-02-24T20:31:05.000Z</time>
      </trkpt>
      <trkpt lat="-34.78464192710816860198974609375" lon="-59.0564048476517200469970703125">
        <ele>53.799999237060546875</ele>
        <time>2020-02-24T20:31:13.000Z</time>
      </trkpt>
      <trkpt lat="-34.78466070257127285003662109375" lon="-59.056125394999980926513671875">
        <ele>53.200000762939453125</ele>
        <time>2020-02-24T20:31:22.000Z</time>
      </trkpt>
      <trkpt lat="-34.78467595763504505157470703125" lon="-59.05576120130717754364013671875">
        <ele>53.200000762939453125</ele>
        <time>2020-02-24T20:31:33.000Z</time>
      </trkpt>
      <trkpt lat="-34.78469640947878360748291015625" lon="-59.0554739534854888916015625">
        <ele>53.40000152587890625</ele>
        <time>2020-02-24T20:31:42.000Z</time>
      </trkpt>
      <trkpt lat="-34.78472314774990081787109375" lon="-59.05511445365846157073974609375">
        <ele>53.200000762939453125</ele>
        <time>2020-02-24T20:31:53.000Z</time>
      </trkpt>
      <trkpt lat="-34.7847343795001506805419921875" lon="-59.0549889765679836273193359375">
        <ele>53.200000762939453125</ele>
        <time>2020-02-24T20:31:57.000Z</time>
      </trkpt>
      <trkpt lat="-34.78475374169647693634033203125" lon="-59.05480046756565570831298828125">
        <ele>53.200000762939453125</ele>
        <time>2020-02-24T20:32:03.000Z</time>
      </trkpt>
      <trkpt lat="-34.78477084077894687652587890625" lon="-59.054581783711910247802734375">
        <ele>53.40000152587890625</ele>
        <time>2020-02-24T20:32:11.000Z</time>
      </trkpt>
      <trkpt lat="-34.7847843356430530548095703125" lon="-59.0543127246201038360595703125">
        <ele>53.59999847412109375</ele>
        <time>2020-02-24T20:32:20.000Z</time>
      </trkpt>
      <trkpt lat="-34.78479011915624141693115234375" lon="-59.0541387163102626800537109375">
        <ele>53</ele>
        <time>2020-02-24T20:32:26.000Z</time>
      </trkpt>
      <trkpt lat="-34.784803949296474456787109375" lon="-59.053921960294246673583984375">
        <ele>53.200000762939453125</ele>
        <time>2020-02-24T20:32:34.000Z</time>
      </trkpt>
      <trkpt lat="-34.7848249040544033050537109375" lon="-59.0536901168525218963623046875">
        <ele>53.40000152587890625</ele>
        <time>2020-02-24T20:32:42.000Z</time>
      </trkpt>
      <trkpt lat="-34.7848503850400447845458984375" lon="-59.05346707440912723541259765625">
        <ele>53.200000762939453125</ele>
        <time>2020-02-24T20:32:50.000Z</time>
      </trkpt>
      <trkpt lat="-34.78488064371049404144287109375" lon="-59.053150154650211334228515625">
        <ele>53</ele>
        <time>2020-02-24T20:33:00.000Z</time>
      </trkpt>
      <trkpt lat="-34.784927666187286376953125" lon="-59.05286391265690326690673828125">
        <ele>52.799999237060546875</ele>
        <time>2020-02-24T20:33:09.000Z</time>
      </trkpt>
      <trkpt lat="-34.7849881835281848907470703125" lon="-59.05254833400249481201171875">
        <ele>52.59999847412109375</ele>
        <time>2020-02-24T20:33:19.000Z</time>
      </trkpt>
      <trkpt lat="-34.7850582562386989593505859375" lon="-59.0522383712232112884521484375">
        <ele>52.40000152587890625</ele>
        <time>2020-02-24T20:33:29.000Z</time>
      </trkpt>
      <trkpt lat="-34.78512405417859554290771484375" lon="-59.05195950530469417572021484375">
        <ele>52.40000152587890625</ele>
        <time>2020-02-24T20:33:38.000Z</time>
      </trkpt>
      <trkpt lat="-34.78520703501999378204345703125" lon="-59.051639400422573089599609375">
        <ele>52.59999847412109375</ele>
        <time>2020-02-24T20:33:48.000Z</time>
      </trkpt>
      <trkpt lat="-34.78527300059795379638671875" lon="-59.05142985284328460693359375">
        <ele>53</ele>
        <time>2020-02-24T20:33:55.000Z</time>
      </trkpt>
      <trkpt lat="-34.7853392176330089569091796875" lon="-59.05118937604129314422607421875">
        <ele>52.799999237060546875</ele>
        <time>2020-02-24T20:34:03.000Z</time>
      </trkpt>
      <trkpt lat="-34.78542194701731204986572265625" lon="-59.05093439854681491851806640625">
        <ele>52.799999237060546875</ele>
        <time>2020-02-24T20:34:12.000Z</time>
      </trkpt>
      <trkpt lat="-34.7854974679648876190185546875" lon="-59.05070859007537364959716796875">
        <ele>52.799999237060546875</ele>
        <time>2020-02-24T20:34:20.000Z</time>
      </trkpt>
      <trkpt lat="-34.78560266084969043731689453125" lon="-59.05043341219425201416015625">
        <ele>52.59999847412109375</ele>
        <time>2020-02-24T20:34:30.000Z</time>
      </trkpt>
      <trkpt lat="-34.78572302497923374176025390625" lon="-59.0501532889902591705322265625">
        <ele>52.799999237060546875</ele>
        <time>2020-02-24T20:34:40.000Z</time>
      </trkpt>
      <trkpt lat="-34.78581572882831096649169921875" lon="-59.0499397180974483489990234375">
        <ele>52.59999847412109375</ele>
        <time>2020-02-24T20:34:48.000Z</time>
      </trkpt>
      <trkpt lat="-34.78592301718890666961669921875" lon="-59.04969454742968082427978515625">
        <ele>52.40000152587890625</ele>
        <time>2020-02-24T20:34:57.000Z</time>
      </trkpt>
      <trkpt lat="-34.78600298054516315460205078125" lon="-59.0495011769235134124755859375">
        <ele>52.59999847412109375</ele>
        <time>2020-02-24T20:35:04.000Z</time>
      </trkpt>
      <trkpt lat="-34.78610373102128505706787109375" lon="-59.04930931515991687774658203125">
        <ele>52.40000152587890625</ele>
        <time>2020-02-24T20:35:12.000Z</time>
      </trkpt>
      <trkpt lat="-34.786171205341815948486328125" lon="-59.04917218722403049468994140625">
        <ele>52.799999237060546875</ele>
        <time>2020-02-24T20:35:18.000Z</time>
      </trkpt>
      <trkpt lat="-34.78628276847302913665771484375" lon="-59.0489348955452442169189453125">
        <ele>52.799999237060546875</ele>
        <time>2020-02-24T20:35:27.000Z</time>
      </trkpt>
      <trkpt lat="-34.78638469241559505462646484375" lon="-59.04872216284275054931640625">
        <ele>52.40000152587890625</ele>
        <time>2020-02-24T20:35:35.000Z</time>
      </trkpt>
      <trkpt lat="-34.7865150310099124908447265625" lon="-59.04844857752323150634765625">
        <ele>52.40000152587890625</ele>
        <time>2020-02-24T20:35:45.000Z</time>
      </trkpt>
      <trkpt lat="-34.78666062466800212860107421875" lon="-59.0481439791619777679443359375">
        <ele>52.40000152587890625</ele>
        <time>2020-02-24T20:35:56.000Z</time>
      </trkpt>
      <trkpt lat="-34.78672281838953495025634765625" lon="-59.0480045042932033538818359375">
        <ele>52.200000762939453125</ele>
        <time>2020-02-24T20:36:03.000Z</time>
      </trkpt>
      <trkpt lat="-34.78672139346599578857421875" lon="-59.04800341464579105377197265625">
        <ele>52.40000152587890625</ele>
        <time>2020-02-24T20:36:16.000Z</time>
      </trkpt>
      <trkpt lat="-34.786718375980854034423828125" lon="-59.04800425283610820770263671875">
        <ele>52.40000152587890625</ele>
        <time>2020-02-24T20:36:33.000Z</time>
      </trkpt>
      <trkpt lat="-34.7867175377905368804931640625" lon="-59.04800425283610820770263671875">
        <ele>52.40000152587890625</ele>
        <time>2020-02-24T20:36:51.000Z</time>
      </trkpt>
      <trkpt lat="-34.786717034876346588134765625" lon="-59.04800458811223506927490234375">
        <ele>52.40000152587890625</ele>
        <time>2020-02-24T20:37:19.000Z</time>
      </trkpt>
      <trkpt lat="-34.78671661578118801116943359375" lon="-59.04800467193126678466796875">
        <ele>52.40000152587890625</ele>
        <time>2020-02-24T20:37:22.000Z</time>
      </trkpt>
      <trkpt lat="-34.7867166996002197265625" lon="-59.0480055101215839385986328125">
        <ele>52.40000152587890625</ele>
        <time>2020-02-24T20:37:51.000Z</time>
      </trkpt>
      <trkpt lat="-34.7867138497531414031982421875" lon="-59.0480065159499645233154296875">
        <ele>52.40000152587890625</ele>
        <time>2020-02-24T20:38:17.000Z</time>
      </trkpt>
      <trkpt lat="-34.78671410121023654937744140625" lon="-59.04800559394061565399169921875">
        <ele>52.40000152587890625</ele>
        <time>2020-02-24T20:38:32.000Z</time>
      </trkpt>
      <trkpt lat="-34.7867138497531414031982421875" lon="-59.048005007207393646240234375">
        <ele>52.40000152587890625</ele>
        <time>2020-02-24T20:38:47.000Z</time>
      </trkpt>
      <trkpt lat="-34.786714017391204833984375" lon="-59.0480041690170764923095703125">
        <ele>52.40000152587890625</ele>
        <time>2020-02-24T20:39:07.000Z</time>
      </trkpt>
      <trkpt lat="-34.78671762160956859588623046875" lon="-59.04799033887684345245361328125">
        <ele>52.40000152587890625</ele>
        <time>2020-02-24T20:39:12.000Z</time>
      </trkpt>
      <trkpt lat="-34.786729775369167327880859375" lon="-59.047940634191036224365234375">
        <ele>52.40000152587890625</ele>
        <time>2020-02-24T20:39:15.000Z</time>
      </trkpt>
      <trkpt lat="-34.78675651364028453826904296875" lon="-59.0478720702230930328369140625">
        <ele>52</ele>
        <time>2020-02-24T20:39:18.000Z</time>
      </trkpt>
      <trkpt lat="-34.78680294938385486602783203125" lon="-59.04776603914797306060791015625">
        <ele>51.40000152587890625</ele>
        <time>2020-02-24T20:39:22.000Z</time>
      </trkpt>
      <trkpt lat="-34.786933958530426025390625" lon="-59.0474901907145977020263671875">
        <ele>51.40000152587890625</ele>
        <time>2020-02-24T20:39:31.000Z</time>
      </trkpt>
      <trkpt lat="-34.78708374314010143280029296875" lon="-59.0471586026251316070556640625">
        <ele>51.40000152587890625</ele>
        <time>2020-02-24T20:39:41.000Z</time>
      </trkpt>
      <trkpt lat="-34.7872383892536163330078125" lon="-59.04684252105653285980224609375">
        <ele>51</ele>
        <time>2020-02-24T20:39:50.000Z</time>
      </trkpt>
      <trkpt lat="-34.787254817783832550048828125" lon="-59.046807400882244110107421875">
        <ele>51</ele>
        <time>2020-02-24T20:39:51.000Z</time>
      </trkpt>
      <trkpt lat="-34.78740979917347431182861328125" lon="-59.04647204093635082244873046875">
        <ele>51</ele>
        <time>2020-02-24T20:40:00.000Z</time>
      </trkpt>
      <trkpt lat="-34.78759420104324817657470703125" lon="-59.04608379118144512176513671875">
        <ele>51</ele>
        <time>2020-02-24T20:40:10.000Z</time>
      </trkpt>
      <trkpt lat="-34.78776703588664531707763671875" lon="-59.0457138977944850921630859375">
        <ele>50.799999237060546875</ele>
        <time>2020-02-24T20:40:20.000Z</time>
      </trkpt>
      <trkpt lat="-34.78790734894573688507080078125" lon="-59.04542329721152782440185546875">
        <ele>50.59999847412109375</ele>
        <time>2020-02-24T20:40:28.000Z</time>
      </trkpt>
      <trkpt lat="-34.7880707122385501861572265625" lon="-59.0450772084295749664306640625">
        <ele>50.799999237060546875</ele>
        <time>2020-02-24T20:40:37.000Z</time>
      </trkpt>
      <trkpt lat="-34.78827481158077716827392578125" lon="-59.04466238804161548614501953125">
        <ele>50.59999847412109375</ele>
        <time>2020-02-24T20:40:48.000Z</time>
      </trkpt>
      <trkpt lat="-34.7885043919086456298828125" lon="-59.04418311081826686859130859375">
        <ele>50.59999847412109375</ele>
        <time>2020-02-24T20:41:00.000Z</time>
      </trkpt>
      <trkpt lat="-34.78866976685822010040283203125" lon="-59.0438313223421573638916015625">
        <ele>50.799999237060546875</ele>
        <time>2020-02-24T20:41:09.000Z</time>
      </trkpt>
      <trkpt lat="-34.78883891366422176361083984375" lon="-59.04347282834351062774658203125">
        <ele>50.59999847412109375</ele>
        <time>2020-02-24T20:41:18.000Z</time>
      </trkpt>
      <trkpt lat="-34.78900420479476451873779296875" lon="-59.0431111492216587066650390625">
        <ele>50.59999847412109375</ele>
        <time>2020-02-24T20:41:27.000Z</time>
      </trkpt>
      <trkpt lat="-34.789245016872882843017578125" lon="-59.0425767190754413604736328125">
        <ele>50.799999237060546875</ele>
        <time>2020-02-24T20:41:40.000Z</time>
      </trkpt>
      <trkpt lat="-34.7893994115293025970458984375" lon="-59.042248316109180450439453125">
        <ele>50.40000152587890625</ele>
        <time>2020-02-24T20:41:48.000Z</time>
      </trkpt>
      <trkpt lat="-34.7895707376301288604736328125" lon="-59.04190239496529102325439453125">
        <ele>50.59999847412109375</ele>
        <time>2020-02-24T20:41:56.000Z</time>
      </trkpt>
      <trkpt lat="-34.78984122164547443389892578125" lon="-59.041339717805385589599609375">
        <ele>50.59999847412109375</ele>
        <time>2020-02-24T20:42:08.000Z</time>
      </trkpt>
      <trkpt lat="-34.79008345864713191986083984375" lon="-59.04084317386150360107421875">
        <ele>50.799999237060546875</ele>
        <time>2020-02-24T20:42:18.000Z</time>
      </trkpt>
      <trkpt lat="-34.79030826129019260406494140625" lon="-59.0403303690254688262939453125">
        <ele>50.799999237060546875</ele>
        <time>2020-02-24T20:42:28.000Z</time>
      </trkpt>
      <trkpt lat="-34.7904857061803340911865234375" lon="-59.03992988169193267822265625">
        <ele>51.200000762939453125</ele>
        <time>2020-02-24T20:42:36.000Z</time>
      </trkpt>
      <trkpt lat="-34.79071059264242649078369140625" lon="-59.0394556336104869842529296875">
        <ele>51.200000762939453125</ele>
        <time>2020-02-24T20:42:45.000Z</time>
      </trkpt>
      <trkpt lat="-34.7909711860120296478271484375" lon="-59.03890502639114856719970703125">
        <ele>51</ele>
        <time>2020-02-24T20:42:55.000Z</time>
      </trkpt>
      <trkpt lat="-34.79120026342570781707763671875" lon="-59.03840982355177402496337890625">
        <ele>51.200000762939453125</ele>
        <time>2020-02-24T20:43:04.000Z</time>
      </trkpt>
      <trkpt lat="-34.7914331965148448944091796875" lon="-59.03792317025363445281982421875">
        <ele>51</ele>
        <time>2020-02-24T20:43:13.000Z</time>
      </trkpt>
      <trkpt lat="-34.79171206243336200714111328125" lon="-59.0373400412499904632568359375">
        <ele>51.40000152587890625</ele>
        <time>2020-02-24T20:43:24.000Z</time>
      </trkpt>
      <trkpt lat="-34.7917356155812740325927734375" lon="-59.03728782199323177337646484375">
        <ele>51.40000152587890625</ele>
        <time>2020-02-24T20:43:25.000Z</time>
      </trkpt>
      <trkpt lat="-34.79193284176290035247802734375" lon="-59.03685917146503925323486328125">
        <ele>51.40000152587890625</ele>
        <time>2020-02-24T20:43:34.000Z</time>
      </trkpt>
      <trkpt lat="-34.7920797765254974365234375" lon="-59.03653420507907867431640625">
        <ele>51.799999237060546875</ele>
        <time>2020-02-24T20:43:42.000Z</time>
      </trkpt>
      <trkpt lat="-34.79217541404068470001220703125" lon="-59.03635927475988864898681640625">
        <ele>52</ele>
        <time>2020-02-24T20:43:48.000Z</time>
      </trkpt>
      <trkpt lat="-34.79226308874785900115966796875" lon="-59.03616607189178466796875">
        <ele>52</ele>
        <time>2020-02-24T20:43:55.000Z</time>
      </trkpt>
      <trkpt lat="-34.7923357598483562469482421875" lon="-59.03595945797860622406005859375">
        <ele>52</ele>
        <time>2020-02-24T20:44:01.000Z</time>
      </trkpt>
      <trkpt lat="-34.79236132465302944183349609375" lon="-59.035845883190631866455078125">
        <ele>52.200000762939453125</ele>
        <time>2020-02-24T20:44:04.000Z</time>
      </trkpt>
      <trkpt lat="-34.792378842830657958984375" lon="-59.035523347556591033935546875">
        <ele>52.59999847412109375</ele>
        <time>2020-02-24T20:44:12.000Z</time>
      </trkpt>
      <trkpt lat="-34.79231187142431735992431640625" lon="-59.03517591767013072967529296875">
        <ele>52.799999237060546875</ele>
        <time>2020-02-24T20:44:21.000Z</time>
      </trkpt>
      <trkpt lat="-34.7922462411224842071533203125" lon="-59.03484265320003032684326171875">
        <ele>53</ele>
        <time>2020-02-24T20:44:30.000Z</time>
      </trkpt>
      <trkpt lat="-34.7923012264072895050048828125" lon="-59.0346323512494564056396484375">
        <ele>53</ele>
        <time>2020-02-24T20:44:36.000Z</time>
      </trkpt>
      <trkpt lat="-34.79239560663700103759765625" lon="-59.03441634960472583770751953125">
        <ele>53</ele>
        <time>2020-02-24T20:44:43.000Z</time>
      </trkpt>
      <trkpt lat="-34.79244430549442768096923828125" lon="-59.03431375510990619659423828125">
        <ele>53.200000762939453125</ele>
        <time>2020-02-24T20:44:46.000Z</time>
      </trkpt>
      <trkpt lat="-34.7925598919391632080078125" lon="-59.0340603701770305633544921875">
        <ele>52.799999237060546875</ele>
        <time>2020-02-24T20:44:53.000Z</time>
      </trkpt>
      <trkpt lat="-34.7926995344460010528564453125" lon="-59.03371746651828289031982421875">
        <ele>53</ele>
        <time>2020-02-24T20:45:02.000Z</time>
      </trkpt>
      <trkpt lat="-34.79281612671911716461181640625" lon="-59.033423848450183868408203125">
        <ele>52.59999847412109375</ele>
        <time>2020-02-24T20:45:10.000Z</time>
      </trkpt>
      <trkpt lat="-34.7929405979812145233154296875" lon="-59.03320784680545330047607421875">
        <ele>53</ele>
        <time>2020-02-24T20:45:17.000Z</time>
      </trkpt>
      <trkpt lat="-34.79308216832578182220458984375" lon="-59.0329335071146488189697265625">
        <ele>53.200000762939453125</ele>
        <time>2020-02-24T20:45:25.000Z</time>
      </trkpt>
      <trkpt lat="-34.7932658158242702484130859375" lon="-59.03254047967493534088134765625">
        <ele>53.200000762939453125</ele>
        <time>2020-02-24T20:45:36.000Z</time>
      </trkpt>
      <trkpt lat="-34.79341509751975536346435546875" lon="-59.03221878223121166229248046875">
        <ele>53.200000762939453125</ele>
        <time>2020-02-24T20:45:45.000Z</time>
      </trkpt>
      <trkpt lat="-34.79355624876916408538818359375" lon="-59.0319241583347320556640625">
        <ele>53.40000152587890625</ele>
        <time>2020-02-24T20:45:54.000Z</time>
      </trkpt>
      <trkpt lat="-34.7936973161995410919189453125" lon="-59.03162383474409580230712890625">
        <ele>53</ele>
        <time>2020-02-24T20:46:03.000Z</time>
      </trkpt>
      <trkpt lat="-34.79388901032507419586181640625" lon="-59.03123223222792148590087890625">
        <ele>53</ele>
        <time>2020-02-24T20:46:14.000Z</time>
      </trkpt>
      <trkpt lat="-34.79404055513441562652587890625" lon="-59.03089041821658611297607421875">
        <ele>53.40000152587890625</ele>
        <time>2020-02-24T20:46:23.000Z</time>
      </trkpt>
      <trkpt lat="-34.7942190058529376983642578125" lon="-59.0305040962994098663330078125">
        <ele>53.40000152587890625</ele>
        <time>2020-02-24T20:46:33.000Z</time>
      </trkpt>
      <trkpt lat="-34.79430944658815860748291015625" lon="-59.0302673913538455963134765625">
        <ele>53.200000762939453125</ele>
        <time>2020-02-24T20:46:40.000Z</time>
      </trkpt>
      <trkpt lat="-34.794355295598506927490234375" lon="-59.03016622178256511688232421875">
        <ele>53.200000762939453125</ele>
        <time>2020-02-24T20:46:46.000Z</time>
      </trkpt>
      <trkpt lat="-34.79435521177947521209716796875" lon="-59.0301673114299774169921875">
        <ele>53.200000762939453125</ele>
        <time>2020-02-24T20:46:57.000Z</time>
      </trkpt>
      <trkpt lat="-34.79435521177947521209716796875" lon="-59.0301681496202945709228515625">
        <ele>53</ele>
        <time>2020-02-24T20:47:18.000Z</time>
      </trkpt>
      <trkpt lat="-34.794355295598506927490234375" lon="-59.03016990981996059417724609375">
        <ele>53</ele>
        <time>2020-02-24T20:47:46.000Z</time>
      </trkpt>
      <trkpt lat="-34.7943527810275554656982421875" lon="-59.03017108328640460968017578125">
        <ele>53</ele>
        <time>2020-02-24T20:47:58.000Z</time>
      </trkpt>
      <trkpt lat="-34.7943346761167049407958984375" lon="-59.03014794923365116119384765625">
        <ele>53</ele>
        <time>2020-02-24T20:48:07.000Z</time>
      </trkpt>
      <trkpt lat="-34.79431514628231525421142578125" lon="-59.03013839386403560638427734375">
        <ele>53</ele>
        <time>2020-02-24T20:48:11.000Z</time>
      </trkpt>
      <trkpt lat="-34.7943081893026828765869140625" lon="-59.03015063144266605377197265625">
        <ele>53</ele>
        <time>2020-02-24T20:48:21.000Z</time>
      </trkpt>
      <trkpt lat="-34.7943086922168731689453125" lon="-59.03015180490911006927490234375">
        <ele>53</ele>
        <time>2020-02-24T20:48:33.000Z</time>
      </trkpt>
      <trkpt lat="-34.79430860839784145355224609375" lon="-59.03015180490911006927490234375">
        <ele>53</ele>
        <time>2020-02-24T20:49:00.000Z</time>
      </trkpt>
      <trkpt lat="-34.79430844075977802276611328125" lon="-59.030150882899761199951171875">
        <ele>53</ele>
        <time>2020-02-24T20:49:25.000Z</time>
      </trkpt>
      <trkpt lat="-34.7943086922168731689453125" lon="-59.030151553452014923095703125">
        <ele>53</ele>
        <time>2020-02-24T20:49:56.000Z</time>
      </trkpt>
      <trkpt lat="-34.7942998073995113372802734375" lon="-59.03016488067805767059326171875">
        <ele>53</ele>
        <time>2020-02-24T20:50:19.000Z</time>
      </trkpt>
      <trkpt lat="-34.79428832419216632843017578125" lon="-59.0301879309117794036865234375">
        <ele>53</ele>
        <time>2020-02-24T20:50:22.000Z</time>
      </trkpt>
      <trkpt lat="-34.7942619211971759796142578125" lon="-59.0302425809204578399658203125">
        <ele>53</ele>
        <time>2020-02-24T20:50:27.000Z</time>
      </trkpt>
      <trkpt lat="-34.79424121789634227752685546875" lon="-59.030274264514446258544921875">
        <ele>53</ele>
        <time>2020-02-24T20:50:33.000Z</time>
      </trkpt>
      <trkpt lat="-34.7942367754876613616943359375" lon="-59.03028306551277637481689453125">
        <ele>52.799999237060546875</ele>
        <time>2020-02-24T20:50:34.000Z</time>
      </trkpt>
      <trkpt lat="-34.79418992064893245697021484375" lon="-59.030374847352504730224609375">
        <ele>53</ele>
        <time>2020-02-24T20:50:43.000Z</time>
      </trkpt>
      <trkpt lat="-34.79416762478649616241455078125" lon="-59.0304306708276271820068359375">
        <ele>53</ele>
        <time>2020-02-24T20:50:50.000Z</time>
      </trkpt>
      <trkpt lat="-34.79415505193173885345458984375" lon="-59.03045439161360263824462890625">
        <ele>53</ele>
        <time>2020-02-24T20:50:53.000Z</time>
      </trkpt>
      <trkpt lat="-34.794111549854278564453125" lon="-59.0305346064269542694091796875">
        <ele>53</ele>
        <time>2020-02-24T20:51:01.000Z</time>
      </trkpt>
      <trkpt lat="-34.7940885834395885467529296875" lon="-59.030580036342144012451171875">
        <ele>53.200000762939453125</ele>
        <time>2020-02-24T20:51:06.000Z</time>
      </trkpt>
      <trkpt lat="-34.7940748371183872222900390625" lon="-59.03061280958354473114013671875">
        <ele>53</ele>
        <time>2020-02-24T20:51:09.000Z</time>
      </trkpt>
      <trkpt lat="-34.794070310890674591064453125" lon="-59.03063594363629817962646484375">
        <ele>53.200000762939453125</ele>
        <time>2020-02-24T20:51:11.000Z</time>
      </trkpt>
      <trkpt lat="-34.79404650628566741943359375" lon="-59.03066712431609630584716796875">
        <ele>53.200000762939453125</ele>
        <time>2020-02-24T20:51:15.000Z</time>
      </trkpt>
      <trkpt lat="-34.79402513243257999420166015625" lon="-59.03065304271876811981201171875">
        <ele>53.200000762939453125</ele>
        <time>2020-02-24T20:51:18.000Z</time>
      </trkpt>
      <trkpt lat="-34.7939893417060375213623046875" lon="-59.03060476295650005340576171875">
        <ele>53.200000762939453125</ele>
        <time>2020-02-24T20:51:23.000Z</time>
      </trkpt>
      <trkpt lat="-34.79390627704560756683349609375" lon="-59.030574671924114227294921875">
        <ele>52.799999237060546875</ele>
        <time>2020-02-24T20:51:32.000Z</time>
      </trkpt>
      <trkpt lat="-34.7939185984432697296142578125" lon="-59.03057592920958995819091796875">
        <ele>53.40000152587890625</ele>
        <time>2020-02-24T20:51:40.000Z</time>
      </trkpt>
      <trkpt lat="-34.79392186738550662994384765625" lon="-59.03058699332177639007568359375">
        <ele>53.40000152587890625</ele>
        <time>2020-02-24T20:51:43.000Z</time>
      </trkpt>
      <trkpt lat="-34.79393192566931247711181640625" lon="-59.030604176223278045654296875">
        <ele>53.40000152587890625</ele>
        <time>2020-02-24T20:51:45.000Z</time>
      </trkpt>
      <trkpt lat="-34.79391968809068202972412109375" lon="-59.03060258366167545318603515625">
        <ele>53.40000152587890625</ele>
        <time>2020-02-24T20:51:50.000Z</time>
      </trkpt>
      <trkpt lat="-34.79392404668033123016357421875" lon="-59.0306080318987369537353515625">
        <ele>53.59999847412109375</ele>
        <time>2020-02-24T20:51:57.000Z</time>
      </trkpt>
      <trkpt lat="-34.79392044246196746826171875" lon="-59.03060928918421268463134765625">
        <ele>53.200000762939453125</ele>
        <time>2020-02-24T20:52:14.000Z</time>
      </trkpt>
      <trkpt lat="-34.79391901753842830657958984375" lon="-59.03061398304998874664306640625">
        <ele>53.40000152587890625</ele>
        <time>2020-02-24T20:52:24.000Z</time>
      </trkpt>
      <trkpt lat="-34.79391373693943023681640625" lon="-59.03062035329639911651611328125">
        <ele>53.200000762939453125</ele>
        <time>2020-02-24T20:52:36.000Z</time>
      </trkpt>
      <trkpt lat="-34.7939085401594638824462890625" lon="-59.0306237898766994476318359375">
        <ele>53.40000152587890625</ele>
        <time>2020-02-24T20:52:47.000Z</time>
      </trkpt>
      <trkpt lat="-34.79389839805662631988525390625" lon="-59.0306415595114231109619140625">
        <ele>53.59999847412109375</ele>
        <time>2020-02-24T20:53:03.000Z</time>
      </trkpt>
      <trkpt lat="-34.79389320127665996551513671875" lon="-59.0306378714740276336669921875">
        <ele>53.59999847412109375</ele>
        <time>2020-02-24T20:53:16.000Z</time>
      </trkpt>
      <trkpt lat="-34.79388683103024959564208984375" lon="-59.0306385420262813568115234375">
        <ele>53.59999847412109375</ele>
        <time>2020-02-24T20:53:30.000Z</time>
      </trkpt>
      <trkpt lat="-34.79388515464961528778076171875" lon="-59.03064013458788394927978515625">
        <ele>53.59999847412109375</ele>
        <time>2020-02-24T20:53:39.000Z</time>
      </trkpt>
      <trkpt lat="-34.793884567916393280029296875" lon="-59.03063443489372730255126953125">
        <ele>53.59999847412109375</ele>
        <time>2020-02-24T20:53:50.000Z</time>
      </trkpt>
      <trkpt lat="-34.79388113133609294891357421875" lon="-59.03063510544598102569580078125">
        <ele>53.59999847412109375</ele>
        <time>2020-02-24T20:54:07.000Z</time>
      </trkpt>
      <trkpt lat="-34.7938770242035388946533203125" lon="-59.03063678182661533355712890625">
        <ele>53.59999847412109375</ele>
        <time>2020-02-24T20:54:21.000Z</time>
      </trkpt>
      <trkpt lat="-34.79387325234711170196533203125" lon="-59.0306365303695201873779296875">
        <ele>53.59999847412109375</ele>
        <time>2020-02-24T20:54:43.000Z</time>
      </trkpt>
      <trkpt lat="-34.793869815766811370849609375" lon="-59.030643403530120849609375">
        <ele>53.59999847412109375</ele>
        <time>2020-02-24T20:54:53.000Z</time>
      </trkpt>
      <trkpt lat="-34.79386235587298870086669921875" lon="-59.03064248152077198028564453125">
        <ele>53.59999847412109375</ele>
        <time>2020-02-24T20:55:05.000Z</time>
      </trkpt>
      <trkpt lat="-34.7938589192926883697509765625" lon="-59.03064650483429431915283203125">
        <ele>53.59999847412109375</ele>
        <time>2020-02-24T20:55:16.000Z</time>
      </trkpt>
      <trkpt lat="-34.79385296814143657684326171875" lon="-59.03064005076885223388671875">
        <ele>53.59999847412109375</ele>
        <time>2020-02-24T20:55:29.000Z</time>
      </trkpt>
      <trkpt lat="-34.79384743608534336090087890625" lon="-59.03064030222594738006591796875">
        <ele>53.59999847412109375</ele>
        <time>2020-02-24T20:55:40.000Z</time>
      </trkpt>
      <trkpt lat="-34.79384911246597766876220703125" lon="-59.03063594363629817962646484375">
        <ele>53.59999847412109375</ele>
        <time>2020-02-24T20:55:59.000Z</time>
      </trkpt>
      <trkpt lat="-34.79385145939886569976806640625" lon="-59.03063292615115642547607421875">
        <ele>53.59999847412109375</ele>
        <time>2020-02-24T20:56:09.000Z</time>
      </trkpt>
      <trkpt lat="-34.793849699199199676513671875" lon="-59.0306264720857143402099609375">
        <ele>53.59999847412109375</ele>
        <time>2020-02-24T20:56:19.000Z</time>
      </trkpt>
      <trkpt lat="-34.79384777136147022247314453125" lon="-59.0306271426379680633544921875">
        <ele>53.59999847412109375</ele>
        <time>2020-02-24T20:56:29.000Z</time>
      </trkpt>
      <trkpt lat="-34.79384441860020160675048828125" lon="-59.03062529861927032470703125">
        <ele>53.59999847412109375</ele>
        <time>2020-02-24T20:56:39.000Z</time>
      </trkpt>
      <trkpt lat="-34.79384425096213817596435546875" lon="-59.0306244604289531707763671875">
        <ele>53.59999847412109375</ele>
        <time>2020-02-24T20:56:49.000Z</time>
      </trkpt>
      <trkpt lat="-34.79385430924594402313232421875" lon="-59.03062286786735057830810546875">
        <ele>53.59999847412109375</ele>
        <time>2020-02-24T20:57:04.000Z</time>
      </trkpt>
      <trkpt lat="-34.793851710855960845947265625" lon="-59.03063057921826839447021484375">
        <ele>53.59999847412109375</ele>
        <time>2020-02-24T20:57:13.000Z</time>
      </trkpt>
      <trkpt lat="-34.79385280050337314605712890625" lon="-59.0306304953992366790771484375">
        <ele>53.59999847412109375</ele>
        <time>2020-02-24T20:57:23.000Z</time>
      </trkpt>
      <trkpt lat="-34.7938552312552928924560546875" lon="-59.03062772937119007110595703125">
        <ele>53.59999847412109375</ele>
        <time>2020-02-24T20:57:31.000Z</time>
      </trkpt>
      <trkpt lat="-34.7938542254269123077392578125" lon="-59.03063393197953701019287109375">
        <ele>53.59999847412109375</ele>
        <time>2020-02-24T20:57:40.000Z</time>
      </trkpt>
      <trkpt lat="-34.7938552312552928924560546875" lon="-59.03063778765499591827392578125">
        <ele>53.59999847412109375</ele>
        <time>2020-02-24T20:57:52.000Z</time>
      </trkpt>
      <trkpt lat="-34.7938542254269123077392578125" lon="-59.03064013458788394927978515625">
        <ele>53.59999847412109375</ele>
        <time>2020-02-24T20:58:01.000Z</time>
      </trkpt>
      <trkpt lat="-34.793856404721736907958984375" lon="-59.03063560836017131805419921875">
        <ele>53.59999847412109375</ele>
        <time>2020-02-24T20:58:12.000Z</time>
      </trkpt>
      <trkpt lat="-34.79385682381689548492431640625" lon="-59.03064231388270854949951171875">
        <ele>53.59999847412109375</ele>
        <time>2020-02-24T20:58:23.000Z</time>
      </trkpt>
      <trkpt lat="-34.79385741055011749267578125" lon="-59.03064130805432796478271484375">
        <ele>53.59999847412109375</ele>
        <time>2020-02-24T20:58:32.000Z</time>
      </trkpt>
      <trkpt lat="-34.79385782964527606964111328125" lon="-59.0306405536830425262451171875">
        <ele>53.59999847412109375</ele>
        <time>2020-02-24T20:58:55.000Z</time>
      </trkpt>
      <trkpt lat="-34.7938579134643077850341796875" lon="-59.03064013458788394927978515625">
        <ele>53.59999847412109375</ele>
        <time>2020-02-24T20:58:58.000Z</time>
      </trkpt>
      <trkpt lat="-34.7938582487404346466064453125" lon="-59.0306393802165985107421875">
        <ele>53.59999847412109375</ele>
        <time>2020-02-24T20:59:04.000Z</time>
      </trkpt>
      <trkpt lat="-34.79385514743626117706298828125" lon="-59.0306435711681842803955078125">
        <ele>53.59999847412109375</ele>
        <time>2020-02-24T20:59:13.000Z</time>
      </trkpt>
      <trkpt lat="-34.79385129176080226898193359375" lon="-59.03064985759556293487548828125">
        <ele>53.59999847412109375</ele>
        <time>2020-02-24T20:59:25.000Z</time>
      </trkpt>
      <trkpt lat="-34.7938542254269123077392578125" lon="-59.03065740130841732025146484375">
        <ele>53.59999847412109375</ele>
        <time>2020-02-24T20:59:36.000Z</time>
      </trkpt>
      <trkpt lat="-34.7938545607030391693115234375" lon="-59.03065639548003673553466796875">
        <ele>53.59999847412109375</ele>
        <time>2020-02-24T20:59:46.000Z</time>
      </trkpt>
      <trkpt lat="-34.7938555665314197540283203125" lon="-59.03065882623195648193359375">
        <ele>53.59999847412109375</ele>
        <time>2020-02-24T20:59:53.000Z</time>
      </trkpt>
      <trkpt lat="-34.79386520572006702423095703125" lon="-59.03065572492778301239013671875">
        <ele>53.59999847412109375</ele>
        <time>2020-02-24T21:00:04.000Z</time>
      </trkpt>
      <trkpt lat="-34.7938689775764942169189453125" lon="-59.0306492708623409271240234375">
        <ele>53.59999847412109375</ele>
        <time>2020-02-24T21:00:16.000Z</time>
      </trkpt>
      <trkpt lat="-34.79386872611939907073974609375" lon="-59.030645750463008880615234375">
        <ele>53.59999847412109375</ele>
        <time>2020-02-24T21:00:24.000Z</time>
      </trkpt>
      <trkpt lat="-34.793873839080333709716796875" lon="-59.030643738806247711181640625">
        <ele>53.59999847412109375</ele>
        <time>2020-02-24T21:00:34.000Z</time>
      </trkpt>
      <trkpt lat="-34.7938780300319194793701171875" lon="-59.0306264720857143402099609375">
        <ele>53.59999847412109375</ele>
        <time>2020-02-24T21:00:51.000Z</time>
      </trkpt>
      <trkpt lat="-34.7938743419945240020751953125" lon="-59.03062529861927032470703125">
        <ele>53.59999847412109375</ele>
        <time>2020-02-24T21:01:00.000Z</time>
      </trkpt>
      <trkpt lat="-34.79387207888066768646240234375" lon="-59.0306271426379680633544921875">
        <ele>53.59999847412109375</ele>
        <time>2020-02-24T21:01:11.000Z</time>
      </trkpt>
      <trkpt lat="-34.79387358762323856353759765625" lon="-59.030629657208919525146484375">
        <ele>53.59999847412109375</ele>
        <time>2020-02-24T21:01:24.000Z</time>
      </trkpt>
      <trkpt lat="-34.7938741743564605712890625" lon="-59.03062404133379459381103515625">
        <ele>53.59999847412109375</ele>
        <time>2020-02-24T21:01:49.000Z</time>
      </trkpt>
      <trkpt lat="-34.7938743419945240020751953125" lon="-59.03062387369573116302490234375">
        <ele>53.59999847412109375</ele>
        <time>2020-02-24T21:02:00.000Z</time>
      </trkpt>
      <trkpt lat="-34.79387140832841396331787109375" lon="-59.0306227840483188629150390625">
        <ele>53.59999847412109375</ele>
        <time>2020-02-24T21:02:13.000Z</time>
      </trkpt>
      <trkpt lat="-34.79387107305228710174560546875" lon="-59.0306251309812068939208984375">
        <ele>53.59999847412109375</ele>
        <time>2020-02-24T21:02:34.000Z</time>
      </trkpt>
      <trkpt lat="-34.7938699834048748016357421875" lon="-59.0306258015334606170654296875">
        <ele>53.59999847412109375</ele>
        <time>2020-02-24T21:02:43.000Z</time>
      </trkpt>
      <trkpt lat="-34.79391348548233509063720703125" lon="-59.0306727401912212371826171875">
        <ele>53.59999847412109375</ele>
        <time>2020-02-24T22:07:28.000Z</time>
      </trkpt>
      <trkpt lat="-34.7939025051891803741455078125" lon="-59.03063627891242504119873046875">
        <ele>53.799999237060546875</ele>
        <time>2020-02-24T22:07:29.000Z</time>
      </trkpt>
      <trkpt lat="-34.7939075343310832977294921875" lon="-59.03062052093446254730224609375">
        <ele>54.200000762939453125</ele>
        <time>2020-02-24T22:07:32.000Z</time>
      </trkpt>
      <trkpt lat="-34.793920107185840606689453125" lon="-59.0306080318987369537353515625">
        <ele>54.200000762939453125</ele>
        <time>2020-02-24T22:07:36.000Z</time>
      </trkpt>
      <trkpt lat="-34.79397098533809185028076171875" lon="-59.03058908879756927490234375">
        <ele>54.40000152587890625</ele>
        <time>2020-02-24T22:07:50.000Z</time>
      </trkpt>
      <trkpt lat="-34.7939829714596271514892578125" lon="-59.03058397583663463592529296875">
        <ele>54.200000762939453125</ele>
        <time>2020-02-24T22:08:04.000Z</time>
      </trkpt>
      <trkpt lat="-34.79401758871972560882568359375" lon="-59.0305741690099239349365234375">
        <ele>54.200000762939453125</ele>
        <time>2020-02-24T22:08:10.000Z</time>
      </trkpt>
      <trkpt lat="-34.79403820820152759552001953125" lon="-59.03058196417987346649169921875">
        <ele>54.40000152587890625</ele>
        <time>2020-02-24T22:08:14.000Z</time>
      </trkpt>
      <trkpt lat="-34.794057905673980712890625" lon="-59.03059269301593303680419921875">
        <ele>54.40000152587890625</ele>
        <time>2020-02-24T22:08:17.000Z</time>
      </trkpt>
      <trkpt lat="-34.794145412743091583251953125" lon="-59.03064415790140628814697265625">
        <ele>54.40000152587890625</ele>
        <time>2020-02-24T22:08:24.000Z</time>
      </trkpt>
      <trkpt lat="-34.79422680102288722991943359375" lon="-59.0305803716182708740234375">
        <ele>54.40000152587890625</ele>
        <time>2020-02-24T22:08:29.000Z</time>
      </trkpt>
      <trkpt lat="-34.7943299822509288787841796875" lon="-59.0303738415241241455078125">
        <ele>54.200000762939453125</ele>
        <time>2020-02-24T22:08:37.000Z</time>
      </trkpt>
      <trkpt lat="-34.79447909630835056304931640625" lon="-59.030050300061702728271484375">
        <ele>54.40000152587890625</ele>
        <time>2020-02-24T22:08:48.000Z</time>
      </trkpt>
      <trkpt lat="-34.794607423245906829833984375" lon="-59.02976774610579013824462890625">
        <ele>54.40000152587890625</ele>
        <time>2020-02-24T22:08:57.000Z</time>
      </trkpt>
      <trkpt lat="-34.7947782464325428009033203125" lon="-59.029397182166576385498046875">
        <ele>54.40000152587890625</ele>
        <time>2020-02-24T22:09:08.000Z</time>
      </trkpt>
      <trkpt lat="-34.79494261555373668670654296875" lon="-59.02904572896659374237060546875">
        <ele>54.200000762939453125</ele>
        <time>2020-02-24T22:09:18.000Z</time>
      </trkpt>
      <trkpt lat="-34.79510539211332798004150390625" lon="-59.02869150973856449127197265625">
        <ele>54</ele>
        <time>2020-02-24T22:09:28.000Z</time>
      </trkpt>
      <trkpt lat="-34.79522257111966609954833984375" lon="-59.02843519113957881927490234375">
        <ele>53.799999237060546875</ele>
        <time>2020-02-24T22:09:36.000Z</time>
      </trkpt>
      <trkpt lat="-34.79537210427224636077880859375" lon="-59.0281078778207302093505859375">
        <ele>54</ele>
        <time>2020-02-24T22:09:46.000Z</time>
      </trkpt>
      <trkpt lat="-34.79554116725921630859375" lon="-59.02772608213126659393310546875">
        <ele>54</ele>
        <time>2020-02-24T22:09:57.000Z</time>
      </trkpt>
      <trkpt lat="-34.7956710867583751678466796875" lon="-59.0275412611663341522216796875">
        <ele>54.40000152587890625</ele>
        <time>2020-02-24T22:10:04.000Z</time>
      </trkpt>
      <trkpt lat="-34.7957693226635456085205078125" lon="-59.02756095863878726959228515625">
        <ele>54.40000152587890625</ele>
        <time>2020-02-24T22:10:08.000Z</time>
      </trkpt>
      <trkpt lat="-34.79597157798707485198974609375" lon="-59.0277001820504665374755859375">
        <ele>54.40000152587890625</ele>
        <time>2020-02-24T22:10:16.000Z</time>
      </trkpt>
      <trkpt lat="-34.7962309978902339935302734375" lon="-59.02788684703409671783447265625">
        <ele>54.200000762939453125</ele>
        <time>2020-02-24T22:10:26.000Z</time>
      </trkpt>
      <trkpt lat="-34.7964147292077541351318359375" lon="-59.02801307849586009979248046875">
        <ele>54.59999847412109375</ele>
        <time>2020-02-24T22:10:34.000Z</time>
      </trkpt>
      <trkpt lat="-34.796543307602405548095703125" lon="-59.0280606038868427276611328125">
        <ele>54.40000152587890625</ele>
        <time>2020-02-24T22:10:40.000Z</time>
      </trkpt>
      <trkpt lat="-34.79677422903478145599365234375" lon="-59.02806336991488933563232421875">
        <ele>54.799999237060546875</ele>
        <time>2020-02-24T22:10:48.000Z</time>
      </trkpt>
      <trkpt lat="-34.79709357954561710357666015625" lon="-59.0280384756624698638916015625">
        <ele>54.799999237060546875</ele>
        <time>2020-02-24T22:10:58.000Z</time>
      </trkpt>
      <trkpt lat="-34.7974695079028606414794921875" lon="-59.0280160121619701385498046875">
        <ele>54.40000152587890625</ele>
        <time>2020-02-24T22:11:09.000Z</time>
      </trkpt>
      <trkpt lat="-34.797777794301509857177734375" lon="-59.0279975719749927520751953125">
        <ele>54.799999237060546875</ele>
        <time>2020-02-24T22:11:18.000Z</time>
      </trkpt>
      <trkpt lat="-34.79801642708480358123779296875" lon="-59.02798659168183803558349609375">
        <ele>54.40000152587890625</ele>
        <time>2020-02-24T22:11:25.000Z</time>
      </trkpt>
      <trkpt lat="-34.79822446592152118682861328125" lon="-59.027975611388683319091796875">
        <ele>54.40000152587890625</ele>
        <time>2020-02-24T22:11:31.000Z</time>
      </trkpt>
      <trkpt lat="-34.79849838651716709136962890625" lon="-59.02795608155429363250732421875">
        <ele>54.40000152587890625</ele>
        <time>2020-02-24T22:11:39.000Z</time>
      </trkpt>
      <trkpt lat="-34.7989068366587162017822265625" lon="-59.02793705463409423828125">
        <ele>54.799999237060546875</ele>
        <time>2020-02-24T22:11:51.000Z</time>
      </trkpt>
      <trkpt lat="-34.79923850856721401214599609375" lon="-59.02792070992290973663330078125">
        <ele>54.59999847412109375</ele>
        <time>2020-02-24T22:12:01.000Z</time>
      </trkpt>
      <trkpt lat="-34.79952986352145671844482421875" lon="-59.02790595777332782745361328125">
        <ele>54.799999237060546875</ele>
        <time>2020-02-24T22:12:10.000Z</time>
      </trkpt>
      <trkpt lat="-34.79974645189940929412841796875" lon="-59.027904532849788665771484375">
        <ele>54.799999237060546875</ele>
        <time>2020-02-24T22:12:18.000Z</time>
      </trkpt>
      <trkpt lat="-34.7999391518533229827880859375" lon="-59.02789078652858734130859375">
        <ele>55</ele>
        <time>2020-02-24T22:12:26.000Z</time>
      </trkpt>
      <trkpt lat="-34.80008206330239772796630859375" lon="-59.02788567356765270233154296875">
        <ele>54.799999237060546875</ele>
        <time>2020-02-24T22:12:32.000Z</time>
      </trkpt>
      <trkpt lat="-34.8002378828823566436767578125" lon="-59.0278822369873523712158203125">
        <ele>54.799999237060546875</ele>
        <time>2020-02-24T22:12:39.000Z</time>
      </trkpt>
      <trkpt lat="-34.800264537334442138671875" lon="-59.02787863276898860931396484375">
        <ele>54.799999237060546875</ele>
        <time>2020-02-24T22:12:41.000Z</time>
      </trkpt>
      <trkpt lat="-34.800266884267330169677734375" lon="-59.027847535908222198486328125">
        <ele>54.799999237060546875</ele>
        <time>2020-02-24T22:12:44.000Z</time>
      </trkpt>
      <trkpt lat="-34.80026160366833209991455078125" lon="-59.027848206460475921630859375">
        <ele>54.799999237060546875</ele>
        <time>2020-02-24T22:12:45.000Z</time>
      </trkpt>
      <trkpt lat="-34.8002261482179164886474609375" lon="-59.027855582535266876220703125">
        <ele>54.799999237060546875</ele>
        <time>2020-02-24T22:12:49.000Z</time>
      </trkpt>
      <trkpt lat="-34.80011458508670330047607421875" lon="-59.02787896804511547088623046875">
        <ele>55</ele>
        <time>2020-02-24T22:12:56.000Z</time>
      </trkpt>
      <trkpt lat="-34.79992900975048542022705078125" lon="-59.027889780700206756591796875">
        <ele>54.799999237060546875</ele>
        <time>2020-02-24T22:13:04.000Z</time>
      </trkpt>
      <trkpt lat="-34.79977427981793880462646484375" lon="-59.02791501022875308990478515625">
        <ele>55.200000762939453125</ele>
        <time>2020-02-24T22:13:11.000Z</time>
      </trkpt>
      <trkpt lat="-34.7997658140957355499267578125" lon="-59.0279660560190677642822265625">
        <ele>55</ele>
        <time>2020-02-24T22:13:14.000Z</time>
      </trkpt>
      <trkpt lat="-34.7997792251408100128173828125" lon="-59.02800268493592739105224609375">
        <ele>55</ele>
        <time>2020-02-24T22:13:16.000Z</time>
      </trkpt>
      <trkpt lat="-34.799866564571857452392578125" lon="-59.02813646011054515838623046875">
        <ele>54.59999847412109375</ele>
        <time>2020-02-24T22:13:22.000Z</time>
      </trkpt>
      <trkpt lat="-34.79998801834881305694580078125" lon="-59.0282493643462657928466796875">
        <ele>54.59999847412109375</ele>
        <time>2020-02-24T22:13:28.000Z</time>
      </trkpt>
      <trkpt lat="-34.80011341162025928497314453125" lon="-59.02839445509016513824462890625">
        <ele>54.59999847412109375</ele>
        <time>2020-02-24T22:13:35.000Z</time>
      </trkpt>
      <trkpt lat="-34.80028993450105190277099609375" lon="-59.028609953820705413818359375">
        <ele>54.59999847412109375</ele>
        <time>2020-02-24T22:13:44.000Z</time>
      </trkpt>
      <trkpt lat="-34.80048389174044132232666015625" lon="-59.02882344089448451995849609375">
        <ele>54.200000762939453125</ele>
        <time>2020-02-24T22:13:53.000Z</time>
      </trkpt>
      <trkpt lat="-34.80065689422190189361572265625" lon="-59.0290147997438907623291015625">
        <ele>54.200000762939453125</ele>
        <time>2020-02-24T22:14:01.000Z</time>
      </trkpt>
      <trkpt lat="-34.800881445407867431640625" lon="-59.02926902286708354949951171875">
        <ele>54.59999847412109375</ele>
        <time>2020-02-24T22:14:11.000Z</time>
      </trkpt>
      <trkpt lat="-34.800995774567127227783203125" lon="-59.02939609251916408538818359375">
        <ele>54.59999847412109375</ele>
        <time>2020-02-24T22:14:16.000Z</time>
      </trkpt>
      <trkpt lat="-34.8012316413223743438720703125" lon="-59.0296578593552112579345703125">
        <ele>54.40000152587890625</ele>
        <time>2020-02-24T22:14:26.000Z</time>
      </trkpt>
      <trkpt lat="-34.8015035502612590789794921875" lon="-59.0299592725932598114013671875">
        <ele>54.59999847412109375</ele>
        <time>2020-02-24T22:14:37.000Z</time>
      </trkpt>
      <trkpt lat="-34.8018086515367031097412109375" lon="-59.030299074947834014892578125">
        <ele>54.59999847412109375</ele>
        <time>2020-02-24T22:14:49.000Z</time>
      </trkpt>
      <trkpt lat="-34.802063964307308197021484375" lon="-59.0305731631815433502197265625">
        <ele>54.59999847412109375</ele>
        <time>2020-02-24T22:14:59.000Z</time>
      </trkpt>
      <trkpt lat="-34.80225683189928531646728515625" lon="-59.03079100884497165679931640625">
        <ele>54.59999847412109375</ele>
        <time>2020-02-24T22:15:07.000Z</time>
      </trkpt>
      <trkpt lat="-34.80244458653032779693603515625" lon="-59.03101329691708087921142578125">
        <ele>54.40000152587890625</ele>
        <time>2020-02-24T22:15:15.000Z</time>
      </trkpt>
      <trkpt lat="-34.80263686738908290863037109375" lon="-59.03122401796281337738037109375">
        <ele>54.40000152587890625</ele>
        <time>2020-02-24T22:15:23.000Z</time>
      </trkpt>
      <trkpt lat="-34.8028979636728763580322265625" lon="-59.031518809497356414794921875">
        <ele>54.40000152587890625</ele>
        <time>2020-02-24T22:15:34.000Z</time>
      </trkpt>
      <trkpt lat="-34.8030709661543369293212890625" lon="-59.031710922718048095703125">
        <ele>54.59999847412109375</ele>
        <time>2020-02-24T22:15:41.000Z</time>
      </trkpt>
      <trkpt lat="-34.8032245226204395294189453125" lon="-59.0318753756582736968994140625">
        <ele>54.59999847412109375</ele>
        <time>2020-02-24T22:15:48.000Z</time>
      </trkpt>
      <trkpt lat="-34.80336592532694339752197265625" lon="-59.03203538618981838226318359375">
        <ele>54.40000152587890625</ele>
        <time>2020-02-24T22:15:55.000Z</time>
      </trkpt>
      <trkpt lat="-34.8035180568695068359375" lon="-59.03221140615642070770263671875">
        <ele>54.40000152587890625</ele>
        <time>2020-02-24T22:16:02.000Z</time>
      </trkpt>
      <trkpt lat="-34.8036801628768444061279296875" lon="-59.03239647857844829559326171875">
        <ele>54.40000152587890625</ele>
        <time>2020-02-24T22:16:09.000Z</time>
      </trkpt>
      <trkpt lat="-34.80386280454695224761962890625" lon="-59.0325938723981380462646484375">
        <ele>54.59999847412109375</ele>
        <time>2020-02-24T22:16:17.000Z</time>
      </trkpt>
      <trkpt lat="-34.8039963282644748687744140625" lon="-59.032736532390117645263671875">
        <ele>54.40000152587890625</ele>
        <time>2020-02-24T22:16:24.000Z</time>
      </trkpt>
      <trkpt lat="-34.80413069017231464385986328125" lon="-59.03290341608226299285888671875">
        <ele>54.59999847412109375</ele>
        <time>2020-02-24T22:16:32.000Z</time>
      </trkpt>
      <trkpt lat="-34.80426580645143985748291015625" lon="-59.033062420785427093505859375">
        <ele>54.59999847412109375</ele>
        <time>2020-02-24T22:16:39.000Z</time>
      </trkpt>
      <trkpt lat="-34.804456494748592376708984375" lon="-59.033264257013797760009765625">
        <ele>54.799999237060546875</ele>
        <time>2020-02-24T22:16:48.000Z</time>
      </trkpt>
      <trkpt lat="-34.8045984841883182525634765625" lon="-59.0334142930805683135986328125">
        <ele>54.40000152587890625</ele>
        <time>2020-02-24T22:16:55.000Z</time>
      </trkpt>
      <trkpt lat="-34.80474541895091533660888671875" lon="-59.03358218260109424591064453125">
        <ele>54.40000152587890625</ele>
        <time>2020-02-24T22:17:03.000Z</time>
      </trkpt>
      <trkpt lat="-34.80496519245207309722900390625" lon="-59.03382022865116596221923828125">
        <ele>54.59999847412109375</ele>
        <time>2020-02-24T22:17:13.000Z</time>
      </trkpt>
      <trkpt lat="-34.8050635121762752532958984375" lon="-59.03393388725817203521728515625">
        <ele>54.59999847412109375</ele>
        <time>2020-02-24T22:17:18.000Z</time>
      </trkpt>
      <trkpt lat="-34.805240370333194732666015625" lon="-59.0341371484100818634033203125">
        <ele>54.40000152587890625</ele>
        <time>2020-02-24T22:17:26.000Z</time>
      </trkpt>
      <trkpt lat="-34.8054095171391963958740234375" lon="-59.03433345258235931396484375">
        <ele>54.200000762939453125</ele>
        <time>2020-02-24T22:17:34.000Z</time>
      </trkpt>
      <trkpt lat="-34.805591739714145660400390625" lon="-59.0345324389636516571044921875">
        <ele>54.200000762939453125</ele>
        <time>2020-02-24T22:17:42.000Z</time>
      </trkpt>
      <trkpt lat="-34.8057937435805797576904296875" lon="-59.0347659587860107421875">
        <ele>54</ele>
        <time>2020-02-24T22:17:51.000Z</time>
      </trkpt>
      <trkpt lat="-34.8059405945241451263427734375" lon="-59.03493133373558521270751953125">
        <ele>53.799999237060546875</ele>
        <time>2020-02-24T22:17:58.000Z</time>
      </trkpt>
      <trkpt lat="-34.806080572307109832763671875" lon="-59.03509209863841533660888671875">
        <ele>53.799999237060546875</ele>
        <time>2020-02-24T22:18:05.000Z</time>
      </trkpt>
      <trkpt lat="-34.80620604939758777618408203125" lon="-59.0352291427552700042724609375">
        <ele>53.799999237060546875</ele>
        <time>2020-02-24T22:18:11.000Z</time>
      </trkpt>
      <trkpt lat="-34.80636647902429103851318359375" lon="-59.0353991277515888214111328125">
        <ele>53.59999847412109375</ele>
        <time>2020-02-24T22:18:18.000Z</time>
      </trkpt>
      <trkpt lat="-34.806594550609588623046875" lon="-59.03565301559865474700927734375">
        <ele>53.59999847412109375</ele>
        <time>2020-02-24T22:18:28.000Z</time>
      </trkpt>
      <trkpt lat="-34.80677685700356960296630859375" lon="-59.03585837222635746002197265625">
        <ele>53.200000762939453125</ele>
        <time>2020-02-24T22:18:36.000Z</time>
      </trkpt>
      <trkpt lat="-34.80695673264563083648681640625" lon="-59.03607160784304141998291015625">
        <ele>53.200000762939453125</ele>
        <time>2020-02-24T22:18:44.000Z</time>
      </trkpt>
      <trkpt lat="-34.807097129523754119873046875" lon="-59.03623371385037899017333984375">
        <ele>53</ele>
        <time>2020-02-24T22:18:50.000Z</time>
      </trkpt>
      <trkpt lat="-34.80718958191573619842529296875" lon="-59.03634242713451385498046875">
        <ele>53</ele>
        <time>2020-02-24T22:18:54.000Z</time>
      </trkpt>
      <trkpt lat="-34.8074018955230712890625" lon="-59.03657787479460239410400390625">
        <ele>53.200000762939453125</ele>
        <time>2020-02-24T22:19:03.000Z</time>
      </trkpt>
      <trkpt lat="-34.8077172227203845977783203125" lon="-59.0369264781475067138671875">
        <ele>52.799999237060546875</ele>
        <time>2020-02-24T22:19:16.000Z</time>
      </trkpt>
      <trkpt lat="-34.80792366899549961090087890625" lon="-59.0371678769588470458984375">
        <ele>52.799999237060546875</ele>
        <time>2020-02-24T22:19:25.000Z</time>
      </trkpt>
      <trkpt lat="-34.80811544694006443023681640625" lon="-59.0373893268406391143798828125">
        <ele>53</ele>
        <time>2020-02-24T22:19:34.000Z</time>
      </trkpt>
      <trkpt lat="-34.8083549179136753082275390625" lon="-59.0376602299511432647705078125">
        <ele>52.799999237060546875</ele>
        <time>2020-02-24T22:19:45.000Z</time>
      </trkpt>
      <trkpt lat="-34.80861718766391277313232421875" lon="-59.03792702592909336090087890625">
        <ele>53.40000152587890625</ele>
        <time>2020-02-24T22:19:57.000Z</time>
      </trkpt>
      <trkpt lat="-34.80882673524320125579833984375" lon="-59.0381093323230743408203125">
        <ele>53.799999237060546875</ele>
        <time>2020-02-24T22:20:07.000Z</time>
      </trkpt>
      <trkpt lat="-34.808917678892612457275390625" lon="-59.038212262094020843505859375">
        <ele>54.200000762939453125</ele>
        <time>2020-02-24T22:20:14.000Z</time>
      </trkpt>
      <trkpt lat="-34.80893000029027462005615234375" lon="-59.0382258407771587371826171875">
        <ele>54.40000152587890625</ele>
        <time>2020-02-24T22:20:15.000Z</time>
      </trkpt>
      <trkpt lat="-34.809035360813140869140625" lon="-59.03835047967731952667236328125">
        <ele>54.59999847412109375</ele>
        <time>2020-02-24T22:20:23.000Z</time>
      </trkpt>
      <trkpt lat="-34.8091431520879268646240234375" lon="-59.0385021083056926727294921875">
        <ele>54.59999847412109375</ele>
        <time>2020-02-24T22:20:31.000Z</time>
      </trkpt>
      <trkpt lat="-34.80929411016404628753662109375" lon="-59.03869606554508209228515625">
        <ele>53.799999237060546875</ele>
        <time>2020-02-24T22:20:38.000Z</time>
      </trkpt>
      <trkpt lat="-34.8094911687076091766357421875" lon="-59.03891868889331817626953125">
        <ele>53.59999847412109375</ele>
        <time>2020-02-24T22:20:47.000Z</time>
      </trkpt>
      <trkpt lat="-34.8097141273319721221923828125" lon="-59.03917106799781322479248046875">
        <ele>53.200000762939453125</ele>
        <time>2020-02-24T22:20:57.000Z</time>
      </trkpt>
      <trkpt lat="-34.80985217727720737457275390625" lon="-59.0393278934061527252197265625">
        <ele>53.59999847412109375</ele>
        <time>2020-02-24T22:21:03.000Z</time>
      </trkpt>
      <trkpt lat="-34.8099727928638458251953125" lon="-59.03945244848728179931640625">
        <ele>53.40000152587890625</ele>
        <time>2020-02-24T22:21:08.000Z</time>
      </trkpt>
      <trkpt lat="-34.810257442295551300048828125" lon="-59.0397610701620578765869140625">
        <ele>53.40000152587890625</ele>
        <time>2020-02-24T22:21:20.000Z</time>
      </trkpt>
      <trkpt lat="-34.810460619628429412841796875" lon="-59.03999517671763896942138671875">
        <ele>53.59999847412109375</ele>
        <time>2020-02-24T22:21:29.000Z</time>
      </trkpt>
      <trkpt lat="-34.810735546052455902099609375" lon="-59.04030631296336650848388671875">
        <ele>54</ele>
        <time>2020-02-24T22:21:41.000Z</time>
      </trkpt>
      <trkpt lat="-34.8110096342861652374267578125" lon="-59.040616191923618316650390625">
        <ele>53.799999237060546875</ele>
        <time>2020-02-24T22:21:53.000Z</time>
      </trkpt>
      <trkpt lat="-34.81129017658531665802001953125" lon="-59.040926657617092132568359375">
        <ele>54</ele>
        <time>2020-02-24T22:22:05.000Z</time>
      </trkpt>
      <trkpt lat="-34.81159150600433349609375" lon="-59.04125648550689220428466796875">
        <ele>54.40000152587890625</ele>
        <time>2020-02-24T22:22:18.000Z</time>
      </trkpt>
      <trkpt lat="-34.81186852790415287017822265625" lon="-59.04155052267014980316162109375">
        <ele>54.799999237060546875</ele>
        <time>2020-02-24T22:22:30.000Z</time>
      </trkpt>
      <trkpt lat="-34.81214479543268680572509765625" lon="-59.04185981489717960357666015625">
        <ele>55.200000762939453125</ele>
        <time>2020-02-24T22:22:42.000Z</time>
      </trkpt>
      <trkpt lat="-34.812419302761554718017578125" lon="-59.0421567857265472412109375">
        <ele>55</ele>
        <time>2020-02-24T22:22:54.000Z</time>
      </trkpt>
      <trkpt lat="-34.8126135952770709991455078125" lon="-59.04237010516226291656494140625">
        <ele>55.40000152587890625</ele>
        <time>2020-02-24T22:23:03.000Z</time>
      </trkpt>
      <trkpt lat="-34.812870584428310394287109375" lon="-59.0426655672490596771240234375">
        <ele>55.40000152587890625</ele>
        <time>2020-02-24T22:23:15.000Z</time>
      </trkpt>
      <trkpt lat="-34.81306328438222408294677734375" lon="-59.04286782257258892059326171875">
        <ele>55.59999847412109375</ele>
        <time>2020-02-24T22:23:24.000Z</time>
      </trkpt>
      <trkpt lat="-34.813206531107425689697265625" lon="-59.0430316887795925140380859375">
        <ele>55.799999237060546875</ele>
        <time>2020-02-24T22:23:31.000Z</time>
      </trkpt>
      <trkpt lat="-34.813434183597564697265625" lon="-59.043291695415973663330078125">
        <ele>55.59999847412109375</ele>
        <time>2020-02-24T22:23:42.000Z</time>
      </trkpt>
      <trkpt lat="-34.81366829015314579010009765625" lon="-59.0435563959181308746337890625">
        <ele>55.799999237060546875</ele>
        <time>2020-02-24T22:23:53.000Z</time>
      </trkpt>
      <trkpt lat="-34.8139288835227489471435546875" lon="-59.04384565539658069610595703125">
        <ele>56</ele>
        <time>2020-02-24T22:24:05.000Z</time>
      </trkpt>
      <trkpt lat="-34.8140170611441135406494140625" lon="-59.04394322074949741363525390625">
        <ele>56.200000762939453125</ele>
        <time>2020-02-24T22:24:09.000Z</time>
      </trkpt>
      <trkpt lat="-34.81414874084293842315673828125" lon="-59.04408621601760387420654296875">
        <ele>56.200000762939453125</ele>
        <time>2020-02-24T22:24:15.000Z</time>
      </trkpt>
      <trkpt lat="-34.8143214918673038482666015625" lon="-59.04427162371575832366943359375">
        <ele>56.59999847412109375</ele>
        <time>2020-02-24T22:24:23.000Z</time>
      </trkpt>
      <trkpt lat="-34.8144681751728057861328125" lon="-59.04443037696182727813720703125">
        <ele>56.200000762939453125</ele>
        <time>2020-02-24T22:24:30.000Z</time>
      </trkpt>
      <trkpt lat="-34.8147030360996723175048828125" lon="-59.04468803666532039642333984375">
        <ele>56.40000152587890625</ele>
        <time>2020-02-24T22:24:41.000Z</time>
      </trkpt>
      <trkpt lat="-34.81491769663989543914794921875" lon="-59.0449316985905170440673828125">
        <ele>56.40000152587890625</ele>
        <time>2020-02-24T22:24:51.000Z</time>
      </trkpt>
      <trkpt lat="-34.81511450372636318206787109375" lon="-59.04515122063457965850830078125">
        <ele>56.59999847412109375</ele>
        <time>2020-02-24T22:25:00.000Z</time>
      </trkpt>
      <trkpt lat="-34.8153058625757694244384765625" lon="-59.0453806333243846893310546875">
        <ele>56.799999237060546875</ele>
        <time>2020-02-24T22:25:09.000Z</time>
      </trkpt>
      <trkpt lat="-34.81549344956874847412109375" lon="-59.0455871634185314178466796875">
        <ele>56.799999237060546875</ele>
        <time>2020-02-24T22:25:18.000Z</time>
      </trkpt>
      <trkpt lat="-34.8156853951513767242431640625" lon="-59.04579729773104190826416015625">
        <ele>56.59999847412109375</ele>
        <time>2020-02-24T22:25:27.000Z</time>
      </trkpt>
      <trkpt lat="-34.8158795200288295745849609375" lon="-59.0460092760622501373291015625">
        <ele>56.799999237060546875</ele>
        <time>2020-02-24T22:25:36.000Z</time>
      </trkpt>
      <trkpt lat="-34.8160962760448455810546875" lon="-59.0462525188922882080078125">
        <ele>56.59999847412109375</ele>
        <time>2020-02-24T22:25:46.000Z</time>
      </trkpt>
      <trkpt lat="-34.816285036504268646240234375" lon="-59.04646642506122589111328125">
        <ele>56.799999237060546875</ele>
        <time>2020-02-24T22:25:55.000Z</time>
      </trkpt>
      <trkpt lat="-34.8165259324014186859130859375" lon="-59.04673707671463489532470703125">
        <ele>56.59999847412109375</ele>
        <time>2020-02-24T22:26:06.000Z</time>
      </trkpt>
      <trkpt lat="-34.8168112523853778839111328125" lon="-59.04705843888223171234130859375">
        <ele>56.40000152587890625</ele>
        <time>2020-02-24T22:26:19.000Z</time>
      </trkpt>
      <trkpt lat="-34.8170382343232631683349609375" lon="-59.0473119914531707763671875">
        <ele>56.40000152587890625</ele>
        <time>2020-02-24T22:26:29.000Z</time>
      </trkpt>
      <trkpt lat="-34.8171974904835224151611328125" lon="-59.0474865026772022247314453125">
        <ele>56.40000152587890625</ele>
        <time>2020-02-24T22:26:36.000Z</time>
      </trkpt>
      <trkpt lat="-34.81749848462641239166259765625" lon="-59.04781691730022430419921875">
        <ele>56.40000152587890625</ele>
        <time>2020-02-24T22:26:49.000Z</time>
      </trkpt>
      <trkpt lat="-34.817620776593685150146484375" lon="-59.048023782670497894287109375">
        <ele>56.200000762939453125</ele>
        <time>2020-02-24T22:26:56.000Z</time>
      </trkpt>
      <trkpt lat="-34.8175768554210662841796875" lon="-59.048148505389690399169921875">
        <ele>56.200000762939453125</ele>
        <time>2020-02-24T22:27:00.000Z</time>
      </trkpt>
      <trkpt lat="-34.817382730543613433837890625" lon="-59.04837640933692455291748046875">
        <ele>56.40000152587890625</ele>
        <time>2020-02-24T22:27:09.000Z</time>
      </trkpt>
      <trkpt lat="-34.8171270824968814849853515625" lon="-59.0486737154424190521240234375">
        <ele>55.799999237060546875</ele>
        <time>2020-02-24T22:27:20.000Z</time>
      </trkpt>
      <trkpt lat="-34.81690739281475543975830078125" lon="-59.04896951280534267425537109375">
        <ele>56</ele>
        <time>2020-02-24T22:27:30.000Z</time>
      </trkpt>
      <trkpt lat="-34.81691770255565643310546875" lon="-59.0491216443479061126708984375">
        <ele>55.799999237060546875</ele>
        <time>2020-02-24T22:27:34.000Z</time>
      </trkpt>
      <trkpt lat="-34.81707653962075710296630859375" lon="-59.04932842589914798736572265625">
        <ele>55.799999237060546875</ele>
        <time>2020-02-24T22:27:41.000Z</time>
      </trkpt>
      <trkpt lat="-34.8173222132027149200439453125" lon="-59.04959228821098804473876953125">
        <ele>55.59999847412109375</ele>
        <time>2020-02-24T22:27:51.000Z</time>
      </trkpt>
      <trkpt lat="-34.817572496831417083740234375" lon="-59.049873165786266326904296875">
        <ele>55.799999237060546875</ele>
        <time>2020-02-24T22:28:02.000Z</time>
      </trkpt>
      <trkpt lat="-34.81776854954659938812255859375" lon="-59.0500926040112972259521484375">
        <ele>55.59999847412109375</ele>
        <time>2020-02-24T22:28:11.000Z</time>
      </trkpt>
      <trkpt lat="-34.817928560078144073486328125" lon="-59.0502743236720561981201171875">
        <ele>55.59999847412109375</ele>
        <time>2020-02-24T22:28:18.000Z</time>
      </trkpt>
      <trkpt lat="-34.8181964457035064697265625" lon="-59.050572216510772705078125">
        <ele>55.59999847412109375</ele>
        <time>2020-02-24T22:28:30.000Z</time>
      </trkpt>
      <trkpt lat="-34.818381853401660919189453125" lon="-59.05077732168138027191162109375">
        <ele>55.799999237060546875</ele>
        <time>2020-02-24T22:28:39.000Z</time>
      </trkpt>
      <trkpt lat="-34.81852627359330654144287109375" lon="-59.05093967914581298828125">
        <ele>55.40000152587890625</ele>
        <time>2020-02-24T22:28:46.000Z</time>
      </trkpt>
      <trkpt lat="-34.81872576288878917694091796875" lon="-59.05116573907434940338134765625">
        <ele>55.799999237060546875</ele>
        <time>2020-02-24T22:28:56.000Z</time>
      </trkpt>
      <trkpt lat="-34.818926341831684112548828125" lon="-59.05139339156448841094970703125">
        <ele>55.799999237060546875</ele>
        <time>2020-02-24T22:29:06.000Z</time>
      </trkpt>
      <trkpt lat="-34.819113425910472869873046875" lon="-59.05159271322190761566162109375">
        <ele>55.59999847412109375</ele>
        <time>2020-02-24T22:29:15.000Z</time>
      </trkpt>
      <trkpt lat="-34.8193015158176422119140625" lon="-59.05180159024894237518310546875">
        <ele>56</ele>
        <time>2020-02-24T22:29:24.000Z</time>
      </trkpt>
      <trkpt lat="-34.81953025795519351959228515625" lon="-59.05205908231437206268310546875">
        <ele>56</ele>
        <time>2020-02-24T22:29:35.000Z</time>
      </trkpt>
      <trkpt lat="-34.81975439004600048065185546875" lon="-59.05230232514441013336181640625">
        <ele>55.59999847412109375</ele>
        <time>2020-02-24T22:29:45.000Z</time>
      </trkpt>
      <trkpt lat="-34.8199997283518314361572265625" lon="-59.052585549652576446533203125">
        <ele>56</ele>
        <time>2020-02-24T22:29:56.000Z</time>
      </trkpt>
      <trkpt lat="-34.82017583213746547698974609375" lon="-59.05278126709163188934326171875">
        <ele>56</ele>
        <time>2020-02-24T22:30:04.000Z</time>
      </trkpt>
      <trkpt lat="-34.8203945159912109375" lon="-59.05301780439913272857666015625">
        <ele>55.799999237060546875</ele>
        <time>2020-02-24T22:30:14.000Z</time>
      </trkpt>
      <trkpt lat="-34.8206401057541370391845703125" lon="-59.0532906353473663330078125">
        <ele>56.200000762939453125</ele>
        <time>2020-02-24T22:30:25.000Z</time>
      </trkpt>
      <trkpt lat="-34.82079408131539821624755859375" lon="-59.05346564948558807373046875">
        <ele>56.200000762939453125</ele>
        <time>2020-02-24T22:30:32.000Z</time>
      </trkpt>
      <trkpt lat="-34.82090773992240428924560546875" lon="-59.05358970165252685546875">
        <ele>56.200000762939453125</ele>
        <time>2020-02-24T22:30:37.000Z</time>
      </trkpt>
      <trkpt lat="-34.82118736021220684051513671875" lon="-59.05389941297471523284912109375">
        <ele>56.200000762939453125</ele>
        <time>2020-02-24T22:30:49.000Z</time>
      </trkpt>
      <trkpt lat="-34.821414090692996978759765625" lon="-59.05415338464081287384033203125">
        <ele>56</ele>
        <time>2020-02-24T22:30:59.000Z</time>
      </trkpt>
      <trkpt lat="-34.82166177593171596527099609375" lon="-59.05443082563579082489013671875">
        <ele>56.40000152587890625</ele>
        <time>2020-02-24T22:31:10.000Z</time>
      </trkpt>
      <trkpt lat="-34.82185372151434421539306640625" lon="-59.05465328134596347808837890625">
        <ele>56.200000762939453125</ele>
        <time>2020-02-24T22:31:19.000Z</time>
      </trkpt>
      <trkpt lat="-34.82202035374939441680908203125" lon="-59.0548411197960376739501953125">
        <ele>56.59999847412109375</ele>
        <time>2020-02-24T22:31:27.000Z</time>
      </trkpt>
      <trkpt lat="-34.8221646063029766082763671875" lon="-59.0550152957439422607421875">
        <ele>56.40000152587890625</ele>
        <time>2020-02-24T22:31:34.000Z</time>
      </trkpt>
      <trkpt lat="-34.82243291102349758148193359375" lon="-59.0553078241646289825439453125">
        <ele>56.40000152587890625</ele>
        <time>2020-02-24T22:31:46.000Z</time>
      </trkpt>
      <trkpt lat="-34.8226381838321685791015625" lon="-59.05553438700735569000244140625">
        <ele>56.40000152587890625</ele>
        <time>2020-02-24T22:31:55.000Z</time>
      </trkpt>
      <trkpt lat="-34.8228398524224758148193359375" lon="-59.05575893819332122802734375">
        <ele>56.799999237060546875</ele>
        <time>2020-02-24T22:32:04.000Z</time>
      </trkpt>
      <trkpt lat="-34.8231536708772182464599609375" lon="-59.05611835420131683349609375">
        <ele>56.799999237060546875</ele>
        <time>2020-02-24T22:32:18.000Z</time>
      </trkpt>
      <trkpt lat="-34.823388867080211639404296875" lon="-59.056368805468082427978515625">
        <ele>56.799999237060546875</ele>
        <time>2020-02-24T22:32:28.000Z</time>
      </trkpt>
      <trkpt lat="-34.8237135820090770721435546875" lon="-59.05673266388475894927978515625">
        <ele>56.59999847412109375</ele>
        <time>2020-02-24T22:32:42.000Z</time>
      </trkpt>
      <trkpt lat="-34.8240203596651554107666015625" lon="-59.05707917176187038421630859375">
        <ele>57</ele>
        <time>2020-02-24T22:32:55.000Z</time>
      </trkpt>
      <trkpt lat="-34.82433426193892955780029296875" lon="-59.05742886476218700408935546875">
        <ele>57</ele>
        <time>2020-02-24T22:33:08.000Z</time>
      </trkpt>
      <trkpt lat="-34.824548251926898956298828125" lon="-59.0576678328216075897216796875">
        <ele>57</ele>
        <time>2020-02-24T22:33:17.000Z</time>
      </trkpt>
      <trkpt lat="-34.8248069174587726593017578125" lon="-59.0579588524997234344482421875">
        <ele>57.200000762939453125</ele>
        <time>2020-02-24T22:33:28.000Z</time>
      </trkpt>
      <trkpt lat="-34.82499727047979831695556640625" lon="-59.05817284248769283294677734375">
        <ele>57.200000762939453125</ele>
        <time>2020-02-24T22:33:37.000Z</time>
      </trkpt>
      <trkpt lat="-34.82501621358096599578857421875" lon="-59.05819346196949481964111328125">
        <ele>57.40000152587890625</ele>
        <time>2020-02-24T22:33:38.000Z</time>
      </trkpt>
      <trkpt lat="-34.82512928545475006103515625" lon="-59.0583108924329280853271484375">
        <ele>57.200000762939453125</ele>
        <time>2020-02-24T22:33:44.000Z</time>
      </trkpt>
      <trkpt lat="-34.82528661377727985382080078125" lon="-59.0584859065711498260498046875">
        <ele>57.200000762939453125</ele>
        <time>2020-02-24T22:33:52.000Z</time>
      </trkpt>
      <trkpt lat="-34.82547269202768802642822265625" lon="-59.0586957894265651702880859375">
        <ele>57.40000152587890625</ele>
        <time>2020-02-24T22:34:01.000Z</time>
      </trkpt>
      <trkpt lat="-34.82571241445839405059814453125" lon="-59.0589643456041812896728515625">
        <ele>57.40000152587890625</ele>
        <time>2020-02-24T22:34:12.000Z</time>
      </trkpt>
      <trkpt lat="-34.825945012271404266357421875" lon="-59.0592204965651035308837890625">
        <ele>57.200000762939453125</ele>
        <time>2020-02-24T22:34:22.000Z</time>
      </trkpt>
      <trkpt lat="-34.8261946253478527069091796875" lon="-59.05950020067393779754638671875">
        <ele>57</ele>
        <time>2020-02-24T22:34:33.000Z</time>
      </trkpt>
      <trkpt lat="-34.82650031335651874542236328125" lon="-59.05984067358076572418212890625">
        <ele>57.40000152587890625</ele>
        <time>2020-02-24T22:34:46.000Z</time>
      </trkpt>
      <trkpt lat="-34.8267099447548389434814453125" lon="-59.0600714273750782012939453125">
        <ele>57.59999847412109375</ele>
        <time>2020-02-24T22:34:55.000Z</time>
      </trkpt>
      <trkpt lat="-34.82693533413112163543701171875" lon="-59.06032850034534931182861328125">
        <ele>57.59999847412109375</ele>
        <time>2020-02-24T22:35:05.000Z</time>
      </trkpt>
      <trkpt lat="-34.827113784849643707275390625" lon="-59.06052815727889537811279296875">
        <ele>57.59999847412109375</ele>
        <time>2020-02-24T22:35:13.000Z</time>
      </trkpt>
      <trkpt lat="-34.82736599631607532501220703125" lon="-59.060808531939983367919921875">
        <ele>58</ele>
        <time>2020-02-24T22:35:24.000Z</time>
      </trkpt>
      <trkpt lat="-34.8275705985724925994873046875" lon="-59.0610368549823760986328125">
        <ele>58</ele>
        <time>2020-02-24T22:35:33.000Z</time>
      </trkpt>
      <trkpt lat="-34.8277935571968555450439453125" lon="-59.0612874738872051239013671875">
        <ele>58.40000152587890625</ele>
        <time>2020-02-24T22:35:43.000Z</time>
      </trkpt>
      <trkpt lat="-34.8280691541731357574462890625" lon="-59.0615925751626491546630859375">
        <ele>58</ele>
        <time>2020-02-24T22:35:55.000Z</time>
      </trkpt>
      <trkpt lat="-34.82837182469666004180908203125" lon="-59.06191670335829257965087890625">
        <ele>58.200000762939453125</ele>
        <time>2020-02-24T22:36:08.000Z</time>
      </trkpt>
      <trkpt lat="-34.828648678958415985107421875" lon="-59.06223781406879425048828125">
        <ele>58</ele>
        <time>2020-02-24T22:36:20.000Z</time>
      </trkpt>
      <trkpt lat="-34.828983284533023834228515625" lon="-59.06261005438864231109619140625">
        <ele>58.200000762939453125</ele>
        <time>2020-02-24T22:36:34.000Z</time>
      </trkpt>
      <trkpt lat="-34.82924287207424640655517578125" lon="-59.0628984756767749786376953125">
        <ele>58.200000762939453125</ele>
        <time>2020-02-24T22:36:45.000Z</time>
      </trkpt>
      <trkpt lat="-34.8295038007199764251708984375" lon="-59.06319268047809600830078125">
        <ele>57.799999237060546875</ele>
        <time>2020-02-24T22:36:56.000Z</time>
      </trkpt>
      <trkpt lat="-34.8297659866511821746826171875" lon="-59.063481353223323822021484375">
        <ele>58.200000762939453125</ele>
        <time>2020-02-24T22:37:07.000Z</time>
      </trkpt>
      <trkpt lat="-34.82983781956136226654052734375" lon="-59.06355955637991428375244140625">
        <ele>58.200000762939453125</ele>
        <time>2020-02-24T22:37:10.000Z</time>
      </trkpt>
      <trkpt lat="-34.83004837296903133392333984375" lon="-59.06379223801195621490478515625">
        <ele>58</ele>
        <time>2020-02-24T22:37:19.000Z</time>
      </trkpt>
      <trkpt lat="-34.83020008541643619537353515625" lon="-59.0639529190957546234130859375">
        <ele>58</ele>
        <time>2020-02-24T22:37:26.000Z</time>
      </trkpt>
      <trkpt lat="-34.830439724028110504150390625" lon="-59.06421619467437267303466796875">
        <ele>57.799999237060546875</ele>
        <time>2020-02-24T22:37:37.000Z</time>
      </trkpt>
      <trkpt lat="-34.83068522997200489044189453125" lon="-59.06449330039322376251220703125">
        <ele>57.799999237060546875</ele>
        <time>2020-02-24T22:37:48.000Z</time>
      </trkpt>
      <trkpt lat="-34.83086342923343181610107421875" lon="-59.06471475027501583099365234375">
        <ele>58</ele>
        <time>2020-02-24T22:37:57.000Z</time>
      </trkpt>
      <trkpt lat="-34.83102721162140369415283203125" lon="-59.0648950450122356414794921875">
        <ele>57.59999847412109375</ele>
        <time>2020-02-24T22:38:05.000Z</time>
      </trkpt>
      <trkpt lat="-34.8312469013035297393798828125" lon="-59.06514071859419345855712890625">
        <ele>57.799999237060546875</ele>
        <time>2020-02-24T22:38:15.000Z</time>
      </trkpt>
      <trkpt lat="-34.83140188269317150115966796875" lon="-59.06530919484794139862060546875">
        <ele>57.799999237060546875</ele>
        <time>2020-02-24T22:38:22.000Z</time>
      </trkpt>
      <trkpt lat="-34.8316928185522556304931640625" lon="-59.06563877128064632415771484375">
        <ele>57.799999237060546875</ele>
        <time>2020-02-24T22:38:35.000Z</time>
      </trkpt>
      <trkpt lat="-34.8319033719599246978759765625" lon="-59.0658836066722869873046875">
        <ele>57.59999847412109375</ele>
        <time>2020-02-24T22:38:45.000Z</time>
      </trkpt>
      <trkpt lat="-34.832063801586627960205078125" lon="-59.0660606324672698974609375">
        <ele>57.799999237060546875</ele>
        <time>2020-02-24T22:38:53.000Z</time>
      </trkpt>
      <trkpt lat="-34.83225180767476558685302734375" lon="-59.066269509494304656982421875">
        <ele>57.799999237060546875</ele>
        <time>2020-02-24T22:39:02.000Z</time>
      </trkpt>
      <trkpt lat="-34.8324193619191646575927734375" lon="-59.0664557553827762603759765625">
        <ele>57.59999847412109375</ele>
        <time>2020-02-24T22:39:10.000Z</time>
      </trkpt>
      <trkpt lat="-34.832592867314815521240234375" lon="-59.06664828769862651824951171875">
        <ele>57.59999847412109375</ele>
        <time>2020-02-24T22:39:18.000Z</time>
      </trkpt>
      <trkpt lat="-34.83268096111714839935302734375" lon="-59.06674501486122608184814453125">
        <ele>57.40000152587890625</ele>
        <time>2020-02-24T22:39:22.000Z</time>
      </trkpt>
      <trkpt lat="-34.8328305780887603759765625" lon="-59.066913239657878875732421875">
        <ele>57.40000152587890625</ele>
        <time>2020-02-24T22:39:29.000Z</time>
      </trkpt>
      <trkpt lat="-34.83309066854417324066162109375" lon="-59.0672037564218044281005859375">
        <ele>57.40000152587890625</ele>
        <time>2020-02-24T22:39:41.000Z</time>
      </trkpt>
      <trkpt lat="-34.83324564993381500244140625" lon="-59.0673754177987575531005859375">
        <ele>57.40000152587890625</ele>
        <time>2020-02-24T22:39:48.000Z</time>
      </trkpt>
      <trkpt lat="-34.83342242427170276641845703125" lon="-59.06756937503814697265625">
        <ele>57.59999847412109375</ele>
        <time>2020-02-24T22:39:56.000Z</time>
      </trkpt>
      <trkpt lat="-34.833669103682041168212890625" lon="-59.06784036196768283843994140625">
        <ele>57.40000152587890625</ele>
        <time>2020-02-24T22:40:07.000Z</time>
      </trkpt>
      <trkpt lat="-34.83390949666500091552734375" lon="-59.068092741072177886962890625">
        <ele>57.59999847412109375</ele>
        <time>2020-02-24T22:40:18.000Z</time>
      </trkpt>
      <trkpt lat="-34.83398568816483020782470703125" lon="-59.06815149821341037750244140625">
        <ele>57.59999847412109375</ele>
        <time>2020-02-24T22:40:23.000Z</time>
      </trkpt>
      <trkpt lat="-34.8341088183224201202392578125" lon="-59.06810791231691837310791015625">
        <ele>57.799999237060546875</ele>
        <time>2020-02-24T22:40:28.000Z</time>
      </trkpt>
      <trkpt lat="-34.83425709418952465057373046875" lon="-59.0679054893553256988525390625">
        <ele>57.799999237060546875</ele>
        <time>2020-02-24T22:40:35.000Z</time>
      </trkpt>
      <trkpt lat="-34.83444585464894771575927734375" lon="-59.06764254905283451080322265625">
        <ele>57.59999847412109375</ele>
        <time>2020-02-24T22:40:44.000Z</time>
      </trkpt>
      <trkpt lat="-34.834669567644596099853515625" lon="-59.06734700314700603485107421875">
        <ele>57.40000152587890625</ele>
        <time>2020-02-24T22:40:54.000Z</time>
      </trkpt>
      <trkpt lat="-34.834878444671630859375" lon="-59.06707559712231159210205078125">
        <ele>57.40000152587890625</ele>
        <time>2020-02-24T22:41:03.000Z</time>
      </trkpt>
      <trkpt lat="-34.8350822925567626953125" lon="-59.06681098043918609619140625">
        <ele>57.40000152587890625</ele>
        <time>2020-02-24T22:41:12.000Z</time>
      </trkpt>
      <trkpt lat="-34.8352682031691074371337890625" lon="-59.06657494604587554931640625">
        <ele>57.59999847412109375</ele>
        <time>2020-02-24T22:41:20.000Z</time>
      </trkpt>
      <trkpt lat="-34.83552150428295135498046875" lon="-59.0662495605647563934326171875">
        <ele>57.40000152587890625</ele>
        <time>2020-02-24T22:41:30.000Z</time>
      </trkpt>
      <trkpt lat="-34.83576784841716289520263671875" lon="-59.06592476181685924530029296875">
        <ele>57.200000762939453125</ele>
        <time>2020-02-24T22:41:40.000Z</time>
      </trkpt>
      <trkpt lat="-34.83591352589428424835205078125" lon="-59.06572711654007434844970703125">
        <ele>57.40000152587890625</ele>
        <time>2020-02-24T22:41:47.000Z</time>
      </trkpt>
      <trkpt lat="-34.8360929824411869049072265625" lon="-59.065496362745761871337890625">
        <ele>57.200000762939453125</ele>
        <time>2020-02-24T22:41:55.000Z</time>
      </trkpt>
      <trkpt lat="-34.83632641844451427459716796875" lon="-59.065197966992855072021484375">
        <ele>57</ele>
        <time>2020-02-24T22:42:05.000Z</time>
      </trkpt>
      <trkpt lat="-34.8365335352718830108642578125" lon="-59.0649252198636531829833984375">
        <ele>57</ele>
        <time>2020-02-24T22:42:14.000Z</time>
      </trkpt>
      <trkpt lat="-34.8367631994187831878662109375" lon="-59.06462640501558780670166015625">
        <ele>57</ele>
        <time>2020-02-24T22:42:24.000Z</time>
      </trkpt>
      <trkpt lat="-34.8369476012885570526123046875" lon="-59.06438584439456462860107421875">
        <ele>57</ele>
        <time>2020-02-24T22:42:32.000Z</time>
      </trkpt>
      <trkpt lat="-34.83716796152293682098388671875" lon="-59.06410890631377696990966796875">
        <ele>57.200000762939453125</ele>
        <time>2020-02-24T22:42:41.000Z</time>
      </trkpt>
      <trkpt lat="-34.83740718103945255279541015625" lon="-59.0637963451445102691650390625">
        <ele>57.200000762939453125</ele>
        <time>2020-02-24T22:42:51.000Z</time>
      </trkpt>
      <trkpt lat="-34.83765595592558383941650390625" lon="-59.06348344869911670684814453125">
        <ele>57.200000762939453125</ele>
        <time>2020-02-24T22:43:01.000Z</time>
      </trkpt>
      <trkpt lat="-34.8378756456077098846435546875" lon="-59.06321774236857891082763671875">
        <ele>57.200000762939453125</ele>
        <time>2020-02-24T22:43:10.000Z</time>
      </trkpt>
      <trkpt lat="-34.8380929045379161834716796875" lon="-59.0629444085061550140380859375">
        <ele>57</ele>
        <time>2020-02-24T22:43:19.000Z</time>
      </trkpt>
      <trkpt lat="-34.83836808241903781890869140625" lon="-59.062590859830379486083984375">
        <ele>57</ele>
        <time>2020-02-24T22:43:30.000Z</time>
      </trkpt>
      <trkpt lat="-34.83861316926777362823486328125" lon="-59.06227762810885906219482421875">
        <ele>56.799999237060546875</ele>
        <time>2020-02-24T22:43:40.000Z</time>
      </trkpt>
      <trkpt lat="-34.83888231217861175537109375" lon="-59.06193028204143047332763671875">
        <ele>57</ele>
        <time>2020-02-24T22:43:51.000Z</time>
      </trkpt>
      <trkpt lat="-34.83912907540798187255859375" lon="-59.06160975806415081024169921875">
        <ele>56.799999237060546875</ele>
        <time>2020-02-24T22:44:01.000Z</time>
      </trkpt>
      <trkpt lat="-34.8393545486032962799072265625" lon="-59.06131857074797153472900390625">
        <ele>56.799999237060546875</ele>
        <time>2020-02-24T22:44:10.000Z</time>
      </trkpt>
      <trkpt lat="-34.8396070115268230438232421875" lon="-59.06098446808755397796630859375">
        <ele>56.799999237060546875</ele>
        <time>2020-02-24T22:44:20.000Z</time>
      </trkpt>
      <trkpt lat="-34.83983843587338924407958984375" lon="-59.0606886707246303558349609375">
        <ele>56.799999237060546875</ele>
        <time>2020-02-24T22:44:29.000Z</time>
      </trkpt>
      <trkpt lat="-34.8400670103728771209716796875" lon="-59.06039622612297534942626953125">
        <ele>56.799999237060546875</ele>
        <time>2020-02-24T22:44:38.000Z</time>
      </trkpt>
      <trkpt lat="-34.84027295373380184173583984375" lon="-59.06013990752398967742919921875">
        <ele>56.59999847412109375</ele>
        <time>2020-02-24T22:44:46.000Z</time>
      </trkpt>
      <trkpt lat="-34.840476550161838531494140625" lon="-59.059874452650547027587890625">
        <ele>56.59999847412109375</ele>
        <time>2020-02-24T22:44:54.000Z</time>
      </trkpt>
      <trkpt lat="-34.840581826865673065185546875" lon="-59.05974176712334156036376953125">
        <ele>56.40000152587890625</ele>
        <time>2020-02-24T22:44:58.000Z</time>
      </trkpt>
      <trkpt lat="-34.84073840081691741943359375" lon="-59.05953305773437023162841796875">
        <ele>56.40000152587890625</ele>
        <time>2020-02-24T22:45:04.000Z</time>
      </trkpt>
      <trkpt lat="-34.84101994894444942474365234375" lon="-59.05917012132704257965087890625">
        <ele>56.799999237060546875</ele>
        <time>2020-02-24T22:45:15.000Z</time>
      </trkpt>
      <trkpt lat="-34.84125246293842792510986328125" lon="-59.0588721446692943572998046875">
        <ele>56.59999847412109375</ele>
        <time>2020-02-24T22:45:24.000Z</time>
      </trkpt>
      <trkpt lat="-34.841431081295013427734375" lon="-59.0586421452462673187255859375">
        <ele>56.799999237060546875</ele>
        <time>2020-02-24T22:45:31.000Z</time>
      </trkpt>
      <trkpt lat="-34.841642640531063079833984375" lon="-59.05836998485028743743896484375">
        <ele>56.59999847412109375</ele>
        <time>2020-02-24T22:45:39.000Z</time>
      </trkpt>
      <trkpt lat="-34.84191563911736011505126953125" lon="-59.05803118832409381866455078125">
        <ele>56.59999847412109375</ele>
        <time>2020-02-24T22:45:49.000Z</time>
      </trkpt>
      <trkpt lat="-34.84218453057110309600830078125" lon="-59.05768551863729953765869140625">
        <ele>56.799999237060546875</ele>
        <time>2020-02-24T22:45:59.000Z</time>
      </trkpt>
      <trkpt lat="-34.84240413643419742584228515625" lon="-59.05739081092178821563720703125">
        <ele>56.799999237060546875</ele>
        <time>2020-02-24T22:46:08.000Z</time>
      </trkpt>
      <trkpt lat="-34.8426608741283416748046875" lon="-59.05707665719091892242431640625">
        <ele>56.59999847412109375</ele>
        <time>2020-02-24T22:46:18.000Z</time>
      </trkpt>
      <trkpt lat="-34.84286614693701267242431640625" lon="-59.05681162141263484954833984375">
        <ele>57</ele>
        <time>2020-02-24T22:46:26.000Z</time>
      </trkpt>
      <trkpt lat="-34.84307167120277881622314453125" lon="-59.056543149054050445556640625">
        <ele>56.799999237060546875</ele>
        <time>2020-02-24T22:46:34.000Z</time>
      </trkpt>
      <trkpt lat="-34.84338305890560150146484375" lon="-59.0561456792056560516357421875">
        <ele>57</ele>
        <time>2020-02-24T22:46:46.000Z</time>
      </trkpt>
      <trkpt lat="-34.84360794536769390106201171875" lon="-59.05585549771785736083984375">
        <ele>57.200000762939453125</ele>
        <time>2020-02-24T22:46:55.000Z</time>
      </trkpt>
      <trkpt lat="-34.8438370227813720703125" lon="-59.05556271784007549285888671875">
        <ele>56.59999847412109375</ele>
        <time>2020-02-24T22:47:04.000Z</time>
      </trkpt>
      <trkpt lat="-34.844044558703899383544921875" lon="-59.05529986135661602020263671875">
        <ele>56.59999847412109375</ele>
        <time>2020-02-24T22:47:12.000Z</time>
      </trkpt>
      <trkpt lat="-34.84429911710321903228759765625" lon="-59.05497749336063861846923828125">
        <ele>56.59999847412109375</ele>
        <time>2020-02-24T22:47:22.000Z</time>
      </trkpt>
      <trkpt lat="-34.844574294984340667724609375" lon="-59.05461489222943782806396484375">
        <ele>56.59999847412109375</ele>
        <time>2020-02-24T22:47:33.000Z</time>
      </trkpt>
      <trkpt lat="-34.8448752053081989288330078125" lon="-59.0542218647897243499755859375">
        <ele>56.59999847412109375</ele>
        <time>2020-02-24T22:47:45.000Z</time>
      </trkpt>
      <trkpt lat="-34.8451239801943302154541015625" lon="-59.0539050288498401641845703125">
        <ele>56.40000152587890625</ele>
        <time>2020-02-24T22:47:55.000Z</time>
      </trkpt>
      <trkpt lat="-34.84534149058163166046142578125" lon="-59.05362096615135669708251953125">
        <ele>56.40000152587890625</ele>
        <time>2020-02-24T22:48:04.000Z</time>
      </trkpt>
      <trkpt lat="-34.84555774368345737457275390625" lon="-59.05333153903484344482421875">
        <ele>56.59999847412109375</ele>
        <time>2020-02-24T22:48:13.000Z</time>
      </trkpt>
      <trkpt lat="-34.84582076780498027801513671875" lon="-59.05301428399980068206787109375">
        <ele>56.40000152587890625</ele>
        <time>2020-02-24T22:48:23.000Z</time>
      </trkpt>
      <trkpt lat="-34.84610759653151035308837890625" lon="-59.05264480970799922943115234375">
        <ele>56.59999847412109375</ele>
        <time>2020-02-24T22:48:34.000Z</time>
      </trkpt>
      <trkpt lat="-34.846368692815303802490234375" lon="-59.0522977150976657867431640625">
        <ele>56.59999847412109375</ele>
        <time>2020-02-24T22:48:44.000Z</time>
      </trkpt>
      <trkpt lat="-34.846658371388912200927734375" lon="-59.0519302524626255035400390625">
        <ele>56.40000152587890625</ele>
        <time>2020-02-24T22:48:55.000Z</time>
      </trkpt>
      <trkpt lat="-34.846860207617282867431640625" lon="-59.05166781507432460784912109375">
        <ele>56.59999847412109375</ele>
        <time>2020-02-24T22:49:03.000Z</time>
      </trkpt>
      <trkpt lat="-34.84706095419824123382568359375" lon="-59.05139925889670848846435546875">
        <ele>56.40000152587890625</ele>
        <time>2020-02-24T22:49:11.000Z</time>
      </trkpt>
      <trkpt lat="-34.84726488590240478515625" lon="-59.05113657005131244659423828125">
        <ele>56.40000152587890625</ele>
        <time>2020-02-24T22:49:19.000Z</time>
      </trkpt>
      <trkpt lat="-34.84745255671441555023193359375" lon="-59.050888717174530029296875">
        <ele>56.40000152587890625</ele>
        <time>2020-02-24T22:49:27.000Z</time>
      </trkpt>
      <trkpt lat="-34.84759538434445858001708984375" lon="-59.05072770081460475921630859375">
        <ele>56.200000762939453125</ele>
        <time>2020-02-24T22:49:33.000Z</time>
      </trkpt>
      <trkpt lat="-34.8477562330663204193115234375" lon="-59.05056676827371120452880859375">
        <ele>56.200000762939453125</ele>
        <time>2020-02-24T22:49:40.000Z</time>
      </trkpt>
      <trkpt lat="-34.847873412072658538818359375" lon="-59.05059794895350933074951171875">
        <ele>56</ele>
        <time>2020-02-24T22:49:44.000Z</time>
      </trkpt>
      <trkpt lat="-34.84803694300353527069091796875" lon="-59.05077497474849224090576171875">
        <ele>55.799999237060546875</ele>
        <time>2020-02-24T22:49:51.000Z</time>
      </trkpt>
      <trkpt lat="-34.8481947742402553558349609375" lon="-59.05095183290541172027587890625">
        <ele>56</ele>
        <time>2020-02-24T22:49:58.000Z</time>
      </trkpt>
      <trkpt lat="-34.84835721552371978759765625" lon="-59.0511381626129150390625">
        <ele>56.200000762939453125</ele>
        <time>2020-02-24T22:50:05.000Z</time>
      </trkpt>
      <trkpt lat="-34.84853834845125675201416015625" lon="-59.0513321198523044586181640625">
        <ele>56.200000762939453125</ele>
        <time>2020-02-24T22:50:13.000Z</time>
      </trkpt>
      <trkpt lat="-34.84871017746627330780029296875" lon="-59.0515284240245819091796875">
        <ele>56.40000152587890625</ele>
        <time>2020-02-24T22:50:21.000Z</time>
      </trkpt>
      <trkpt lat="-34.84894059598445892333984375" lon="-59.05178298242390155792236328125">
        <ele>56.200000762939453125</ele>
        <time>2020-02-24T22:50:31.000Z</time>
      </trkpt>
      <trkpt lat="-34.84918065369129180908203125" lon="-59.05205321498215198516845703125">
        <ele>56.200000762939453125</ele>
        <time>2020-02-24T22:50:41.000Z</time>
      </trkpt>
      <trkpt lat="-34.849419705569744110107421875" lon="-59.05232629738748073577880859375">
        <ele>56</ele>
        <time>2020-02-24T22:50:51.000Z</time>
      </trkpt>
      <trkpt lat="-34.8496575839817523956298828125" lon="-59.05260055325925350189208984375">
        <ele>56.200000762939453125</ele>
        <time>2020-02-24T22:51:01.000Z</time>
      </trkpt>
      <trkpt lat="-34.849920608103275299072265625" lon="-59.05290632508695125579833984375">
        <ele>56.200000762939453125</ele>
        <time>2020-02-24T22:51:12.000Z</time>
      </trkpt>
      <trkpt lat="-34.8501497693359851837158203125" lon="-59.0531699359416961669921875">
        <ele>56.200000762939453125</ele>
        <time>2020-02-24T22:51:22.000Z</time>
      </trkpt>
      <trkpt lat="-34.8503640107810497283935546875" lon="-59.05343438498675823211669921875">
        <ele>56.200000762939453125</ele>
        <time>2020-02-24T22:51:32.000Z</time>
      </trkpt>
      <trkpt lat="-34.850572384893894195556640625" lon="-59.053672850131988525390625">
        <ele>56.200000762939453125</ele>
        <time>2020-02-24T22:51:41.000Z</time>
      </trkpt>
      <trkpt lat="-34.85079777427017688751220703125" lon="-59.053929336369037628173828125">
        <ele>56.200000762939453125</ele>
        <time>2020-02-24T22:51:51.000Z</time>
      </trkpt>
      <trkpt lat="-34.85096859745681285858154296875" lon="-59.0541212819516658782958984375">
        <ele>56</ele>
        <time>2020-02-24T22:51:59.000Z</time>
      </trkpt>
      <trkpt lat="-34.851207733154296875" lon="-59.05438137240707874298095703125">
        <ele>56.200000762939453125</ele>
        <time>2020-02-24T22:52:09.000Z</time>
      </trkpt>
      <trkpt lat="-34.85150101594626903533935546875" lon="-59.0547190792858600616455078125">
        <ele>56.200000762939453125</ele>
        <time>2020-02-24T22:52:21.000Z</time>
      </trkpt>
      <trkpt lat="-34.85168910585343837738037109375" lon="-59.05493910424411296844482421875">
        <ele>56.200000762939453125</ele>
        <time>2020-02-24T22:52:29.000Z</time>
      </trkpt>
      <trkpt lat="-34.85190653242170810699462890625" lon="-59.05518754385411739349365234375">
        <ele>56</ele>
        <time>2020-02-24T22:52:38.000Z</time>
      </trkpt>
      <trkpt lat="-34.85211708582937717437744140625" lon="-59.05542894266545772552490234375">
        <ele>56</ele>
        <time>2020-02-24T22:52:47.000Z</time>
      </trkpt>
      <trkpt lat="-34.852425791323184967041015625" lon="-59.055784754455089569091796875">
        <ele>56</ele>
        <time>2020-02-24T22:53:00.000Z</time>
      </trkpt>
      <trkpt lat="-34.85271119512617588043212890625" lon="-59.0561042726039886474609375">
        <ele>56</ele>
        <time>2020-02-24T22:53:12.000Z</time>
      </trkpt>
      <trkpt lat="-34.8529176414012908935546875" lon="-59.056341312825679779052734375">
        <ele>56</ele>
        <time>2020-02-24T22:53:21.000Z</time>
      </trkpt>
      <trkpt lat="-34.85313598997890949249267578125" lon="-59.056592769920825958251953125">
        <ele>56.200000762939453125</ele>
        <time>2020-02-24T22:53:31.000Z</time>
      </trkpt>
      <trkpt lat="-34.85329340212047100067138671875" lon="-59.0567679516971111297607421875">
        <ele>56.40000152587890625</ele>
        <time>2020-02-24T22:53:39.000Z</time>
      </trkpt>
      <trkpt lat="-34.8533063940703868865966796875" lon="-59.05677909962832927703857421875">
        <ele>56.59999847412109375</ele>
        <time>2020-02-24T22:53:43.000Z</time>
      </trkpt>
      <trkpt lat="-34.85330547206103801727294921875" lon="-59.05677641741931438446044921875">
        <ele>56.40000152587890625</ele>
        <time>2020-02-24T22:53:59.000Z</time>
      </trkpt>
      <trkpt lat="-34.85330413095653057098388671875" lon="-59.0567759983241558074951171875">
        <ele>56.40000152587890625</ele>
        <time>2020-02-24T22:54:12.000Z</time>
      </trkpt>
      <trkpt lat="-34.85330513678491115570068359375" lon="-59.05677817761898040771484375">
        <ele>35.59999847412109375</ele>
        <time>2020-02-24T22:55:16.000Z</time>
      </trkpt>
      <trkpt lat="-34.85330446623265743255615234375" lon="-59.056778512895107269287109375">
        <ele>35.40000152587890625</ele>
        <time>2020-02-24T22:55:34.000Z</time>
      </trkpt>
      <trkpt lat="-34.85330413095653057098388671875" lon="-59.0567780099809169769287109375">
        <ele>35.40000152587890625</ele>
        <time>2020-02-24T22:55:46.000Z</time>
      </trkpt>
      <trkpt lat="-34.85331955365836620330810546875" lon="-59.056796617805957794189453125">
        <ele>35.200000762939453125</ele>
        <time>2020-02-24T22:56:14.000Z</time>
      </trkpt>
      <trkpt lat="-34.853394068777561187744140625" lon="-59.05685353092849254608154296875">
        <ele>35.200000762939453125</ele>
        <time>2020-02-24T22:56:19.000Z</time>
      </trkpt>
      <trkpt lat="-34.8535870201885700225830078125" lon="-59.056966938078403472900390625">
        <ele>35.40000152587890625</ele>
        <time>2020-02-24T22:56:27.000Z</time>
      </trkpt>
      <trkpt lat="-34.85376379452645778656005859375" lon="-59.057116806507110595703125">
        <ele>35.200000762939453125</ele>
        <time>2020-02-24T22:56:34.000Z</time>
      </trkpt>
      <trkpt lat="-34.85398717224597930908203125" lon="-59.05736516229808330535888671875">
        <ele>35</ele>
        <time>2020-02-24T22:56:44.000Z</time>
      </trkpt>
      <trkpt lat="-34.85421708784997463226318359375" lon="-59.05762583948671817779541015625">
        <ele>35</ele>
        <time>2020-02-24T22:56:54.000Z</time>
      </trkpt>
      <trkpt lat="-34.854379780590534210205078125" lon="-59.0578133426606655120849609375">
        <ele>35.200000762939453125</ele>
        <time>2020-02-24T22:57:01.000Z</time>
      </trkpt>
      <trkpt lat="-34.85459276475012302398681640625" lon="-59.05805356800556182861328125">
        <ele>35.200000762939453125</ele>
        <time>2020-02-24T22:57:10.000Z</time>
      </trkpt>
      <trkpt lat="-34.85481454990804195404052734375" lon="-59.0583010017871856689453125">
        <ele>35.200000762939453125</ele>
        <time>2020-02-24T22:57:19.000Z</time>
      </trkpt>
      <trkpt lat="-34.8550370894372463226318359375" lon="-59.0585477650165557861328125">
        <ele>35.40000152587890625</ele>
        <time>2020-02-24T22:57:28.000Z</time>
      </trkpt>
      <trkpt lat="-34.85514630563557147979736328125" lon="-59.05873761512339115142822265625">
        <ele>35.200000762939453125</ele>
        <time>2020-02-24T22:57:34.000Z</time>
      </trkpt>
      <trkpt lat="-34.85509517602622509002685546875" lon="-59.05886937864124774932861328125">
        <ele>35.59999847412109375</ele>
        <time>2020-02-24T22:57:38.000Z</time>
      </trkpt>
      <trkpt lat="-34.8549425415694713592529296875" lon="-59.059052355587482452392578125">
        <ele>35.59999847412109375</ele>
        <time>2020-02-24T22:57:45.000Z</time>
      </trkpt>
      <trkpt lat="-34.85466300509870052337646484375" lon="-59.05939743854105472564697265625">
        <ele>35.799999237060546875</ele>
        <time>2020-02-24T22:57:57.000Z</time>
      </trkpt>
      <trkpt lat="-34.8543499410152435302734375" lon="-59.05978350900113582611083984375">
        <ele>35.799999237060546875</ele>
        <time>2020-02-24T22:58:10.000Z</time>
      </trkpt>
      <trkpt lat="-34.85411164350807666778564453125" lon="-59.060081653296947479248046875">
        <ele>35.799999237060546875</ele>
        <time>2020-02-24T22:58:20.000Z</time>
      </trkpt>
      <trkpt lat="-34.85389824025332927703857421875" lon="-59.060351885855197906494140625">
        <ele>35.799999237060546875</ele>
        <time>2020-02-24T22:58:29.000Z</time>
      </trkpt>
      <trkpt lat="-34.85364393331110477447509765625" lon="-59.060681797564029693603515625">
        <ele>35.799999237060546875</ele>
        <time>2020-02-24T22:58:40.000Z</time>
      </trkpt>
      <trkpt lat="-34.8534405045211315155029296875" lon="-59.060941636562347412109375">
        <ele>36</ele>
        <time>2020-02-24T22:58:49.000Z</time>
      </trkpt>
      <trkpt lat="-34.85323875211179256439208984375" lon="-59.06120248138904571533203125">
        <ele>35.59999847412109375</ele>
        <time>2020-02-24T22:58:58.000Z</time>
      </trkpt>
      <trkpt lat="-34.85301679931581020355224609375" lon="-59.06149459071457386016845703125">
        <ele>35.59999847412109375</ele>
        <time>2020-02-24T22:59:08.000Z</time>
      </trkpt>
      <trkpt lat="-34.8527702875435352325439453125" lon="-59.06181268393993377685546875">
        <ele>35.59999847412109375</ele>
        <time>2020-02-24T22:59:19.000Z</time>
      </trkpt>
      <trkpt lat="-34.8526519350707530975341796875" lon="-59.062025584280490875244140625">
        <ele>35.59999847412109375</ele>
        <time>2020-02-24T22:59:26.000Z</time>
      </trkpt>
      <trkpt lat="-34.85269493423402309417724609375" lon="-59.0621531568467617034912109375">
        <ele>35.799999237060546875</ele>
        <time>2020-02-24T22:59:31.000Z</time>
      </trkpt>
      <trkpt lat="-34.85278897918760776519775390625" lon="-59.06226891092956066131591796875">
        <ele>35.799999237060546875</ele>
        <time>2020-02-24T22:59:36.000Z</time>
      </trkpt>
      <trkpt lat="-34.85290280543267726898193359375" lon="-59.0624036081135272979736328125">
        <ele>35.799999237060546875</ele>
        <time>2020-02-24T22:59:43.000Z</time>
      </trkpt>
      <trkpt lat="-34.8529312200844287872314453125" lon="-59.06242825090885162353515625">
        <ele>35.799999237060546875</ele>
        <time>2020-02-24T22:59:48.000Z</time>
      </trkpt>
      <trkpt lat="-34.85293247736990451812744140625" lon="-59.06243252567946910858154296875">
        <ele>35.799999237060546875</ele>
        <time>2020-02-24T23:00:04.000Z</time>
      </trkpt>
      <trkpt lat="-34.85293281264603137969970703125" lon="-59.0624331124126911163330078125">
        <ele>35.799999237060546875</ele>
        <time>2020-02-24T23:00:19.000Z</time>
      </trkpt>
      <trkpt lat="-34.85293348319828510284423828125" lon="-59.06243973411619663238525390625">
        <ele>35.799999237060546875</ele>
        <time>2020-02-24T23:00:37.000Z</time>
      </trkpt>
      <trkpt lat="-34.852950163185596466064453125" lon="-59.06244711019098758697509765625">
        <ele>35.799999237060546875</ele>
        <time>2020-02-24T23:00:46.000Z</time>
      </trkpt>
      <trkpt lat="-34.852954857051372528076171875" lon="-59.062455408275127410888671875">
        <ele>35.799999237060546875</ele>
        <time>2020-02-24T23:00:55.000Z</time>
      </trkpt>
      <trkpt lat="-34.8529536835849285125732421875" lon="-59.062454402446746826171875">
        <ele>35.799999237060546875</ele>
        <time>2020-02-24T23:01:02.000Z</time>
      </trkpt>
      <trkpt lat="-34.85295510850846767425537109375" lon="-59.0624545700848102569580078125">
        <ele>35.799999237060546875</ele>
        <time>2020-02-24T23:01:34.000Z</time>
      </trkpt>
      <trkpt lat="-34.852956198155879974365234375" lon="-59.06245297752320766448974609375">
        <ele>35.799999237060546875</ele>
        <time>2020-02-24T23:01:57.000Z</time>
      </trkpt>
      <trkpt lat="-34.852955527603626251220703125" lon="-59.06245364807546138763427734375">
        <ele>35.799999237060546875</ele>
        <time>2020-02-24T23:02:26.000Z</time>
      </trkpt>
      <trkpt lat="-34.85295762307941913604736328125" lon="-59.06245507299900054931640625">
        <ele>35.799999237060546875</ele>
        <time>2020-02-24T23:03:40.000Z</time>
      </trkpt>
      <trkpt lat="-34.85295795835554599761962890625" lon="-59.0624545700848102569580078125">
        <ele>35.799999237060546875</ele>
        <time>2020-02-24T23:04:03.000Z</time>
      </trkpt>
      <trkpt lat="-34.8529590480029582977294921875" lon="-59.06245465390384197235107421875">
        <ele>35.799999237060546875</ele>
        <time>2020-02-24T23:04:45.000Z</time>
      </trkpt>
      <trkpt lat="-34.85295779071748256683349609375" lon="-59.06245716847479343414306640625">
        <ele>35.799999237060546875</ele>
        <time>2020-02-24T23:04:58.000Z</time>
      </trkpt>
      <trkpt lat="-34.85295946709811687469482421875" lon="-59.06245951540768146514892578125">
        <ele>35.799999237060546875</ele>
        <time>2020-02-24T23:05:23.000Z</time>
      </trkpt>
      <trkpt lat="-34.85295988619327545166015625" lon="-59.0624609403312206268310546875">
        <ele>35.799999237060546875</ele>
        <time>2020-02-24T23:05:44.000Z</time>
      </trkpt>
      <trkpt lat="-34.85296080820262432098388671875" lon="-59.0624599345028400421142578125">
        <ele>35.799999237060546875</ele>
        <time>2020-02-24T23:06:08.000Z</time>
      </trkpt>
      <trkpt lat="-34.8529624007642269134521484375" lon="-59.0624575875699520111083984375">
        <ele>35.799999237060546875</ele>
        <time>2020-02-24T23:06:34.000Z</time>
      </trkpt>
      <trkpt lat="-34.85296726226806640625" lon="-59.0624637901782989501953125">
        <ele>35.799999237060546875</ele>
        <time>2020-02-24T23:06:44.000Z</time>
      </trkpt>
      <trkpt lat="-34.85297421924769878387451171875" lon="-59.06247376464307308197021484375">
        <ele>35.799999237060546875</ele>
        <time>2020-02-24T23:06:47.000Z</time>
      </trkpt>
      <trkpt lat="-34.85300456173717975616455078125" lon="-59.06250209547579288482666015625">
        <ele>35.799999237060546875</ele>
        <time>2020-02-24T23:06:50.000Z</time>
      </trkpt>
      <trkpt lat="-34.85309642739593982696533203125" lon="-59.06261675991117954254150390625">
        <ele>35.200000762939453125</ele>
        <time>2020-02-24T23:06:57.000Z</time>
      </trkpt>
      <trkpt lat="-34.853181503713130950927734375" lon="-59.062736369669437408447265625">
        <ele>35</ele>
        <time>2020-02-24T23:07:03.000Z</time>
      </trkpt>
      <trkpt lat="-34.85330312512814998626708984375" lon="-59.0628820471465587615966796875">
        <ele>35</ele>
        <time>2020-02-24T23:07:10.000Z</time>
      </trkpt>
      <trkpt lat="-34.85341561026871204376220703125" lon="-59.0630077756941318511962890625">
        <ele>35.200000762939453125</ele>
        <time>2020-02-24T23:07:16.000Z</time>
      </trkpt>
      <trkpt lat="-34.8535612039268016815185546875" lon="-59.06318153254687786102294921875">
        <ele>35</ele>
        <time>2020-02-24T23:07:24.000Z</time>
      </trkpt>
      <trkpt lat="-34.8537332005798816680908203125" lon="-59.063374064862728118896484375">
        <ele>35</ele>
        <time>2020-02-24T23:07:33.000Z</time>
      </trkpt>
      <trkpt lat="-34.853917770087718963623046875" lon="-59.06358160078525543212890625">
        <ele>35.40000152587890625</ele>
        <time>2020-02-24T23:07:42.000Z</time>
      </trkpt>
      <trkpt lat="-34.85408985055983066558837890625" lon="-59.063794501125812530517578125">
        <ele>35.200000762939453125</ele>
        <time>2020-02-24T23:07:51.000Z</time>
      </trkpt>
      <trkpt lat="-34.8542465083301067352294921875" lon="-59.06398066319525241851806640625">
        <ele>35.200000762939453125</ele>
        <time>2020-02-24T23:07:59.000Z</time>
      </trkpt>
      <trkpt lat="-34.8543987236917018890380859375" lon="-59.06416204757988452911376953125">
        <ele>35.200000762939453125</ele>
        <time>2020-02-24T23:08:07.000Z</time>
      </trkpt>
      <trkpt lat="-34.854553453624248504638671875" lon="-59.064326919615268707275390625">
        <ele>35.40000152587890625</ele>
        <time>2020-02-24T23:08:14.000Z</time>
      </trkpt>
      <trkpt lat="-34.8547118715941905975341796875" lon="-59.064514003694057464599609375">
        <ele>35.200000762939453125</ele>
        <time>2020-02-24T23:08:22.000Z</time>
      </trkpt>
      <trkpt lat="-34.854875318706035614013671875" lon="-59.0646985732018947601318359375">
        <ele>35.200000762939453125</ele>
        <time>2020-02-24T23:08:30.000Z</time>
      </trkpt>
      <trkpt lat="-34.85503063537180423736572265625" lon="-59.06487442553043365478515625">
        <ele>35.40000152587890625</ele>
        <time>2020-02-24T23:08:37.000Z</time>
      </trkpt>
      <trkpt lat="-34.8552144505083560943603515625" lon="-59.0650670416653156280517578125">
        <ele>35.200000762939453125</ele>
        <time>2020-02-24T23:08:45.000Z</time>
      </trkpt>
      <trkpt lat="-34.85539943911135196685791015625" lon="-59.06526678241789340972900390625">
        <ele>35.200000762939453125</ele>
        <time>2020-02-24T23:08:53.000Z</time>
      </trkpt>
      <trkpt lat="-34.85551343299448490142822265625" lon="-59.06540416181087493896484375">
        <ele>35.200000762939453125</ele>
        <time>2020-02-24T23:08:59.000Z</time>
      </trkpt>
      <trkpt lat="-34.85567419789731502532958984375" lon="-59.0655751526355743408203125">
        <ele>35.200000762939453125</ele>
        <time>2020-02-24T23:09:07.000Z</time>
      </trkpt>
      <trkpt lat="-34.85578852705657482147216796875" lon="-59.0657124482095241546630859375">
        <ele>35.200000762939453125</ele>
        <time>2020-02-24T23:09:13.000Z</time>
      </trkpt>
      <trkpt lat="-34.85593445599079132080078125" lon="-59.06588301993906497955322265625">
        <ele>35.200000762939453125</ele>
        <time>2020-02-24T23:09:20.000Z</time>
      </trkpt>
      <trkpt lat="-34.85608658753335475921630859375" lon="-59.0660497359931468963623046875">
        <ele>35.200000762939453125</ele>
        <time>2020-02-24T23:09:27.000Z</time>
      </trkpt>
      <trkpt lat="-34.85621474683284759521484375" lon="-59.0662059746682643890380859375">
        <ele>35.200000762939453125</ele>
        <time>2020-02-24T23:09:34.000Z</time>
      </trkpt>
      <trkpt lat="-34.85634743236005306243896484375" lon="-59.0663605369627475738525390625">
        <ele>35.59999847412109375</ele>
        <time>2020-02-24T23:09:42.000Z</time>
      </trkpt>
      <trkpt lat="-34.8564554750919342041015625" lon="-59.06645558774471282958984375">
        <ele>35.200000762939453125</ele>
        <time>2020-02-24T23:09:49.000Z</time>
      </trkpt>
      <trkpt lat="-34.85649378038942813873291015625" lon="-59.066483080387115478515625">
        <ele>35.200000762939453125</ele>
        <time>2020-02-24T23:09:55.000Z</time>
      </trkpt>
      <trkpt lat="-34.856496714055538177490234375" lon="-59.06648400239646434783935546875">
        <ele>35.200000762939453125</ele>
        <time>2020-02-24T23:10:08.000Z</time>
      </trkpt>
      <trkpt lat="-34.85648833215236663818359375" lon="-59.066474698483943939208984375">
        <ele>35.200000762939453125</ele>
        <time>2020-02-24T23:10:21.000Z</time>
      </trkpt>
      <trkpt lat="-34.85648967325687408447265625" lon="-59.066474698483943939208984375">
        <ele>35.200000762939453125</ele>
        <time>2020-02-24T23:10:33.000Z</time>
      </trkpt>
      <trkpt lat="-34.85649059526622295379638671875" lon="-59.06647461466491222381591796875">
        <ele>35.200000762939453125</ele>
        <time>2020-02-24T23:10:53.000Z</time>
      </trkpt>
      <trkpt lat="-34.8564908467233180999755859375" lon="-59.066474027931690216064453125">
        <ele>35.200000762939453125</ele>
        <time>2020-02-24T23:11:23.000Z</time>
      </trkpt>
      <trkpt lat="-34.85649168491363525390625" lon="-59.06647411175072193145751953125">
        <ele>35.200000762939453125</ele>
        <time>2020-02-24T23:11:52.000Z</time>
      </trkpt>
      <trkpt lat="-34.85649176873266696929931640625" lon="-59.0664752013981342315673828125">
        <ele>35.200000762939453125</ele>
        <time>2020-02-24T23:12:09.000Z</time>
      </trkpt>
      <trkpt lat="-34.85649361275136470794677734375" lon="-59.06647545285522937774658203125">
        <ele>35.200000762939453125</ele>
        <time>2020-02-24T23:12:34.000Z</time>
      </trkpt>
      <trkpt lat="-34.856510125100612640380859375" lon="-59.066482745110988616943359375">
        <ele>35.200000762939453125</ele>
        <time>2020-02-24T23:13:00.000Z</time>
      </trkpt>
      <trkpt lat="-34.85648958943784236907958984375" lon="-59.06647930853068828582763671875">
        <ele>35.200000762939453125</ele>
        <time>2020-02-24T23:13:07.000Z</time>
      </trkpt>
      <trkpt lat="-34.8564881645143032073974609375" lon="-59.066468663513660430908203125">
        <ele>35.200000762939453125</ele>
        <time>2020-02-24T23:13:15.000Z</time>
      </trkpt>
      <trkpt lat="-34.856487996876239776611328125" lon="-59.06646874733269214630126953125">
        <ele>35.200000762939453125</ele>
        <time>2020-02-24T23:13:29.000Z</time>
      </trkpt>
      <trkpt lat="-34.85648808069527149200439453125" lon="-59.06646640039980411529541015625">
        <ele>35.200000762939453125</ele>
        <time>2020-02-24T23:13:52.000Z</time>
      </trkpt>
      <trkpt lat="-34.8564881645143032073974609375" lon="-59.0664651431143283843994140625">
        <ele>35.200000762939453125</ele>
        <time>2020-02-24T23:14:22.000Z</time>
      </trkpt>
      <trkpt lat="-34.856488667428493499755859375" lon="-59.0664634667336940765380859375">
        <ele>35.200000762939453125</ele>
        <time>2020-02-24T23:14:47.000Z</time>
      </trkpt>
      <trkpt lat="-34.8564895056188106536865234375" lon="-59.06647503376007080078125">
        <ele>35.200000762939453125</ele>
        <time>2020-02-24T23:15:01.000Z</time>
      </trkpt>
      <trkpt lat="-34.85648087225854396820068359375" lon="-59.0664668194949626922607421875">
        <ele>35.200000762939453125</ele>
        <time>2020-02-24T23:15:07.000Z</time>
      </trkpt>
      <trkpt lat="-34.85648204572498798370361328125" lon="-59.06646623276174068450927734375">
        <ele>35.200000762939453125</ele>
        <time>2020-02-24T23:15:15.000Z</time>
      </trkpt>
      <trkpt lat="-34.8564824648201465606689453125" lon="-59.0664634667336940765380859375">
        <ele>35.200000762939453125</ele>
        <time>2020-02-24T23:15:37.000Z</time>
      </trkpt>
      <trkpt lat="-34.856483973562717437744140625" lon="-59.06646187417209148406982421875">
        <ele>35.200000762939453125</ele>
        <time>2020-02-24T23:16:43.000Z</time>
      </trkpt>
      <trkpt lat="-34.856485314667224884033203125" lon="-59.06646120361983776092529296875">
        <ele>35.200000762939453125</ele>
        <time>2020-02-24T23:17:11.000Z</time>
      </trkpt>
      <trkpt lat="-34.856472574174404144287109375" lon="-59.06644896604120731353759765625">
        <ele>35.200000762939453125</ele>
        <time>2020-02-24T23:17:17.000Z</time>
      </trkpt>
      <trkpt lat="-34.8564532957971096038818359375" lon="-59.06642583198845386505126953125">
        <ele>35.200000762939453125</ele>
        <time>2020-02-24T23:17:20.000Z</time>
      </trkpt>
      <trkpt lat="-34.85643066465854644775390625" lon="-59.06640018336474895477294921875">
        <ele>35.200000762939453125</ele>
        <time>2020-02-24T23:17:22.000Z</time>
      </trkpt>
      <trkpt lat="-34.8563637770712375640869140625" lon="-59.0663464553654193878173828125">
        <ele>34.40000152587890625</ele>
        <time>2020-02-24T23:17:27.000Z</time>
      </trkpt>
      <trkpt lat="-34.85630937851965427398681640625" lon="-59.0663078986108303070068359375">
        <ele>34</ele>
        <time>2020-02-24T23:17:30.000Z</time>
      </trkpt>
      <trkpt lat="-34.85627467744052410125732421875" lon="-59.06627763994038105010986328125">
        <ele>35.40000152587890625</ele>
        <time>2020-02-24T23:17:32.000Z</time>
      </trkpt>
      <trkpt lat="-34.8561595939099788665771484375" lon="-59.06615861691534519195556640625">
        <ele>35.799999237060546875</ele>
        <time>2020-02-24T23:17:38.000Z</time>
      </trkpt>
      <trkpt lat="-34.85602506436407566070556640625" lon="-59.0660074912011623382568359375">
        <ele>35</ele>
        <time>2020-02-24T23:17:45.000Z</time>
      </trkpt>
      <trkpt lat="-34.855885840952396392822265625" lon="-59.06584194861352443695068359375">
        <ele>35.200000762939453125</ele>
        <time>2020-02-24T23:17:52.000Z</time>
      </trkpt>
      <trkpt lat="-34.85573655925691127777099609375" lon="-59.06568235717713832855224609375">
        <ele>35.200000762939453125</ele>
        <time>2020-02-24T23:17:59.000Z</time>
      </trkpt>
      <trkpt lat="-34.85559540800750255584716796875" lon="-59.06552611850202083587646484375">
        <ele>35</ele>
        <time>2020-02-24T23:18:06.000Z</time>
      </trkpt>
      <trkpt lat="-34.85544051043689250946044921875" lon="-59.0653543733060359954833984375">
        <ele>35</ele>
        <time>2020-02-24T23:18:13.000Z</time>
      </trkpt>
      <trkpt lat="-34.85529064200818538665771484375" lon="-59.06518681906163692474365234375">
        <ele>35</ele>
        <time>2020-02-24T23:18:20.000Z</time>
      </trkpt>
      <trkpt lat="-34.85512183047831058502197265625" lon="-59.06498950906097888946533203125">
        <ele>35.200000762939453125</ele>
        <time>2020-02-24T23:18:28.000Z</time>
      </trkpt>
      <trkpt lat="-34.854947738349437713623046875" lon="-59.0647746808826923370361328125">
        <ele>35.200000762939453125</ele>
        <time>2020-02-24T23:18:36.000Z</time>
      </trkpt>
      <trkpt lat="-34.85477842390537261962890625" lon="-59.064585752785205841064453125">
        <ele>35.200000762939453125</ele>
        <time>2020-02-24T23:18:44.000Z</time>
      </trkpt>
      <trkpt lat="-34.85460466705262660980224609375" lon="-59.06439523212611675262451171875">
        <ele>35.40000152587890625</ele>
        <time>2020-02-24T23:18:52.000Z</time>
      </trkpt>
      <trkpt lat="-34.8543822951614856719970703125" lon="-59.0641500614583492279052734375">
        <ele>35.799999237060546875</ele>
        <time>2020-02-24T23:19:02.000Z</time>
      </trkpt>
      <trkpt lat="-34.85423016361892223358154296875" lon="-59.0639666654169559478759765625">
        <ele>35.799999237060546875</ele>
        <time>2020-02-24T23:19:09.000Z</time>
      </trkpt>
      <trkpt lat="-34.85403536818921566009521484375" lon="-59.06376005150377750396728515625">
        <ele>35.59999847412109375</ele>
        <time>2020-02-24T23:19:18.000Z</time>
      </trkpt>
      <trkpt lat="-34.85383839346468448638916015625" lon="-59.0635562874376773834228515625">
        <ele>35.799999237060546875</ele>
        <time>2020-02-24T23:19:27.000Z</time>
      </trkpt>
      <trkpt lat="-34.85366933047771453857421875" lon="-59.06335671432316303253173828125">
        <ele>35.200000762939453125</ele>
        <time>2020-02-24T23:19:35.000Z</time>
      </trkpt>
      <trkpt lat="-34.85347243957221508026123046875" lon="-59.0631531178951263427734375">
        <ele>35.40000152587890625</ele>
        <time>2020-02-24T23:19:44.000Z</time>
      </trkpt>
      <trkpt lat="-34.85327906906604766845703125" lon="-59.0629309974610805511474609375">
        <ele>35.40000152587890625</ele>
        <time>2020-02-24T23:19:53.000Z</time>
      </trkpt>
      <trkpt lat="-34.8531079106032848358154296875" lon="-59.06274768523871898651123046875">
        <ele>35.40000152587890625</ele>
        <time>2020-02-24T23:20:01.000Z</time>
      </trkpt>
      <trkpt lat="-34.85297539271414279937744140625" lon="-59.0626010857522487640380859375">
        <ele>35</ele>
        <time>2020-02-24T23:20:08.000Z</time>
      </trkpt>
      <trkpt lat="-34.85285217873752117156982421875" lon="-59.062445349991321563720703125">
        <ele>35</ele>
        <time>2020-02-24T23:20:15.000Z</time>
      </trkpt>
      <trkpt lat="-34.8527199961245059967041015625" lon="-59.0622892789542675018310546875">
        <ele>35.40000152587890625</ele>
        <time>2020-02-24T23:20:23.000Z</time>
      </trkpt>
      <trkpt lat="-34.852650426328182220458984375" lon="-59.06216497533023357391357421875">
        <ele>35.200000762939453125</ele>
        <time>2020-02-24T23:20:29.000Z</time>
      </trkpt>
      <trkpt lat="-34.85269426368176937103271484375" lon="-59.0620428510010242462158203125">
        <ele>35</ele>
        <time>2020-02-24T23:20:34.000Z</time>
      </trkpt>
      <trkpt lat="-34.8528001271188259124755859375" lon="-59.0618656575679779052734375">
        <ele>35.200000762939453125</ele>
        <time>2020-02-24T23:20:42.000Z</time>
      </trkpt>
      <trkpt lat="-34.85297866165637969970703125" lon="-59.06161562539637088775634765625">
        <ele>35</ele>
        <time>2020-02-24T23:20:53.000Z</time>
      </trkpt>
      <trkpt lat="-34.8531565256416797637939453125" lon="-59.06138294376432895660400390625">
        <ele>35.200000762939453125</ele>
        <time>2020-02-24T23:21:03.000Z</time>
      </trkpt>
      <trkpt lat="-34.853290133178234100341796875" lon="-59.06120742671191692352294921875">
        <ele>35.200000762939453125</ele>
        <time>2020-02-24T23:21:10.000Z</time>
      </trkpt>
      <trkpt lat="-34.85342851839959621429443359375" lon="-59.0610128827393054962158203125">
        <ele>35</ele>
        <time>2020-02-24T23:21:18.000Z</time>
      </trkpt>
      <trkpt lat="-34.85361375845968723297119140625" lon="-59.060775674879550933837890625">
        <ele>35.40000152587890625</ele>
        <time>2020-02-24T23:21:28.000Z</time>
      </trkpt>
      <trkpt lat="-34.85377930104732513427734375" lon="-59.06056352891027927398681640625">
        <ele>35</ele>
        <time>2020-02-24T23:21:37.000Z</time>
      </trkpt>
      <trkpt lat="-34.85393327660858631134033203125" lon="-59.06036018393933773040771484375">
        <ele>35</ele>
        <time>2020-02-24T23:21:45.000Z</time>
      </trkpt>
      <trkpt lat="-34.85411918722093105316162109375" lon="-59.0601280890405178070068359375">
        <ele>34.799999237060546875</ele>
        <time>2020-02-24T23:21:54.000Z</time>
      </trkpt>
      <trkpt lat="-34.85431842505931854248046875" lon="-59.05987839214503765106201171875">
        <ele>34.799999237060546875</ele>
        <time>2020-02-24T23:22:04.000Z</time>
      </trkpt>
      <trkpt lat="-34.85449804924428462982177734375" lon="-59.05967454425990581512451171875">
        <ele>35</ele>
        <time>2020-02-24T23:22:13.000Z</time>
      </trkpt>
      <trkpt lat="-34.854685552418231964111328125" lon="-59.05943532474339008331298828125">
        <ele>34.799999237060546875</ele>
        <time>2020-02-24T23:22:22.000Z</time>
      </trkpt>
      <trkpt lat="-34.8548064194619655609130859375" lon="-59.05925930477678775787353515625">
        <ele>34.59999847412109375</ele>
        <time>2020-02-24T23:22:28.000Z</time>
      </trkpt>
      <trkpt lat="-34.85501445829868316650390625" lon="-59.0589847974479198455810546875">
        <ele>34.799999237060546875</ele>
        <time>2020-02-24T23:22:38.000Z</time>
      </trkpt>
      <trkpt lat="-34.85512836836278438568115234375" lon="-59.058817327022552490234375">
        <ele>35.799999237060546875</ele>
        <time>2020-02-24T23:22:45.000Z</time>
      </trkpt>
      <trkpt lat="-34.85514781437814235687255859375" lon="-59.05876326374709606170654296875">
        <ele>35.799999237060546875</ele>
        <time>2020-02-24T23:22:50.000Z</time>
      </trkpt>
      <trkpt lat="-34.85514060594141483306884765625" lon="-59.0587309934198856353759765625">
        <ele>36</ele>
        <time>2020-02-24T23:22:56.000Z</time>
      </trkpt>
      <trkpt lat="-34.85513842664659023284912109375" lon="-59.058717079460620880126953125">
        <ele>36</ele>
        <time>2020-02-24T23:22:57.000Z</time>
      </trkpt>
      <trkpt lat="-34.85508151352405548095703125" lon="-59.05860736034810543060302734375">
        <ele>35.59999847412109375</ele>
        <time>2020-02-24T23:23:03.000Z</time>
      </trkpt>
      <trkpt lat="-34.85496005974709987640380859375" lon="-59.05845950357615947723388671875">
        <ele>35.799999237060546875</ele>
        <time>2020-02-24T23:23:10.000Z</time>
      </trkpt>
      <trkpt lat="-34.85474095679819583892822265625" lon="-59.0582049451768398284912109375">
        <ele>36</ele>
        <time>2020-02-24T23:23:21.000Z</time>
      </trkpt>
      <trkpt lat="-34.85454867593944072723388671875" lon="-59.05796262435615062713623046875">
        <ele>35.59999847412109375</ele>
        <time>2020-02-24T23:23:31.000Z</time>
      </trkpt>
      <trkpt lat="-34.8543527908623218536376953125" lon="-59.05773547478020191192626953125">
        <ele>35.59999847412109375</ele>
        <time>2020-02-24T23:23:40.000Z</time>
      </trkpt>
      <trkpt lat="-34.854164533317089080810546875" lon="-59.05751553364098072052001953125">
        <ele>35.799999237060546875</ele>
        <time>2020-02-24T23:23:49.000Z</time>
      </trkpt>
      <trkpt lat="-34.85396982170641422271728515625" lon="-59.057314284145832061767578125">
        <ele>35.59999847412109375</ele>
        <time>2020-02-24T23:23:57.000Z</time>
      </trkpt>
      <trkpt lat="-34.853781647980213165283203125" lon="-59.05711638741195201873779296875">
        <ele>35.40000152587890625</ele>
        <time>2020-02-24T23:24:05.000Z</time>
      </trkpt>
      <trkpt lat="-34.853652901947498321533203125" lon="-59.0569711290299892425537109375">
        <ele>35.200000762939453125</ele>
        <time>2020-02-24T23:24:12.000Z</time>
      </trkpt>
      <trkpt lat="-34.85364292748272418975830078125" lon="-59.0568551234900951385498046875">
        <ele>35.40000152587890625</ele>
        <time>2020-02-24T23:24:18.000Z</time>
      </trkpt>
      <trkpt lat="-34.85370017588138580322265625" lon="-59.056757055222988128662109375">
        <ele>35.59999847412109375</ele>
        <time>2020-02-24T23:24:24.000Z</time>
      </trkpt>
      <trkpt lat="-34.85380134545266628265380859375" lon="-59.05666418373584747314453125">
        <ele>35.799999237060546875</ele>
        <time>2020-02-24T23:24:31.000Z</time>
      </trkpt>
      <trkpt lat="-34.8539383895695209503173828125" lon="-59.05666443519294261932373046875">
        <ele>35.40000152587890625</ele>
        <time>2020-02-24T23:24:37.000Z</time>
      </trkpt>
      <trkpt lat="-34.85408482141792774200439453125" lon="-59.05679971911013126373291015625">
        <ele>35.40000152587890625</ele>
        <time>2020-02-24T23:24:45.000Z</time>
      </trkpt>
      <trkpt lat="-34.8542206920683383941650390625" lon="-59.05694321729242801666259765625">
        <ele>35.59999847412109375</ele>
        <time>2020-02-24T23:24:52.000Z</time>
      </trkpt>
      <trkpt lat="-34.854362010955810546875" lon="-59.0571065805852413177490234375">
        <ele>35.59999847412109375</ele>
        <time>2020-02-24T23:24:59.000Z</time>
      </trkpt>
      <trkpt lat="-34.85450006090104579925537109375" lon="-59.05726407654583454132080078125">
        <ele>35.799999237060546875</ele>
        <time>2020-02-24T23:25:06.000Z</time>
      </trkpt>
      <trkpt lat="-34.85464992932975292205810546875" lon="-59.0574475564062595367431640625">
        <ele>35.59999847412109375</ele>
        <time>2020-02-24T23:25:13.000Z</time>
      </trkpt>
      <trkpt lat="-34.8547930084168910980224609375" lon="-59.05761502683162689208984375">
        <ele>35.40000152587890625</ele>
        <time>2020-02-24T23:25:20.000Z</time>
      </trkpt>
      <trkpt lat="-34.85493927262723445892333984375" lon="-59.0577761270105838775634765625">
        <ele>35.40000152587890625</ele>
        <time>2020-02-24T23:25:27.000Z</time>
      </trkpt>
      <trkpt lat="-34.85508897341787815093994140625" lon="-59.05794284306466579437255859375">
        <ele>35.59999847412109375</ele>
        <time>2020-02-24T23:25:34.000Z</time>
      </trkpt>
      <trkpt lat="-34.85527195036411285400390625" lon="-59.0581543184816837310791015625">
        <ele>35.59999847412109375</ele>
        <time>2020-02-24T23:25:42.000Z</time>
      </trkpt>
      <trkpt lat="-34.8554377444088459014892578125" lon="-59.05835741199553012847900390625">
        <ele>35.40000152587890625</ele>
        <time>2020-02-24T23:25:50.000Z</time>
      </trkpt>
      <trkpt lat="-34.855556599795818328857421875" lon="-59.0585117228329181671142578125">
        <ele>35.40000152587890625</ele>
        <time>2020-02-24T23:25:57.000Z</time>
      </trkpt>
      <trkpt lat="-34.85569565556943416595458984375" lon="-59.0586739964783191680908203125">
        <ele>35.59999847412109375</ele>
        <time>2020-02-24T23:26:05.000Z</time>
      </trkpt>
      <trkpt lat="-34.85588039271533489227294921875" lon="-59.05887968838214874267578125">
        <ele>35.59999847412109375</ele>
        <time>2020-02-24T23:26:14.000Z</time>
      </trkpt>
      <trkpt lat="-34.8560818098485469818115234375" lon="-59.05910273082554340362548828125">
        <ele>35.40000152587890625</ele>
        <time>2020-02-24T23:26:23.000Z</time>
      </trkpt>
      <trkpt lat="-34.85626059584319591522216796875" lon="-59.0592969395220279693603515625">
        <ele>35.40000152587890625</ele>
        <time>2020-02-24T23:26:31.000Z</time>
      </trkpt>
      <trkpt lat="-34.8564098775386810302734375" lon="-59.05945837497711181640625">
        <ele>35.40000152587890625</ele>
        <time>2020-02-24T23:26:38.000Z</time>
      </trkpt>
      <trkpt lat="-34.8565843887627124786376953125" lon="-59.05965476296842098236083984375">
        <ele>35.40000152587890625</ele>
        <time>2020-02-24T23:26:46.000Z</time>
      </trkpt>
      <trkpt lat="-34.856734760105609893798828125" lon="-59.05983028002083301544189453125">
        <ele>35.59999847412109375</ele>
        <time>2020-02-24T23:26:53.000Z</time>
      </trkpt>
      <trkpt lat="-34.85691455192863941192626953125" lon="-59.060040414333343505859375">
        <ele>35.59999847412109375</ele>
        <time>2020-02-24T23:27:01.000Z</time>
      </trkpt>
      <trkpt lat="-34.8570705391466617584228515625" lon="-59.06021836213767528533935546875">
        <ele>35.40000152587890625</ele>
        <time>2020-02-24T23:27:08.000Z</time>
      </trkpt>
      <trkpt lat="-34.8572723753750324249267578125" lon="-59.060447104275226593017578125">
        <ele>35.200000762939453125</ele>
        <time>2020-02-24T23:27:17.000Z</time>
      </trkpt>
      <trkpt lat="-34.8574608005583286285400390625" lon="-59.06067182309925556182861328125">
        <ele>35.40000152587890625</ele>
        <time>2020-02-24T23:27:26.000Z</time>
      </trkpt>
      <trkpt lat="-34.85763941891491413116455078125" lon="-59.06087122857570648193359375">
        <ele>35.40000152587890625</ele>
        <time>2020-02-24T23:27:34.000Z</time>
      </trkpt>
      <trkpt lat="-34.85784796066582202911376953125" lon="-59.06111421994864940643310546875">
        <ele>35.40000152587890625</ele>
        <time>2020-02-24T23:27:44.000Z</time>
      </trkpt>
      <trkpt lat="-34.85797922126948833465576171875" lon="-59.06126911751925945281982421875">
        <ele>35.59999847412109375</ele>
        <time>2020-02-24T23:27:51.000Z</time>
      </trkpt>
      <trkpt lat="-34.8581608571112155914306640625" lon="-59.0614795871078968048095703125">
        <ele>35.200000762939453125</ele>
        <time>2020-02-24T23:28:00.000Z</time>
      </trkpt>
      <trkpt lat="-34.858348108828067779541015625" lon="-59.06169340945780277252197265625">
        <ele>35.200000762939453125</ele>
        <time>2020-02-24T23:28:09.000Z</time>
      </trkpt>
      <trkpt lat="-34.8585591651499271392822265625" lon="-59.06193380244076251983642578125">
        <ele>35.200000762939453125</ele>
        <time>2020-02-24T23:28:19.000Z</time>
      </trkpt>
      <trkpt lat="-34.858694113790988922119140625" lon="-59.06208484433591365814208984375">
        <ele>35.200000762939453125</ele>
        <time>2020-02-24T23:28:26.000Z</time>
      </trkpt>
      <trkpt lat="-34.85883384011685848236083984375" lon="-59.062236808240413665771484375">
        <ele>35</ele>
        <time>2020-02-24T23:28:33.000Z</time>
      </trkpt>
      <trkpt lat="-34.85901673324406147003173828125" lon="-59.06244560144841670989990234375">
        <ele>35.200000762939453125</ele>
        <time>2020-02-24T23:28:43.000Z</time>
      </trkpt>
      <trkpt lat="-34.85910910181701183319091796875" lon="-59.0625496208667755126953125">
        <ele>35</ele>
        <time>2020-02-24T23:28:50.000Z</time>
      </trkpt>
      <trkpt lat="-34.85925494693219661712646484375" lon="-59.062715582549571990966796875">
        <ele>35</ele>
        <time>2020-02-24T23:29:01.000Z</time>
      </trkpt>
      <trkpt lat="-34.85936994664371013641357421875" lon="-59.0628446638584136962890625">
        <ele>35.200000762939453125</ele>
        <time>2020-02-24T23:29:10.000Z</time>
      </trkpt>
      <trkpt lat="-34.8594761453568935394287109375" lon="-59.06296628527343273162841796875">
        <ele>35.200000762939453125</ele>
        <time>2020-02-24T23:29:18.000Z</time>
      </trkpt>
      <trkpt lat="-34.85959039069712162017822265625" lon="-59.06309436075389385223388671875">
        <ele>35.200000762939453125</ele>
        <time>2020-02-24T23:29:26.000Z</time>
      </trkpt>
      <trkpt lat="-34.85973254777491092681884765625" lon="-59.0632609091699123382568359375">
        <ele>35</ele>
        <time>2020-02-24T23:29:36.000Z</time>
      </trkpt>
      <trkpt lat="-34.85985207371413707733154296875" lon="-59.0633970312774181365966796875">
        <ele>35</ele>
        <time>2020-02-24T23:29:44.000Z</time>
      </trkpt>
      <trkpt lat="-34.85999188385903835296630859375" lon="-59.0635569579899311065673828125">
        <ele>34.799999237060546875</ele>
        <time>2020-02-24T23:29:53.000Z</time>
      </trkpt>
      <trkpt lat="-34.86008274368941783905029296875" lon="-59.06366340816020965576171875">
        <ele>35</ele>
        <time>2020-02-24T23:30:00.000Z</time>
      </trkpt>
      <trkpt lat="-34.860220290720462799072265625" lon="-59.06382056884467601776123046875">
        <ele>35</ele>
        <time>2020-02-24T23:30:10.000Z</time>
      </trkpt>
      <trkpt lat="-34.8603634536266326904296875" lon="-59.063978232443332672119140625">
        <ele>35</ele>
        <time>2020-02-24T23:30:20.000Z</time>
      </trkpt>
      <trkpt lat="-34.8604715801775455474853515625" lon="-59.06409683637320995330810546875">
        <ele>34.799999237060546875</ele>
        <time>2020-02-24T23:30:28.000Z</time>
      </trkpt>
      <trkpt lat="-34.8605726659297943115234375" lon="-59.06421083025634288787841796875">
        <ele>35</ele>
        <time>2020-02-24T23:30:37.000Z</time>
      </trkpt>
      <trkpt lat="-34.86067299731075763702392578125" lon="-59.06432549469172954559326171875">
        <ele>35</ele>
        <time>2020-02-24T23:30:44.000Z</time>
      </trkpt>
      <trkpt lat="-34.860794954001903533935546875" lon="-59.06446538865566253662109375">
        <ele>34.799999237060546875</ele>
        <time>2020-02-24T23:30:53.000Z</time>
      </trkpt>
      <trkpt lat="-34.86085371114313602447509765625" lon="-59.0645305998623371124267578125">
        <ele>34.799999237060546875</ele>
        <time>2020-02-24T23:30:57.000Z</time>
      </trkpt>
      <trkpt lat="-34.86092177219688892364501953125" lon="-59.06461198814213275909423828125">
        <ele>34.799999237060546875</ele>
        <time>2020-02-24T23:31:02.000Z</time>
      </trkpt>
      <trkpt lat="-34.86099335364997386932373046875" lon="-59.06469178386032581329345703125">
        <ele>35</ele>
        <time>2020-02-24T23:31:08.000Z</time>
      </trkpt>
      <trkpt lat="-34.8611547052860260009765625" lon="-59.0648762695491313934326171875">
        <ele>34.799999237060546875</ele>
        <time>2020-02-24T23:31:20.000Z</time>
      </trkpt>
      <trkpt lat="-34.86130264587700366973876953125" lon="-59.0650422312319278717041015625">
        <ele>34.799999237060546875</ele>
        <time>2020-02-24T23:31:31.000Z</time>
      </trkpt>
      <trkpt lat="-34.86145251430571079254150390625" lon="-59.0652132220566272735595703125">
        <ele>34.59999847412109375</ele>
        <time>2020-02-24T23:31:41.000Z</time>
      </trkpt>
      <trkpt lat="-34.86156583763659000396728515625" lon="-59.06534590758383274078369140625">
        <ele>34.59999847412109375</ele>
        <time>2020-02-24T23:31:49.000Z</time>
      </trkpt>
      <trkpt lat="-34.86166843213140964508056640625" lon="-59.065462164580821990966796875">
        <ele>34.799999237060546875</ele>
        <time>2020-02-24T23:31:56.000Z</time>
      </trkpt>
      <trkpt lat="-34.86182081513106822967529296875" lon="-59.06563424505293369293212890625">
        <ele>34.59999847412109375</ele>
        <time>2020-02-24T23:32:06.000Z</time>
      </trkpt>
      <trkpt lat="-34.8619618825614452362060546875" lon="-59.06579752452671527862548828125">
        <ele>34.59999847412109375</ele>
        <time>2020-02-24T23:32:15.000Z</time>
      </trkpt>
      <trkpt lat="-34.86200739629566669464111328125" lon="-59.06585351563990116119384765625">
        <ele>34.40000152587890625</ele>
        <time>2020-02-24T23:32:18.000Z</time>
      </trkpt>
      <trkpt lat="-34.86207126639783382415771484375" lon="-59.065927527844905853271484375">
        <ele>34.40000152587890625</ele>
        <time>2020-02-24T23:32:22.000Z</time>
      </trkpt>
      <trkpt lat="-34.86223236657679080963134765625" lon="-59.06610983423888683319091796875">
        <ele>34.40000152587890625</ele>
        <time>2020-02-24T23:32:32.000Z</time>
      </trkpt>
      <trkpt lat="-34.86238273791968822479248046875" lon="-59.0662778913974761962890625">
        <ele>34.59999847412109375</ele>
        <time>2020-02-24T23:32:41.000Z</time>
      </trkpt>
      <trkpt lat="-34.86249983310699462890625" lon="-59.06641510315239429473876953125">
        <ele>34.40000152587890625</ele>
        <time>2020-02-24T23:32:49.000Z</time>
      </trkpt>
      <trkpt lat="-34.86259639263153076171875" lon="-59.06652641482651233673095703125">
        <ele>34.200000762939453125</ele>
        <time>2020-02-24T23:32:57.000Z</time>
      </trkpt>
      <trkpt lat="-34.86269337125122547149658203125" lon="-59.066648371517658233642578125">
        <ele>34.200000762939453125</ele>
        <time>2020-02-24T23:33:04.000Z</time>
      </trkpt>
      <trkpt lat="-34.862816669046878814697265625" lon="-59.06678860075771808624267578125">
        <ele>34.200000762939453125</ele>
        <time>2020-02-24T23:33:12.000Z</time>
      </trkpt>
      <trkpt lat="-34.86294147558510303497314453125" lon="-59.0669321827590465545654296875">
        <ele>34.200000762939453125</ele>
        <time>2020-02-24T23:33:20.000Z</time>
      </trkpt>
      <trkpt lat="-34.863096289336681365966796875" lon="-59.06710510142147541046142578125">
        <ele>34.200000762939453125</ele>
        <time>2020-02-24T23:33:29.000Z</time>
      </trkpt>
      <trkpt lat="-34.86321019940078258514404296875" lon="-59.067227058112621307373046875">
        <ele>34.200000762939453125</ele>
        <time>2020-02-24T23:33:36.000Z</time>
      </trkpt>
      <trkpt lat="-34.86331187188625335693359375" lon="-59.0673439018428325653076171875">
        <ele>34</ele>
        <time>2020-02-24T23:33:43.000Z</time>
      </trkpt>
      <trkpt lat="-34.863437600433826446533203125" lon="-59.0674874000251293182373046875">
        <ele>34</ele>
        <time>2020-02-24T23:33:51.000Z</time>
      </trkpt>
      <trkpt lat="-34.863566346466541290283203125" lon="-59.0676270425319671630859375">
        <ele>34.200000762939453125</ele>
        <time>2020-02-24T23:33:59.000Z</time>
      </trkpt>
      <trkpt lat="-34.86371160484850406646728515625" lon="-59.06779468059539794921875">
        <ele>34</ele>
        <time>2020-02-24T23:34:08.000Z</time>
      </trkpt>
      <trkpt lat="-34.86383213661611080169677734375" lon="-59.06793088652193546295166015625">
        <ele>34</ele>
        <time>2020-02-24T23:34:15.000Z</time>
      </trkpt>
      <trkpt lat="-34.864055179059505462646484375" lon="-59.068183600902557373046875">
        <ele>33.59999847412109375</ele>
        <time>2020-02-24T23:34:28.000Z</time>
      </trkpt>
      <trkpt lat="-34.864202700555324554443359375" lon="-59.0683507360517978668212890625">
        <ele>33.799999237060546875</ele>
        <time>2020-02-24T23:34:37.000Z</time>
      </trkpt>
      <trkpt lat="-34.86431057564914226531982421875" lon="-59.06847973354160785675048828125">
        <ele>33.799999237060546875</ele>
        <time>2020-02-24T23:34:44.000Z</time>
      </trkpt>
      <trkpt lat="-34.86439607106149196624755859375" lon="-59.06858651898801326751708984375">
        <ele>33.59999847412109375</ele>
        <time>2020-02-24T23:34:50.000Z</time>
      </trkpt>
      <trkpt lat="-34.86442356370389461517333984375" lon="-59.0686233155429363250732421875">
        <ele>33.40000152587890625</ele>
        <time>2020-02-24T23:34:52.000Z</time>
      </trkpt>
      <trkpt lat="-34.86455331556499004364013671875" lon="-59.068771339952945709228515625">
        <ele>33.59999847412109375</ele>
        <time>2020-02-24T23:35:00.000Z</time>
      </trkpt>
      <trkpt lat="-34.86467451788485050201416015625" lon="-59.0689049474895000457763671875">
        <ele>33.59999847412109375</ele>
        <time>2020-02-24T23:35:07.000Z</time>
      </trkpt>
      <trkpt lat="-34.86482555978000164031982421875" lon="-59.0690786205232143402099609375">
        <ele>33.59999847412109375</ele>
        <time>2020-02-24T23:35:16.000Z</time>
      </trkpt>
      <trkpt lat="-34.8650055192410945892333984375" lon="-59.0692787803709506988525390625">
        <ele>33.59999847412109375</ele>
        <time>2020-02-24T23:35:27.000Z</time>
      </trkpt>
      <trkpt lat="-34.865170307457447052001953125" lon="-59.06945991329848766326904296875">
        <ele>33.59999847412109375</ele>
        <time>2020-02-24T23:35:37.000Z</time>
      </trkpt>
      <trkpt lat="-34.8653014004230499267578125" lon="-59.069608859717845916748046875">
        <ele>33.59999847412109375</ele>
        <time>2020-02-24T23:35:45.000Z</time>
      </trkpt>
      <trkpt lat="-34.86545034684240818023681640625" lon="-59.0697800181806087493896484375">
        <ele>33.40000152587890625</ele>
        <time>2020-02-24T23:35:55.000Z</time>
      </trkpt>
      <trkpt lat="-34.8655342496931552886962890625" lon="-59.06987682916224002838134765625">
        <ele>33.200000762939453125</ele>
        <time>2020-02-24T23:36:01.000Z</time>
      </trkpt>
      <trkpt lat="-34.86567112617194652557373046875" lon="-59.07004966400563716888427734375">
        <ele>33.40000152587890625</ele>
        <time>2020-02-24T23:36:11.000Z</time>
      </trkpt>
      <trkpt lat="-34.86582116223871707916259765625" lon="-59.07021864317357540130615234375">
        <ele>33.200000762939453125</ele>
        <time>2020-02-24T23:36:21.000Z</time>
      </trkpt>
      <trkpt lat="-34.86597673036158084869384765625" lon="-59.0703872032463550567626953125">
        <ele>33.40000152587890625</ele>
        <time>2020-02-24T23:36:31.000Z</time>
      </trkpt>
      <trkpt lat="-34.86610178835690021514892578125" lon="-59.07054687850177288055419921875">
        <ele>33.40000152587890625</ele>
        <time>2020-02-24T23:36:40.000Z</time>
      </trkpt>
      <trkpt lat="-34.866190887987613677978515625" lon="-59.07065366394817829132080078125">
        <ele>33.40000152587890625</ele>
        <time>2020-02-24T23:36:46.000Z</time>
      </trkpt>
      <trkpt lat="-34.86633748747408390045166015625" lon="-59.0708135068416595458984375">
        <ele>33.799999237060546875</ele>
        <time>2020-02-24T23:36:55.000Z</time>
      </trkpt>
      <trkpt lat="-34.8664498887956142425537109375" lon="-59.07093680463731288909912109375">
        <ele>33.40000152587890625</ele>
        <time>2020-02-24T23:37:02.000Z</time>
      </trkpt>
      <trkpt lat="-34.866583161056041717529296875" lon="-59.07108499668538570404052734375">
        <ele>33.59999847412109375</ele>
        <time>2020-02-24T23:37:11.000Z</time>
      </trkpt>
      <trkpt lat="-34.86667536199092864990234375" lon="-59.07118960283696651458740234375">
        <ele>33.59999847412109375</ele>
        <time>2020-02-24T23:37:17.000Z</time>
      </trkpt>
      <trkpt lat="-34.866814501583576202392578125" lon="-59.07135405577719211578369140625">
        <ele>33.40000152587890625</ele>
        <time>2020-02-24T23:37:27.000Z</time>
      </trkpt>
      <trkpt lat="-34.866923131048679351806640625" lon="-59.0714791975915431976318359375">
        <ele>33.40000152587890625</ele>
        <time>2020-02-24T23:37:34.000Z</time>
      </trkpt>
      <trkpt lat="-34.86707392148673534393310546875" lon="-59.07164189033210277557373046875">
        <ele>33.40000152587890625</ele>
        <time>2020-02-24T23:37:43.000Z</time>
      </trkpt>
      <trkpt lat="-34.86715237610042095184326171875" lon="-59.0717444010078907012939453125">
        <ele>33.59999847412109375</ele>
        <time>2020-02-24T23:37:49.000Z</time>
      </trkpt>
      <trkpt lat="-34.86727575771510601043701171875" lon="-59.071890078485012054443359375">
        <ele>33.59999847412109375</ele>
        <time>2020-02-24T23:37:57.000Z</time>
      </trkpt>
      <trkpt lat="-34.8674252070486545562744140625" lon="-59.0720848739147186279296875">
        <ele>33</ele>
        <time>2020-02-24T23:38:07.000Z</time>
      </trkpt>
      <trkpt lat="-34.86753526143729686737060546875" lon="-59.0722151286900043487548828125">
        <ele>33.200000762939453125</ele>
        <time>2020-02-24T23:38:14.000Z</time>
      </trkpt>
      <trkpt lat="-34.867714382708072662353515625" lon="-59.072405062615871429443359375">
        <ele>33.200000762939453125</ele>
        <time>2020-02-24T23:38:24.000Z</time>
      </trkpt>
      <trkpt lat="-34.8678218387067317962646484375" lon="-59.072538502514362335205078125">
        <ele>33.200000762939453125</ele>
        <time>2020-02-24T23:38:31.000Z</time>
      </trkpt>
      <trkpt lat="-34.86797145567834377288818359375" lon="-59.0727130137383937835693359375">
        <ele>33.200000762939453125</ele>
        <time>2020-02-24T23:38:40.000Z</time>
      </trkpt>
      <trkpt lat="-34.86806265078485012054443359375" lon="-59.07282491214573383331298828125">
        <ele>33.200000762939453125</ele>
        <time>2020-02-24T23:38:46.000Z</time>
      </trkpt>
      <trkpt lat="-34.8681284487247467041015625" lon="-59.0729057975113391876220703125">
        <ele>33</ele>
        <time>2020-02-24T23:38:51.000Z</time>
      </trkpt>
      <trkpt lat="-34.8681591264903545379638671875" lon="-59.07293588854372501373291015625">
        <ele>33</ele>
        <time>2020-02-24T23:38:53.000Z</time>
      </trkpt>
      <trkpt lat="-34.86828829161822795867919921875" lon="-59.07307821325957775115966796875">
        <ele>33</ele>
        <time>2020-02-24T23:39:01.000Z</time>
      </trkpt>
      <trkpt lat="-34.868409745395183563232421875" lon="-59.07320410944521427154541015625">
        <ele>33</ele>
        <time>2020-02-24T23:39:08.000Z</time>
      </trkpt>
      <trkpt lat="-34.868522398173809051513671875" lon="-59.0733292512595653533935546875">
        <ele>33</ele>
        <time>2020-02-24T23:39:15.000Z</time>
      </trkpt>
      <trkpt lat="-34.86863513477146625518798828125" lon="-59.07346126623451709747314453125">
        <ele>33</ele>
        <time>2020-02-24T23:39:22.000Z</time>
      </trkpt>
      <trkpt lat="-34.8687478713691234588623046875" lon="-59.07358883880078792572021484375">
        <ele>33.200000762939453125</ele>
        <time>2020-02-24T23:39:29.000Z</time>
      </trkpt>
      <trkpt lat="-34.86889011226594448089599609375" lon="-59.0737490169703960418701171875">
        <ele>33.200000762939453125</ele>
        <time>2020-02-24T23:39:38.000Z</time>
      </trkpt>
      <trkpt lat="-34.8690124042332172393798828125" lon="-59.07387985847890377044677734375">
        <ele>33.200000762939453125</ele>
        <time>2020-02-24T23:39:45.000Z</time>
      </trkpt>
      <trkpt lat="-34.8691787011921405792236328125" lon="-59.074056632816791534423828125">
        <ele>33.200000762939453125</ele>
        <time>2020-02-24T23:39:54.000Z</time>
      </trkpt>
      <trkpt lat="-34.86930367536842823028564453125" lon="-59.07419267110526561737060546875">
        <ele>33.40000152587890625</ele>
        <time>2020-02-24T23:40:01.000Z</time>
      </trkpt>
      <trkpt lat="-34.86946444027125835418701171875" lon="-59.07436944544315338134765625">
        <ele>33.200000762939453125</ele>
        <time>2020-02-24T23:40:10.000Z</time>
      </trkpt>
      <trkpt lat="-34.8696175776422023773193359375" lon="-59.074546806514263153076171875">
        <ele>33</ele>
        <time>2020-02-24T23:40:19.000Z</time>
      </trkpt>
      <trkpt lat="-34.86975722014904022216796875" lon="-59.0747072361409664154052734375">
        <ele>33</ele>
        <time>2020-02-24T23:40:27.000Z</time>
      </trkpt>
      <trkpt lat="-34.86992946825921535491943359375" lon="-59.0749092400074005126953125">
        <ele>33</ele>
        <time>2020-02-24T23:40:37.000Z</time>
      </trkpt>
      <trkpt lat="-34.87003474496304988861083984375" lon="-59.07502658665180206298828125">
        <ele>33</ele>
        <time>2020-02-24T23:40:43.000Z</time>
      </trkpt>
      <trkpt lat="-34.87016382627189159393310546875" lon="-59.07518307678401470184326171875">
        <ele>32.799999237060546875</ele>
        <time>2020-02-24T23:40:51.000Z</time>
      </trkpt>
      <trkpt lat="-34.8702442087233066558837890625" lon="-59.07527678646147251129150390625">
        <ele>32.799999237060546875</ele>
        <time>2020-02-24T23:40:56.000Z</time>
      </trkpt>
      <trkpt lat="-34.87037655897438526153564453125" lon="-59.0754307620227336883544921875">
        <ele>32.799999237060546875</ele>
        <time>2020-02-24T23:41:04.000Z</time>
      </trkpt>
      <trkpt lat="-34.87049424089491367340087890625" lon="-59.07555657438933849334716796875">
        <ele>32.59999847412109375</ele>
        <time>2020-02-24T23:41:11.000Z</time>
      </trkpt>
      <trkpt lat="-34.8706156946718692779541015625" lon="-59.0756989829242229461669921875">
        <ele>32.799999237060546875</ele>
        <time>2020-02-24T23:41:19.000Z</time>
      </trkpt>
      <trkpt lat="-34.8707514815032482147216796875" lon="-59.0758572332561016082763671875">
        <ele>33</ele>
        <time>2020-02-24T23:41:28.000Z</time>
      </trkpt>
      <trkpt lat="-34.87087058834731578826904296875" lon="-59.0760007314383983612060546875">
        <ele>32.799999237060546875</ele>
        <time>2020-02-24T23:41:36.000Z</time>
      </trkpt>
      <trkpt lat="-34.87096060998737812042236328125" lon="-59.0761013142764568328857421875">
        <ele>32.799999237060546875</ele>
        <time>2020-02-24T23:41:42.000Z</time>
      </trkpt>
      <trkpt lat="-34.87108650617301464080810546875" lon="-59.07624707557260990142822265625">
        <ele>33</ele>
        <time>2020-02-24T23:41:50.000Z</time>
      </trkpt>
      <trkpt lat="-34.871198572218418121337890625" lon="-59.07636894844472408294677734375">
        <ele>32.799999237060546875</ele>
        <time>2020-02-24T23:41:57.000Z</time>
      </trkpt>
      <trkpt lat="-34.87129923887550830841064453125" lon="-59.0764783322811126708984375">
        <ele>32.799999237060546875</ele>
        <time>2020-02-24T23:42:04.000Z</time>
      </trkpt>
      <trkpt lat="-34.87141541205346584320068359375" lon="-59.07660498283803462982177734375">
        <ele>32.59999847412109375</ele>
        <time>2020-02-24T23:42:11.000Z</time>
      </trkpt>
      <trkpt lat="-34.87157517112791538238525390625" lon="-59.076793156564235687255859375">
        <ele>32.799999237060546875</ele>
        <time>2020-02-24T23:42:21.000Z</time>
      </trkpt>
      <trkpt lat="-34.87170718610286712646484375" lon="-59.07694260589778423309326171875">
        <ele>32.799999237060546875</ele>
        <time>2020-02-24T23:42:29.000Z</time>
      </trkpt>
      <trkpt lat="-34.87187574617564678192138671875" lon="-59.07713891007006168365478515625">
        <ele>32.799999237060546875</ele>
        <time>2020-02-24T23:42:39.000Z</time>
      </trkpt>
      <trkpt lat="-34.87200767733156681060791015625" lon="-59.0772985853254795074462890625">
        <ele>32.799999237060546875</ele>
        <time>2020-02-24T23:42:47.000Z</time>
      </trkpt>
      <trkpt lat="-34.87214036285877227783203125" lon="-59.077443592250347137451171875">
        <ele>32.799999237060546875</ele>
        <time>2020-02-24T23:42:55.000Z</time>
      </trkpt>
      <trkpt lat="-34.8722313903272151947021484375" lon="-59.0775507129728794097900390625">
        <ele>32.40000152587890625</ele>
        <time>2020-02-24T23:43:01.000Z</time>
      </trkpt>
      <trkpt lat="-34.8722469806671142578125" lon="-59.0775701589882373809814453125">
        <ele>32.40000152587890625</ele>
        <time>2020-02-24T23:43:02.000Z</time>
      </trkpt>
      <trkpt lat="-34.87235452048480510711669921875" lon="-59.0776989050209522247314453125">
        <ele>32.40000152587890625</ele>
        <time>2020-02-24T23:43:09.000Z</time>
      </trkpt>
      <trkpt lat="-34.87246449105441570281982421875" lon="-59.07781465910375118255615234375">
        <ele>32.40000152587890625</ele>
        <time>2020-02-24T23:43:16.000Z</time>
      </trkpt>
      <trkpt lat="-34.8725750483572483062744140625" lon="-59.07793066464364528656005859375">
        <ele>32.59999847412109375</ele>
        <time>2020-02-24T23:43:23.000Z</time>
      </trkpt>
      <trkpt lat="-34.87273581326007843017578125" lon="-59.0781091153621673583984375">
        <ele>32.59999847412109375</ele>
        <time>2020-02-24T23:43:33.000Z</time>
      </trkpt>
      <trkpt lat="-34.87288375385105609893798828125" lon="-59.078275747597217559814453125">
        <ele>32.40000152587890625</ele>
        <time>2020-02-24T23:43:42.000Z</time>
      </trkpt>
      <trkpt lat="-34.87301317043602466583251953125" lon="-59.07842754386365413665771484375">
        <ele>32.59999847412109375</ele>
        <time>2020-02-24T23:43:50.000Z</time>
      </trkpt>
      <trkpt lat="-34.87318114377558231353759765625" lon="-59.07862208783626556396484375">
        <ele>32.40000152587890625</ele>
        <time>2020-02-24T23:44:00.000Z</time>
      </trkpt>
      <trkpt lat="-34.8732841573655605316162109375" lon="-59.0787402726709842681884765625">
        <ele>32.200000762939453125</ele>
        <time>2020-02-24T23:44:06.000Z</time>
      </trkpt>
      <trkpt lat="-34.87338650040328502655029296875" lon="-59.0788529254496097564697265625">
        <ele>32.40000152587890625</ele>
        <time>2020-02-24T23:44:12.000Z</time>
      </trkpt>
      <trkpt lat="-34.87350183539092540740966796875" lon="-59.07898946665227413177490234375">
        <ele>32.40000152587890625</ele>
        <time>2020-02-24T23:44:19.000Z</time>
      </trkpt>
      <trkpt lat="-34.8736201040446758270263671875" lon="-59.07912106253206729888916015625">
        <ele>32.200000762939453125</ele>
        <time>2020-02-24T23:44:26.000Z</time>
      </trkpt>
      <trkpt lat="-34.8737240396440029144287109375" lon="-59.07924595288932323455810546875">
        <ele>32.40000152587890625</ele>
        <time>2020-02-24T23:44:33.000Z</time>
      </trkpt>
      <trkpt lat="-34.8738363571465015411376953125" lon="-59.0793705917894840240478515625">
        <ele>32.59999847412109375</ele>
        <time>2020-02-24T23:44:40.000Z</time>
      </trkpt>
      <trkpt lat="-34.87396158277988433837890625" lon="-59.07950696535408496856689453125">
        <ele>32.59999847412109375</ele>
        <time>2020-02-24T23:44:48.000Z</time>
      </trkpt>
      <trkpt lat="-34.8741072602570056915283203125" lon="-59.0796807222068309783935546875">
        <ele>32.59999847412109375</ele>
        <time>2020-02-24T23:44:57.000Z</time>
      </trkpt>
      <trkpt lat="-34.8742581345140933990478515625" lon="-59.0798607654869556427001953125">
        <ele>32.40000152587890625</ele>
        <time>2020-02-24T23:45:06.000Z</time>
      </trkpt>
      <trkpt lat="-34.8743711225688457489013671875" lon="-59.07998221926391124725341796875">
        <ele>32.40000152587890625</ele>
        <time>2020-02-24T23:45:13.000Z</time>
      </trkpt>
      <trkpt lat="-34.874485619366168975830078125" lon="-59.08011917956173419952392578125">
        <ele>32.40000152587890625</ele>
        <time>2020-02-24T23:45:20.000Z</time>
      </trkpt>
      <trkpt lat="-34.87461193464696407318115234375" lon="-59.08027323894202709197998046875">
        <ele>32.59999847412109375</ele>
        <time>2020-02-24T23:45:28.000Z</time>
      </trkpt>
      <trkpt lat="-34.87473179586231708526611328125" lon="-59.0804035775363445281982421875">
        <ele>32.40000152587890625</ele>
        <time>2020-02-24T23:45:35.000Z</time>
      </trkpt>
      <trkpt lat="-34.8748851008713245391845703125" lon="-59.0805611573159694671630859375">
        <ele>32.59999847412109375</ele>
        <time>2020-02-24T23:45:44.000Z</time>
      </trkpt>
      <trkpt lat="-34.8750646412372589111328125" lon="-59.08076190389692783355712890625">
        <ele>32.59999847412109375</ele>
        <time>2020-02-24T23:45:55.000Z</time>
      </trkpt>
      <trkpt lat="-34.8751871846616268157958984375" lon="-59.08090590499341487884521484375">
        <ele>32.59999847412109375</ele>
        <time>2020-02-24T23:46:03.000Z</time>
      </trkpt>
      <trkpt lat="-34.87534032203257083892822265625" lon="-59.08107236959040164947509765625">
        <ele>32.40000152587890625</ele>
        <time>2020-02-24T23:46:12.000Z</time>
      </trkpt>
      <trkpt lat="-34.8754936270415782928466796875" lon="-59.08124604262411594390869140625">
        <ele>32.40000152587890625</ele>
        <time>2020-02-24T23:46:21.000Z</time>
      </trkpt>
      <trkpt lat="-34.87561793066561222076416015625" lon="-59.08138937316834926605224609375">
        <ele>32.59999847412109375</ele>
        <time>2020-02-24T23:46:29.000Z</time>
      </trkpt>
      <trkpt lat="-34.8757199384272098541259765625" lon="-59.08149850554764270782470703125">
        <ele>32.40000152587890625</ele>
        <time>2020-02-24T23:46:35.000Z</time>
      </trkpt>
      <trkpt lat="-34.8758235387504100799560546875" lon="-59.08161409199237823486328125">
        <ele>32.59999847412109375</ele>
        <time>2020-02-24T23:46:42.000Z</time>
      </trkpt>
      <trkpt lat="-34.87593392841517925262451171875" lon="-59.081724397838115692138671875">
        <ele>32.799999237060546875</ele>
        <time>2020-02-24T23:46:49.000Z</time>
      </trkpt>
      <trkpt lat="-34.87600601278245449066162109375" lon="-59.0818228013813495635986328125">
        <ele>32.59999847412109375</ele>
        <time>2020-02-24T23:46:55.000Z</time>
      </trkpt>
      <trkpt lat="-34.87601053901016712188720703125" lon="-59.08186244778335094451904296875">
        <ele>32.799999237060546875</ele>
        <time>2020-02-24T23:46:57.000Z</time>
      </trkpt>
      <trkpt lat="-34.875986315310001373291015625" lon="-59.08193939365446567535400390625">
        <ele>33</ele>
        <time>2020-02-24T23:47:01.000Z</time>
      </trkpt>
      <trkpt lat="-34.87590291537344455718994140625" lon="-59.08206093125045299530029296875">
        <ele>33.59999847412109375</ele>
        <time>2020-02-24T23:47:10.000Z</time>
      </trkpt>
      <trkpt lat="-34.87583166919648647308349609375" lon="-59.082179367542266845703125">
        <ele>33.40000152587890625</ele>
        <time>2020-02-24T23:47:16.000Z</time>
      </trkpt>
      <trkpt lat="-34.87574164755642414093017578125" lon="-59.08233803696930408477783203125">
        <ele>33</ele>
        <time>2020-02-24T23:47:23.000Z</time>
      </trkpt>
      <trkpt lat="-34.87566880881786346435546875" lon="-59.08249092288315296173095703125">
        <ele>33.200000762939453125</ele>
        <time>2020-02-24T23:47:31.000Z</time>
      </trkpt>
      <trkpt lat="-34.8755452595651149749755859375" lon="-59.082704074680805206298828125">
        <ele>33</ele>
        <time>2020-02-24T23:47:42.000Z</time>
      </trkpt>
      <trkpt lat="-34.87542363815009593963623046875" lon="-59.08287414349615573883056640625">
        <ele>33</ele>
        <time>2020-02-24T23:47:52.000Z</time>
      </trkpt>
      <trkpt lat="-34.87533495761454105377197265625" lon="-59.08299542963504791259765625">
        <ele>33.200000762939453125</ele>
        <time>2020-02-24T23:47:59.000Z</time>
      </trkpt>
      <trkpt lat="-34.8752282559871673583984375" lon="-59.08313582651317119598388671875">
        <ele>33.200000762939453125</ele>
        <time>2020-02-24T23:48:07.000Z</time>
      </trkpt>
      <trkpt lat="-34.87511090934276580810546875" lon="-59.083304889500141143798828125">
        <ele>33</ele>
        <time>2020-02-24T23:48:16.000Z</time>
      </trkpt>
      <trkpt lat="-34.87500353716313838958740234375" lon="-59.08345383591949939727783203125">
        <ele>33</ele>
        <time>2020-02-24T23:48:24.000Z</time>
      </trkpt>
      <trkpt lat="-34.87487755715847015380859375" lon="-59.0836265869438648223876953125">
        <ele>33</ele>
        <time>2020-02-24T23:48:33.000Z</time>
      </trkpt>
      <trkpt lat="-34.874749146401882171630859375" lon="-59.0838130004703998565673828125">
        <ele>33.200000762939453125</ele>
        <time>2020-02-24T23:48:42.000Z</time>
      </trkpt>
      <trkpt lat="-34.87457371316850185394287109375" lon="-59.0840547345578670501708984375">
        <ele>33.200000762939453125</ele>
        <time>2020-02-24T23:48:54.000Z</time>
      </trkpt>
      <trkpt lat="-34.874376989901065826416015625" lon="-59.08432655967772006988525390625">
        <ele>33.200000762939453125</ele>
        <time>2020-02-24T23:49:07.000Z</time>
      </trkpt>
      <trkpt lat="-34.8742631636559963226318359375" lon="-59.08447198569774627685546875">
        <ele>33.200000762939453125</ele>
        <time>2020-02-24T23:49:15.000Z</time>
      </trkpt>
      <trkpt lat="-34.8741203360259532928466796875" lon="-59.08465781249105930328369140625">
        <ele>33.40000152587890625</ele>
        <time>2020-02-24T23:49:25.000Z</time>
      </trkpt>
      <trkpt lat="-34.8740972019731998443603515625" lon="-59.0846837125718593597412109375">
        <ele>33.40000152587890625</ele>
        <time>2020-02-24T23:49:27.000Z</time>
      </trkpt>
      <trkpt lat="-34.87408823333680629730224609375" lon="-59.08470056019723415374755859375">
        <ele>33.40000152587890625</ele>
        <time>2020-02-24T23:49:28.000Z</time>
      </trkpt>
      <trkpt lat="-34.874063841998577117919921875" lon="-59.08473308198153972625732421875">
        <ele>33.40000152587890625</ele>
        <time>2020-02-24T23:49:30.000Z</time>
      </trkpt>
      <trkpt lat="-34.87395529635250568389892578125" lon="-59.084893763065338134765625">
        <ele>33.59999847412109375</ele>
        <time>2020-02-24T23:49:39.000Z</time>
      </trkpt>
      <trkpt lat="-34.873841889202594757080078125" lon="-59.085041619837284088134765625">
        <ele>33.40000152587890625</ele>
        <time>2020-02-24T23:49:48.000Z</time>
      </trkpt>
      <trkpt lat="-34.8737035878002643585205078125" lon="-59.0852248482406139373779296875">
        <ele>33.59999847412109375</ele>
        <time>2020-02-24T23:49:58.000Z</time>
      </trkpt>
      <trkpt lat="-34.87354693002998828887939453125" lon="-59.08545023761689662933349609375">
        <ele>33.40000152587890625</ele>
        <time>2020-02-24T23:50:09.000Z</time>
      </trkpt>
      <trkpt lat="-34.87342178821563720703125" lon="-59.08562759868800640106201171875">
        <ele>33.799999237060546875</ele>
        <time>2020-02-24T23:50:18.000Z</time>
      </trkpt>
      <trkpt lat="-34.87330787815153598785400390625" lon="-59.08578601665794849395751953125">
        <ele>33.59999847412109375</ele>
        <time>2020-02-24T23:50:26.000Z</time>
      </trkpt>
      <trkpt lat="-34.8731282539665699005126953125" lon="-59.08602842129766941070556640625">
        <ele>33.799999237060546875</ele>
        <time>2020-02-24T23:50:38.000Z</time>
      </trkpt>
      <trkpt lat="-34.8730266653001308441162109375" lon="-59.086172841489315032958984375">
        <ele>33.59999847412109375</ele>
        <time>2020-02-24T23:50:45.000Z</time>
      </trkpt>
      <trkpt lat="-34.87287302501499652862548828125" lon="-59.08637945540249347686767578125">
        <ele>33.799999237060546875</ele>
        <time>2020-02-24T23:50:55.000Z</time>
      </trkpt>
      <trkpt lat="-34.8727364838123321533203125" lon="-59.08656117506325244903564453125">
        <ele>33.799999237060546875</ele>
        <time>2020-02-24T23:51:04.000Z</time>
      </trkpt>
      <trkpt lat="-34.872634895145893096923828125" lon="-59.08669888973236083984375">
        <ele>33.59999847412109375</ele>
        <time>2020-02-24T23:51:11.000Z</time>
      </trkpt>
      <trkpt lat="-34.872507154941558837890625" lon="-59.08686828799545764923095703125">
        <ele>34.200000762939453125</ele>
        <time>2020-02-24T23:51:20.000Z</time>
      </trkpt>
      <trkpt lat="-34.87242056988179683685302734375" lon="-59.0869952738285064697265625">
        <ele>34</ele>
        <time>2020-02-24T23:51:27.000Z</time>
      </trkpt>
      <trkpt lat="-34.87232568673789501190185546875" lon="-59.087133072316646575927734375">
        <ele>33.799999237060546875</ele>
        <time>2020-02-24T23:51:35.000Z</time>
      </trkpt>
      <trkpt lat="-34.8722183145582675933837890625" lon="-59.08727531321346759796142578125">
        <ele>33.799999237060546875</ele>
        <time>2020-02-24T23:51:43.000Z</time>
      </trkpt>
      <trkpt lat="-34.87210147082805633544921875" lon="-59.08744529820978641510009765625">
        <ele>33.799999237060546875</ele>
        <time>2020-02-24T23:51:52.000Z</time>
      </trkpt>
      <trkpt lat="-34.87198747694492340087890625" lon="-59.087597094476222991943359375">
        <ele>33.799999237060546875</ele>
        <time>2020-02-24T23:52:00.000Z</time>
      </trkpt>
      <trkpt lat="-34.87186501733958721160888671875" lon="-59.0877682529389858245849609375">
        <ele>33.799999237060546875</ele>
        <time>2020-02-24T23:52:09.000Z</time>
      </trkpt>
      <trkpt lat="-34.87174632959067821502685546875" lon="-59.08793094567954540252685546875">
        <ele>33.799999237060546875</ele>
        <time>2020-02-24T23:52:18.000Z</time>
      </trkpt>
      <trkpt lat="-34.8716513626277446746826171875" lon="-59.088059775531291961669921875">
        <ele>33.799999237060546875</ele>
        <time>2020-02-24T23:52:25.000Z</time>
      </trkpt>
      <trkpt lat="-34.87147492356598377227783203125" lon="-59.0883083827793598175048828125">
        <ele>34.200000762939453125</ele>
        <time>2020-02-24T23:52:37.000Z</time>
      </trkpt>
      <trkpt lat="-34.8713110573589801788330078125" lon="-59.088538549840450286865234375">
        <ele>34</ele>
        <time>2020-02-24T23:52:48.000Z</time>
      </trkpt>
      <trkpt lat="-34.8710887692868709564208984375" lon="-59.08883870579302310943603515625">
        <ele>34.200000762939453125</ele>
        <time>2020-02-24T23:53:02.000Z</time>
      </trkpt>
      <trkpt lat="-34.87095658667385578155517578125" lon="-59.089021347463130950927734375">
        <ele>33.799999237060546875</ele>
        <time>2020-02-24T23:53:11.000Z</time>
      </trkpt>
      <trkpt lat="-34.87082147039473056793212890625" lon="-59.0892045758664608001708984375">
        <ele>34</ele>
        <time>2020-02-24T23:53:20.000Z</time>
      </trkpt>
      <trkpt lat="-34.8706800676882266998291015625" lon="-59.08939911983907222747802734375">
        <ele>33.799999237060546875</ele>
        <time>2020-02-24T23:53:30.000Z</time>
      </trkpt>
      <trkpt lat="-34.87053682096302509307861328125" lon="-59.089598357677459716796875">
        <ele>34</ele>
        <time>2020-02-24T23:53:40.000Z</time>
      </trkpt>
      <trkpt lat="-34.87040765583515167236328125" lon="-59.08977395854890346527099609375">
        <ele>33.799999237060546875</ele>
        <time>2020-02-24T23:53:49.000Z</time>
      </trkpt>
      <trkpt lat="-34.87021596170961856842041015625" lon="-59.090032540261745452880859375">
        <ele>34</ele>
        <time>2020-02-24T23:54:02.000Z</time>
      </trkpt>
      <trkpt lat="-34.8700728826224803924560546875" lon="-59.0902221389114856719970703125">
        <ele>34</ele>
        <time>2020-02-24T23:54:11.000Z</time>
      </trkpt>
      <trkpt lat="-34.86994002945721149444580078125" lon="-59.0903834067285060882568359375">
        <ele>34.200000762939453125</ele>
        <time>2020-02-24T23:54:19.000Z</time>
      </trkpt>
      <trkpt lat="-34.86975898034870624542236328125" lon="-59.0906023420393466949462890625">
        <ele>34.200000762939453125</ele>
        <time>2020-02-24T23:54:30.000Z</time>
      </trkpt>
      <trkpt lat="-34.8696531169116497039794921875" lon="-59.090781547129154205322265625">
        <ele>34</ele>
        <time>2020-02-24T23:54:39.000Z</time>
      </trkpt>
      <trkpt lat="-34.86958145163953304290771484375" lon="-59.09097441472113132476806640625">
        <ele>34</ele>
        <time>2020-02-24T23:54:47.000Z</time>
      </trkpt>
      <trkpt lat="-34.86949243582785129547119140625" lon="-59.09126342274248600006103515625">
        <ele>34.200000762939453125</ele>
        <time>2020-02-24T23:54:58.000Z</time>
      </trkpt>
      <trkpt lat="-34.86943158321082592010498046875" lon="-59.0914485789835453033447265625">
        <ele>33.799999237060546875</ele>
        <time>2020-02-24T23:55:05.000Z</time>
      </trkpt>
      <trkpt lat="-34.86936025321483612060546875" lon="-59.0916859544813632965087890625">
        <ele>33.799999237060546875</ele>
        <time>2020-02-24T23:55:14.000Z</time>
      </trkpt>
      <trkpt lat="-34.869314320385456085205078125" lon="-59.09190245904028415679931640625">
        <ele>34</ele>
        <time>2020-02-24T23:55:22.000Z</time>
      </trkpt>
      <trkpt lat="-34.86928640864789485931396484375" lon="-59.0921566821634769439697265625">
        <ele>33.799999237060546875</ele>
        <time>2020-02-24T23:55:31.000Z</time>
      </trkpt>
      <trkpt lat="-34.8692809604108333587646484375" lon="-59.09241643734276294708251953125">
        <ele>34</ele>
        <time>2020-02-24T23:55:40.000Z</time>
      </trkpt>
      <trkpt lat="-34.8692844808101654052734375" lon="-59.09266822971403598785400390625">
        <ele>33.799999237060546875</ele>
        <time>2020-02-24T23:55:49.000Z</time>
      </trkpt>
      <trkpt lat="-34.8692937009036540985107421875" lon="-59.09296897239983081817626953125">
        <ele>34</ele>
        <time>2020-02-24T23:56:00.000Z</time>
      </trkpt>
      <trkpt lat="-34.86930434592068195343017578125" lon="-59.0932101197540760040283203125">
        <ele>34</ele>
        <time>2020-02-24T23:56:09.000Z</time>
      </trkpt>
      <trkpt lat="-34.86931490711867809295654296875" lon="-59.0934515185654163360595703125">
        <ele>34</ele>
        <time>2020-02-24T23:56:18.000Z</time>
      </trkpt>
      <trkpt lat="-34.8693218640983104705810546875" lon="-59.0937579609453678131103515625">
        <ele>33.799999237060546875</ele>
        <time>2020-02-24T23:56:29.000Z</time>
      </trkpt>
      <trkpt lat="-34.869330413639545440673828125" lon="-59.0940275229513645172119140625">
        <ele>33.799999237060546875</ele>
        <time>2020-02-24T23:56:39.000Z</time>
      </trkpt>
      <trkpt lat="-34.8693389631807804107666015625" lon="-59.09428618848323822021484375">
        <ele>34</ele>
        <time>2020-02-24T23:56:49.000Z</time>
      </trkpt>
      <trkpt lat="-34.869351200759410858154296875" lon="-59.09449883736670017242431640625">
        <ele>33.799999237060546875</ele>
        <time>2020-02-24T23:56:58.000Z</time>
      </trkpt>
      <trkpt lat="-34.86935622990131378173828125" lon="-59.0947208739817142486572265625">
        <ele>34</ele>
        <time>2020-02-24T23:57:07.000Z</time>
      </trkpt>
      <trkpt lat="-34.86936721019446849822998046875" lon="-59.09495933912694454193115234375">
        <ele>34</ele>
        <time>2020-02-24T23:57:16.000Z</time>
      </trkpt>
      <trkpt lat="-34.86937810666859149932861328125" lon="-59.09520006738603115081787109375">
        <ele>34</ele>
        <time>2020-02-24T23:57:25.000Z</time>
      </trkpt>
      <trkpt lat="-34.86938774585723876953125" lon="-59.0955059230327606201171875">
        <ele>34</ele>
        <time>2020-02-24T23:57:36.000Z</time>
      </trkpt>
      <trkpt lat="-34.86939512193202972412109375" lon="-59.0957132913172245025634765625">
        <ele>33.799999237060546875</ele>
        <time>2020-02-24T23:57:44.000Z</time>
      </trkpt>
      <trkpt lat="-34.869406856596469879150390625" lon="-59.0960180573165416717529296875">
        <ele>33.59999847412109375</ele>
        <time>2020-02-24T23:57:55.000Z</time>
      </trkpt>
      <trkpt lat="-34.8694174177944660186767578125" lon="-59.096296168863773345947265625">
        <ele>33.59999847412109375</ele>
        <time>2020-02-24T23:58:05.000Z</time>
      </trkpt>
      <trkpt lat="-34.8694268055260181427001953125" lon="-59.09654368646442890167236328125">
        <ele>33.799999237060546875</ele>
        <time>2020-02-24T23:58:14.000Z</time>
      </trkpt>
      <trkpt lat="-34.8694361932575702667236328125" lon="-59.09686018712818622589111328125">
        <ele>33.799999237060546875</ele>
        <time>2020-02-24T23:58:26.000Z</time>
      </trkpt>
      <trkpt lat="-34.86944449134171009063720703125" lon="-59.09709219820797443389892578125">
        <ele>33.59999847412109375</ele>
        <time>2020-02-24T23:58:35.000Z</time>
      </trkpt>
      <trkpt lat="-34.86945287324488162994384765625" lon="-59.09732236526906490325927734375">
        <ele>33.799999237060546875</ele>
        <time>2020-02-24T23:58:44.000Z</time>
      </trkpt>
      <trkpt lat="-34.86946594901382923126220703125" lon="-59.0976203419268131256103515625">
        <ele>33.799999237060546875</ele>
        <time>2020-02-24T23:58:55.000Z</time>
      </trkpt>
      <trkpt lat="-34.86947617493569850921630859375" lon="-59.09790624864399433135986328125">
        <ele>33.799999237060546875</ele>
        <time>2020-02-24T23:59:06.000Z</time>
      </trkpt>
      <trkpt lat="-34.8694844730198383331298828125" lon="-59.09822459332644939422607421875">
        <ele>34</ele>
        <time>2020-02-24T23:59:18.000Z</time>
      </trkpt>
      <trkpt lat="-34.8694931901991367340087890625" lon="-59.09846934489905834197998046875">
        <ele>33.799999237060546875</ele>
        <time>2020-02-24T23:59:29.000Z</time>
      </trkpt>
      <trkpt lat="-34.8695071041584014892578125" lon="-59.09865341149270534515380859375">
        <ele>33.799999237060546875</ele>
        <time>2020-02-24T23:59:37.000Z</time>
      </trkpt>
      <trkpt lat="-34.86951992847025394439697265625" lon="-59.09887276589870452880859375">
        <ele>34</ele>
        <time>2020-02-24T23:59:46.000Z</time>
      </trkpt>
      <trkpt lat="-34.8695230297744274139404296875" lon="-59.09908273257315158843994140625">
        <ele>34</ele>
        <time>2020-02-24T23:59:55.000Z</time>
      </trkpt>
      <trkpt lat="-34.86952655017375946044921875" lon="-59.09925707615911960601806640625">
        <ele>33.799999237060546875</ele>
        <time>2020-02-25T00:00:02.000Z</time>
      </trkpt>
      <trkpt lat="-34.86953233368694782257080078125" lon="-59.099427647888660430908203125">
        <ele>33.59999847412109375</ele>
        <time>2020-02-25T00:00:09.000Z</time>
      </trkpt>
      <trkpt lat="-34.86953853629529476165771484375" lon="-59.09962822683155536651611328125">
        <ele>33.40000152587890625</ele>
        <time>2020-02-25T00:00:17.000Z</time>
      </trkpt>
      <trkpt lat="-34.86954742111265659332275390625" lon="-59.099831990897655487060546875">
        <ele>33.59999847412109375</ele>
        <time>2020-02-25T00:00:25.000Z</time>
      </trkpt>
      <trkpt lat="-34.8695568926632404327392578125" lon="-59.1000152193009853363037109375">
        <ele>33.40000152587890625</ele>
        <time>2020-02-25T00:00:32.000Z</time>
      </trkpt>
      <trkpt lat="-34.86956552602350711822509765625" lon="-59.10024697892367839813232421875">
        <ele>33.799999237060546875</ele>
        <time>2020-02-25T00:00:41.000Z</time>
      </trkpt>
      <trkpt lat="-34.8695661127567291259765625" lon="-59.10048251040279865264892578125">
        <ele>33.799999237060546875</ele>
        <time>2020-02-25T00:00:50.000Z</time>
      </trkpt>
      <trkpt lat="-34.86956703476607799530029296875" lon="-59.1007176227867603302001953125">
        <ele>33.59999847412109375</ele>
        <time>2020-02-25T00:00:59.000Z</time>
      </trkpt>
      <trkpt lat="-34.869573153555393218994140625" lon="-59.10093261860311031341552734375">
        <ele>33.59999847412109375</ele>
        <time>2020-02-25T00:01:07.000Z</time>
      </trkpt>
      <trkpt lat="-34.8695853911340236663818359375" lon="-59.10118223167955875396728515625">
        <ele>33.799999237060546875</ele>
        <time>2020-02-25T00:01:16.000Z</time>
      </trkpt>
      <trkpt lat="-34.86959586851298809051513671875" lon="-59.10146721638739109039306640625">
        <ele>33.59999847412109375</ele>
        <time>2020-02-25T00:01:26.000Z</time>
      </trkpt>
      <trkpt lat="-34.8696068488061428070068359375" lon="-59.1016926057636737823486328125">
        <ele>33.40000152587890625</ele>
        <time>2020-02-25T00:01:34.000Z</time>
      </trkpt>
      <trkpt lat="-34.86961313523352146148681640625" lon="-59.10196040757000446319580078125">
        <ele>33.200000762939453125</ele>
        <time>2020-02-25T00:01:44.000Z</time>
      </trkpt>
      <trkpt lat="-34.8696219362318515777587890625" lon="-59.10218202508985996246337890625">
        <ele>33.200000762939453125</ele>
        <time>2020-02-25T00:01:52.000Z</time>
      </trkpt>
      <trkpt lat="-34.869633503258228302001953125" lon="-59.10245812498033046722412109375">
        <ele>33.200000762939453125</ele>
        <time>2020-02-25T00:02:02.000Z</time>
      </trkpt>
      <trkpt lat="-34.86963761039078235626220703125" lon="-59.1026179678738117218017578125">
        <ele>33.40000152587890625</ele>
        <time>2020-02-25T00:02:09.000Z</time>
      </trkpt>
      <trkpt lat="-34.8696440644562244415283203125" lon="-59.10287537612020969390869140625">
        <ele>33.200000762939453125</ele>
        <time>2020-02-25T00:02:19.000Z</time>
      </trkpt>
      <trkpt lat="-34.86965504474937915802001953125" lon="-59.10311543382704257965087890625">
        <ele>33.200000762939453125</ele>
        <time>2020-02-25T00:02:28.000Z</time>
      </trkpt>
      <trkpt lat="-34.86966476775705814361572265625" lon="-59.1033642925322055816650390625">
        <ele>33.200000762939453125</ele>
        <time>2020-02-25T00:02:37.000Z</time>
      </trkpt>
      <trkpt lat="-34.869672395288944244384765625" lon="-59.10363326780498027801513671875">
        <ele>33.200000762939453125</ele>
        <time>2020-02-25T00:02:47.000Z</time>
      </trkpt>
      <trkpt lat="-34.8696789331734180450439453125" lon="-59.103806018829345703125">
        <ele>33</ele>
        <time>2020-02-25T00:02:54.000Z</time>
      </trkpt>
      <trkpt lat="-34.869683794677257537841796875" lon="-59.1039523668587207794189453125">
        <ele>33</ele>
        <time>2020-02-25T00:03:00.000Z</time>
      </trkpt>
      <trkpt lat="-34.86969552934169769287109375" lon="-59.10419552586972713470458984375">
        <ele>33</ele>
        <time>2020-02-25T00:03:09.000Z</time>
      </trkpt>
      <trkpt lat="-34.86967734061181545257568359375" lon="-59.10445502959191799163818359375">
        <ele>33</ele>
        <time>2020-02-25T00:03:19.000Z</time>
      </trkpt>
      <trkpt lat="-34.869580529630184173583984375" lon="-59.10460892133414745330810546875">
        <ele>33</ele>
        <time>2020-02-25T00:03:27.000Z</time>
      </trkpt>
      <trkpt lat="-34.86944834701716899871826171875" lon="-59.1047483123838901519775390625">
        <ele>33</ele>
        <time>2020-02-25T00:03:35.000Z</time>
      </trkpt>
      <trkpt lat="-34.86932027153670787811279296875" lon="-59.10488250665366649627685546875">
        <ele>32.799999237060546875</ele>
        <time>2020-02-25T00:03:43.000Z</time>
      </trkpt>
      <trkpt lat="-34.869137294590473175048828125" lon="-59.10506942309439182281494140625">
        <ele>32.799999237060546875</ele>
        <time>2020-02-25T00:03:54.000Z</time>
      </trkpt>
      <trkpt lat="-34.86901760101318359375" lon="-59.10519615747034549713134765625">
        <ele>32.59999847412109375</ele>
        <time>2020-02-25T00:04:01.000Z</time>
      </trkpt>
      <trkpt lat="-34.86898214556276798248291015625" lon="-59.10523186437785625457763671875">
        <ele>32.40000152587890625</ele>
        <time>2020-02-25T00:04:03.000Z</time>
      </trkpt>
      <trkpt lat="-34.86880981363356113433837890625" lon="-59.1054168529808521270751953125">
        <ele>32.59999847412109375</ele>
        <time>2020-02-25T00:04:13.000Z</time>
      </trkpt>
      <trkpt lat="-34.868677966296672821044921875" lon="-59.1055548191070556640625">
        <ele>32.59999847412109375</ele>
        <time>2020-02-25T00:04:21.000Z</time>
      </trkpt>
      <trkpt lat="-34.86844955943524837493896484375" lon="-59.1057953797280788421630859375">
        <ele>32.59999847412109375</ele>
        <time>2020-02-25T00:04:34.000Z</time>
      </trkpt>
      <trkpt lat="-34.868242442607879638671875" lon="-59.1060109622776508331298828125">
        <ele>32.59999847412109375</ele>
        <time>2020-02-25T00:04:45.000Z</time>
      </trkpt>
      <trkpt lat="-34.8680863715708255767822265625" lon="-59.10617801360785961151123046875">
        <ele>32.59999847412109375</ele>
        <time>2020-02-25T00:04:53.000Z</time>
      </trkpt>
      <trkpt lat="-34.86787456087768077850341796875" lon="-59.1064039058983325958251953125">
        <ele>32.200000762939453125</ele>
        <time>2020-02-25T00:05:04.000Z</time>
      </trkpt>
      <trkpt lat="-34.86770994029939174652099609375" lon="-59.106576740741729736328125">
        <ele>32.200000762939453125</ele>
        <time>2020-02-25T00:05:13.000Z</time>
      </trkpt>
      <trkpt lat="-34.86757298000156879425048828125" lon="-59.10672501660883426666259765625">
        <ele>32.200000762939453125</ele>
        <time>2020-02-25T00:05:21.000Z</time>
      </trkpt>
      <trkpt lat="-34.86739821732044219970703125" lon="-59.1069066524505615234375">
        <ele>32.40000152587890625</ele>
        <time>2020-02-25T00:05:31.000Z</time>
      </trkpt>
      <trkpt lat="-34.86724541522562503814697265625" lon="-59.10707135684788227081298828125">
        <ele>32.59999847412109375</ele>
        <time>2020-02-25T00:05:40.000Z</time>
      </trkpt>
      <trkpt lat="-34.86707978881895542144775390625" lon="-59.10724662244319915771484375">
        <ele>32.40000152587890625</ele>
        <time>2020-02-25T00:05:50.000Z</time>
      </trkpt>
      <trkpt lat="-34.8669082112610340118408203125" lon="-59.10743035376071929931640625">
        <ele>32.59999847412109375</ele>
        <time>2020-02-25T00:06:00.000Z</time>
      </trkpt>
      <trkpt lat="-34.86672288738191127777099609375" lon="-59.10763126797974109649658203125">
        <ele>32.40000152587890625</ele>
        <time>2020-02-25T00:06:11.000Z</time>
      </trkpt>
      <trkpt lat="-34.8665467835962772369384765625" lon="-59.1078231297433376312255859375">
        <ele>32.59999847412109375</ele>
        <time>2020-02-25T00:06:21.000Z</time>
      </trkpt>
      <trkpt lat="-34.86642859876155853271484375" lon="-59.107949696481227874755859375">
        <ele>32.40000152587890625</ele>
        <time>2020-02-25T00:06:28.000Z</time>
      </trkpt>
      <trkpt lat="-34.86626070924103260040283203125" lon="-59.1081285662949085235595703125">
        <ele>32.40000152587890625</ele>
        <time>2020-02-25T00:06:38.000Z</time>
      </trkpt>
      <trkpt lat="-34.866097681224346160888671875" lon="-59.10830567590892314910888671875">
        <ele>32</ele>
        <time>2020-02-25T00:06:48.000Z</time>
      </trkpt>
      <trkpt lat="-34.86597002483904361724853515625" lon="-59.10844347439706325531005859375">
        <ele>32.40000152587890625</ele>
        <time>2020-02-25T00:06:57.000Z</time>
      </trkpt>
      <trkpt lat="-34.86586843617260456085205078125" lon="-59.10855176858603954315185546875">
        <ele>32.40000152587890625</ele>
        <time>2020-02-25T00:07:05.000Z</time>
      </trkpt>
      <trkpt lat="-34.865736924111843109130859375" lon="-59.10869023762643337249755859375">
        <ele>32.200000762939453125</ele>
        <time>2020-02-25T00:07:14.000Z</time>
      </trkpt>
      <trkpt lat="-34.86558127216994762420654296875" lon="-59.10885770805180072784423828125">
        <ele>32.40000152587890625</ele>
        <time>2020-02-25T00:07:24.000Z</time>
      </trkpt>
      <trkpt lat="-34.86542033962905406951904296875" lon="-59.1090269386768341064453125">
        <ele>32.40000152587890625</ele>
        <time>2020-02-25T00:07:34.000Z</time>
      </trkpt>
      <trkpt lat="-34.8652750812470912933349609375" lon="-59.10918393172323703765869140625">
        <ele>32.40000152587890625</ele>
        <time>2020-02-25T00:07:43.000Z</time>
      </trkpt>
      <trkpt lat="-34.8651563934981822967529296875" lon="-59.1093085706233978271484375">
        <ele>32.40000152587890625</ele>
        <time>2020-02-25T00:07:50.000Z</time>
      </trkpt>
      <trkpt lat="-34.86501239240169525146484375" lon="-59.10946455784142017364501953125">
        <ele>32.40000152587890625</ele>
        <time>2020-02-25T00:07:59.000Z</time>
      </trkpt>
      <trkpt lat="-34.8648579977452754974365234375" lon="-59.10963001661002635955810546875">
        <ele>32.40000152587890625</ele>
        <time>2020-02-25T00:08:08.000Z</time>
      </trkpt>
      <trkpt lat="-34.86470854841172695159912109375" lon="-59.1097885183990001678466796875">
        <ele>32.59999847412109375</ele>
        <time>2020-02-25T00:08:17.000Z</time>
      </trkpt>
      <trkpt lat="-34.8645793832838535308837890625" lon="-59.1099276579916477203369140625">
        <ele>32.799999237060546875</ele>
        <time>2020-02-25T00:08:25.000Z</time>
      </trkpt>
      <trkpt lat="-34.86442825756967067718505859375" lon="-59.110089428722858428955078125">
        <ele>32.59999847412109375</ele>
        <time>2020-02-25T00:08:34.000Z</time>
      </trkpt>
      <trkpt lat="-34.86430068500339984893798828125" lon="-59.110224880278110504150390625">
        <ele>32.200000762939453125</ele>
        <time>2020-02-25T00:08:42.000Z</time>
      </trkpt>
      <trkpt lat="-34.864150397479534149169921875" lon="-59.110383801162242889404296875">
        <ele>32.200000762939453125</ele>
        <time>2020-02-25T00:08:51.000Z</time>
      </trkpt>
      <trkpt lat="-34.86402626149356365203857421875" lon="-59.1105150617659091949462890625">
        <ele>32.40000152587890625</ele>
        <time>2020-02-25T00:08:59.000Z</time>
      </trkpt>
      <trkpt lat="-34.8638977669179439544677734375" lon="-59.11065210588276386260986328125">
        <ele>32.40000152587890625</ele>
        <time>2020-02-25T00:09:07.000Z</time>
      </trkpt>
      <trkpt lat="-34.863747395575046539306640625" lon="-59.11080800928175449371337890625">
        <ele>32.200000762939453125</ele>
        <time>2020-02-25T00:09:16.000Z</time>
      </trkpt>
      <trkpt lat="-34.8636196553707122802734375" lon="-59.1109455563127994537353515625">
        <ele>32.40000152587890625</ele>
        <time>2020-02-25T00:09:24.000Z</time>
      </trkpt>
      <trkpt lat="-34.8634914122521877288818359375" lon="-59.11108553409576416015625">
        <ele>32.40000152587890625</ele>
        <time>2020-02-25T00:09:32.000Z</time>
      </trkpt>
      <trkpt lat="-34.86336375586688518524169921875" lon="-59.1112288646399974822998046875">
        <ele>32.59999847412109375</ele>
        <time>2020-02-25T00:09:40.000Z</time>
      </trkpt>
      <trkpt lat="-34.86327155493199825286865234375" lon="-59.111335314810276031494140625">
        <ele>32.59999847412109375</ele>
        <time>2020-02-25T00:09:47.000Z</time>
      </trkpt>
      <trkpt lat="-34.86316611059010028839111328125" lon="-59.11145978607237339019775390625">
        <ele>33</ele>
        <time>2020-02-25T00:09:56.000Z</time>
      </trkpt>
      <trkpt lat="-34.86302412115037441253662109375" lon="-59.111592806875705718994140625">
        <ele>32.40000152587890625</ele>
        <time>2020-02-25T00:10:04.000Z</time>
      </trkpt>
      <trkpt lat="-34.8629026673734188079833984375" lon="-59.11171191371977329254150390625">
        <ele>32.40000152587890625</ele>
        <time>2020-02-25T00:10:11.000Z</time>
      </trkpt>
      <trkpt lat="-34.86275187693536281585693359375" lon="-59.1118692420423030853271484375">
        <ele>32.200000762939453125</ele>
        <time>2020-02-25T00:10:20.000Z</time>
      </trkpt>
      <trkpt lat="-34.86257099546492099761962890625" lon="-59.1120660491287708282470703125">
        <ele>32.59999847412109375</ele>
        <time>2020-02-25T00:10:31.000Z</time>
      </trkpt>
      <trkpt lat="-34.862394221127033233642578125" lon="-59.1122578270733356475830078125">
        <ele>32.200000762939453125</ele>
        <time>2020-02-25T00:10:42.000Z</time>
      </trkpt>
      <trkpt lat="-34.86220537684857845306396484375" lon="-59.11246896721422672271728515625">
        <ele>32.799999237060546875</ele>
        <time>2020-02-25T00:10:54.000Z</time>
      </trkpt>
      <trkpt lat="-34.862068332731723785400390625" lon="-59.11261246539652347564697265625">
        <ele>32.40000152587890625</ele>
        <time>2020-02-25T00:11:03.000Z</time>
      </trkpt>
      <trkpt lat="-34.86195459030568599700927734375" lon="-59.1127386130392551422119140625">
        <ele>32.59999847412109375</ele>
        <time>2020-02-25T00:11:11.000Z</time>
      </trkpt>
      <trkpt lat="-34.8618582822382450103759765625" lon="-59.1128526069223880767822265625">
        <ele>32.40000152587890625</ele>
        <time>2020-02-25T00:11:19.000Z</time>
      </trkpt>
      <trkpt lat="-34.86177572049200534820556640625" lon="-59.11293382756412029266357421875">
        <ele>32.799999237060546875</ele>
        <time>2020-02-25T00:11:27.000Z</time>
      </trkpt>
      <trkpt lat="-34.86175753176212310791015625" lon="-59.112952016294002532958984375">
        <ele>32.799999237060546875</ele>
        <time>2020-02-25T00:11:33.000Z</time>
      </trkpt>
      <trkpt lat="-34.8617583699524402618408203125" lon="-59.11295075900852680206298828125">
        <ele>32.799999237060546875</ele>
        <time>2020-02-25T00:11:45.000Z</time>
      </trkpt>
      <trkpt lat="-34.86175292171537876129150390625" lon="-59.1129541955888271331787109375">
        <ele>32.799999237060546875</ele>
        <time>2020-02-25T00:12:07.000Z</time>
      </trkpt>
      <trkpt lat="-34.86173498444259166717529296875" lon="-59.11297154612839221954345703125">
        <ele>32.799999237060546875</ele>
        <time>2020-02-25T00:12:09.000Z</time>
      </trkpt>
      <trkpt lat="-34.86163423396646976470947265625" lon="-59.1130561195313930511474609375">
        <ele>32.40000152587890625</ele>
        <time>2020-02-25T00:12:18.000Z</time>
      </trkpt>
      <trkpt lat="-34.86159986816346645355224609375" lon="-59.11309945397078990936279296875">
        <ele>32.40000152587890625</ele>
        <time>2020-02-25T00:12:24.000Z</time>
      </trkpt>
      <trkpt lat="-34.8615937493741512298583984375" lon="-59.113106243312358856201171875">
        <ele>32.799999237060546875</ele>
        <time>2020-02-25T00:12:36.000Z</time>
      </trkpt>
      <trkpt lat="-34.86156441271305084228515625" lon="-59.113142788410186767578125">
        <ele>32.59999847412109375</ele>
        <time>2020-02-25T00:12:39.000Z</time>
      </trkpt>
      <trkpt lat="-34.8614737205207347869873046875" lon="-59.113265834748744964599609375">
        <ele>32.59999847412109375</ele>
        <time>2020-02-25T00:12:45.000Z</time>
      </trkpt>
      <trkpt lat="-34.86136165447533130645751953125" lon="-59.11342986859381198883056640625">
        <ele>32.799999237060546875</ele>
        <time>2020-02-25T00:12:51.000Z</time>
      </trkpt>
      <trkpt lat="-34.861189238727092742919921875" lon="-59.11367931403219699859619140625">
        <ele>32.59999847412109375</ele>
        <time>2020-02-25T00:12:59.000Z</time>
      </trkpt>
      <trkpt lat="-34.86105881631374359130859375" lon="-59.11387033760547637939453125">
        <ele>32.799999237060546875</ele>
        <time>2020-02-25T00:13:07.000Z</time>
      </trkpt>
      <trkpt lat="-34.86096703447401523590087890625" lon="-59.11399983800947666168212890625">
        <ele>32.799999237060546875</ele>
        <time>2020-02-25T00:13:14.000Z</time>
      </trkpt>
      <trkpt lat="-34.86087332479655742645263671875" lon="-59.11416445858776569366455078125">
        <ele>33</ele>
        <time>2020-02-25T00:13:22.000Z</time>
      </trkpt>
      <trkpt lat="-34.86076100729405879974365234375" lon="-59.11430125124752521514892578125">
        <ele>33</ele>
        <time>2020-02-25T00:13:30.000Z</time>
      </trkpt>
      <trkpt lat="-34.86065925098955631256103515625" lon="-59.11444894038140773773193359375">
        <ele>33</ele>
        <time>2020-02-25T00:13:38.000Z</time>
      </trkpt>
      <trkpt lat="-34.86055665649473667144775390625" lon="-59.1145940311253070831298828125">
        <ele>32.799999237060546875</ele>
        <time>2020-02-25T00:13:46.000Z</time>
      </trkpt>
      <trkpt lat="-34.86041265539824962615966796875" lon="-59.11480148322880268096923828125">
        <ele>32.799999237060546875</ele>
        <time>2020-02-25T00:13:55.000Z</time>
      </trkpt>
      <trkpt lat="-34.86028944142162799835205078125" lon="-59.1149809397757053375244140625">
        <ele>32.799999237060546875</ele>
        <time>2020-02-25T00:14:04.000Z</time>
      </trkpt>
      <trkpt lat="-34.86020511947572231292724609375" lon="-59.11509233526885509490966796875">
        <ele>32.59999847412109375</ele>
        <time>2020-02-25T00:14:11.000Z</time>
      </trkpt>
      <trkpt lat="-34.86012364737689495086669921875" lon="-59.11521186120808124542236328125">
        <ele>32.799999237060546875</ele>
        <time>2020-02-25T00:14:18.000Z</time>
      </trkpt>
      <trkpt lat="-34.8600337095558643341064453125" lon="-59.11533574573695659637451171875">
        <ele>32.799999237060546875</ele>
        <time>2020-02-25T00:14:25.000Z</time>
      </trkpt>
      <trkpt lat="-34.85992181114852428436279296875" lon="-59.115502126514911651611328125">
        <ele>32.799999237060546875</ele>
        <time>2020-02-25T00:14:34.000Z</time>
      </trkpt>
      <trkpt lat="-34.85979692079126834869384765625" lon="-59.1156873665750026702880859375">
        <ele>32.799999237060546875</ele>
        <time>2020-02-25T00:14:44.000Z</time>
      </trkpt>
      <trkpt lat="-34.85967068932950496673583984375" lon="-59.1158684156835079193115234375">
        <ele>33</ele>
        <time>2020-02-25T00:14:54.000Z</time>
      </trkpt>
      <trkpt lat="-34.85953708179295063018798828125" lon="-59.11605742760002613067626953125">
        <ele>32.799999237060546875</ele>
        <time>2020-02-25T00:15:05.000Z</time>
      </trkpt>
      <trkpt lat="-34.85938386060297489166259765625" lon="-59.11627091467380523681640625">
        <ele>33</ele>
        <time>2020-02-25T00:15:17.000Z</time>
      </trkpt>
      <trkpt lat="-34.85924161970615386962890625" lon="-59.116489179432392120361328125">
        <ele>33</ele>
        <time>2020-02-25T00:15:28.000Z</time>
      </trkpt>
      <trkpt lat="-34.85909543931484222412109375" lon="-59.11670836620032787322998046875">
        <ele>32.799999237060546875</ele>
        <time>2020-02-25T00:15:40.000Z</time>
      </trkpt>
      <trkpt lat="-34.85902369022369384765625" lon="-59.11681163124740123748779296875">
        <ele>32.799999237060546875</ele>
        <time>2020-02-25T00:15:46.000Z</time>
      </trkpt>
      <trkpt lat="-34.858906008303165435791015625" lon="-59.11698379553854465484619140625">
        <ele>32.40000152587890625</ele>
        <time>2020-02-25T00:15:55.000Z</time>
      </trkpt>
      <trkpt lat="-34.8587626777589321136474609375" lon="-59.11719870753586292266845703125">
        <ele>32.40000152587890625</ele>
        <time>2020-02-25T00:16:06.000Z</time>
      </trkpt>
      <trkpt lat="-34.85861708410084247589111328125" lon="-59.11740691401064395904541015625">
        <ele>32.200000762939453125</ele>
        <time>2020-02-25T00:16:17.000Z</time>
      </trkpt>
      <trkpt lat="-34.8585263080894947052001953125" lon="-59.11753557622432708740234375">
        <ele>32.40000152587890625</ele>
        <time>2020-02-25T00:16:24.000Z</time>
      </trkpt>
      <trkpt lat="-34.85847442410886287689208984375" lon="-59.11760791204869747161865234375">
        <ele>32.40000152587890625</ele>
        <time>2020-02-25T00:16:28.000Z</time>
      </trkpt>
      <trkpt lat="-34.85834651626646518707275390625" lon="-59.1177897155284881591796875">
        <ele>32.40000152587890625</ele>
        <time>2020-02-25T00:16:38.000Z</time>
      </trkpt>
      <trkpt lat="-34.85828683711588382720947265625" lon="-59.11787613295018672943115234375">
        <ele>32.40000152587890625</ele>
        <time>2020-02-25T00:16:45.000Z</time>
      </trkpt>
      <trkpt lat="-34.858281724154949188232421875" lon="-59.11788082681596279144287109375">
        <ele>32.200000762939453125</ele>
        <time>2020-02-25T00:16:46.000Z</time>
      </trkpt>
      <trkpt lat="-34.858239479362964630126953125" lon="-59.11793924868106842041015625">
        <ele>32.40000152587890625</ele>
        <time>2020-02-25T00:16:50.000Z</time>
      </trkpt>
      <trkpt lat="-34.85814057290554046630859375" lon="-59.11808148957788944244384765625">
        <ele>32.40000152587890625</ele>
        <time>2020-02-25T00:16:58.000Z</time>
      </trkpt>
      <trkpt lat="-34.857999421656131744384765625" lon="-59.11828257143497467041015625">
        <ele>32.40000152587890625</ele>
        <time>2020-02-25T00:17:10.000Z</time>
      </trkpt>
      <trkpt lat="-34.85789909027516841888427734375" lon="-59.11842598579823970794677734375">
        <ele>32.200000762939453125</ele>
        <time>2020-02-25T00:17:19.000Z</time>
      </trkpt>
      <trkpt lat="-34.8578099906444549560546875" lon="-59.1185533069074153900146484375">
        <ele>32.200000762939453125</ele>
        <time>2020-02-25T00:17:27.000Z</time>
      </trkpt>
      <trkpt lat="-34.8576866090297698974609375" lon="-59.11873494274914264678955078125">
        <ele>32.200000762939453125</ele>
        <time>2020-02-25T00:17:38.000Z</time>
      </trkpt>
      <trkpt lat="-34.85755576752126216888427734375" lon="-59.11892688833177089691162109375">
        <ele>32</ele>
        <time>2020-02-25T00:17:49.000Z</time>
      </trkpt>
      <trkpt lat="-34.85749810002744197845458984375" lon="-59.11901238374412059783935546875">
        <ele>32.200000762939453125</ele>
        <time>2020-02-25T00:17:54.000Z</time>
      </trkpt>
      <trkpt lat="-34.85741428099572658538818359375" lon="-59.11913241259753704071044921875">
        <ele>32</ele>
        <time>2020-02-25T00:18:01.000Z</time>
      </trkpt>
      <trkpt lat="-34.85730783082544803619384765625" lon="-59.119280017912387847900390625">
        <ele>32.40000152587890625</ele>
        <time>2020-02-25T00:18:10.000Z</time>
      </trkpt>
      <trkpt lat="-34.857165254652500152587890625" lon="-59.11948394961655139923095703125">
        <ele>32.200000762939453125</ele>
        <time>2020-02-25T00:18:22.000Z</time>
      </trkpt>
      <trkpt lat="-34.8570417053997516632080078125" lon="-59.11966248415410518646240234375">
        <ele>31.799999237060546875</ele>
        <time>2020-02-25T00:18:32.000Z</time>
      </trkpt>
      <trkpt lat="-34.8569089360535144805908203125" lon="-59.11985325627028942108154296875">
        <ele>32.200000762939453125</ele>
        <time>2020-02-25T00:18:43.000Z</time>
      </trkpt>
      <trkpt lat="-34.85678262077271938323974609375" lon="-59.12003732286393642425537109375">
        <ele>32</ele>
        <time>2020-02-25T00:18:54.000Z</time>
      </trkpt>
      <trkpt lat="-34.856652952730655670166015625" lon="-59.1202278435230255126953125">
        <ele>32.200000762939453125</ele>
        <time>2020-02-25T00:19:05.000Z</time>
      </trkpt>
      <trkpt lat="-34.8565458320081233978271484375" lon="-59.12037427537143230438232421875">
        <ele>32.200000762939453125</ele>
        <time>2020-02-25T00:19:14.000Z</time>
      </trkpt>
      <trkpt lat="-34.856435693800449371337890625" lon="-59.12053235806524753570556640625">
        <ele>32.200000762939453125</ele>
        <time>2020-02-25T00:19:23.000Z</time>
      </trkpt>
      <trkpt lat="-34.85633318312466144561767578125" lon="-59.12068180739879608154296875">
        <ele>32.200000762939453125</ele>
        <time>2020-02-25T00:19:32.000Z</time>
      </trkpt>
      <trkpt lat="-34.85625070519745349884033203125" lon="-59.12080250680446624755859375">
        <ele>32.200000762939453125</ele>
        <time>2020-02-25T00:19:40.000Z</time>
      </trkpt>
      <trkpt lat="-34.85617711208760738372802734375" lon="-59.12090652622282505035400390625">
        <ele>32.200000762939453125</ele>
        <time>2020-02-25T00:19:47.000Z</time>
      </trkpt>
      <trkpt lat="-34.85607434995472431182861328125" lon="-59.12104952149093151092529296875">
        <ele>32</ele>
        <time>2020-02-25T00:19:56.000Z</time>
      </trkpt>
      <trkpt lat="-34.85599807463586330413818359375" lon="-59.12115865387022495269775390625">
        <ele>32.200000762939453125</ele>
        <time>2020-02-25T00:20:03.000Z</time>
      </trkpt>
      <trkpt lat="-34.85588483512401580810546875" lon="-59.12132176570594310760498046875">
        <ele>32.200000762939453125</ele>
        <time>2020-02-25T00:20:13.000Z</time>
      </trkpt>
      <trkpt lat="-34.855768494307994842529296875" lon="-59.12148403935134410858154296875">
        <ele>32.200000762939453125</ele>
        <time>2020-02-25T00:20:23.000Z</time>
      </trkpt>
      <trkpt lat="-34.85565609298646450042724609375" lon="-59.121642373502254486083984375">
        <ele>32</ele>
        <time>2020-02-25T00:20:33.000Z</time>
      </trkpt>
      <trkpt lat="-34.855554588139057159423828125" lon="-59.12179282866418361663818359375">
        <ele>32</ele>
        <time>2020-02-25T00:20:42.000Z</time>
      </trkpt>
      <trkpt lat="-34.85543112270534038543701171875" lon="-59.12196314893662929534912109375">
        <ele>32</ele>
        <time>2020-02-25T00:20:52.000Z</time>
      </trkpt>
      <trkpt lat="-34.85531620681285858154296875" lon="-59.12213615141808986663818359375">
        <ele>32</ele>
        <time>2020-02-25T00:21:02.000Z</time>
      </trkpt>
      <trkpt lat="-34.85522098839282989501953125" lon="-59.12227160297334194183349609375">
        <ele>32</ele>
        <time>2020-02-25T00:21:10.000Z</time>
      </trkpt>
      <trkpt lat="-34.85508813522756099700927734375" lon="-59.12245801649987697601318359375">
        <ele>32</ele>
        <time>2020-02-25T00:21:21.000Z</time>
      </trkpt>
      <trkpt lat="-34.8549938388168811798095703125" lon="-59.12259799428284168243408203125">
        <ele>32</ele>
        <time>2020-02-25T00:21:29.000Z</time>
      </trkpt>
      <trkpt lat="-34.8548541963100433349609375" lon="-59.122798740863800048828125">
        <ele>32</ele>
        <time>2020-02-25T00:21:40.000Z</time>
      </trkpt>
      <trkpt lat="-34.8547155596315860748291015625" lon="-59.122992195188999176025390625">
        <ele>32.200000762939453125</ele>
        <time>2020-02-25T00:21:51.000Z</time>
      </trkpt>
      <trkpt lat="-34.8545908369123935699462890625" lon="-59.12316947244107723236083984375">
        <ele>32</ele>
        <time>2020-02-25T00:22:01.000Z</time>
      </trkpt>
      <trkpt lat="-34.854502491652965545654296875" lon="-59.123301319777965545654296875">
        <ele>32.200000762939453125</ele>
        <time>2020-02-25T00:22:09.000Z</time>
      </trkpt>
      <trkpt lat="-34.85441959463059902191162109375" lon="-59.12341858260333538055419921875">
        <ele>32.200000762939453125</ele>
        <time>2020-02-25T00:22:16.000Z</time>
      </trkpt>
      <trkpt lat="-34.85430828295648097991943359375" lon="-59.12357591092586517333984375">
        <ele>32</ele>
        <time>2020-02-25T00:22:25.000Z</time>
      </trkpt>
      <trkpt lat="-34.85421239398419857025146484375" lon="-59.12371446378529071807861328125">
        <ele>32.40000152587890625</ele>
        <time>2020-02-25T00:22:33.000Z</time>
      </trkpt>
      <trkpt lat="-34.85409555025398731231689453125" lon="-59.12387707270681858062744140625">
        <ele>32.59999847412109375</ele>
        <time>2020-02-25T00:22:43.000Z</time>
      </trkpt>
      <trkpt lat="-34.8539717495441436767578125" lon="-59.12405275739729404449462890625">
        <ele>32.200000762939453125</ele>
        <time>2020-02-25T00:22:54.000Z</time>
      </trkpt>
      <trkpt lat="-34.85387410037219524383544921875" lon="-59.1241948306560516357421875">
        <ele>32.40000152587890625</ele>
        <time>2020-02-25T00:23:03.000Z</time>
      </trkpt>
      <trkpt lat="-34.853791035711765289306640625" lon="-59.124316871166229248046875">
        <ele>32.40000152587890625</ele>
        <time>2020-02-25T00:23:11.000Z</time>
      </trkpt>
      <trkpt lat="-34.85371668823063373565673828125" lon="-59.12442876957356929779052734375">
        <ele>32.40000152587890625</ele>
        <time>2020-02-25T00:23:18.000Z</time>
      </trkpt>
      <trkpt lat="-34.853596575558185577392578125" lon="-59.1246010176837444305419921875">
        <ele>32.40000152587890625</ele>
        <time>2020-02-25T00:23:28.000Z</time>
      </trkpt>
      <trkpt lat="-34.8535015247762203216552734375" lon="-59.124738313257694244384765625">
        <ele>32.59999847412109375</ele>
        <time>2020-02-25T00:23:36.000Z</time>
      </trkpt>
      <trkpt lat="-34.85340354032814502716064453125" lon="-59.12487384863197803497314453125">
        <ele>32.59999847412109375</ele>
        <time>2020-02-25T00:23:44.000Z</time>
      </trkpt>
      <trkpt lat="-34.85330295749008655548095703125" lon="-59.12501759827136993408203125">
        <ele>32.40000152587890625</ele>
        <time>2020-02-25T00:23:53.000Z</time>
      </trkpt>
      <trkpt lat="-34.8532058112323284149169921875" lon="-59.1251592524349689483642578125">
        <ele>32.59999847412109375</ele>
        <time>2020-02-25T00:24:02.000Z</time>
      </trkpt>
      <trkpt lat="-34.85316314734518527984619140625" lon="-59.1252199374139308929443359375">
        <ele>32.59999847412109375</ele>
        <time>2020-02-25T00:24:06.000Z</time>
      </trkpt>
      <trkpt lat="-34.85311687923967838287353515625" lon="-59.12528674118220806121826171875">
        <ele>32.40000152587890625</ele>
        <time>2020-02-25T00:24:10.000Z</time>
      </trkpt>
      <trkpt lat="-34.85298528335988521575927734375" lon="-59.12547818385064601898193359375">
        <ele>32.59999847412109375</ele>
        <time>2020-02-25T00:24:21.000Z</time>
      </trkpt>
      <trkpt lat="-34.85289995558559894561767578125" lon="-59.1256018169224262237548828125">
        <ele>32.59999847412109375</ele>
        <time>2020-02-25T00:24:28.000Z</time>
      </trkpt>
      <trkpt lat="-34.8527890630066394805908203125" lon="-59.12575922906398773193359375">
        <ele>32.799999237060546875</ele>
        <time>2020-02-25T00:24:37.000Z</time>
      </trkpt>
      <trkpt lat="-34.85270733945071697235107421875" lon="-59.12587950937449932098388671875">
        <ele>32.59999847412109375</ele>
        <time>2020-02-25T00:24:44.000Z</time>
      </trkpt>
      <trkpt lat="-34.85261128284037113189697265625" lon="-59.126019068062305450439453125">
        <ele>32.59999847412109375</ele>
        <time>2020-02-25T00:24:52.000Z</time>
      </trkpt>
      <trkpt lat="-34.85247113741934299468994140625" lon="-59.1262183897197246551513671875">
        <ele>32.59999847412109375</ele>
        <time>2020-02-25T00:25:03.000Z</time>
      </trkpt>
      <trkpt lat="-34.85231925733387470245361328125" lon="-59.12642952986061573028564453125">
        <ele>32.59999847412109375</ele>
        <time>2020-02-25T00:25:14.000Z</time>
      </trkpt>
      <trkpt lat="-34.85215078108012676239013671875" lon="-59.12667252123355865478515625">
        <ele>32.59999847412109375</ele>
        <time>2020-02-25T00:25:26.000Z</time>
      </trkpt>
      <trkpt lat="-34.8519897647202014923095703125" lon="-59.12690293975174427032470703125">
        <ele>32.59999847412109375</ele>
        <time>2020-02-25T00:25:37.000Z</time>
      </trkpt>
      <trkpt lat="-34.85187359154224395751953125" lon="-59.12706705741584300994873046875">
        <ele>32.59999847412109375</ele>
        <time>2020-02-25T00:25:45.000Z</time>
      </trkpt>
      <trkpt lat="-34.85176320187747478485107421875" lon="-59.12722966633737087249755859375">
        <ele>32.59999847412109375</ele>
        <time>2020-02-25T00:25:53.000Z</time>
      </trkpt>
      <trkpt lat="-34.8516337014734745025634765625" lon="-59.1274123080074787139892578125">
        <ele>33</ele>
        <time>2020-02-25T00:26:02.000Z</time>
      </trkpt>
      <trkpt lat="-34.8514871858060359954833984375" lon="-59.12761976011097431182861328125">
        <ele>33</ele>
        <time>2020-02-25T00:26:12.000Z</time>
      </trkpt>
      <trkpt lat="-34.851377718150615692138671875" lon="-59.12777381949126720428466796875">
        <ele>33</ele>
        <time>2020-02-25T00:26:20.000Z</time>
      </trkpt>
      <trkpt lat="-34.851234890520572662353515625" lon="-59.12797741591930389404296875">
        <ele>33</ele>
        <time>2020-02-25T00:26:31.000Z</time>
      </trkpt>
      <trkpt lat="-34.85110388137400150299072265625" lon="-59.1281698644161224365234375">
        <ele>33.200000762939453125</ele>
        <time>2020-02-25T00:26:41.000Z</time>
      </trkpt>
      <trkpt lat="-34.8509718663990497589111328125" lon="-59.12835988216102123260498046875">
        <ele>33</ele>
        <time>2020-02-25T00:26:51.000Z</time>
      </trkpt>
      <trkpt lat="-34.8508303798735141754150390625" lon="-59.12856289185583591461181640625">
        <ele>33</ele>
        <time>2020-02-25T00:27:02.000Z</time>
      </trkpt>
      <trkpt lat="-34.85073189251124858856201171875" lon="-59.12870354019105434417724609375">
        <ele>33</ele>
        <time>2020-02-25T00:27:10.000Z</time>
      </trkpt>
      <trkpt lat="-34.85062711872160434722900390625" lon="-59.12885374389588832855224609375">
        <ele>33</ele>
        <time>2020-02-25T00:27:18.000Z</time>
      </trkpt>
      <trkpt lat="-34.85046752728521823883056640625" lon="-59.1290823183953762054443359375">
        <ele>33</ele>
        <time>2020-02-25T00:27:30.000Z</time>
      </trkpt>
      <trkpt lat="-34.85035277903079986572265625" lon="-59.12924568168818950653076171875">
        <ele>33</ele>
        <time>2020-02-25T00:27:39.000Z</time>
      </trkpt>
      <trkpt lat="-34.85021732747554779052734375" lon="-59.12944751791656017303466796875">
        <ele>32.799999237060546875</ele>
        <time>2020-02-25T00:27:49.000Z</time>
      </trkpt>
      <trkpt lat="-34.85010073520243167877197265625" lon="-59.1296144016087055206298828125">
        <ele>33</ele>
        <time>2020-02-25T00:27:58.000Z</time>
      </trkpt>
      <trkpt lat="-34.84998129308223724365234375" lon="-59.12978564389050006866455078125">
        <ele>32.799999237060546875</ele>
        <time>2020-02-25T00:28:08.000Z</time>
      </trkpt>
      <trkpt lat="-34.84989948570728302001953125" lon="-59.12990366108715534210205078125">
        <ele>32.799999237060546875</ele>
        <time>2020-02-25T00:28:15.000Z</time>
      </trkpt>
      <trkpt lat="-34.84978959895670413970947265625" lon="-59.13006576709449291229248046875">
        <ele>32.799999237060546875</ele>
        <time>2020-02-25T00:28:25.000Z</time>
      </trkpt>
      <trkpt lat="-34.84969270415604114532470703125" lon="-59.13019920699298381805419921875">
        <ele>33</ele>
        <time>2020-02-25T00:28:33.000Z</time>
      </trkpt>
      <trkpt lat="-34.84957284294068813323974609375" lon="-59.1303704492747783660888671875">
        <ele>33</ele>
        <time>2020-02-25T00:28:43.000Z</time>
      </trkpt>
      <trkpt lat="-34.849456585943698883056640625" lon="-59.13053699769079685211181640625">
        <ele>32.799999237060546875</ele>
        <time>2020-02-25T00:28:53.000Z</time>
      </trkpt>
      <trkpt lat="-34.84937301836907863616943359375" lon="-59.1306550987064838409423828125">
        <ele>33</ele>
        <time>2020-02-25T00:29:00.000Z</time>
      </trkpt>
      <trkpt lat="-34.8492907918989658355712890625" lon="-59.13076917640864849090576171875">
        <ele>33.200000762939453125</ele>
        <time>2020-02-25T00:29:07.000Z</time>
      </trkpt>
      <trkpt lat="-34.8491437733173370361328125" lon="-59.13097612559795379638671875">
        <ele>33.40000152587890625</ele>
        <time>2020-02-25T00:29:19.000Z</time>
      </trkpt>
      <trkpt lat="-34.84902248717844486236572265625" lon="-59.1311456076800823211669921875">
        <ele>33.200000762939453125</ele>
        <time>2020-02-25T00:29:29.000Z</time>
      </trkpt>
      <trkpt lat="-34.8489172942936420440673828125" lon="-59.13129572756588459014892578125">
        <ele>33</ele>
        <time>2020-02-25T00:29:38.000Z</time>
      </trkpt>
      <trkpt lat="-34.8488552682101726531982421875" lon="-59.1313903592526912689208984375">
        <ele>33.200000762939453125</ele>
        <time>2020-02-25T00:29:46.000Z</time>
      </trkpt>
      <trkpt lat="-34.8488562740385532379150390625" lon="-59.131390191614627838134765625">
        <ele>33</ele>
        <time>2020-02-25T00:30:00.000Z</time>
      </trkpt>
      <trkpt lat="-34.8488529212772846221923828125" lon="-59.131393544375896453857421875">
        <ele>33</ele>
        <time>2020-02-25T00:30:09.000Z</time>
      </trkpt>
      <trkpt lat="-34.84885132871568202972412109375" lon="-59.1313974000513553619384765625">
        <ele>33</ele>
        <time>2020-02-25T00:30:23.000Z</time>
      </trkpt>
      <trkpt lat="-34.8488515801727771759033203125" lon="-59.13139781914651393890380859375">
        <ele>33</ele>
        <time>2020-02-25T00:30:34.000Z</time>
      </trkpt>
      <trkpt lat="-34.84885166399180889129638671875" lon="-59.13139882497489452362060546875">
        <ele>33</ele>
        <time>2020-02-25T00:30:59.000Z</time>
      </trkpt>
      <trkpt lat="-34.848851747810840606689453125" lon="-59.1313997469842433929443359375">
        <ele>33</ele>
        <time>2020-02-25T00:31:38.000Z</time>
      </trkpt>
      <trkpt lat="-34.84885116107761859893798828125" lon="-59.13140033371746540069580078125">
        <ele>33</ele>
        <time>2020-02-25T00:32:35.000Z</time>
      </trkpt>
      <trkpt lat="-34.84884948469698429107666015625" lon="-59.131400920450687408447265625">
        <ele>33</ele>
        <time>2020-02-25T00:34:10.000Z</time>
      </trkpt>
      <trkpt lat="-34.8488488979637622833251953125" lon="-59.1314010880887508392333984375">
        <ele>33</ele>
        <time>2020-02-25T00:34:40.000Z</time>
      </trkpt>
      <trkpt lat="-34.84884881414473056793212890625" lon="-59.13140083663165569305419921875">
        <ele>33</ele>
        <time>2020-02-25T00:35:08.000Z</time>
      </trkpt>
      <trkpt lat="-34.8488487303256988525390625" lon="-59.1314010880887508392333984375">
        <ele>33</ele>
        <time>2020-02-25T00:36:35.000Z</time>
      </trkpt>
      <trkpt lat="-34.8488499037921428680419921875" lon="-59.1314030997455120086669921875">
        <ele>33</ele>
        <time>2020-02-25T00:37:26.000Z</time>
      </trkpt>
      <trkpt lat="-34.848850406706333160400390625" lon="-59.1314024291932582855224609375">
        <ele>33</ele>
        <time>2020-02-25T00:37:51.000Z</time>
      </trkpt>
      <trkpt lat="-34.84885065816342830657958984375" lon="-59.1314024291932582855224609375">
        <ele>33</ele>
        <time>2020-02-25T00:38:23.000Z</time>
      </trkpt>
      <trkpt lat="-34.84885065816342830657958984375" lon="-59.13140301592648029327392578125">
        <ele>33</ele>
        <time>2020-02-25T00:38:58.000Z</time>
      </trkpt>
      <trkpt lat="-34.84885049052536487579345703125" lon="-59.13140251301229000091552734375">
        <ele>33</ele>
        <time>2020-02-25T00:39:40.000Z</time>
      </trkpt>
      <trkpt lat="-34.84885116107761859893798828125" lon="-59.13140335120260715484619140625">
        <ele>33</ele>
        <time>2020-02-25T00:40:11.000Z</time>
      </trkpt>
      <trkpt lat="-34.8488505743443965911865234375" lon="-59.1314027644693851470947265625">
        <ele>33</ele>
        <time>2020-02-25T00:40:29.000Z</time>
      </trkpt>
      <trkpt lat="-34.848850071430206298828125" lon="-59.13140318356454372406005859375">
        <ele>33</ele>
        <time>2020-02-25T00:41:13.000Z</time>
      </trkpt>
      <trkpt lat="-34.8488488979637622833251953125" lon="-59.13140259683132171630859375">
        <ele>33</ele>
        <time>2020-02-25T00:42:38.000Z</time>
      </trkpt>
      <trkpt lat="-34.84882551245391368865966796875" lon="-59.1314017586410045623779296875">
        <ele>33</ele>
        <time>2020-02-25T00:43:09.000Z</time>
      </trkpt>
      <trkpt lat="-34.84880489297211170196533203125" lon="-59.13140972144901752471923828125">
        <ele>33</ele>
        <time>2020-02-25T00:43:16.000Z</time>
      </trkpt>
      <trkpt lat="-34.848805479705333709716796875" lon="-59.13141139782965183258056640625">
        <ele>33</ele>
        <time>2020-02-25T00:43:29.000Z</time>
      </trkpt>
      <trkpt lat="-34.8488111793994903564453125" lon="-59.13140201009809970855712890625">
        <ele>33</ele>
        <time>2020-02-25T00:43:38.000Z</time>
      </trkpt>
      <trkpt lat="-34.848810844123363494873046875" lon="-59.131403267383575439453125">
        <ele>33</ele>
        <time>2020-02-25T00:43:49.000Z</time>
      </trkpt>
      <trkpt lat="-34.848810173571109771728515625" lon="-59.1314019262790679931640625">
        <ele>33</ele>
        <time>2020-02-25T00:44:04.000Z</time>
      </trkpt>
      <trkpt lat="-34.8488110117614269256591796875" lon="-59.1313965618610382080078125">
        <ele>33</ele>
        <time>2020-02-25T00:46:22.000Z</time>
      </trkpt>
      <trkpt lat="-34.8488096706569194793701171875" lon="-59.1313963942229747772216796875">
        <ele>33</ele>
        <time>2020-02-25T00:47:12.000Z</time>
      </trkpt>
      <trkpt lat="-34.84880908392369747161865234375" lon="-59.13139563985168933868408203125">
        <ele>33</ele>
        <time>2020-02-25T00:47:49.000Z</time>
      </trkpt>
      <trkpt lat="-34.8488096706569194793701171875" lon="-59.13139547221362590789794921875">
        <ele>33</ele>
        <time>2020-02-25T00:48:21.000Z</time>
      </trkpt>
      <trkpt lat="-34.84881025739014148712158203125" lon="-59.13139580748975276947021484375">
        <ele>33</ele>
        <time>2020-02-25T00:48:45.000Z</time>
      </trkpt>
      <trkpt lat="-34.84880941919982433319091796875" lon="-59.131395556032657623291015625">
        <ele>33</ele>
        <time>2020-02-25T00:49:11.000Z</time>
      </trkpt>
      <trkpt lat="-34.8488096706569194793701171875" lon="-59.13139597512781620025634765625">
        <ele>33</ele>
        <time>2020-02-25T00:49:37.000Z</time>
      </trkpt>
      <trkpt lat="-34.84881008975207805633544921875" lon="-59.13139480166137218475341796875">
        <ele>33</ele>
        <time>2020-02-25T00:50:21.000Z</time>
      </trkpt>
      <trkpt lat="-34.84881176613271236419677734375" lon="-59.13139530457556247711181640625">
        <ele>33</ele>
        <time>2020-02-25T00:50:54.000Z</time>
      </trkpt>
      <trkpt lat="-34.8488123528659343719482421875" lon="-59.1313950531184673309326171875">
        <ele>33</ele>
        <time>2020-02-25T00:51:27.000Z</time>
      </trkpt>
      <trkpt lat="-34.8488160409033298492431640625" lon="-59.1313965618610382080078125">
        <ele>33</ele>
        <time>2020-02-25T00:51:50.000Z</time>
      </trkpt>
      <trkpt lat="-34.8488163761794567108154296875" lon="-59.131396226584911346435546875">
        <ele>33</ele>
        <time>2020-02-25T00:52:27.000Z</time>
      </trkpt>
      <trkpt lat="-34.848814867436885833740234375" lon="-59.13139496929943561553955078125">
        <ele>33</ele>
        <time>2020-02-25T00:52:49.000Z</time>
      </trkpt>
      <trkpt lat="-34.848814196884632110595703125" lon="-59.13139463402330875396728515625">
        <ele>33</ele>
        <time>2020-02-25T00:53:05.000Z</time>
      </trkpt>
      <trkpt lat="-34.84879567287862300872802734375" lon="-59.13139211945235729217529296875">
        <ele>34.40000152587890625</ele>
        <time>2020-02-25T08:45:45.000Z</time>
      </trkpt>
      <trkpt lat="-34.8487697727978229522705078125" lon="-59.1313635371625423431396484375">
        <ele>34.40000152587890625</ele>
        <time>2020-02-25T08:46:03.000Z</time>
      </trkpt>
      <trkpt lat="-34.84878075309097766876220703125" lon="-59.1313497908413410186767578125">
        <ele>34.200000762939453125</ele>
        <time>2020-02-25T08:46:19.000Z</time>
      </trkpt>
      <trkpt lat="-34.8487831838428974151611328125" lon="-59.13136965595185756683349609375">
        <ele>33.799999237060546875</ele>
        <time>2020-02-25T08:46:50.000Z</time>
      </trkpt>
      <trkpt lat="-34.84878310002386569976806640625" lon="-59.131370075047016143798828125">
        <ele>33.799999237060546875</ele>
        <time>2020-02-25T08:47:37.000Z</time>
      </trkpt>
      <trkpt lat="-34.848778657615184783935546875" lon="-59.13138206116855144500732421875">
        <ele>33.799999237060546875</ele>
        <time>2020-02-25T08:47:49.000Z</time>
      </trkpt>
      <trkpt lat="-34.848777987062931060791015625" lon="-59.13140988908708095550537109375">
        <ele>33.59999847412109375</ele>
        <time>2020-02-25T08:48:07.000Z</time>
      </trkpt>
      <trkpt lat="-34.84877337701618671417236328125" lon="-59.131423719227313995361328125">
        <ele>33.59999847412109375</ele>
        <time>2020-02-25T08:48:13.000Z</time>
      </trkpt>
      <trkpt lat="-34.848764240741729736328125" lon="-59.1314429976046085357666015625">
        <ele>33.59999847412109375</ele>
        <time>2020-02-25T08:48:15.000Z</time>
      </trkpt>
      <trkpt lat="-34.8486986942589282989501953125" lon="-59.13155816495418548583984375">
        <ele>34</ele>
        <time>2020-02-25T08:48:23.000Z</time>
      </trkpt>
      <trkpt lat="-34.8486182279884815216064453125" lon="-59.13168163038790225982666015625">
        <ele>34</ele>
        <time>2020-02-25T08:48:31.000Z</time>
      </trkpt>
      <trkpt lat="-34.8485173098742961883544921875" lon="-59.13182948715984821319580078125">
        <ele>34</ele>
        <time>2020-02-25T08:48:39.000Z</time>
      </trkpt>
      <trkpt lat="-34.848460145294666290283203125" lon="-59.13191280327737331390380859375">
        <ele>34</ele>
        <time>2020-02-25T08:48:44.000Z</time>
      </trkpt>
      <trkpt lat="-34.848332740366458892822265625" lon="-59.132098294794559478759765625">
        <ele>33.799999237060546875</ele>
        <time>2020-02-25T08:48:53.000Z</time>
      </trkpt>
      <trkpt lat="-34.84822578728199005126953125" lon="-59.1322493366897106170654296875">
        <ele>33.59999847412109375</ele>
        <time>2020-02-25T08:49:00.000Z</time>
      </trkpt>
      <trkpt lat="-34.84808069653809070587158203125" lon="-59.132457710802555084228515625">
        <ele>33.799999237060546875</ele>
        <time>2020-02-25T08:49:09.000Z</time>
      </trkpt>
      <trkpt lat="-34.847908951342105865478515625" lon="-59.1327043063938617706298828125">
        <ele>34</ele>
        <time>2020-02-25T08:49:20.000Z</time>
      </trkpt>
      <trkpt lat="-34.84776151366531848907470703125" lon="-59.1329182125627994537353515625">
        <ele>33.799999237060546875</ele>
        <time>2020-02-25T08:49:30.000Z</time>
      </trkpt>
      <trkpt lat="-34.84766864217817783355712890625" lon="-59.13306020200252532958984375">
        <ele>33.799999237060546875</ele>
        <time>2020-02-25T08:49:38.000Z</time>
      </trkpt>
      <trkpt lat="-34.84755800105631351470947265625" lon="-59.13321501575410366058349609375">
        <ele>33.799999237060546875</ele>
        <time>2020-02-25T08:49:47.000Z</time>
      </trkpt>
      <trkpt lat="-34.84746613539755344390869140625" lon="-59.13334728218615055084228515625">
        <ele>34</ele>
        <time>2020-02-25T08:49:55.000Z</time>
      </trkpt>
      <trkpt lat="-34.8473079688847064971923828125" lon="-59.1335713304579257965087890625">
        <ele>34.200000762939453125</ele>
        <time>2020-02-25T08:50:06.000Z</time>
      </trkpt>
      <trkpt lat="-34.84714619815349578857421875" lon="-59.13380510173738002777099609375">
        <ele>34</ele>
        <time>2020-02-25T08:50:17.000Z</time>
      </trkpt>
      <trkpt lat="-34.84697612933814525604248046875" lon="-59.13404515944421291351318359375">
        <ele>34</ele>
        <time>2020-02-25T08:50:28.000Z</time>
      </trkpt>
      <trkpt lat="-34.84681050293147563934326171875" lon="-59.1342797689139842987060546875">
        <ele>34.200000762939453125</ele>
        <time>2020-02-25T08:50:38.000Z</time>
      </trkpt>
      <trkpt lat="-34.846642278134822845458984375" lon="-59.13452024571597576141357421875">
        <ele>34.200000762939453125</ele>
        <time>2020-02-25T08:50:49.000Z</time>
      </trkpt>
      <trkpt lat="-34.8466280288994312286376953125" lon="-59.13454153575003147125244140625">
        <ele>34.200000762939453125</ele>
        <time>2020-02-25T08:50:50.000Z</time>
      </trkpt>
      <trkpt lat="-34.8464977741241455078125" lon="-59.1347297094762325286865234375">
        <ele>34.40000152587890625</ele>
        <time>2020-02-25T08:50:59.000Z</time>
      </trkpt>
      <trkpt lat="-34.84635335393249988555908203125" lon="-59.134942106902599334716796875">
        <ele>34.200000762939453125</ele>
        <time>2020-02-25T08:51:09.000Z</time>
      </trkpt>
      <trkpt lat="-34.84620700590312480926513671875" lon="-59.13515140302479267120361328125">
        <ele>34.40000152587890625</ele>
        <time>2020-02-25T08:51:19.000Z</time>
      </trkpt>
      <trkpt lat="-34.8460694588720798492431640625" lon="-59.13534636609256267547607421875">
        <ele>34.799999237060546875</ele>
        <time>2020-02-25T08:51:28.000Z</time>
      </trkpt>
      <trkpt lat="-34.84589888714253902435302734375" lon="-59.1355861723423004150390625">
        <ele>34.40000152587890625</ele>
        <time>2020-02-25T08:51:39.000Z</time>
      </trkpt>
      <trkpt lat="-34.84577148221433162689208984375" lon="-59.1357717476785182952880859375">
        <ele>34.59999847412109375</ele>
        <time>2020-02-25T08:51:47.000Z</time>
      </trkpt>
      <trkpt lat="-34.845635108649730682373046875" lon="-59.13596427999436855316162109375">
        <ele>34.799999237060546875</ele>
        <time>2020-02-25T08:51:56.000Z</time>
      </trkpt>
      <trkpt lat="-34.8454753495752811431884765625" lon="-59.136196039617061614990234375">
        <ele>34.40000152587890625</ele>
        <time>2020-02-25T08:52:06.000Z</time>
      </trkpt>
      <trkpt lat="-34.845314919948577880859375" lon="-59.136426709592342376708984375">
        <ele>34.59999847412109375</ele>
        <time>2020-02-25T08:52:16.000Z</time>
      </trkpt>
      <trkpt lat="-34.8451749421656131744384765625" lon="-59.1366273723542690277099609375">
        <ele>34.40000152587890625</ele>
        <time>2020-02-25T08:52:25.000Z</time>
      </trkpt>
      <trkpt lat="-34.84503353945910930633544921875" lon="-59.1368315555155277252197265625">
        <ele>34.40000152587890625</ele>
        <time>2020-02-25T08:52:34.000Z</time>
      </trkpt>
      <trkpt lat="-34.844888783991336822509765625" lon="-59.13704202510416507720947265625">
        <ele>34.40000152587890625</ele>
        <time>2020-02-25T08:52:43.000Z</time>
      </trkpt>
      <trkpt lat="-34.844746626913547515869140625" lon="-59.1372223198413848876953125">
        <ele>34.200000762939453125</ele>
        <time>2020-02-25T08:52:54.000Z</time>
      </trkpt>
      <trkpt lat="-34.844712428748607635498046875" lon="-59.1372603736817836761474609375">
        <ele>34.40000152587890625</ele>
        <time>2020-02-25T08:52:57.000Z</time>
      </trkpt>
      <trkpt lat="-34.84467060305178165435791015625" lon="-59.1372771374881267547607421875">
        <ele>34.59999847412109375</ele>
        <time>2020-02-25T08:53:00.000Z</time>
      </trkpt>
      <trkpt lat="-34.8445625603199005126953125" lon="-59.1372734494507312774658203125">
        <ele>34.40000152587890625</ele>
        <time>2020-02-25T08:53:06.000Z</time>
      </trkpt>
      <trkpt lat="-34.844399280846118927001953125" lon="-59.137201867997646331787109375">
        <ele>34.40000152587890625</ele>
        <time>2020-02-25T08:53:14.000Z</time>
      </trkpt>
      <trkpt lat="-34.84419233165681362152099609375" lon="-59.13710765540599822998046875">
        <ele>34.200000762939453125</ele>
        <time>2020-02-25T08:53:24.000Z</time>
      </trkpt>
      <trkpt lat="-34.8439112864434719085693359375" lon="-59.1369827650487422943115234375">
        <ele>34.200000762939453125</ele>
        <time>2020-02-25T08:53:36.000Z</time>
      </trkpt>
      <trkpt lat="-34.84369629062712192535400390625" lon="-59.1368865408003330230712890625">
        <ele>34.200000762939453125</ele>
        <time>2020-02-25T08:53:45.000Z</time>
      </trkpt>
      <trkpt lat="-34.84345070086419582366943359375" lon="-59.13677640259265899658203125">
        <ele>34.200000762939453125</ele>
        <time>2020-02-25T08:53:56.000Z</time>
      </trkpt>
      <trkpt lat="-34.84324953518807888031005859375" lon="-59.136681854724884033203125">
        <ele>34</ele>
        <time>2020-02-25T08:54:05.000Z</time>
      </trkpt>
      <trkpt lat="-34.84312154352664947509765625" lon="-59.136626534163951873779296875">
        <ele>34</ele>
        <time>2020-02-25T08:54:11.000Z</time>
      </trkpt>
      <trkpt lat="-34.84297695569694042205810546875" lon="-59.13661102764308452606201171875">
        <ele>34</ele>
        <time>2020-02-25T08:54:18.000Z</time>
      </trkpt>
      <trkpt lat="-34.84279029071331024169921875" lon="-59.13666768930852413177490234375">
        <ele>34</ele>
        <time>2020-02-25T08:54:27.000Z</time>
      </trkpt>
      <trkpt lat="-34.84258233569562435150146484375" lon="-59.1367510892450809478759765625">
        <ele>33.799999237060546875</ele>
        <time>2020-02-25T08:54:37.000Z</time>
      </trkpt>
      <trkpt lat="-34.842428527772426605224609375" lon="-59.13682275451719760894775390625">
        <ele>33.799999237060546875</ele>
        <time>2020-02-25T08:54:45.000Z</time>
      </trkpt>
      <trkpt lat="-34.8422282002866268157958984375" lon="-59.136913530528545379638671875">
        <ele>33.799999237060546875</ele>
        <time>2020-02-25T08:54:55.000Z</time>
      </trkpt>
      <trkpt lat="-34.8420049063861370086669921875" lon="-59.13693490438163280487060546875">
        <ele>33.40000152587890625</ele>
        <time>2020-02-25T08:55:04.000Z</time>
      </trkpt>
      <trkpt lat="-34.8417903296649456024169921875" lon="-59.13685779087245464324951171875">
        <ele>33.59999847412109375</ele>
        <time>2020-02-25T08:55:16.000Z</time>
      </trkpt>
      <trkpt lat="-34.84160634689033031463623046875" lon="-59.13679291494190692901611328125">
        <ele>33.59999847412109375</ele>
        <time>2020-02-25T08:55:25.000Z</time>
      </trkpt>
      <trkpt lat="-34.8413967154920101165771484375" lon="-59.13672200404107570648193359375">
        <ele>33.799999237060546875</ele>
        <time>2020-02-25T08:55:35.000Z</time>
      </trkpt>
      <trkpt lat="-34.84125263057649135589599609375" lon="-59.13667825050652027130126953125">
        <ele>33.799999237060546875</ele>
        <time>2020-02-25T08:55:42.000Z</time>
      </trkpt>
      <trkpt lat="-34.84111885540187358856201171875" lon="-59.1365985386073589324951171875">
        <ele>33.59999847412109375</ele>
        <time>2020-02-25T08:55:49.000Z</time>
      </trkpt>
      <trkpt lat="-34.84106688760221004486083984375" lon="-59.1364956088364124298095703125">
        <ele>33.59999847412109375</ele>
        <time>2020-02-25T08:55:54.000Z</time>
      </trkpt>
      <trkpt lat="-34.8410262353718280792236328125" lon="-59.13627524860203266143798828125">
        <ele>33.799999237060546875</ele>
        <time>2020-02-25T08:56:02.000Z</time>
      </trkpt>
      <trkpt lat="-34.840984158217906951904296875" lon="-59.1360262222588062286376953125">
        <ele>33.799999237060546875</ele>
        <time>2020-02-25T08:56:11.000Z</time>
      </trkpt>
      <trkpt lat="-34.84091215766966342926025390625" lon="-59.13573109544813632965087890625">
        <ele>33.40000152587890625</ele>
        <time>2020-02-25T08:56:21.000Z</time>
      </trkpt>
      <trkpt lat="-34.840814173221588134765625" lon="-59.1356076300144195556640625">
        <ele>33.59999847412109375</ele>
        <time>2020-02-25T08:56:27.000Z</time>
      </trkpt>
      <trkpt lat="-34.84070261009037494659423828125" lon="-59.135547615587711334228515625">
        <ele>33.40000152587890625</ele>
        <time>2020-02-25T08:56:32.000Z</time>
      </trkpt>
      <trkpt lat="-34.84060856513679027557373046875" lon="-59.13550914265215396881103515625">
        <ele>33.40000152587890625</ele>
        <time>2020-02-25T08:56:36.000Z</time>
      </trkpt>
      <trkpt lat="-34.8404458723962306976318359375" lon="-59.1354394890367984771728515625">
        <ele>33.40000152587890625</ele>
        <time>2020-02-25T08:56:43.000Z</time>
      </trkpt>
      <trkpt lat="-34.84031192958354949951171875" lon="-59.13538165390491485595703125">
        <ele>33.40000152587890625</ele>
        <time>2020-02-25T08:56:49.000Z</time>
      </trkpt>
      <trkpt lat="-34.84007983468472957611083984375" lon="-59.13527780212461948394775390625">
        <ele>33.799999237060546875</ele>
        <time>2020-02-25T08:56:58.000Z</time>
      </trkpt>
      <trkpt lat="-34.83982334844768047332763671875" lon="-59.1351642273366451263427734375">
        <ele>33.59999847412109375</ele>
        <time>2020-02-25T08:57:08.000Z</time>
      </trkpt>
      <trkpt lat="-34.83955663628876209259033203125" lon="-59.13505014963448047637939453125">
        <ele>33.799999237060546875</ele>
        <time>2020-02-25T08:57:18.000Z</time>
      </trkpt>
      <trkpt lat="-34.8392539657652378082275390625" lon="-59.13491855375468730926513671875">
        <ele>33.799999237060546875</ele>
        <time>2020-02-25T08:57:29.000Z</time>
      </trkpt>
      <trkpt lat="-34.83897350728511810302734375" lon="-59.13479718379676342010498046875">
        <ele>33.59999847412109375</ele>
        <time>2020-02-25T08:57:39.000Z</time>
      </trkpt>
      <trkpt lat="-34.838743172585964202880859375" lon="-59.134692661464214324951171875">
        <ele>33.40000152587890625</ele>
        <time>2020-02-25T08:57:48.000Z</time>
      </trkpt>
      <trkpt lat="-34.83852247707545757293701171875" lon="-59.13458864204585552215576171875">
        <ele>33.799999237060546875</ele>
        <time>2020-02-25T08:57:57.000Z</time>
      </trkpt>
      <trkpt lat="-34.83825023286044597625732421875" lon="-59.13446743972599506378173828125">
        <ele>33.59999847412109375</ele>
        <time>2020-02-25T08:58:08.000Z</time>
      </trkpt>
      <trkpt lat="-34.83799927867949008941650390625" lon="-59.13436241447925567626953125">
        <ele>33.59999847412109375</ele>
        <time>2020-02-25T08:58:18.000Z</time>
      </trkpt>
      <trkpt lat="-34.83783164061605930328369140625" lon="-59.134288318455219268798828125">
        <ele>34</ele>
        <time>2020-02-25T08:58:26.000Z</time>
      </trkpt>
      <trkpt lat="-34.83765251934528350830078125" lon="-59.13421380333602428436279296875">
        <ele>33.59999847412109375</ele>
        <time>2020-02-25T08:58:34.000Z</time>
      </trkpt>
      <trkpt lat="-34.8374508507549762725830078125" lon="-59.13412101566791534423828125">
        <ele>33.59999847412109375</ele>
        <time>2020-02-25T08:58:43.000Z</time>
      </trkpt>
      <trkpt lat="-34.83726133592426776885986328125" lon="-59.1340286470949649810791015625">
        <ele>33.59999847412109375</ele>
        <time>2020-02-25T08:58:52.000Z</time>
      </trkpt>
      <trkpt lat="-34.837120436131954193115234375" lon="-59.13397927768528461456298828125">
        <ele>33.59999847412109375</ele>
        <time>2020-02-25T08:58:59.000Z</time>
      </trkpt>
      <trkpt lat="-34.83695958741009235382080078125" lon="-59.13391171954572200775146484375">
        <ele>33.40000152587890625</ele>
        <time>2020-02-25T08:59:07.000Z</time>
      </trkpt>
      <trkpt lat="-34.83672305010259151458740234375" lon="-59.13380795158445835113525390625">
        <ele>33.59999847412109375</ele>
        <time>2020-02-25T08:59:18.000Z</time>
      </trkpt>
      <trkpt lat="-34.83648768626153469085693359375" lon="-59.13369798101484775543212890625">
        <ele>33.799999237060546875</ele>
        <time>2020-02-25T08:59:29.000Z</time>
      </trkpt>
      <trkpt lat="-34.83633228577673435211181640625" lon="-59.13362623192369937896728515625">
        <ele>33.799999237060546875</ele>
        <time>2020-02-25T08:59:37.000Z</time>
      </trkpt>
      <trkpt lat="-34.83615173958241939544677734375" lon="-59.1335411556065082550048828125">
        <ele>33.59999847412109375</ele>
        <time>2020-02-25T08:59:46.000Z</time>
      </trkpt>
      <trkpt lat="-34.8359726183116436004638671875" lon="-59.13345691747963428497314453125">
        <ele>33.799999237060546875</ele>
        <time>2020-02-25T08:59:55.000Z</time>
      </trkpt>
      <trkpt lat="-34.83584127388894557952880859375" lon="-59.133393801748752593994140625">
        <ele>34</ele>
        <time>2020-02-25T09:00:02.000Z</time>
      </trkpt>
      <trkpt lat="-34.83567304909229278564453125" lon="-59.13331643678247928619384765625">
        <ele>33.799999237060546875</ele>
        <time>2020-02-25T09:00:10.000Z</time>
      </trkpt>
      <trkpt lat="-34.83547682873904705047607421875" lon="-59.13322423584759235382080078125">
        <ele>33.59999847412109375</ele>
        <time>2020-02-25T09:00:19.000Z</time>
      </trkpt>
      <trkpt lat="-34.83522914350032806396484375" lon="-59.13310873322188854217529296875">
        <ele>33.799999237060546875</ele>
        <time>2020-02-25T09:00:30.000Z</time>
      </trkpt>
      <trkpt lat="-34.83500090427696704864501953125" lon="-59.13300521671772003173828125">
        <ele>34</ele>
        <time>2020-02-25T09:00:40.000Z</time>
      </trkpt>
      <trkpt lat="-34.83476654626429080963134765625" lon="-59.13289985619485378265380859375">
        <ele>34</ele>
        <time>2020-02-25T09:00:51.000Z</time>
      </trkpt>
      <trkpt lat="-34.83451358042657375335693359375" lon="-59.13278535939753055572509765625">
        <ele>34</ele>
        <time>2020-02-25T09:01:03.000Z</time>
      </trkpt>
      <trkpt lat="-34.83433186076581478118896484375" lon="-59.1327006183564662933349609375">
        <ele>34</ele>
        <time>2020-02-25T09:01:11.000Z</time>
      </trkpt>
      <trkpt lat="-34.8341386578977108001708984375" lon="-59.1326114349067211151123046875">
        <ele>34</ele>
        <time>2020-02-25T09:01:20.000Z</time>
      </trkpt>
      <trkpt lat="-34.83390220440924167633056640625" lon="-59.132502637803554534912109375">
        <ele>34.40000152587890625</ele>
        <time>2020-02-25T09:01:31.000Z</time>
      </trkpt>
      <trkpt lat="-34.833800531923770904541015625" lon="-59.13245175965130329132080078125">
        <ele>34.200000762939453125</ele>
        <time>2020-02-25T09:01:37.000Z</time>
      </trkpt>
      <trkpt lat="-34.8336350731551647186279296875" lon="-59.132378585636615753173828125">
        <ele>34</ele>
        <time>2020-02-25T09:01:45.000Z</time>
      </trkpt>
      <trkpt lat="-34.8334255255758762359619140625" lon="-59.1322842054069042205810546875">
        <ele>34.40000152587890625</ele>
        <time>2020-02-25T09:01:55.000Z</time>
      </trkpt>
      <trkpt lat="-34.833258055150508880615234375" lon="-59.13220834918320178985595703125">
        <ele>34.200000762939453125</ele>
        <time>2020-02-25T09:02:03.000Z</time>
      </trkpt>
      <trkpt lat="-34.833058230578899383544921875" lon="-59.13211715407669544219970703125">
        <ele>34.40000152587890625</ele>
        <time>2020-02-25T09:02:12.000Z</time>
      </trkpt>
      <trkpt lat="-34.83285614289343357086181640625" lon="-59.1320233605802059173583984375">
        <ele>34.40000152587890625</ele>
        <time>2020-02-25T09:02:21.000Z</time>
      </trkpt>
      <trkpt lat="-34.83260518871247768402099609375" lon="-59.1319083608686923980712890625">
        <ele>34.200000762939453125</ele>
        <time>2020-02-25T09:02:32.000Z</time>
      </trkpt>
      <trkpt lat="-34.83244576491415500640869140625" lon="-59.13183770142495632171630859375">
        <ele>34.40000152587890625</ele>
        <time>2020-02-25T09:02:40.000Z</time>
      </trkpt>
      <trkpt lat="-34.832208640873432159423828125" lon="-59.1317232884466648101806640625">
        <ele>34.200000762939453125</ele>
        <time>2020-02-25T09:02:51.000Z</time>
      </trkpt>
      <trkpt lat="-34.8319938965141773223876953125" lon="-59.131634943187236785888671875">
        <ele>34.40000152587890625</ele>
        <time>2020-02-25T09:03:01.000Z</time>
      </trkpt>
      <trkpt lat="-34.83179901726543903350830078125" lon="-59.13154483772814273834228515625">
        <ele>34.200000762939453125</ele>
        <time>2020-02-25T09:03:11.000Z</time>
      </trkpt>
      <trkpt lat="-34.83162517659366130828857421875" lon="-59.13147023878991603851318359375">
        <ele>34.59999847412109375</ele>
        <time>2020-02-25T09:03:20.000Z</time>
      </trkpt>
      <trkpt lat="-34.831445217132568359375" lon="-59.1313977353274822235107421875">
        <ele>34.200000762939453125</ele>
        <time>2020-02-25T09:03:29.000Z</time>
      </trkpt>
      <trkpt lat="-34.83131219632923603057861328125" lon="-59.13131651468575000762939453125">
        <ele>34.200000762939453125</ele>
        <time>2020-02-25T09:03:37.000Z</time>
      </trkpt>
      <trkpt lat="-34.83116157352924346923828125" lon="-59.1312539018690586090087890625">
        <ele>34.200000762939453125</ele>
        <time>2020-02-25T09:03:45.000Z</time>
      </trkpt>
      <trkpt lat="-34.83093417249619960784912109375" lon="-59.13114937953650951385498046875">
        <ele>34.40000152587890625</ele>
        <time>2020-02-25T09:03:57.000Z</time>
      </trkpt>
      <trkpt lat="-34.830764941871166229248046875" lon="-59.13107343949377536773681640625">
        <ele>34.200000762939453125</ele>
        <time>2020-02-25T09:04:06.000Z</time>
      </trkpt>
      <trkpt lat="-34.8306038416922092437744140625" lon="-59.13100562989711761474609375">
        <ele>34.200000762939453125</ele>
        <time>2020-02-25T09:04:14.000Z</time>
      </trkpt>
      <trkpt lat="-34.83039320446550846099853515625" lon="-59.13090915419161319732666015625">
        <ele>34.40000152587890625</ele>
        <time>2020-02-25T09:04:25.000Z</time>
      </trkpt>
      <trkpt lat="-34.8302085511386394500732421875" lon="-59.130824916064739227294921875">
        <ele>34.40000152587890625</ele>
        <time>2020-02-25T09:04:34.000Z</time>
      </trkpt>
      <trkpt lat="-34.829970337450504302978515625" lon="-59.130716957151889801025390625">
        <ele>34.200000762939453125</ele>
        <time>2020-02-25T09:04:45.000Z</time>
      </trkpt>
      <trkpt lat="-34.829741008579730987548828125" lon="-59.1306081600487232208251953125">
        <ele>34.200000762939453125</ele>
        <time>2020-02-25T09:04:55.000Z</time>
      </trkpt>
      <trkpt lat="-34.82949835248291492462158203125" lon="-59.1304961778223514556884765625">
        <ele>34.59999847412109375</ele>
        <time>2020-02-25T09:05:06.000Z</time>
      </trkpt>
      <trkpt lat="-34.82924379408359527587890625" lon="-59.13037656806409358978271484375">
        <ele>34.40000152587890625</ele>
        <time>2020-02-25T09:05:17.000Z</time>
      </trkpt>
      <trkpt lat="-34.8290746472775936126708984375" lon="-59.1302955150604248046875">
        <ele>34.40000152587890625</ele>
        <time>2020-02-25T09:05:25.000Z</time>
      </trkpt>
      <trkpt lat="-34.82886568643152713775634765625" lon="-59.13020423613488674163818359375">
        <ele>34.40000152587890625</ele>
        <time>2020-02-25T09:05:34.000Z</time>
      </trkpt>
      <trkpt lat="-34.8286123014986515045166015625" lon="-59.13008722476661205291748046875">
        <ele>34.40000152587890625</ele>
        <time>2020-02-25T09:05:44.000Z</time>
      </trkpt>
      <trkpt lat="-34.82835623435676097869873046875" lon="-59.12997029721736907958984375">
        <ele>34.59999847412109375</ele>
        <time>2020-02-25T09:05:54.000Z</time>
      </trkpt>
      <trkpt lat="-34.82812657020986080169677734375" lon="-59.12986032664775848388671875">
        <ele>34.59999847412109375</ele>
        <time>2020-02-25T09:06:03.000Z</time>
      </trkpt>
      <trkpt lat="-34.8278683237731456756591796875" lon="-59.12974457256495952606201171875">
        <ele>34.59999847412109375</ele>
        <time>2020-02-25T09:06:13.000Z</time>
      </trkpt>
      <trkpt lat="-34.82756716199219226837158203125" lon="-59.12961012683808803558349609375">
        <ele>34.59999847412109375</ele>
        <time>2020-02-25T09:06:25.000Z</time>
      </trkpt>
      <trkpt lat="-34.82733397744596004486083984375" lon="-59.12950401194393634796142578125">
        <ele>34.59999847412109375</ele>
        <time>2020-02-25T09:06:34.000Z</time>
      </trkpt>
      <trkpt lat="-34.82704144902527332305908203125" lon="-59.12937241606414318084716796875">
        <ele>34.40000152587890625</ele>
        <time>2020-02-25T09:06:45.000Z</time>
      </trkpt>
      <trkpt lat="-34.8268021456897258758544921875" lon="-59.129265211522579193115234375">
        <ele>34.799999237060546875</ele>
        <time>2020-02-25T09:06:54.000Z</time>
      </trkpt>
      <trkpt lat="-34.826563261449337005615234375" lon="-59.129158593714237213134765625">
        <ele>34.799999237060546875</ele>
        <time>2020-02-25T09:07:03.000Z</time>
      </trkpt>
      <trkpt lat="-34.82625539414584636688232421875" lon="-59.12901786155998706817626953125">
        <ele>34.799999237060546875</ele>
        <time>2020-02-25T09:07:14.000Z</time>
      </trkpt>
      <trkpt lat="-34.8260048590600490570068359375" lon="-59.1289049573242664337158203125">
        <ele>34.59999847412109375</ele>
        <time>2020-02-25T09:07:23.000Z</time>
      </trkpt>
      <trkpt lat="-34.82566279359161853790283203125" lon="-59.12874964065849781036376953125">
        <ele>34.59999847412109375</ele>
        <time>2020-02-25T09:07:35.000Z</time>
      </trkpt>
      <trkpt lat="-34.82552013359963893890380859375" lon="-59.12868526764214038848876953125">
        <ele>34.40000152587890625</ele>
        <time>2020-02-25T09:07:42.000Z</time>
      </trkpt>
      <trkpt lat="-34.82551879249513149261474609375" lon="-59.12868426181375980377197265625">
        <ele>34.59999847412109375</ele>
        <time>2020-02-25T09:07:52.000Z</time>
      </trkpt>
      <trkpt lat="-34.825519211590290069580078125" lon="-59.12868459708988666534423828125">
        <ele>34.40000152587890625</ele>
        <time>2020-02-25T09:08:38.000Z</time>
      </trkpt>
      <trkpt lat="-34.82549750246107578277587890625" lon="-59.12867940030992031097412109375">
        <ele>34</ele>
        <time>2020-02-25T09:08:55.000Z</time>
      </trkpt>
      <trkpt lat="-34.8254814930260181427001953125" lon="-59.12867420352995395660400390625">
        <ele>34</ele>
        <time>2020-02-25T09:08:56.000Z</time>
      </trkpt>
      <trkpt lat="-34.8253658227622509002685546875" lon="-59.12862382829189300537109375">
        <ele>34.200000762939453125</ele>
        <time>2020-02-25T09:09:01.000Z</time>
      </trkpt>
      <trkpt lat="-34.8250925727188587188720703125" lon="-59.12850153632462024688720703125">
        <ele>34.40000152587890625</ele>
        <time>2020-02-25T09:09:10.000Z</time>
      </trkpt>
      <trkpt lat="-34.82496298849582672119140625" lon="-59.1284727863967418670654296875">
        <ele>34.59999847412109375</ele>
        <time>2020-02-25T09:09:15.000Z</time>
      </trkpt>
      <trkpt lat="-34.82485176064074039459228515625" lon="-59.1285502351820468902587890625">
        <ele>34.59999847412109375</ele>
        <time>2020-02-25T09:09:19.000Z</time>
      </trkpt>
      <trkpt lat="-34.824680350720882415771484375" lon="-59.12875601090490818023681640625">
        <ele>34.40000152587890625</ele>
        <time>2020-02-25T09:09:25.000Z</time>
      </trkpt>
      <trkpt lat="-34.82450860552489757537841796875" lon="-59.12897578440606594085693359375">
        <ele>34.59999847412109375</ele>
        <time>2020-02-25T09:09:31.000Z</time>
      </trkpt>
      <trkpt lat="-34.82429067604243755340576171875" lon="-59.129277952015399932861328125">
        <ele>34.59999847412109375</ele>
        <time>2020-02-25T09:09:40.000Z</time>
      </trkpt>
      <trkpt lat="-34.8241608403623104095458984375" lon="-59.129449613392353057861328125">
        <ele>34.59999847412109375</ele>
        <time>2020-02-25T09:09:46.000Z</time>
      </trkpt>
      <trkpt lat="-34.8240595869719982147216796875" lon="-59.1295768506824970245361328125">
        <ele>34.59999847412109375</ele>
        <time>2020-02-25T09:09:53.000Z</time>
      </trkpt>
      <trkpt lat="-34.824015162885189056396484375" lon="-59.1296405531466007232666015625">
        <ele>34.59999847412109375</ele>
        <time>2020-02-25T09:09:58.000Z</time>
      </trkpt>
      <trkpt lat="-34.824006445705890655517578125" lon="-59.12964130751788616180419921875">
        <ele>34.59999847412109375</ele>
        <time>2020-02-25T09:10:00.000Z</time>
      </trkpt>
      <trkpt lat="-34.82400720007717609405517578125" lon="-59.12963007576763629913330078125">
        <ele>34.59999847412109375</ele>
        <time>2020-02-25T09:10:01.000Z</time>
      </trkpt>
      <trkpt lat="-34.82403703965246677398681640625" lon="-59.12959302775561809539794921875">
        <ele>34.40000152587890625</ele>
        <time>2020-02-25T09:10:04.000Z</time>
      </trkpt>
      <trkpt lat="-34.824172742664813995361328125" lon="-59.12939965724945068359375">
        <ele>34.59999847412109375</ele>
        <time>2020-02-25T09:10:13.000Z</time>
      </trkpt>
      <trkpt lat="-34.82433426193892955780029296875" lon="-59.12916370667517185211181640625">
        <ele>34.40000152587890625</ele>
        <time>2020-02-25T09:10:22.000Z</time>
      </trkpt>
      <trkpt lat="-34.8245651833713054656982421875" lon="-59.128837399184703826904296875">
        <ele>34.59999847412109375</ele>
        <time>2020-02-25T09:10:34.000Z</time>
      </trkpt>
      <trkpt lat="-34.82476894743740558624267578125" lon="-59.128544032573699951171875">
        <ele>34.59999847412109375</ele>
        <time>2020-02-25T09:10:44.000Z</time>
      </trkpt>
      <trkpt lat="-34.8249363340437412261962890625" lon="-59.12830221466720104217529296875">
        <ele>34.59999847412109375</ele>
        <time>2020-02-25T09:10:53.000Z</time>
      </trkpt>
      <trkpt lat="-34.825074970722198486328125" lon="-59.128104150295257568359375">
        <ele>34.40000152587890625</ele>
        <time>2020-02-25T09:11:01.000Z</time>
      </trkpt>
      <trkpt lat="-34.82522525824606418609619140625" lon="-59.12789401598274707794189453125">
        <ele>34.59999847412109375</ele>
        <time>2020-02-25T09:11:10.000Z</time>
      </trkpt>
      <trkpt lat="-34.82539742253720760345458984375" lon="-59.12764750421047210693359375">
        <ele>34.59999847412109375</ele>
        <time>2020-02-25T09:11:20.000Z</time>
      </trkpt>
      <trkpt lat="-34.82550588436424732208251953125" lon="-59.1274870745837688446044921875">
        <ele>34.59999847412109375</ele>
        <time>2020-02-25T09:11:28.000Z</time>
      </trkpt>
      <trkpt lat="-34.82560043223202228546142578125" lon="-59.12735690362751483917236328125">
        <ele>34.59999847412109375</ele>
        <time>2020-02-25T09:11:37.000Z</time>
      </trkpt>
      <trkpt lat="-34.82563714496791362762451171875" lon="-59.1273174248635768890380859375">
        <ele>34.59999847412109375</ele>
        <time>2020-02-25T09:11:44.000Z</time>
      </trkpt>
      <trkpt lat="-34.82563362456858158111572265625" lon="-59.127334691584110260009765625">
        <ele>34.59999847412109375</ele>
        <time>2020-02-25T09:11:46.000Z</time>
      </trkpt>
      <trkpt lat="-34.8256105743348598480224609375" lon="-59.12736511789262294769287109375">
        <ele>34.59999847412109375</ele>
        <time>2020-02-25T09:11:49.000Z</time>
      </trkpt>
      <trkpt lat="-34.82553455047309398651123046875" lon="-59.12747341208159923553466796875">
        <ele>34.59999847412109375</ele>
        <time>2020-02-25T09:11:56.000Z</time>
      </trkpt>
      <trkpt lat="-34.82547529041767120361328125" lon="-59.127559326589107513427734375">
        <ele>34.59999847412109375</ele>
        <time>2020-02-25T09:12:01.000Z</time>
      </trkpt>
      <trkpt lat="-34.82543698512017726898193359375" lon="-59.1276017390191555023193359375">
        <ele>34.40000152587890625</ele>
        <time>2020-02-25T09:12:07.000Z</time>
      </trkpt>
      <trkpt lat="-34.8254382424056529998779296875" lon="-59.1276027448475360870361328125">
        <ele>34.40000152587890625</ele>
        <time>2020-02-25T09:12:26.000Z</time>
      </trkpt>
      <trkpt lat="-34.8254372365772724151611328125" lon="-59.12760232575237751007080078125">
        <ele>34.59999847412109375</ele>
        <time>2020-02-25T09:12:38.000Z</time>
      </trkpt>
      <trkpt lat="-34.82543715275824069976806640625" lon="-59.12760257720947265625">
        <ele>34.40000152587890625</ele>
        <time>2020-02-25T09:13:07.000Z</time>
      </trkpt>
      <trkpt lat="-34.825437068939208984375" lon="-59.127602241933345794677734375">
        <ele>34.59999847412109375</ele>
        <time>2020-02-25T09:13:42.000Z</time>
      </trkpt>
      <trkpt lat="-34.82543648220598697662353515625" lon="-59.12760249339044094085693359375">
        <ele>34.59999847412109375</ele>
        <time>2020-02-25T09:14:15.000Z</time>
      </trkpt>
      <trkpt lat="-34.82543715275824069976806640625" lon="-59.12760282866656780242919921875">
        <ele>34.59999847412109375</ele>
        <time>2020-02-25T09:14:54.000Z</time>
      </trkpt>
      <trkpt lat="-34.82543698512017726898193359375" lon="-59.1276024095714092254638671875">
        <ele>34.59999847412109375</ele>
        <time>2020-02-25T09:15:17.000Z</time>
      </trkpt>
      <trkpt lat="-34.82543732039630413055419921875" lon="-59.12760249339044094085693359375">
        <ele>34.59999847412109375</ele>
        <time>2020-02-25T09:15:44.000Z</time>
      </trkpt>
      <trkpt lat="-34.825433380901813507080078125" lon="-59.1276077739894390106201171875">
        <ele>34.59999847412109375</ele>
        <time>2020-02-25T09:15:58.000Z</time>
      </trkpt>
      <trkpt lat="-34.82542625628411769866943359375" lon="-59.1276161558926105499267578125">
        <ele>34.59999847412109375</ele>
        <time>2020-02-25T09:15:59.000Z</time>
      </trkpt>
      <trkpt lat="-34.82536397874355316162109375" lon="-59.12771246396005153656005859375">
        <ele>34</ele>
        <time>2020-02-25T09:16:04.000Z</time>
      </trkpt>
      <trkpt lat="-34.82522182166576385498046875" lon="-59.127912707626819610595703125">
        <ele>34</ele>
        <time>2020-02-25T09:16:11.000Z</time>
      </trkpt>
      <trkpt lat="-34.824978746473789215087890625" lon="-59.1282504983246326446533203125">
        <ele>34.799999237060546875</ele>
        <time>2020-02-25T09:16:23.000Z</time>
      </trkpt>
      <trkpt lat="-34.824762158095836639404296875" lon="-59.12856389768421649932861328125">
        <ele>34.799999237060546875</ele>
        <time>2020-02-25T09:16:34.000Z</time>
      </trkpt>
      <trkpt lat="-34.82454448007047176361083984375" lon="-59.12887151353061199188232421875">
        <ele>34.40000152587890625</ele>
        <time>2020-02-25T09:16:44.000Z</time>
      </trkpt>
      <trkpt lat="-34.82427257113158702850341796875" lon="-59.12925808690488338470458984375">
        <ele>34.40000152587890625</ele>
        <time>2020-02-25T09:16:57.000Z</time>
      </trkpt>
      <trkpt lat="-34.82406402938067913055419921875" lon="-59.1295574046671390533447265625">
        <ele>34.40000152587890625</ele>
        <time>2020-02-25T09:17:07.000Z</time>
      </trkpt>
      <trkpt lat="-34.82385632582008838653564453125" lon="-59.1298596560955047607421875">
        <ele>34.59999847412109375</ele>
        <time>2020-02-25T09:17:18.000Z</time>
      </trkpt>
      <trkpt lat="-34.8236364684998989105224609375" lon="-59.1301766596734523773193359375">
        <ele>34.200000762939453125</ele>
        <time>2020-02-25T09:17:30.000Z</time>
      </trkpt>
      <trkpt lat="-34.82339330948889255523681640625" lon="-59.13052660413086414337158203125">
        <ele>33.799999237060546875</ele>
        <time>2020-02-25T09:17:42.000Z</time>
      </trkpt>
      <trkpt lat="-34.82313866727054119110107421875" lon="-59.1308968327939510345458984375">
        <ele>33.799999237060546875</ele>
        <time>2020-02-25T09:17:55.000Z</time>
      </trkpt>
      <trkpt lat="-34.82290481217205524444580078125" lon="-59.1312327794730663299560546875">
        <ele>34.200000762939453125</ele>
        <time>2020-02-25T09:18:07.000Z</time>
      </trkpt>
      <trkpt lat="-34.82273130677640438079833984375" lon="-59.13148976862430572509765625">
        <ele>34.200000762939453125</ele>
        <time>2020-02-25T09:18:16.000Z</time>
      </trkpt>
      <trkpt lat="-34.8225335776805877685546875" lon="-59.13176679052412509918212890625">
        <ele>34.200000762939453125</ele>
        <time>2020-02-25T09:18:26.000Z</time>
      </trkpt>
      <trkpt lat="-34.82229075394570827484130859375" lon="-59.1321175731718540191650390625">
        <ele>34</ele>
        <time>2020-02-25T09:18:37.000Z</time>
      </trkpt>
      <trkpt lat="-34.822076596319675445556640625" lon="-59.13241554982960224151611328125">
        <ele>33.799999237060546875</ele>
        <time>2020-02-25T09:18:47.000Z</time>
      </trkpt>
      <trkpt lat="-34.82180812396109104156494140625" lon="-59.13277027197182178497314453125">
        <ele>33.59999847412109375</ele>
        <time>2020-02-25T09:19:00.000Z</time>
      </trkpt>
      <trkpt lat="-34.82167937792837619781494140625" lon="-59.13282559253275394439697265625">
        <ele>33.799999237060546875</ele>
        <time>2020-02-25T09:19:06.000Z</time>
      </trkpt>
      <trkpt lat="-34.82156320475041866302490234375" lon="-59.13271964527666568756103515625">
        <ele>34</ele>
        <time>2020-02-25T09:19:13.000Z</time>
      </trkpt>
      <trkpt lat="-34.8214635439217090606689453125" lon="-59.13247740827500820159912109375">
        <ele>33.59999847412109375</ele>
        <time>2020-02-25T09:19:21.000Z</time>
      </trkpt>
      <trkpt lat="-34.8213532380759716033935546875" lon="-59.132195524871349334716796875">
        <ele>33.59999847412109375</ele>
        <time>2020-02-25T09:19:31.000Z</time>
      </trkpt>
      <trkpt lat="-34.821231365203857421875" lon="-59.1318698041141033172607421875">
        <ele>33.40000152587890625</ele>
        <time>2020-02-25T09:19:40.000Z</time>
      </trkpt>
      <trkpt lat="-34.8211275972425937652587890625" lon="-59.13158372975885868072509765625">
        <ele>33.40000152587890625</ele>
        <time>2020-02-25T09:19:49.000Z</time>
      </trkpt>
      <trkpt lat="-34.8210119269788265228271484375" lon="-59.1312589310109615325927734375">
        <ele>33.40000152587890625</ele>
        <time>2020-02-25T09:19:58.000Z</time>
      </trkpt>
      <trkpt lat="-34.82098527252674102783203125" lon="-59.13118693046271800994873046875">
        <ele>33.200000762939453125</ele>
        <time>2020-02-25T09:20:00.000Z</time>
      </trkpt>
      <trkpt lat="-34.82086868025362491607666015625" lon="-59.13088249973952770233154296875">
        <ele>33.40000152587890625</ele>
        <time>2020-02-25T09:20:09.000Z</time>
      </trkpt>
      <trkpt lat="-34.820777736604213714599609375" lon="-59.1306393407285213470458984375">
        <ele>33</ele>
        <time>2020-02-25T09:20:16.000Z</time>
      </trkpt>
      <trkpt lat="-34.82065267860889434814453125" lon="-59.1302775777876377105712890625">
        <ele>33</ele>
        <time>2020-02-25T09:20:25.000Z</time>
      </trkpt>
      <trkpt lat="-34.82056307606399059295654296875" lon="-59.1300469078123569488525390625">
        <ele>33</ele>
        <time>2020-02-25T09:20:31.000Z</time>
      </trkpt>
      <trkpt lat="-34.82041857205331325531005859375" lon="-59.129672236740589141845703125">
        <ele>33.200000762939453125</ele>
        <time>2020-02-25T09:20:41.000Z</time>
      </trkpt>
      <trkpt lat="-34.82031178660690784454345703125" lon="-59.12939856760203838348388671875">
        <ele>32.799999237060546875</ele>
        <time>2020-02-25T09:20:49.000Z</time>
      </trkpt>
      <trkpt lat="-34.82023651711642742156982421875" lon="-59.1292050294578075408935546875">
        <ele>32.799999237060546875</ele>
        <time>2020-02-25T09:20:56.000Z</time>
      </trkpt>
      <trkpt lat="-34.82015253044664859771728515625" lon="-59.12897058762609958648681640625">
        <ele>32.799999237060546875</ele>
        <time>2020-02-25T09:21:04.000Z</time>
      </trkpt>
      <trkpt lat="-34.82004222460091114044189453125" lon="-59.12867822684347629547119140625">
        <ele>32.799999237060546875</ele>
        <time>2020-02-25T09:21:14.000Z</time>
      </trkpt>
      <trkpt lat="-34.819930493831634521484375" lon="-59.12839449942111968994140625">
        <ele>32.799999237060546875</ele>
        <time>2020-02-25T09:21:23.000Z</time>
      </trkpt>
      <trkpt lat="-34.81985329650342464447021484375" lon="-59.12817698903381824493408203125">
        <ele>33</ele>
        <time>2020-02-25T09:21:31.000Z</time>
      </trkpt>
      <trkpt lat="-34.81977333314716815948486328125" lon="-59.12801153026521205902099609375">
        <ele>32.59999847412109375</ele>
        <time>2020-02-25T09:21:38.000Z</time>
      </trkpt>
      <trkpt lat="-34.81966562569141387939453125" lon="-59.12795520387589931488037109375">
        <ele>32.40000152587890625</ele>
        <time>2020-02-25T09:21:42.000Z</time>
      </trkpt>
      <trkpt lat="-34.81964458711445331573486328125" lon="-59.12796140648424625396728515625">
        <ele>32.59999847412109375</ele>
        <time>2020-02-25T09:21:43.000Z</time>
      </trkpt>
      <trkpt lat="-34.819454737007617950439453125" lon="-59.1280432976782321929931640625">
        <ele>32.59999847412109375</ele>
        <time>2020-02-25T09:21:52.000Z</time>
      </trkpt>
      <trkpt lat="-34.8193620331585407257080078125" lon="-59.1280909068882465362548828125">
        <ele>32.40000152587890625</ele>
        <time>2020-02-25T09:21:56.000Z</time>
      </trkpt>
      <trkpt lat="-34.8192865960299968719482421875" lon="-59.128127954900264739990234375">
        <ele>32.59999847412109375</ele>
        <time>2020-02-25T09:22:00.000Z</time>
      </trkpt>
      <trkpt lat="-34.81900504790246486663818359375" lon="-59.12828193046152591705322265625">
        <ele>32.40000152587890625</ele>
        <time>2020-02-25T09:22:09.000Z</time>
      </trkpt>
      <trkpt lat="-34.8187370784580707550048828125" lon="-59.1284273564815521240234375">
        <ele>32.40000152587890625</ele>
        <time>2020-02-25T09:22:19.000Z</time>
      </trkpt>
      <trkpt lat="-34.81858075596392154693603515625" lon="-59.12850178778171539306640625">
        <ele>32.59999847412109375</ele>
        <time>2020-02-25T09:22:27.000Z</time>
      </trkpt>
      <trkpt lat="-34.8184802569448947906494140625" lon="-59.12854646332561969757080078125">
        <ele>32.59999847412109375</ele>
        <time>2020-02-25T09:22:34.000Z</time>
      </trkpt>
      <trkpt lat="-34.81835729442536830902099609375" lon="-59.12860429845750331878662109375">
        <ele>32.40000152587890625</ele>
        <time>2020-02-25T09:22:41.000Z</time>
      </trkpt>
      <trkpt lat="-34.81813400052487850189208984375" lon="-59.1286870278418064117431640625">
        <ele>32.40000152587890625</ele>
        <time>2020-02-25T09:22:51.000Z</time>
      </trkpt>
      <trkpt lat="-34.81780643574893474578857421875" lon="-59.128817617893218994140625">
        <ele>32.40000152587890625</ele>
        <time>2020-02-25T09:23:04.000Z</time>
      </trkpt>
      <trkpt lat="-34.81760946102440357208251953125" lon="-59.1288962401449680328369140625">
        <ele>32.200000762939453125</ele>
        <time>2020-02-25T09:23:12.000Z</time>
      </trkpt>
      <trkpt lat="-34.81738382019102573394775390625" lon="-59.12897896952927112579345703125">
        <ele>32.40000152587890625</ele>
        <time>2020-02-25T09:23:21.000Z</time>
      </trkpt>
      <trkpt lat="-34.81705189682543277740478515625" lon="-59.12909857928752899169921875">
        <ele>32.200000762939453125</ele>
        <time>2020-02-25T09:23:32.000Z</time>
      </trkpt>
      <trkpt lat="-34.8168199695646762847900390625" lon="-59.12918013520538806915283203125">
        <ele>32.40000152587890625</ele>
        <time>2020-02-25T09:23:41.000Z</time>
      </trkpt>
      <trkpt lat="-34.8167909681797027587890625" lon="-59.1291912831366062164306640625">
        <ele>32.40000152587890625</ele>
        <time>2020-02-25T09:23:45.000Z</time>
      </trkpt>
      <trkpt lat="-34.8167924769222736358642578125" lon="-59.12919254042208194732666015625">
        <ele>32.40000152587890625</ele>
        <time>2020-02-25T09:24:03.000Z</time>
      </trkpt>
      <trkpt lat="-34.81679306365549564361572265625" lon="-59.12919186986982822418212890625">
        <ele>32.40000152587890625</ele>
        <time>2020-02-25T09:24:20.000Z</time>
      </trkpt>
      <trkpt lat="-34.8167934827506542205810546875" lon="-59.12919304333627223968505859375">
        <ele>32.200000762939453125</ele>
        <time>2020-02-25T09:25:04.000Z</time>
      </trkpt>
      <trkpt lat="-34.81677286326885223388671875" lon="-59.1292033530771732330322265625">
        <ele>32.200000762939453125</ele>
        <time>2020-02-25T09:25:07.000Z</time>
      </trkpt>
      <trkpt lat="-34.81671712361276149749755859375" lon="-59.12922422401607036590576171875">
        <ele>32.200000762939453125</ele>
        <time>2020-02-25T09:25:09.000Z</time>
      </trkpt>
      <trkpt lat="-34.8165115155279636383056640625" lon="-59.12929899059236049652099609375">
        <ele>32.200000762939453125</ele>
        <time>2020-02-25T09:25:18.000Z</time>
      </trkpt>
      <trkpt lat="-34.8161526024341583251953125" lon="-59.1294226236641407012939453125">
        <ele>32.200000762939453125</ele>
        <time>2020-02-25T09:25:30.000Z</time>
      </trkpt>
      <trkpt lat="-34.81590726412832736968994140625" lon="-59.12951029837131500244140625">
        <ele>32</ele>
        <time>2020-02-25T09:25:38.000Z</time>
      </trkpt>
      <trkpt lat="-34.81568413786590099334716796875" lon="-59.12958682514727115631103515625">
        <ele>32</ele>
        <time>2020-02-25T09:25:46.000Z</time>
      </trkpt>
      <trkpt lat="-34.81537149287760257720947265625" lon="-59.129696376621723175048828125">
        <ele>31.6000003814697265625</ele>
        <time>2020-02-25T09:25:55.000Z</time>
      </trkpt>
      <trkpt lat="-34.81502540409564971923828125" lon="-59.12981313653290271759033203125">
        <ele>31.6000003814697265625</ele>
        <time>2020-02-25T09:26:05.000Z</time>
      </trkpt>
      <trkpt lat="-34.81462039053440093994140625" lon="-59.12995495833456516265869140625">
        <ele>31.3999996185302734375</ele>
        <time>2020-02-25T09:26:17.000Z</time>
      </trkpt>
      <trkpt lat="-34.8143127746880054473876953125" lon="-59.130062498152256011962890625">
        <ele>31.3999996185302734375</ele>
        <time>2020-02-25T09:26:26.000Z</time>
      </trkpt>
      <trkpt lat="-34.81397858820855617523193359375" lon="-59.13018043152987957000732421875">
        <ele>31.3999996185302734375</ele>
        <time>2020-02-25T09:26:36.000Z</time>
      </trkpt>
      <trkpt lat="-34.8135755024850368499755859375" lon="-59.13032057695090770721435546875">
        <ele>31.3999996185302734375</ele>
        <time>2020-02-25T09:26:48.000Z</time>
      </trkpt>
      <trkpt lat="-34.81323343701660633087158203125" lon="-59.130438007414340972900390625">
        <ele>31.3999996185302734375</ele>
        <time>2020-02-25T09:26:58.000Z</time>
      </trkpt>
      <trkpt lat="-34.8131279088556766510009765625" lon="-59.13047413341701030731201171875">
        <ele>31.200000762939453125</ele>
        <time>2020-02-25T09:27:01.000Z</time>
      </trkpt>
      <trkpt lat="-34.81281467713415622711181640625" lon="-59.13058494217693805694580078125">
        <ele>31.200000762939453125</ele>
        <time>2020-02-25T09:27:10.000Z</time>
      </trkpt>
      <trkpt lat="-34.812449477612972259521484375" lon="-59.13071729242801666259765625">
        <ele>31.3999996185302734375</ele>
        <time>2020-02-25T09:27:21.000Z</time>
      </trkpt>
      <trkpt lat="-34.81213088147342205047607421875" lon="-59.13082994520664215087890625">
        <ele>31.200000762939453125</ele>
        <time>2020-02-25T09:27:31.000Z</time>
      </trkpt>
      <trkpt lat="-34.81175285764038562774658203125" lon="-59.13096606731414794921875">
        <ele>31.200000762939453125</ele>
        <time>2020-02-25T09:27:43.000Z</time>
      </trkpt>
      <trkpt lat="-34.8114421404898166656494140625" lon="-59.13107595406472682952880859375">
        <ele>31.200000762939453125</ele>
        <time>2020-02-25T09:27:53.000Z</time>
      </trkpt>
      <trkpt lat="-34.8110854066908359527587890625" lon="-59.13120319135487079620361328125">
        <ele>31.200000762939453125</ele>
        <time>2020-02-25T09:28:04.000Z</time>
      </trkpt>
      <trkpt lat="-34.81076295487582683563232421875" lon="-59.1313187777996063232421875">
        <ele>31.3999996185302734375</ele>
        <time>2020-02-25T09:28:14.000Z</time>
      </trkpt>
      <trkpt lat="-34.810436479747295379638671875" lon="-59.13143369369208812713623046875">
        <ele>31.3999996185302734375</ele>
        <time>2020-02-25T09:28:24.000Z</time>
      </trkpt>
      <trkpt lat="-34.81003674678504467010498046875" lon="-59.13157450966536998748779296875">
        <ele>31.200000762939453125</ele>
        <time>2020-02-25T09:28:36.000Z</time>
      </trkpt>
      <trkpt lat="-34.80968319810926914215087890625" lon="-59.13169789128005504608154296875">
        <ele>31.200000762939453125</ele>
        <time>2020-02-25T09:28:47.000Z</time>
      </trkpt>
      <trkpt lat="-34.8093537054955959320068359375" lon="-59.13182144053280353546142578125">
        <ele>31.200000762939453125</ele>
        <time>2020-02-25T09:28:58.000Z</time>
      </trkpt>
      <trkpt lat="-34.8090251348912715911865234375" lon="-59.1319370269775390625">
        <ele>31.200000762939453125</ele>
        <time>2020-02-25T09:29:09.000Z</time>
      </trkpt>
      <trkpt lat="-34.80876252986490726470947265625" lon="-59.1320374421775341033935546875">
        <ele>31.200000762939453125</ele>
        <time>2020-02-25T09:29:18.000Z</time>
      </trkpt>
      <trkpt lat="-34.8085010983049869537353515625" lon="-59.1321314871311187744140625">
        <ele>31.3999996185302734375</ele>
        <time>2020-02-25T09:29:27.000Z</time>
      </trkpt>
      <trkpt lat="-34.80811678804457187652587890625" lon="-59.132266938686370849609375">
        <ele>31.200000762939453125</ele>
        <time>2020-02-25T09:29:40.000Z</time>
      </trkpt>
      <trkpt lat="-34.8077172227203845977783203125" lon="-59.13241471163928508758544921875">
        <ele>31.3999996185302734375</ele>
        <time>2020-02-25T09:29:52.000Z</time>
      </trkpt>
      <trkpt lat="-34.8074003867805004119873046875" lon="-59.1325319744646549224853515625">
        <ele>31.200000762939453125</ele>
        <time>2020-02-25T09:30:03.000Z</time>
      </trkpt>
      <trkpt lat="-34.8070848919451236724853515625" lon="-59.1326157934963703155517578125">
        <ele>31.200000762939453125</ele>
        <time>2020-02-25T09:30:12.000Z</time>
      </trkpt>
      <trkpt lat="-34.80688758194446563720703125" lon="-59.132611937820911407470703125">
        <ele>31.200000762939453125</ele>
        <time>2020-02-25T09:30:20.000Z</time>
      </trkpt>
      <trkpt lat="-34.8066352866590023040771484375" lon="-59.132528789341449737548828125">
        <ele>31</ele>
        <time>2020-02-25T09:30:29.000Z</time>
      </trkpt>
      <trkpt lat="-34.80639196000993251800537109375" lon="-59.13243315182626247406005859375">
        <ele>31.200000762939453125</ele>
        <time>2020-02-25T09:30:38.000Z</time>
      </trkpt>
      <trkpt lat="-34.80622733943164348602294921875" lon="-59.13237481378018856048583984375">
        <ele>31</ele>
        <time>2020-02-25T09:30:44.000Z</time>
      </trkpt>
      <trkpt lat="-34.8059643991291522979736328125" lon="-59.1322704590857028961181640625">
        <ele>31</ele>
        <time>2020-02-25T09:30:53.000Z</time>
      </trkpt>
      <trkpt lat="-34.80565066449344158172607421875" lon="-59.13215923123061656951904296875">
        <ele>30.6000003814697265625</ele>
        <time>2020-02-25T09:31:03.000Z</time>
      </trkpt>
      <trkpt lat="-34.80536668561398983001708984375" lon="-59.13205462507903575897216796875">
        <ele>30.6000003814697265625</ele>
        <time>2020-02-25T09:31:11.000Z</time>
      </trkpt>
      <trkpt lat="-34.80506275780498981475830078125" lon="-59.13194440305233001708984375">
        <ele>30.6000003814697265625</ele>
        <time>2020-02-25T09:31:20.000Z</time>
      </trkpt>
      <trkpt lat="-34.80479009449481964111328125" lon="-59.1318349353969097137451171875">
        <ele>30.3999996185302734375</ele>
        <time>2020-02-25T09:31:28.000Z</time>
      </trkpt>
      <trkpt lat="-34.8045508749783039093017578125" lon="-59.13173996843397617340087890625">
        <ele>30.3999996185302734375</ele>
        <time>2020-02-25T09:31:35.000Z</time>
      </trkpt>
      <trkpt lat="-34.80433671735227108001708984375" lon="-59.131666459143161773681640625">
        <ele>30.200000762939453125</ele>
        <time>2020-02-25T09:31:44.000Z</time>
      </trkpt>
      <trkpt lat="-34.804076962172985076904296875" lon="-59.13156813941895961761474609375">
        <ele>30.6000003814697265625</ele>
        <time>2020-02-25T09:31:54.000Z</time>
      </trkpt>
      <trkpt lat="-34.8038037121295928955078125" lon="-59.13146562874317169189453125">
        <ele>30.200000762939453125</ele>
        <time>2020-02-25T09:32:03.000Z</time>
      </trkpt>
      <trkpt lat="-34.80346181429922580718994140625" lon="-59.1313429176807403564453125">
        <ele>30.3999996185302734375</ele>
        <time>2020-02-25T09:32:15.000Z</time>
      </trkpt>
      <trkpt lat="-34.8032101057469844818115234375" lon="-59.13124795071780681610107421875">
        <ele>30.200000762939453125</ele>
        <time>2020-02-25T09:32:24.000Z</time>
      </trkpt>
      <trkpt lat="-34.80283434502780437469482421875" lon="-59.13110545836389064788818359375">
        <ele>30</ele>
        <time>2020-02-25T09:32:36.000Z</time>
      </trkpt>
      <trkpt lat="-34.80245330370962619781494140625" lon="-59.13095760159194469451904296875">
        <ele>30</ele>
        <time>2020-02-25T09:32:48.000Z</time>
      </trkpt>
      <trkpt lat="-34.80208466760814189910888671875" lon="-59.13082013837993144989013671875">
        <ele>30</ele>
        <time>2020-02-25T09:33:01.000Z</time>
      </trkpt>
      <trkpt lat="-34.80186589993536472320556640625" lon="-59.1307345591485500335693359375">
        <ele>30</ele>
        <time>2020-02-25T09:33:08.000Z</time>
      </trkpt>
      <trkpt lat="-34.80155593715608119964599609375" lon="-59.13061679340898990631103515625">
        <ele>29.799999237060546875</ele>
        <time>2020-02-25T09:33:17.000Z</time>
      </trkpt>
      <trkpt lat="-34.801274053752422332763671875" lon="-59.130509085953235626220703125">
        <ele>29.799999237060546875</ele>
        <time>2020-02-25T09:33:27.000Z</time>
      </trkpt>
      <trkpt lat="-34.80084263719618320465087890625" lon="-59.13034572266042232513427734375">
        <ele>29.6000003814697265625</ele>
        <time>2020-02-25T09:33:41.000Z</time>
      </trkpt>
      <trkpt lat="-34.8005513660609722137451171875" lon="-59.13023717701435089111328125">
        <ele>29.3999996185302734375</ele>
        <time>2020-02-25T09:33:51.000Z</time>
      </trkpt>
      <trkpt lat="-34.8003143258392810821533203125" lon="-59.13015226833522319793701171875">
        <ele>29.6000003814697265625</ele>
        <time>2020-02-25T09:33:58.000Z</time>
      </trkpt>
      <trkpt lat="-34.80004660785198211669921875" lon="-59.1300559602677822113037109375">
        <ele>29.6000003814697265625</ele>
        <time>2020-02-25T09:34:08.000Z</time>
      </trkpt>
      <trkpt lat="-34.79974812828004360198974609375" lon="-59.1299490071833133697509765625">
        <ele>29.3999996185302734375</ele>
        <time>2020-02-25T09:34:18.000Z</time>
      </trkpt>
      <trkpt lat="-34.79944688268005847930908203125" lon="-59.12982822395861148834228515625">
        <ele>29.3999996185302734375</ele>
        <time>2020-02-25T09:34:27.000Z</time>
      </trkpt>
      <trkpt lat="-34.799084030091762542724609375" lon="-59.12969830445945262908935546875">
        <ele>29.3999996185302734375</ele>
        <time>2020-02-25T09:34:40.000Z</time>
      </trkpt>
      <trkpt lat="-34.79899224825203418731689453125" lon="-59.12966460920870304107666015625">
        <ele>29.200000762939453125</ele>
        <time>2020-02-25T09:34:42.000Z</time>
      </trkpt>
      <trkpt lat="-34.79884321801364421844482421875" lon="-59.1296103782951831817626953125">
        <ele>29.3999996185302734375</ele>
        <time>2020-02-25T09:34:47.000Z</time>
      </trkpt>
      <trkpt lat="-34.798521436750888824462890625" lon="-59.129479788243770599365234375">
        <ele>29.200000762939453125</ele>
        <time>2020-02-25T09:34:58.000Z</time>
      </trkpt>
      <trkpt lat="-34.79826218448579311370849609375" lon="-59.12938850931823253631591796875">
        <ele>29.200000762939453125</ele>
        <time>2020-02-25T09:35:07.000Z</time>
      </trkpt>
      <trkpt lat="-34.79797367937862873077392578125" lon="-59.12927920930087566375732421875">
        <ele>29.3999996185302734375</ele>
        <time>2020-02-25T09:35:17.000Z</time>
      </trkpt>
      <trkpt lat="-34.7976944781839847564697265625" lon="-59.1291782073676586151123046875">
        <ele>29.6000003814697265625</ele>
        <time>2020-02-25T09:35:27.000Z</time>
      </trkpt>
      <trkpt lat="-34.797458611428737640380859375" lon="-59.12909128703176975250244140625">
        <ele>29.3999996185302734375</ele>
        <time>2020-02-25T09:35:35.000Z</time>
      </trkpt>
      <trkpt lat="-34.7971214912831783294677734375" lon="-59.128970168530941009521484375">
        <ele>29.3999996185302734375</ele>
        <time>2020-02-25T09:35:46.000Z</time>
      </trkpt>
      <trkpt lat="-34.79688688181340694427490234375" lon="-59.12888827733695507049560546875">
        <ele>29.6000003814697265625</ele>
        <time>2020-02-25T09:35:54.000Z</time>
      </trkpt>
      <trkpt lat="-34.79661530815064907073974609375" lon="-59.1287825815379619598388671875">
        <ele>29.3999996185302734375</ele>
        <time>2020-02-25T09:36:03.000Z</time>
      </trkpt>
      <trkpt lat="-34.79631875641644001007080078125" lon="-59.1286712698638439178466796875">
        <ele>29.200000762939453125</ele>
        <time>2020-02-25T09:36:12.000Z</time>
      </trkpt>
      <trkpt lat="-34.79597342200577259063720703125" lon="-59.12853657267987728118896484375">
        <ele>29.200000762939453125</ele>
        <time>2020-02-25T09:36:24.000Z</time>
      </trkpt>
      <trkpt lat="-34.79567703790962696075439453125" lon="-59.12841956131160259246826171875">
        <ele>29.200000762939453125</ele>
        <time>2020-02-25T09:36:34.000Z</time>
      </trkpt>
      <trkpt lat="-34.79543832130730152130126953125" lon="-59.12831596098840236663818359375">
        <ele>29.3999996185302734375</ele>
        <time>2020-02-25T09:36:42.000Z</time>
      </trkpt>
      <trkpt lat="-34.7952523268759250640869140625" lon="-59.1281422041356563568115234375">
        <ele>29.3999996185302734375</ele>
        <time>2020-02-25T09:36:49.000Z</time>
      </trkpt>
      <trkpt lat="-34.79505292139947414398193359375" lon="-59.1278263740241527557373046875">
        <ele>29.200000762939453125</ele>
        <time>2020-02-25T09:36:59.000Z</time>
      </trkpt>
      <trkpt lat="-34.79488469660282135009765625" lon="-59.12754482589662075042724609375">
        <ele>29</ele>
        <time>2020-02-25T09:37:09.000Z</time>
      </trkpt>
      <trkpt lat="-34.794788472354412078857421875" lon="-59.127384983003139495849609375">
        <ele>29.200000762939453125</ele>
        <time>2020-02-25T09:37:15.000Z</time>
      </trkpt>
      <trkpt lat="-34.79462460614740848541259765625" lon="-59.12718993611633777618408203125">
        <ele>29</ele>
        <time>2020-02-25T09:37:24.000Z</time>
      </trkpt>
      <trkpt lat="-34.7943985462188720703125" lon="-59.12697267718613147735595703125">
        <ele>28.799999237060546875</ele>
        <time>2020-02-25T09:37:33.000Z</time>
      </trkpt>
      <trkpt lat="-34.79413443244993686676025390625" lon="-59.12675156258046627044677734375">
        <ele>28.799999237060546875</ele>
        <time>2020-02-25T09:37:45.000Z</time>
      </trkpt>
      <trkpt lat="-34.79392136447131633758544921875" lon="-59.12657252512872219085693359375">
        <ele>28.6000003814697265625</ele>
        <time>2020-02-25T09:37:53.000Z</time>
      </trkpt>
      <trkpt lat="-34.7936393134295940399169921875" lon="-59.12633850239217281341552734375">
        <ele>28.6000003814697265625</ele>
        <time>2020-02-25T09:38:05.000Z</time>
      </trkpt>
      <trkpt lat="-34.79335910640656948089599609375" lon="-59.126104228198528289794921875">
        <ele>28.6000003814697265625</ele>
        <time>2020-02-25T09:38:15.000Z</time>
      </trkpt>
      <trkpt lat="-34.7931092418730258941650390625" lon="-59.125892333686351776123046875">
        <ele>28.3999996185302734375</ele>
        <time>2020-02-25T09:38:26.000Z</time>
      </trkpt>
      <trkpt lat="-34.792796261608600616455078125" lon="-59.12563006393611431121826171875">
        <ele>28.3999996185302734375</ele>
        <time>2020-02-25T09:38:37.000Z</time>
      </trkpt>
      <trkpt lat="-34.79253181256353855133056640625" lon="-59.1254026629030704498291015625">
        <ele>28.3999996185302734375</ele>
        <time>2020-02-25T09:38:47.000Z</time>
      </trkpt>
      <trkpt lat="-34.79223744012415409088134765625" lon="-59.1251448355615139007568359375">
        <ele>28.3999996185302734375</ele>
        <time>2020-02-25T09:38:59.000Z</time>
      </trkpt>
      <trkpt lat="-34.79194155894219875335693359375" lon="-59.1248977370560169219970703125">
        <ele>28.3999996185302734375</ele>
        <time>2020-02-25T09:39:10.000Z</time>
      </trkpt>
      <trkpt lat="-34.79168423451483249664306640625" lon="-59.12467787973582744598388671875">
        <ele>28.3999996185302734375</ele>
        <time>2020-02-25T09:39:20.000Z</time>
      </trkpt>
      <trkpt lat="-34.79144803248345851898193359375" lon="-59.12447067908942699432373046875">
        <ele>28.6000003814697265625</ele>
        <time>2020-02-25T09:39:30.000Z</time>
      </trkpt>
      <trkpt lat="-34.79121669195592403411865234375" lon="-59.124289043247699737548828125">
        <ele>28.3999996185302734375</ele>
        <time>2020-02-25T09:39:38.000Z</time>
      </trkpt>
      <trkpt lat="-34.7911130078136920928955078125" lon="-59.12420648150146007537841796875">
        <ele>28.200000762939453125</ele>
        <time>2020-02-25T09:39:42.000Z</time>
      </trkpt>
      <trkpt lat="-34.79093036614358425140380859375" lon="-59.12406549789011478424072265625">
        <ele>28.3999996185302734375</ele>
        <time>2020-02-25T09:39:49.000Z</time>
      </trkpt>
      <trkpt lat="-34.7907247580587863922119140625" lon="-59.12388679571449756622314453125">
        <ele>28.3999996185302734375</ele>
        <time>2020-02-25T09:39:58.000Z</time>
      </trkpt>
      <trkpt lat="-34.79046751745045185089111328125" lon="-59.12364372052252292633056640625">
        <ele>29</ele>
        <time>2020-02-25T09:40:07.000Z</time>
      </trkpt>
      <trkpt lat="-34.7903148829936981201171875" lon="-59.123530648648738861083984375">
        <ele>29</ele>
        <time>2020-02-25T09:40:14.000Z</time>
      </trkpt>
      <trkpt lat="-34.79015219025313854217529296875" lon="-59.12341321818530559539794921875">
        <ele>28.799999237060546875</ele>
        <time>2020-02-25T09:40:20.000Z</time>
      </trkpt>
      <trkpt lat="-34.7899147309362888336181640625" lon="-59.1232153214514255523681640625">
        <ele>28.3999996185302734375</ele>
        <time>2020-02-25T09:40:28.000Z</time>
      </trkpt>
      <trkpt lat="-34.7895982302725315093994140625" lon="-59.12296344526112079620361328125">
        <ele>28.3999996185302734375</ele>
        <time>2020-02-25T09:40:40.000Z</time>
      </trkpt>
      <trkpt lat="-34.7894136607646942138671875" lon="-59.12294852547347545623779296875">
        <ele>28.200000762939453125</ele>
        <time>2020-02-25T09:40:47.000Z</time>
      </trkpt>
      <trkpt lat="-34.78933663107454776763916015625" lon="-59.12302496843039989471435546875">
        <ele>28.3999996185302734375</ele>
        <time>2020-02-25T09:40:53.000Z</time>
      </trkpt>
      <trkpt lat="-34.7892183624207973480224609375" lon="-59.1231246292591094970703125">
        <ele>29</ele>
        <time>2020-02-25T09:41:00.000Z</time>
      </trkpt>
      <trkpt lat="-34.7890274226665496826171875" lon="-59.1233284771442413330078125">
        <ele>28.799999237060546875</ele>
        <time>2020-02-25T09:41:09.000Z</time>
      </trkpt>
      <trkpt lat="-34.788800440728664398193359375" lon="-59.123627208173274993896484375">
        <ele>28.799999237060546875</ele>
        <time>2020-02-25T09:41:22.000Z</time>
      </trkpt>
      <trkpt lat="-34.7885977663099765777587890625" lon="-59.12387363612651824951171875">
        <ele>28.6000003814697265625</ele>
        <time>2020-02-25T09:41:31.000Z</time>
      </trkpt>
      <trkpt lat="-34.78833876550197601318359375" lon="-59.12419022060930728912353515625">
        <ele>28.6000003814697265625</ele>
        <time>2020-02-25T09:41:44.000Z</time>
      </trkpt>
      <trkpt lat="-34.78808068670332431793212890625" lon="-59.12451828829944133758544921875">
        <ele>28.6000003814697265625</ele>
        <time>2020-02-25T09:41:56.000Z</time>
      </trkpt>
      <trkpt lat="-34.7879345901310443878173828125" lon="-59.12470042705535888671875">
        <ele>28.6000003814697265625</ele>
        <time>2020-02-25T09:42:04.000Z</time>
      </trkpt>
      <trkpt lat="-34.78775127790868282318115234375" lon="-59.12492078728973865509033203125">
        <ele>28.6000003814697265625</ele>
        <time>2020-02-25T09:42:13.000Z</time>
      </trkpt>
      <trkpt lat="-34.7875905968248844146728515625" lon="-59.1251228749752044677734375">
        <ele>28.6000003814697265625</ele>
        <time>2020-02-25T09:42:22.000Z</time>
      </trkpt>
      <trkpt lat="-34.78733452968299388885498046875" lon="-59.12545488215982913970947265625">
        <ele>28.3999996185302734375</ele>
        <time>2020-02-25T09:42:35.000Z</time>
      </trkpt>
      <trkpt lat="-34.78717125020921230316162109375" lon="-59.12565336562693119049072265625">
        <ele>28.200000762939453125</ele>
        <time>2020-02-25T09:42:44.000Z</time>
      </trkpt>
      <trkpt lat="-34.786899425089359283447265625" lon="-59.12599149160087108612060546875">
        <ele>28.200000762939453125</ele>
        <time>2020-02-25T09:42:56.000Z</time>
      </trkpt>
      <trkpt lat="-34.7865924797952175140380859375" lon="-59.12637605331838130950927734375">
        <ele>28</ele>
        <time>2020-02-25T09:43:10.000Z</time>
      </trkpt>
      <trkpt lat="-34.7862464748322963714599609375" lon="-59.12680755369365215301513671875">
        <ele>28</ele>
        <time>2020-02-25T09:43:26.000Z</time>
      </trkpt>
      <trkpt lat="-34.78595889173448085784912109375" lon="-59.1271631978452205657958984375">
        <ele>27.799999237060546875</ele>
        <time>2020-02-25T09:43:38.000Z</time>
      </trkpt>
      <trkpt lat="-34.78571422398090362548828125" lon="-59.12747592665255069732666015625">
        <ele>27.799999237060546875</ele>
        <time>2020-02-25T09:43:48.000Z</time>
      </trkpt>
      <trkpt lat="-34.7855983860790729522705078125" lon="-59.127621017396450042724609375">
        <ele>27.799999237060546875</ele>
        <time>2020-02-25T09:43:56.000Z</time>
      </trkpt>
      <trkpt lat="-34.78541960008442401885986328125" lon="-59.12784104235470294952392578125">
        <ele>27.799999237060546875</ele>
        <time>2020-02-25T09:44:04.000Z</time>
      </trkpt>
      <trkpt lat="-34.7852114774286746978759765625" lon="-59.12808964960277080535888671875">
        <ele>27.6000003814697265625</ele>
        <time>2020-02-25T09:44:13.000Z</time>
      </trkpt>
      <trkpt lat="-34.78503906168043613433837890625" lon="-59.128317050635814666748046875">
        <ele>27.799999237060546875</ele>
        <time>2020-02-25T09:44:22.000Z</time>
      </trkpt>
      <trkpt lat="-34.78481560014188289642333984375" lon="-59.128589965403079986572265625">
        <ele>27.6000003814697265625</ele>
        <time>2020-02-25T09:44:31.000Z</time>
      </trkpt>
      <trkpt lat="-34.784636981785297393798828125" lon="-59.1288100741803646087646484375">
        <ele>27.6000003814697265625</ele>
        <time>2020-02-25T09:44:39.000Z</time>
      </trkpt>
      <trkpt lat="-34.7843873687088489532470703125" lon="-59.12911676801741123199462890625">
        <ele>27.3999996185302734375</ele>
        <time>2020-02-25T09:44:50.000Z</time>
      </trkpt>
      <trkpt lat="-34.7842026315629482269287109375" lon="-59.12934727035462856292724609375">
        <ele>27.200000762939453125</ele>
        <time>2020-02-25T09:44:58.000Z</time>
      </trkpt>
      <trkpt lat="-34.78403918445110321044921875" lon="-59.129555560648441314697265625">
        <ele>27.3999996185302734375</ele>
        <time>2020-02-25T09:45:05.000Z</time>
      </trkpt>
      <trkpt lat="-34.78380373679101467132568359375" lon="-59.12985269911587238311767578125">
        <ele>27.200000762939453125</ele>
        <time>2020-02-25T09:45:16.000Z</time>
      </trkpt>
      <trkpt lat="-34.7836809419095516204833984375" lon="-59.13000877015292644500732421875">
        <ele>27.200000762939453125</ele>
        <time>2020-02-25T09:45:22.000Z</time>
      </trkpt>
      <trkpt lat="-34.78343434631824493408203125" lon="-59.1303047351539134979248046875">
        <ele>27</ele>
        <time>2020-02-25T09:45:33.000Z</time>
      </trkpt>
      <trkpt lat="-34.78327433578670024871826171875" lon="-59.13050129078328609466552734375">
        <ele>27</ele>
        <time>2020-02-25T09:45:41.000Z</time>
      </trkpt>
      <trkpt lat="-34.78306713514029979705810546875" lon="-59.1307627223432064056396484375">
        <ele>27.200000762939453125</ele>
        <time>2020-02-25T09:45:51.000Z</time>
      </trkpt>
      <trkpt lat="-34.78289522230625152587890625" lon="-59.13097746670246124267578125">
        <ele>27.200000762939453125</ele>
        <time>2020-02-25T09:46:00.000Z</time>
      </trkpt>
      <trkpt lat="-34.78265323676168918609619140625" lon="-59.1312785446643829345703125">
        <ele>27.200000762939453125</ele>
        <time>2020-02-25T09:46:12.000Z</time>
      </trkpt>
      <trkpt lat="-34.7823589481413364410400390625" lon="-59.1316515393555164337158203125">
        <ele>27</ele>
        <time>2020-02-25T09:46:26.000Z</time>
      </trkpt>
      <trkpt lat="-34.78213456459343433380126953125" lon="-59.13192453794181346893310546875">
        <ele>26.799999237060546875</ele>
        <time>2020-02-25T09:46:37.000Z</time>
      </trkpt>
      <trkpt lat="-34.7819331474602222442626953125" lon="-59.13217800669372081756591796875">
        <ele>26.799999237060546875</ele>
        <time>2020-02-25T09:46:47.000Z</time>
      </trkpt>
      <trkpt lat="-34.78165495209395885467529296875" lon="-59.13252334110438823699951171875">
        <ele>26.799999237060546875</ele>
        <time>2020-02-25T09:47:00.000Z</time>
      </trkpt>
      <trkpt lat="-34.7814362682402133941650390625" lon="-59.1328042186796665191650390625">
        <ele>26.799999237060546875</ele>
        <time>2020-02-25T09:47:10.000Z</time>
      </trkpt>
      <trkpt lat="-34.78129905648529529571533203125" lon="-59.13297680206596851348876953125">
        <ele>27</ele>
        <time>2020-02-25T09:47:17.000Z</time>
      </trkpt>
      <trkpt lat="-34.7812408022582530975341796875" lon="-59.133051820099353790283203125">
        <ele>26.799999237060546875</ele>
        <time>2020-02-25T09:47:23.000Z</time>
      </trkpt>
      <trkpt lat="-34.78122110478579998016357421875" lon="-59.1330764628946781158447265625">
        <ele>26.799999237060546875</ele>
        <time>2020-02-25T09:47:30.000Z</time>
      </trkpt>
      <trkpt lat="-34.78121808730065822601318359375" lon="-59.13308057002723217010498046875">
        <ele>26.799999237060546875</ele>
        <time>2020-02-25T09:47:39.000Z</time>
      </trkpt>
      <trkpt lat="-34.7812066040933132171630859375" lon="-59.13309582509100437164306640625">
        <ele>26.799999237060546875</ele>
        <time>2020-02-25T09:47:51.000Z</time>
      </trkpt>
      <trkpt lat="-34.78119009174406528472900390625" lon="-59.13311711512506008148193359375">
        <ele>26.799999237060546875</ele>
        <time>2020-02-25T09:47:52.000Z</time>
      </trkpt>
      <trkpt lat="-34.7811050154268741607666015625" lon="-59.13322725333273410797119140625">
        <ele>27</ele>
        <time>2020-02-25T09:47:59.000Z</time>
      </trkpt>
      <trkpt lat="-34.78100686334073543548583984375" lon="-59.133339487016201019287109375">
        <ele>27</ele>
        <time>2020-02-25T09:48:05.000Z</time>
      </trkpt>
      <trkpt lat="-34.780798740684986114501953125" lon="-59.13359605707228183746337890625">
        <ele>26.799999237060546875</ele>
        <time>2020-02-25T09:48:16.000Z</time>
      </trkpt>
      <trkpt lat="-34.7805672325193881988525390625" lon="-59.13387869484722614288330078125">
        <ele>26.799999237060546875</ele>
        <time>2020-02-25T09:48:27.000Z</time>
      </trkpt>
      <trkpt lat="-34.7802996821701526641845703125" lon="-59.13421028293669223785400390625">
        <ele>26.799999237060546875</ele>
        <time>2020-02-25T09:48:39.000Z</time>
      </trkpt>
      <trkpt lat="-34.7800636477768421173095703125" lon="-59.1345111094415187835693359375">
        <ele>26.6000003814697265625</ele>
        <time>2020-02-25T09:48:49.000Z</time>
      </trkpt>
      <trkpt lat="-34.77976734749972820281982421875" lon="-59.13488267920911312103271484375">
        <ele>26.799999237060546875</ele>
        <time>2020-02-25T09:49:02.000Z</time>
      </trkpt>
      <trkpt lat="-34.77953030727803707122802734375" lon="-59.13518878631293773651123046875">
        <ele>26.6000003814697265625</ele>
        <time>2020-02-25T09:49:12.000Z</time>
      </trkpt>
      <trkpt lat="-34.7792908363044261932373046875" lon="-59.1355323605239391326904296875">
        <ele>26.6000003814697265625</ele>
        <time>2020-02-25T09:49:22.000Z</time>
      </trkpt>
      <trkpt lat="-34.779150187969207763671875" lon="-59.13575121201574802398681640625">
        <ele>26.6000003814697265625</ele>
        <time>2020-02-25T09:49:30.000Z</time>
      </trkpt>
      <trkpt lat="-34.77906611748039722442626953125" lon="-59.1358847357332706451416015625">
        <ele>26.6000003814697265625</ele>
        <time>2020-02-25T09:49:34.000Z</time>
      </trkpt>
      <trkpt lat="-34.7789270617067813873291015625" lon="-59.13610727526247501373291015625">
        <ele>26.799999237060546875</ele>
        <time>2020-02-25T09:49:41.000Z</time>
      </trkpt>
      <trkpt lat="-34.7787627764046192169189453125" lon="-59.1363993845880031585693359375">
        <ele>26.3999996185302734375</ele>
        <time>2020-02-25T09:49:49.000Z</time>
      </trkpt>
      <trkpt lat="-34.77854141034185886383056640625" lon="-59.13681487552821636199951171875">
        <ele>26.799999237060546875</ele>
        <time>2020-02-25T09:50:01.000Z</time>
      </trkpt>
      <trkpt lat="-34.77833169512450695037841796875" lon="-59.137258194386959075927734375">
        <ele>26.6000003814697265625</ele>
        <time>2020-02-25T09:50:14.000Z</time>
      </trkpt>
      <trkpt lat="-34.77816355414688587188720703125" lon="-59.13765038363635540008544921875">
        <ele>26.6000003814697265625</ele>
        <time>2020-02-25T09:50:25.000Z</time>
      </trkpt>
      <trkpt lat="-34.77808794938027858734130859375" lon="-59.1378404013812541961669921875">
        <ele>26.6000003814697265625</ele>
        <time>2020-02-25T09:50:31.000Z</time>
      </trkpt>
      <trkpt lat="-34.7779284417629241943359375" lon="-59.13825027644634246826171875">
        <ele>26.3999996185302734375</ele>
        <time>2020-02-25T09:50:42.000Z</time>
      </trkpt>
      <trkpt lat="-34.7777998633682727813720703125" lon="-59.138613380491733551025390625">
        <ele>26.3999996185302734375</ele>
        <time>2020-02-25T09:50:53.000Z</time>
      </trkpt>
      <trkpt lat="-34.77767296135425567626953125" lon="-59.13898109458386898040771484375">
        <ele>26.3999996185302734375</ele>
        <time>2020-02-25T09:51:03.000Z</time>
      </trkpt>
      <trkpt lat="-34.77752367965877056121826171875" lon="-59.1394068114459514617919921875">
        <ele>26.6000003814697265625</ele>
        <time>2020-02-25T09:51:14.000Z</time>
      </trkpt>
      <trkpt lat="-34.77734573185443878173828125" lon="-59.139908216893672943115234375">
        <ele>26.3999996185302734375</ele>
        <time>2020-02-25T09:51:27.000Z</time>
      </trkpt>
      <trkpt lat="-34.777228049933910369873046875" lon="-59.14025799371302127838134765625">
        <ele>26.3999996185302734375</ele>
        <time>2020-02-25T09:51:36.000Z</time>
      </trkpt>
      <trkpt lat="-34.7770555503666400909423828125" lon="-59.1407462395727634429931640625">
        <ele>26.3999996185302734375</ele>
        <time>2020-02-25T09:51:49.000Z</time>
      </trkpt>
      <trkpt lat="-34.7769576497375965118408203125" lon="-59.14102409966289997100830078125">
        <ele>26.3999996185302734375</ele>
        <time>2020-02-25T09:51:58.000Z</time>
      </trkpt>
      <trkpt lat="-34.7768403030931949615478515625" lon="-59.1413463838398456573486328125">
        <ele>26.3999996185302734375</ele>
        <time>2020-02-25T09:52:07.000Z</time>
      </trkpt>
      <trkpt lat="-34.7767162509262561798095703125" lon="-59.141701273620128631591796875">
        <ele>26.200000762939453125</ele>
        <time>2020-02-25T09:52:16.000Z</time>
      </trkpt>
      <trkpt lat="-34.7767162509262561798095703125" lon="-59.141701273620128631591796875">
        <ele>26.200000762939453125</ele>
        <time>2020-02-25T09:52:17.000Z</time>
      </trkpt>
      <trkpt lat="-34.77659203112125396728515625" lon="-59.14207451976835727691650390625">
        <ele>26.200000762939453125</ele>
        <time>2020-02-25T09:52:27.000Z</time>
      </trkpt>
      <trkpt lat="-34.776449538767337799072265625" lon="-59.14247819222509860992431640625">
        <ele>26.200000762939453125</ele>
        <time>2020-02-25T09:52:38.000Z</time>
      </trkpt>
      <trkpt lat="-34.77630411274731159210205078125" lon="-59.1428842954337596893310546875">
        <ele>26</ele>
        <time>2020-02-25T09:52:49.000Z</time>
      </trkpt>
      <trkpt lat="-34.77613873779773712158203125" lon="-59.14336717687547206878662109375">
        <ele>26</ele>
        <time>2020-02-25T09:53:02.000Z</time>
      </trkpt>
      <trkpt lat="-34.77599565871059894561767578125" lon="-59.14379800669848918914794921875">
        <ele>26</ele>
        <time>2020-02-25T09:53:14.000Z</time>
      </trkpt>
      <trkpt lat="-34.7759119234979152679443359375" lon="-59.14400897920131683349609375">
        <ele>26</ele>
        <time>2020-02-25T09:53:20.000Z</time>
      </trkpt>
      <trkpt lat="-34.77578845806419849395751953125" lon="-59.14436629973351955413818359375">
        <ele>26</ele>
        <time>2020-02-25T09:53:30.000Z</time>
      </trkpt>
      <trkpt lat="-34.775716625154018402099609375" lon="-59.14457769133150577545166015625">
        <ele>26</ele>
        <time>2020-02-25T09:53:36.000Z</time>
      </trkpt>
      <trkpt lat="-34.77562383748590946197509765625" lon="-59.1448317468166351318359375">
        <ele>26</ele>
        <time>2020-02-25T09:53:46.000Z</time>
      </trkpt>
      <trkpt lat="-34.775615371763706207275390625" lon="-59.14485529996454715728759765625">
        <ele>26</ele>
        <time>2020-02-25T09:53:53.000Z</time>
      </trkpt>
      <trkpt lat="-34.7756152041256427764892578125" lon="-59.1448553837835788726806640625">
        <ele>26</ele>
        <time>2020-02-25T09:54:10.000Z</time>
      </trkpt>
      <trkpt lat="-34.7756121866405010223388671875" lon="-59.14486586116254329681396484375">
        <ele>26</ele>
        <time>2020-02-25T09:54:24.000Z</time>
      </trkpt>
      <trkpt lat="-34.77560858242213726043701171875" lon="-59.14487809874117374420166015625">
        <ele>26</ele>
        <time>2020-02-25T09:54:26.000Z</time>
      </trkpt>
      <trkpt lat="-34.775571785867214202880859375" lon="-59.14499628357589244842529296875">
        <ele>25.799999237060546875</ele>
        <time>2020-02-25T09:54:32.000Z</time>
      </trkpt>
      <trkpt lat="-34.77547086775302886962890625" lon="-59.1452701203525066375732421875">
        <ele>25.799999237060546875</ele>
        <time>2020-02-25T09:54:41.000Z</time>
      </trkpt>
      <trkpt lat="-34.7753811813890933990478515625" lon="-59.14552484638988971710205078125">
        <ele>25.799999237060546875</ele>
        <time>2020-02-25T09:54:48.000Z</time>
      </trkpt>
      <trkpt lat="-34.77525520138442516326904296875" lon="-59.14587755687534809112548828125">
        <ele>25.799999237060546875</ele>
        <time>2020-02-25T09:54:58.000Z</time>
      </trkpt>
      <trkpt lat="-34.77511413395404815673828125" lon="-59.14630436338484287261962890625">
        <ele>25.799999237060546875</ele>
        <time>2020-02-25T09:55:10.000Z</time>
      </trkpt>
      <trkpt lat="-34.7750019840896129608154296875" lon="-59.14664735086262226104736328125">
        <ele>25.799999237060546875</ele>
        <time>2020-02-25T09:55:19.000Z</time>
      </trkpt>
      <trkpt lat="-34.7748336754739284515380859375" lon="-59.1471352614462375640869140625">
        <ele>25.6000003814697265625</ele>
        <time>2020-02-25T09:55:31.000Z</time>
      </trkpt>
      <trkpt lat="-34.77471582591533660888671875" lon="-59.1474577970802783966064453125">
        <ele>25.6000003814697265625</ele>
        <time>2020-02-25T09:55:39.000Z</time>
      </trkpt>
      <trkpt lat="-34.774573333561420440673828125" lon="-59.1478239186108112335205078125">
        <ele>25.799999237060546875</ele>
        <time>2020-02-25T09:55:48.000Z</time>
      </trkpt>
      <trkpt lat="-34.77444081567227840423583984375" lon="-59.14822130464017391204833984375">
        <ele>25.6000003814697265625</ele>
        <time>2020-02-25T09:55:58.000Z</time>
      </trkpt>
      <trkpt lat="-34.77430368773639202117919921875" lon="-59.1486203670501708984375">
        <ele>26</ele>
        <time>2020-02-25T09:56:08.000Z</time>
      </trkpt>
      <trkpt lat="-34.7741527296602725982666015625" lon="-59.1490607522428035736083984375">
        <ele>25.799999237060546875</ele>
        <time>2020-02-25T09:56:19.000Z</time>
      </trkpt>
      <trkpt lat="-34.7740746103227138519287109375" lon="-59.14929888211190700531005859375">
        <ele>26</ele>
        <time>2020-02-25T09:56:26.000Z</time>
      </trkpt>
      <trkpt lat="-34.7739773802459239959716796875" lon="-59.1495606489479541778564453125">
        <ele>26</ele>
        <time>2020-02-25T09:56:34.000Z</time>
      </trkpt>
      <trkpt lat="-34.773895405232906341552734375" lon="-59.1497842781245708465576171875">
        <ele>25.799999237060546875</ele>
        <time>2020-02-25T09:56:41.000Z</time>
      </trkpt>
      <trkpt lat="-34.7737755440175533294677734375" lon="-59.15011913515627384185791015625">
        <ele>25.799999237060546875</ele>
        <time>2020-02-25T09:56:50.000Z</time>
      </trkpt>
      <trkpt lat="-34.77364956401288509368896484375" lon="-59.15049347095191478729248046875">
        <ele>25.799999237060546875</ele>
        <time>2020-02-25T09:57:00.000Z</time>
      </trkpt>
      <trkpt lat="-34.77350941859185695648193359375" lon="-59.15088591165840625762939453125">
        <ele>26</ele>
        <time>2020-02-25T09:57:11.000Z</time>
      </trkpt>
      <trkpt lat="-34.77341470308601856231689453125" lon="-59.15115840733051300048828125">
        <ele>26</ele>
        <time>2020-02-25T09:57:19.000Z</time>
      </trkpt>
      <trkpt lat="-34.7733262740075588226318359375" lon="-59.151409529149532318115234375">
        <ele>25.799999237060546875</ele>
        <time>2020-02-25T09:57:27.000Z</time>
      </trkpt>
      <trkpt lat="-34.7732458077371120452880859375" lon="-59.15165059268474578857421875">
        <ele>25.799999237060546875</ele>
        <time>2020-02-25T09:57:35.000Z</time>
      </trkpt>
      <trkpt lat="-34.7731405310332775115966796875" lon="-59.15192493237555027008056640625">
        <ele>26</ele>
        <time>2020-02-25T09:57:44.000Z</time>
      </trkpt>
      <trkpt lat="-34.7730308957397937774658203125" lon="-59.15223137475550174713134765625">
        <ele>26</ele>
        <time>2020-02-25T09:57:53.000Z</time>
      </trkpt>
      <trkpt lat="-34.7729138843715190887451171875" lon="-59.1525824926793575286865234375">
        <ele>26</ele>
        <time>2020-02-25T09:58:03.000Z</time>
      </trkpt>
      <trkpt lat="-34.772797711193561553955078125" lon="-59.15290720760822296142578125">
        <ele>26.200000762939453125</ele>
        <time>2020-02-25T09:58:13.000Z</time>
      </trkpt>
      <trkpt lat="-34.7726795263588428497314453125" lon="-59.15324022062122821807861328125">
        <ele>26</ele>
        <time>2020-02-25T09:58:23.000Z</time>
      </trkpt>
      <trkpt lat="-34.77256561629474163055419921875" lon="-59.15353543125092983245849609375">
        <ele>26</ele>
        <time>2020-02-25T09:58:32.000Z</time>
      </trkpt>
      <trkpt lat="-34.772474505007266998291015625" lon="-59.15379024110734462738037109375">
        <ele>26</ele>
        <time>2020-02-25T09:58:40.000Z</time>
      </trkpt>
      <trkpt lat="-34.77233528159558773040771484375" lon="-59.1541790775954723358154296875">
        <ele>26</ele>
        <time>2020-02-25T09:58:51.000Z</time>
      </trkpt>
      <trkpt lat="-34.77223369292914867401123046875" lon="-59.15449365042150020599365234375">
        <ele>26</ele>
        <time>2020-02-25T09:59:00.000Z</time>
      </trkpt>
      <trkpt lat="-34.77213260717689990997314453125" lon="-59.154765643179416656494140625">
        <ele>26</ele>
        <time>2020-02-25T09:59:08.000Z</time>
      </trkpt>
      <trkpt lat="-34.7720009274780750274658203125" lon="-59.155157916247844696044921875">
        <ele>26</ele>
        <time>2020-02-25T09:59:19.000Z</time>
      </trkpt>
      <trkpt lat="-34.7718805633485317230224609375" lon="-59.1554970480501651763916015625">
        <ele>25.799999237060546875</ele>
        <time>2020-02-25T09:59:29.000Z</time>
      </trkpt>
      <trkpt lat="-34.7717860154807567596435546875" lon="-59.15577071718871593475341796875">
        <ele>25.6000003814697265625</ele>
        <time>2020-02-25T09:59:37.000Z</time>
      </trkpt>
      <trkpt lat="-34.7717003524303436279296875" lon="-59.1560019738972187042236328125">
        <ele>25.6000003814697265625</ele>
        <time>2020-02-25T09:59:45.000Z</time>
      </trkpt>
      <trkpt lat="-34.77164645679295063018798828125" lon="-59.15614756755530834197998046875">
        <ele>25.6000003814697265625</ele>
        <time>2020-02-25T09:59:52.000Z</time>
      </trkpt>
      <trkpt lat="-34.7716462053358554840087890625" lon="-59.15614463388919830322265625">
        <ele>25.6000003814697265625</ele>
        <time>2020-02-25T10:00:00.000Z</time>
      </trkpt>
      <trkpt lat="-34.77164612151682376861572265625" lon="-59.1561454720795154571533203125">
        <ele>25.3999996185302734375</ele>
        <time>2020-02-25T10:00:26.000Z</time>
      </trkpt>
      <trkpt lat="-34.77164679206907749176025390625" lon="-59.1561444662511348724365234375">
        <ele>25.3999996185302734375</ele>
        <time>2020-02-25T10:00:38.000Z</time>
      </trkpt>
      <trkpt lat="-34.77164779789745807647705078125" lon="-59.1561437956988811492919921875">
        <ele>25.200000762939453125</ele>
        <time>2020-02-25T10:01:02.000Z</time>
      </trkpt>
      <trkpt lat="-34.771647714078426361083984375" lon="-59.156143628060817718505859375">
        <ele>25.200000762939453125</ele>
        <time>2020-02-25T10:01:03.000Z</time>
      </trkpt>
      <trkpt lat="-34.77164712734520435333251953125" lon="-59.15614471770823001861572265625">
        <ele>25</ele>
        <time>2020-02-25T10:01:17.000Z</time>
      </trkpt>
      <trkpt lat="-34.77165165357291698455810546875" lon="-59.15614463388919830322265625">
        <ele>24.799999237060546875</ele>
        <time>2020-02-25T10:01:47.000Z</time>
      </trkpt>
      <trkpt lat="-34.77165081538259983062744140625" lon="-59.15615259669721126556396484375">
        <ele>25</ele>
        <time>2020-02-25T10:01:54.000Z</time>
      </trkpt>
      <trkpt lat="-34.77165140211582183837890625" lon="-59.15615444071590900421142578125">
        <ele>25.200000762939453125</ele>
        <time>2020-02-25T10:02:06.000Z</time>
      </trkpt>
      <trkpt lat="-34.7716522403061389923095703125" lon="-59.15615477599203586578369140625">
        <ele>25.200000762939453125</ele>
        <time>2020-02-25T10:02:23.000Z</time>
      </trkpt>
      <trkpt lat="-34.771653078496456146240234375" lon="-59.1561535187065601348876953125">
        <ele>25.200000762939453125</ele>
        <time>2020-02-25T10:03:01.000Z</time>
      </trkpt>
      <trkpt lat="-34.771653749048709869384765625" lon="-59.15615309961140155792236328125">
        <ele>25.200000762939453125</ele>
        <time>2020-02-25T10:03:24.000Z</time>
      </trkpt>
      <trkpt lat="-34.7716542519629001617431640625" lon="-59.1561521776020526885986328125">
        <ele>25.200000762939453125</ele>
        <time>2020-02-25T10:04:01.000Z</time>
      </trkpt>
      <trkpt lat="-34.771655760705471038818359375" lon="-59.156151004135608673095703125">
        <ele>25.200000762939453125</ele>
        <time>2020-02-25T10:04:41.000Z</time>
      </trkpt>
      <trkpt lat="-34.77165651507675647735595703125" lon="-59.15615075267851352691650390625">
        <ele>25.200000762939453125</ele>
        <time>2020-02-25T10:05:07.000Z</time>
      </trkpt>
      <trkpt lat="-34.771656431257724761962890625" lon="-59.15614924393594264984130859375">
        <ele>25.200000762939453125</ele>
        <time>2020-02-25T10:05:40.000Z</time>
      </trkpt>
      <trkpt lat="-34.77165634743869304656982421875" lon="-59.156148992478847503662109375">
        <ele>25.200000762939453125</ele>
        <time>2020-02-25T10:06:17.000Z</time>
      </trkpt>
      <trkpt lat="-34.771657772362232208251953125" lon="-59.15614874102175235748291015625">
        <ele>25.200000762939453125</ele>
        <time>2020-02-25T10:06:49.000Z</time>
      </trkpt>
      <trkpt lat="-34.77165877819061279296875" lon="-59.1561481542885303497314453125">
        <ele>25.200000762939453125</ele>
        <time>2020-02-25T10:07:26.000Z</time>
      </trkpt>
      <trkpt lat="-34.7716586105525493621826171875" lon="-59.15614790283143520355224609375">
        <ele>25.200000762939453125</ele>
        <time>2020-02-25T10:07:38.000Z</time>
      </trkpt>
      <trkpt lat="-34.77165886200964450836181640625" lon="-59.156147651374340057373046875">
        <ele>25.200000762939453125</ele>
        <time>2020-02-25T10:07:58.000Z</time>
      </trkpt>
      <trkpt lat="-34.77165936492383480072021484375" lon="-59.15614605881273746490478515625">
        <ele>25.200000762939453125</ele>
        <time>2020-02-25T10:08:33.000Z</time>
      </trkpt>
      <trkpt lat="-34.771660454571247100830078125" lon="-59.15614488534629344940185546875">
        <ele>25.200000762939453125</ele>
        <time>2020-02-25T10:09:14.000Z</time>
      </trkpt>
      <trkpt lat="-34.7716606222093105316162109375" lon="-59.1561453044414520263671875">
        <ele>25.200000762939453125</ele>
        <time>2020-02-25T10:09:52.000Z</time>
      </trkpt>
      <trkpt lat="-34.77166037075221538543701171875" lon="-59.15614455007016658782958984375">
        <ele>25.200000762939453125</ele>
        <time>2020-02-25T10:10:28.000Z</time>
      </trkpt>
      <trkpt lat="-34.77166104130446910858154296875" lon="-59.1561441309750080108642578125">
        <ele>25.200000762939453125</ele>
        <time>2020-02-25T10:11:09.000Z</time>
      </trkpt>
      <trkpt lat="-34.7716612927615642547607421875" lon="-59.1561437956988811492919921875">
        <ele>25.200000762939453125</ele>
        <time>2020-02-25T10:12:03.000Z</time>
      </trkpt>
      <trkpt lat="-34.77166087366640567779541015625" lon="-59.156144298613071441650390625">
        <ele>25.200000762939453125</ele>
        <time>2020-02-25T10:12:29.000Z</time>
      </trkpt>
      <trkpt lat="-34.77166078984737396240234375" lon="-59.15614471770823001861572265625">
        <ele>25.200000762939453125</ele>
        <time>2020-02-25T10:13:01.000Z</time>
      </trkpt>
      <trkpt lat="-34.77166255004703998565673828125" lon="-59.156143963336944580078125">
        <ele>25.200000762939453125</ele>
        <time>2020-02-25T10:13:25.000Z</time>
      </trkpt>
      <trkpt lat="-34.77166204713284969329833984375" lon="-59.15614287368953227996826171875">
        <ele>25.200000762939453125</ele>
        <time>2020-02-25T10:13:57.000Z</time>
      </trkpt>
      <trkpt lat="-34.77166389115154743194580078125" lon="-59.1561426222324371337890625">
        <ele>25.200000762939453125</ele>
        <time>2020-02-25T10:14:40.000Z</time>
      </trkpt>
      <trkpt lat="-34.77166347205638885498046875" lon="-59.1561417840421199798583984375">
        <ele>25.200000762939453125</ele>
        <time>2020-02-25T10:15:04.000Z</time>
      </trkpt>
      <trkpt lat="-34.77166372351348400115966796875" lon="-59.15614195168018341064453125">
        <ele>25.200000762939453125</ele>
        <time>2020-02-25T10:15:22.000Z</time>
      </trkpt>
      <trkpt lat="-34.771664142608642578125" lon="-59.1561421193182468414306640625">
        <ele>25.200000762939453125</ele>
        <time>2020-02-25T10:15:48.000Z</time>
      </trkpt>
      <trkpt lat="-34.7716643102467060089111328125" lon="-59.156142286956310272216796875">
        <ele>25.200000762939453125</ele>
        <time>2020-02-25T10:16:10.000Z</time>
      </trkpt>
      <trkpt lat="-34.77166472934186458587646484375" lon="-59.15614237077534198760986328125">
        <ele>25.200000762939453125</ele>
        <time>2020-02-25T10:16:45.000Z</time>
      </trkpt>
      <trkpt lat="-34.7716646455228328704833984375" lon="-59.1561421193182468414306640625">
        <ele>25.200000762939453125</ele>
        <time>2020-02-25T10:17:10.000Z</time>
      </trkpt>
      <trkpt lat="-34.77166472934186458587646484375" lon="-59.15614287368953227996826171875">
        <ele>25.200000762939453125</ele>
        <time>2020-02-25T10:17:43.000Z</time>
      </trkpt>
      <trkpt lat="-34.77166539989411830902099609375" lon="-59.15614329278469085693359375">
        <ele>25.200000762939453125</ele>
        <time>2020-02-25T10:18:05.000Z</time>
      </trkpt>
      <trkpt lat="-34.77166607044637203216552734375" lon="-59.15614304132759571075439453125">
        <ele>25.200000762939453125</ele>
        <time>2020-02-25T10:18:27.000Z</time>
      </trkpt>
      <trkpt lat="-34.77166657336056232452392578125" lon="-59.15614572353661060333251953125">
        <ele>25.200000762939453125</ele>
        <time>2020-02-25T10:18:49.000Z</time>
      </trkpt>
      <trkpt lat="-34.77166322059929370880126953125" lon="-59.15616064332425594329833984375">
        <ele>25.200000762939453125</ele>
        <time>2020-02-25T10:18:51.000Z</time>
      </trkpt>
      <trkpt lat="-34.77164804935455322265625" lon="-59.15624312125146389007568359375">
        <ele>25</ele>
        <time>2020-02-25T10:18:56.000Z</time>
      </trkpt>
      <trkpt lat="-34.77164595387876033782958984375" lon="-59.15626491419970989227294921875">
        <ele>24</ele>
        <time>2020-02-25T10:18:58.000Z</time>
      </trkpt>
      <trkpt lat="-34.77158761583268642425537109375" lon="-59.1564086638391017913818359375">
        <ele>23.3999996185302734375</ele>
        <time>2020-02-25T10:19:03.000Z</time>
      </trkpt>
      <trkpt lat="-34.7715099155902862548828125" lon="-59.15661795996129512786865234375">
        <ele>23.3999996185302734375</ele>
        <time>2020-02-25T10:19:10.000Z</time>
      </trkpt>
      <trkpt lat="-34.77137940935790538787841796875" lon="-59.15698072873055934906005859375">
        <ele>23.3999996185302734375</ele>
        <time>2020-02-25T10:19:21.000Z</time>
      </trkpt>
      <trkpt lat="-34.77125837467610836029052734375" lon="-59.15732405148446559906005859375">
        <ele>23.3999996185302734375</ele>
        <time>2020-02-25T10:19:31.000Z</time>
      </trkpt>
      <trkpt lat="-34.7711121104657649993896484375" lon="-59.157750606536865234375">
        <ele>23.3999996185302734375</ele>
        <time>2020-02-25T10:19:43.000Z</time>
      </trkpt>
      <trkpt lat="-34.77095562033355236053466796875" lon="-59.15818847715854644775390625">
        <ele>23.6000003814697265625</ele>
        <time>2020-02-25T10:19:56.000Z</time>
      </trkpt>
      <trkpt lat="-34.77084447629749774932861328125" lon="-59.15852316655218601226806640625">
        <ele>23.3999996185302734375</ele>
        <time>2020-02-25T10:20:04.000Z</time>
      </trkpt>
      <trkpt lat="-34.77068714797496795654296875" lon="-59.15897729806602001190185546875">
        <ele>23.3999996185302734375</ele>
        <time>2020-02-25T10:20:16.000Z</time>
      </trkpt>
      <trkpt lat="-34.77054524235427379608154296875" lon="-59.1593896038830280303955078125">
        <ele>23.3999996185302734375</ele>
        <time>2020-02-25T10:20:27.000Z</time>
      </trkpt>
      <trkpt lat="-34.77038003504276275634765625" lon="-59.1596457548439502716064453125">
        <ele>23.3999996185302734375</ele>
        <time>2020-02-25T10:20:35.000Z</time>
      </trkpt>
      <trkpt lat="-34.77021415717899799346923828125" lon="-59.159689508378505706787109375">
        <ele>23.3999996185302734375</ele>
        <time>2020-02-25T10:20:42.000Z</time>
      </trkpt>
      <trkpt lat="-34.77003310807049274444580078125" lon="-59.1596313379704952239990234375">
        <ele>23.3999996185302734375</ele>
        <time>2020-02-25T10:20:49.000Z</time>
      </trkpt>
      <trkpt lat="-34.76985474117100238800048828125" lon="-59.15948356501758098602294921875">
        <ele>23.6000003814697265625</ele>
        <time>2020-02-25T10:20:57.000Z</time>
      </trkpt>
      <trkpt lat="-34.76956824772059917449951171875" lon="-59.15924652479588985443115234375">
        <ele>23.6000003814697265625</ele>
        <time>2020-02-25T10:21:07.000Z</time>
      </trkpt>
      <trkpt lat="-34.76937881670892238616943359375" lon="-59.15909213013947010040283203125">
        <ele>23.6000003814697265625</ele>
        <time>2020-02-25T10:21:14.000Z</time>
      </trkpt>
      <trkpt lat="-34.7690464742481708526611328125" lon="-59.1588172875344753265380859375">
        <ele>23.3999996185302734375</ele>
        <time>2020-02-25T10:21:23.000Z</time>
      </trkpt>
      <trkpt lat="-34.76857901550829410552978515625" lon="-59.15844731032848358154296875">
        <ele>23.6000003814697265625</ele>
        <time>2020-02-25T10:21:36.000Z</time>
      </trkpt>
      <trkpt lat="-34.76813259534537792205810546875" lon="-59.15810859762132167816162109375">
        <ele>23.6000003814697265625</ele>
        <time>2020-02-25T10:21:48.000Z</time>
      </trkpt>
      <trkpt lat="-34.76766832172870635986328125" lon="-59.1578044183552265167236328125">
        <ele>23.6000003814697265625</ele>
        <time>2020-02-25T10:22:00.000Z</time>
      </trkpt>
      <trkpt lat="-34.76715333759784698486328125" lon="-59.15747241117060184478759765625">
        <ele>23.3999996185302734375</ele>
        <time>2020-02-25T10:22:13.000Z</time>
      </trkpt>
      <trkpt lat="-34.7671136073768138885498046875" lon="-59.15744760073721408843994140625">
        <ele>23.3999996185302734375</ele>
        <time>2020-02-25T10:22:14.000Z</time>
      </trkpt>
      <trkpt lat="-34.7666653431951999664306640625" lon="-59.15716588497161865234375">
        <ele>23.3999996185302734375</ele>
        <time>2020-02-25T10:22:25.000Z</time>
      </trkpt>
      <trkpt lat="-34.76616435684263706207275390625" lon="-59.1568488813936710357666015625">
        <ele>23.200000762939453125</ele>
        <time>2020-02-25T10:22:37.000Z</time>
      </trkpt>
      <trkpt lat="-34.76608137600123882293701171875" lon="-59.156793393194675445556640625">
        <ele>23</ele>
        <time>2020-02-25T10:22:39.000Z</time>
      </trkpt>
      <trkpt lat="-34.7656132467091083526611328125" lon="-59.15649407543241977691650390625">
        <ele>23</ele>
        <time>2020-02-25T10:22:50.000Z</time>
      </trkpt>
      <trkpt lat="-34.76557083427906036376953125" lon="-59.15646691806614398956298828125">
        <ele>22.799999237060546875</ele>
        <time>2020-02-25T10:22:51.000Z</time>
      </trkpt>
      <trkpt lat="-34.7651039622724056243896484375" lon="-59.1561699472367763519287109375">
        <ele>22.799999237060546875</ele>
        <time>2020-02-25T10:23:02.000Z</time>
      </trkpt>
      <trkpt lat="-34.76463667117059230804443359375" lon="-59.155874066054821014404296875">
        <ele>22.6000003814697265625</ele>
        <time>2020-02-25T10:23:14.000Z</time>
      </trkpt>
      <trkpt lat="-34.76410374976694583892822265625" lon="-59.1555329225957393646240234375">
        <ele>22.6000003814697265625</ele>
        <time>2020-02-25T10:23:26.000Z</time>
      </trkpt>
      <trkpt lat="-34.7640639357268810272216796875" lon="-59.15550668723881244659423828125">
        <ele>22.6000003814697265625</ele>
        <time>2020-02-25T10:23:27.000Z</time>
      </trkpt>
      <trkpt lat="-34.763618521392345428466796875" lon="-59.155228324234485626220703125">
        <ele>22.799999237060546875</ele>
        <time>2020-02-25T10:23:38.000Z</time>
      </trkpt>
      <trkpt lat="-34.763284586369991302490234375" lon="-59.155019111931324005126953125">
        <ele>22.799999237060546875</ele>
        <time>2020-02-25T10:23:47.000Z</time>
      </trkpt>
      <trkpt lat="-34.76290580816566944122314453125" lon="-59.1547775454819202423095703125">
        <ele>22.799999237060546875</ele>
        <time>2020-02-25T10:23:55.000Z</time>
      </trkpt>
      <trkpt lat="-34.76240607909858226776123046875" lon="-59.15446163155138492584228515625">
        <ele>22.799999237060546875</ele>
        <time>2020-02-25T10:24:07.000Z</time>
      </trkpt>
      <trkpt lat="-34.762280769646167755126953125" lon="-59.15438150055706501007080078125">
        <ele>22.799999237060546875</ele>
        <time>2020-02-25T10:24:10.000Z</time>
      </trkpt>
      <trkpt lat="-34.76190333254635334014892578125" lon="-59.1541388444602489471435546875">
        <ele>22.799999237060546875</ele>
        <time>2020-02-25T10:24:19.000Z</time>
      </trkpt>
      <trkpt lat="-34.7614467702805995941162109375" lon="-59.15385176427662372589111328125">
        <ele>22.799999237060546875</ele>
        <time>2020-02-25T10:24:30.000Z</time>
      </trkpt>
      <trkpt lat="-34.76103882305324077606201171875" lon="-59.1535933502018451690673828125">
        <ele>22.799999237060546875</ele>
        <time>2020-02-25T10:24:40.000Z</time>
      </trkpt>
      <trkpt lat="-34.76054764352738857269287109375" lon="-59.15327793918550014495849609375">
        <ele>22.6000003814697265625</ele>
        <time>2020-02-25T10:24:52.000Z</time>
      </trkpt>
      <trkpt lat="-34.76009082980453968048095703125" lon="-59.1529898531734943389892578125">
        <ele>22.3999996185302734375</ele>
        <time>2020-02-25T10:25:04.000Z</time>
      </trkpt>
      <trkpt lat="-34.759727306663990020751953125" lon="-59.15276496671140193939208984375">
        <ele>22.3999996185302734375</ele>
        <time>2020-02-25T10:25:12.000Z</time>
      </trkpt>
      <trkpt lat="-34.75921710021793842315673828125" lon="-59.15244293399155139923095703125">
        <ele>22.3999996185302734375</ele>
        <time>2020-02-25T10:25:25.000Z</time>
      </trkpt>
      <trkpt lat="-34.75921710021793842315673828125" lon="-59.15244293399155139923095703125">
        <ele>22.3999996185302734375</ele>
        <time>2020-02-25T10:25:26.000Z</time>
      </trkpt>
      <trkpt lat="-34.758786521852016448974609375" lon="-59.15217437781393527984619140625">
        <ele>22.799999237060546875</ele>
        <time>2020-02-25T10:25:37.000Z</time>
      </trkpt>
      <trkpt lat="-34.75826441310346126556396484375" lon="-59.15184446610510349273681640625">
        <ele>22.6000003814697265625</ele>
        <time>2020-02-25T10:25:49.000Z</time>
      </trkpt>
      <trkpt lat="-34.75777122192084789276123046875" lon="-59.15153819136321544647216796875">
        <ele>22.799999237060546875</ele>
        <time>2020-02-25T10:26:02.000Z</time>
      </trkpt>
      <trkpt lat="-34.75726562552154064178466796875" lon="-59.1512195952236652374267578125">
        <ele>22.6000003814697265625</ele>
        <time>2020-02-25T10:26:13.000Z</time>
      </trkpt>
      <trkpt lat="-34.75676656700670719146728515625" lon="-59.150896556675434112548828125">
        <ele>22.799999237060546875</ele>
        <time>2020-02-25T10:26:25.000Z</time>
      </trkpt>
      <trkpt lat="-34.7562687657773494720458984375" lon="-59.15058231912553310394287109375">
        <ele>22.6000003814697265625</ele>
        <time>2020-02-25T10:26:37.000Z</time>
      </trkpt>
      <trkpt lat="-34.7562687657773494720458984375" lon="-59.15058231912553310394287109375">
        <ele>22.6000003814697265625</ele>
        <time>2020-02-25T10:26:38.000Z</time>
      </trkpt>
      <trkpt lat="-34.75576157681643962860107421875" lon="-59.1502643935382366180419921875">
        <ele>22.6000003814697265625</ele>
        <time>2020-02-25T10:26:49.000Z</time>
      </trkpt>
      <trkpt lat="-34.755634926259517669677734375" lon="-59.1501825861632823944091796875">
        <ele>22.799999237060546875</ele>
        <time>2020-02-25T10:26:52.000Z</time>
      </trkpt>
      <trkpt lat="-34.75512639619410037994384765625" lon="-59.149861223995685577392578125">
        <ele>22.6000003814697265625</ele>
        <time>2020-02-25T10:27:04.000Z</time>
      </trkpt>
      <trkpt lat="-34.7546621225774288177490234375" lon="-59.1495700366795063018798828125">
        <ele>22.799999237060546875</ele>
        <time>2020-02-25T10:27:16.000Z</time>
      </trkpt>
      <trkpt lat="-34.75411352701485157012939453125" lon="-59.14922243915498256683349609375">
        <ele>22.6000003814697265625</ele>
        <time>2020-02-25T10:27:28.000Z</time>
      </trkpt>
      <trkpt lat="-34.75411352701485157012939453125" lon="-59.14922243915498256683349609375">
        <ele>22.6000003814697265625</ele>
        <time>2020-02-25T10:27:29.000Z</time>
      </trkpt>
      <trkpt lat="-34.75361622869968414306640625" lon="-59.14890007115900516510009765625">
        <ele>22.799999237060546875</ele>
        <time>2020-02-25T10:27:40.000Z</time>
      </trkpt>
      <trkpt lat="-34.75328841246664524078369140625" lon="-59.1486896015703678131103515625">
        <ele>22.799999237060546875</ele>
        <time>2020-02-25T10:27:49.000Z</time>
      </trkpt>
      <trkpt lat="-34.7529297508299350738525390625" lon="-59.14846907369792461395263671875">
        <ele>22.6000003814697265625</ele>
        <time>2020-02-25T10:27:57.000Z</time>
      </trkpt>
      <trkpt lat="-34.75255499593913555145263671875" lon="-59.14823588915169239044189453125">
        <ele>22.6000003814697265625</ele>
        <time>2020-02-25T10:28:07.000Z</time>
      </trkpt>
      <trkpt lat="-34.75206029601395130157470703125" lon="-59.1479238308966159820556640625">
        <ele>22.799999237060546875</ele>
        <time>2020-02-25T10:28:18.000Z</time>
      </trkpt>
      <trkpt lat="-34.7519369982182979583740234375" lon="-59.14784814231097698211669921875">
        <ele>23</ele>
        <time>2020-02-25T10:28:22.000Z</time>
      </trkpt>
      <trkpt lat="-34.751443974673748016357421875" lon="-59.14753834716975688934326171875">
        <ele>22.799999237060546875</ele>
        <time>2020-02-25T10:28:34.000Z</time>
      </trkpt>
      <trkpt lat="-34.75140340626239776611328125" lon="-59.14751219563186168670654296875">
        <ele>22.799999237060546875</ele>
        <time>2020-02-25T10:28:35.000Z</time>
      </trkpt>
      <trkpt lat="-34.7508622705936431884765625" lon="-59.1471679508686065673828125">
        <ele>22.799999237060546875</ele>
        <time>2020-02-25T10:28:48.000Z</time>
      </trkpt>
      <trkpt lat="-34.7503097355365753173828125" lon="-59.1468227840960025787353515625">
        <ele>23</ele>
        <time>2020-02-25T10:29:00.000Z</time>
      </trkpt>
      <trkpt lat="-34.7501848451793193817138671875" lon="-59.14674089290201663970947265625">
        <ele>23</ele>
        <time>2020-02-25T10:29:03.000Z</time>
      </trkpt>
      <trkpt lat="-34.7497732937335968017578125" lon="-59.146482646465301513671875">
        <ele>23.200000762939453125</ele>
        <time>2020-02-25T10:29:14.000Z</time>
      </trkpt>
      <trkpt lat="-34.74921514280140399932861328125" lon="-59.1461311094462871551513671875">
        <ele>23</ele>
        <time>2020-02-25T10:29:27.000Z</time>
      </trkpt>
      <trkpt lat="-34.74909360520541667938232421875" lon="-59.1460546664893627166748046875">
        <ele>23</ele>
        <time>2020-02-25T10:29:30.000Z</time>
      </trkpt>
      <trkpt lat="-34.748645760118961334228515625" lon="-59.14577429182827472686767578125">
        <ele>23</ele>
        <time>2020-02-25T10:29:42.000Z</time>
      </trkpt>
      <trkpt lat="-34.74815516732633113861083984375" lon="-59.1454593837261199951171875">
        <ele>23.200000762939453125</ele>
        <time>2020-02-25T10:29:54.000Z</time>
      </trkpt>
      <trkpt lat="-34.747649990022182464599609375" lon="-59.1451437212526798248291015625">
        <ele>23.200000762939453125</ele>
        <time>2020-02-25T10:30:06.000Z</time>
      </trkpt>
      <trkpt lat="-34.7476082481443881988525390625" lon="-59.14511631242930889129638671875">
        <ele>23.200000762939453125</ele>
        <time>2020-02-25T10:30:07.000Z</time>
      </trkpt>
      <trkpt lat="-34.74711078219115734100341796875" lon="-59.144799225032329559326171875">
        <ele>23</ele>
        <time>2020-02-25T10:30:18.000Z</time>
      </trkpt>
      <trkpt lat="-34.74706870503723621368408203125" lon="-59.1447722353041172027587890625">
        <ele>23</ele>
        <time>2020-02-25T10:30:19.000Z</time>
      </trkpt>
      <trkpt lat="-34.746572077274322509765625" lon="-59.14445715956389904022216796875">
        <ele>23</ele>
        <time>2020-02-25T10:30:31.000Z</time>
      </trkpt>
      <trkpt lat="-34.74653075449168682098388671875" lon="-59.14443167857825756072998046875">
        <ele>23</ele>
        <time>2020-02-25T10:30:32.000Z</time>
      </trkpt>
      <trkpt lat="-34.74603898823261260986328125" lon="-59.1441150940954685211181640625">
        <ele>23.200000762939453125</ele>
        <time>2020-02-25T10:30:44.000Z</time>
      </trkpt>
      <trkpt lat="-34.74550497718155384063720703125" lon="-59.1437722742557525634765625">
        <ele>23.200000762939453125</ele>
        <time>2020-02-25T10:30:57.000Z</time>
      </trkpt>
      <trkpt lat="-34.74538109265267848968505859375" lon="-59.143696837127208709716796875">
        <ele>23.200000762939453125</ele>
        <time>2020-02-25T10:31:00.000Z</time>
      </trkpt>
      <trkpt lat="-34.745057635009288787841796875" lon="-59.14348854683339595794677734375">
        <ele>23.200000762939453125</ele>
        <time>2020-02-25T10:31:08.000Z</time>
      </trkpt>
      <trkpt lat="-34.7447017394006252288818359375" lon="-59.143259637057781219482421875">
        <ele>23.200000762939453125</ele>
        <time>2020-02-25T10:31:17.000Z</time>
      </trkpt>
      <trkpt lat="-34.744203351438045501708984375" lon="-59.1429469920694828033447265625">
        <ele>23</ele>
        <time>2020-02-25T10:31:29.000Z</time>
      </trkpt>
      <trkpt lat="-34.74416119046509265899658203125" lon="-59.1429198347032070159912109375">
        <ele>23</ele>
        <time>2020-02-25T10:31:30.000Z</time>
      </trkpt>
      <trkpt lat="-34.74365760572254657745361328125" lon="-59.142609871923923492431640625">
        <ele>23.200000762939453125</ele>
        <time>2020-02-25T10:31:42.000Z</time>
      </trkpt>
      <trkpt lat="-34.74361569620668888092041015625" lon="-59.14258346892893314361572265625">
        <ele>23.200000762939453125</ele>
        <time>2020-02-25T10:31:43.000Z</time>
      </trkpt>
      <trkpt lat="-34.7432037256658077239990234375" lon="-59.142329581081867218017578125">
        <ele>23.200000762939453125</ele>
        <time>2020-02-25T10:31:53.000Z</time>
      </trkpt>
      <trkpt lat="-34.74279426969587802886962890625" lon="-59.14207376539707183837890625">
        <ele>23.3999996185302734375</ele>
        <time>2020-02-25T10:32:03.000Z</time>
      </trkpt>
      <trkpt lat="-34.742339551448822021484375" lon="-59.14178148843348026275634765625">
        <ele>23.200000762939453125</ele>
        <time>2020-02-25T10:32:14.000Z</time>
      </trkpt>
      <trkpt lat="-34.7418726794421672821044921875" lon="-59.14148661307990550994873046875">
        <ele>23</ele>
        <time>2020-02-25T10:32:25.000Z</time>
      </trkpt>
      <trkpt lat="-34.74153312854468822479248046875" lon="-59.14127320982515811920166015625">
        <ele>23</ele>
        <time>2020-02-25T10:32:33.000Z</time>
      </trkpt>
      <trkpt lat="-34.74119114689528942108154296875" lon="-59.14107355289161205291748046875">
        <ele>23</ele>
        <time>2020-02-25T10:32:41.000Z</time>
      </trkpt>
      <trkpt lat="-34.74087397567927837371826171875" lon="-59.14085830561816692352294921875">
        <ele>23</ele>
        <time>2020-02-25T10:32:49.000Z</time>
      </trkpt>
      <trkpt lat="-34.74054356105625629425048828125" lon="-59.14065311662852764129638671875">
        <ele>23</ele>
        <time>2020-02-25T10:32:57.000Z</time>
      </trkpt>
      <trkpt lat="-34.740242399275302886962890625" lon="-59.140466786921024322509765625">
        <ele>22.799999237060546875</ele>
        <time>2020-02-25T10:33:04.000Z</time>
      </trkpt>
      <trkpt lat="-34.739891029894351959228515625" lon="-59.1402416490018367767333984375">
        <ele>22.799999237060546875</ele>
        <time>2020-02-25T10:33:12.000Z</time>
      </trkpt>
      <trkpt lat="-34.73940898664295673370361328125" lon="-59.13994115777313709259033203125">
        <ele>23</ele>
        <time>2020-02-25T10:33:23.000Z</time>
      </trkpt>
      <trkpt lat="-34.739365316927433013916015625" lon="-59.13991400040686130523681640625">
        <ele>22.799999237060546875</ele>
        <time>2020-02-25T10:33:24.000Z</time>
      </trkpt>
      <trkpt lat="-34.73897832445800304412841796875" lon="-59.1396569274365901947021484375">
        <ele>22.799999237060546875</ele>
        <time>2020-02-25T10:33:33.000Z</time>
      </trkpt>
      <trkpt lat="-34.73858186043798923492431640625" lon="-59.139403961598873138427734375">
        <ele>22.3999996185302734375</ele>
        <time>2020-02-25T10:33:42.000Z</time>
      </trkpt>
      <trkpt lat="-34.7381903417408466339111328125" lon="-59.13915309123694896697998046875">
        <ele>22.799999237060546875</ele>
        <time>2020-02-25T10:33:51.000Z</time>
      </trkpt>
      <trkpt lat="-34.73788465373218059539794921875" lon="-59.1389578767120838165283203125">
        <ele>22.799999237060546875</ele>
        <time>2020-02-25T10:33:58.000Z</time>
      </trkpt>
      <trkpt lat="-34.737366400659084320068359375" lon="-59.13864078931510448455810546875">
        <ele>22.3999996185302734375</ele>
        <time>2020-02-25T10:34:10.000Z</time>
      </trkpt>
      <trkpt lat="-34.7368665039539337158203125" lon="-59.13832001388072967529296875">
        <ele>22.6000003814697265625</ele>
        <time>2020-02-25T10:34:22.000Z</time>
      </trkpt>
      <trkpt lat="-34.73678679205477237701416015625" lon="-59.138265363872051239013671875">
        <ele>22.3999996185302734375</ele>
        <time>2020-02-25T10:34:24.000Z</time>
      </trkpt>
      <trkpt lat="-34.73629091866314411163330078125" lon="-59.1379456780850887298583984375">
        <ele>22.3999996185302734375</ele>
        <time>2020-02-25T10:34:36.000Z</time>
      </trkpt>
      <trkpt lat="-34.73578129895031452178955078125" lon="-59.137629680335521697998046875">
        <ele>22.6000003814697265625</ele>
        <time>2020-02-25T10:34:48.000Z</time>
      </trkpt>
      <trkpt lat="-34.73526564426720142364501953125" lon="-59.1373099945485591888427734375">
        <ele>22.200000762939453125</ele>
        <time>2020-02-25T10:35:00.000Z</time>
      </trkpt>
      <trkpt lat="-34.73481218330562114715576171875" lon="-59.13702718913555145263671875">
        <ele>22.3999996185302734375</ele>
        <time>2020-02-25T10:35:11.000Z</time>
      </trkpt>
      <trkpt lat="-34.73436727188527584075927734375" lon="-59.13673809729516506195068359375">
        <ele>22.3999996185302734375</ele>
        <time>2020-02-25T10:35:22.000Z</time>
      </trkpt>
      <trkpt lat="-34.73403903655707836151123046875" lon="-59.1365204192698001861572265625">
        <ele>22.3999996185302734375</ele>
        <time>2020-02-25T10:35:30.000Z</time>
      </trkpt>
      <trkpt lat="-34.73358389921486377716064453125" lon="-59.13623384200036525726318359375">
        <ele>22.200000762939453125</ele>
        <time>2020-02-25T10:35:41.000Z</time>
      </trkpt>
      <trkpt lat="-34.733215682208538055419921875" lon="-59.135992862284183502197265625">
        <ele>22.200000762939453125</ele>
        <time>2020-02-25T10:35:50.000Z</time>
      </trkpt>
      <trkpt lat="-34.73290010355412960052490234375" lon="-59.1357792913913726806640625">
        <ele>22.200000762939453125</ele>
        <time>2020-02-25T10:35:58.000Z</time>
      </trkpt>
      <trkpt lat="-34.73286221735179424285888671875" lon="-59.135752134025096893310546875">
        <ele>22.200000762939453125</ele>
        <time>2020-02-25T10:35:59.000Z</time>
      </trkpt>
      <trkpt lat="-34.73266683518886566162109375" lon="-59.1356285847723484039306640625">
        <ele>22.200000762939453125</ele>
        <time>2020-02-25T10:36:04.000Z</time>
      </trkpt>
      <trkpt lat="-34.73237640224397182464599609375" lon="-59.1354552470147609710693359375">
        <ele>22.200000762939453125</ele>
        <time>2020-02-25T10:36:11.000Z</time>
      </trkpt>
      <trkpt lat="-34.7320450656116008758544921875" lon="-59.1352524049580097198486328125">
        <ele>22.3999996185302734375</ele>
        <time>2020-02-25T10:36:19.000Z</time>
      </trkpt>
      <trkpt lat="-34.73168154247105121612548828125" lon="-59.1350126825273036956787109375">
        <ele>22.3999996185302734375</ele>
        <time>2020-02-25T10:36:28.000Z</time>
      </trkpt>
      <trkpt lat="-34.73137359134852886199951171875" lon="-59.134853594005107879638671875">
        <ele>22</ele>
        <time>2020-02-25T10:36:35.000Z</time>
      </trkpt>
      <trkpt lat="-34.73133184947073459625244140625" lon="-59.134832136332988739013671875">
        <ele>21.799999237060546875</ele>
        <time>2020-02-25T10:36:36.000Z</time>
      </trkpt>
      <trkpt lat="-34.7310352139174938201904296875" lon="-59.1346515901386737823486328125">
        <ele>22.200000762939453125</ele>
        <time>2020-02-25T10:36:43.000Z</time>
      </trkpt>
      <trkpt lat="-34.7306201420724391937255859375" lon="-59.1343872249126434326171875">
        <ele>22.200000762939453125</ele>
        <time>2020-02-25T10:36:53.000Z</time>
      </trkpt>
      <trkpt lat="-34.73022778518497943878173828125" lon="-59.13410668261349201202392578125">
        <ele>22.200000762939453125</ele>
        <time>2020-02-25T10:37:03.000Z</time>
      </trkpt>
      <trkpt lat="-34.7298979572951793670654296875" lon="-59.133845753967761993408203125">
        <ele>22</ele>
        <time>2020-02-25T10:37:12.000Z</time>
      </trkpt>
      <trkpt lat="-34.72959813661873340606689453125" lon="-59.13361147977411746978759765625">
        <ele>22.200000762939453125</ele>
        <time>2020-02-25T10:37:20.000Z</time>
      </trkpt>
      <trkpt lat="-34.729293286800384521484375" lon="-59.13334853947162628173828125">
        <ele>21.799999237060546875</ele>
        <time>2020-02-25T10:37:28.000Z</time>
      </trkpt>
      <trkpt lat="-34.7290768660604953765869140625" lon="-59.13313957862555980682373046875">
        <ele>22</ele>
        <time>2020-02-25T10:37:34.000Z</time>
      </trkpt>
      <trkpt lat="-34.72880504094064235687255859375" lon="-59.13287588395178318023681640625">
        <ele>21.799999237060546875</ele>
        <time>2020-02-25T10:37:42.000Z</time>
      </trkpt>
      <trkpt lat="-34.728450737893581390380859375" lon="-59.13259039632976055145263671875">
        <ele>21.799999237060546875</ele>
        <time>2020-02-25T10:37:51.000Z</time>
      </trkpt>
      <trkpt lat="-34.7281484864652156829833984375" lon="-59.13232670165598392486572265625">
        <ele>21.799999237060546875</ele>
        <time>2020-02-25T10:37:59.000Z</time>
      </trkpt>
      <trkpt lat="-34.72780843265354633331298828125" lon="-59.13203182630240917205810546875">
        <ele>21.799999237060546875</ele>
        <time>2020-02-25T10:38:08.000Z</time>
      </trkpt>
      <trkpt lat="-34.7274370305240154266357421875" lon="-59.1316996514797210693359375">
        <ele>21.6000003814697265625</ele>
        <time>2020-02-25T10:38:18.000Z</time>
      </trkpt>
      <trkpt lat="-34.72702086903154850006103515625" lon="-59.13133696652948856353759765625">
        <ele>21.6000003814697265625</ele>
        <time>2020-02-25T10:38:29.000Z</time>
      </trkpt>
      <trkpt lat="-34.7266025282442569732666015625" lon="-59.13097000680863857269287109375">
        <ele>21.6000003814697265625</ele>
        <time>2020-02-25T10:38:40.000Z</time>
      </trkpt>
      <trkpt lat="-34.72618284635245800018310546875" lon="-59.130600281059741973876953125">
        <ele>21.3999996185302734375</ele>
        <time>2020-02-25T10:38:51.000Z</time>
      </trkpt>
      <trkpt lat="-34.725734330713748931884765625" lon="-59.1301991231739521026611328125">
        <ele>21.200000762939453125</ele>
        <time>2020-02-25T10:39:03.000Z</time>
      </trkpt>
      <trkpt lat="-34.7253955341875553131103515625" lon="-59.1299010626971721649169921875">
        <ele>21.200000762939453125</ele>
        <time>2020-02-25T10:39:12.000Z</time>
      </trkpt>
      <trkpt lat="-34.72492941655218601226806640625" lon="-59.1294816322624683380126953125">
        <ele>21</ele>
        <time>2020-02-25T10:39:24.000Z</time>
      </trkpt>
      <trkpt lat="-34.72481332719326019287109375" lon="-59.12937962450087070465087890625">
        <ele>21</ele>
        <time>2020-02-25T10:39:27.000Z</time>
      </trkpt>
      <trkpt lat="-34.72450261004269123077392578125" lon="-59.12910805083811283111572265625">
        <ele>20.6000003814697265625</ele>
        <time>2020-02-25T10:39:35.000Z</time>
      </trkpt>
      <trkpt lat="-34.724149145185947418212890625" lon="-59.128789119422435760498046875">
        <ele>21</ele>
        <time>2020-02-25T10:39:44.000Z</time>
      </trkpt>
      <trkpt lat="-34.7237124480307102203369140625" lon="-59.12839843891561031341552734375">
        <ele>21</ele>
        <time>2020-02-25T10:39:55.000Z</time>
      </trkpt>
      <trkpt lat="-34.723591245710849761962890625" lon="-59.128296263515949249267578125">
        <ele>20.799999237060546875</ele>
        <time>2020-02-25T10:39:58.000Z</time>
      </trkpt>
      <trkpt lat="-34.72311976365745067596435546875" lon="-59.1278775036334991455078125">
        <ele>20.6000003814697265625</ele>
        <time>2020-02-25T10:40:10.000Z</time>
      </trkpt>
      <trkpt lat="-34.72272983752191066741943359375" lon="-59.12753359414637088775634765625">
        <ele>20.6000003814697265625</ele>
        <time>2020-02-25T10:40:20.000Z</time>
      </trkpt>
      <trkpt lat="-34.722268916666507720947265625" lon="-59.127121455967426300048828125">
        <ele>20.3999996185302734375</ele>
        <time>2020-02-25T10:40:32.000Z</time>
      </trkpt>
      <trkpt lat="-34.72223077900707721710205078125" lon="-59.12708750925958156585693359375">
        <ele>20.3999996185302734375</ele>
        <time>2020-02-25T10:40:33.000Z</time>
      </trkpt>
      <trkpt lat="-34.72181797027587890625" lon="-59.12671652622520923614501953125">
        <ele>20.3999996185302734375</ele>
        <time>2020-02-25T10:40:44.000Z</time>
      </trkpt>
      <trkpt lat="-34.7214007191359996795654296875" lon="-59.12634822539985179901123046875">
        <ele>20.3999996185302734375</ele>
        <time>2020-02-25T10:40:55.000Z</time>
      </trkpt>
      <trkpt lat="-34.72095228731632232666015625" lon="-59.12594052962958812713623046875">
        <ele>20</ele>
        <time>2020-02-25T10:41:07.000Z</time>
      </trkpt>
      <trkpt lat="-34.72064827568829059600830078125" lon="-59.12567364983260631561279296875">
        <ele>20</ele>
        <time>2020-02-25T10:41:15.000Z</time>
      </trkpt>
      <trkpt lat="-34.7205735929310321807861328125" lon="-59.1256071813404560089111328125">
        <ele>19.799999237060546875</ele>
        <time>2020-02-25T10:41:17.000Z</time>
      </trkpt>
      <trkpt lat="-34.7202762030065059661865234375" lon="-59.12534021772444248199462890625">
        <ele>20</ele>
        <time>2020-02-25T10:41:25.000Z</time>
      </trkpt>
      <trkpt lat="-34.72002063877880573272705078125" lon="-59.1251156665384769439697265625">
        <ele>19.799999237060546875</ele>
        <time>2020-02-25T10:41:32.000Z</time>
      </trkpt>
      <trkpt lat="-34.7197642363607883453369140625" lon="-59.12490653805434703826904296875">
        <ele>19.799999237060546875</ele>
        <time>2020-02-25T10:41:39.000Z</time>
      </trkpt>
      <trkpt lat="-34.71969030797481536865234375" lon="-59.1248380579054355621337890625">
        <ele>19.799999237060546875</ele>
        <time>2020-02-25T10:41:41.000Z</time>
      </trkpt>
      <trkpt lat="-34.7195573709905147552490234375" lon="-59.1247066296637058258056640625">
        <ele>19.6000003814697265625</ele>
        <time>2020-02-25T10:41:45.000Z</time>
      </trkpt>
      <trkpt lat="-34.719457291066646575927734375" lon="-59.1246093995869159698486328125">
        <ele>19.6000003814697265625</ele>
        <time>2020-02-25T10:41:48.000Z</time>
      </trkpt>
      <trkpt lat="-34.7193414531648159027099609375" lon="-59.1245161928236484527587890625">
        <ele>19.3999996185302734375</ele>
        <time>2020-02-25T10:41:51.000Z</time>
      </trkpt>
      <trkpt lat="-34.719227962195873260498046875" lon="-59.12442147731781005859375">
        <ele>19.3999996185302734375</ele>
        <time>2020-02-25T10:41:54.000Z</time>
      </trkpt>
      <trkpt lat="-34.719115979969501495361328125" lon="-59.12432617507874965667724609375">
        <ele>19.3999996185302734375</ele>
        <time>2020-02-25T10:41:57.000Z</time>
      </trkpt>
      <trkpt lat="-34.71889042295515537261962890625" lon="-59.12411905825138092041015625">
        <ele>19.3999996185302734375</ele>
        <time>2020-02-25T10:42:03.000Z</time>
      </trkpt>
      <trkpt lat="-34.71847685985267162322998046875" lon="-59.123749919235706329345703125">
        <ele>19.200000762939453125</ele>
        <time>2020-02-25T10:42:14.000Z</time>
      </trkpt>
      <trkpt lat="-34.71803479827940464019775390625" lon="-59.123358316719532012939453125">
        <ele>18.799999237060546875</ele>
        <time>2020-02-25T10:42:26.000Z</time>
      </trkpt>
      <trkpt lat="-34.71796095371246337890625" lon="-59.12329503335058689117431640625">
        <ele>18.799999237060546875</ele>
        <time>2020-02-25T10:42:28.000Z</time>
      </trkpt>
      <trkpt lat="-34.71753004007041454315185546875" lon="-59.12290778942406177520751953125">
        <ele>18.799999237060546875</ele>
        <time>2020-02-25T10:42:40.000Z</time>
      </trkpt>
      <trkpt lat="-34.7171004675328731536865234375" lon="-59.12252607755362987518310546875">
        <ele>18.799999237060546875</ele>
        <time>2020-02-25T10:42:52.000Z</time>
      </trkpt>
      <trkpt lat="-34.7167045064270496368408203125" lon="-59.1221724450588226318359375">
        <ele>18.6000003814697265625</ele>
        <time>2020-02-25T10:43:03.000Z</time>
      </trkpt>
      <trkpt lat="-34.71634265966713428497314453125" lon="-59.12186197936534881591796875">
        <ele>18.3999996185302734375</ele>
        <time>2020-02-25T10:43:13.000Z</time>
      </trkpt>
      <trkpt lat="-34.71605566330254077911376953125" lon="-59.12160976789891719818115234375">
        <ele>18.200000762939453125</ele>
        <time>2020-02-25T10:43:21.000Z</time>
      </trkpt>
      <trkpt lat="-34.715657941997051239013671875" lon="-59.12125848233699798583984375">
        <ele>18.200000762939453125</ele>
        <time>2020-02-25T10:43:32.000Z</time>
      </trkpt>
      <trkpt lat="-34.71533834002912044525146484375" lon="-59.12097416818141937255859375">
        <ele>18.200000762939453125</ele>
        <time>2020-02-25T10:43:41.000Z</time>
      </trkpt>
      <trkpt lat="-34.7150187380611896514892578125" lon="-59.12069111131131649017333984375">
        <ele>17.799999237060546875</ele>
        <time>2020-02-25T10:43:50.000Z</time>
      </trkpt>
      <trkpt lat="-34.71484431065618991851806640625" lon="-59.120533950626850128173828125">
        <ele>17.799999237060546875</ele>
        <time>2020-02-25T10:43:55.000Z</time>
      </trkpt>
      <trkpt lat="-34.71446226350963115692138671875" lon="-59.12019138224422931671142578125">
        <ele>17.6000003814697265625</ele>
        <time>2020-02-25T10:44:06.000Z</time>
      </trkpt>
      <trkpt lat="-34.71408708952367305755615234375" lon="-59.119849316775798797607421875">
        <ele>17.6000003814697265625</ele>
        <time>2020-02-25T10:44:17.000Z</time>
      </trkpt>
      <trkpt lat="-34.7136330418288707733154296875" lon="-59.11945075727999210357666015625">
        <ele>17.3999996185302734375</ele>
        <time>2020-02-25T10:44:30.000Z</time>
      </trkpt>
      <trkpt lat="-34.71323817037045955657958984375" lon="-59.11910559050738811492919921875">
        <ele>17.200000762939453125</ele>
        <time>2020-02-25T10:44:41.000Z</time>
      </trkpt>
      <trkpt lat="-34.71284338273108005523681640625" lon="-59.11875489167869091033935546875">
        <ele>17</ele>
        <time>2020-02-25T10:44:52.000Z</time>
      </trkpt>
      <trkpt lat="-34.71242177300155162811279296875" lon="-59.118369407951831817626953125">
        <ele>17</ele>
        <time>2020-02-25T10:45:04.000Z</time>
      </trkpt>
      <trkpt lat="-34.712212979793548583984375" lon="-59.1181841678917407989501953125">
        <ele>16.799999237060546875</ele>
        <time>2020-02-25T10:45:10.000Z</time>
      </trkpt>
      <trkpt lat="-34.712071157991886138916015625" lon="-59.11806128919124603271484375">
        <ele>16.6000003814697265625</ele>
        <time>2020-02-25T10:45:14.000Z</time>
      </trkpt>
      <trkpt lat="-34.71165549941360950469970703125" lon="-59.117689467966556549072265625">
        <ele>16.3999996185302734375</ele>
        <time>2020-02-25T10:45:26.000Z</time>
      </trkpt>
      <trkpt lat="-34.71130882389843463897705078125" lon="-59.117383696138858795166015625">
        <ele>16.3999996185302734375</ele>
        <time>2020-02-25T10:45:36.000Z</time>
      </trkpt>
      <trkpt lat="-34.71093130297958850860595703125" lon="-59.11705185659229755401611328125">
        <ele>16.200000762939453125</ele>
        <time>2020-02-25T10:45:47.000Z</time>
      </trkpt>
      <trkpt lat="-34.71053936518728733062744140625" lon="-59.116701744496822357177734375">
        <ele>16</ele>
        <time>2020-02-25T10:45:58.000Z</time>
      </trkpt>
      <trkpt lat="-34.71009881235659122467041015625" lon="-59.116312153637409210205078125">
        <ele>16</ele>
        <time>2020-02-25T10:46:10.000Z</time>
      </trkpt>
      <trkpt lat="-34.71002622507512569427490234375" lon="-59.1162479482591152191162109375">
        <ele>16</ele>
        <time>2020-02-25T10:46:12.000Z</time>
      </trkpt>
      <trkpt lat="-34.70980745740234851837158203125" lon="-59.116055667400360107421875">
        <ele>15.80000019073486328125</ele>
        <time>2020-02-25T10:46:18.000Z</time>
      </trkpt>
      <trkpt lat="-34.70959086902439594268798828125" lon="-59.11586112342774868011474609375">
        <ele>15.6000003814697265625</ele>
        <time>2020-02-25T10:46:24.000Z</time>
      </trkpt>
      <trkpt lat="-34.70915257930755615234375" lon="-59.115477316081523895263671875">
        <ele>15.3999996185302734375</ele>
        <time>2020-02-25T10:46:36.000Z</time>
      </trkpt>
      <trkpt lat="-34.7091155312955379486083984375" lon="-59.1154442913830280303955078125">
        <ele>15.3999996185302734375</ele>
        <time>2020-02-25T10:46:37.000Z</time>
      </trkpt>
      <trkpt lat="-34.7086776606738567352294921875" lon="-59.1150583885610103607177734375">
        <ele>15.19999980926513671875</ele>
        <time>2020-02-25T10:46:49.000Z</time>
      </trkpt>
      <trkpt lat="-34.7086049057543277740478515625" lon="-59.114993847906589508056640625">
        <ele>15.19999980926513671875</ele>
        <time>2020-02-25T10:46:51.000Z</time>
      </trkpt>
      <trkpt lat="-34.70816695131361484527587890625" lon="-59.11460652016103267669677734375">
        <ele>15.19999980926513671875</ele>
        <time>2020-02-25T10:47:03.000Z</time>
      </trkpt>
      <trkpt lat="-34.70812973566353321075439453125" lon="-59.1145737469196319580078125">
        <ele>15.19999980926513671875</ele>
        <time>2020-02-25T10:47:04.000Z</time>
      </trkpt>
      <trkpt lat="-34.7076926194131374359130859375" lon="-59.11418893374502658843994140625">
        <ele>15</ele>
        <time>2020-02-25T10:47:16.000Z</time>
      </trkpt>
      <trkpt lat="-34.7072312794625759124755859375" lon="-59.11378006450831890106201171875">
        <ele>14.80000019073486328125</ele>
        <time>2020-02-25T10:47:29.000Z</time>
      </trkpt>
      <trkpt lat="-34.7067850269377231597900390625" lon="-59.113384522497653961181640625">
        <ele>14.3999996185302734375</ele>
        <time>2020-02-25T10:47:42.000Z</time>
      </trkpt>
      <trkpt lat="-34.70639015547931194305419921875" lon="-59.1130448877811431884765625">
        <ele>14.3999996185302734375</ele>
        <time>2020-02-25T10:47:53.000Z</time>
      </trkpt>
      <trkpt lat="-34.70600743778049945831298828125" lon="-59.11272394470870494842529296875">
        <ele>14.80000019073486328125</ele>
        <time>2020-02-25T10:48:03.000Z</time>
      </trkpt>
      <trkpt lat="-34.70560980029404163360595703125" lon="-59.112413562834262847900390625">
        <ele>14.6000003814697265625</ele>
        <time>2020-02-25T10:48:13.000Z</time>
      </trkpt>
      <trkpt lat="-34.7051842510700225830078125" lon="-59.11210971884429454803466796875">
        <ele>14.3999996185302734375</ele>
        <time>2020-02-25T10:48:23.000Z</time>
      </trkpt>
      <trkpt lat="-34.704686701297760009765625" lon="-59.11180713213980197906494140625">
        <ele>14.6000003814697265625</ele>
        <time>2020-02-25T10:48:34.000Z</time>
      </trkpt>
      <trkpt lat="-34.70463884063065052032470703125" lon="-59.11178114823997020721435546875">
        <ele>14.6000003814697265625</ele>
        <time>2020-02-25T10:48:35.000Z</time>
      </trkpt>
      <trkpt lat="-34.7041046619415283203125" lon="-59.11152114160358905792236328125">
        <ele>15</ele>
        <time>2020-02-25T10:48:46.000Z</time>
      </trkpt>
      <trkpt lat="-34.70400650985538959503173828125" lon="-59.11147789098322391510009765625">
        <ele>15</ele>
        <time>2020-02-25T10:48:48.000Z</time>
      </trkpt>
      <trkpt lat="-34.70346654765307903289794921875" lon="-59.1112446226179599761962890625">
        <ele>14.6000003814697265625</ele>
        <time>2020-02-25T10:48:59.000Z</time>
      </trkpt>
      <trkpt lat="-34.7034166753292083740234375" lon="-59.11122299730777740478515625">
        <ele>14.6000003814697265625</ele>
        <time>2020-02-25T10:49:00.000Z</time>
      </trkpt>
      <trkpt lat="-34.70286355353891849517822265625" lon="-59.1110119409859180450439453125">
        <ele>14.19999980926513671875</ele>
        <time>2020-02-25T10:49:11.000Z</time>
      </trkpt>
      <trkpt lat="-34.70236315391957759857177734375" lon="-59.1108305566012859344482421875">
        <ele>14</ele>
        <time>2020-02-25T10:49:21.000Z</time>
      </trkpt>
      <trkpt lat="-34.70181229524314403533935546875" lon="-59.1106263734400272369384765625">
        <ele>14.19999980926513671875</ele>
        <time>2020-02-25T10:49:32.000Z</time>
      </trkpt>
      <trkpt lat="-34.7017122991383075714111328125" lon="-59.1105888225138187408447265625">
        <ele>14.19999980926513671875</ele>
        <time>2020-02-25T10:49:34.000Z</time>
      </trkpt>
      <trkpt lat="-34.70126076601445674896240234375" lon="-59.11042638123035430908203125">
        <ele>14.3999996185302734375</ele>
        <time>2020-02-25T10:49:43.000Z</time>
      </trkpt>
      <trkpt lat="-34.70071393065154552459716796875" lon="-59.11022429354488849639892578125">
        <ele>14.3999996185302734375</ele>
        <time>2020-02-25T10:49:54.000Z</time>
      </trkpt>
      <trkpt lat="-34.70066464506089687347412109375" lon="-59.1102056019008159637451171875">
        <ele>14.3999996185302734375</ele>
        <time>2020-02-25T10:49:55.000Z</time>
      </trkpt>
      <trkpt lat="-34.7001220844686031341552734375" lon="-59.1100087948143482208251953125">
        <ele>14.3999996185302734375</ele>
        <time>2020-02-25T10:50:06.000Z</time>
      </trkpt>
      <trkpt lat="-34.700072295963764190673828125" lon="-59.10999127663671970367431640625">
        <ele>14.3999996185302734375</ele>
        <time>2020-02-25T10:50:07.000Z</time>
      </trkpt>
      <trkpt lat="-34.69951129518449306488037109375" lon="-59.1097871772944927215576171875">
        <ele>14.19999980926513671875</ele>
        <time>2020-02-25T10:50:18.000Z</time>
      </trkpt>
      <trkpt lat="-34.69895272515714168548583984375" lon="-59.1095803119242191314697265625">
        <ele>14.6000003814697265625</ele>
        <time>2020-02-25T10:50:30.000Z</time>
      </trkpt>
      <trkpt lat="-34.69879933632910251617431640625" lon="-59.10952658392488956451416015625">
        <ele>14.3999996185302734375</ele>
        <time>2020-02-25T10:50:33.000Z</time>
      </trkpt>
      <trkpt lat="-34.69824311323463916778564453125" lon="-59.1093214787542819976806640625">
        <ele>14.3999996185302734375</ele>
        <time>2020-02-25T10:50:43.000Z</time>
      </trkpt>
      <trkpt lat="-34.69814202748239040374755859375" lon="-59.1092835925519466400146484375">
        <ele>14.3999996185302734375</ele>
        <time>2020-02-25T10:50:45.000Z</time>
      </trkpt>
      <trkpt lat="-34.6975434757769107818603515625" lon="-59.1090666688978672027587890625">
        <ele>15</ele>
        <time>2020-02-25T10:50:57.000Z</time>
      </trkpt>
      <trkpt lat="-34.6970073692500591278076171875" lon="-59.10887229256331920623779296875">
        <ele>14.3999996185302734375</ele>
        <time>2020-02-25T10:51:08.000Z</time>
      </trkpt>
      <trkpt lat="-34.69686110503971576690673828125" lon="-59.10881848074495792388916015625">
        <ele>14.6000003814697265625</ele>
        <time>2020-02-25T10:51:11.000Z</time>
      </trkpt>
      <trkpt lat="-34.6963183768093585968017578125" lon="-59.108621589839458465576171875">
        <ele>15</ele>
        <time>2020-02-25T10:51:22.000Z</time>
      </trkpt>
      <trkpt lat="-34.69626766629517078399658203125" lon="-59.10860256291925907135009765625">
        <ele>15</ele>
        <time>2020-02-25T10:51:23.000Z</time>
      </trkpt>
      <trkpt lat="-34.69572007656097412109375" lon="-59.10840332508087158203125">
        <ele>15</ele>
        <time>2020-02-25T10:51:34.000Z</time>
      </trkpt>
      <trkpt lat="-34.69517969526350498199462890625" lon="-59.10820509307086467742919921875">
        <ele>15.19999980926513671875</ele>
        <time>2020-02-25T10:51:45.000Z</time>
      </trkpt>
      <trkpt lat="-34.69463939778506755828857421875" lon="-59.1080082021653652191162109375">
        <ele>15.19999980926513671875</ele>
        <time>2020-02-25T10:51:56.000Z</time>
      </trkpt>
      <trkpt lat="-34.69454200007021427154541015625" lon="-59.1079733334481716156005859375">
        <ele>15.3999996185302734375</ele>
        <time>2020-02-25T10:51:58.000Z</time>
      </trkpt>
      <trkpt lat="-34.69401712529361248016357421875" lon="-59.10777878947556018829345703125">
        <ele>15.6000003814697265625</ele>
        <time>2020-02-25T10:52:09.000Z</time>
      </trkpt>
      <trkpt lat="-34.69396934844553470611572265625" lon="-59.10776135511696338653564453125">
        <ele>15.6000003814697265625</ele>
        <time>2020-02-25T10:52:10.000Z</time>
      </trkpt>
      <trkpt lat="-34.69344497658312320709228515625" lon="-59.10757116973400115966796875">
        <ele>15.6000003814697265625</ele>
        <time>2020-02-25T10:52:21.000Z</time>
      </trkpt>
      <trkpt lat="-34.69334975816309452056884765625" lon="-59.107537306845188140869140625">
        <ele>15.6000003814697265625</ele>
        <time>2020-02-25T10:52:23.000Z</time>
      </trkpt>
      <trkpt lat="-34.69320827163755893707275390625" lon="-59.1074848361313343048095703125">
        <ele>15.80000019073486328125</ele>
        <time>2020-02-25T10:52:26.000Z</time>
      </trkpt>
      <trkpt lat="-34.69283494167029857635498046875" lon="-59.107348211109638214111328125">
        <ele>16</ele>
        <time>2020-02-25T10:52:34.000Z</time>
      </trkpt>
      <trkpt lat="-34.69231375493109226226806640625" lon="-59.1071572713553905487060546875">
        <ele>16</ele>
        <time>2020-02-25T10:52:45.000Z</time>
      </trkpt>
      <trkpt lat="-34.69188594259321689605712890625" lon="-59.1070030443370342254638671875">
        <ele>16.3999996185302734375</ele>
        <time>2020-02-25T10:52:54.000Z</time>
      </trkpt>
      <trkpt lat="-34.69134497456252574920654296875" lon="-59.1067993640899658203125">
        <ele>16.3999996185302734375</ele>
        <time>2020-02-25T10:53:05.000Z</time>
      </trkpt>
      <trkpt lat="-34.6912939287722110748291015625" lon="-59.10678100772202014923095703125">
        <ele>16.3999996185302734375</ele>
        <time>2020-02-25T10:53:06.000Z</time>
      </trkpt>
      <trkpt lat="-34.69097600318491458892822265625" lon="-59.10666701383888721466064453125">
        <ele>16.799999237060546875</ele>
        <time>2020-02-25T10:53:13.000Z</time>
      </trkpt>
      <trkpt lat="-34.6906089596450328826904296875" lon="-59.1065309755504131317138671875">
        <ele>16.799999237060546875</ele>
        <time>2020-02-25T10:53:20.000Z</time>
      </trkpt>
      <trkpt lat="-34.69004653394222259521484375" lon="-59.10632302053272724151611328125">
        <ele>16.799999237060546875</ele>
        <time>2020-02-25T10:53:30.000Z</time>
      </trkpt>
      <trkpt lat="-34.689491651952266693115234375" lon="-59.106120765209197998046875">
        <ele>17</ele>
        <time>2020-02-25T10:53:41.000Z</time>
      </trkpt>
      <trkpt lat="-34.689441360533237457275390625" lon="-59.10610257647931575775146484375">
        <ele>17</ele>
        <time>2020-02-25T10:53:42.000Z</time>
      </trkpt>
      <trkpt lat="-34.68890248797833919525146484375" lon="-59.10590342245995998382568359375">
        <ele>17.3999996185302734375</ele>
        <time>2020-02-25T10:53:53.000Z</time>
      </trkpt>
      <trkpt lat="-34.68880643136799335479736328125" lon="-59.10586805082857608795166015625">
        <ele>17.3999996185302734375</ele>
        <time>2020-02-25T10:53:55.000Z</time>
      </trkpt>
      <trkpt lat="-34.68826554715633392333984375" lon="-59.1056850738823413848876953125">
        <ele>17.6000003814697265625</ele>
        <time>2020-02-25T10:54:06.000Z</time>
      </trkpt>
      <trkpt lat="-34.68816622160375118255615234375" lon="-59.10565431229770183563232421875">
        <ele>17.799999237060546875</ele>
        <time>2020-02-25T10:54:09.000Z</time>
      </trkpt>
      <trkpt lat="-34.68811660073697566986083984375" lon="-59.10563805140554904937744140625">
        <ele>18</ele>
        <time>2020-02-25T10:54:10.000Z</time>
      </trkpt>
      <trkpt lat="-34.68751830048859119415283203125" lon="-59.1054560802876949310302734375">
        <ele>17.799999237060546875</ele>
        <time>2020-02-25T10:54:21.000Z</time>
      </trkpt>
      <trkpt lat="-34.687416292726993560791015625" lon="-59.10542699508368968963623046875">
        <ele>18</ele>
        <time>2020-02-25T10:54:24.000Z</time>
      </trkpt>
      <trkpt lat="-34.68684238381683826446533203125" lon="-59.1052723489701747894287109375">
        <ele>18.200000762939453125</ele>
        <time>2020-02-25T10:54:34.000Z</time>
      </trkpt>
      <trkpt lat="-34.68673710711300373077392578125" lon="-59.105247370898723602294921875">
        <ele>18.200000762939453125</ele>
        <time>2020-02-25T10:54:36.000Z</time>
      </trkpt>
      <trkpt lat="-34.6862087957561016082763671875" lon="-59.10511736758053302764892578125">
        <ele>18.3999996185302734375</ele>
        <time>2020-02-25T10:54:47.000Z</time>
      </trkpt>
      <trkpt lat="-34.6855804882943630218505859375" lon="-59.10495911724865436553955078125">
        <ele>18</ele>
        <time>2020-02-25T10:54:58.000Z</time>
      </trkpt>
      <trkpt lat="-34.68552927486598491668701171875" lon="-59.104946292936801910400390625">
        <ele>18</ele>
        <time>2020-02-25T10:54:59.000Z</time>
      </trkpt>
      <trkpt lat="-34.68495913781225681304931640625" lon="-59.104802794754505157470703125">
        <ele>18.3999996185302734375</ele>
        <time>2020-02-25T10:55:10.000Z</time>
      </trkpt>
      <trkpt lat="-34.68495913781225681304931640625" lon="-59.104802794754505157470703125">
        <ele>18.3999996185302734375</ele>
        <time>2020-02-25T10:55:11.000Z</time>
      </trkpt>
      <trkpt lat="-34.684398807585239410400390625" lon="-59.10465938039124011993408203125">
        <ele>18.799999237060546875</ele>
        <time>2020-02-25T10:55:21.000Z</time>
      </trkpt>
      <trkpt lat="-34.6843480132520198822021484375" lon="-59.1046453826129436492919921875">
        <ele>18.6000003814697265625</ele>
        <time>2020-02-25T10:55:22.000Z</time>
      </trkpt>
      <trkpt lat="-34.6838092245161533355712890625" lon="-59.1045109368860721588134765625">
        <ele>18.3999996185302734375</ele>
        <time>2020-02-25T10:55:33.000Z</time>
      </trkpt>
      <trkpt lat="-34.6838092245161533355712890625" lon="-59.1045109368860721588134765625">
        <ele>18.3999996185302734375</ele>
        <time>2020-02-25T10:55:34.000Z</time>
      </trkpt>
      <trkpt lat="-34.68323506414890289306640625" lon="-59.10436919890344142913818359375">
        <ele>18.6000003814697265625</ele>
        <time>2020-02-25T10:55:45.000Z</time>
      </trkpt>
      <trkpt lat="-34.68314043246209621429443359375" lon="-59.10434522666037082672119140625">
        <ele>18.3999996185302734375</ele>
        <time>2020-02-25T10:55:47.000Z</time>
      </trkpt>
      <trkpt lat="-34.6825666911900043487548828125" lon="-59.1041998006403446197509765625">
        <ele>18.3999996185302734375</ele>
        <time>2020-02-25T10:55:59.000Z</time>
      </trkpt>
      <trkpt lat="-34.68251966871321201324462890625" lon="-59.10418814979493618011474609375">
        <ele>18.3999996185302734375</ele>
        <time>2020-02-25T10:56:00.000Z</time>
      </trkpt>
      <trkpt lat="-34.682035781443119049072265625" lon="-59.1040656901895999908447265625">
        <ele>18.6000003814697265625</ele>
        <time>2020-02-25T10:56:10.000Z</time>
      </trkpt>
      <trkpt lat="-34.68149824999272823333740234375" lon="-59.1039302386343479156494140625">
        <ele>18.3999996185302734375</ele>
        <time>2020-02-25T10:56:21.000Z</time>
      </trkpt>
      <trkpt lat="-34.68101059086620807647705078125" lon="-59.103805013000965118408203125">
        <ele>18.6000003814697265625</ele>
        <time>2020-02-25T10:56:31.000Z</time>
      </trkpt>
      <trkpt lat="-34.68047079630196094512939453125" lon="-59.1036705672740936279296875">
        <ele>18.3999996185302734375</ele>
        <time>2020-02-25T10:56:42.000Z</time>
      </trkpt>
      <trkpt lat="-34.6804215945303440093994140625" lon="-59.10365782678127288818359375">
        <ele>18.3999996185302734375</ele>
        <time>2020-02-25T10:56:43.000Z</time>
      </trkpt>
      <trkpt lat="-34.67988322488963603973388671875" lon="-59.1035238839685916900634765625">
        <ele>18.3999996185302734375</ele>
        <time>2020-02-25T10:56:54.000Z</time>
      </trkpt>
      <trkpt lat="-34.67983477748930454254150390625" lon="-59.10351240076124668121337890625">
        <ele>18.3999996185302734375</ele>
        <time>2020-02-25T10:56:55.000Z</time>
      </trkpt>
      <trkpt lat="-34.67926179058849811553955078125" lon="-59.1033703275024890899658203125">
        <ele>18.3999996185302734375</ele>
        <time>2020-02-25T10:57:07.000Z</time>
      </trkpt>
      <trkpt lat="-34.679165147244930267333984375" lon="-59.10334509797394275665283203125">
        <ele>18.3999996185302734375</ele>
        <time>2020-02-25T10:57:09.000Z</time>
      </trkpt>
      <trkpt lat="-34.67868779785931110382080078125" lon="-59.10322666168212890625">
        <ele>18.3999996185302734375</ele>
        <time>2020-02-25T10:57:20.000Z</time>
      </trkpt>
      <trkpt lat="-34.67815755866467952728271484375" lon="-59.10309514962136745452880859375">
        <ele>18.3999996185302734375</ele>
        <time>2020-02-25T10:57:30.000Z</time>
      </trkpt>
      <trkpt lat="-34.67761340551078319549560546875" lon="-59.1029552556574344635009765625">
        <ele>18.200000762939453125</ele>
        <time>2020-02-25T10:57:41.000Z</time>
      </trkpt>
      <trkpt lat="-34.67705885879695415496826171875" lon="-59.102815948426723480224609375">
        <ele>18.200000762939453125</ele>
        <time>2020-02-25T10:57:52.000Z</time>
      </trkpt>
      <trkpt lat="-34.6764814294874668121337890625" lon="-59.10266800783574581146240234375">
        <ele>18.200000762939453125</ele>
        <time>2020-02-25T10:58:03.000Z</time>
      </trkpt>
      <trkpt lat="-34.67637489549815654754638671875" lon="-59.10264126956462860107421875">
        <ele>18.200000762939453125</ele>
        <time>2020-02-25T10:58:05.000Z</time>
      </trkpt>
      <trkpt lat="-34.67583375982940196990966796875" lon="-59.10250489600002765655517578125">
        <ele>18.200000762939453125</ele>
        <time>2020-02-25T10:58:15.000Z</time>
      </trkpt>
      <trkpt lat="-34.6757247112691402435302734375" lon="-59.102477990090847015380859375">
        <ele>18.200000762939453125</ele>
        <time>2020-02-25T10:58:17.000Z</time>
      </trkpt>
      <trkpt lat="-34.67517226003110408782958984375" lon="-59.1023376770317554473876953125">
        <ele>18</ele>
        <time>2020-02-25T10:58:27.000Z</time>
      </trkpt>
      <trkpt lat="-34.6749542467296123504638671875" lon="-59.10228344611823558807373046875">
        <ele>18.200000762939453125</ele>
        <time>2020-02-25T10:58:31.000Z</time>
      </trkpt>
      <trkpt lat="-34.674408920109272003173828125" lon="-59.10214900039136409759521484375">
        <ele>18</ele>
        <time>2020-02-25T10:58:41.000Z</time>
      </trkpt>
      <trkpt lat="-34.67386300675570964813232421875" lon="-59.1020097769796848297119140625">
        <ele>18.200000762939453125</ele>
        <time>2020-02-25T10:58:51.000Z</time>
      </trkpt>
      <trkpt lat="-34.6738104522228240966796875" lon="-59.10199544392526149749755859375">
        <ele>18.200000762939453125</ele>
        <time>2020-02-25T10:58:52.000Z</time>
      </trkpt>
      <trkpt lat="-34.6732771955430507659912109375" lon="-59.10186585970222949981689453125">
        <ele>18</ele>
        <time>2020-02-25T10:59:02.000Z</time>
      </trkpt>
      <trkpt lat="-34.67317217029631137847900390625" lon="-59.10184004344046115875244140625">
        <ele>18</ele>
        <time>2020-02-25T10:59:04.000Z</time>
      </trkpt>
      <trkpt lat="-34.67259474098682403564453125" lon="-59.1016936115920543670654296875">
        <ele>17.799999237060546875</ele>
        <time>2020-02-25T10:59:15.000Z</time>
      </trkpt>
      <trkpt lat="-34.67206274159252643585205078125" lon="-59.10156042315065860748291015625">
        <ele>17.6000003814697265625</ele>
        <time>2020-02-25T10:59:25.000Z</time>
      </trkpt>
      <trkpt lat="-34.67200926505029201507568359375" lon="-59.1015474312007427215576171875">
        <ele>17.6000003814697265625</ele>
        <time>2020-02-25T10:59:26.000Z</time>
      </trkpt>
      <trkpt lat="-34.67174154706299304962158203125" lon="-59.101480208337306976318359375">
        <ele>17.6000003814697265625</ele>
        <time>2020-02-25T10:59:31.000Z</time>
      </trkpt>
      <trkpt lat="-34.67126394622027873992919921875" lon="-59.10136361606419086456298828125">
        <ele>17.6000003814697265625</ele>
        <time>2020-02-25T10:59:41.000Z</time>
      </trkpt>
      <trkpt lat="-34.67099656350910663604736328125" lon="-59.1012968122959136962890625">
        <ele>17.3999996185302734375</ele>
        <time>2020-02-25T10:59:46.000Z</time>
      </trkpt>
      <trkpt lat="-34.67051443643867969512939453125" lon="-59.10117083229124546051025390625">
        <ele>17.6000003814697265625</ele>
        <time>2020-02-25T10:59:55.000Z</time>
      </trkpt>
      <trkpt lat="-34.670460037887096405029296875" lon="-59.101157672703266143798828125">
        <ele>17.6000003814697265625</ele>
        <time>2020-02-25T10:59:56.000Z</time>
      </trkpt>
      <trkpt lat="-34.66986567713320255279541015625" lon="-59.1010119952261447906494140625">
        <ele>17.3999996185302734375</ele>
        <time>2020-02-25T11:00:07.000Z</time>
      </trkpt>
      <trkpt lat="-34.66932940296828746795654296875" lon="-59.1008795611560344696044921875">
        <ele>17.200000762939453125</ele>
        <time>2020-02-25T11:00:17.000Z</time>
      </trkpt>
      <trkpt lat="-34.66922362335026264190673828125" lon="-59.100855253636837005615234375">
        <ele>17.200000762939453125</ele>
        <time>2020-02-25T11:00:18.000Z</time>
      </trkpt>
      <trkpt lat="-34.668717943131923675537109375" lon="-59.1007276810705661773681640625">
        <ele>17.200000762939453125</ele>
        <time>2020-02-25T11:00:28.000Z</time>
      </trkpt>
      <trkpt lat="-34.66819952242076396942138671875" lon="-59.10059876739978790283203125">
        <ele>17.3999996185302734375</ele>
        <time>2020-02-25T11:00:39.000Z</time>
      </trkpt>
      <trkpt lat="-34.6678443811833858489990234375" lon="-59.10051159560680389404296875">
        <ele>16.799999237060546875</ele>
        <time>2020-02-25T11:00:46.000Z</time>
      </trkpt>
      <trkpt lat="-34.6676408685743808746337890625" lon="-59.1004601307213306427001953125">
        <ele>16.799999237060546875</ele>
        <time>2020-02-25T11:00:49.000Z</time>
      </trkpt>
      <trkpt lat="-34.6672083623707294464111328125" lon="-59.1003504954278469085693359375">
        <ele>17</ele>
        <time>2020-02-25T11:00:58.000Z</time>
      </trkpt>
      <trkpt lat="-34.666669070720672607421875" lon="-59.1002137027680873870849609375">
        <ele>16.799999237060546875</ele>
        <time>2020-02-25T11:01:09.000Z</time>
      </trkpt>
      <trkpt lat="-34.66661886312067508697509765625" lon="-59.1002012975513935089111328125">
        <ele>16.799999237060546875</ele>
        <time>2020-02-25T11:01:10.000Z</time>
      </trkpt>
      <trkpt lat="-34.66606968082487583160400390625" lon="-59.10008051432669162750244140625">
        <ele>16.799999237060546875</ele>
        <time>2020-02-25T11:01:22.000Z</time>
      </trkpt>
      <trkpt lat="-34.66591964475810527801513671875" lon="-59.10004715435206890106201171875">
        <ele>16.799999237060546875</ele>
        <time>2020-02-25T11:01:24.000Z</time>
      </trkpt>
      <trkpt lat="-34.665362834930419921875" lon="-59.09997087903320789337158203125">
        <ele>16.3999996185302734375</ele>
        <time>2020-02-25T11:01:35.000Z</time>
      </trkpt>
      <trkpt lat="-34.664797224104404449462890625" lon="-59.099939279258251190185546875">
        <ele>16.799999237060546875</ele>
        <time>2020-02-25T11:01:46.000Z</time>
      </trkpt>
      <trkpt lat="-34.66474651359021663665771484375" lon="-59.0999391116201877593994140625">
        <ele>16.799999237060546875</ele>
        <time>2020-02-25T11:01:47.000Z</time>
      </trkpt>
      <trkpt lat="-34.66412834823131561279296875" lon="-59.0999759919941425323486328125">
        <ele>16.3999996185302734375</ele>
        <time>2020-02-25T11:01:59.000Z</time>
      </trkpt>
      <trkpt lat="-34.66360607184469699859619140625" lon="-59.100056625902652740478515625">
        <ele>16.3999996185302734375</ele>
        <time>2020-02-25T11:02:10.000Z</time>
      </trkpt>
      <trkpt lat="-34.66345134191215038299560546875" lon="-59.1000896506011486053466796875">
        <ele>16.3999996185302734375</ele>
        <time>2020-02-25T11:02:12.000Z</time>
      </trkpt>
      <trkpt lat="-34.66288573108613491058349609375" lon="-59.10023272968828678131103515625">
        <ele>16.3999996185302734375</ele>
        <time>2020-02-25T11:02:23.000Z</time>
      </trkpt>
      <trkpt lat="-34.66261952184140682220458984375" lon="-59.10030330531299114227294921875">
        <ele>16.3999996185302734375</ele>
        <time>2020-02-25T11:02:28.000Z</time>
      </trkpt>
      <trkpt lat="-34.66208408586680889129638671875" lon="-59.1004473902285099029541015625">
        <ele>16</ele>
        <time>2020-02-25T11:02:38.000Z</time>
      </trkpt>
      <trkpt lat="-34.6618721075356006622314453125" lon="-59.10050354897975921630859375">
        <ele>15.80000019073486328125</ele>
        <time>2020-02-25T11:02:42.000Z</time>
      </trkpt>
      <trkpt lat="-34.66155887581408023834228515625" lon="-59.10058896057307720184326171875">
        <ele>16</ele>
        <time>2020-02-25T11:02:48.000Z</time>
      </trkpt>
      <trkpt lat="-34.66099712066352367401123046875" lon="-59.10074251703917980194091796875">
        <ele>16</ele>
        <time>2020-02-25T11:02:59.000Z</time>
      </trkpt>
      <trkpt lat="-34.66094615869224071502685546875" lon="-59.100756347179412841796875">
        <ele>16</ele>
        <time>2020-02-25T11:03:00.000Z</time>
      </trkpt>
      <trkpt lat="-34.6604434959590435028076171875" lon="-59.100891463458538055419921875">
        <ele>16.200000762939453125</ele>
        <time>2020-02-25T11:03:11.000Z</time>
      </trkpt>
      <trkpt lat="-34.65989716351032257080078125" lon="-59.10103655420243740081787109375">
        <ele>15.80000019073486328125</ele>
        <time>2020-02-25T11:03:21.000Z</time>
      </trkpt>
      <trkpt lat="-34.65984888374805450439453125" lon="-59.1010498814284801483154296875">
        <ele>15.80000019073486328125</ele>
        <time>2020-02-25T11:03:23.000Z</time>
      </trkpt>
      <trkpt lat="-34.65931571088731288909912109375" lon="-59.10119287669658660888671875">
        <ele>15.80000019073486328125</ele>
        <time>2020-02-25T11:03:33.000Z</time>
      </trkpt>
      <trkpt lat="-34.6591201610863208770751953125" lon="-59.10124325193464756011962890625">
        <ele>15.6000003814697265625</ele>
        <time>2020-02-25T11:03:37.000Z</time>
      </trkpt>
      <trkpt lat="-34.6585716493427753448486328125" lon="-59.10138725303113460540771484375">
        <ele>15.6000003814697265625</ele>
        <time>2020-02-25T11:03:48.000Z</time>
      </trkpt>
      <trkpt lat="-34.65847014449536800384521484375" lon="-59.10141474567353725433349609375">
        <ele>15.6000003814697265625</ele>
        <time>2020-02-25T11:03:50.000Z</time>
      </trkpt>
      <trkpt lat="-34.65792129747569561004638671875" lon="-59.10156209953129291534423828125">
        <ele>15.3999996185302734375</ele>
        <time>2020-02-25T11:04:01.000Z</time>
      </trkpt>
      <trkpt lat="-34.65772281400859355926513671875" lon="-59.1016164980828762054443359375">
        <ele>15.3999996185302734375</ele>
        <time>2020-02-25T11:04:05.000Z</time>
      </trkpt>
      <trkpt lat="-34.65717740356922149658203125" lon="-59.101761169731616973876953125">
        <ele>15.3999996185302734375</ele>
        <time>2020-02-25T11:04:16.000Z</time>
      </trkpt>
      <trkpt lat="-34.65662746690213680267333984375" lon="-59.10191078670322895050048828125">
        <ele>15.3999996185302734375</ele>
        <time>2020-02-25T11:04:27.000Z</time>
      </trkpt>
      <trkpt lat="-34.65642898343503475189208984375" lon="-59.1019641794264316558837890625">
        <ele>15.19999980926513671875</ele>
        <time>2020-02-25T11:04:31.000Z</time>
      </trkpt>
      <trkpt lat="-34.6558773703873157501220703125" lon="-59.102108180522918701171875">
        <ele>15.19999980926513671875</ele>
        <time>2020-02-25T11:04:42.000Z</time>
      </trkpt>
      <trkpt lat="-34.655723981559276580810546875" lon="-59.1021469049155712127685546875">
        <ele>15.19999980926513671875</ele>
        <time>2020-02-25T11:04:45.000Z</time>
      </trkpt>
      <trkpt lat="-34.65513180010020732879638671875" lon="-59.10230733454227447509765625">
        <ele>15.19999980926513671875</ele>
        <time>2020-02-25T11:04:57.000Z</time>
      </trkpt>
      <trkpt lat="-34.65456250123679637908935546875" lon="-59.10246063955128192901611328125">
        <ele>15</ele>
        <time>2020-02-25T11:05:09.000Z</time>
      </trkpt>
      <trkpt lat="-34.6544651873409748077392578125" lon="-59.1024858690798282623291015625">
        <ele>15</ele>
        <time>2020-02-25T11:05:12.000Z</time>
      </trkpt>
      <trkpt lat="-34.65392363257706165313720703125" lon="-59.10263095982372760772705078125">
        <ele>15</ele>
        <time>2020-02-25T11:05:22.000Z</time>
      </trkpt>
      <trkpt lat="-34.65392363257706165313720703125" lon="-59.10263095982372760772705078125">
        <ele>15</ele>
        <time>2020-02-25T11:05:23.000Z</time>
      </trkpt>
      <trkpt lat="-34.65337847359478473663330078125" lon="-59.10278074443340301513671875">
        <ele>15</ele>
        <time>2020-02-25T11:05:33.000Z</time>
      </trkpt>
      <trkpt lat="-34.6531787328422069549560546875" lon="-59.10283631645143032073974609375">
        <ele>14.80000019073486328125</ele>
        <time>2020-02-25T11:05:38.000Z</time>
      </trkpt>
      <trkpt lat="-34.6528290398418903350830078125" lon="-59.10293036140501499176025390625">
        <ele>14.80000019073486328125</ele>
        <time>2020-02-25T11:05:45.000Z</time>
      </trkpt>
      <trkpt lat="-34.65227901935577392578125" lon="-59.10307503305375576019287109375">
        <ele>14.6000003814697265625</ele>
        <time>2020-02-25T11:05:56.000Z</time>
      </trkpt>
      <trkpt lat="-34.65217717923223972320556640625" lon="-59.10310135222971439361572265625">
        <ele>14.6000003814697265625</ele>
        <time>2020-02-25T11:05:58.000Z</time>
      </trkpt>
      <trkpt lat="-34.65158038772642612457275390625" lon="-59.10326010547578334808349609375">
        <ele>14.6000003814697265625</ele>
        <time>2020-02-25T11:06:09.000Z</time>
      </trkpt>
      <trkpt lat="-34.651034139096736907958984375" lon="-59.1034095548093318939208984375">
        <ele>15</ele>
        <time>2020-02-25T11:06:20.000Z</time>
      </trkpt>
      <trkpt lat="-34.65088787488639354705810546875" lon="-59.1034471057355403900146484375">
        <ele>14.80000019073486328125</ele>
        <time>2020-02-25T11:06:23.000Z</time>
      </trkpt>
      <trkpt lat="-34.65035076253116130828857421875" lon="-59.10359471105039119720458984375">
        <ele>14.6000003814697265625</ele>
        <time>2020-02-25T11:06:34.000Z</time>
      </trkpt>
      <trkpt lat="-34.65030147694051265716552734375" lon="-59.1036077030003070831298828125">
        <ele>14.6000003814697265625</ele>
        <time>2020-02-25T11:06:36.000Z</time>
      </trkpt>
      <trkpt lat="-34.6497679688036441802978515625" lon="-59.10375329665839672088623046875">
        <ele>14.80000019073486328125</ele>
        <time>2020-02-25T11:06:46.000Z</time>
      </trkpt>
      <trkpt lat="-34.6497679688036441802978515625" lon="-59.10375329665839672088623046875">
        <ele>14.80000019073486328125</ele>
        <time>2020-02-25T11:06:47.000Z</time>
      </trkpt>
      <trkpt lat="-34.64922507293522357940673828125" lon="-59.1038983874022960662841796875">
        <ele>14.6000003814697265625</ele>
        <time>2020-02-25T11:06:57.000Z</time>
      </trkpt>
      <trkpt lat="-34.64903027750551700592041015625" lon="-59.10395077429711818695068359375">
        <ele>14.6000003814697265625</ele>
        <time>2020-02-25T11:07:01.000Z</time>
      </trkpt>
      <trkpt lat="-34.6485277824103832244873046875" lon="-59.10408237017691135406494140625">
        <ele>14.6000003814697265625</ele>
        <time>2020-02-25T11:07:11.000Z</time>
      </trkpt>
      <trkpt lat="-34.64804640971124172210693359375" lon="-59.10420960746705532073974609375">
        <ele>14.3999996185302734375</ele>
        <time>2020-02-25T11:07:21.000Z</time>
      </trkpt>
      <trkpt lat="-34.647511057555675506591796875" lon="-59.10435411147773265838623046875">
        <ele>14.6000003814697265625</ele>
        <time>2020-02-25T11:07:32.000Z</time>
      </trkpt>
      <trkpt lat="-34.64741357602179050445556640625" lon="-59.10438193939626216888427734375">
        <ele>14.3999996185302734375</ele>
        <time>2020-02-25T11:07:35.000Z</time>
      </trkpt>
      <trkpt lat="-34.646868668496608734130859375" lon="-59.10452526994049549102783203125">
        <ele>14.6000003814697265625</ele>
        <time>2020-02-25T11:07:45.000Z</time>
      </trkpt>
      <trkpt lat="-34.64677034877240657806396484375" lon="-59.10455209203064441680908203125">
        <ele>14.3999996185302734375</ele>
        <time>2020-02-25T11:07:48.000Z</time>
      </trkpt>
      <trkpt lat="-34.6462676860392093658447265625" lon="-59.10469022579491138458251953125">
        <ele>14.6000003814697265625</ele>
        <time>2020-02-25T11:07:57.000Z</time>
      </trkpt>
      <trkpt lat="-34.6457228623330593109130859375" lon="-59.104833640158176422119140625">
        <ele>14.6000003814697265625</ele>
        <time>2020-02-25T11:08:08.000Z</time>
      </trkpt>
      <trkpt lat="-34.64557643048465251922607421875" lon="-59.10487353801727294921875">
        <ele>14.6000003814697265625</ele>
        <time>2020-02-25T11:08:11.000Z</time>
      </trkpt>
      <trkpt lat="-34.64519304223358631134033203125" lon="-59.10497923381626605987548828125">
        <ele>14.6000003814697265625</ele>
        <time>2020-02-25T11:08:20.000Z</time>
      </trkpt>
      <trkpt lat="-34.64469918049871921539306640625" lon="-59.10510730929672718048095703125">
        <ele>14.80000019073486328125</ele>
        <time>2020-02-25T11:08:29.000Z</time>
      </trkpt>
      <trkpt lat="-34.64415234513580799102783203125" lon="-59.105250723659992218017578125">
        <ele>14.80000019073486328125</ele>
        <time>2020-02-25T11:08:40.000Z</time>
      </trkpt>
      <trkpt lat="-34.6441028080880641937255859375" lon="-59.1052639670670032501220703125">
        <ele>14.80000019073486328125</ele>
        <time>2020-02-25T11:08:41.000Z</time>
      </trkpt>
      <trkpt lat="-34.64356494136154651641845703125" lon="-59.10540637560188770294189453125">
        <ele>15.19999980926513671875</ele>
        <time>2020-02-25T11:08:52.000Z</time>
      </trkpt>
      <trkpt lat="-34.64356494136154651641845703125" lon="-59.10540637560188770294189453125">
        <ele>15</ele>
        <time>2020-02-25T11:08:53.000Z</time>
      </trkpt>
      <trkpt lat="-34.64295188896358013153076171875" lon="-59.10557267256081104278564453125">
        <ele>15.19999980926513671875</ele>
        <time>2020-02-25T11:09:05.000Z</time>
      </trkpt>
      <trkpt lat="-34.64238057844340801239013671875" lon="-59.1057279892265796661376953125">
        <ele>15.3999996185302734375</ele>
        <time>2020-02-25T11:09:17.000Z</time>
      </trkpt>
      <trkpt lat="-34.64233397506177425384521484375" lon="-59.1057407297194004058837890625">
        <ele>15.3999996185302734375</ele>
        <time>2020-02-25T11:09:18.000Z</time>
      </trkpt>
      <trkpt lat="-34.6418232657015323638916015625" lon="-59.105879701673984527587890625">
        <ele>15.6000003814697265625</ele>
        <time>2020-02-25T11:09:29.000Z</time>
      </trkpt>
      <trkpt lat="-34.6415865607559680938720703125" lon="-59.1059465892612934112548828125">
        <ele>16</ele>
        <time>2020-02-25T11:09:35.000Z</time>
      </trkpt>
      <trkpt lat="-34.64119671843945980072021484375" lon="-59.10604742355644702911376953125">
        <ele>15.80000019073486328125</ele>
        <time>2020-02-25T11:09:42.000Z</time>
      </trkpt>
      <trkpt lat="-34.64066706597805023193359375" lon="-59.106190167367458343505859375">
        <ele>16.3999996185302734375</ele>
        <time>2020-02-25T11:09:53.000Z</time>
      </trkpt>
      <trkpt lat="-34.6406206302344799041748046875" lon="-59.1062025725841522216796875">
        <ele>16.3999996185302734375</ele>
        <time>2020-02-25T11:09:54.000Z</time>
      </trkpt>
      <trkpt lat="-34.6400503255426883697509765625" lon="-59.1063505969941616058349609375">
        <ele>16.3999996185302734375</ele>
        <time>2020-02-25T11:10:06.000Z</time>
      </trkpt>
      <trkpt lat="-34.64000212959945201873779296875" lon="-59.10636342130601406097412109375">
        <ele>16.3999996185302734375</ele>
        <time>2020-02-25T11:10:07.000Z</time>
      </trkpt>
      <trkpt lat="-34.639428891241550445556640625" lon="-59.10651664249598979949951171875">
        <ele>16.6000003814697265625</ele>
        <time>2020-02-25T11:10:19.000Z</time>
      </trkpt>
      <trkpt lat="-34.63928765617311000823974609375" lon="-59.10655469633638858795166015625">
        <ele>16.799999237060546875</ele>
        <time>2020-02-25T11:10:23.000Z</time>
      </trkpt>
      <trkpt lat="-34.6389566548168659210205078125" lon="-59.10664404742419719696044921875">
        <ele>17</ele>
        <time>2020-02-25T11:10:30.000Z</time>
      </trkpt>
      <trkpt lat="-34.63871575891971588134765625" lon="-59.10671009682118892669677734375">
        <ele>17</ele>
        <time>2020-02-25T11:10:34.000Z</time>
      </trkpt>
      <trkpt lat="-34.638255424797534942626953125" lon="-59.10683029331266880035400390625">
        <ele>17</ele>
        <time>2020-02-25T11:10:44.000Z</time>
      </trkpt>
      <trkpt lat="-34.63786206208169460296630859375" lon="-59.1069390065968036651611328125">
        <ele>17.200000762939453125</ele>
        <time>2020-02-25T11:10:54.000Z</time>
      </trkpt>
      <trkpt lat="-34.63738697580993175506591796875" lon="-59.107065908610820770263671875">
        <ele>17.200000762939453125</ele>
        <time>2020-02-25T11:11:05.000Z</time>
      </trkpt>
      <trkpt lat="-34.6368504501879215240478515625" lon="-59.1072105802595615386962890625">
        <ele>17.6000003814697265625</ele>
        <time>2020-02-25T11:11:16.000Z</time>
      </trkpt>
      <trkpt lat="-34.63639833033084869384765625" lon="-59.10732918418943881988525390625">
        <ele>17.799999237060546875</ele>
        <time>2020-02-25T11:11:27.000Z</time>
      </trkpt>
      <trkpt lat="-34.63597764261066913604736328125" lon="-59.107440412044525146484375">
        <ele>17.799999237060546875</ele>
        <time>2020-02-25T11:11:35.000Z</time>
      </trkpt>
      <trkpt lat="-34.63569500483572483062744140625" lon="-59.1075168550014495849609375">
        <ele>18</ele>
        <time>2020-02-25T11:11:41.000Z</time>
      </trkpt>
      <trkpt lat="-34.63536165654659271240234375" lon="-59.1076038591563701629638671875">
        <ele>18</ele>
        <time>2020-02-25T11:11:49.000Z</time>
      </trkpt>
      <trkpt lat="-34.634741730988025665283203125" lon="-59.10776806063950061798095703125">
        <ele>18.200000762939453125</ele>
        <time>2020-02-25T11:12:01.000Z</time>
      </trkpt>
      <trkpt lat="-34.63469378650188446044921875" lon="-59.10778130404651165008544921875">
        <ele>18.200000762939453125</ele>
        <time>2020-02-25T11:12:02.000Z</time>
      </trkpt>
      <trkpt lat="-34.63416229002177715301513671875" lon="-59.1079173423349857330322265625">
        <ele>18.200000762939453125</ele>
        <time>2020-02-25T11:12:13.000Z</time>
      </trkpt>
      <trkpt lat="-34.6339184604585170745849609375" lon="-59.10798129625618457794189453125">
        <ele>18.3999996185302734375</ele>
        <time>2020-02-25T11:12:18.000Z</time>
      </trkpt>
      <trkpt lat="-34.6333840303122997283935546875" lon="-59.1081289015710353851318359375">
        <ele>18.6000003814697265625</ele>
        <time>2020-02-25T11:12:29.000Z</time>
      </trkpt>
      <trkpt lat="-34.633336253464221954345703125" lon="-59.1081426478922367095947265625">
        <ele>18.3999996185302734375</ele>
        <time>2020-02-25T11:12:30.000Z</time>
      </trkpt>
      <trkpt lat="-34.6329019032418727874755859375" lon="-59.108257479965686798095703125">
        <ele>18.799999237060546875</ele>
        <time>2020-02-25T11:12:40.000Z</time>
      </trkpt>
      <trkpt lat="-34.63239354081451892852783203125" lon="-59.108395278453826904296875">
        <ele>18.6000003814697265625</ele>
        <time>2020-02-25T11:12:50.000Z</time>
      </trkpt>
      <trkpt lat="-34.6318766288459300994873046875" lon="-59.10853835754096508026123046875">
        <ele>18.6000003814697265625</ele>
        <time>2020-02-25T11:13:00.000Z</time>
      </trkpt>
      <trkpt lat="-34.6316711045801639556884765625" lon="-59.10859577357769012451171875">
        <ele>18.6000003814697265625</ele>
        <time>2020-02-25T11:13:04.000Z</time>
      </trkpt>
      <trkpt lat="-34.63116341270506381988525390625" lon="-59.1087220050394535064697265625">
        <ele>18.3999996185302734375</ele>
        <time>2020-02-25T11:13:13.000Z</time>
      </trkpt>
      <trkpt lat="-34.63056720793247222900390625" lon="-59.10884178243577480316162109375">
        <ele>18.6000003814697265625</ele>
        <time>2020-02-25T11:13:25.000Z</time>
      </trkpt>
      <trkpt lat="-34.63056720793247222900390625" lon="-59.10884178243577480316162109375">
        <ele>18.6000003814697265625</ele>
        <time>2020-02-25T11:13:26.000Z</time>
      </trkpt>
      <trkpt lat="-34.6300448477268218994140625" lon="-59.10890229977667331695556640625">
        <ele>18.200000762939453125</ele>
        <time>2020-02-25T11:13:36.000Z</time>
      </trkpt>
      <trkpt lat="-34.62944730184972286224365234375" lon="-59.10892375744879245758056640625">
        <ele>18.200000762939453125</ele>
        <time>2020-02-25T11:13:48.000Z</time>
      </trkpt>
      <trkpt lat="-34.6293989382684230804443359375" lon="-59.1089211590588092803955078125">
        <ele>18.200000762939453125</ele>
        <time>2020-02-25T11:13:49.000Z</time>
      </trkpt>
      <trkpt lat="-34.62918763048946857452392578125" lon="-59.1089181415736675262451171875">
        <ele>18.200000762939453125</ele>
        <time>2020-02-25T11:13:55.000Z</time>
      </trkpt>
      <trkpt lat="-34.62911521084606647491455078125" lon="-59.10888972692191600799560546875">
        <ele>18.200000762939453125</ele>
        <time>2020-02-25T11:13:59.000Z</time>
      </trkpt>
      <trkpt lat="-34.62910967878997325897216796875" lon="-59.1088866256177425384521484375">
        <ele>18.200000762939453125</ele>
        <time>2020-02-25T11:14:05.000Z</time>
      </trkpt>
      <trkpt lat="-34.6291106007993221282958984375" lon="-59.10888603888452053070068359375">
        <ele>17.799999237060546875</ele>
        <time>2020-02-25T11:14:29.000Z</time>
      </trkpt>
      <trkpt lat="-34.62910984642803668975830078125" lon="-59.10888503305613994598388671875">
        <ele>17.799999237060546875</ele>
        <time>2020-02-25T11:14:38.000Z</time>
      </trkpt>
      <trkpt lat="-34.629109092056751251220703125" lon="-59.1088849492371082305908203125">
        <ele>17.6000003814697265625</ele>
        <time>2020-02-25T11:14:43.000Z</time>
      </trkpt>
      <trkpt lat="-34.62910967878997325897216796875" lon="-59.1088819317519664764404296875">
        <ele>17.799999237060546875</ele>
        <time>2020-02-25T11:14:49.000Z</time>
      </trkpt>
      <trkpt lat="-34.6291092596948146820068359375" lon="-59.10888268612325191497802734375">
        <ele>17.6000003814697265625</ele>
        <time>2020-02-25T11:14:51.000Z</time>
      </trkpt>
      <trkpt lat="-34.62910817004740238189697265625" lon="-59.10888142883777618408203125">
        <ele>17.6000003814697265625</ele>
        <time>2020-02-25T11:14:58.000Z</time>
      </trkpt>
      <trkpt lat="-34.62910548783838748931884765625" lon="-59.10888117738068103790283203125">
        <ele>17.3999996185302734375</ele>
        <time>2020-02-25T11:15:11.000Z</time>
      </trkpt>
      <trkpt lat="-34.62910582311451435089111328125" lon="-59.1088805906474590301513671875">
        <ele>17.3999996185302734375</ele>
        <time>2020-02-25T11:15:27.000Z</time>
      </trkpt>
      <trkpt lat="-34.629107080399990081787109375" lon="-59.10887966863811016082763671875">
        <ele>17.200000762939453125</ele>
        <time>2020-02-25T11:16:14.000Z</time>
      </trkpt>
      <trkpt lat="-34.6291069127619266510009765625" lon="-59.1088681854307651519775390625">
        <ele>17</ele>
        <time>2020-02-25T11:16:39.000Z</time>
      </trkpt>
      <trkpt lat="-34.62912376038730144500732421875" lon="-59.1088624857366085052490234375">
        <ele>17</ele>
        <time>2020-02-25T11:16:42.000Z</time>
      </trkpt>
      <trkpt lat="-34.62915175594389438629150390625" lon="-59.108851589262485504150390625">
        <ele>16.799999237060546875</ele>
        <time>2020-02-25T11:16:51.000Z</time>
      </trkpt>
      <trkpt lat="-34.62922551669180393218994140625" lon="-59.1087759844958782196044921875">
        <ele>16.799999237060546875</ele>
        <time>2020-02-25T11:16:57.000Z</time>
      </trkpt>
      <trkpt lat="-34.62923021055757999420166015625" lon="-59.10862184129655361175537109375">
        <ele>16.3999996185302734375</ele>
        <time>2020-02-25T11:17:03.000Z</time>
      </trkpt>
      <trkpt lat="-34.629198610782623291015625" lon="-59.10835814662277698516845703125">
        <ele>16.200000762939453125</ele>
        <time>2020-02-25T11:17:12.000Z</time>
      </trkpt>
      <trkpt lat="-34.62914940901100635528564453125" lon="-59.10808724351227283477783203125">
        <ele>16</ele>
        <time>2020-02-25T11:17:21.000Z</time>
      </trkpt>
      <trkpt lat="-34.62908553890883922576904296875" lon="-59.10785615444183349609375">
        <ele>16.200000762939453125</ele>
        <time>2020-02-25T11:17:29.000Z</time>
      </trkpt>
      <trkpt lat="-34.62903709150850772857666015625" lon="-59.1076005063951015472412109375">
        <ele>16.200000762939453125</ele>
        <time>2020-02-25T11:17:37.000Z</time>
      </trkpt>
      <trkpt lat="-34.62897171266376972198486328125" lon="-59.10727319307625293731689453125">
        <ele>16</ele>
        <time>2020-02-25T11:17:47.000Z</time>
      </trkpt>
      <trkpt lat="-34.62890784256160259246826171875" lon="-59.10694227553904056549072265625">
        <ele>16</ele>
        <time>2020-02-25T11:17:57.000Z</time>
      </trkpt>
      <trkpt lat="-34.6288782544434070587158203125" lon="-59.10679358057677745819091796875">
        <ele>15.80000019073486328125</ele>
        <time>2020-02-25T11:18:02.000Z</time>
      </trkpt>
      <trkpt lat="-34.62886207737028598785400390625" lon="-59.10666801966726779937744140625">
        <ele>16</ele>
        <time>2020-02-25T11:18:06.000Z</time>
      </trkpt>
      <trkpt lat="-34.62881413288414478302001953125" lon="-59.10637062974274158477783203125">
        <ele>16</ele>
        <time>2020-02-25T11:18:15.000Z</time>
      </trkpt>
      <trkpt lat="-34.62876551784574985504150390625" lon="-59.106090255081653594970703125">
        <ele>16.200000762939453125</ele>
        <time>2020-02-25T11:18:23.000Z</time>
      </trkpt>
      <trkpt lat="-34.62874640710651874542236328125" lon="-59.10576528869569301605224609375">
        <ele>16</ele>
        <time>2020-02-25T11:18:32.000Z</time>
      </trkpt>
      <trkpt lat="-34.628798961639404296875" lon="-59.10561106167733669281005859375">
        <ele>15.80000019073486328125</ele>
        <time>2020-02-25T11:18:38.000Z</time>
      </trkpt>
      <trkpt lat="-34.62891203351318836212158203125" lon="-59.1054262407124042510986328125">
        <ele>15.6000003814697265625</ele>
        <time>2020-02-25T11:18:46.000Z</time>
      </trkpt>
      <trkpt lat="-34.62906491942703723907470703125" lon="-59.10523228347301483154296875">
        <ele>15.6000003814697265625</ele>
        <time>2020-02-25T11:18:54.000Z</time>
      </trkpt>
      <trkpt lat="-34.62921026162803173065185546875" lon="-59.10504721105098724365234375">
        <ele>15.3999996185302734375</ele>
        <time>2020-02-25T11:19:02.000Z</time>
      </trkpt>
      <trkpt lat="-34.6294009499251842498779296875" lon="-59.10481913946568965911865234375">
        <ele>15.80000019073486328125</ele>
        <time>2020-02-25T11:19:12.000Z</time>
      </trkpt>
      <trkpt lat="-34.6295571886003017425537109375" lon="-59.1046410240232944488525390625">
        <ele>15.3999996185302734375</ele>
        <time>2020-02-25T11:19:20.000Z</time>
      </trkpt>
      <trkpt lat="-34.6295742876827716827392578125" lon="-59.104617051780223846435546875">
        <ele>15.3999996185302734375</ele>
        <time>2020-02-25T11:19:21.000Z</time>
      </trkpt>
      <trkpt lat="-34.6296956576406955718994140625" lon="-59.1044177301228046417236328125">
        <ele>15.6000003814697265625</ele>
        <time>2020-02-25T11:19:29.000Z</time>
      </trkpt>
      <trkpt lat="-34.62974435649812221527099609375" lon="-59.1041721403598785400390625">
        <ele>15.6000003814697265625</ele>
        <time>2020-02-25T11:19:37.000Z</time>
      </trkpt>
      <trkpt lat="-34.6297087334096431732177734375" lon="-59.10388045012950897216796875">
        <ele>15.6000003814697265625</ele>
        <time>2020-02-25T11:19:47.000Z</time>
      </trkpt>
      <trkpt lat="-34.6296183764934539794921875" lon="-59.1035778634250164031982421875">
        <ele>15.6000003814697265625</ele>
        <time>2020-02-25T11:19:56.000Z</time>
      </trkpt>
      <trkpt lat="-34.62960052303969860076904296875" lon="-59.10355313681066036224365234375">
        <ele>15.6000003814697265625</ele>
        <time>2020-02-25T11:20:00.000Z</time>
      </trkpt>
      <trkpt lat="-34.62960605509579181671142578125" lon="-59.1035523824393749237060546875">
        <ele>15.3999996185302734375</ele>
        <time>2020-02-25T11:20:13.000Z</time>
      </trkpt>
      <trkpt lat="-34.62960069067776203155517578125" lon="-59.103544838726520538330078125">
        <ele>15.3999996185302734375</ele>
        <time>2020-02-25T11:20:41.000Z</time>
      </trkpt>
      <trkpt lat="-34.62958845309913158416748046875" lon="-59.1035225428640842437744140625">
        <ele>15.3999996185302734375</ele>
        <time>2020-02-25T11:20:49.000Z</time>
      </trkpt>
      <trkpt lat="-34.62958744727075099945068359375" lon="-59.10352128557860851287841796875">
        <ele>15.3999996185302734375</ele>
        <time>2020-02-25T11:21:03.000Z</time>
      </trkpt>
      <trkpt lat="-34.62958753108978271484375" lon="-59.10352145321667194366455078125">
        <ele>15.3999996185302734375</ele>
        <time>2020-02-25T11:21:07.000Z</time>
      </trkpt>
      <trkpt lat="-34.62962717749178409576416015625" lon="-59.10344249568879604339599609375">
        <ele>13</ele>
        <time>2020-02-25T12:56:23.000Z</time>
      </trkpt>
      <trkpt lat="-34.62959566153585910797119140625" lon="-59.10351206548511981964111328125">
        <ele>11.6000003814697265625</ele>
        <time>2020-02-25T12:56:24.000Z</time>
      </trkpt>
      <trkpt lat="-34.629605300724506378173828125" lon="-59.10352463833987712860107421875">
        <ele>10.19999980926513671875</ele>
        <time>2020-02-25T12:56:26.000Z</time>
      </trkpt>
      <trkpt lat="-34.62962172925472259521484375" lon="-59.10354928113520145416259765625">
        <ele>9.6000003814697265625</ele>
        <time>2020-02-25T12:56:32.000Z</time>
      </trkpt>
      <trkpt lat="-34.62960907258093357086181640625" lon="-59.1035446710884571075439453125">
        <ele>9.6000003814697265625</ele>
        <time>2020-02-25T12:56:48.000Z</time>
      </trkpt>
      <trkpt lat="-34.6296022832393646240234375" lon="-59.103544168174266815185546875">
        <ele>9.3999996185302734375</ele>
        <time>2020-02-25T12:57:05.000Z</time>
      </trkpt>
      <trkpt lat="-34.62959532625973224639892578125" lon="-59.10352949984371662139892578125">
        <ele>9.3999996185302734375</ele>
        <time>2020-02-25T12:57:16.000Z</time>
      </trkpt>
      <trkpt lat="-34.629592560231685638427734375" lon="-59.10352296195924282073974609375">
        <ele>9.6000003814697265625</ele>
        <time>2020-02-25T12:57:46.000Z</time>
      </trkpt>
      <trkpt lat="-34.629586525261402130126953125" lon="-59.10349295474588871002197265625">
        <ele>9.6000003814697265625</ele>
        <time>2020-02-25T12:57:54.000Z</time>
      </trkpt>
      <trkpt lat="-34.62958526797592639923095703125" lon="-59.1034801304340362548828125">
        <ele>9.6000003814697265625</ele>
        <time>2020-02-25T12:57:55.000Z</time>
      </trkpt>
      <trkpt lat="-34.62955039925873279571533203125" lon="-59.10334258340299129486083984375">
        <ele>9.3999996185302734375</ele>
        <time>2020-02-25T12:58:02.000Z</time>
      </trkpt>
      <trkpt lat="-34.62953698821365833282470703125" lon="-59.1032989136874675750732421875">
        <ele>9.19999980926513671875</ele>
        <time>2020-02-25T12:58:04.000Z</time>
      </trkpt>
      <trkpt lat="-34.6295022033154964447021484375" lon="-59.10317561589181423187255859375">
        <ele>9.3999996185302734375</ele>
        <time>2020-02-25T12:58:09.000Z</time>
      </trkpt>
      <trkpt lat="-34.629447050392627716064453125" lon="-59.1029797308146953582763671875">
        <ele>9.3999996185302734375</ele>
        <time>2020-02-25T12:58:18.000Z</time>
      </trkpt>
      <trkpt lat="-34.62939240038394927978515625" lon="-59.1027881205081939697265625">
        <ele>9.19999980926513671875</ele>
        <time>2020-02-25T12:58:26.000Z</time>
      </trkpt>
      <trkpt lat="-34.62934923358261585235595703125" lon="-59.102591983973979949951171875">
        <ele>9.19999980926513671875</ele>
        <time>2020-02-25T12:58:34.000Z</time>
      </trkpt>
      <trkpt lat="-34.6293131075799465179443359375" lon="-59.10240397788584232330322265625">
        <ele>9.19999980926513671875</ele>
        <time>2020-02-25T12:58:41.000Z</time>
      </trkpt>
      <trkpt lat="-34.62925736792385578155517578125" lon="-59.102207086980342864990234375">
        <ele>9.19999980926513671875</ele>
        <time>2020-02-25T12:58:48.000Z</time>
      </trkpt>
      <trkpt lat="-34.62918897159397602081298828125" lon="-59.10193995572626590728759765625">
        <ele>9</ele>
        <time>2020-02-25T12:58:57.000Z</time>
      </trkpt>
      <trkpt lat="-34.62911236099898815155029296875" lon="-59.101678691804409027099609375">
        <ele>8.80000019073486328125</ele>
        <time>2020-02-25T12:59:06.000Z</time>
      </trkpt>
      <trkpt lat="-34.62902166880667209625244140625" lon="-59.1013546474277973175048828125">
        <ele>9</ele>
        <time>2020-02-25T12:59:17.000Z</time>
      </trkpt>
      <trkpt lat="-34.62896986864507198333740234375" lon="-59.10121073015034198760986328125">
        <ele>9</ele>
        <time>2020-02-25T12:59:23.000Z</time>
      </trkpt>
      <trkpt lat="-34.628927707672119140625" lon="-59.1010948084294795989990234375">
        <ele>9</ele>
        <time>2020-02-25T12:59:29.000Z</time>
      </trkpt>
      <trkpt lat="-34.62888940237462520599365234375" lon="-59.100884757936000823974609375">
        <ele>9</ele>
        <time>2020-02-25T12:59:36.000Z</time>
      </trkpt>
      <trkpt lat="-34.62878622114658355712890625" lon="-59.1005603782832622528076171875">
        <ele>9</ele>
        <time>2020-02-25T12:59:45.000Z</time>
      </trkpt>
      <trkpt lat="-34.62868630886077880859375" lon="-59.1002385132014751434326171875">
        <ele>8.6000003814697265625</ele>
        <time>2020-02-25T12:59:55.000Z</time>
      </trkpt>
      <trkpt lat="-34.62865035049617290496826171875" lon="-59.1000950150191783905029296875">
        <ele>8.80000019073486328125</ele>
        <time>2020-02-25T13:00:01.000Z</time>
      </trkpt>
      <trkpt lat="-34.628578014671802520751953125" lon="-59.09985353238880634307861328125">
        <ele>8.80000019073486328125</ele>
        <time>2020-02-25T13:00:09.000Z</time>
      </trkpt>
      <trkpt lat="-34.6285117976367473602294921875" lon="-59.0996122173964977264404296875">
        <ele>8.80000019073486328125</ele>
        <time>2020-02-25T13:00:15.000Z</time>
      </trkpt>
      <trkpt lat="-34.6284950338304042816162109375" lon="-59.0995667874813079833984375">
        <ele>8.80000019073486328125</ele>
        <time>2020-02-25T13:00:16.000Z</time>
      </trkpt>
      <trkpt lat="-34.6283897571265697479248046875" lon="-59.099247939884662628173828125">
        <ele>8.80000019073486328125</ele>
        <time>2020-02-25T13:00:23.000Z</time>
      </trkpt>
      <trkpt lat="-34.62833401747047901153564453125" lon="-59.09905121661722660064697265625">
        <ele>8.80000019073486328125</ele>
        <time>2020-02-25T13:00:29.000Z</time>
      </trkpt>
      <trkpt lat="-34.628272242844104766845703125" lon="-59.09883680753409862518310546875">
        <ele>8.6000003814697265625</ele>
        <time>2020-02-25T13:00:37.000Z</time>
      </trkpt>
      <trkpt lat="-34.628240056335926055908203125" lon="-59.09872935153543949127197265625">
        <ele>8.80000019073486328125</ele>
        <time>2020-02-25T13:00:43.000Z</time>
      </trkpt>
      <trkpt lat="-34.62824164889752864837646484375" lon="-59.09871744923293590545654296875">
        <ele>8.6000003814697265625</ele>
        <time>2020-02-25T13:00:54.000Z</time>
      </trkpt>
      <trkpt lat="-34.6282271482050418853759765625" lon="-59.09868073649704456329345703125">
        <ele>8.6000003814697265625</ele>
        <time>2020-02-25T13:01:02.000Z</time>
      </trkpt>
      <trkpt lat="-34.628222621977329254150390625" lon="-59.0986677445471286773681640625">
        <ele>8.6000003814697265625</ele>
        <time>2020-02-25T13:01:03.000Z</time>
      </trkpt>
      <trkpt lat="-34.62819336913526058197021484375" lon="-59.09857328049838542938232421875">
        <ele>8.3999996185302734375</ele>
        <time>2020-02-25T13:01:09.000Z</time>
      </trkpt>
      <trkpt lat="-34.628146179020404815673828125" lon="-59.09841804765164852142333984375">
        <ele>8.3999996185302734375</ele>
        <time>2020-02-25T13:01:16.000Z</time>
      </trkpt>
      <trkpt lat="-34.62807903997600078582763671875" lon="-59.0982201509177684783935546875">
        <ele>8.6000003814697265625</ele>
        <time>2020-02-25T13:01:23.000Z</time>
      </trkpt>
      <trkpt lat="-34.62798960506916046142578125" lon="-59.09793189726769924163818359375">
        <ele>8.6000003814697265625</ele>
        <time>2020-02-25T13:01:32.000Z</time>
      </trkpt>
      <trkpt lat="-34.62793118320405483245849609375" lon="-59.09772939048707485198974609375">
        <ele>8.6000003814697265625</ele>
        <time>2020-02-25T13:01:38.000Z</time>
      </trkpt>
      <trkpt lat="-34.627865888178348541259765625" lon="-59.09753241576254367828369140625">
        <ele>8.6000003814697265625</ele>
        <time>2020-02-25T13:01:44.000Z</time>
      </trkpt>
      <trkpt lat="-34.62780863977968692779541015625" lon="-59.09733275882899761199951171875">
        <ele>8.6000003814697265625</ele>
        <time>2020-02-25T13:01:50.000Z</time>
      </trkpt>
      <trkpt lat="-34.62774795480072498321533203125" lon="-59.0971559844911098480224609375">
        <ele>8.6000003814697265625</ele>
        <time>2020-02-25T13:01:56.000Z</time>
      </trkpt>
      <trkpt lat="-34.62769431062042713165283203125" lon="-59.0969853289425373077392578125">
        <ele>8.80000019073486328125</ele>
        <time>2020-02-25T13:02:02.000Z</time>
      </trkpt>
      <trkpt lat="-34.62762826122343540191650390625" lon="-59.0967935509979724884033203125">
        <ele>8.6000003814697265625</ele>
        <time>2020-02-25T13:02:08.000Z</time>
      </trkpt>
      <trkpt lat="-34.62755366228520870208740234375" lon="-59.0965571813285350799560546875">
        <ele>8.6000003814697265625</ele>
        <time>2020-02-25T13:02:14.000Z</time>
      </trkpt>
      <trkpt lat="-34.62745182216167449951171875" lon="-59.0962312929332256317138671875">
        <ele>8.80000019073486328125</ele>
        <time>2020-02-25T13:02:22.000Z</time>
      </trkpt>
      <trkpt lat="-34.62738216854631900787353515625" lon="-59.09598402678966522216796875">
        <ele>9</ele>
        <time>2020-02-25T13:02:28.000Z</time>
      </trkpt>
      <trkpt lat="-34.627300612628459930419921875" lon="-59.095686972141265869140625">
        <ele>8.80000019073486328125</ele>
        <time>2020-02-25T13:02:35.000Z</time>
      </trkpt>
      <trkpt lat="-34.62721981108188629150390625" lon="-59.09532009623944759368896484375">
        <ele>8.80000019073486328125</ele>
        <time>2020-02-25T13:02:43.000Z</time>
      </trkpt>
      <trkpt lat="-34.62720765732228755950927734375" lon="-59.0950407274067401885986328125">
        <ele>8.80000019073486328125</ele>
        <time>2020-02-25T13:02:49.000Z</time>
      </trkpt>
      <trkpt lat="-34.627268426120281219482421875" lon="-59.0947373025119304656982421875">
        <ele>8.6000003814697265625</ele>
        <time>2020-02-25T13:02:56.000Z</time>
      </trkpt>
      <trkpt lat="-34.627389796078205108642578125" lon="-59.09449229948222637176513671875">
        <ele>8.6000003814697265625</ele>
        <time>2020-02-25T13:03:03.000Z</time>
      </trkpt>
      <trkpt lat="-34.627539999783039093017578125" lon="-59.0942819975316524505615234375">
        <ele>8.19999980926513671875</ele>
        <time>2020-02-25T13:03:10.000Z</time>
      </trkpt>
      <trkpt lat="-34.6277255751192569732666015625" lon="-59.0940670855343341827392578125">
        <ele>8.6000003814697265625</ele>
        <time>2020-02-25T13:03:18.000Z</time>
      </trkpt>
      <trkpt lat="-34.62791240774095058441162109375" lon="-59.09383314661681652069091796875">
        <ele>8.6000003814697265625</ele>
        <time>2020-02-25T13:03:27.000Z</time>
      </trkpt>
      <trkpt lat="-34.6280487813055515289306640625" lon="-59.0936432965099811553955078125">
        <ele>8.6000003814697265625</ele>
        <time>2020-02-25T13:03:34.000Z</time>
      </trkpt>
      <trkpt lat="-34.6282087080180644989013671875" lon="-59.0934431366622447967529296875">
        <ele>8.6000003814697265625</ele>
        <time>2020-02-25T13:03:42.000Z</time>
      </trkpt>
      <trkpt lat="-34.628356061875820159912109375" lon="-59.09327155910432338714599609375">
        <ele>8.19999980926513671875</ele>
        <time>2020-02-25T13:03:49.000Z</time>
      </trkpt>
      <trkpt lat="-34.62850458920001983642578125" lon="-59.0930914320051670074462890625">
        <ele>8.19999980926513671875</ele>
        <time>2020-02-25T13:03:56.000Z</time>
      </trkpt>
      <trkpt lat="-34.628526382148265838623046875" lon="-59.0930666215717792510986328125">
        <ele>8.19999980926513671875</ele>
        <time>2020-02-25T13:03:57.000Z</time>
      </trkpt>
      <trkpt lat="-34.62877473793923854827880859375" lon="-59.0927460975944995880126953125">
        <ele>8.19999980926513671875</ele>
        <time>2020-02-25T13:04:09.000Z</time>
      </trkpt>
      <trkpt lat="-34.62892326526343822479248046875" lon="-59.0925536490976810455322265625">
        <ele>8.3999996185302734375</ele>
        <time>2020-02-25T13:04:17.000Z</time>
      </trkpt>
      <trkpt lat="-34.62907698936760425567626953125" lon="-59.0923669002950191497802734375">
        <ele>8.19999980926513671875</ele>
        <time>2020-02-25T13:04:25.000Z</time>
      </trkpt>
      <trkpt lat="-34.62924848310649394989013671875" lon="-59.0921620465815067291259765625">
        <ele>8.19999980926513671875</ele>
        <time>2020-02-25T13:04:34.000Z</time>
      </trkpt>
      <trkpt lat="-34.629362560808658599853515625" lon="-59.0920343063771724700927734375">
        <ele>8</ele>
        <time>2020-02-25T13:04:40.000Z</time>
      </trkpt>
      <trkpt lat="-34.62951201014220714569091796875" lon="-59.09183322452008724212646484375">
        <ele>8.19999980926513671875</ele>
        <time>2020-02-25T13:04:48.000Z</time>
      </trkpt>
      <trkpt lat="-34.6296621300280094146728515625" lon="-59.09163088537752628326416015625">
        <ele>8.3999996185302734375</ele>
        <time>2020-02-25T13:04:56.000Z</time>
      </trkpt>
      <trkpt lat="-34.6298411674797534942626953125" lon="-59.09140549600124359130859375">
        <ele>8.6000003814697265625</ele>
        <time>2020-02-25T13:05:05.000Z</time>
      </trkpt>
      <trkpt lat="-34.62997938506305217742919921875" lon="-59.091242887079715728759765625">
        <ele>8.19999980926513671875</ele>
        <time>2020-02-25T13:05:12.000Z</time>
      </trkpt>
      <trkpt lat="-34.630141742527484893798828125" lon="-59.09104666672646999359130859375">
        <ele>8.3999996185302734375</ele>
        <time>2020-02-25T13:05:21.000Z</time>
      </trkpt>
      <trkpt lat="-34.630322791635990142822265625" lon="-59.0908254683017730712890625">
        <ele>8.80000019073486328125</ele>
        <time>2020-02-25T13:05:31.000Z</time>
      </trkpt>
      <trkpt lat="-34.6305496059358119964599609375" lon="-59.090550877153873443603515625">
        <ele>8.6000003814697265625</ele>
        <time>2020-02-25T13:05:43.000Z</time>
      </trkpt>
      <trkpt lat="-34.63073442690074443817138671875" lon="-59.090319536626338958740234375">
        <ele>8.6000003814697265625</ele>
        <time>2020-02-25T13:05:53.000Z</time>
      </trkpt>
      <trkpt lat="-34.6308768354356288909912109375" lon="-59.0901386551558971405029296875">
        <ele>8.6000003814697265625</ele>
        <time>2020-02-25T13:06:01.000Z</time>
      </trkpt>
      <trkpt lat="-34.631061069667339324951171875" lon="-59.08992097713053226470947265625">
        <ele>8.80000019073486328125</ele>
        <time>2020-02-25T13:06:11.000Z</time>
      </trkpt>
      <trkpt lat="-34.63124689646065235137939453125" lon="-59.08967278897762298583984375">
        <ele>8.6000003814697265625</ele>
        <time>2020-02-25T13:06:22.000Z</time>
      </trkpt>
      <trkpt lat="-34.63142056949436664581298828125" lon="-59.08944471739232540130615234375">
        <ele>9</ele>
        <time>2020-02-25T13:06:32.000Z</time>
      </trkpt>
      <trkpt lat="-34.63156406767666339874267578125" lon="-59.0892612375319004058837890625">
        <ele>9</ele>
        <time>2020-02-25T13:06:40.000Z</time>
      </trkpt>
      <trkpt lat="-34.6316597051918506622314453125" lon="-59.0891358442604541778564453125">
        <ele>8.80000019073486328125</ele>
        <time>2020-02-25T13:06:46.000Z</time>
      </trkpt>
      <trkpt lat="-34.63179741986095905303955078125" lon="-59.08895554952323436737060546875">
        <ele>8.80000019073486328125</ele>
        <time>2020-02-25T13:06:54.000Z</time>
      </trkpt>
      <trkpt lat="-34.63196807540953159332275390625" lon="-59.08876217901706695556640625">
        <ele>9</ele>
        <time>2020-02-25T13:07:03.000Z</time>
      </trkpt>
      <trkpt lat="-34.63204334490001201629638671875" lon="-59.08865279518067836761474609375">
        <ele>9</ele>
        <time>2020-02-25T13:07:08.000Z</time>
      </trkpt>
      <trkpt lat="-34.63215465657413005828857421875" lon="-59.08849689178168773651123046875">
        <ele>9</ele>
        <time>2020-02-25T13:07:15.000Z</time>
      </trkpt>
      <trkpt lat="-34.6323466859757900238037109375" lon="-59.08825926482677459716796875">
        <ele>9.19999980926513671875</ele>
        <time>2020-02-25T13:07:26.000Z</time>
      </trkpt>
      <trkpt lat="-34.63236386887729167938232421875" lon="-59.088234789669513702392578125">
        <ele>9.19999980926513671875</ele>
        <time>2020-02-25T13:07:27.000Z</time>
      </trkpt>
      <trkpt lat="-34.63252848945558071136474609375" lon="-59.0880287624895572662353515625">
        <ele>9.19999980926513671875</ele>
        <time>2020-02-25T13:07:36.000Z</time>
      </trkpt>
      <trkpt lat="-34.63271029293537139892578125" lon="-59.08780840225517749786376953125">
        <ele>9.19999980926513671875</ele>
        <time>2020-02-25T13:07:46.000Z</time>
      </trkpt>
      <trkpt lat="-34.63277240283787250518798828125" lon="-59.0877186320722103118896484375">
        <ele>9</ele>
        <time>2020-02-25T13:07:50.000Z</time>
      </trkpt>
      <trkpt lat="-34.63283090852200984954833984375" lon="-59.0875965915620326995849609375">
        <ele>9</ele>
        <time>2020-02-25T13:07:55.000Z</time>
      </trkpt>
      <trkpt lat="-34.63285236619412899017333984375" lon="-59.087392576038837432861328125">
        <ele>9.19999980926513671875</ele>
        <time>2020-02-25T13:08:03.000Z</time>
      </trkpt>
      <trkpt lat="-34.632791094481945037841796875" lon="-59.0871500037610530853271484375">
        <ele>9.19999980926513671875</ele>
        <time>2020-02-25T13:08:12.000Z</time>
      </trkpt>
      <trkpt lat="-34.63266729377210140228271484375" lon="-59.0868915058672428131103515625">
        <ele>9.19999980926513671875</ele>
        <time>2020-02-25T13:08:22.000Z</time>
      </trkpt>
      <trkpt lat="-34.6325263939797878265380859375" lon="-59.08663376234471797943115234375">
        <ele>9.6000003814697265625</ele>
        <time>2020-02-25T13:08:32.000Z</time>
      </trkpt>
      <trkpt lat="-34.6323761902749538421630859375" lon="-59.0863730013370513916015625">
        <ele>9.6000003814697265625</ele>
        <time>2020-02-25T13:08:42.000Z</time>
      </trkpt>
      <trkpt lat="-34.63224719278514385223388671875" lon="-59.086138308048248291015625">
        <ele>9.6000003814697265625</ele>
        <time>2020-02-25T13:08:51.000Z</time>
      </trkpt>
      <trkpt lat="-34.63209480978548526763916015625" lon="-59.08585307188332080841064453125">
        <ele>9.80000019073486328125</ele>
        <time>2020-02-25T13:09:01.000Z</time>
      </trkpt>
      <trkpt lat="-34.63195701129734516143798828125" lon="-59.08560027368366718292236328125">
        <ele>9.6000003814697265625</ele>
        <time>2020-02-25T13:09:10.000Z</time>
      </trkpt>
      <trkpt lat="-34.63180228136479854583740234375" lon="-59.08529735170304775238037109375">
        <ele>10</ele>
        <time>2020-02-25T13:09:21.000Z</time>
      </trkpt>
      <trkpt lat="-34.63167387060821056365966796875" lon="-59.085043631494045257568359375">
        <ele>9.80000019073486328125</ele>
        <time>2020-02-25T13:09:30.000Z</time>
      </trkpt>
      <trkpt lat="-34.63153087534010410308837890625" lon="-59.0847678668797016143798828125">
        <ele>9.80000019073486328125</ele>
        <time>2020-02-25T13:09:40.000Z</time>
      </trkpt>
      <trkpt lat="-34.63141587562859058380126953125" lon="-59.0845432318747043609619140625">
        <ele>10</ele>
        <time>2020-02-25T13:09:48.000Z</time>
      </trkpt>
      <trkpt lat="-34.63128872215747833251953125" lon="-59.08429219387471675872802734375">
        <ele>9.80000019073486328125</ele>
        <time>2020-02-25T13:09:57.000Z</time>
      </trkpt>
      <trkpt lat="-34.631164334714412689208984375" lon="-59.084055237472057342529296875">
        <ele>9.80000019073486328125</ele>
        <time>2020-02-25T13:10:06.000Z</time>
      </trkpt>
      <trkpt lat="-34.631008096039295196533203125" lon="-59.0837663970887660980224609375">
        <ele>9.80000019073486328125</ele>
        <time>2020-02-25T13:10:17.000Z</time>
      </trkpt>
      <trkpt lat="-34.6308962814509868621826171875" lon="-59.08355374820530414581298828125">
        <ele>9.6000003814697265625</ele>
        <time>2020-02-25T13:10:25.000Z</time>
      </trkpt>
      <trkpt lat="-34.6308842115104198455810546875" lon="-59.0835095755755901336669921875">
        <ele>9.6000003814697265625</ele>
        <time>2020-02-25T13:10:29.000Z</time>
      </trkpt>
      <trkpt lat="-34.630886055529117584228515625" lon="-59.08350463025271892547607421875">
        <ele>9.3999996185302734375</ele>
        <time>2020-02-25T13:10:41.000Z</time>
      </trkpt>
      <trkpt lat="-34.63087163865566253662109375" lon="-59.0834810771048069000244140625">
        <ele>9.3999996185302734375</ele>
        <time>2020-02-25T13:10:45.000Z</time>
      </trkpt>
      <trkpt lat="-34.63085864670574665069580078125" lon="-59.083457104861736297607421875">
        <ele>9.3999996185302734375</ele>
        <time>2020-02-25T13:10:47.000Z</time>
      </trkpt>
      <trkpt lat="-34.63077415712177753448486328125" lon="-59.08334621228277683258056640625">
        <ele>9.80000019073486328125</ele>
        <time>2020-02-25T13:10:53.000Z</time>
      </trkpt>
      <trkpt lat="-34.63068933226168155670166015625" lon="-59.0831739641726016998291015625">
        <ele>9.6000003814697265625</ele>
        <time>2020-02-25T13:11:00.000Z</time>
      </trkpt>
      <trkpt lat="-34.63058304972946643829345703125" lon="-59.082983024418354034423828125">
        <ele>9.6000003814697265625</ele>
        <time>2020-02-25T13:11:08.000Z</time>
      </trkpt>
      <trkpt lat="-34.63045681826770305633544921875" lon="-59.08274070359766483306884765625">
        <ele>9.6000003814697265625</ele>
        <time>2020-02-25T13:11:18.000Z</time>
      </trkpt>
      <trkpt lat="-34.630308039486408233642578125" lon="-59.08246410079300403594970703125">
        <ele>9.6000003814697265625</ele>
        <time>2020-02-25T13:11:29.000Z</time>
      </trkpt>
      <trkpt lat="-34.6301704086363315582275390625" lon="-59.08220811747014522552490234375">
        <ele>9.80000019073486328125</ele>
        <time>2020-02-25T13:11:39.000Z</time>
      </trkpt>
      <trkpt lat="-34.630043171346187591552734375" lon="-59.0819661319255828857421875">
        <ele>9.3999996185302734375</ele>
        <time>2020-02-25T13:11:48.000Z</time>
      </trkpt>
      <trkpt lat="-34.62990579195320606231689453125" lon="-59.08170796930789947509765625">
        <ele>9.6000003814697265625</ele>
        <time>2020-02-25T13:11:58.000Z</time>
      </trkpt>
      <trkpt lat="-34.62976112030446529388427734375" lon="-59.0814358927309513092041015625">
        <ele>9.3999996185302734375</ele>
        <time>2020-02-25T13:12:09.000Z</time>
      </trkpt>
      <trkpt lat="-34.6296168677508831024169921875" lon="-59.0811656601727008819580078125">
        <ele>9.3999996185302734375</ele>
        <time>2020-02-25T13:12:19.000Z</time>
      </trkpt>
      <trkpt lat="-34.62943338789045810699462890625" lon="-59.08082208596169948577880859375">
        <ele>9.3999996185302734375</ele>
        <time>2020-02-25T13:12:31.000Z</time>
      </trkpt>
      <trkpt lat="-34.629284106194972991943359375" lon="-59.0805484168231487274169921875">
        <ele>9.3999996185302734375</ele>
        <time>2020-02-25T13:12:41.000Z</time>
      </trkpt>
      <trkpt lat="-34.6291364170610904693603515625" lon="-59.08027055673301219940185546875">
        <ele>9.19999980926513671875</ele>
        <time>2020-02-25T13:12:51.000Z</time>
      </trkpt>
      <trkpt lat="-34.62898411788046360015869140625" lon="-59.079972244799137115478515625">
        <ele>9.3999996185302734375</ele>
        <time>2020-02-25T13:13:01.000Z</time>
      </trkpt>
      <trkpt lat="-34.6288343332707881927490234375" lon="-59.0796740166842937469482421875">
        <ele>9.3999996185302734375</ele>
        <time>2020-02-25T13:13:11.000Z</time>
      </trkpt>
      <trkpt lat="-34.62868622504174709320068359375" lon="-59.07939146272838115692138671875">
        <ele>9.3999996185302734375</ele>
        <time>2020-02-25T13:13:21.000Z</time>
      </trkpt>
      <trkpt lat="-34.62855043821036815643310546875" lon="-59.0791489742696285247802734375">
        <ele>9.19999980926513671875</ele>
        <time>2020-02-25T13:13:30.000Z</time>
      </trkpt>
      <trkpt lat="-34.62843325920403003692626953125" lon="-59.07892459072172641754150390625">
        <ele>9.19999980926513671875</ele>
        <time>2020-02-25T13:13:38.000Z</time>
      </trkpt>
      <trkpt lat="-34.6282777749001979827880859375" lon="-59.0786457248032093048095703125">
        <ele>9.19999980926513671875</ele>
        <time>2020-02-25T13:13:48.000Z</time>
      </trkpt>
      <trkpt lat="-34.6281351149082183837890625" lon="-59.07839468680322170257568359375">
        <ele>9.19999980926513671875</ele>
        <time>2020-02-25T13:13:57.000Z</time>
      </trkpt>
      <trkpt lat="-34.6279790438711643218994140625" lon="-59.0781106241047382354736328125">
        <ele>9.19999980926513671875</ele>
        <time>2020-02-25T13:14:07.000Z</time>
      </trkpt>
      <trkpt lat="-34.62779774330556392669677734375" lon="-59.0777951292693614959716796875">
        <ele>9</ele>
        <time>2020-02-25T13:14:18.000Z</time>
      </trkpt>
      <trkpt lat="-34.6276347152888774871826171875" lon="-59.07750939019024372100830078125">
        <ele>8.80000019073486328125</ele>
        <time>2020-02-25T13:14:28.000Z</time>
      </trkpt>
      <trkpt lat="-34.62745006196200847625732421875" lon="-59.07717931084334850311279296875">
        <ele>8.6000003814697265625</ele>
        <time>2020-02-25T13:14:39.000Z</time>
      </trkpt>
      <trkpt lat="-34.6272813342511653900146484375" lon="-59.0768724493682384490966796875">
        <ele>8.6000003814697265625</ele>
        <time>2020-02-25T13:14:49.000Z</time>
      </trkpt>
      <trkpt lat="-34.62711713276803493499755859375" lon="-59.0765787474811077117919921875">
        <ele>8.6000003814697265625</ele>
        <time>2020-02-25T13:14:59.000Z</time>
      </trkpt>
      <trkpt lat="-34.62693390436470508575439453125" lon="-59.07623634673655033111572265625">
        <ele>8.6000003814697265625</ele>
        <time>2020-02-25T13:15:10.000Z</time>
      </trkpt>
      <trkpt lat="-34.62674614973366260528564453125" lon="-59.07588313333690166473388671875">
        <ele>8.6000003814697265625</ele>
        <time>2020-02-25T13:15:21.000Z</time>
      </trkpt>
      <trkpt lat="-34.6265876479446887969970703125" lon="-59.075590185821056365966796875">
        <ele>8.3999996185302734375</ele>
        <time>2020-02-25T13:15:30.000Z</time>
      </trkpt>
      <trkpt lat="-34.62643937207758426666259765625" lon="-59.07532087527215480804443359375">
        <ele>8.19999980926513671875</ele>
        <time>2020-02-25T13:15:39.000Z</time>
      </trkpt>
      <trkpt lat="-34.62642093189060688018798828125" lon="-59.07529103569686412811279296875">
        <ele>8.19999980926513671875</ele>
        <time>2020-02-25T13:15:40.000Z</time>
      </trkpt>
      <trkpt lat="-34.62623921222984790802001953125" lon="-59.07496598549187183380126953125">
        <ele>8.19999980926513671875</ele>
        <time>2020-02-25T13:15:50.000Z</time>
      </trkpt>
      <trkpt lat="-34.62610661052167415618896484375" lon="-59.07471570186316967010498046875">
        <ele>8</ele>
        <time>2020-02-25T13:15:58.000Z</time>
      </trkpt>
      <trkpt lat="-34.625925309956073760986328125" lon="-59.0743820182979106903076171875">
        <ele>8.3999996185302734375</ele>
        <time>2020-02-25T13:16:09.000Z</time>
      </trkpt>
      <trkpt lat="-34.62577938102185726165771484375" lon="-59.07412461005151271820068359375">
        <ele>8.19999980926513671875</ele>
        <time>2020-02-25T13:16:18.000Z</time>
      </trkpt>
      <trkpt lat="-34.62566077709197998046875" lon="-59.0739019028842449188232421875">
        <ele>8.19999980926513671875</ele>
        <time>2020-02-25T13:16:26.000Z</time>
      </trkpt>
      <trkpt lat="-34.62550076656043529510498046875" lon="-59.07361431978642940521240234375">
        <ele>8.19999980926513671875</ele>
        <time>2020-02-25T13:16:36.000Z</time>
      </trkpt>
      <trkpt lat="-34.6253638900816440582275390625" lon="-59.073317684233188629150390625">
        <ele>8.3999996185302734375</ele>
        <time>2020-02-25T13:16:46.000Z</time>
      </trkpt>
      <trkpt lat="-34.62521628476679325103759765625" lon="-59.07301627099514007568359375">
        <ele>8.3999996185302734375</ele>
        <time>2020-02-25T13:16:56.000Z</time>
      </trkpt>
      <trkpt lat="-34.62507345713675022125244140625" lon="-59.07274528406560420989990234375">
        <ele>8.19999980926513671875</ele>
        <time>2020-02-25T13:17:06.000Z</time>
      </trkpt>
      <trkpt lat="-34.6249447949230670928955078125" lon="-59.0724979341030120849609375">
        <ele>8.6000003814697265625</ele>
        <time>2020-02-25T13:17:15.000Z</time>
      </trkpt>
      <trkpt lat="-34.62482300586998462677001953125" lon="-59.0722583793103694915771484375">
        <ele>8.19999980926513671875</ele>
        <time>2020-02-25T13:17:24.000Z</time>
      </trkpt>
      <trkpt lat="-34.62473114021122455596923828125" lon="-59.0721068345010280609130859375">
        <ele>8.19999980926513671875</ele>
        <time>2020-02-25T13:17:30.000Z</time>
      </trkpt>
      <trkpt lat="-34.62465989403426647186279296875" lon="-59.0719784237444400787353515625">
        <ele>8.19999980926513671875</ele>
        <time>2020-02-25T13:17:35.000Z</time>
      </trkpt>
      <trkpt lat="-34.6245431341230869293212890625" lon="-59.0717333368957042694091796875">
        <ele>8</ele>
        <time>2020-02-25T13:17:44.000Z</time>
      </trkpt>
      <trkpt lat="-34.62439888156950473785400390625" lon="-59.07145899720489978790283203125">
        <ele>8.3999996185302734375</ele>
        <time>2020-02-25T13:17:54.000Z</time>
      </trkpt>
      <trkpt lat="-34.6242715604603290557861328125" lon="-59.07119245268404483795166015625">
        <ele>8.3999996185302734375</ele>
        <time>2020-02-25T13:18:03.000Z</time>
      </trkpt>
      <trkpt lat="-34.62415806949138641357421875" lon="-59.07097100280225276947021484375">
        <ele>8.19999980926513671875</ele>
        <time>2020-02-25T13:18:11.000Z</time>
      </trkpt>
      <trkpt lat="-34.624000824987888336181640625" lon="-59.0706517361104488372802734375">
        <ele>8</ele>
        <time>2020-02-25T13:18:22.000Z</time>
      </trkpt>
      <trkpt lat="-34.62385908700525760650634765625" lon="-59.07038980163633823394775390625">
        <ele>8</ele>
        <time>2020-02-25T13:18:32.000Z</time>
      </trkpt>
      <trkpt lat="-34.62377107702195644378662109375" lon="-59.07025854103267192840576171875">
        <ele>8</ele>
        <time>2020-02-25T13:18:38.000Z</time>
      </trkpt>
      <trkpt lat="-34.6236730925738811492919921875" lon="-59.07007514499127864837646484375">
        <ele>7.80000019073486328125</ele>
        <time>2020-02-25T13:18:46.000Z</time>
      </trkpt>
      <trkpt lat="-34.62359220720827579498291015625" lon="-59.06990247778594493865966796875">
        <ele>8</ele>
        <time>2020-02-25T13:18:53.000Z</time>
      </trkpt>
      <trkpt lat="-34.62350687943398952484130859375" lon="-59.0696958638727664947509765625">
        <ele>8</ele>
        <time>2020-02-25T13:19:01.000Z</time>
      </trkpt>
      <trkpt lat="-34.62338500656187534332275390625" lon="-59.06942085362970829010009765625">
        <ele>8</ele>
        <time>2020-02-25T13:19:11.000Z</time>
      </trkpt>
      <trkpt lat="-34.6232669055461883544921875" lon="-59.06917937099933624267578125">
        <ele>8.19999980926513671875</ele>
        <time>2020-02-25T13:19:20.000Z</time>
      </trkpt>
      <trkpt lat="-34.62316707707941532135009765625" lon="-59.068869240581989288330078125">
        <ele>8.3999996185302734375</ele>
        <time>2020-02-25T13:19:30.000Z</time>
      </trkpt>
      <trkpt lat="-34.62310253642499446868896484375" lon="-59.06854611821472644805908203125">
        <ele>8.3999996185302734375</ele>
        <time>2020-02-25T13:19:40.000Z</time>
      </trkpt>
      <trkpt lat="-34.62304771877825260162353515625" lon="-59.068238250911235809326171875">
        <ele>8.6000003814697265625</ele>
        <time>2020-02-25T13:19:50.000Z</time>
      </trkpt>
      <trkpt lat="-34.62300547398626804351806640625" lon="-59.06800992786884307861328125">
        <ele>8.80000019073486328125</ele>
        <time>2020-02-25T13:19:58.000Z</time>
      </trkpt>
      <trkpt lat="-34.62298049591481685638427734375" lon="-59.06785863451659679412841796875">
        <ele>8.80000019073486328125</ele>
        <time>2020-02-25T13:20:04.000Z</time>
      </trkpt>
      <trkpt lat="-34.62293255142867565155029296875" lon="-59.0675668604671955108642578125">
        <ele>9.19999980926513671875</ele>
        <time>2020-02-25T13:20:15.000Z</time>
      </trkpt>
      <trkpt lat="-34.6228865347802639007568359375" lon="-59.06731062568724155426025390625">
        <ele>9</ele>
        <time>2020-02-25T13:20:24.000Z</time>
      </trkpt>
      <trkpt lat="-34.6228432841598987579345703125" lon="-59.06706520356237888336181640625">
        <ele>9.19999980926513671875</ele>
        <time>2020-02-25T13:20:32.000Z</time>
      </trkpt>
      <trkpt lat="-34.62282258085906505584716796875" lon="-59.06694349832832813262939453125">
        <ele>9.3999996185302734375</ele>
        <time>2020-02-25T13:20:36.000Z</time>
      </trkpt>
      <trkpt lat="-34.6227668412029743194580078125" lon="-59.06664979644119739532470703125">
        <ele>9.6000003814697265625</ele>
        <time>2020-02-25T13:20:46.000Z</time>
      </trkpt>
      <trkpt lat="-34.6227507479488849639892578125" lon="-59.066524319350719451904296875">
        <ele>9.3999996185302734375</ele>
        <time>2020-02-25T13:20:51.000Z</time>
      </trkpt>
      <trkpt lat="-34.62271931581199169158935546875" lon="-59.06634000129997730255126953125">
        <ele>9.6000003814697265625</ele>
        <time>2020-02-25T13:20:58.000Z</time>
      </trkpt>
      <trkpt lat="-34.62268427945673465728759765625" lon="-59.06613749451935291290283203125">
        <ele>9.6000003814697265625</ele>
        <time>2020-02-25T13:21:05.000Z</time>
      </trkpt>
      <trkpt lat="-34.622642956674098968505859375" lon="-59.06587195582687854766845703125">
        <ele>9.6000003814697265625</ele>
        <time>2020-02-25T13:21:14.000Z</time>
      </trkpt>
      <trkpt lat="-34.6225978620350360870361328125" lon="-59.0655672736465930938720703125">
        <ele>9.80000019073486328125</ele>
        <time>2020-02-25T13:21:24.000Z</time>
      </trkpt>
      <trkpt lat="-34.62254815734922885894775390625" lon="-59.06524850986897945404052734375">
        <ele>10</ele>
        <time>2020-02-25T13:21:34.000Z</time>
      </trkpt>
      <trkpt lat="-34.62247632443904876708984375" lon="-59.06482790596783161163330078125">
        <ele>9.80000019073486328125</ele>
        <time>2020-02-25T13:21:47.000Z</time>
      </trkpt>
      <trkpt lat="-34.62245394475758075714111328125" lon="-59.064703769981861114501953125">
        <ele>10.19999980926513671875</ele>
        <time>2020-02-25T13:21:51.000Z</time>
      </trkpt>
      <trkpt lat="-34.6224436350166797637939453125" lon="-59.0645943023264408111572265625">
        <ele>10.3999996185302734375</ele>
        <time>2020-02-25T13:21:55.000Z</time>
      </trkpt>
      <trkpt lat="-34.62240398861467838287353515625" lon="-59.0643225610256195068359375">
        <ele>10.19999980926513671875</ele>
        <time>2020-02-25T13:22:04.000Z</time>
      </trkpt>
      <trkpt lat="-34.622394852340221405029296875" lon="-59.064194820821285247802734375">
        <ele>10.19999980926513671875</ele>
        <time>2020-02-25T13:22:09.000Z</time>
      </trkpt>
      <trkpt lat="-34.6223956905305385589599609375" lon="-59.0640347264707088470458984375">
        <ele>10</ele>
        <time>2020-02-25T13:22:17.000Z</time>
      </trkpt>
      <trkpt lat="-34.62236962281167507171630859375" lon="-59.06387253664433956146240234375">
        <ele>10</ele>
        <time>2020-02-25T13:22:23.000Z</time>
      </trkpt>
      <trkpt lat="-34.62234581820666790008544921875" lon="-59.06358025968074798583984375">
        <ele>10</ele>
        <time>2020-02-25T13:22:32.000Z</time>
      </trkpt>
      <trkpt lat="-34.622310698032379150390625" lon="-59.06331245787441730499267578125">
        <ele>10</ele>
        <time>2020-02-25T13:22:40.000Z</time>
      </trkpt>
      <trkpt lat="-34.6222776733338832855224609375" lon="-59.06301355920732021331787109375">
        <ele>10.19999980926513671875</ele>
        <time>2020-02-25T13:22:49.000Z</time>
      </trkpt>
      <trkpt lat="-34.622270800173282623291015625" lon="-59.06273662112653255462646484375">
        <ele>10</ele>
        <time>2020-02-25T13:22:57.000Z</time>
      </trkpt>
      <trkpt lat="-34.622258730232715606689453125" lon="-59.0624783746898174285888671875">
        <ele>10.19999980926513671875</ele>
        <time>2020-02-25T13:23:05.000Z</time>
      </trkpt>
      <trkpt lat="-34.62226283736526966094970703125" lon="-59.06227536499500274658203125">
        <ele>10.19999980926513671875</ele>
        <time>2020-02-25T13:23:12.000Z</time>
      </trkpt>
      <trkpt lat="-34.62226786650717258453369140625" lon="-59.06205416657030582427978515625">
        <ele>10</ele>
        <time>2020-02-25T13:23:19.000Z</time>
      </trkpt>
      <trkpt lat="-34.62225898168981075286865234375" lon="-59.06177253462374210357666015625">
        <ele>9.80000019073486328125</ele>
        <time>2020-02-25T13:23:28.000Z</time>
      </trkpt>
      <trkpt lat="-34.622254706919193267822265625" lon="-59.061518646776676177978515625">
        <ele>9.80000019073486328125</ele>
        <time>2020-02-25T13:23:36.000Z</time>
      </trkpt>
      <trkpt lat="-34.62224825285375118255615234375" lon="-59.06129661016166210174560546875">
        <ele>9.6000003814697265625</ele>
        <time>2020-02-25T13:23:43.000Z</time>
      </trkpt>
      <trkpt lat="-34.622239284217357635498046875" lon="-59.06104699708521366119384765625">
        <ele>9.6000003814697265625</ele>
        <time>2020-02-25T13:23:51.000Z</time>
      </trkpt>
      <trkpt lat="-34.6222246997058391571044921875" lon="-59.0607379563152790069580078125">
        <ele>9.6000003814697265625</ele>
        <time>2020-02-25T13:24:00.000Z</time>
      </trkpt>
      <trkpt lat="-34.622208438813686370849609375" lon="-59.06026395969092845916748046875">
        <ele>9.3999996185302734375</ele>
        <time>2020-02-25T13:24:13.000Z</time>
      </trkpt>
      <trkpt lat="-34.6221921779215335845947265625" lon="-59.0599688328802585601806640625">
        <ele>9.3999996185302734375</ele>
        <time>2020-02-25T13:24:22.000Z</time>
      </trkpt>
      <trkpt lat="-34.62216812185943126678466796875" lon="-59.05965459533035755157470703125">
        <ele>9.3999996185302734375</ele>
        <time>2020-02-25T13:24:31.000Z</time>
      </trkpt>
      <trkpt lat="-34.62214817292988300323486328125" lon="-59.05939056538045406341552734375">
        <ele>9.19999980926513671875</ele>
        <time>2020-02-25T13:24:38.000Z</time>
      </trkpt>
      <trkpt lat="-34.6221335045993328094482421875" lon="-59.0591909922659397125244140625">
        <ele>9.19999980926513671875</ele>
        <time>2020-02-25T13:24:43.000Z</time>
      </trkpt>
      <trkpt lat="-34.6221060119569301605224609375" lon="-59.0586917661130428314208984375">
        <ele>9</ele>
        <time>2020-02-25T13:24:56.000Z</time>
      </trkpt>
      <trkpt lat="-34.62209117598831653594970703125" lon="-59.05832019634544849395751953125">
        <ele>9</ele>
        <time>2020-02-25T13:25:06.000Z</time>
      </trkpt>
      <trkpt lat="-34.6220751665532588958740234375" lon="-59.05790277756750583648681640625">
        <ele>9</ele>
        <time>2020-02-25T13:25:18.000Z</time>
      </trkpt>
      <trkpt lat="-34.622058905661106109619140625" lon="-59.057598598301410675048828125">
        <ele>9</ele>
        <time>2020-02-25T13:25:27.000Z</time>
      </trkpt>
      <trkpt lat="-34.62204893119633197784423828125" lon="-59.057339094579219818115234375">
        <ele>8.80000019073486328125</ele>
        <time>2020-02-25T13:25:36.000Z</time>
      </trkpt>
      <trkpt lat="-34.62204071693122386932373046875" lon="-59.05713759362697601318359375">
        <ele>8.80000019073486328125</ele>
        <time>2020-02-25T13:25:43.000Z</time>
      </trkpt>
      <trkpt lat="-34.6220345981419086456298828125" lon="-59.05688010156154632568359375">
        <ele>9</ele>
        <time>2020-02-25T13:25:52.000Z</time>
      </trkpt>
      <trkpt lat="-34.6220319159328937530517578125" lon="-59.056552536785602569580078125">
        <ele>8.80000019073486328125</ele>
        <time>2020-02-25T13:26:04.000Z</time>
      </trkpt>
      <trkpt lat="-34.62202009744942188262939453125" lon="-59.05627015046775341033935546875">
        <ele>8.80000019073486328125</ele>
        <time>2020-02-25T13:26:14.000Z</time>
      </trkpt>
      <trkpt lat="-34.62201925925910472869873046875" lon="-59.05593185685575008392333984375">
        <ele>8.6000003814697265625</ele>
        <time>2020-02-25T13:26:26.000Z</time>
      </trkpt>
      <trkpt lat="-34.6220225282013416290283203125" lon="-59.05564268119633197784423828125">
        <ele>8.3999996185302734375</ele>
        <time>2020-02-25T13:26:36.000Z</time>
      </trkpt>
      <trkpt lat="-34.622026719152927398681640625" lon="-59.05531503260135650634765625">
        <ele>8.3999996185302734375</ele>
        <time>2020-02-25T13:26:47.000Z</time>
      </trkpt>
      <trkpt lat="-34.62202194146811962127685546875" lon="-59.0550147928297519683837890625">
        <ele>8.6000003814697265625</ele>
        <time>2020-02-25T13:26:57.000Z</time>
      </trkpt>
      <trkpt lat="-34.62201523594558238983154296875" lon="-59.05476928688585758209228515625">
        <ele>8.6000003814697265625</ele>
        <time>2020-02-25T13:27:06.000Z</time>
      </trkpt>
      <trkpt lat="-34.622013978660106658935546875" lon="-59.0545749105513095855712890625">
        <ele>8.6000003814697265625</ele>
        <time>2020-02-25T13:27:13.000Z</time>
      </trkpt>
      <trkpt lat="-34.62201506830751895904541015625" lon="-59.0542745031416416168212890625">
        <ele>8.3999996185302734375</ele>
        <time>2020-02-25T13:27:23.000Z</time>
      </trkpt>
      <trkpt lat="-34.62201255373656749725341796875" lon="-59.053993038833141326904296875">
        <ele>8.3999996185302734375</ele>
        <time>2020-02-25T13:27:33.000Z</time>
      </trkpt>
      <trkpt lat="-34.622005932033061981201171875" lon="-59.05366321094334125518798828125">
        <ele>8.3999996185302734375</ele>
        <time>2020-02-25T13:27:44.000Z</time>
      </trkpt>
      <trkpt lat="-34.62200869806110858917236328125" lon="-59.053354002535343170166015625">
        <ele>8.3999996185302734375</ele>
        <time>2020-02-25T13:27:54.000Z</time>
      </trkpt>
      <trkpt lat="-34.62200718931853771209716796875" lon="-59.05311201699078083038330078125">
        <ele>8.3999996185302734375</ele>
        <time>2020-02-25T13:28:02.000Z</time>
      </trkpt>
      <trkpt lat="-34.62200853042304515838623046875" lon="-59.05278445221483707427978515625">
        <ele>8.3999996185302734375</ele>
        <time>2020-02-25T13:28:12.000Z</time>
      </trkpt>
      <trkpt lat="-34.62200827896595001220703125" lon="-59.05249410308897495269775390625">
        <ele>8.3999996185302734375</ele>
        <time>2020-02-25T13:28:21.000Z</time>
      </trkpt>
      <trkpt lat="-34.622005932033061981201171875" lon="-59.0521773509681224822998046875">
        <ele>8.3999996185302734375</ele>
        <time>2020-02-25T13:28:31.000Z</time>
      </trkpt>
      <trkpt lat="-34.622007273137569427490234375" lon="-59.052017591893672943115234375">
        <ele>8.19999980926513671875</ele>
        <time>2020-02-25T13:28:36.000Z</time>
      </trkpt>
      <trkpt lat="-34.62200718931853771209716796875" lon="-59.05185724608600139617919921875">
        <ele>8.19999980926513671875</ele>
        <time>2020-02-25T13:28:41.000Z</time>
      </trkpt>
      <trkpt lat="-34.6220158226788043975830078125" lon="-59.05156471766531467437744140625">
        <ele>8.19999980926513671875</ele>
        <time>2020-02-25T13:28:50.000Z</time>
      </trkpt>
      <trkpt lat="-34.62202512659132480621337890625" lon="-59.0512580238282680511474609375">
        <ele>8</ele>
        <time>2020-02-25T13:29:00.000Z</time>
      </trkpt>
      <trkpt lat="-34.622027389705181121826171875" lon="-59.05097479932010173797607421875">
        <ele>8</ele>
        <time>2020-02-25T13:29:09.000Z</time>
      </trkpt>
      <trkpt lat="-34.62202646769583225250244140625" lon="-59.050674140453338623046875">
        <ele>8</ele>
        <time>2020-02-25T13:29:19.000Z</time>
      </trkpt>
      <trkpt lat="-34.62201640941202640533447265625" lon="-59.05040793120861053466796875">
        <ele>8</ele>
        <time>2020-02-25T13:29:28.000Z</time>
      </trkpt>
      <trkpt lat="-34.62201540358364582061767578125" lon="-59.050105847418308258056640625">
        <ele>7.80000019073486328125</ele>
        <time>2020-02-25T13:29:38.000Z</time>
      </trkpt>
      <trkpt lat="-34.62204205803573131561279296875" lon="-59.04987911693751811981201171875">
        <ele>7.80000019073486328125</ele>
        <time>2020-02-25T13:29:46.000Z</time>
      </trkpt>
      <trkpt lat="-34.62204926647245883941650390625" lon="-59.04965582303702831268310546875">
        <ele>7.599999904632568359375</ele>
        <time>2020-02-25T13:29:54.000Z</time>
      </trkpt>
      <trkpt lat="-34.622038118541240692138671875" lon="-59.04950176365673542022705078125">
        <ele>7.400000095367431640625</ele>
        <time>2020-02-25T13:30:00.000Z</time>
      </trkpt>
      <trkpt lat="-34.62204339914023876190185546875" lon="-59.0492383204400539398193359375">
        <ele>7.400000095367431640625</ele>
        <time>2020-02-25T13:30:09.000Z</time>
      </trkpt>
      <trkpt lat="-34.62204390205442905426025390625" lon="-59.0489830076694488525390625">
        <ele>7.19999980926513671875</ele>
        <time>2020-02-25T13:30:17.000Z</time>
      </trkpt>
      <trkpt lat="-34.622044824063777923583984375" lon="-59.04885753057897090911865234375">
        <ele>7.19999980926513671875</ele>
        <time>2020-02-25T13:30:21.000Z</time>
      </trkpt>
      <trkpt lat="-34.6220503561198711395263671875" lon="-59.04871436767280101776123046875">
        <ele>7</ele>
        <time>2020-02-25T13:30:26.000Z</time>
      </trkpt>
      <trkpt lat="-34.622052200138568878173828125" lon="-59.0485097654163837432861328125">
        <ele>7</ele>
        <time>2020-02-25T13:30:33.000Z</time>
      </trkpt>
      <trkpt lat="-34.622035436332225799560546875" lon="-59.04828052036464214324951171875">
        <ele>7</ele>
        <time>2020-02-25T13:30:41.000Z</time>
      </trkpt>
      <trkpt lat="-34.62202831171452999114990234375" lon="-59.04806007631123065948486328125">
        <ele>7</ele>
        <time>2020-02-25T13:30:49.000Z</time>
      </trkpt>
      <trkpt lat="-34.62203417904675006866455078125" lon="-59.04785237275063991546630859375">
        <ele>7</ele>
        <time>2020-02-25T13:30:57.000Z</time>
      </trkpt>
      <trkpt lat="-34.6220349334180355072021484375" lon="-59.04762245714664459228515625">
        <ele>6.599999904632568359375</ele>
        <time>2020-02-25T13:31:05.000Z</time>
      </trkpt>
      <trkpt lat="-34.62205261923372745513916015625" lon="-59.04733143746852874755859375">
        <ele>6.80000019073486328125</ele>
        <time>2020-02-25T13:31:15.000Z</time>
      </trkpt>
      <trkpt lat="-34.6220719814300537109375" lon="-59.047091715037822723388671875">
        <ele>6.80000019073486328125</ele>
        <time>2020-02-25T13:31:24.000Z</time>
      </trkpt>
      <trkpt lat="-34.62208095006644725799560546875" lon="-59.04684637673199176788330078125">
        <ele>6.80000019073486328125</ele>
        <time>2020-02-25T13:31:33.000Z</time>
      </trkpt>
      <trkpt lat="-34.6221016533672809600830078125" lon="-59.04663674533367156982421875">
        <ele>6.599999904632568359375</ele>
        <time>2020-02-25T13:31:41.000Z</time>
      </trkpt>
      <trkpt lat="-34.622097797691822052001953125" lon="-59.0464642457664012908935546875">
        <ele>6.599999904632568359375</ele>
        <time>2020-02-25T13:31:48.000Z</time>
      </trkpt>
      <trkpt lat="-34.6220919303596019744873046875" lon="-59.04628814198076725006103515625">
        <ele>6.599999904632568359375</ele>
        <time>2020-02-25T13:31:55.000Z</time>
      </trkpt>
      <trkpt lat="-34.62209352292120456695556640625" lon="-59.0460713021457195281982421875">
        <ele>6.599999904632568359375</ele>
        <time>2020-02-25T13:32:03.000Z</time>
      </trkpt>
      <trkpt lat="-34.622105173766613006591796875" lon="-59.045914225280284881591796875">
        <ele>6.599999904632568359375</ele>
        <time>2020-02-25T13:32:09.000Z</time>
      </trkpt>
      <trkpt lat="-34.6221269667148590087890625" lon="-59.04571968130767345428466796875">
        <ele>6.400000095367431640625</ele>
        <time>2020-02-25T13:32:16.000Z</time>
      </trkpt>
      <trkpt lat="-34.62212755344808101654052734375" lon="-59.0454735048115253448486328125">
        <ele>6.400000095367431640625</ele>
        <time>2020-02-25T13:32:24.000Z</time>
      </trkpt>
      <trkpt lat="-34.62211984209716320037841796875" lon="-59.04517267830669879913330078125">
        <ele>6.599999904632568359375</ele>
        <time>2020-02-25T13:32:33.000Z</time>
      </trkpt>
      <trkpt lat="-34.6221194230020046234130859375" lon="-59.044860117137432098388671875">
        <ele>6.400000095367431640625</ele>
        <time>2020-02-25T13:32:43.000Z</time>
      </trkpt>
      <trkpt lat="-34.62213844992220401763916015625" lon="-59.04455535113811492919921875">
        <ele>6.19999980926513671875</ele>
        <time>2020-02-25T13:32:53.000Z</time>
      </trkpt>
      <trkpt lat="-34.62215387262403964996337890625" lon="-59.04431805945932865142822265625">
        <ele>6.19999980926513671875</ele>
        <time>2020-02-25T13:33:01.000Z</time>
      </trkpt>
      <trkpt lat="-34.6221457421779632568359375" lon="-59.04407900758087635040283203125">
        <ele>6.19999980926513671875</ele>
        <time>2020-02-25T13:33:09.000Z</time>
      </trkpt>
      <trkpt lat="-34.6221348457038402557373046875" lon="-59.04380835592746734619140625">
        <ele>6.19999980926513671875</ele>
        <time>2020-02-25T13:33:17.000Z</time>
      </trkpt>
      <trkpt lat="-34.622136019170284271240234375" lon="-59.043480455875396728515625">
        <ele>6.19999980926513671875</ele>
        <time>2020-02-25T13:33:27.000Z</time>
      </trkpt>
      <trkpt lat="-34.622130654752254486083984375" lon="-59.0432020090520381927490234375">
        <ele>5.80000019073486328125</ele>
        <time>2020-02-25T13:33:36.000Z</time>
      </trkpt>
      <trkpt lat="-34.62212336249649524688720703125" lon="-59.04300528578460216522216796875">
        <ele>6</ele>
        <time>2020-02-25T13:33:43.000Z</time>
      </trkpt>
      <trkpt lat="-34.62213694117963314056396484375" lon="-59.04285558499395847320556640625">
        <ele>5.80000019073486328125</ele>
        <time>2020-02-25T13:33:49.000Z</time>
      </trkpt>
      <trkpt lat="-34.622139371931552886962890625" lon="-59.04268895275890827178955078125">
        <ele>6</ele>
        <time>2020-02-25T13:33:56.000Z</time>
      </trkpt>
      <trkpt lat="-34.62211011908948421478271484375" lon="-59.0424932353198528289794921875">
        <ele>6.400000095367431640625</ele>
        <time>2020-02-25T13:34:04.000Z</time>
      </trkpt>
      <trkpt lat="-34.6220999769866466522216796875" lon="-59.0423182211816310882568359375">
        <ele>5.80000019073486328125</ele>
        <time>2020-02-25T13:34:11.000Z</time>
      </trkpt>
      <trkpt lat="-34.62208832614123821258544921875" lon="-59.04202963225543498992919921875">
        <ele>6</ele>
        <time>2020-02-25T13:34:22.000Z</time>
      </trkpt>
      <trkpt lat="-34.62208497337996959686279296875" lon="-59.04180868528783321380615234375">
        <ele>5.80000019073486328125</ele>
        <time>2020-02-25T13:34:30.000Z</time>
      </trkpt>
      <trkpt lat="-34.6220714785158634185791015625" lon="-59.0416203439235687255859375">
        <ele>5.599999904632568359375</ele>
        <time>2020-02-25T13:34:37.000Z</time>
      </trkpt>
      <trkpt lat="-34.62206083349883556365966796875" lon="-59.04137014411389827728271484375">
        <ele>5.80000019073486328125</ele>
        <time>2020-02-25T13:34:46.000Z</time>
      </trkpt>
      <trkpt lat="-34.62204272858798503875732421875" lon="-59.04118322767317295074462890625">
        <ele>5.599999904632568359375</ele>
        <time>2020-02-25T13:34:54.000Z</time>
      </trkpt>
      <trkpt lat="-34.6220356039702892303466796875" lon="-59.0409781225025653839111328125">
        <ele>5.80000019073486328125</ele>
        <time>2020-02-25T13:35:03.000Z</time>
      </trkpt>
      <trkpt lat="-34.62203032337129116058349609375" lon="-59.04083018191158771514892578125">
        <ele>5.80000019073486328125</ele>
        <time>2020-02-25T13:35:09.000Z</time>
      </trkpt>
      <trkpt lat="-34.622037447988986968994140625" lon="-59.04060521163046360015869140625">
        <ele>5.599999904632568359375</ele>
        <time>2020-02-25T13:35:19.000Z</time>
      </trkpt>
      <trkpt lat="-34.622044153511524200439453125" lon="-59.04057302512228488922119140625">
        <ele>5.599999904632568359375</ele>
        <time>2020-02-25T13:35:26.000Z</time>
      </trkpt>
      <trkpt lat="-34.62204105220735073089599609375" lon="-59.04056883417069911956787109375">
        <ele>5.599999904632568359375</ele>
        <time>2020-02-25T13:35:36.000Z</time>
      </trkpt>
      <trkpt lat="-34.6220413036644458770751953125" lon="-59.04056531377136707305908203125">
        <ele>5.400000095367431640625</ele>
        <time>2020-02-25T13:35:46.000Z</time>
      </trkpt>
      <trkpt lat="-34.62204205803573131561279296875" lon="-59.04056430794298648834228515625">
        <ele>5.19999980926513671875</ele>
        <time>2020-02-25T13:36:19.000Z</time>
      </trkpt>
      <trkpt lat="-34.62204155512154102325439453125" lon="-59.04056296683847904205322265625">
        <ele>5.19999980926513671875</ele>
        <time>2020-02-25T13:36:42.000Z</time>
      </trkpt>
      <trkpt lat="-34.6220413036644458770751953125" lon="-59.0405623801052570343017578125">
        <ele>5</ele>
        <time>2020-02-25T13:36:49.000Z</time>
      </trkpt>
      <trkpt lat="-34.62204121984541416168212890625" lon="-59.04056196101009845733642578125">
        <ele>5</ele>
        <time>2020-02-25T13:36:55.000Z</time>
      </trkpt>
      <trkpt lat="-34.62203912436962127685546875" lon="-59.04056095518171787261962890625">
        <ele>5</ele>
        <time>2020-02-25T13:37:33.000Z</time>
      </trkpt>
      <trkpt lat="-34.62203602306544780731201171875" lon="-59.04054678976535797119140625">
        <ele>5</ele>
        <time>2020-02-25T13:37:44.000Z</time>
      </trkpt>
      <trkpt lat="-34.62204239331185817718505859375" lon="-59.04052725993096828460693359375">
        <ele>5</ele>
        <time>2020-02-25T13:37:51.000Z</time>
      </trkpt>
      <trkpt lat="-34.6220419742166996002197265625" lon="-59.04051116667687892913818359375">
        <ele>5</ele>
        <time>2020-02-25T13:37:52.000Z</time>
      </trkpt>
      <trkpt lat="-34.62202730588614940643310546875" lon="-59.040391556918621063232421875">
        <ele>5</ele>
        <time>2020-02-25T13:37:59.000Z</time>
      </trkpt>
      <trkpt lat="-34.62200635112822055816650390625" lon="-59.04021277092397212982177734375">
        <ele>5</ele>
        <time>2020-02-25T13:38:08.000Z</time>
      </trkpt>
      <trkpt lat="-34.6219970472157001495361328125" lon="-59.03998796828091144561767578125">
        <ele>5</ele>
        <time>2020-02-25T13:38:18.000Z</time>
      </trkpt>
      <trkpt lat="-34.621991179883480072021484375" lon="-59.0398137085139751434326171875">
        <ele>5.19999980926513671875</ele>
        <time>2020-02-25T13:38:26.000Z</time>
      </trkpt>
      <trkpt lat="-34.621978104114532470703125" lon="-59.03963777236640453338623046875">
        <ele>5.19999980926513671875</ele>
        <time>2020-02-25T13:38:34.000Z</time>
      </trkpt>
      <trkpt lat="-34.62196880020201206207275390625" lon="-59.0394271351397037506103515625">
        <ele>5.19999980926513671875</ele>
        <time>2020-02-25T13:38:43.000Z</time>
      </trkpt>
      <trkpt lat="-34.62197181768715381622314453125" lon="-59.0392487682402133941650390625">
        <ele>5</ele>
        <time>2020-02-25T13:38:51.000Z</time>
      </trkpt>
      <trkpt lat="-34.62195371277630329132080078125" lon="-59.03902991674840450286865234375">
        <ele>5.19999980926513671875</ele>
        <time>2020-02-25T13:39:01.000Z</time>
      </trkpt>
      <trkpt lat="-34.6219430677592754364013671875" lon="-59.03882908634841442108154296875">
        <ele>5.19999980926513671875</ele>
        <time>2020-02-25T13:39:10.000Z</time>
      </trkpt>
      <trkpt lat="-34.62192772887647151947021484375" lon="-59.03857410885393619537353515625">
        <ele>5.400000095367431640625</ele>
        <time>2020-02-25T13:39:21.000Z</time>
      </trkpt>
      <trkpt lat="-34.62192052043974399566650390625" lon="-59.0383428521454334259033203125">
        <ele>5.400000095367431640625</ele>
        <time>2020-02-25T13:39:31.000Z</time>
      </trkpt>
      <trkpt lat="-34.62190543301403522491455078125" lon="-59.03808611445128917694091796875">
        <ele>5.400000095367431640625</ele>
        <time>2020-02-25T13:39:42.000Z</time>
      </trkpt>
      <trkpt lat="-34.62189537473022937774658203125" lon="-59.0378959290683269500732421875">
        <ele>6</ele>
        <time>2020-02-25T13:39:50.000Z</time>
      </trkpt>
      <trkpt lat="-34.62188062258064746856689453125" lon="-59.03776877559721469879150390625">
        <ele>6</ele>
        <time>2020-02-25T13:39:56.000Z</time>
      </trkpt>
      <trkpt lat="-34.621877186000347137451171875" lon="-59.0377499163150787353515625">
        <ele>6.19999980926513671875</ele>
        <time>2020-02-25T13:39:57.000Z</time>
      </trkpt>
      <trkpt lat="-34.62186905555427074432373046875" lon="-59.03768126852810382843017578125">
        <ele>6.19999980926513671875</ele>
        <time>2020-02-25T13:40:01.000Z</time>
      </trkpt>
      <trkpt lat="-34.6218560636043548583984375" lon="-59.037648998200893402099609375">
        <ele>6.599999904632568359375</ele>
        <time>2020-02-25T13:40:03.000Z</time>
      </trkpt>
      <trkpt lat="-34.621827900409698486328125" lon="-59.0375210903584957122802734375">
        <ele>7.19999980926513671875</ele>
        <time>2020-02-25T13:40:10.000Z</time>
      </trkpt>
      <trkpt lat="-34.62185581214725971221923828125" lon="-59.03738982975482940673828125">
        <ele>7.400000095367431640625</ele>
        <time>2020-02-25T13:40:16.000Z</time>
      </trkpt>
      <trkpt lat="-34.621854387223720550537109375" lon="-59.03725345619022846221923828125">
        <ele>7.400000095367431640625</ele>
        <time>2020-02-25T13:40:20.000Z</time>
      </trkpt>
      <trkpt lat="-34.62184131145477294921875" lon="-59.03709470294415950775146484375">
        <ele>7</ele>
        <time>2020-02-25T13:40:25.000Z</time>
      </trkpt>
      <trkpt lat="-34.62183955125510692596435546875" lon="-59.03683369047939777374267578125">
        <ele>6.400000095367431640625</ele>
        <time>2020-02-25T13:40:33.000Z</time>
      </trkpt>
      <trkpt lat="-34.62183653376996517181396484375" lon="-59.03673746623098850250244140625">
        <ele>6</ele>
        <time>2020-02-25T13:40:36.000Z</time>
      </trkpt>
      <trkpt lat="-34.6218297444283962249755859375" lon="-59.03658382594585418701171875">
        <ele>6</ele>
        <time>2020-02-25T13:40:41.000Z</time>
      </trkpt>
      <trkpt lat="-34.62183334864675998687744140625" lon="-59.0362855978310108184814453125">
        <ele>6</ele>
        <time>2020-02-25T13:40:51.000Z</time>
      </trkpt>
      <trkpt lat="-34.621837623417377471923828125" lon="-59.03599047102034091949462890625">
        <ele>5.80000019073486328125</ele>
        <time>2020-02-25T13:41:01.000Z</time>
      </trkpt>
      <trkpt lat="-34.6218428201973438262939453125" lon="-59.03568889014422893524169921875">
        <ele>6.19999980926513671875</ele>
        <time>2020-02-25T13:41:11.000Z</time>
      </trkpt>
      <trkpt lat="-34.62184072472155094146728515625" lon="-59.03539435006678104400634765625">
        <ele>5.80000019073486328125</ele>
        <time>2020-02-25T13:41:20.000Z</time>
      </trkpt>
      <trkpt lat="-34.621830917894840240478515625" lon="-59.0351386182010173797607421875">
        <ele>5.80000019073486328125</ele>
        <time>2020-02-25T13:41:28.000Z</time>
      </trkpt>
      <trkpt lat="-34.62180317379534244537353515625" lon="-59.03486377559602260589599609375">
        <ele>5.80000019073486328125</ele>
        <time>2020-02-25T13:41:37.000Z</time>
      </trkpt>
      <trkpt lat="-34.6217868290841579437255859375" lon="-59.03461039066314697265625">
        <ele>5.599999904632568359375</ele>
        <time>2020-02-25T13:41:45.000Z</time>
      </trkpt>
      <trkpt lat="-34.62178557179868221282958984375" lon="-59.03454593382775783538818359375">
        <ele>5.599999904632568359375</ele>
        <time>2020-02-25T13:41:47.000Z</time>
      </trkpt>
      <trkpt lat="-34.62179847992956638336181640625" lon="-59.03433470986783504486083984375">
        <ele>5.599999904632568359375</ele>
        <time>2020-02-25T13:41:54.000Z</time>
      </trkpt>
      <trkpt lat="-34.62182278744876384735107421875" lon="-59.034048132598400115966796875">
        <ele>5.80000019073486328125</ele>
        <time>2020-02-25T13:42:03.000Z</time>
      </trkpt>
      <trkpt lat="-34.62180451489984989166259765625" lon="-59.0337358228862285614013671875">
        <ele>5.80000019073486328125</ele>
        <time>2020-02-25T13:42:13.000Z</time>
      </trkpt>
      <trkpt lat="-34.621804095804691314697265625" lon="-59.0334434621036052703857421875">
        <ele>5.80000019073486328125</ele>
        <time>2020-02-25T13:42:22.000Z</time>
      </trkpt>
      <trkpt lat="-34.62180619128048419952392578125" lon="-59.03322980739176273345947265625">
        <ele>5.400000095367431640625</ele>
        <time>2020-02-25T13:42:29.000Z</time>
      </trkpt>
      <trkpt lat="-34.62179697118699550628662109375" lon="-59.0329553000628948211669921875">
        <ele>5.599999904632568359375</ele>
        <time>2020-02-25T13:42:37.000Z</time>
      </trkpt>
      <trkpt lat="-34.62178439833223819732666015625" lon="-59.03261507861316204071044921875">
        <ele>5.80000019073486328125</ele>
        <time>2020-02-25T13:42:46.000Z</time>
      </trkpt>
      <trkpt lat="-34.6217787824571132659912109375" lon="-59.03210177086293697357177734375">
        <ele>5.599999904632568359375</ele>
        <time>2020-02-25T13:42:59.000Z</time>
      </trkpt>
      <trkpt lat="-34.621767885982990264892578125" lon="-59.0317791514098644256591796875">
        <ele>5.599999904632568359375</ele>
        <time>2020-02-25T13:43:07.000Z</time>
      </trkpt>
      <trkpt lat="-34.621763527393341064453125" lon="-59.0314512513577938079833984375">
        <ele>5.80000019073486328125</ele>
        <time>2020-02-25T13:43:15.000Z</time>
      </trkpt>
      <trkpt lat="-34.621750451624393463134765625" lon="-59.03118043206632137298583984375">
        <ele>5.400000095367431640625</ele>
        <time>2020-02-25T13:43:22.000Z</time>
      </trkpt>
      <trkpt lat="-34.621739722788333892822265625" lon="-59.03080609627068042755126953125">
        <ele>5.599999904632568359375</ele>
        <time>2020-02-25T13:43:31.000Z</time>
      </trkpt>
      <trkpt lat="-34.6217103861272335052490234375" lon="-59.030429162085056304931640625">
        <ele>5.400000095367431640625</ele>
        <time>2020-02-25T13:43:40.000Z</time>
      </trkpt>
      <trkpt lat="-34.62172924540936946868896484375" lon="-59.03007150627672672271728515625">
        <ele>5.400000095367431640625</ele>
        <time>2020-02-25T13:43:49.000Z</time>
      </trkpt>
      <trkpt lat="-34.62171700783073902130126953125" lon="-59.0297329612076282501220703125">
        <ele>5.19999980926513671875</ele>
        <time>2020-02-25T13:43:58.000Z</time>
      </trkpt>
      <trkpt lat="-34.621700160205364227294921875" lon="-59.0294659137725830078125">
        <ele>5.19999980926513671875</ele>
        <time>2020-02-25T13:44:05.000Z</time>
      </trkpt>
      <trkpt lat="-34.62169370613992214202880859375" lon="-59.0290114469826221466064453125">
        <ele>5</ele>
        <time>2020-02-25T13:44:16.000Z</time>
      </trkpt>
      <trkpt lat="-34.62168649770319461822509765625" lon="-59.0286667831242084503173828125">
        <ele>5</ele>
        <time>2020-02-25T13:44:24.000Z</time>
      </trkpt>
      <trkpt lat="-34.62168549187481403350830078125" lon="-59.028539545834064483642578125">
        <ele>4.80000019073486328125</ele>
        <time>2020-02-25T13:44:27.000Z</time>
      </trkpt>
      <trkpt lat="-34.62168213911354541778564453125" lon="-59.0282951295375823974609375">
        <ele>5</ele>
        <time>2020-02-25T13:44:34.000Z</time>
      </trkpt>
      <trkpt lat="-34.62167794816195964813232421875" lon="-59.0282513760030269622802734375">
        <ele>5</ele>
        <time>2020-02-25T13:44:39.000Z</time>
      </trkpt>
      <trkpt lat="-34.62167744524776935577392578125" lon="-59.02825296856462955474853515625">
        <ele>4.599999904632568359375</ele>
        <time>2020-02-25T13:44:50.000Z</time>
      </trkpt>
      <trkpt lat="-34.62167794816195964813232421875" lon="-59.0282527171075344085693359375">
        <ele>4.80000019073486328125</ele>
        <time>2020-02-25T13:44:59.000Z</time>
      </trkpt>
      <trkpt lat="-34.62167878635227680206298828125" lon="-59.02825280092656612396240234375">
        <ele>4.80000019073486328125</ele>
        <time>2020-02-25T13:45:11.000Z</time>
      </trkpt>
      <trkpt lat="-34.62167761288583278656005859375" lon="-59.02825414203107357025146484375">
        <ele>4.599999904632568359375</ele>
        <time>2020-02-25T13:46:06.000Z</time>
      </trkpt>
      <trkpt lat="-34.6216768585145473480224609375" lon="-59.02825414203107357025146484375">
        <ele>4.599999904632568359375</ele>
        <time>2020-02-25T13:46:27.000Z</time>
      </trkpt>
      <trkpt lat="-34.6216761879622936248779296875" lon="-59.02825464494526386260986328125">
        <ele>4.599999904632568359375</ele>
        <time>2020-02-25T13:46:45.000Z</time>
      </trkpt>
      <trkpt lat="-34.62167593650519847869873046875" lon="-59.02825715951621532440185546875">
        <ele>4.599999904632568359375</ele>
        <time>2020-02-25T13:47:31.000Z</time>
      </trkpt>
      <trkpt lat="-34.6216781996190547943115234375" lon="-59.02826034463942050933837890625">
        <ele>4.599999904632568359375</ele>
        <time>2020-02-25T13:48:38.000Z</time>
      </trkpt>
      <trkpt lat="-34.62167811580002307891845703125" lon="-59.02826227247714996337890625">
        <ele>4.599999904632568359375</ele>
        <time>2020-02-25T13:49:29.000Z</time>
      </trkpt>
      <trkpt lat="-34.6216785348951816558837890625" lon="-59.0282631106674671173095703125">
        <ele>4.599999904632568359375</ele>
        <time>2020-02-25T13:50:38.000Z</time>
      </trkpt>
      <trkpt lat="-34.62167861871421337127685546875" lon="-59.02826361358165740966796875">
        <ele>4.599999904632568359375</ele>
        <time>2020-02-25T13:51:11.000Z</time>
      </trkpt>
      <trkpt lat="-34.62167861871421337127685546875" lon="-59.0282642841339111328125">
        <ele>4.599999904632568359375</ele>
        <time>2020-02-25T13:51:30.000Z</time>
      </trkpt>
      <trkpt lat="-34.62167895399034023284912109375" lon="-59.02825280092656612396240234375">
        <ele>4.599999904632568359375</ele>
        <time>2020-02-25T13:51:44.000Z</time>
      </trkpt>
      <trkpt lat="-34.6216775290668010711669921875" lon="-59.02821994386613368988037109375">
        <ele>4.599999904632568359375</ele>
        <time>2020-02-25T13:51:46.000Z</time>
      </trkpt>
      <trkpt lat="-34.62167995981872081756591796875" lon="-59.02809052728116512298583984375">
        <ele>4.80000019073486328125</ele>
        <time>2020-02-25T13:51:52.000Z</time>
      </trkpt>
      <trkpt lat="-34.621679373085498809814453125" lon="-59.0277762897312641143798828125">
        <ele>5.19999980926513671875</ele>
        <time>2020-02-25T13:52:02.000Z</time>
      </trkpt>
      <trkpt lat="-34.62167509831488132476806640625" lon="-59.027406312525272369384765625">
        <ele>5.19999980926513671875</ele>
        <time>2020-02-25T13:52:12.000Z</time>
      </trkpt>
      <trkpt lat="-34.62167224846780300140380859375" lon="-59.0269619040191173553466796875">
        <ele>5.19999980926513671875</ele>
        <time>2020-02-25T13:52:23.000Z</time>
      </trkpt>
      <trkpt lat="-34.62166369892656803131103515625" lon="-59.026415906846523284912109375">
        <ele>5</ele>
        <time>2020-02-25T13:52:36.000Z</time>
      </trkpt>
      <trkpt lat="-34.62165850214660167694091796875" lon="-59.026004187762737274169921875">
        <ele>5</ele>
        <time>2020-02-25T13:52:46.000Z</time>
      </trkpt>
      <trkpt lat="-34.6216564066708087921142578125" lon="-59.0257897786796092987060546875">
        <ele>5</ele>
        <time>2020-02-25T13:52:51.000Z</time>
      </trkpt>
      <trkpt lat="-34.62165297009050846099853515625" lon="-59.02548761107027530670166015625">
        <ele>5</ele>
        <time>2020-02-25T13:52:58.000Z</time>
      </trkpt>
      <trkpt lat="-34.621646516025066375732421875" lon="-59.02495108544826507568359375">
        <ele>4.599999904632568359375</ele>
        <time>2020-02-25T13:53:10.000Z</time>
      </trkpt>
      <trkpt lat="-34.62164274416863918304443359375" lon="-59.02440751902759075164794921875">
        <ele>5</ele>
        <time>2020-02-25T13:53:22.000Z</time>
      </trkpt>
      <trkpt lat="-34.621634446084499359130859375" lon="-59.0238106437027454376220703125">
        <ele>4.599999904632568359375</ele>
        <time>2020-02-25T13:53:35.000Z</time>
      </trkpt>
      <trkpt lat="-34.6216302551329135894775390625" lon="-59.02325735427439212799072265625">
        <ele>4.599999904632568359375</ele>
        <time>2020-02-25T13:53:47.000Z</time>
      </trkpt>
      <trkpt lat="-34.62162665091454982757568359375" lon="-59.0228502452373504638671875">
        <ele>4.599999904632568359375</ele>
        <time>2020-02-25T13:53:56.000Z</time>
      </trkpt>
      <trkpt lat="-34.621613658964633941650390625" lon="-59.02257372625172138214111328125">
        <ele>4.19999980926513671875</ele>
        <time>2020-02-25T13:54:03.000Z</time>
      </trkpt>
      <trkpt lat="-34.62162380106747150421142578125" lon="-59.02216753922402858734130859375">
        <ele>4.19999980926513671875</ele>
        <time>2020-02-25T13:54:13.000Z</time>
      </trkpt>
      <trkpt lat="-34.62162095122039318084716796875" lon="-59.02174844406545162200927734375">
        <ele>4.19999980926513671875</ele>
        <time>2020-02-25T13:54:23.000Z</time>
      </trkpt>
      <trkpt lat="-34.62161533534526824951171875" lon="-59.02138064615428447723388671875">
        <ele>4</ele>
        <time>2020-02-25T13:54:32.000Z</time>
      </trkpt>
      <trkpt lat="-34.621595554053783416748046875" lon="-59.0211324580013751983642578125">
        <ele>4.19999980926513671875</ele>
        <time>2020-02-25T13:54:39.000Z</time>
      </trkpt>
      <trkpt lat="-34.62159697897732257843017578125" lon="-59.02079634368419647216796875">
        <ele>4.19999980926513671875</ele>
        <time>2020-02-25T13:54:48.000Z</time>
      </trkpt>
      <trkpt lat="-34.621615670621395111083984375" lon="-59.0205105207860469818115234375">
        <ele>4</ele>
        <time>2020-02-25T13:54:56.000Z</time>
      </trkpt>
      <trkpt lat="-34.62160720489919185638427734375" lon="-59.02023165486752986907958984375">
        <ele>3.7999999523162841796875</ele>
        <time>2020-02-25T13:55:04.000Z</time>
      </trkpt>
      <trkpt lat="-34.62165959179401397705078125" lon="-59.019998051226139068603515625">
        <ele>3.7999999523162841796875</ele>
        <time>2020-02-25T13:55:11.000Z</time>
      </trkpt>
      <trkpt lat="-34.62177014909684658050537109375" lon="-59.0198024176061153411865234375">
        <ele>3.599999904632568359375</ele>
        <time>2020-02-25T13:55:18.000Z</time>
      </trkpt>
      <trkpt lat="-34.62199478410184383392333984375" lon="-59.0195402316749095916748046875">
        <ele>3.7999999523162841796875</ele>
        <time>2020-02-25T13:55:29.000Z</time>
      </trkpt>
      <trkpt lat="-34.6221546269953250885009765625" lon="-59.01934887282550334930419921875">
        <ele>3.7999999523162841796875</ele>
        <time>2020-02-25T13:55:37.000Z</time>
      </trkpt>
      <trkpt lat="-34.62233148515224456787109375" lon="-59.01915625669062137603759765625">
        <ele>4.19999980926513671875</ele>
        <time>2020-02-25T13:55:46.000Z</time>
      </trkpt>
      <trkpt lat="-34.62254614569246768951416015625" lon="-59.01893363334238529205322265625">
        <ele>3.7999999523162841796875</ele>
        <time>2020-02-25T13:55:56.000Z</time>
      </trkpt>
      <trkpt lat="-34.6226977743208408355712890625" lon="-59.01868184097111225128173828125">
        <ele>3.599999904632568359375</ele>
        <time>2020-02-25T13:56:05.000Z</time>
      </trkpt>
      <trkpt lat="-34.6227128617465496063232421875" lon="-59.01846089400351047515869140625">
        <ele>3.7999999523162841796875</ele>
        <time>2020-02-25T13:56:12.000Z</time>
      </trkpt>
      <trkpt lat="-34.6226736344397068023681640625" lon="-59.0181977860629558563232421875">
        <ele>4</ele>
        <time>2020-02-25T13:56:20.000Z</time>
      </trkpt>
      <trkpt lat="-34.6226151287555694580078125" lon="-59.01788354851305484771728515625">
        <ele>3.599999904632568359375</ele>
        <time>2020-02-25T13:56:29.000Z</time>
      </trkpt>
      <trkpt lat="-34.62251982651650905609130859375" lon="-59.01744685135781764984130859375">
        <ele>3.7999999523162841796875</ele>
        <time>2020-02-25T13:56:41.000Z</time>
      </trkpt>
      <trkpt lat="-34.62250423617660999298095703125" lon="-59.01737518608570098876953125">
        <ele>4</ele>
        <time>2020-02-25T13:56:43.000Z</time>
      </trkpt>
      <trkpt lat="-34.6224191598594188690185546875" lon="-59.01697629131376743316650390625">
        <ele>4</ele>
        <time>2020-02-25T13:56:54.000Z</time>
      </trkpt>
      <trkpt lat="-34.622329808771610260009765625" lon="-59.016568176448345184326171875">
        <ele>3.7999999523162841796875</ele>
        <time>2020-02-25T13:57:05.000Z</time>
      </trkpt>
      <trkpt lat="-34.62223333306610584259033203125" lon="-59.016111195087432861328125">
        <ele>4</ele>
        <time>2020-02-25T13:57:17.000Z</time>
      </trkpt>
      <trkpt lat="-34.62216946296393871307373046875" lon="-59.01578706689178943634033203125">
        <ele>4</ele>
        <time>2020-02-25T13:57:26.000Z</time>
      </trkpt>
      <trkpt lat="-34.62209704332053661346435546875" lon="-59.0154203586280345916748046875">
        <ele>4.19999980926513671875</ele>
        <time>2020-02-25T13:57:37.000Z</time>
      </trkpt>
      <trkpt lat="-34.6220250427722930908203125" lon="-59.01503571309149265289306640625">
        <ele>4.400000095367431640625</ele>
        <time>2020-02-25T13:57:48.000Z</time>
      </trkpt>
      <trkpt lat="-34.62194968946278095245361328125" lon="-59.01462583802640438079833984375">
        <ele>4.599999904632568359375</ele>
        <time>2020-02-25T13:58:00.000Z</time>
      </trkpt>
      <trkpt lat="-34.62190560065209865570068359375" lon="-59.0143813379108905792236328125">
        <ele>4.80000019073486328125</ele>
        <time>2020-02-25T13:58:08.000Z</time>
      </trkpt>
      <trkpt lat="-34.62185271084308624267578125" lon="-59.014139436185359954833984375">
        <ele>4.599999904632568359375</ele>
        <time>2020-02-25T13:58:16.000Z</time>
      </trkpt>
      <trkpt lat="-34.62178766727447509765625" lon="-59.01380089111626148223876953125">
        <ele>4.80000019073486328125</ele>
        <time>2020-02-25T13:58:26.000Z</time>
      </trkpt>
      <trkpt lat="-34.62176696397364139556884765625" lon="-59.01370148174464702606201171875">
        <ele>5</ele>
        <time>2020-02-25T13:58:29.000Z</time>
      </trkpt>
      <trkpt lat="-34.6217246353626251220703125" lon="-59.01348807848989963531494140625">
        <ele>5</ele>
        <time>2020-02-25T13:58:35.000Z</time>
      </trkpt>
      <trkpt lat="-34.62165062315762042999267578125" lon="-59.01312966831028461456298828125">
        <ele>5</ele>
        <time>2020-02-25T13:58:45.000Z</time>
      </trkpt>
      <trkpt lat="-34.62158205918967723846435546875" lon="-59.01277142576873302459716796875">
        <ele>5</ele>
        <time>2020-02-25T13:58:55.000Z</time>
      </trkpt>
      <trkpt lat="-34.62150461040437221527099609375" lon="-59.0124085731804370880126953125">
        <ele>5</ele>
        <time>2020-02-25T13:59:05.000Z</time>
      </trkpt>
      <trkpt lat="-34.62143738754093647003173828125" lon="-59.01204622350633144378662109375">
        <ele>5.19999980926513671875</ele>
        <time>2020-02-25T13:59:15.000Z</time>
      </trkpt>
      <trkpt lat="-34.62138122878968715667724609375" lon="-59.011766351759433746337890625">
        <ele>5.19999980926513671875</ele>
        <time>2020-02-25T13:59:23.000Z</time>
      </trkpt>
      <trkpt lat="-34.621299169957637786865234375" lon="-59.011408947408199310302734375">
        <ele>5.400000095367431640625</ele>
        <time>2020-02-25T13:59:33.000Z</time>
      </trkpt>
      <trkpt lat="-34.6212364733219146728515625" lon="-59.01113527826964855194091796875">
        <ele>5.400000095367431640625</ele>
        <time>2020-02-25T13:59:41.000Z</time>
      </trkpt>
      <trkpt lat="-34.62116204202175140380859375" lon="-59.01077552698552608489990234375">
        <ele>5.400000095367431640625</ele>
        <time>2020-02-25T13:59:51.000Z</time>
      </trkpt>
      <trkpt lat="-34.62107880972325801849365234375" lon="-59.0103667415678501129150390625">
        <ele>5.599999904632568359375</ele>
        <time>2020-02-25T14:00:02.000Z</time>
      </trkpt>
      <trkpt lat="-34.62101510725915431976318359375" lon="-59.010053761303424835205078125">
        <ele>5.80000019073486328125</ele>
        <time>2020-02-25T14:00:11.000Z</time>
      </trkpt>
      <trkpt lat="-34.62097185663878917694091796875" lon="-59.00978453457355499267578125">
        <ele>5.599999904632568359375</ele>
        <time>2020-02-25T14:00:19.000Z</time>
      </trkpt>
      <trkpt lat="-34.62090144865214824676513671875" lon="-59.0094866417348384857177734375">
        <ele>5.599999904632568359375</ele>
        <time>2020-02-25T14:00:28.000Z</time>
      </trkpt>
      <trkpt lat="-34.6208068169653415679931640625" lon="-59.00906679220497608184814453125">
        <ele>5.80000019073486328125</ele>
        <time>2020-02-25T14:00:40.000Z</time>
      </trkpt>
      <trkpt lat="-34.6207481436431407928466796875" lon="-59.00875431485474109649658203125">
        <ele>5.599999904632568359375</ele>
        <time>2020-02-25T14:00:49.000Z</time>
      </trkpt>
      <trkpt lat="-34.62069760076701641082763671875" lon="-59.00856052525341510772705078125">
        <ele>6</ele>
        <time>2020-02-25T14:00:55.000Z</time>
      </trkpt>
      <trkpt lat="-34.620673544704914093017578125" lon="-59.0084851719439029693603515625">
        <ele>6.19999980926513671875</ele>
        <time>2020-02-25T14:00:58.000Z</time>
      </trkpt>
      <trkpt lat="-34.6206490695476531982421875" lon="-59.008323736488819122314453125">
        <ele>6</ele>
        <time>2020-02-25T14:01:04.000Z</time>
      </trkpt>
      <trkpt lat="-34.62060690857470035552978515625" lon="-59.008064903318881988525390625">
        <ele>6.19999980926513671875</ele>
        <time>2020-02-25T14:01:12.000Z</time>
      </trkpt>
      <trkpt lat="-34.6205711178481578826904296875" lon="-59.00784797966480255126953125">
        <ele>6.19999980926513671875</ele>
        <time>2020-02-25T14:01:19.000Z</time>
      </trkpt>
      <trkpt lat="-34.62052166461944580078125" lon="-59.0076054073870182037353515625">
        <ele>6</ele>
        <time>2020-02-25T14:01:26.000Z</time>
      </trkpt>
      <trkpt lat="-34.620452933013439178466796875" lon="-59.0072956122457981109619140625">
        <ele>6.19999980926513671875</ele>
        <time>2020-02-25T14:01:35.000Z</time>
      </trkpt>
      <trkpt lat="-34.620350338518619537353515625" lon="-59.006866626441478729248046875">
        <ele>6.400000095367431640625</ele>
        <time>2020-02-25T14:01:46.000Z</time>
      </trkpt>
      <trkpt lat="-34.6202606521546840667724609375" lon="-59.00644518435001373291015625">
        <ele>6.19999980926513671875</ele>
        <time>2020-02-25T14:01:57.000Z</time>
      </trkpt>
      <trkpt lat="-34.62017096579074859619140625" lon="-59.00606162846088409423828125">
        <ele>6.19999980926513671875</ele>
        <time>2020-02-25T14:02:07.000Z</time>
      </trkpt>
      <trkpt lat="-34.62005655281245708465576171875" lon="-59.0055079199373722076416015625">
        <ele>6.19999980926513671875</ele>
        <time>2020-02-25T14:02:21.000Z</time>
      </trkpt>
      <trkpt lat="-34.61995747871696949005126953125" lon="-59.00501959025859832763671875">
        <ele>6.19999980926513671875</ele>
        <time>2020-02-25T14:02:33.000Z</time>
      </trkpt>
      <trkpt lat="-34.6198620088398456573486328125" lon="-59.0045336075127124786376953125">
        <ele>6.19999980926513671875</ele>
        <time>2020-02-25T14:02:45.000Z</time>
      </trkpt>
      <trkpt lat="-34.61976620368659496307373046875" lon="-59.004079811275005340576171875">
        <ele>6.400000095367431640625</ele>
        <time>2020-02-25T14:02:56.000Z</time>
      </trkpt>
      <trkpt lat="-34.6197587437927722930908203125" lon="-59.0038556791841983795166015625">
        <ele>6.599999904632568359375</ele>
        <time>2020-02-25T14:03:03.000Z</time>
      </trkpt>
      <trkpt lat="-34.61985404603183269500732421875" lon="-59.00365727953612804412841796875">
        <ele>6.599999904632568359375</ele>
        <time>2020-02-25T14:03:08.000Z</time>
      </trkpt>
      <trkpt lat="-34.6201010607182979583740234375" lon="-59.00335620157420635223388671875">
        <ele>6.599999904632568359375</ele>
        <time>2020-02-25T14:03:19.000Z</time>
      </trkpt>
      <trkpt lat="-34.62029526941478252410888671875" lon="-59.00312351994216442108154296875">
        <ele>6.599999904632568359375</ele>
        <time>2020-02-25T14:03:27.000Z</time>
      </trkpt>
      <trkpt lat="-34.62048704735934734344482421875" lon="-59.0029215998947620391845703125">
        <ele>6.80000019073486328125</ele>
        <time>2020-02-25T14:03:35.000Z</time>
      </trkpt>
      <trkpt lat="-34.6206378377974033355712890625" lon="-59.0027563087642192840576171875">
        <ele>6.400000095367431640625</ele>
        <time>2020-02-25T14:03:42.000Z</time>
      </trkpt>
      <trkpt lat="-34.620731882750988006591796875" lon="-59.00264005176723003387451171875">
        <ele>6.599999904632568359375</ele>
        <time>2020-02-25T14:03:48.000Z</time>
      </trkpt>
      <trkpt lat="-34.62083808146417140960693359375" lon="-59.002539552748203277587890625">
        <ele>7</ele>
        <time>2020-02-25T14:03:55.000Z</time>
      </trkpt>
      <trkpt lat="-34.62096431292593479156494140625" lon="-59.0024200268089771270751953125">
        <ele>6.80000019073486328125</ele>
        <time>2020-02-25T14:04:03.000Z</time>
      </trkpt>
      <trkpt lat="-34.62109322659671306610107421875" lon="-59.0022778697311878204345703125">
        <ele>6.599999904632568359375</ele>
        <time>2020-02-25T14:04:10.000Z</time>
      </trkpt>
      <trkpt lat="-34.62122239172458648681640625" lon="-59.0021072141826152801513671875">
        <ele>6.80000019073486328125</ele>
        <time>2020-02-25T14:04:18.000Z</time>
      </trkpt>
      <trkpt lat="-34.62129891850054264068603515625" lon="-59.0019799768924713134765625">
        <ele>6.80000019073486328125</ele>
        <time>2020-02-25T14:04:23.000Z</time>
      </trkpt>
      <trkpt lat="-34.62139832787215709686279296875" lon="-59.00182348676025867462158203125">
        <ele>6.599999904632568359375</ele>
        <time>2020-02-25T14:04:30.000Z</time>
      </trkpt>
      <trkpt lat="-34.621519781649112701416015625" lon="-59.00168837048113346099853515625">
        <ele>6.400000095367431640625</ele>
        <time>2020-02-25T14:04:37.000Z</time>
      </trkpt>
      <trkpt lat="-34.6216564066708087921142578125" lon="-59.00153137743473052978515625">
        <ele>6.599999904632568359375</ele>
        <time>2020-02-25T14:04:44.000Z</time>
      </trkpt>
      <trkpt lat="-34.621722958981990814208984375" lon="-59.00146423839032649993896484375">
        <ele>6.599999904632568359375</ele>
        <time>2020-02-25T14:04:47.000Z</time>
      </trkpt>
      <trkpt lat="-34.6217650361359119415283203125" lon="-59.00143213570117950439453125">
        <ele>6.599999904632568359375</ele>
        <time>2020-02-25T14:04:49.000Z</time>
      </trkpt>
      <trkpt lat="-34.62187777273356914520263671875" lon="-59.00129073299467563629150390625">
        <ele>6.400000095367431640625</ele>
        <time>2020-02-25T14:04:56.000Z</time>
      </trkpt>
      <trkpt lat="-34.62195170111954212188720703125" lon="-59.0012048184871673583984375">
        <ele>6.400000095367431640625</ele>
        <time>2020-02-25T14:05:01.000Z</time>
      </trkpt>
      <trkpt lat="-34.6220423094928264617919921875" lon="-59.0010846219956874847412109375">
        <ele>6.400000095367431640625</ele>
        <time>2020-02-25T14:05:07.000Z</time>
      </trkpt>
      <trkpt lat="-34.62219201028347015380859375" lon="-59.00090198032557964324951171875">
        <ele>6</ele>
        <time>2020-02-25T14:05:16.000Z</time>
      </trkpt>
      <trkpt lat="-34.62233056314289569854736328125" lon="-59.00073744356632232666015625">
        <ele>6.19999980926513671875</ele>
        <time>2020-02-25T14:05:23.000Z</time>
      </trkpt>
      <trkpt lat="-34.6224541962146759033203125" lon="-59.00058866478502750396728515625">
        <ele>6.400000095367431640625</ele>
        <time>2020-02-25T14:05:29.000Z</time>
      </trkpt>
      <trkpt lat="-34.62264236994087696075439453125" lon="-59.0003631077706813812255859375">
        <ele>6.400000095367431640625</ele>
        <time>2020-02-25T14:05:38.000Z</time>
      </trkpt>
      <trkpt lat="-34.6227973513305187225341796875" lon="-59.00013386271893978118896484375">
        <ele>6.400000095367431640625</ele>
        <time>2020-02-25T14:05:46.000Z</time>
      </trkpt>
      <trkpt lat="-34.6228162944316864013671875" lon="-58.9999426715075969696044921875">
        <ele>6.400000095367431640625</ele>
        <time>2020-02-25T14:05:52.000Z</time>
      </trkpt>
      <trkpt lat="-34.62273557670414447784423828125" lon="-58.99973454885184764862060546875">
        <ele>6.19999980926513671875</ele>
        <time>2020-02-25T14:06:00.000Z</time>
      </trkpt>
      <trkpt lat="-34.6226498298346996307373046875" lon="-58.99955148808658123016357421875">
        <ele>5.80000019073486328125</ele>
        <time>2020-02-25T14:06:08.000Z</time>
      </trkpt>
      <trkpt lat="-34.62259844876825809478759765625" lon="-58.99937756359577178955078125">
        <ele>6.19999980926513671875</ele>
        <time>2020-02-25T14:06:16.000Z</time>
      </trkpt>
      <trkpt lat="-34.62252720259130001068115234375" lon="-58.99922358803451061248779296875">
        <ele>6.19999980926513671875</ele>
        <time>2020-02-25T14:06:23.000Z</time>
      </trkpt>
      <trkpt lat="-34.622450508177280426025390625" lon="-58.99906366132199764251708984375">
        <ele>6</ele>
        <time>2020-02-25T14:06:30.000Z</time>
      </trkpt>
      <trkpt lat="-34.622335173189640045166015625" lon="-58.99883885867893695831298828125">
        <ele>5.80000019073486328125</ele>
        <time>2020-02-25T14:06:39.000Z</time>
      </trkpt>
      <trkpt lat="-34.62225579656660556793212890625" lon="-58.99867289699614048004150390625">
        <ele>6</ele>
        <time>2020-02-25T14:06:46.000Z</time>
      </trkpt>
      <trkpt lat="-34.622197709977626800537109375" lon="-58.9985583163797855377197265625">
        <ele>5.80000019073486328125</ele>
        <time>2020-02-25T14:06:52.000Z</time>
      </trkpt>
      <trkpt lat="-34.62211866863071918487548828125" lon="-58.99844625033438205718994140625">
        <ele>6</ele>
        <time>2020-02-25T14:06:58.000Z</time>
      </trkpt>
      <trkpt lat="-34.62207776494324207305908203125" lon="-58.99835706688463687896728515625">
        <ele>6</ele>
        <time>2020-02-25T14:07:04.000Z</time>
      </trkpt>
      <trkpt lat="-34.62206996977329254150390625" lon="-58.998348601162433624267578125">
        <ele>5.80000019073486328125</ele>
        <time>2020-02-25T14:07:22.000Z</time>
      </trkpt>
      <trkpt lat="-34.62206452153623104095458984375" lon="-58.9983477629721164703369140625">
        <ele>5.80000019073486328125</ele>
        <time>2020-02-25T14:07:33.000Z</time>
      </trkpt>
      <trkpt lat="-34.6220625936985015869140625" lon="-58.9983482658863067626953125">
        <ele>5.80000019073486328125</ele>
        <time>2020-02-25T14:07:39.000Z</time>
      </trkpt>
      <trkpt lat="-34.622061252593994140625" lon="-58.99835052900016307830810546875">
        <ele>5.599999904632568359375</ele>
        <time>2020-02-25T14:07:44.000Z</time>
      </trkpt>
      <trkpt lat="-34.62205982767045497894287109375" lon="-58.998349942266941070556640625">
        <ele>5.400000095367431640625</ele>
        <time>2020-02-25T14:08:05.000Z</time>
      </trkpt>
      <trkpt lat="-34.62205798365175724029541015625" lon="-58.9983482658863067626953125">
        <ele>5.400000095367431640625</ele>
        <time>2020-02-25T14:08:32.000Z</time>
      </trkpt>
      <trkpt lat="-34.6220580674707889556884765625" lon="-58.99834767915308475494384765625">
        <ele>5.400000095367431640625</ele>
        <time>2020-02-25T14:08:51.000Z</time>
      </trkpt>
      <trkpt lat="-34.6220540441572666168212890625" lon="-58.99834130890667438507080078125">
        <ele>5.400000095367431640625</ele>
        <time>2020-02-25T14:08:52.000Z</time>
      </trkpt>
      <trkpt lat="-34.62203635834157466888427734375" lon="-58.9983041770756244659423828125">
        <ele>5.400000095367431640625</ele>
        <time>2020-02-25T14:08:55.000Z</time>
      </trkpt>
      <trkpt lat="-34.62198237888514995574951171875" lon="-58.998182974755764007568359375">
        <ele>5.400000095367431640625</ele>
        <time>2020-02-25T14:09:01.000Z</time>
      </trkpt>
      <trkpt lat="-34.6218760125339031219482421875" lon="-58.99795725010335445404052734375">
        <ele>5.599999904632568359375</ele>
        <time>2020-02-25T14:09:10.000Z</time>
      </trkpt>
      <trkpt lat="-34.62179847992956638336181640625" lon="-58.997791707515716552734375">
        <ele>5.80000019073486328125</ele>
        <time>2020-02-25T14:09:16.000Z</time>
      </trkpt>
      <trkpt lat="-34.6216973103582859039306640625" lon="-58.99757704697549343109130859375">
        <ele>5.400000095367431640625</ele>
        <time>2020-02-25T14:09:24.000Z</time>
      </trkpt>
      <trkpt lat="-34.621592871844768524169921875" lon="-58.9973576925694942474365234375">
        <ele>5.599999904632568359375</ele>
        <time>2020-02-25T14:09:31.000Z</time>
      </trkpt>
      <trkpt lat="-34.62144945748150348663330078125" lon="-58.9970649965107440948486328125">
        <ele>5.599999904632568359375</ele>
        <time>2020-02-25T14:09:40.000Z</time>
      </trkpt>
      <trkpt lat="-34.62133378721773624420166015625" lon="-58.9968058280646800994873046875">
        <ele>5.80000019073486328125</ele>
        <time>2020-02-25T14:09:48.000Z</time>
      </trkpt>
      <trkpt lat="-34.62121702730655670166015625" lon="-58.996554873883724212646484375">
        <ele>5.80000019073486328125</ele>
        <time>2020-02-25T14:09:55.000Z</time>
      </trkpt>
      <trkpt lat="-34.621028937399387359619140625" lon="-58.99624600075185298919677734375">
        <ele>5.80000019073486328125</ele>
        <time>2020-02-25T14:10:04.000Z</time>
      </trkpt>
      <trkpt lat="-34.6208715252578258514404296875" lon="-58.9959136582911014556884765625">
        <ele>5.80000019073486328125</ele>
        <time>2020-02-25T14:10:13.000Z</time>
      </trkpt>
      <trkpt lat="-34.6207250095903873443603515625" lon="-58.99563730694353580474853515625">
        <ele>5.80000019073486328125</ele>
        <time>2020-02-25T14:10:21.000Z</time>
      </trkpt>
      <trkpt lat="-34.6205362491309642791748046875" lon="-58.99528920650482177734375">
        <ele>5.599999904632568359375</ele>
        <time>2020-02-25T14:10:31.000Z</time>
      </trkpt>
      <trkpt lat="-34.62033969350159168243408203125" lon="-58.99492300115525722503662109375">
        <ele>5.400000095367431640625</ele>
        <time>2020-02-25T14:10:41.000Z</time>
      </trkpt>
      <trkpt lat="-34.62011857889592647552490234375" lon="-58.994501642882823944091796875">
        <ele>5.599999904632568359375</ele>
        <time>2020-02-25T14:10:53.000Z</time>
      </trkpt>
      <trkpt lat="-34.6199302375316619873046875" lon="-58.99414113722741603851318359375">
        <ele>5.599999904632568359375</ele>
        <time>2020-02-25T14:11:03.000Z</time>
      </trkpt>
      <trkpt lat="-34.61976972408592700958251953125" lon="-58.993832767009735107421875">
        <ele>5.599999904632568359375</ele>
        <time>2020-02-25T14:11:12.000Z</time>
      </trkpt>
      <trkpt lat="-34.61960275657474994659423828125" lon="-58.99350662715733051300048828125">
        <ele>5.19999980926513671875</ele>
        <time>2020-02-25T14:11:21.000Z</time>
      </trkpt>
      <trkpt lat="-34.61937326006591320037841796875" lon="-58.993072025477886199951171875">
        <ele>5.400000095367431640625</ele>
        <time>2020-02-25T14:11:33.000Z</time>
      </trkpt>
      <trkpt lat="-34.61918517015874385833740234375" lon="-58.992708586156368255615234375">
        <ele>5.599999904632568359375</ele>
        <time>2020-02-25T14:11:43.000Z</time>
      </trkpt>
      <trkpt lat="-34.61899205110967159271240234375" lon="-58.9923272095620632171630859375">
        <ele>5.400000095367431640625</ele>
        <time>2020-02-25T14:11:53.000Z</time>
      </trkpt>
      <trkpt lat="-34.6187991835176944732666015625" lon="-58.99195295758545398712158203125">
        <ele>5.19999980926513671875</ele>
        <time>2020-02-25T14:12:03.000Z</time>
      </trkpt>
      <trkpt lat="-34.6185665018856525421142578125" lon="-58.9914960600435733795166015625">
        <ele>5.599999904632568359375</ele>
        <time>2020-02-25T14:12:15.000Z</time>
      </trkpt>
      <trkpt lat="-34.61839626543223857879638671875" lon="-58.991161622107028961181640625">
        <ele>5.80000019073486328125</ele>
        <time>2020-02-25T14:12:24.000Z</time>
      </trkpt>
      <trkpt lat="-34.61826768703758716583251953125" lon="-58.9909106679260730743408203125">
        <ele>6</ele>
        <time>2020-02-25T14:12:31.000Z</time>
      </trkpt>
      <trkpt lat="-34.618115723133087158203125" lon="-58.990599028766155242919921875">
        <ele>6</ele>
        <time>2020-02-25T14:12:40.000Z</time>
      </trkpt>
      <trkpt lat="-34.61792453192174434661865234375" lon="-58.99023751728236675262451171875">
        <ele>6</ele>
        <time>2020-02-25T14:12:50.000Z</time>
      </trkpt>
      <trkpt lat="-34.61777449585497379302978515625" lon="-58.9899601601064205169677734375">
        <ele>6</ele>
        <time>2020-02-25T14:12:58.000Z</time>
      </trkpt>
      <trkpt lat="-34.61762865073978900909423828125" lon="-58.9896832220256328582763671875">
        <ele>6.19999980926513671875</ele>
        <time>2020-02-25T14:13:07.000Z</time>
      </trkpt>
      <trkpt lat="-34.6175603382289409637451171875" lon="-58.9896272309124469757080078125">
        <ele>6.19999980926513671875</ele>
        <time>2020-02-25T14:13:11.000Z</time>
      </trkpt>
      <trkpt lat="-34.617548100650310516357421875" lon="-58.9896366186439990997314453125">
        <ele>6.19999980926513671875</ele>
        <time>2020-02-25T14:13:12.000Z</time>
      </trkpt>
      <trkpt lat="-34.61746000684797763824462890625" lon="-58.98971767164766788482666015625">
        <ele>6.400000095367431640625</ele>
        <time>2020-02-25T14:13:18.000Z</time>
      </trkpt>
      <trkpt lat="-34.617315419018268585205078125" lon="-58.989825882017612457275390625">
        <ele>6.400000095367431640625</ele>
        <time>2020-02-25T14:13:26.000Z</time>
      </trkpt>
      <trkpt lat="-34.6171568334102630615234375" lon="-58.98994465358555316925048828125">
        <ele>6.599999904632568359375</ele>
        <time>2020-02-25T14:13:34.000Z</time>
      </trkpt>
      <trkpt lat="-34.6169610321521759033203125" lon="-58.990069963037967681884765625">
        <ele>6.400000095367431640625</ele>
        <time>2020-02-25T14:13:43.000Z</time>
      </trkpt>
      <trkpt lat="-34.61673614569008350372314453125" lon="-58.99024371989071369171142578125">
        <ele>6.599999904632568359375</ele>
        <time>2020-02-25T14:13:53.000Z</time>
      </trkpt>
      <trkpt lat="-34.6165855228900909423828125" lon="-58.9903688617050647735595703125">
        <ele>6.599999904632568359375</ele>
        <time>2020-02-25T14:14:01.000Z</time>
      </trkpt>
      <trkpt lat="-34.6164552681148052215576171875" lon="-58.9904808439314365386962890625">
        <ele>6.599999904632568359375</ele>
        <time>2020-02-25T14:14:08.000Z</time>
      </trkpt>
      <trkpt lat="-34.6162846125662326812744140625" lon="-58.990595676004886627197265625">
        <ele>6.80000019073486328125</ele>
        <time>2020-02-25T14:14:16.000Z</time>
      </trkpt>
      <trkpt lat="-34.6161163039505481719970703125" lon="-58.9907282777130603790283203125">
        <ele>6.599999904632568359375</ele>
        <time>2020-02-25T14:14:25.000Z</time>
      </trkpt>
      <trkpt lat="-34.61600415408611297607421875" lon="-58.99080916307866573333740234375">
        <ele>7</ele>
        <time>2020-02-25T14:14:31.000Z</time>
      </trkpt>
      <trkpt lat="-34.61584146134555339813232421875" lon="-58.99091628380119800567626953125">
        <ele>6.80000019073486328125</ele>
        <time>2020-02-25T14:14:39.000Z</time>
      </trkpt>
      <trkpt lat="-34.61569109000265598297119140625" lon="-58.991013430058956146240234375">
        <ele>7</ele>
        <time>2020-02-25T14:14:47.000Z</time>
      </trkpt>
      <trkpt lat="-34.6155714802443981170654296875" lon="-58.9911255799233913421630859375">
        <ele>7</ele>
        <time>2020-02-25T14:14:54.000Z</time>
      </trkpt>
      <trkpt lat="-34.615445919334888458251953125" lon="-58.99123177863657474517822265625">
        <ele>7</ele>
        <time>2020-02-25T14:15:01.000Z</time>
      </trkpt>
      <trkpt lat="-34.6152834780514240264892578125" lon="-58.9913455210626125335693359375">
        <ele>6.599999904632568359375</ele>
        <time>2020-02-25T14:15:09.000Z</time>
      </trkpt>
      <trkpt lat="-34.61513855494558811187744140625" lon="-58.99147585965692996978759765625">
        <ele>6.80000019073486328125</ele>
        <time>2020-02-25T14:15:17.000Z</time>
      </trkpt>
      <trkpt lat="-34.61495230905711650848388671875" lon="-58.991609551012516021728515625">
        <ele>7</ele>
        <time>2020-02-25T14:15:27.000Z</time>
      </trkpt>
      <trkpt lat="-34.61493269540369510650634765625" lon="-58.99162204004824161529541015625">
        <ele>7</ele>
        <time>2020-02-25T14:15:28.000Z</time>
      </trkpt>
      <trkpt lat="-34.614821970462799072265625" lon="-58.99170133285224437713623046875">
        <ele>7</ele>
        <time>2020-02-25T14:15:35.000Z</time>
      </trkpt>
      <trkpt lat="-34.614815600216388702392578125" lon="-58.99171390570700168609619140625">
        <ele>7</ele>
        <time>2020-02-25T14:15:41.000Z</time>
      </trkpt>
      <trkpt lat="-34.6148154325783252716064453125" lon="-58.99171558208763599395751953125">
        <ele>7</ele>
        <time>2020-02-25T14:15:57.000Z</time>
      </trkpt>
      <trkpt lat="-34.61481534875929355621337890625" lon="-58.9917153306305408477783203125">
        <ele>7</ele>
        <time>2020-02-25T14:16:16.000Z</time>
      </trkpt>
      <trkpt lat="-34.61481534875929355621337890625" lon="-58.99171541444957256317138671875">
        <ele>7</ele>
        <time>2020-02-25T14:16:17.000Z</time>
      </trkpt>
      <trkpt lat="-34.6148161031305789947509765625" lon="-58.9917166717350482940673828125">
        <ele>7</ele>
        <time>2020-02-25T14:16:42.000Z</time>
      </trkpt>
      <trkpt lat="-34.61481233127415180206298828125" lon="-58.99172144941985607147216796875">
        <ele>7</ele>
        <time>2020-02-25T14:17:00.000Z</time>
      </trkpt>
      <trkpt lat="-34.6147892810404300689697265625" lon="-58.99173259735107421875">
        <ele>7</ele>
        <time>2020-02-25T14:17:02.000Z</time>
      </trkpt>
      <trkpt lat="-34.614677131175994873046875" lon="-58.9918112196028232574462890625">
        <ele>6.400000095367431640625</ele>
        <time>2020-02-25T14:17:08.000Z</time>
      </trkpt>
      <trkpt lat="-34.6146179549396038055419921875" lon="-58.9918568171560764312744140625">
        <ele>6</ele>
        <time>2020-02-25T14:17:11.000Z</time>
      </trkpt>
      <trkpt lat="-34.614499099552631378173828125" lon="-58.9919627644121646881103515625">
        <ele>6.19999980926513671875</ele>
        <time>2020-02-25T14:17:17.000Z</time>
      </trkpt>
      <trkpt lat="-34.6143061481416225433349609375" lon="-58.9921126328408718109130859375">
        <ele>6.19999980926513671875</ele>
        <time>2020-02-25T14:17:26.000Z</time>
      </trkpt>
      <trkpt lat="-34.614281170070171356201171875" lon="-58.992132246494293212890625">
        <ele>6.19999980926513671875</ele>
        <time>2020-02-25T14:17:27.000Z</time>
      </trkpt>
      <trkpt lat="-34.6140422858297824859619140625" lon="-58.99229996837675571441650390625">
        <ele>6.400000095367431640625</ele>
        <time>2020-02-25T14:17:36.000Z</time>
      </trkpt>
      <trkpt lat="-34.61375855840742588043212890625" lon="-58.99252929724752902984619140625">
        <ele>6.599999904632568359375</ele>
        <time>2020-02-25T14:17:47.000Z</time>
      </trkpt>
      <trkpt lat="-34.61349067278206348419189453125" lon="-58.9927721209824085235595703125">
        <ele>6.400000095367431640625</ele>
        <time>2020-02-25T14:17:57.000Z</time>
      </trkpt>
      <trkpt lat="-34.61333527229726314544677734375" lon="-58.99287312291562557220458984375">
        <ele>6.599999904632568359375</ele>
        <time>2020-02-25T14:18:03.000Z</time>
      </trkpt>
      <trkpt lat="-34.61311365477740764617919921875" lon="-58.99302768521010875701904296875">
        <ele>7</ele>
        <time>2020-02-25T14:18:11.000Z</time>
      </trkpt>
      <trkpt lat="-34.6128741838037967681884765625" lon="-58.993228264153003692626953125">
        <ele>6.400000095367431640625</ele>
        <time>2020-02-25T14:18:20.000Z</time>
      </trkpt>
      <trkpt lat="-34.6126735210418701171875" lon="-58.993385173380374908447265625">
        <ele>6.80000019073486328125</ele>
        <time>2020-02-25T14:18:28.000Z</time>
      </trkpt>
      <trkpt lat="-34.61246388964354991912841796875" lon="-58.99354501627385616302490234375">
        <ele>6.599999904632568359375</ele>
        <time>2020-02-25T14:18:36.000Z</time>
      </trkpt>
      <trkpt lat="-34.612266831099987030029296875" lon="-58.99368549697101116180419921875">
        <ele>6.80000019073486328125</ele>
        <time>2020-02-25T14:18:43.000Z</time>
      </trkpt>
      <trkpt lat="-34.6120269410312175750732421875" lon="-58.993860594928264617919921875">
        <ele>7</ele>
        <time>2020-02-25T14:18:52.000Z</time>
      </trkpt>
      <trkpt lat="-34.61186550557613372802734375" lon="-58.99401725269854068756103515625">
        <ele>7</ele>
        <time>2020-02-25T14:19:00.000Z</time>
      </trkpt>
      <trkpt lat="-34.61173952557146549224853515625" lon="-58.9940659515559673309326171875">
        <ele>6.80000019073486328125</ele>
        <time>2020-02-25T14:19:06.000Z</time>
      </trkpt>
      <trkpt lat="-34.611596949398517608642578125" lon="-58.99417064152657985687255859375">
        <ele>7.19999980926513671875</ele>
        <time>2020-02-25T14:19:13.000Z</time>
      </trkpt>
      <trkpt lat="-34.6114016510546207427978515625" lon="-58.9943237788975238800048828125">
        <ele>7.19999980926513671875</ele>
        <time>2020-02-25T14:19:22.000Z</time>
      </trkpt>
      <trkpt lat="-34.61113938130438327789306640625" lon="-58.994513712823390960693359375">
        <ele>7.400000095367431640625</ele>
        <time>2020-02-25T14:19:33.000Z</time>
      </trkpt>
      <trkpt lat="-34.61092027835547924041748046875" lon="-58.99468344636261463165283203125">
        <ele>7.400000095367431640625</ele>
        <time>2020-02-25T14:19:42.000Z</time>
      </trkpt>
      <trkpt lat="-34.6107565797865390777587890625" lon="-58.9948002062737941741943359375">
        <ele>7.599999904632568359375</ele>
        <time>2020-02-25T14:19:49.000Z</time>
      </trkpt>
      <trkpt lat="-34.61054778657853603363037109375" lon="-58.99498251266777515411376953125">
        <ele>7.599999904632568359375</ele>
        <time>2020-02-25T14:19:58.000Z</time>
      </trkpt>
      <trkpt lat="-34.61035005748271942138671875" lon="-58.99515467695891857147216796875">
        <ele>7.80000019073486328125</ele>
        <time>2020-02-25T14:20:06.000Z</time>
      </trkpt>
      <trkpt lat="-34.6102385781705379486083984375" lon="-58.99523715488612651824951171875">
        <ele>7.80000019073486328125</ele>
        <time>2020-02-25T14:20:11.000Z</time>
      </trkpt>
      <trkpt lat="-34.61019314825534820556640625" lon="-58.9952695928514003753662109375">
        <ele>7.80000019073486328125</ele>
        <time>2020-02-25T14:20:13.000Z</time>
      </trkpt>
      <trkpt lat="-34.61011544801294803619384765625" lon="-58.995329439640045166015625">
        <ele>7.80000019073486328125</ele>
        <time>2020-02-25T14:20:18.000Z</time>
      </trkpt>
      <trkpt lat="-34.6100248396396636962890625" lon="-58.995408900082111358642578125">
        <ele>7.80000019073486328125</ele>
        <time>2020-02-25T14:20:23.000Z</time>
      </trkpt>
      <trkpt lat="-34.60981822572648525238037109375" lon="-58.99556203745305538177490234375">
        <ele>7.80000019073486328125</ele>
        <time>2020-02-25T14:20:32.000Z</time>
      </trkpt>
      <trkpt lat="-34.60963298566639423370361328125" lon="-58.99570402689278125762939453125">
        <ele>7.599999904632568359375</ele>
        <time>2020-02-25T14:20:40.000Z</time>
      </trkpt>
      <trkpt lat="-34.6094433031976222991943359375" lon="-58.99585473351180553436279296875">
        <ele>7.400000095367431640625</ele>
        <time>2020-02-25T14:20:48.000Z</time>
      </trkpt>
      <trkpt lat="-34.609222523868083953857421875" lon="-58.99601331911981105804443359375">
        <ele>7.80000019073486328125</ele>
        <time>2020-02-25T14:20:57.000Z</time>
      </trkpt>
      <trkpt lat="-34.60903116501867771148681640625" lon="-58.99616268463432788848876953125">
        <ele>7.80000019073486328125</ele>
        <time>2020-02-25T14:21:05.000Z</time>
      </trkpt>
      <trkpt lat="-34.6088270656764507293701171875" lon="-58.99631842039525508880615234375">
        <ele>8</ele>
        <time>2020-02-25T14:21:13.000Z</time>
      </trkpt>
      <trkpt lat="-34.6085630357265472412109375" lon="-58.99653215892612934112548828125">
        <ele>7.80000019073486328125</ele>
        <time>2020-02-25T14:21:24.000Z</time>
      </trkpt>
      <trkpt lat="-34.608513414859771728515625" lon="-58.99656836874783039093017578125">
        <ele>8.19999980926513671875</ele>
        <time>2020-02-25T14:21:26.000Z</time>
      </trkpt>
      <trkpt lat="-34.60831166245043277740478515625" lon="-58.99671823717653751373291015625">
        <ele>8</ele>
        <time>2020-02-25T14:21:34.000Z</time>
      </trkpt>
      <trkpt lat="-34.60807621479034423828125" lon="-58.99688621051609516143798828125">
        <ele>8.3999996185302734375</ele>
        <time>2020-02-25T14:21:44.000Z</time>
      </trkpt>
      <trkpt lat="-34.60785183124244213104248046875" lon="-58.99706642143428325653076171875">
        <ele>8</ele>
        <time>2020-02-25T14:21:54.000Z</time>
      </trkpt>
      <trkpt lat="-34.60772819817066192626953125" lon="-58.99717840366065502166748046875">
        <ele>8</ele>
        <time>2020-02-25T14:22:00.000Z</time>
      </trkpt>
      <trkpt lat="-34.60768402554094791412353515625" lon="-58.9972101710736751556396484375">
        <ele>8</ele>
        <time>2020-02-25T14:22:02.000Z</time>
      </trkpt>
      <trkpt lat="-34.607501886785030364990234375" lon="-58.99732491932809352874755859375">
        <ele>7.80000019073486328125</ele>
        <time>2020-02-25T14:22:10.000Z</time>
      </trkpt>
      <trkpt lat="-34.60729544050991535186767578125" lon="-58.9974894560873508453369140625">
        <ele>8.3999996185302734375</ele>
        <time>2020-02-25T14:22:19.000Z</time>
      </trkpt>
      <trkpt lat="-34.6071252040565013885498046875" lon="-58.99763144552707672119140625">
        <ele>7.80000019073486328125</ele>
        <time>2020-02-25T14:22:27.000Z</time>
      </trkpt>
      <trkpt lat="-34.606956727802753448486328125" lon="-58.997767902910709381103515625">
        <ele>8</ele>
        <time>2020-02-25T14:22:35.000Z</time>
      </trkpt>
      <trkpt lat="-34.60680627264082431793212890625" lon="-58.99788231588900089263916015625">
        <ele>8.19999980926513671875</ele>
        <time>2020-02-25T14:22:42.000Z</time>
      </trkpt>
      <trkpt lat="-34.6066640317440032958984375" lon="-58.9979875087738037109375">
        <ele>8.6000003814697265625</ele>
        <time>2020-02-25T14:22:49.000Z</time>
      </trkpt>
      <trkpt lat="-34.6065344475209712982177734375" lon="-58.99808767251670360565185546875">
        <ele>8.19999980926513671875</ele>
        <time>2020-02-25T14:22:56.000Z</time>
      </trkpt>
      <trkpt lat="-34.6063983254134654998779296875" lon="-58.99818071164190769195556640625">
        <ele>8.19999980926513671875</ele>
        <time>2020-02-25T14:23:03.000Z</time>
      </trkpt>
      <trkpt lat="-34.60618550889194011688232421875" lon="-58.998351953923702239990234375">
        <ele>8.3999996185302734375</ele>
        <time>2020-02-25T14:23:13.000Z</time>
      </trkpt>
      <trkpt lat="-34.6060037054121494293212890625" lon="-58.9984855614602565765380859375">
        <ele>8.19999980926513671875</ele>
        <time>2020-02-25T14:23:21.000Z</time>
      </trkpt>
      <trkpt lat="-34.60577647201716899871826171875" lon="-58.99866946041584014892578125">
        <ele>8.3999996185302734375</ele>
        <time>2020-02-25T14:23:31.000Z</time>
      </trkpt>
      <trkpt lat="-34.60564588196575641632080078125" lon="-58.99877540767192840576171875">
        <ele>8.19999980926513671875</ele>
        <time>2020-02-25T14:23:38.000Z</time>
      </trkpt>
      <trkpt lat="-34.6055024676024913787841796875" lon="-58.9988808520138263702392578125">
        <ele>8</ele>
        <time>2020-02-25T14:23:46.000Z</time>
      </trkpt>
      <trkpt lat="-34.60532720200717449188232421875" lon="-58.99901102297008037567138671875">
        <ele>8.6000003814697265625</ele>
        <time>2020-02-25T14:23:55.000Z</time>
      </trkpt>
      <trkpt lat="-34.60518412292003631591796875" lon="-58.9991219155490398406982421875">
        <ele>8.3999996185302734375</ele>
        <time>2020-02-25T14:24:02.000Z</time>
      </trkpt>
      <trkpt lat="-34.6050568856298923492431640625" lon="-58.999231718480587005615234375">
        <ele>8.19999980926513671875</ele>
        <time>2020-02-25T14:24:09.000Z</time>
      </trkpt>
      <trkpt lat="-34.60493124090135097503662109375" lon="-58.999320901930332183837890625">
        <ele>8.6000003814697265625</ele>
        <time>2020-02-25T14:24:16.000Z</time>
      </trkpt>
      <trkpt lat="-34.60479863919317722320556640625" lon="-58.999426178634166717529296875">
        <ele>8.3999996185302734375</ele>
        <time>2020-02-25T14:24:22.000Z</time>
      </trkpt>
      <trkpt lat="-34.60461893118917942047119140625" lon="-58.999560289084911346435546875">
        <ele>8.3999996185302734375</ele>
        <time>2020-02-25T14:24:30.000Z</time>
      </trkpt>
      <trkpt lat="-34.6044807136058807373046875" lon="-58.99967151693999767303466796875">
        <ele>8</ele>
        <time>2020-02-25T14:24:37.000Z</time>
      </trkpt>
      <trkpt lat="-34.604306034743785858154296875" lon="-58.99978257715702056884765625">
        <ele>8.19999980926513671875</ele>
        <time>2020-02-25T14:24:45.000Z</time>
      </trkpt>
      <trkpt lat="-34.60417091846466064453125" lon="-58.99988609366118907928466796875">
        <ele>8</ele>
        <time>2020-02-25T14:24:53.000Z</time>
      </trkpt>
      <trkpt lat="-34.60398894734680652618408203125" lon="-59.00004283525049686431884765625">
        <ele>8.3999996185302734375</ele>
        <time>2020-02-25T14:25:03.000Z</time>
      </trkpt>
      <trkpt lat="-34.60384528152644634246826171875" lon="-59.00017543695867061614990234375">
        <ele>8</ele>
        <time>2020-02-25T14:25:11.000Z</time>
      </trkpt>
      <trkpt lat="-34.6036909706890583038330078125" lon="-59.00028624571859836578369140625">
        <ele>8</ele>
        <time>2020-02-25T14:25:19.000Z</time>
      </trkpt>
      <trkpt lat="-34.6035803295671939849853515625" lon="-59.000379703938961029052734375">
        <ele>8</ele>
        <time>2020-02-25T14:25:26.000Z</time>
      </trkpt>
      <trkpt lat="-34.6035270206630229949951171875" lon="-59.00042337365448474884033203125">
        <ele>8.19999980926513671875</ele>
        <time>2020-02-25T14:25:31.000Z</time>
      </trkpt>
      <trkpt lat="-34.60351771675050258636474609375" lon="-59.0004301629960536956787109375">
        <ele>8.19999980926513671875</ele>
        <time>2020-02-25T14:25:32.000Z</time>
      </trkpt>
      <trkpt lat="-34.60343507118523120880126953125" lon="-59.000477604568004608154296875">
        <ele>8</ele>
        <time>2020-02-25T14:25:37.000Z</time>
      </trkpt>
      <trkpt lat="-34.60327313281595706939697265625" lon="-59.00060660205781459808349609375">
        <ele>7.80000019073486328125</ele>
        <time>2020-02-25T14:25:46.000Z</time>
      </trkpt>
      <trkpt lat="-34.60308261215686798095703125" lon="-59.00076082907617092132568359375">
        <ele>8.19999980926513671875</ele>
        <time>2020-02-25T14:25:55.000Z</time>
      </trkpt>
      <trkpt lat="-34.6029396168887615203857421875" lon="-59.00087180547416210174560546875">
        <ele>8</ele>
        <time>2020-02-25T14:26:03.000Z</time>
      </trkpt>
      <trkpt lat="-34.602793939411640167236328125" lon="-59.00097976438701152801513671875">
        <ele>7.80000019073486328125</ele>
        <time>2020-02-25T14:26:10.000Z</time>
      </trkpt>
      <trkpt lat="-34.60259604267776012420654296875" lon="-59.00113080628216266632080078125">
        <ele>7.599999904632568359375</ele>
        <time>2020-02-25T14:26:19.000Z</time>
      </trkpt>
      <trkpt lat="-34.602455310523509979248046875" lon="-59.00124245323240756988525390625">
        <ele>7.599999904632568359375</ele>
        <time>2020-02-25T14:26:26.000Z</time>
      </trkpt>
      <trkpt lat="-34.6023052744567394256591796875" lon="-59.0013504959642887115478515625">
        <ele>7.599999904632568359375</ele>
        <time>2020-02-25T14:26:33.000Z</time>
      </trkpt>
      <trkpt lat="-34.60216253064572811126708984375" lon="-59.00146759115159511566162109375">
        <ele>7.400000095367431640625</ele>
        <time>2020-02-25T14:26:40.000Z</time>
      </trkpt>
      <trkpt lat="-34.60202003829181194305419921875" lon="-59.0015704371035099029541015625">
        <ele>7</ele>
        <time>2020-02-25T14:26:47.000Z</time>
      </trkpt>
      <trkpt lat="-34.60185826756060123443603515625" lon="-59.00169289670884609222412109375">
        <ele>7.19999980926513671875</ele>
        <time>2020-02-25T14:26:54.000Z</time>
      </trkpt>
      <trkpt lat="-34.60169213823974132537841796875" lon="-59.00183455087244510650634765625">
        <ele>7.19999980926513671875</ele>
        <time>2020-02-25T14:27:01.000Z</time>
      </trkpt>
      <trkpt lat="-34.60149415768682956695556640625" lon="-59.0020046196877956390380859375">
        <ele>7.19999980926513671875</ele>
        <time>2020-02-25T14:27:09.000Z</time>
      </trkpt>
      <trkpt lat="-34.6011680178344249725341796875" lon="-59.0022362954914569854736328125">
        <ele>7.400000095367431640625</ele>
        <time>2020-02-25T14:27:22.000Z</time>
      </trkpt>
      <trkpt lat="-34.600946567952632904052734375" lon="-59.0024198591709136962890625">
        <ele>7</ele>
        <time>2020-02-25T14:27:31.000Z</time>
      </trkpt>
      <trkpt lat="-34.6006929315626621246337890625" lon="-59.00260384194552898406982421875">
        <ele>7</ele>
        <time>2020-02-25T14:27:41.000Z</time>
      </trkpt>
      <trkpt lat="-34.600529484450817108154296875" lon="-59.0027341805398464202880859375">
        <ele>6.80000019073486328125</ele>
        <time>2020-02-25T14:27:48.000Z</time>
      </trkpt>
      <trkpt lat="-34.60037886165082454681396484375" lon="-59.00285295210778713226318359375">
        <ele>6.80000019073486328125</ele>
        <time>2020-02-25T14:27:55.000Z</time>
      </trkpt>
      <trkpt lat="-34.60020619444549083709716796875" lon="-59.00298915803432464599609375">
        <ele>6.80000019073486328125</ele>
        <time>2020-02-25T14:28:04.000Z</time>
      </trkpt>
      <trkpt lat="-34.60002900101244449615478515625" lon="-59.00311279110610485076904296875">
        <ele>7.19999980926513671875</ele>
        <time>2020-02-25T14:28:12.000Z</time>
      </trkpt>
      <trkpt lat="-34.5999630354344844818115234375" lon="-59.0031158924102783203125">
        <ele>7</ele>
        <time>2020-02-25T14:28:15.000Z</time>
      </trkpt>
      <trkpt lat="-34.59994350560009479522705078125" lon="-59.00310139171779155731201171875">
        <ele>7</ele>
        <time>2020-02-25T14:28:16.000Z</time>
      </trkpt>
      <trkpt lat="-34.59987158887088298797607421875" lon="-59.0029970370233058929443359375">
        <ele>7</ele>
        <time>2020-02-25T14:28:21.000Z</time>
      </trkpt>
      <trkpt lat="-34.59974803961813449859619140625" lon="-59.00275287218391895294189453125">
        <ele>7</ele>
        <time>2020-02-25T14:28:29.000Z</time>
      </trkpt>
      <trkpt lat="-34.59964628331363201141357421875" lon="-59.00256562046706676483154296875">
        <ele>6.80000019073486328125</ele>
        <time>2020-02-25T14:28:35.000Z</time>
      </trkpt>
      <trkpt lat="-34.599520973861217498779296875" lon="-59.0023271553218364715576171875">
        <ele>7.400000095367431640625</ele>
        <time>2020-02-25T14:28:43.000Z</time>
      </trkpt>
      <trkpt lat="-34.59950312040746212005615234375" lon="-59.00230385363101959228515625">
        <ele>6.80000019073486328125</ele>
        <time>2020-02-25T14:28:47.000Z</time>
      </trkpt>
      <trkpt lat="-34.5994959957897663116455078125" lon="-59.002289436757564544677734375">
        <ele>7</ele>
        <time>2020-02-25T14:28:48.000Z</time>
      </trkpt>
      <trkpt lat="-34.5994165353477001190185546875" lon="-59.00214937515556812286376953125">
        <ele>7</ele>
        <time>2020-02-25T14:28:54.000Z</time>
      </trkpt>
      <trkpt lat="-34.59927798248827457427978515625" lon="-59.00187109597027301788330078125">
        <ele>6.80000019073486328125</ele>
        <time>2020-02-25T14:29:03.000Z</time>
      </trkpt>
      <trkpt lat="-34.599162228405475616455078125" lon="-59.00164109654724597930908203125">
        <ele>7</ele>
        <time>2020-02-25T14:29:11.000Z</time>
      </trkpt>
      <trkpt lat="-34.59910715930163860321044921875" lon="-59.00153380818665027618408203125">
        <ele>7.19999980926513671875</ele>
        <time>2020-02-25T14:29:17.000Z</time>
      </trkpt>
      <trkpt lat="-34.59903742186725139617919921875" lon="-59.0014252625405788421630859375">
        <ele>7.19999980926513671875</ele>
        <time>2020-02-25T14:29:23.000Z</time>
      </trkpt>
      <trkpt lat="-34.5989607274532318115234375" lon="-59.00126994587481021881103515625">
        <ele>7.599999904632568359375</ele>
        <time>2020-02-25T14:29:30.000Z</time>
      </trkpt>
      <trkpt lat="-34.59888000972568988800048828125" lon="-59.00114555843174457550048828125">
        <ele>7.19999980926513671875</ele>
        <time>2020-02-25T14:29:38.000Z</time>
      </trkpt>
      <trkpt lat="-34.59881228394806385040283203125" lon="-59.00101060979068279266357421875">
        <ele>7.19999980926513671875</ele>
        <time>2020-02-25T14:29:46.000Z</time>
      </trkpt>
      <trkpt lat="-34.59873835556209087371826171875" lon="-59.000863842666149139404296875">
        <ele>7.400000095367431640625</ele>
        <time>2020-02-25T14:29:53.000Z</time>
      </trkpt>
      <trkpt lat="-34.59864598698914051055908203125" lon="-59.000680111348628997802734375">
        <ele>7.400000095367431640625</ele>
        <time>2020-02-25T14:30:01.000Z</time>
      </trkpt>
      <trkpt lat="-34.59852285683155059814453125" lon="-59.00051155127584934234619140625">
        <ele>7.599999904632568359375</ele>
        <time>2020-02-25T14:30:09.000Z</time>
      </trkpt>
      <trkpt lat="-34.5984797738492488861083984375" lon="-59.00050551630556583404541015625">
        <ele>7.599999904632568359375</ele>
        <time>2020-02-25T14:30:11.000Z</time>
      </trkpt>
      <trkpt lat="-34.598440043628215789794921875" lon="-59.00052554905414581298828125">
        <ele>7.599999904632568359375</ele>
        <time>2020-02-25T14:30:13.000Z</time>
      </trkpt>
      <trkpt lat="-34.59833200089633464813232421875" lon="-59.0006013214588165283203125">
        <ele>7.80000019073486328125</ele>
        <time>2020-02-25T14:30:19.000Z</time>
      </trkpt>
      <trkpt lat="-34.5982293225824832916259765625" lon="-59.00068916380405426025390625">
        <ele>7.80000019073486328125</ele>
        <time>2020-02-25T14:30:26.000Z</time>
      </trkpt>
      <trkpt lat="-34.5981756784021854400634765625" lon="-59.00074741803109645843505859375">
        <ele>7.599999904632568359375</ele>
        <time>2020-02-25T14:30:32.000Z</time>
      </trkpt>
      <trkpt lat="-34.59806126542389392852783203125" lon="-59.00078974664211273193359375">
        <ele>7.80000019073486328125</ele>
        <time>2020-02-25T14:30:40.000Z</time>
      </trkpt>
      <trkpt lat="-34.59803226403892040252685546875" lon="-59.000796116888523101806640625">
        <ele>7.80000019073486328125</ele>
        <time>2020-02-25T14:30:46.000Z</time>
      </trkpt>
      <trkpt lat="-34.59803276695311069488525390625" lon="-59.000796787440776824951171875">
        <ele>7.80000019073486328125</ele>
        <time>2020-02-25T14:30:59.000Z</time>
      </trkpt>
      <trkpt lat="-34.59803008474409580230712890625" lon="-59.00079645216464996337890625">
        <ele>7.80000019073486328125</ele>
        <time>2020-02-25T14:31:10.000Z</time>
      </trkpt>
      <trkpt lat="-34.5980194397270679473876953125" lon="-59.000789411365985870361328125">
        <ele>7.599999904632568359375</ele>
        <time>2020-02-25T14:31:13.000Z</time>
      </trkpt>
      <trkpt lat="-34.59801030345261096954345703125" lon="-59.00076485238969326019287109375">
        <ele>7.599999904632568359375</ele>
        <time>2020-02-25T14:31:16.000Z</time>
      </trkpt>
      <trkpt lat="-34.5980100519955158233642578125" lon="-59.00073249824345111846923828125">
        <ele>7.599999904632568359375</ele>
        <time>2020-02-25T14:31:22.000Z</time>
      </trkpt>
      <trkpt lat="-34.59801130928099155426025390625" lon="-59.000718332827091217041015625">
        <ele>7.400000095367431640625</ele>
        <time>2020-02-25T14:31:23.000Z</time>
      </trkpt>
      <trkpt lat="-34.5980380475521087646484375" lon="-59.00053770281374454498291015625">
        <ele>7.400000095367431640625</ele>
        <time>2020-02-25T14:31:31.000Z</time>
      </trkpt>
      <trkpt lat="-34.59810133092105388641357421875" lon="-59.0002517960965633392333984375">
        <ele>7.80000019073486328125</ele>
        <time>2020-02-25T14:31:42.000Z</time>
      </trkpt>
      <trkpt lat="-34.59815296344459056854248046875" lon="-59.000038392841815948486328125">
        <ele>8</ele>
        <time>2020-02-25T14:31:50.000Z</time>
      </trkpt>
      <trkpt lat="-34.59817073307931423187255859375" lon="-58.99996169842779636383056640625">
        <ele>8</ele>
        <time>2020-02-25T14:31:53.000Z</time>
      </trkpt>
      <trkpt lat="-34.59819738753139972686767578125" lon="-58.999857343733310699462890625">
        <ele>8.19999980926513671875</ele>
        <time>2020-02-25T14:31:57.000Z</time>
      </trkpt>
      <trkpt lat="-34.598264358937740325927734375" lon="-58.99964838288724422454833984375">
        <ele>8</ele>
        <time>2020-02-25T14:32:06.000Z</time>
      </trkpt>
      <trkpt lat="-34.59831657819449901580810546875" lon="-58.99946850724518299102783203125">
        <ele>8.3999996185302734375</ele>
        <time>2020-02-25T14:32:14.000Z</time>
      </trkpt>
      <trkpt lat="-34.59835588932037353515625" lon="-58.99930916726589202880859375">
        <ele>8.3999996185302734375</ele>
        <time>2020-02-25T14:32:21.000Z</time>
      </trkpt>
      <trkpt lat="-34.59840592928230762481689453125" lon="-58.999076820909976959228515625">
        <ele>8</ele>
        <time>2020-02-25T14:32:30.000Z</time>
      </trkpt>
      <trkpt lat="-34.598449766635894775390625" lon="-58.998835422098636627197265625">
        <ele>8.19999980926513671875</ele>
        <time>2020-02-25T14:32:39.000Z</time>
      </trkpt>
      <trkpt lat="-34.59850332699716091156005859375" lon="-58.99858991615474224090576171875">
        <ele>8</ele>
        <time>2020-02-25T14:32:48.000Z</time>
      </trkpt>
      <trkpt lat="-34.59850014187395572662353515625" lon="-58.99840970523655414581298828125">
        <ele>8.6000003814697265625</ele>
        <time>2020-02-25T14:32:56.000Z</time>
      </trkpt>
      <trkpt lat="-34.59840626455843448638916015625" lon="-58.9983537979423999786376953125">
        <ele>8.80000019073486328125</ele>
        <time>2020-02-25T14:33:01.000Z</time>
      </trkpt>
      <trkpt lat="-34.59831171669065952301025390625" lon="-58.99831851013004779815673828125">
        <ele>9.19999980926513671875</ele>
        <time>2020-02-25T14:33:06.000Z</time>
      </trkpt>
      <trkpt lat="-34.598265700042247772216796875" lon="-58.998305685818195343017578125">
        <ele>9.3999996185302734375</ele>
        <time>2020-02-25T14:33:08.000Z</time>
      </trkpt>
      <trkpt lat="-34.59810401313006877899169921875" lon="-58.99830736219882965087890625">
        <ele>8.6000003814697265625</ele>
        <time>2020-02-25T14:33:15.000Z</time>
      </trkpt>
      <trkpt lat="-34.59805212914943695068359375" lon="-58.99841054342687129974365234375">
        <ele>8.3999996185302734375</ele>
        <time>2020-02-25T14:33:19.000Z</time>
      </trkpt>
      <trkpt lat="-34.59796487353742122650146484375" lon="-58.99874079041182994842529296875">
        <ele>8.3999996185302734375</ele>
        <time>2020-02-25T14:33:29.000Z</time>
      </trkpt>
      <trkpt lat="-34.59785104729235172271728515625" lon="-58.9991608075797557830810546875">
        <ele>8.3999996185302734375</ele>
        <time>2020-02-25T14:33:41.000Z</time>
      </trkpt>
      <trkpt lat="-34.59777058102190494537353515625" lon="-58.99944285862147808074951171875">
        <ele>8.19999980926513671875</ele>
        <time>2020-02-25T14:33:49.000Z</time>
      </trkpt>
      <trkpt lat="-34.5977391488850116729736328125" lon="-58.99954528547823429107666015625">
        <ele>8.19999980926513671875</ele>
        <time>2020-02-25T14:33:52.000Z</time>
      </trkpt>
      <trkpt lat="-34.59763848222792148590087890625" lon="-58.99998533539474010467529296875">
        <ele>8.19999980926513671875</ele>
        <time>2020-02-25T14:34:05.000Z</time>
      </trkpt>
      <trkpt lat="-34.5975793898105621337890625" lon="-59.00027652271091938018798828125">
        <ele>8.3999996185302734375</ele>
        <time>2020-02-25T14:34:13.000Z</time>
      </trkpt>
      <trkpt lat="-34.5974719338119029998779296875" lon="-59.0007595717906951904296875">
        <ele>8.19999980926513671875</ele>
        <time>2020-02-25T14:34:26.000Z</time>
      </trkpt>
      <trkpt lat="-34.59737596102058887481689453125" lon="-59.001124687492847442626953125">
        <ele>8.19999980926513671875</ele>
        <time>2020-02-25T14:34:35.000Z</time>
      </trkpt>
      <trkpt lat="-34.59728040732443332672119140625" lon="-59.00149340741336345672607421875">
        <ele>8.19999980926513671875</ele>
        <time>2020-02-25T14:34:45.000Z</time>
      </trkpt>
      <trkpt lat="-34.59721259772777557373046875" lon="-59.0018507279455661773681640625">
        <ele>8</ele>
        <time>2020-02-25T14:34:55.000Z</time>
      </trkpt>
      <trkpt lat="-34.597155936062335968017578125" lon="-59.0021301805973052978515625">
        <ele>8</ele>
        <time>2020-02-25T14:35:03.000Z</time>
      </trkpt>
      <trkpt lat="-34.59710723720490932464599609375" lon="-59.00226294994354248046875">
        <ele>8</ele>
        <time>2020-02-25T14:35:09.000Z</time>
      </trkpt>
      <trkpt lat="-34.5970870368182659149169921875" lon="-59.0022701583802700042724609375">
        <ele>8.19999980926513671875</ele>
        <time>2020-02-25T14:35:14.000Z</time>
      </trkpt>
      <trkpt lat="-34.5970414392650127410888671875" lon="-59.00227912701666355133056640625">
        <ele>7.80000019073486328125</ele>
        <time>2020-02-25T14:35:21.000Z</time>
      </trkpt>
      <trkpt lat="-34.59703934378921985626220703125" lon="-59.00228105485439300537109375">
        <ele>7.80000019073486328125</ele>
        <time>2020-02-25T14:35:30.000Z</time>
      </trkpt>
      <trkpt lat="-34.5970349013805389404296875" lon="-59.00228633545339107513427734375">
        <ele>7.80000019073486328125</ele>
        <time>2020-02-25T14:35:42.000Z</time>
      </trkpt>
      <trkpt lat="-34.597036577761173248291015625" lon="-59.00229421444237232208251953125">
        <ele>7.80000019073486328125</ele>
        <time>2020-02-25T14:35:53.000Z</time>
      </trkpt>
      <trkpt lat="-34.5970370806753635406494140625" lon="-59.0022996626794338226318359375">
        <ele>7.80000019073486328125</ele>
        <time>2020-02-25T14:36:02.000Z</time>
      </trkpt>
      <trkpt lat="-34.59703347645699977874755859375" lon="-59.00229672901332378387451171875">
        <ele>7.80000019073486328125</ele>
        <time>2020-02-25T14:36:13.000Z</time>
      </trkpt>
      <trkpt lat="-34.59703146480023860931396484375" lon="-59.0022963099181652069091796875">
        <ele>7.80000019073486328125</ele>
        <time>2020-02-25T14:36:25.000Z</time>
      </trkpt>
      <trkpt lat="-34.59702827967703342437744140625" lon="-59.00229538790881633758544921875">
        <ele>7.599999904632568359375</ele>
        <time>2020-02-25T14:36:34.000Z</time>
      </trkpt>
      <trkpt lat="-34.597024507820606231689453125" lon="-59.0022983215749263763427734375">
        <ele>7.599999904632568359375</ele>
        <time>2020-02-25T14:36:43.000Z</time>
      </trkpt>
      <trkpt lat="-34.59701973013579845428466796875" lon="-59.002302177250385284423828125">
        <ele>7.599999904632568359375</ele>
        <time>2020-02-25T14:36:54.000Z</time>
      </trkpt>
      <trkpt lat="-34.5970199815928936004638671875" lon="-59.00230008177459239959716796875">
        <ele>7.599999904632568359375</ele>
        <time>2020-02-25T14:37:06.000Z</time>
      </trkpt>
      <trkpt lat="-34.5970203168690204620361328125" lon="-59.0023023448884487152099609375">
        <ele>7.599999904632568359375</ele>
        <time>2020-02-25T14:37:24.000Z</time>
      </trkpt>
      <trkpt lat="-34.59702056832611560821533203125" lon="-59.002307541668415069580078125">
        <ele>7.599999904632568359375</ele>
        <time>2020-02-25T14:37:35.000Z</time>
      </trkpt>
      <trkpt lat="-34.59701838903129100799560546875" lon="-59.0023090504109859466552734375">
        <ele>7.599999904632568359375</ele>
        <time>2020-02-25T14:37:44.000Z</time>
      </trkpt>
      <trkpt lat="-34.59701688028872013092041015625" lon="-59.0023117326200008392333984375">
        <ele>7.599999904632568359375</ele>
        <time>2020-02-25T14:37:56.000Z</time>
      </trkpt>
      <trkpt lat="-34.59701436571776866912841796875" lon="-59.00231449864804744720458984375">
        <ele>7.599999904632568359375</ele>
        <time>2020-02-25T14:38:06.000Z</time>
      </trkpt>
      <trkpt lat="-34.59701453335583209991455078125" lon="-59.002316258847713470458984375">
        <ele>7.599999904632568359375</ele>
        <time>2020-02-25T14:38:39.000Z</time>
      </trkpt>
      <trkpt lat="-34.5970139466226100921630859375" lon="-59.0023157559335231781005859375">
        <ele>7.599999904632568359375</ele>
        <time>2020-02-25T14:38:50.000Z</time>
      </trkpt>
      <trkpt lat="-34.59701218642294406890869140625" lon="-59.00232053361833095550537109375">
        <ele>7.599999904632568359375</ele>
        <time>2020-02-25T14:39:03.000Z</time>
      </trkpt>
      <trkpt lat="-34.5970122702419757843017578125" lon="-59.00231298990547657012939453125">
        <ele>7.599999904632568359375</ele>
        <time>2020-02-25T14:39:16.000Z</time>
      </trkpt>
      <trkpt lat="-34.59701101295650005340576171875" lon="-59.002314917743206024169921875">
        <ele>7.599999904632568359375</ele>
        <time>2020-02-25T14:39:30.000Z</time>
      </trkpt>
      <trkpt lat="-34.59700346924364566802978515625" lon="-59.0023110620677471160888671875">
        <ele>7.599999904632568359375</ele>
        <time>2020-02-25T14:39:45.000Z</time>
      </trkpt>
      <trkpt lat="-34.59699894301593303680419921875" lon="-59.0023150853812694549560546875">
        <ele>7.599999904632568359375</ele>
        <time>2020-02-25T14:39:53.000Z</time>
      </trkpt>
      <trkpt lat="-34.59699667990207672119140625" lon="-59.00231349281966686248779296875">
        <ele>7.599999904632568359375</ele>
        <time>2020-02-25T14:40:08.000Z</time>
      </trkpt>
      <trkpt lat="-34.5969988591969013214111328125" lon="-59.002306200563907623291015625">
        <ele>7.599999904632568359375</ele>
        <time>2020-02-25T14:40:17.000Z</time>
      </trkpt>
      <trkpt lat="-34.5970027148723602294921875" lon="-59.00230376981198787689208984375">
        <ele>7.599999904632568359375</ele>
        <time>2020-02-25T14:40:28.000Z</time>
      </trkpt>
      <trkpt lat="-34.59700397215783596038818359375" lon="-59.0023023448884487152099609375">
        <ele>7.599999904632568359375</ele>
        <time>2020-02-25T14:40:41.000Z</time>
      </trkpt>
      <trkpt lat="-34.59700363688170909881591796875" lon="-59.0023005008697509765625">
        <ele>7.599999904632568359375</ele>
        <time>2020-02-25T14:40:54.000Z</time>
      </trkpt>
      <trkpt lat="-34.5970053970813751220703125" lon="-59.002302847802639007568359375">
        <ele>7.599999904632568359375</ele>
        <time>2020-02-25T14:41:05.000Z</time>
      </trkpt>
      <trkpt lat="-34.597003050148487091064453125" lon="-59.00229991413652896881103515625">
        <ele>7.599999904632568359375</ele>
        <time>2020-02-25T14:41:18.000Z</time>
      </trkpt>
      <trkpt lat="-34.59700413979589939117431640625" lon="-59.0022979862987995147705078125">
        <ele>7.599999904632568359375</ele>
        <time>2020-02-25T14:41:30.000Z</time>
      </trkpt>
      <trkpt lat="-34.59700464271008968353271484375" lon="-59.0022969804704189300537109375">
        <ele>7.599999904632568359375</ele>
        <time>2020-02-25T14:41:44.000Z</time>
      </trkpt>
      <trkpt lat="-34.5970079116523265838623046875" lon="-59.00228868238627910614013671875">
        <ele>7.599999904632568359375</ele>
        <time>2020-02-25T14:41:58.000Z</time>
      </trkpt>
      <trkpt lat="-34.597007744014263153076171875" lon="-59.0022875927388668060302734375">
        <ele>7.599999904632568359375</ele>
        <time>2020-02-25T14:42:07.000Z</time>
      </trkpt>
      <trkpt lat="-34.5970069058239459991455078125" lon="-59.0022875927388668060302734375">
        <ele>7.599999904632568359375</ele>
        <time>2020-02-25T14:42:17.000Z</time>
      </trkpt>
      <trkpt lat="-34.59700933657586574554443359375" lon="-59.00228507816791534423828125">
        <ele>7.599999904632568359375</ele>
        <time>2020-02-25T14:42:29.000Z</time>
      </trkpt>
      <trkpt lat="-34.59701277315616607666015625" lon="-59.00228440761566162109375">
        <ele>7.599999904632568359375</ele>
        <time>2020-02-25T14:42:40.000Z</time>
      </trkpt>
      <trkpt lat="-34.59701419807970523834228515625" lon="-59.0022842399775981903076171875">
        <ele>7.599999904632568359375</ele>
        <time>2020-02-25T14:42:54.000Z</time>
      </trkpt>
      <trkpt lat="-34.59701277315616607666015625" lon="-59.00228046812117099761962890625">
        <ele>7.599999904632568359375</ele>
        <time>2020-02-25T14:43:02.000Z</time>
      </trkpt>
      <trkpt lat="-34.59701386280357837677001953125" lon="-59.00227703154087066650390625">
        <ele>7.599999904632568359375</ele>
        <time>2020-02-25T14:43:13.000Z</time>
      </trkpt>
      <trkpt lat="-34.59701101295650005340576171875" lon="-59.00227510370314121246337890625">
        <ele>7.599999904632568359375</ele>
        <time>2020-02-25T14:43:25.000Z</time>
      </trkpt>
      <trkpt lat="-34.59701101295650005340576171875" lon="-59.0022728405892848968505859375">
        <ele>7.599999904632568359375</ele>
        <time>2020-02-25T14:43:34.000Z</time>
      </trkpt>
      <trkpt lat="-34.5970095880329608917236328125" lon="-59.00227007456123828887939453125">
        <ele>7.599999904632568359375</ele>
        <time>2020-02-25T14:43:42.000Z</time>
      </trkpt>
      <trkpt lat="-34.59701252169907093048095703125" lon="-59.0022580884397029876708984375">
        <ele>7.599999904632568359375</ele>
        <time>2020-02-25T14:43:59.000Z</time>
      </trkpt>
      <trkpt lat="-34.597010426223278045654296875" lon="-59.00225481949746608734130859375">
        <ele>7.599999904632568359375</ele>
        <time>2020-02-25T14:44:08.000Z</time>
      </trkpt>
      <trkpt lat="-34.597017467021942138671875" lon="-59.0022554062306880950927734375">
        <ele>7.599999904632568359375</ele>
        <time>2020-02-25T14:44:20.000Z</time>
      </trkpt>
      <trkpt lat="-34.59702677093446254730224609375" lon="-59.0022597648203372955322265625">
        <ele>7.599999904632568359375</ele>
        <time>2020-02-25T14:44:34.000Z</time>
      </trkpt>
      <trkpt lat="-34.5970290340483188629150390625" lon="-59.002261944115161895751953125">
        <ele>7.599999904632568359375</ele>
        <time>2020-02-25T14:44:43.000Z</time>
      </trkpt>
      <trkpt lat="-34.59703414700925350189208984375" lon="-59.002263285219669342041015625">
        <ele>7.599999904632568359375</ele>
        <time>2020-02-25T14:44:53.000Z</time>
      </trkpt>
      <trkpt lat="-34.59703749977052211761474609375" lon="-59.00227124802768230438232421875">
        <ele>7.599999904632568359375</ele>
        <time>2020-02-25T14:45:05.000Z</time>
      </trkpt>
      <trkpt lat="-34.59703884087502956390380859375" lon="-59.002275355160236358642578125">
        <ele>7.599999904632568359375</ele>
        <time>2020-02-25T14:45:18.000Z</time>
      </trkpt>
      <trkpt lat="-34.59703716449439525604248046875" lon="-59.0022802166640758514404296875">
        <ele>7.599999904632568359375</ele>
        <time>2020-02-25T14:45:36.000Z</time>
      </trkpt>
      <trkpt lat="-34.59702752530574798583984375" lon="-59.0022885985672473907470703125">
        <ele>7.599999904632568359375</ele>
        <time>2020-02-25T14:45:51.000Z</time>
      </trkpt>
      <trkpt lat="-34.59701989777386188507080078125" lon="-59.00229404680430889129638671875">
        <ele>7.599999904632568359375</ele>
        <time>2020-02-25T14:46:00.000Z</time>
      </trkpt>
      <trkpt lat="-34.59701000712811946868896484375" lon="-59.00229874067008495330810546875">
        <ele>7.599999904632568359375</ele>
        <time>2020-02-25T14:46:09.000Z</time>
      </trkpt>
      <trkpt lat="-34.59700397215783596038818359375" lon="-59.0022983215749263763427734375">
        <ele>7.599999904632568359375</ele>
        <time>2020-02-25T14:46:19.000Z</time>
      </trkpt>
      <trkpt lat="-34.59700078703463077545166015625" lon="-59.00229136459529399871826171875">
        <ele>7.599999904632568359375</ele>
        <time>2020-02-25T14:46:31.000Z</time>
      </trkpt>
      <trkpt lat="-34.59699860773980617523193359375" lon="-59.0022892691195011138916015625">
        <ele>7.599999904632568359375</ele>
        <time>2020-02-25T14:46:40.000Z</time>
      </trkpt>
      <trkpt lat="-34.5970126055181026458740234375" lon="-59.00228482671082019805908203125">
        <ele>7.599999904632568359375</ele>
        <time>2020-02-25T14:46:52.000Z</time>
      </trkpt>
      <trkpt lat="-34.597017802298069000244140625" lon="-59.00228147394955158233642578125">
        <ele>7.599999904632568359375</ele>
        <time>2020-02-25T14:47:03.000Z</time>
      </trkpt>
      <trkpt lat="-34.59701905958354473114013671875" lon="-59.00228365324437618255615234375">
        <ele>7.599999904632568359375</ele>
        <time>2020-02-25T14:47:11.000Z</time>
      </trkpt>
      <trkpt lat="-34.59702006541192531585693359375" lon="-59.00228784419596195220947265625">
        <ele>7.599999904632568359375</ele>
        <time>2020-02-25T14:47:19.000Z</time>
      </trkpt>
      <trkpt lat="-34.59704102016985416412353515625" lon="-59.00229723192751407623291015625">
        <ele>7.599999904632568359375</ele>
        <time>2020-02-25T14:47:30.000Z</time>
      </trkpt>
      <trkpt lat="-34.5970498211681842803955078125" lon="-59.00234366767108440399169921875">
        <ele>7.599999904632568359375</ele>
        <time>2020-02-25T14:47:40.000Z</time>
      </trkpt>
      <trkpt lat="-34.597064070403575897216796875" lon="-59.002468474209308624267578125">
        <ele>7.599999904632568359375</ele>
        <time>2020-02-25T14:47:47.000Z</time>
      </trkpt>
      <trkpt lat="-34.597031213343143463134765625" lon="-59.0026141516864299774169921875">
        <ele>7.599999904632568359375</ele>
        <time>2020-02-25T14:47:54.000Z</time>
      </trkpt>
      <trkpt lat="-34.5969733782112598419189453125" lon="-59.0028411336243152618408203125">
        <ele>7.80000019073486328125</ele>
        <time>2020-02-25T14:48:02.000Z</time>
      </trkpt>
      <trkpt lat="-34.5968858711421489715576171875" lon="-59.0031666867434978485107421875">
        <ele>7.80000019073486328125</ele>
        <time>2020-02-25T14:48:11.000Z</time>
      </trkpt>
      <trkpt lat="-34.59679073654115200042724609375" lon="-59.00350841693580150604248046875">
        <ele>8</ele>
        <time>2020-02-25T14:48:20.000Z</time>
      </trkpt>
      <trkpt lat="-34.5966803468763828277587890625" lon="-59.00390446186065673828125">
        <ele>8</ele>
        <time>2020-02-25T14:48:30.000Z</time>
      </trkpt>
      <trkpt lat="-34.596605412662029266357421875" lon="-59.00422423146665096282958984375">
        <ele>7.599999904632568359375</ele>
        <time>2020-02-25T14:48:38.000Z</time>
      </trkpt>
      <trkpt lat="-34.5965442247688770294189453125" lon="-59.00449999608099460601806640625">
        <ele>7.400000095367431640625</ele>
        <time>2020-02-25T14:48:45.000Z</time>
      </trkpt>
      <trkpt lat="-34.5964731462299823760986328125" lon="-59.0048102103173732757568359375">
        <ele>7.599999904632568359375</ele>
        <time>2020-02-25T14:48:53.000Z</time>
      </trkpt>
      <trkpt lat="-34.59640902467072010040283203125" lon="-59.00510885752737522125244140625">
        <ele>7.80000019073486328125</ele>
        <time>2020-02-25T14:49:01.000Z</time>
      </trkpt>
      <trkpt lat="-34.59634012542665004730224609375" lon="-59.00541278533637523651123046875">
        <ele>8</ele>
        <time>2020-02-25T14:49:09.000Z</time>
      </trkpt>
      <trkpt lat="-34.5962679572403430938720703125" lon="-59.0057288669049739837646484375">
        <ele>8.19999980926513671875</ele>
        <time>2020-02-25T14:49:18.000Z</time>
      </trkpt>
      <trkpt lat="-34.59621020592749118804931640625" lon="-59.00599566288292407989501953125">
        <ele>8</ele>
        <time>2020-02-25T14:49:26.000Z</time>
      </trkpt>
      <trkpt lat="-34.59617567248642444610595703125" lon="-59.006205461919307708740234375">
        <ele>7.80000019073486328125</ele>
        <time>2020-02-25T14:49:33.000Z</time>
      </trkpt>
      <trkpt lat="-34.59610945545136928558349609375" lon="-59.00649354793131351470947265625">
        <ele>8</ele>
        <time>2020-02-25T14:49:41.000Z</time>
      </trkpt>
      <trkpt lat="-34.59600166417658329010009765625" lon="-59.006947092711925506591796875">
        <ele>8.19999980926513671875</ele>
        <time>2020-02-25T14:49:53.000Z</time>
      </trkpt>
      <trkpt lat="-34.59591097198426723480224609375" lon="-59.0073256194591522216796875">
        <ele>8.19999980926513671875</ele>
        <time>2020-02-25T14:50:03.000Z</time>
      </trkpt>
      <trkpt lat="-34.5958247222006320953369140625" lon="-59.00765863247215747833251953125">
        <ele>8.19999980926513671875</ele>
        <time>2020-02-25T14:50:12.000Z</time>
      </trkpt>
      <trkpt lat="-34.5957472734153270721435546875" lon="-59.0079478919506072998046875">
        <ele>8.3999996185302734375</ele>
        <time>2020-02-25T14:50:20.000Z</time>
      </trkpt>
      <trkpt lat="-34.59566471166908740997314453125" lon="-59.0082414261996746063232421875">
        <ele>8.3999996185302734375</ele>
        <time>2020-02-25T14:50:28.000Z</time>
      </trkpt>
      <trkpt lat="-34.59557921625673770904541015625" lon="-59.00854828767478466033935546875">
        <ele>8.3999996185302734375</ele>
        <time>2020-02-25T14:50:37.000Z</time>
      </trkpt>
      <trkpt lat="-34.59548525512218475341796875" lon="-59.00893653742969036102294921875">
        <ele>8.3999996185302734375</ele>
        <time>2020-02-25T14:50:48.000Z</time>
      </trkpt>
      <trkpt lat="-34.5954237319529056549072265625" lon="-59.00923392735421657562255859375">
        <ele>8.19999980926513671875</ele>
        <time>2020-02-25T14:50:56.000Z</time>
      </trkpt>
      <trkpt lat="-34.59535893984138965606689453125" lon="-59.00951958261430263519287109375">
        <ele>8.19999980926513671875</ele>
        <time>2020-02-25T14:51:04.000Z</time>
      </trkpt>
      <trkpt lat="-34.59530848078429698944091796875" lon="-59.00976751931011676788330078125">
        <ele>8.19999980926513671875</ele>
        <time>2020-02-25T14:51:11.000Z</time>
      </trkpt>
      <trkpt lat="-34.59520454518496990203857421875" lon="-59.0101809985935688018798828125">
        <ele>8.3999996185302734375</ele>
        <time>2020-02-25T14:51:22.000Z</time>
      </trkpt>
      <trkpt lat="-34.59513782523572444915771484375" lon="-59.0105192922055721282958984375">
        <ele>8.3999996185302734375</ele>
        <time>2020-02-25T14:51:31.000Z</time>
      </trkpt>
      <trkpt lat="-34.59507630206644535064697265625" lon="-59.0108287520706653594970703125">
        <ele>8.3999996185302734375</ele>
        <time>2020-02-25T14:51:39.000Z</time>
      </trkpt>
      <trkpt lat="-34.5950043015182018280029296875" lon="-59.01120250113308429718017578125">
        <ele>8.6000003814697265625</ele>
        <time>2020-02-25T14:51:49.000Z</time>
      </trkpt>
      <trkpt lat="-34.594935066998004913330078125" lon="-59.0114952810108661651611328125">
        <ele>8.3999996185302734375</ele>
        <time>2020-02-25T14:51:57.000Z</time>
      </trkpt>
      <trkpt lat="-34.59485837258398532867431640625" lon="-59.0118496678769588470458984375">
        <ele>8.6000003814697265625</ele>
        <time>2020-02-25T14:52:07.000Z</time>
      </trkpt>
      <trkpt lat="-34.59478880278766155242919921875" lon="-59.0121648274362087249755859375">
        <ele>8.6000003814697265625</ele>
        <time>2020-02-25T14:52:16.000Z</time>
      </trkpt>
      <trkpt lat="-34.594719819724559783935546875" lon="-59.01231846772134304046630859375">
        <ele>8.80000019073486328125</ele>
        <time>2020-02-25T14:52:22.000Z</time>
      </trkpt>
      <trkpt lat="-34.5946438796818256378173828125" lon="-59.0123145282268524169921875">
        <ele>8.6000003814697265625</ele>
        <time>2020-02-25T14:52:27.000Z</time>
      </trkpt>
      <trkpt lat="-34.59452904760837554931640625" lon="-59.012294076383113861083984375">
        <ele>8.3999996185302734375</ele>
        <time>2020-02-25T14:52:34.000Z</time>
      </trkpt>
      <trkpt lat="-34.5945121161639690399169921875" lon="-59.0122831799089908599853515625">
        <ele>8.3999996185302734375</ele>
        <time>2020-02-25T14:52:35.000Z</time>
      </trkpt>
      <trkpt lat="-34.59437876008450984954833984375" lon="-59.01221604086458683013916015625">
        <ele>8.6000003814697265625</ele>
        <time>2020-02-25T14:52:43.000Z</time>
      </trkpt>
      <trkpt lat="-34.59426057524979114532470703125" lon="-59.01217572391033172607421875">
        <ele>8.3999996185302734375</ele>
        <time>2020-02-25T14:52:50.000Z</time>
      </trkpt>
      <trkpt lat="-34.59415311925113201141357421875" lon="-59.0121698565781116485595703125">
        <ele>8.19999980926513671875</ele>
        <time>2020-02-25T14:52:57.000Z</time>
      </trkpt>
      <trkpt lat="-34.59412395022809505462646484375" lon="-59.0121537633240222930908203125">
        <ele>8.3999996185302734375</ele>
        <time>2020-02-25T14:53:03.000Z</time>
      </trkpt>
      <trkpt lat="-34.5941211842000484466552734375" lon="-59.012154601514339447021484375">
        <ele>8.6000003814697265625</ele>
        <time>2020-02-25T14:53:07.000Z</time>
      </trkpt>
      <trkpt lat="-34.594090171158313751220703125" lon="-59.012141525745391845703125">
        <ele>8.6000003814697265625</ele>
        <time>2020-02-25T14:53:15.000Z</time>
      </trkpt>
      <trkpt lat="-34.594090171158313751220703125" lon="-59.012141525745391845703125">
        <ele>8.6000003814697265625</ele>
        <time>2020-02-25T14:53:16.000Z</time>
      </trkpt>
      <trkpt lat="-34.5939840562641620635986328125" lon="-59.01209928095340728759765625">
        <ele>8.3999996185302734375</ele>
        <time>2020-02-25T14:53:22.000Z</time>
      </trkpt>
      <trkpt lat="-34.5938298292458057403564453125" lon="-59.0120193175971508026123046875">
        <ele>8.80000019073486328125</ele>
        <time>2020-02-25T14:53:29.000Z</time>
      </trkpt>
      <trkpt lat="-34.59359773434698581695556640625" lon="-59.01194999925792217254638671875">
        <ele>8.6000003814697265625</ele>
        <time>2020-02-25T14:53:37.000Z</time>
      </trkpt>
      <trkpt lat="-34.59341852925717830657958984375" lon="-59.0118868835270404815673828125">
        <ele>8.6000003814697265625</ele>
        <time>2020-02-25T14:53:44.000Z</time>
      </trkpt>
      <trkpt lat="-34.5932377316057682037353515625" lon="-59.011841453611850738525390625">
        <ele>8.3999996185302734375</ele>
        <time>2020-02-25T14:53:51.000Z</time>
      </trkpt>
      <trkpt lat="-34.5931089855730533599853515625" lon="-59.01178537867963314056396484375">
        <ele>8.80000019073486328125</ele>
        <time>2020-02-25T14:53:58.000Z</time>
      </trkpt>
      <trkpt lat="-34.5929628051817417144775390625" lon="-59.011744558811187744140625">
        <ele>8.80000019073486328125</ele>
        <time>2020-02-25T14:54:05.000Z</time>
      </trkpt>
      <trkpt lat="-34.592746384441852569580078125" lon="-59.01168177835643291473388671875">
        <ele>8.3999996185302734375</ele>
        <time>2020-02-25T14:54:13.000Z</time>
      </trkpt>
      <trkpt lat="-34.59254178218543529510498046875" lon="-59.01162360794842243194580078125">
        <ele>8.3999996185302734375</ele>
        <time>2020-02-25T14:54:20.000Z</time>
      </trkpt>
      <trkpt lat="-34.59227154962718486785888671875" lon="-59.01150827296078205108642578125">
        <ele>8.80000019073486328125</ele>
        <time>2020-02-25T14:54:30.000Z</time>
      </trkpt>
      <trkpt lat="-34.59206334315240383148193359375" lon="-59.01145211420953273773193359375">
        <ele>8.6000003814697265625</ele>
        <time>2020-02-25T14:54:37.000Z</time>
      </trkpt>
      <trkpt lat="-34.5918627642095088958740234375" lon="-59.0113775990903377532958984375">
        <ele>8.19999980926513671875</ele>
        <time>2020-02-25T14:54:43.000Z</time>
      </trkpt>
      <trkpt lat="-34.59171365015208721160888671875" lon="-59.01134080253541469573974609375">
        <ele>8.19999980926513671875</ele>
        <time>2020-02-25T14:54:48.000Z</time>
      </trkpt>
      <trkpt lat="-34.59149320609867572784423828125" lon="-59.01127626188099384307861328125">
        <ele>8</ele>
        <time>2020-02-25T14:54:56.000Z</time>
      </trkpt>
      <trkpt lat="-34.59135599434375762939453125" lon="-59.01123552583158016204833984375">
        <ele>8.19999980926513671875</ele>
        <time>2020-02-25T14:55:01.000Z</time>
      </trkpt>
      <trkpt lat="-34.59118559025228023529052734375" lon="-59.0111925266683101654052734375">
        <ele>8.19999980926513671875</ele>
        <time>2020-02-25T14:55:07.000Z</time>
      </trkpt>
      <trkpt lat="-34.5909596979618072509765625" lon="-59.01113678701221942901611328125">
        <ele>8.19999980926513671875</ele>
        <time>2020-02-25T14:55:14.000Z</time>
      </trkpt>
      <trkpt lat="-34.5907231606543064117431640625" lon="-59.01108314283192157745361328125">
        <ele>8.3999996185302734375</ele>
        <time>2020-02-25T14:55:22.000Z</time>
      </trkpt>
      <trkpt lat="-34.59050514735281467437744140625" lon="-59.01099530048668384552001953125">
        <ele>8</ele>
        <time>2020-02-25T14:55:30.000Z</time>
      </trkpt>
      <trkpt lat="-34.59034857340157032012939453125" lon="-59.01094785891473293304443359375">
        <ele>7.80000019073486328125</ele>
        <time>2020-02-25T14:55:35.000Z</time>
      </trkpt>
      <trkpt lat="-34.5903248526155948638916015625" lon="-59.01096059940755367279052734375">
        <ele>7.599999904632568359375</ele>
        <time>2020-02-25T14:55:36.000Z</time>
      </trkpt>
      <trkpt lat="-34.59022401832044124603271484375" lon="-59.01107140816748142242431640625">
        <ele>7.599999904632568359375</ele>
        <time>2020-02-25T14:55:43.000Z</time>
      </trkpt>
      <trkpt lat="-34.5901644229888916015625" lon="-59.01119579561054706573486328125">
        <ele>8</ele>
        <time>2020-02-25T14:55:50.000Z</time>
      </trkpt>
      <trkpt lat="-34.5900879800319671630859375" lon="-59.01134314946830272674560546875">
        <ele>7.80000019073486328125</ele>
        <time>2020-02-25T14:55:58.000Z</time>
      </trkpt>
      <trkpt lat="-34.59005705080926418304443359375" lon="-59.0113765932619571685791015625">
        <ele>7.80000019073486328125</ele>
        <time>2020-02-25T14:56:04.000Z</time>
      </trkpt>
      <trkpt lat="-34.590040035545825958251953125" lon="-59.011376760900020599365234375">
        <ele>7.400000095367431640625</ele>
        <time>2020-02-25T14:56:14.000Z</time>
      </trkpt>
      <trkpt lat="-34.59003634750843048095703125" lon="-59.01137642562389373779296875">
        <ele>7.400000095367431640625</ele>
        <time>2020-02-25T14:56:30.000Z</time>
      </trkpt>
      <trkpt lat="-34.590025283396244049072265625" lon="-59.011370725929737091064453125">
        <ele>7.400000095367431640625</ele>
        <time>2020-02-25T14:56:47.000Z</time>
      </trkpt>
      <trkpt lat="-34.5900200866162776947021484375" lon="-59.01137030683457851409912109375">
        <ele>7.400000095367431640625</ele>
        <time>2020-02-25T14:56:57.000Z</time>
      </trkpt>
      <trkpt lat="-34.5900056697428226470947265625" lon="-59.0113677084445953369140625">
        <ele>7.400000095367431640625</ele>
        <time>2020-02-25T14:57:06.000Z</time>
      </trkpt>
      <trkpt lat="-34.58997557871043682098388671875" lon="-59.01136376895010471343994140625">
        <ele>7.400000095367431640625</ele>
        <time>2020-02-25T14:57:14.000Z</time>
      </trkpt>
      <trkpt lat="-34.58994171582162380218505859375" lon="-59.011389501392841339111328125">
        <ele>7.400000095367431640625</ele>
        <time>2020-02-25T14:57:18.000Z</time>
      </trkpt>
      <trkpt lat="-34.5898859761655330657958984375" lon="-59.01142059825360774993896484375">
        <ele>7.400000095367431640625</ele>
        <time>2020-02-25T14:57:26.000Z</time>
      </trkpt>
      <trkpt lat="-34.58988656289875507354736328125" lon="-59.01142328046262264251708984375">
        <ele>7.400000095367431640625</ele>
        <time>2020-02-25T14:57:35.000Z</time>
      </trkpt>
      <trkpt lat="-34.5898812822997570037841796875" lon="-59.01142763905227184295654296875">
        <ele>7.400000095367431640625</ele>
        <time>2020-02-25T14:57:45.000Z</time>
      </trkpt>
      <trkpt lat="-34.58987968973815441131591796875" lon="-59.01142864488065242767333984375">
        <ele>7.400000095367431640625</ele>
        <time>2020-02-25T14:57:52.000Z</time>
      </trkpt>
      <trkpt lat="-34.5898772589862346649169921875" lon="-59.0114374458789825439453125">
        <ele>7.400000095367431640625</ele>
        <time>2020-02-25T14:58:04.000Z</time>
      </trkpt>
      <trkpt lat="-34.58987331949174404144287109375" lon="-59.01144121773540973663330078125">
        <ele>7.400000095367431640625</ele>
        <time>2020-02-25T14:58:17.000Z</time>
      </trkpt>
      <trkpt lat="-34.58986761979758739471435546875" lon="-59.01145144365727901458740234375">
        <ele>7.400000095367431640625</ele>
        <time>2020-02-25T14:58:27.000Z</time>
      </trkpt>
      <trkpt lat="-34.58986476995050907135009765625" lon="-59.01145689189434051513671875">
        <ele>7.400000095367431640625</ele>
        <time>2020-02-25T14:58:35.000Z</time>
      </trkpt>
      <trkpt lat="-34.58986728452146053314208984375" lon="-59.01146586053073406219482421875">
        <ele>7.400000095367431640625</ele>
        <time>2020-02-25T14:58:44.000Z</time>
      </trkpt>
      <trkpt lat="-34.589873068034648895263671875" lon="-59.01147021912038326263427734375">
        <ele>7.400000095367431640625</ele>
        <time>2020-02-25T14:58:55.000Z</time>
      </trkpt>
      <trkpt lat="-34.58986996673047542572021484375" lon="-59.011465273797512054443359375">
        <ele>7.400000095367431640625</ele>
        <time>2020-02-25T14:59:09.000Z</time>
      </trkpt>
      <trkpt lat="-34.58986829034984111785888671875" lon="-59.01146359741687774658203125">
        <ele>7.400000095367431640625</ele>
        <time>2020-02-25T14:59:28.000Z</time>
      </trkpt>
      <trkpt lat="-34.589866362512111663818359375" lon="-59.011459909379482269287109375">
        <ele>7.400000095367431640625</ele>
        <time>2020-02-25T14:59:52.000Z</time>
      </trkpt>
      <trkpt lat="-34.58986736834049224853515625" lon="-59.01146938093006610870361328125">
        <ele>7.400000095367431640625</ele>
        <time>2020-02-25T14:59:59.000Z</time>
      </trkpt>
      <trkpt lat="-34.5898702181875705718994140625" lon="-59.01147642172873020172119140625">
        <ele>7.400000095367431640625</ele>
        <time>2020-02-25T15:00:10.000Z</time>
      </trkpt>
      <trkpt lat="-34.5898752473294734954833984375" lon="-59.01147424243390560150146484375">
        <ele>7.400000095367431640625</ele>
        <time>2020-02-25T15:00:22.000Z</time>
      </trkpt>
      <trkpt lat="-34.58987331949174404144287109375" lon="-59.01147030293941497802734375">
        <ele>7.400000095367431640625</ele>
        <time>2020-02-25T15:00:32.000Z</time>
      </trkpt>
      <trkpt lat="-34.5898735709488391876220703125" lon="-59.0114701353013515472412109375">
        <ele>7.400000095367431640625</ele>
        <time>2020-02-25T15:00:37.000Z</time>
      </trkpt>
      <trkpt lat="-34.5898715592920780181884765625" lon="-59.01147306896746158599853515625">
        <ele>7.400000095367431640625</ele>
        <time>2020-02-25T15:00:41.000Z</time>
      </trkpt>
      <trkpt lat="-34.58987181074917316436767578125" lon="-59.01148446835577487945556640625">
        <ele>7.400000095367431640625</ele>
        <time>2020-02-25T15:00:57.000Z</time>
      </trkpt>
      <trkpt lat="-34.5898725651204586029052734375" lon="-59.011484719812870025634765625">
        <ele>7.400000095367431640625</ele>
        <time>2020-02-25T15:01:08.000Z</time>
      </trkpt>
      <trkpt lat="-34.5898692123591899871826171875" lon="-59.01148614473640918731689453125">
        <ele>7.400000095367431640625</ele>
        <time>2020-02-25T15:01:19.000Z</time>
      </trkpt>
      <trkpt lat="-34.58986912854015827178955078125" lon="-59.01148363016545772552490234375">
        <ele>7.400000095367431640625</ele>
        <time>2020-02-25T15:01:30.000Z</time>
      </trkpt>
      <trkpt lat="-34.589871726930141448974609375" lon="-59.0114838816225528717041015625">
        <ele>7.400000095367431640625</ele>
        <time>2020-02-25T15:01:41.000Z</time>
      </trkpt>
      <trkpt lat="-34.58986979909241199493408203125" lon="-59.01147357188165187835693359375">
        <ele>7.400000095367431640625</ele>
        <time>2020-02-25T15:01:51.000Z</time>
      </trkpt>
      <trkpt lat="-34.589865691959857940673828125" lon="-59.01147030293941497802734375">
        <ele>7.400000095367431640625</ele>
        <time>2020-02-25T15:02:08.000Z</time>
      </trkpt>
      <trkpt lat="-34.589866362512111663818359375" lon="-59.01147239841520786285400390625">
        <ele>7.400000095367431640625</ele>
        <time>2020-02-25T15:02:20.000Z</time>
      </trkpt>
      <trkpt lat="-34.58986292593181133270263671875" lon="-59.01147893629968166351318359375">
        <ele>7.400000095367431640625</ele>
        <time>2020-02-25T15:02:37.000Z</time>
      </trkpt>
      <trkpt lat="-34.58985907025635242462158203125" lon="-59.0114778466522693634033203125">
        <ele>7.400000095367431640625</ele>
        <time>2020-02-25T15:02:51.000Z</time>
      </trkpt>
      <trkpt lat="-34.58985789678990840911865234375" lon="-59.0114748291671276092529296875">
        <ele>7.400000095367431640625</ele>
        <time>2020-02-25T15:03:55.000Z</time>
      </trkpt>
      <trkpt lat="-34.58985789678990840911865234375" lon="-59.011474661529064178466796875">
        <ele>7.400000095367431640625</ele>
        <time>2020-02-25T15:04:01.000Z</time>
      </trkpt>
      <trkpt lat="-34.589857645332813262939453125" lon="-59.0114749968051910400390625">
        <ele>7.400000095367431640625</ele>
        <time>2020-02-25T15:04:36.000Z</time>
      </trkpt>
      <trkpt lat="-34.58985739387571811676025390625" lon="-59.0114744938910007476806640625">
        <ele>7.400000095367431640625</ele>
        <time>2020-02-25T15:05:11.000Z</time>
      </trkpt>
      <trkpt lat="-34.58985689096152782440185546875" lon="-59.0114741586148738861083984375">
        <ele>7.400000095367431640625</ele>
        <time>2020-02-25T15:05:23.000Z</time>
      </trkpt>
      <trkpt lat="-34.58985839970409870147705078125" lon="-59.01147700846195220947265625">
        <ele>7.400000095367431640625</ele>
        <time>2020-02-25T15:05:32.000Z</time>
      </trkpt>
      <trkpt lat="-34.58985823206603527069091796875" lon="-59.01147675700485706329345703125">
        <ele>7.400000095367431640625</ele>
        <time>2020-02-25T15:06:06.000Z</time>
      </trkpt>
      <trkpt lat="-34.5898568071424961090087890625" lon="-59.011476002633571624755859375">
        <ele>7.400000095367431640625</ele>
        <time>2020-02-25T15:06:38.000Z</time>
      </trkpt>
      <trkpt lat="-34.58985705859959125518798828125" lon="-59.01147474534809589385986328125">
        <ele>7.400000095367431640625</ele>
        <time>2020-02-25T15:07:19.000Z</time>
      </trkpt>
      <trkpt lat="-34.5898571424186229705810546875" lon="-59.01147474534809589385986328125">
        <ele>7.400000095367431640625</ele>
        <time>2020-02-25T15:07:21.000Z</time>
      </trkpt>
      <trkpt lat="-34.58985605277121067047119140625" lon="-59.0114724822342395782470703125">
        <ele>7.400000095367431640625</ele>
        <time>2020-02-25T15:08:03.000Z</time>
      </trkpt>
      <trkpt lat="-34.5898544602096080780029296875" lon="-59.0114698000252246856689453125">
        <ele>7.400000095367431640625</ele>
        <time>2020-02-25T15:08:43.000Z</time>
      </trkpt>
      <trkpt lat="-34.5898524485528469085693359375" lon="-59.0114681236445903778076171875">
        <ele>7.400000095367431640625</ele>
        <time>2020-02-25T15:08:54.000Z</time>
      </trkpt>
      <trkpt lat="-34.5898517780005931854248046875" lon="-59.011472649872303009033203125">
        <ele>7.400000095367431640625</ele>
        <time>2020-02-25T15:09:10.000Z</time>
      </trkpt>
      <trkpt lat="-34.5898519456386566162109375" lon="-59.01147206313908100128173828125">
        <ele>7.400000095367431640625</ele>
        <time>2020-02-25T15:09:30.000Z</time>
      </trkpt>
      <trkpt lat="-34.58985236473381519317626953125" lon="-59.01147290132939815521240234375">
        <ele>7.400000095367431640625</ele>
        <time>2020-02-25T15:09:56.000Z</time>
      </trkpt>
      <trkpt lat="-34.58985538221895694732666015625" lon="-59.01148094795644283294677734375">
        <ele>7.400000095367431640625</ele>
        <time>2020-02-25T15:10:09.000Z</time>
      </trkpt>
      <trkpt lat="-34.589854292571544647216796875" lon="-59.01147902011871337890625">
        <ele>7.400000095367431640625</ele>
        <time>2020-02-25T15:10:33.000Z</time>
      </trkpt>
      <trkpt lat="-34.58985370583832263946533203125" lon="-59.01147860102355480194091796875">
        <ele>7.400000095367431640625</ele>
        <time>2020-02-25T15:11:02.000Z</time>
      </trkpt>
      <trkpt lat="-34.58985387347638607025146484375" lon="-59.01147834956645965576171875">
        <ele>7.400000095367431640625</ele>
        <time>2020-02-25T15:11:17.000Z</time>
      </trkpt>
      <trkpt lat="-34.5898537896573543548583984375" lon="-59.0114785172045230865478515625">
        <ele>7.400000095367431640625</ele>
        <time>2020-02-25T15:11:20.000Z</time>
      </trkpt>
      <trkpt lat="-34.58985907025635242462158203125" lon="-59.0114798583090305328369140625">
        <ele>7.400000095367431640625</ele>
        <time>2020-02-25T15:11:37.000Z</time>
      </trkpt>
      <trkpt lat="-34.5898638479411602020263671875" lon="-59.01148865930736064910888671875">
        <ele>7.400000095367431640625</ele>
        <time>2020-02-25T15:11:50.000Z</time>
      </trkpt>
      <trkpt lat="-34.589867703616619110107421875" lon="-59.0114936046302318572998046875">
        <ele>7.400000095367431640625</ele>
        <time>2020-02-25T15:12:05.000Z</time>
      </trkpt>
      <trkpt lat="-34.58987139165401458740234375" lon="-59.0114962868392467498779296875">
        <ele>7.400000095367431640625</ele>
        <time>2020-02-25T15:12:16.000Z</time>
      </trkpt>
      <trkpt lat="-34.58987005054950714111328125" lon="-59.0114982984960079193115234375">
        <ele>7.400000095367431640625</ele>
        <time>2020-02-25T15:12:26.000Z</time>
      </trkpt>
      <trkpt lat="-34.5898712240159511566162109375" lon="-59.0115006454288959503173828125">
        <ele>7.400000095367431640625</ele>
        <time>2020-02-25T15:12:36.000Z</time>
      </trkpt>
      <trkpt lat="-34.58987147547304630279541015625" lon="-59.01149922050535678863525390625">
        <ele>7.400000095367431640625</ele>
        <time>2020-02-25T15:13:17.000Z</time>
      </trkpt>
      <trkpt lat="-34.58987415768206119537353515625" lon="-59.01150290854275226593017578125">
        <ele>7.400000095367431640625</ele>
        <time>2020-02-25T15:13:34.000Z</time>
      </trkpt>
      <trkpt lat="-34.589877091348171234130859375" lon="-59.01150005869567394256591796875">
        <ele>7.400000095367431640625</ele>
        <time>2020-02-25T15:13:54.000Z</time>
      </trkpt>
      <trkpt lat="-34.5898742415010929107666015625" lon="-59.0114986337721347808837890625">
        <ele>7.400000095367431640625</ele>
        <time>2020-02-25T15:14:09.000Z</time>
      </trkpt>
      <trkpt lat="-34.58986870944499969482421875" lon="-59.01150458492338657379150390625">
        <ele>7.400000095367431640625</ele>
        <time>2020-02-25T15:14:33.000Z</time>
      </trkpt>
      <trkpt lat="-34.58980794064700603485107421875" lon="-59.0114778466522693634033203125">
        <ele>7.400000095367431640625</ele>
        <time>2020-02-25T15:14:47.000Z</time>
      </trkpt>
      <trkpt lat="-34.58979687653481960296630859375" lon="-59.01146636344492435455322265625">
        <ele>7.400000095367431640625</ele>
        <time>2020-02-25T15:14:52.000Z</time>
      </trkpt>
    </trkseg>
  </trk>
</gpx>
